<?xml version='1.0' encoding='UTF-8'?><gpx version="1.1" creator="JPX - https://github.com/jenetics/jpx" xmlns="http://www.topografix.com/GPX/1/1"><trk><trkseg><trkpt lat="42.943626249318726" lon="12.117864103366054"><ele>846.9999999999999</ele><time>2026-04-12T08:36:04.001Z</time></trkpt><trkpt lat="42.94360485648223" lon="12.117782709102835"><ele>847.0</ele><time>2026-04-12T08:36:09.001Z</time></trkpt><trkpt lat="42.943548684126924" lon="12.11787943893648"><ele>847.0</ele><time>2026-04-12T08:37:49Z</time></trkpt><trkpt lat="42.94341801202634" lon="12.117864587484018"><ele>847.0</ele><time>2026-04-12T08:37:51Z</time></trkpt><trkpt lat="42.94334803753445" lon="12.117867375388709"><ele>846.9999999999999</ele><time>2026-04-12T08:37:52Z</time></trkpt><trkpt lat="42.94327185735295" lon="12.117873177791035"><ele>847.0</ele><time>2026-04-12T08:37:53Z</time></trkpt><trkpt lat="42.94320572855116" lon="12.117879114689794"><ele>847.2</ele><time>2026-04-12T08:37:54Z</time></trkpt><trkpt lat="42.943085527127444" lon="12.117905384183713"><ele>847.4000000000001</ele><time>2026-04-12T08:37:56Z</time></trkpt><trkpt lat="42.94298017559804" lon="12.117934122384018"><ele>847.5999999999999</ele><time>2026-04-12T08:37:58Z</time></trkpt><trkpt lat="42.94288294023752" lon="12.117958438121674"><ele>847.8</ele><time>2026-04-12T08:38:00Z</time></trkpt><trkpt lat="42.94280863380089" lon="12.117970987550239"><ele>848.0</ele><time>2026-04-12T08:38:02Z</time></trkpt><trkpt lat="42.94273488726125" lon="12.117967363223906"><ele>848.0</ele><time>2026-04-12T08:38:05Z</time></trkpt><trkpt lat="42.942725755725476" lon="12.117839400844467"><ele>848.0</ele><time>2026-04-12T08:38:08Z</time></trkpt><trkpt lat="42.94280058595328" lon="12.117675018576671"><ele>848.0</ele><time>2026-04-12T08:38:09.999Z</time></trkpt><trkpt lat="42.94284210375262" lon="12.117567574790046"><ele>848.0</ele><time>2026-04-12T08:38:10.999Z</time></trkpt><trkpt lat="42.94287308711658" lon="12.117456372592358"><ele>848.0</ele><time>2026-04-12T08:38:11.999Z</time></trkpt><trkpt lat="42.942894855611634" lon="12.117349628785082"><ele>845.8</ele><time>2026-04-12T08:38:12.999Z</time></trkpt><trkpt lat="42.94291896755979" lon="12.117239234863536"><ele>843.5999999999999</ele><time>2026-04-12T08:38:13.999Z</time></trkpt><trkpt lat="42.94295464060038" lon="12.11715801412204"><ele>841.4000000000001</ele><time>2026-04-12T08:38:14.999Z</time></trkpt><trkpt lat="42.943051801839516" lon="12.117066203709562"><ele>839.2</ele><time>2026-04-12T08:38:16.999Z</time></trkpt><trkpt lat="42.943205329417985" lon="12.11698652100456"><ele>837.0</ele><time>2026-04-12T08:38:18.999Z</time></trkpt><trkpt lat="42.94329613614773" lon="12.1169445621066"><ele>836.8</ele><time>2026-04-12T08:38:19.999Z</time></trkpt><trkpt lat="42.943409008088054" lon="12.116895949739071"><ele>836.6</ele><time>2026-04-12T08:38:20.999Z</time></trkpt><trkpt lat="42.94352020715455" lon="12.116849840194229"><ele>836.4</ele><time>2026-04-12T08:38:21.999Z</time></trkpt><trkpt lat="42.943619677466344" lon="12.11680348284425"><ele>836.1999999999999</ele><time>2026-04-12T08:38:22.999Z</time></trkpt><trkpt lat="42.94370763030723" lon="12.116768489966086"><ele>836.0</ele><time>2026-04-12T08:38:23.999Z</time></trkpt><trkpt lat="42.94380787551398" lon="12.116750604525029"><ele>836.0</ele><time>2026-04-12T08:38:24.999Z</time></trkpt><trkpt lat="42.94390746484969" lon="12.116746259352416"><ele>836.0</ele><time>2026-04-12T08:38:25.999Z</time></trkpt><trkpt lat="42.943999013634624" lon="12.116742642140666"><ele>836.0</ele><time>2026-04-12T08:38:26.999Z</time></trkpt><trkpt lat="42.944084740464014" lon="12.11674724118815"><ele>836.0</ele><time>2026-04-12T08:38:27.999Z</time></trkpt><trkpt lat="42.944155584629776" lon="12.116797558845766"><ele>836.0</ele><time>2026-04-12T08:38:28.999Z</time></trkpt><trkpt lat="42.94427813668259" lon="12.116810796362328"><ele>833.5999999999999</ele><time>2026-04-12T08:38:30.999Z</time></trkpt><trkpt lat="42.9443820100378" lon="12.116728844234846"><ele>831.2</ele><time>2026-04-12T08:38:32.999Z</time></trkpt><trkpt lat="42.94439177910437" lon="12.116607195797133"><ele>828.8</ele><time>2026-04-12T08:38:33.999Z</time></trkpt><trkpt lat="42.94438007342787" lon="12.116489820554218"><ele>826.4000000000001</ele><time>2026-04-12T08:38:34.999Z</time></trkpt><trkpt lat="42.94436628076659" lon="12.11638141831209"><ele>824.0</ele><time>2026-04-12T08:38:35.999Z</time></trkpt><trkpt lat="42.944351981194266" lon="12.116248116191684"><ele>822.2</ele><time>2026-04-12T08:38:36.999Z</time></trkpt><trkpt lat="42.94433949910183" lon="12.116094237401956"><ele>820.4000000000001</ele><time>2026-04-12T08:38:37.999Z</time></trkpt><trkpt lat="42.94433435075248" lon="12.11596256938481"><ele>818.6</ele><time>2026-04-12T08:38:38.999Z</time></trkpt><trkpt lat="42.94433999362241" lon="12.115836638136615"><ele>816.8</ele><time>2026-04-12T08:38:39.999Z</time></trkpt><trkpt lat="42.9443568863641" lon="12.115728256928175"><ele>815.0</ele><time>2026-04-12T08:38:40.999Z</time></trkpt><trkpt lat="42.94438848981731" lon="12.115643174007836"><ele>815.0000000000001</ele><time>2026-04-12T08:38:41.999Z</time></trkpt><trkpt lat="42.944449870864" lon="12.115584855259964"><ele>815.0</ele><time>2026-04-12T08:38:42.999Z</time></trkpt><trkpt lat="42.944523648751776" lon="12.115565848760275"><ele>815.0</ele><time>2026-04-12T08:38:43.999Z</time></trkpt><trkpt lat="42.944595867551136" lon="12.11558319291685"><ele>815.0</ele><time>2026-04-12T08:38:44.999Z</time></trkpt><trkpt lat="42.94466960849882" lon="12.115636127492726"><ele>815.0000000000001</ele><time>2026-04-12T08:38:45.999Z</time></trkpt><trkpt lat="42.94475760246542" lon="12.115686533879932"><ele>815.0</ele><time>2026-04-12T08:38:46.999Z</time></trkpt><trkpt lat="42.94482638101989" lon="12.115751866384635"><ele>815.0</ele><time>2026-04-12T08:38:47.999Z</time></trkpt><trkpt lat="42.944894573118304" lon="12.115837217372645"><ele>815.0</ele><time>2026-04-12T08:38:48.999Z</time></trkpt><trkpt lat="42.9449524875668" lon="12.115937487866404"><ele>815.0</ele><time>2026-04-12T08:38:49.999Z</time></trkpt><trkpt lat="42.94500198320589" lon="12.11605606485353"><ele>815.0</ele><time>2026-04-12T08:38:50.999Z</time></trkpt><trkpt lat="42.9450388287006" lon="12.116186993517646"><ele>815.0</ele><time>2026-04-12T08:38:51.999Z</time></trkpt><trkpt lat="42.94507108914563" lon="12.116309857313734"><ele>810.2</ele><time>2026-04-12T08:38:52.999Z</time></trkpt><trkpt lat="42.94511201915332" lon="12.11641221361127"><ele>805.4</ele><time>2026-04-12T08:38:53.999Z</time></trkpt><trkpt lat="42.9451835209836" lon="12.116494656011502"><ele>800.5999999999999</ele><time>2026-04-12T08:38:54.999Z</time></trkpt><trkpt lat="42.94526807791908" lon="12.116568488728888"><ele>795.8</ele><time>2026-04-12T08:38:55.999Z</time></trkpt><trkpt lat="42.94539799320771" lon="12.116529355608133"><ele>791.0</ele><time>2026-04-12T08:38:56.999Z</time></trkpt><trkpt lat="42.94550443156577" lon="12.116510686922"><ele>791.0</ele><time>2026-04-12T08:38:57.999Z</time></trkpt><trkpt lat="42.94559975858385" lon="12.116530899952728"><ele>791.0</ele><time>2026-04-12T08:38:58.999Z</time></trkpt><trkpt lat="42.945650833916886" lon="12.116649007218697"><ele>791.0</ele><time>2026-04-12T08:38:59.999Z</time></trkpt><trkpt lat="42.94571381205377" lon="12.116681781164063"><ele>791.0</ele><time>2026-04-12T08:39:00.999Z</time></trkpt><trkpt lat="42.94582386207629" lon="12.11668080833133"><ele>791.0</ele><time>2026-04-12T08:39:02.999Z</time></trkpt><trkpt lat="42.94583794947601" lon="12.116553964224487"><ele>791.0000000000001</ele><time>2026-04-12T08:39:03.999Z</time></trkpt><trkpt lat="42.94582502415632" lon="12.116446753229866"><ele>791.0</ele><time>2026-04-12T08:39:04.999Z</time></trkpt><trkpt lat="42.94579930306915" lon="12.11634562960395"><ele>791.0</ele><time>2026-04-12T08:39:05.999Z</time></trkpt><trkpt lat="42.94579846429307" lon="12.116259457287862"><ele>791.0</ele><time>2026-04-12T08:39:06.999Z</time></trkpt><trkpt lat="42.94591205121103" lon="12.116192476205157"><ele>791.0000000000001</ele><time>2026-04-12T08:39:08.999Z</time></trkpt><trkpt lat="42.945987090356866" lon="12.1162645879694"><ele>791.0</ele><time>2026-04-12T08:39:09.999Z</time></trkpt><trkpt lat="42.94607934459142" lon="12.116303568972533"><ele>788.1666666666667</ele><time>2026-04-12T08:39:10.999Z</time></trkpt><trkpt lat="42.946159784398304" lon="12.116354037495663"><ele>785.3333333333334</ele><time>2026-04-12T08:39:11.999Z</time></trkpt><trkpt lat="42.94622966410435" lon="12.116350990442932"><ele>782.5</ele><time>2026-04-12T08:39:12.999Z</time></trkpt><trkpt lat="42.94629253650674" lon="12.11631137251643"><ele>779.6666666666667</ele><time>2026-04-12T08:39:13.999Z</time></trkpt><trkpt lat="42.946319983800294" lon="12.116178273581964"><ele>776.8333333333334</ele><time>2026-04-12T08:39:14.999Z</time></trkpt><trkpt lat="42.94633239408271" lon="12.116061062916406"><ele>774.0</ele><time>2026-04-12T08:39:15.999Z</time></trkpt><trkpt lat="42.94633214527876" lon="12.11592217752408"><ele>774.0</ele><time>2026-04-12T08:39:16.999Z</time></trkpt><trkpt lat="42.94633304626568" lon="12.11580272968661"><ele>774.0</ele><time>2026-04-12T08:39:17.999Z</time></trkpt><trkpt lat="42.94634461772884" lon="12.115713466622"><ele>774.0</ele><time>2026-04-12T08:39:18.999Z</time></trkpt><trkpt lat="42.94646948648796" lon="12.115667098267622"><ele>774.0</ele><time>2026-04-12T08:39:20.999Z</time></trkpt><trkpt lat="42.94655761534167" lon="12.115736705671099"><ele>774.0</ele><time>2026-04-12T08:39:21.999Z</time></trkpt><trkpt lat="42.94662044518643" lon="12.115755690986646"><ele>774.0</ele><time>2026-04-12T08:39:22.999Z</time></trkpt><trkpt lat="42.94668552940133" lon="12.115704656303112"><ele>770.8000000000001</ele><time>2026-04-12T08:39:23.999Z</time></trkpt><trkpt lat="42.946733389828225" lon="12.11559019909789"><ele>767.6</ele><time>2026-04-12T08:39:24.999Z</time></trkpt><trkpt lat="42.94675911535784" lon="12.11545090544786"><ele>764.4</ele><time>2026-04-12T08:39:25.999Z</time></trkpt><trkpt lat="42.94680497590751" lon="12.11530278756683"><ele>761.2</ele><time>2026-04-12T08:39:26.999Z</time></trkpt><trkpt lat="42.94681894890641" lon="12.115160056197855"><ele>758.0</ele><time>2026-04-12T08:39:27.999Z</time></trkpt><trkpt lat="42.94684549111233" lon="12.115068475208394"><ele>758.0</ele><time>2026-04-12T08:39:28.999Z</time></trkpt><trkpt lat="42.94690898742511" lon="12.115006801362695"><ele>758.0</ele><time>2026-04-12T08:39:29.999Z</time></trkpt><trkpt lat="42.94700405401932" lon="12.115005574770468"><ele>758.0</ele><time>2026-04-12T08:39:30.999Z</time></trkpt><trkpt lat="42.94711921596712" lon="12.115002025042225"><ele>758.0</ele><time>2026-04-12T08:39:31.999Z</time></trkpt><trkpt lat="42.94723813505711" lon="12.114986349981049"><ele>758.0</ele><time>2026-04-12T08:39:32.999Z</time></trkpt><trkpt lat="42.94735792021642" lon="12.114983717446902"><ele>758.0</ele><time>2026-04-12T08:39:33.999Z</time></trkpt><trkpt lat="42.947468221277425" lon="12.11495645682849"><ele>758.0</ele><time>2026-04-12T08:39:34.999Z</time></trkpt><trkpt lat="42.94757209854605" lon="12.114897425575123"><ele>758.0</ele><time>2026-04-12T08:39:35.999Z</time></trkpt><trkpt lat="42.94767545909585" lon="12.11480963465726"><ele>758.0</ele><time>2026-04-12T08:39:36.999Z</time></trkpt><trkpt lat="42.94777491198402" lon="12.114701681820971"><ele>753.25</ele><time>2026-04-12T08:39:37.999Z</time></trkpt><trkpt lat="42.94787777894411" lon="12.114597304620172"><ele>748.5</ele><time>2026-04-12T08:39:38.999Z</time></trkpt><trkpt lat="42.947953932468806" lon="12.114457389761498"><ele>743.75</ele><time>2026-04-12T08:39:39.999Z</time></trkpt><trkpt lat="42.94803703454284" lon="12.114347259922539"><ele>739.0</ele><time>2026-04-12T08:39:40.999Z</time></trkpt><trkpt lat="42.94811654255332" lon="12.114238637347377"><ele>739.0</ele><time>2026-04-12T08:39:41.999Z</time></trkpt><trkpt lat="42.948211229427564" lon="12.114150446180693"><ele>739.0</ele><time>2026-04-12T08:39:42.999Z</time></trkpt><trkpt lat="42.9483210480517" lon="12.114107970690924"><ele>739.0</ele><time>2026-04-12T08:39:43.999Z</time></trkpt><trkpt lat="42.9484232502828" lon="12.114074952293354"><ele>739.0</ele><time>2026-04-12T08:39:44.999Z</time></trkpt><trkpt lat="42.948512640771504" lon="12.114091320327365"><ele>739.0</ele><time>2026-04-12T08:39:45.999Z</time></trkpt><trkpt lat="42.94859388148946" lon="12.114142857699285"><ele>736.2</ele><time>2026-04-12T08:39:46.999Z</time></trkpt><trkpt lat="42.948664260241024" lon="12.114236462535384"><ele>733.4000000000001</ele><time>2026-04-12T08:39:47.999Z</time></trkpt><trkpt lat="42.94875185632694" lon="12.114312954127419"><ele>730.6</ele><time>2026-04-12T08:39:48.999Z</time></trkpt><trkpt lat="42.94883202337341" lon="12.114373728813113"><ele>727.8</ele><time>2026-04-12T08:39:49.999Z</time></trkpt><trkpt lat="42.94892828055538" lon="12.114374800488244"><ele>725.0</ele><time>2026-04-12T08:39:50.999Z</time></trkpt><trkpt lat="42.949017097275174" lon="12.114315795098056"><ele>725.0</ele><time>2026-04-12T08:39:51.999Z</time></trkpt><trkpt lat="42.94911618048966" lon="12.114229972832177"><ele>725.0</ele><time>2026-04-12T08:39:52.999Z</time></trkpt><trkpt lat="42.949232375440914" lon="12.114144958344065"><ele>725.0</ele><time>2026-04-12T08:39:53.999Z</time></trkpt><trkpt lat="42.94935713064432" lon="12.11407696880929"><ele>725.0</ele><time>2026-04-12T08:39:54.999Z</time></trkpt><trkpt lat="42.94947943937826" lon="12.11400507578474"><ele>719.6666666666666</ele><time>2026-04-12T08:39:55.999Z</time></trkpt><trkpt lat="42.949603779628035" lon="12.113898865451313"><ele>714.3333333333334</ele><time>2026-04-12T08:39:56.999Z</time></trkpt><trkpt lat="42.94972736692632" lon="12.113765293816943"><ele>709.0</ele><time>2026-04-12T08:39:57.999Z</time></trkpt><trkpt lat="42.949857503143406" lon="12.113604503929395"><ele>709.0</ele><time>2026-04-12T08:39:58.999Z</time></trkpt><trkpt lat="42.94998080846706" lon="12.113455732871707"><ele>709.0</ele><time>2026-04-12T08:39:59.999Z</time></trkpt><trkpt lat="42.95009259311307" lon="12.113332033295544"><ele>709.0</ele><time>2026-04-12T08:40:00.999Z</time></trkpt><trkpt lat="42.95021096445174" lon="12.113223974987228"><ele>706.25</ele><time>2026-04-12T08:40:01.999Z</time></trkpt><trkpt lat="42.95033433341735" lon="12.11314537531577"><ele>703.5</ele><time>2026-04-12T08:40:02.999Z</time></trkpt><trkpt lat="42.950475643020766" lon="12.113093853182942"><ele>700.75</ele><time>2026-04-12T08:40:03.999Z</time></trkpt><trkpt lat="42.950621909131826" lon="12.113051148442734"><ele>698.0</ele><time>2026-04-12T08:40:04.999Z</time></trkpt><trkpt lat="42.95077489196648" lon="12.113023611527419"><ele>694.0</ele><time>2026-04-12T08:40:05.999Z</time></trkpt><trkpt lat="42.95093520489701" lon="12.113041275455359"><ele>690.0</ele><time>2026-04-12T08:40:06.999Z</time></trkpt><trkpt lat="42.951087718052115" lon="12.113023926522263"><ele>686.0</ele><time>2026-04-12T08:40:07.999Z</time></trkpt><trkpt lat="42.95122457964442" lon="12.113024617649552"><ele>686.0</ele><time>2026-04-12T08:40:08.999Z</time></trkpt><trkpt lat="42.951347810249274" lon="12.112994901031886"><ele>686.0</ele><time>2026-04-12T08:40:09.999Z</time></trkpt><trkpt lat="42.951470759096566" lon="12.112921906485983"><ele>686.0</ele><time>2026-04-12T08:40:10.999Z</time></trkpt><trkpt lat="42.9515934943672" lon="12.112806888346645"><ele>686.0</ele><time>2026-04-12T08:40:11.999Z</time></trkpt><trkpt lat="42.95169997435951" lon="12.112684037117045"><ele>681.5999999999999</ele><time>2026-04-12T08:40:12.999Z</time></trkpt><trkpt lat="42.95178204384516" lon="12.112568960726243"><ele>677.2</ele><time>2026-04-12T08:40:13.999Z</time></trkpt><trkpt lat="42.951843361738675" lon="12.112441367875936"><ele>672.8</ele><time>2026-04-12T08:40:14.999Z</time></trkpt><trkpt lat="42.951866445228745" lon="12.11230220043861"><ele>668.4000000000001</ele><time>2026-04-12T08:40:15.998Z</time></trkpt><trkpt lat="42.95187173465299" lon="12.112163767484471"><ele>664.0</ele><time>2026-04-12T08:40:16.998Z</time></trkpt><trkpt lat="42.951855268269306" lon="12.112026775503933"><ele>664.0</ele><time>2026-04-12T08:40:17.998Z</time></trkpt><trkpt lat="42.95179805742453" lon="12.111933608286883"><ele>664.0</ele><time>2026-04-12T08:40:18.998Z</time></trkpt><trkpt lat="42.951792895115446" lon="12.111844315414725"><ele>664.0</ele><time>2026-04-12T08:40:19.998Z</time></trkpt><trkpt lat="42.951862003197206" lon="12.111725063664158"><ele>664.0</ele><time>2026-04-12T08:40:21.998Z</time></trkpt><trkpt lat="42.95194536996354" lon="12.11177287961162"><ele>664.0</ele><time>2026-04-12T08:40:22.998Z</time></trkpt><trkpt lat="42.952037323001065" lon="12.111817194319375"><ele>664.0</ele><time>2026-04-12T08:40:23.998Z</time></trkpt><trkpt lat="42.95212194609312" lon="12.1118757655908"><ele>664.0</ele><time>2026-04-12T08:40:24.998Z</time></trkpt><trkpt lat="42.95220176143942" lon="12.111896904559005"><ele>664.0</ele><time>2026-04-12T08:40:25.998Z</time></trkpt><trkpt lat="42.95227892738757" lon="12.111890869229011"><ele>664.0</ele><time>2026-04-12T08:40:26.998Z</time></trkpt><trkpt lat="42.95235073557311" lon="12.111775071483812"><ele>664.0</ele><time>2026-04-12T08:40:27.998Z</time></trkpt><trkpt lat="42.952404694188964" lon="12.111669934125093"><ele>664.0</ele><time>2026-04-12T08:40:28.998Z</time></trkpt><trkpt lat="42.9524538672165" lon="12.111590028682903"><ele>664.0</ele><time>2026-04-12T08:40:29.998Z</time></trkpt><trkpt lat="42.952506500086216" lon="12.111541714636873"><ele>664.0</ele><time>2026-04-12T08:40:30.998Z</time></trkpt><trkpt lat="42.95257111237648" lon="12.11156843955591"><ele>664.0</ele><time>2026-04-12T08:40:31.998Z</time></trkpt><trkpt lat="42.95262075958361" lon="12.11173229169137"><ele>664.0</ele><time>2026-04-12T08:40:33.999Z</time></trkpt><trkpt lat="42.952623470162685" lon="12.111831196605282"><ele>664.0</ele><time>2026-04-12T08:40:34.999Z</time></trkpt><trkpt lat="42.95260959892473" lon="12.111960018828754"><ele>664.0</ele><time>2026-04-12T08:40:35.999Z</time></trkpt><trkpt lat="42.95257872427218" lon="12.112116981370674"><ele>664.0</ele><time>2026-04-12T08:40:36.999Z</time></trkpt><trkpt lat="42.95252725357972" lon="12.112289167437783"><ele>664.0</ele><time>2026-04-12T08:40:37.999Z</time></trkpt><trkpt lat="42.95246732462406" lon="12.112449313451682"><ele>664.0</ele><time>2026-04-12T08:40:38.999Z</time></trkpt><trkpt lat="42.95242264103484" lon="12.112592373812795"><ele>663.75</ele><time>2026-04-12T08:40:39.999Z</time></trkpt><trkpt lat="42.952392827063875" lon="12.112734324923844"><ele>663.5</ele><time>2026-04-12T08:40:40.999Z</time></trkpt><trkpt lat="42.95239425041443" lon="12.112881163182648"><ele>663.25</ele><time>2026-04-12T08:40:41.999Z</time></trkpt><trkpt lat="42.952409797248635" lon="12.113052588783086"><ele>663.0</ele><time>2026-04-12T08:40:42.999Z</time></trkpt><trkpt lat="42.95243793228052" lon="12.113203058319517"><ele>661.5999999999999</ele><time>2026-04-12T08:40:43.999Z</time></trkpt><trkpt lat="42.952500673253105" lon="12.113321152782472"><ele>660.1999999999999</ele><time>2026-04-12T08:40:44.999Z</time></trkpt><trkpt lat="42.952592071198964" lon="12.113391968525416"><ele>658.8</ele><time>2026-04-12T08:40:45.999Z</time></trkpt><trkpt lat="42.952674183859905" lon="12.113489254497702"><ele>657.4</ele><time>2026-04-12T08:40:46.999Z</time></trkpt><trkpt lat="42.95276201236126" lon="12.113610532806312"><ele>656.0</ele><time>2026-04-12T08:40:47.999Z</time></trkpt><trkpt lat="42.952829215445085" lon="12.11373916403399"><ele>653.1999999999999</ele><time>2026-04-12T08:40:48.999Z</time></trkpt><trkpt lat="42.952890338228755" lon="12.113850681372668"><ele>650.4</ele><time>2026-04-12T08:40:49.999Z</time></trkpt><trkpt lat="42.95294090015296" lon="12.11396180334175"><ele>647.6</ele><time>2026-04-12T08:40:50.999Z</time></trkpt><trkpt lat="42.95297050164579" lon="12.114077898313028"><ele>644.8</ele><time>2026-04-12T08:40:51.999Z</time></trkpt><trkpt lat="42.95298029764716" lon="12.114205767997246"><ele>642.0</ele><time>2026-04-12T08:40:52.999Z</time></trkpt><trkpt lat="42.952989969983555" lon="12.114344330156436"><ele>642.0</ele><time>2026-04-12T08:40:53.999Z</time></trkpt><trkpt lat="42.95298475757321" lon="12.114494847485464"><ele>642.0</ele><time>2026-04-12T08:40:54.999Z</time></trkpt><trkpt lat="42.952993021657306" lon="12.114640832506009"><ele>642.0</ele><time>2026-04-12T08:40:55.999Z</time></trkpt><trkpt lat="42.953002699429746" lon="12.114775745639918"><ele>642.0</ele><time>2026-04-12T08:40:56.999Z</time></trkpt><trkpt lat="42.95299445345641" lon="12.114883606380596"><ele>642.0</ele><time>2026-04-12T08:40:57.999Z</time></trkpt><trkpt lat="42.95300862028902" lon="12.114967939910557"><ele>641.9999999999999</ele><time>2026-04-12T08:40:58.999Z</time></trkpt><trkpt lat="42.95304490686963" lon="12.1150387863286"><ele>642.0</ele><time>2026-04-12T08:40:59.999Z</time></trkpt><trkpt lat="42.95309724338937" lon="12.115098654042162"><ele>642.0</ele><time>2026-04-12T08:41:00.999Z</time></trkpt><trkpt lat="42.95317657870925" lon="12.115101768306403"><ele>642.0</ele><time>2026-04-12T08:41:01.999Z</time></trkpt><trkpt lat="42.95323728012253" lon="12.11502484953067"><ele>642.0</ele><time>2026-04-12T08:41:02.999Z</time></trkpt><trkpt lat="42.95328221743818" lon="12.114954425491163"><ele>641.9999999999999</ele><time>2026-04-12T08:41:03.999Z</time></trkpt><trkpt lat="42.95334540133836" lon="12.114877754556657"><ele>642.0</ele><time>2026-04-12T08:41:04.999Z</time></trkpt><trkpt lat="42.95341781853204" lon="12.114777080453917"><ele>637.4</ele><time>2026-04-12T08:41:05.999Z</time></trkpt><trkpt lat="42.95349806916452" lon="12.11467340381909"><ele>632.8000000000001</ele><time>2026-04-12T08:41:06.999Z</time></trkpt><trkpt lat="42.953595120177376" lon="12.114599612023062"><ele>628.2</ele><time>2026-04-12T08:41:07.999Z</time></trkpt><trkpt lat="42.95369018751694" lon="12.114513771155755"><ele>623.6</ele><time>2026-04-12T08:41:08.999Z</time></trkpt><trkpt lat="42.953770506906245" lon="12.114410658410774"><ele>619.0</ele><time>2026-04-12T08:41:09.999Z</time></trkpt><trkpt lat="42.95384011724152" lon="12.114326356394903"><ele>619.0</ele><time>2026-04-12T08:41:10.999Z</time></trkpt><trkpt lat="42.953868249161715" lon="12.11421469462183"><ele>619.0</ele><time>2026-04-12T08:41:11.999Z</time></trkpt><trkpt lat="42.95384010666815" lon="12.114101307511707"><ele>619.0</ele><time>2026-04-12T08:41:12.999Z</time></trkpt><trkpt lat="42.95378653434356" lon="12.114007777768215"><ele>619.0</ele><time>2026-04-12T08:41:13.999Z</time></trkpt><trkpt lat="42.95370021342979" lon="12.113928247553831"><ele>619.0</ele><time>2026-04-12T08:41:14.999Z</time></trkpt><trkpt lat="42.95364258684566" lon="12.113801230557442"><ele>619.8333333333334</ele><time>2026-04-12T08:41:15.999Z</time></trkpt><trkpt lat="42.953582142570525" lon="12.113689876337347"><ele>620.6666666666667</ele><time>2026-04-12T08:41:16.999Z</time></trkpt><trkpt lat="42.953538813909084" lon="12.113592180578694"><ele>621.5</ele><time>2026-04-12T08:41:17.999Z</time></trkpt><trkpt lat="42.95356089782942" lon="12.113488851208759"><ele>622.3333333333334</ele><time>2026-04-12T08:41:18.999Z</time></trkpt><trkpt lat="42.95363084578073" lon="12.113427733718297"><ele>623.1666666666666</ele><time>2026-04-12T08:41:19.999Z</time></trkpt><trkpt lat="42.953689903246605" lon="12.113346458085685"><ele>624.0</ele><time>2026-04-12T08:41:20.999Z</time></trkpt><trkpt lat="42.95377387540232" lon="12.113309969714416"><ele>624.0</ele><time>2026-04-12T08:41:21.999Z</time></trkpt><trkpt lat="42.953858847999385" lon="12.11331871399932"><ele>624.0</ele><time>2026-04-12T08:41:22.999Z</time></trkpt><trkpt lat="42.953947553446255" lon="12.113369801366137"><ele>624.0</ele><time>2026-04-12T08:41:23.999Z</time></trkpt><trkpt lat="42.9540382477668" lon="12.113442871118268"><ele>624.0</ele><time>2026-04-12T08:41:24.999Z</time></trkpt><trkpt lat="42.954132379238025" lon="12.11348735004491"><ele>624.0</ele><time>2026-04-12T08:41:25.999Z</time></trkpt><trkpt lat="42.95422733712044" lon="12.113532408008009"><ele>622.4</ele><time>2026-04-12T08:41:26.999Z</time></trkpt><trkpt lat="42.95432070836925" lon="12.113576005230529"><ele>620.8</ele><time>2026-04-12T08:41:27.999Z</time></trkpt><trkpt lat="42.9544076396811" lon="12.11361726808141"><ele>619.2</ele><time>2026-04-12T08:41:28.999Z</time></trkpt><trkpt lat="42.95448392330593" lon="12.113667802724924"><ele>617.6</ele><time>2026-04-12T08:41:29.999Z</time></trkpt><trkpt lat="42.95456630127267" lon="12.113710456670962"><ele>616.0</ele><time>2026-04-12T08:41:30.999Z</time></trkpt><trkpt lat="42.95465215872052" lon="12.113748243434513"><ele>616.0</ele><time>2026-04-12T08:41:31.999Z</time></trkpt><trkpt lat="42.954720120002484" lon="12.11382230498086"><ele>616.0</ele><time>2026-04-12T08:41:32.999Z</time></trkpt><trkpt lat="42.95479634936416" lon="12.11388439624375"><ele>616.0</ele><time>2026-04-12T08:41:33.999Z</time></trkpt><trkpt lat="42.95488070046108" lon="12.113939011396976"><ele>616.0</ele><time>2026-04-12T08:41:34.999Z</time></trkpt><trkpt lat="42.954972139620295" lon="12.113992713038847"><ele>616.0</ele><time>2026-04-12T08:41:35.999Z</time></trkpt><trkpt lat="42.95508152829793" lon="12.114055693718047"><ele>615.3333333333334</ele><time>2026-04-12T08:41:36.999Z</time></trkpt><trkpt lat="42.95517837578015" lon="12.114107262777699"><ele>614.6666666666667</ele><time>2026-04-12T08:41:37.999Z</time></trkpt><trkpt lat="42.95526634857599" lon="12.11414853599514"><ele>614.0</ele><time>2026-04-12T08:41:38.999Z</time></trkpt><trkpt lat="42.95534822019869" lon="12.11416163776894"><ele>613.3333333333334</ele><time>2026-04-12T08:41:39.999Z</time></trkpt><trkpt lat="42.95541588496447" lon="12.114187068118415"><ele>612.6666666666666</ele><time>2026-04-12T08:41:40.999Z</time></trkpt><trkpt lat="42.95548798328373" lon="12.11420824440181"><ele>612.0</ele><time>2026-04-12T08:41:41.999Z</time></trkpt><trkpt lat="42.95557202186331" lon="12.114222858593108"><ele>612.0</ele><time>2026-04-12T08:41:42.999Z</time></trkpt><trkpt lat="42.95566298384507" lon="12.114246168731883"><ele>612.0</ele><time>2026-04-12T08:41:43.999Z</time></trkpt><trkpt lat="42.95575504893874" lon="12.114236510378502"><ele>612.0</ele><time>2026-04-12T08:41:44.999Z</time></trkpt><trkpt lat="42.9558334981867" lon="12.114241462363559"><ele>612.0</ele><time>2026-04-12T08:41:45.999Z</time></trkpt><trkpt lat="42.955912314556315" lon="12.114248754079009"><ele>612.0</ele><time>2026-04-12T08:41:46.999Z</time></trkpt><trkpt lat="42.955987588311416" lon="12.114258054661398"><ele>612.0</ele><time>2026-04-12T08:41:47.999Z</time></trkpt><trkpt lat="42.95606664864587" lon="12.11427151154775"><ele>611.1666666666666</ele><time>2026-04-12T08:41:48.999Z</time></trkpt><trkpt lat="42.95614619142207" lon="12.114281957541003"><ele>610.3333333333334</ele><time>2026-04-12T08:41:49.999Z</time></trkpt><trkpt lat="42.95621513172987" lon="12.114302551227137"><ele>609.5</ele><time>2026-04-12T08:41:50.999Z</time></trkpt><trkpt lat="42.95628130387993" lon="12.11431986643117"><ele>608.6666666666667</ele><time>2026-04-12T08:41:51.999Z</time></trkpt><trkpt lat="42.95634812866541" lon="12.11430001726306"><ele>607.8333333333334</ele><time>2026-04-12T08:41:52.999Z</time></trkpt><trkpt lat="42.95642005648323" lon="12.114245487638204"><ele>607.0</ele><time>2026-04-12T08:41:53.999Z</time></trkpt><trkpt lat="42.9564988635502" lon="12.11418097757995"><ele>607.0</ele><time>2026-04-12T08:41:54.999Z</time></trkpt><trkpt lat="42.95657455651488" lon="12.114113013138635"><ele>607.0</ele><time>2026-04-12T08:41:55.999Z</time></trkpt><trkpt lat="42.956656221646384" lon="12.114058696108364"><ele>607.0</ele><time>2026-04-12T08:41:56.999Z</time></trkpt><trkpt lat="42.956717819986046" lon="12.11399874630195"><ele>607.0</ele><time>2026-04-12T08:41:57.999Z</time></trkpt><trkpt lat="42.95680643189566" lon="12.113916188780115"><ele>607.0</ele><time>2026-04-12T08:41:59.999Z</time></trkpt><trkpt lat="42.956899022616504" lon="12.113790247126612"><ele>605.1666666666667</ele><time>2026-04-12T08:42:01.999Z</time></trkpt><trkpt lat="42.9569493652504" lon="12.113723441582309"><ele>603.3333333333334</ele><time>2026-04-12T08:42:02.999Z</time></trkpt><trkpt lat="42.95703158413589" lon="12.113605704617253"><ele>601.5</ele><time>2026-04-12T08:42:04.999Z</time></trkpt><trkpt lat="42.957097269613755" lon="12.113549831889411"><ele>599.6666666666666</ele><time>2026-04-12T08:42:05.999Z</time></trkpt><trkpt lat="42.957178154790064" lon="12.113511230650124"><ele>597.8333333333333</ele><time>2026-04-12T08:42:06.999Z</time></trkpt><trkpt lat="42.957264276392316" lon="12.113476105727287"><ele>596.0</ele><time>2026-04-12T08:42:07.999Z</time></trkpt><trkpt lat="42.95734188991086" lon="12.113447224879804"><ele>596.0</ele><time>2026-04-12T08:42:08.999Z</time></trkpt><trkpt lat="42.95740608614431" lon="12.11341638271728"><ele>596.0</ele><time>2026-04-12T08:42:09.999Z</time></trkpt><trkpt lat="42.957470174028906" lon="12.113288423805948"><ele>596.0</ele><time>2026-04-12T08:42:12Z</time></trkpt><trkpt lat="42.95746551368127" lon="12.113169992995388"><ele>596.0</ele><time>2026-04-12T08:42:13Z</time></trkpt><trkpt lat="42.957458311306155" lon="12.113037388569886"><ele>596.0</ele><time>2026-04-12T08:42:14Z</time></trkpt><trkpt lat="42.95747614557591" lon="12.112892855519412"><ele>595.0</ele><time>2026-04-12T08:42:15Z</time></trkpt><trkpt lat="42.95750073755068" lon="12.112754872915698"><ele>594.0</ele><time>2026-04-12T08:42:16Z</time></trkpt><trkpt lat="42.95752084427509" lon="12.112626391745405"><ele>593.0</ele><time>2026-04-12T08:42:17Z</time></trkpt><trkpt lat="42.95752763064026" lon="12.112489670394435"><ele>592.0</ele><time>2026-04-12T08:42:18Z</time></trkpt><trkpt lat="42.95750474652524" lon="12.112332363861986"><ele>591.0</ele><time>2026-04-12T08:42:19Z</time></trkpt><trkpt lat="42.95750235933297" lon="12.112159548046565"><ele>588.5</ele><time>2026-04-12T08:42:20Z</time></trkpt><trkpt lat="42.95750125135307" lon="12.111991087736778"><ele>586.0</ele><time>2026-04-12T08:42:21Z</time></trkpt><trkpt lat="42.95749920603879" lon="12.111832956074053"><ele>583.5</ele><time>2026-04-12T08:42:21.998Z</time></trkpt><trkpt lat="42.95752121566697" lon="12.111687049604901"><ele>581.0</ele><time>2026-04-12T08:42:22.998Z</time></trkpt><trkpt lat="42.95753533911102" lon="12.111531935006033"><ele>578.0</ele><time>2026-04-12T08:42:23.998Z</time></trkpt><trkpt lat="42.957533898740785" lon="12.111360494796626"><ele>575.0</ele><time>2026-04-12T08:42:24.998Z</time></trkpt><trkpt lat="42.95751869556377" lon="12.111186386740572"><ele>572.0</ele><time>2026-04-12T08:42:25.998Z</time></trkpt><trkpt lat="42.957502769777406" lon="12.111020360961195"><ele>569.0</ele><time>2026-04-12T08:42:26.998Z</time></trkpt><trkpt lat="42.957526235493226" lon="12.110853035312598"><ele>568.4</ele><time>2026-04-12T08:42:27.998Z</time></trkpt><trkpt lat="42.95754937345524" lon="12.110688602775483"><ele>567.8</ele><time>2026-04-12T08:42:28.998Z</time></trkpt><trkpt lat="42.95756228326588" lon="12.110531934276004"><ele>567.2</ele><time>2026-04-12T08:42:29.998Z</time></trkpt><trkpt lat="42.957596898902395" lon="12.110399825546384"><ele>566.6</ele><time>2026-04-12T08:42:30.998Z</time></trkpt><trkpt lat="42.957636253741086" lon="12.110293056103396"><ele>566.0</ele><time>2026-04-12T08:42:31.998Z</time></trkpt><trkpt lat="42.957686654477556" lon="12.110211477093168"><ele>566.0</ele><time>2026-04-12T08:42:32.998Z</time></trkpt><trkpt lat="42.957750566451566" lon="12.110163753780395"><ele>566.0</ele><time>2026-04-12T08:42:33.998Z</time></trkpt><trkpt lat="42.95782432007079" lon="12.110133146480662"><ele>566.0</ele><time>2026-04-12T08:42:34.998Z</time></trkpt><trkpt lat="42.957930036658034" lon="12.1101000451645"><ele>566.0</ele><time>2026-04-12T08:42:35.998Z</time></trkpt><trkpt lat="42.95804373820744" lon="12.110064437535636"><ele>566.0</ele><time>2026-04-12T08:42:36.999Z</time></trkpt><trkpt lat="42.95817694759072" lon="12.11004981397385"><ele>566.0</ele><time>2026-04-12T08:42:37.999Z</time></trkpt><trkpt lat="42.95831759962061" lon="12.110054720185856"><ele>566.0</ele><time>2026-04-12T08:42:38.999Z</time></trkpt><trkpt lat="42.95847114271217" lon="12.11005661776578"><ele>566.0</ele><time>2026-04-12T08:42:39.999Z</time></trkpt><trkpt lat="42.95862749684493" lon="12.1100586547488"><ele>563.6666666666666</ele><time>2026-04-12T08:42:40.999Z</time></trkpt><trkpt lat="42.958787811873385" lon="12.110054815711845"><ele>561.3333333333334</ele><time>2026-04-12T08:42:41.999Z</time></trkpt><trkpt lat="42.95894039637982" lon="12.110056687756401"><ele>559.0</ele><time>2026-04-12T08:42:42.999Z</time></trkpt><trkpt lat="42.959098271901375" lon="12.110063634132736"><ele>555.0</ele><time>2026-04-12T08:42:43.999Z</time></trkpt><trkpt lat="42.95926744197195" lon="12.110061364385398"><ele>551.0</ele><time>2026-04-12T08:42:44.999Z</time></trkpt><trkpt lat="42.959437789687705" lon="12.110059248318306"><ele>547.0</ele><time>2026-04-12T08:42:45.999Z</time></trkpt><trkpt lat="42.95960068260733" lon="12.110057228453716"><ele>547.0</ele><time>2026-04-12T08:42:46.999Z</time></trkpt><trkpt lat="42.9597601302075" lon="12.110064429846549"><ele>547.0</ele><time>2026-04-12T08:42:47.999Z</time></trkpt><trkpt lat="42.959914483632524" lon="12.110079369802031"><ele>547.0</ele><time>2026-04-12T08:42:48.999Z</time></trkpt><trkpt lat="42.960065766434035" lon="12.110096282667323"><ele>544.0</ele><time>2026-04-12T08:42:49.999Z</time></trkpt><trkpt lat="42.96021546770327" lon="12.110118799042286"><ele>541.0</ele><time>2026-04-12T08:42:50.999Z</time></trkpt><trkpt lat="42.960363847851994" lon="12.11014904589826"><ele>538.0</ele><time>2026-04-12T08:42:51.999Z</time></trkpt><trkpt lat="42.96050879599529" lon="12.110189332982989"><ele>535.0</ele><time>2026-04-12T08:42:52.999Z</time></trkpt><trkpt lat="42.96064953418041" lon="12.110245765990625"><ele>535.0</ele><time>2026-04-12T08:42:53.999Z</time></trkpt><trkpt lat="42.96078021108909" lon="12.110307268597778"><ele>535.0</ele><time>2026-04-12T08:42:54.999Z</time></trkpt><trkpt lat="42.960899311999555" lon="12.11036560306734"><ele>535.0</ele><time>2026-04-12T08:42:55.999Z</time></trkpt><trkpt lat="42.9610048110953" lon="12.110412979456173"><ele>535.0</ele><time>2026-04-12T08:42:56.999Z</time></trkpt><trkpt lat="42.96110352755133" lon="12.110436776362455"><ele>530.6</ele><time>2026-04-12T08:42:57.999Z</time></trkpt><trkpt lat="42.96119605998201" lon="12.110418459846388"><ele>526.2</ele><time>2026-04-12T08:42:58.999Z</time></trkpt><trkpt lat="42.96127769069701" lon="12.110346187326023"><ele>521.8</ele><time>2026-04-12T08:42:59.999Z</time></trkpt><trkpt lat="42.96134193458101" lon="12.110212001880996"><ele>517.4</ele><time>2026-04-12T08:43:00.999Z</time></trkpt><trkpt lat="42.961374808794666" lon="12.110040186570775"><ele>513.0</ele><time>2026-04-12T08:43:01.999Z</time></trkpt><trkpt lat="42.96138991972754" lon="12.109847005548303"><ele>511.66666666666663</ele><time>2026-04-12T08:43:02.999Z</time></trkpt><trkpt lat="42.96140409888766" lon="12.10964620301635"><ele>510.3333333333333</ele><time>2026-04-12T08:43:03.999Z</time></trkpt><trkpt lat="42.96140280890126" lon="12.109435684157445"><ele>509.0</ele><time>2026-04-12T08:43:04.999Z</time></trkpt><trkpt lat="42.961379968824076" lon="12.109209304024342"><ele>509.0</ele><time>2026-04-12T08:43:05.999Z</time></trkpt><trkpt lat="42.961374562736296" lon="12.10898369481116"><ele>509.0</ele><time>2026-04-12T08:43:06.999Z</time></trkpt><trkpt lat="42.96133916685759" lon="12.108784176043013"><ele>509.0</ele><time>2026-04-12T08:43:07.999Z</time></trkpt><trkpt lat="42.96132089205603" lon="12.108605893636394"><ele>509.0</ele><time>2026-04-12T08:43:08.999Z</time></trkpt><trkpt lat="42.96130179184984" lon="12.108457701652103"><ele>509.0</ele><time>2026-04-12T08:43:09.999Z</time></trkpt><trkpt lat="42.96128698325295" lon="12.10834806812697"><ele>509.0</ele><time>2026-04-12T08:43:10.999Z</time></trkpt><trkpt lat="42.961311265197665" lon="12.10821848157255"><ele>509.0</ele><time>2026-04-12T08:43:12.999Z</time></trkpt><trkpt lat="42.961445750311135" lon="12.108177033787367"><ele>509.0</ele><time>2026-04-12T08:43:14.999Z</time></trkpt><trkpt lat="42.96152789772052" lon="12.10812160474902"><ele>509.0</ele><time>2026-04-12T08:43:15.999Z</time></trkpt><trkpt lat="42.96162993554402" lon="12.108048244707648"><ele>507.0</ele><time>2026-04-12T08:43:16.999Z</time></trkpt><trkpt lat="42.961740559557136" lon="12.107948078720163"><ele>505.0</ele><time>2026-04-12T08:43:17.999Z</time></trkpt><trkpt lat="42.961834427397264" lon="12.10785150811251"><ele>503.0</ele><time>2026-04-12T08:43:18.999Z</time></trkpt><trkpt lat="42.96191975242286" lon="12.10776660735599"><ele>501.0</ele><time>2026-04-12T08:43:20Z</time></trkpt><trkpt lat="42.962001431243436" lon="12.107699669807241"><ele>501.0</ele><time>2026-04-12T08:43:21Z</time></trkpt><trkpt lat="42.96207557884399" lon="12.10762241580186"><ele>501.0</ele><time>2026-04-12T08:43:22Z</time></trkpt><trkpt lat="42.962157393345485" lon="12.107587550825194"><ele>501.0</ele><time>2026-04-12T08:43:23Z</time></trkpt><trkpt lat="42.96222425520046" lon="12.10754072726711"><ele>501.0</ele><time>2026-04-12T08:43:24Z</time></trkpt><trkpt lat="42.96228783860608" lon="12.10749404866506"><ele>501.0</ele><time>2026-04-12T08:43:25Z</time></trkpt><trkpt lat="42.96242044903228" lon="12.107472964679378"><ele>501.0</ele><time>2026-04-12T08:43:27Z</time></trkpt><trkpt lat="42.96252198323475" lon="12.10747699828898"><ele>501.0</ele><time>2026-04-12T08:43:28Z</time></trkpt><trkpt lat="42.9626188929994" lon="12.107513732474196"><ele>501.0</ele><time>2026-04-12T08:43:29Z</time></trkpt><trkpt lat="42.962712136962125" lon="12.107526972818373"><ele>501.0</ele><time>2026-04-12T08:43:30Z</time></trkpt><trkpt lat="42.96279990240241" lon="12.107571247688982"><ele>501.0</ele><time>2026-04-12T08:43:31Z</time></trkpt><trkpt lat="42.96287539820183" lon="12.107582634657062"><ele>498.0</ele><time>2026-04-12T08:43:32Z</time></trkpt><trkpt lat="42.96293853552284" lon="12.107622643086048"><ele>495.0</ele><time>2026-04-12T08:43:33Z</time></trkpt><trkpt lat="42.9630574692876" lon="12.107630586904492"><ele>492.0</ele><time>2026-04-12T08:43:35Z</time></trkpt><trkpt lat="42.963168404826305" lon="12.107425873328895"><ele>489.0</ele><time>2026-04-12T08:43:37Z</time></trkpt><trkpt lat="42.963242665716876" lon="12.107316864269063"><ele>488.0</ele><time>2026-04-12T08:43:38Z</time></trkpt><trkpt lat="42.96334036603438" lon="12.107217397674127"><ele>487.0</ele><time>2026-04-12T08:43:39Z</time></trkpt><trkpt lat="42.96344625543075" lon="12.107144554996623"><ele>486.0</ele><time>2026-04-12T08:43:40Z</time></trkpt><trkpt lat="42.963546593497604" lon="12.107084059673108"><ele>485.0</ele><time>2026-04-12T08:43:41Z</time></trkpt><trkpt lat="42.96362415731348" lon="12.107030442397939"><ele>484.0</ele><time>2026-04-12T08:43:42Z</time></trkpt><trkpt lat="42.963723537322046" lon="12.107040174181398"><ele>484.00000000000006</ele><time>2026-04-12T08:43:44Z</time></trkpt><trkpt lat="42.96374169979562" lon="12.107142098756285"><ele>484.0</ele><time>2026-04-12T08:43:47Z</time></trkpt><trkpt lat="42.96373898396847" lon="12.107251986268611"><ele>484.0</ele><time>2026-04-12T08:43:51Z</time></trkpt><trkpt lat="42.96370342174959" lon="12.107362883313044"><ele>484.0</ele><time>2026-04-12T08:43:53Z</time></trkpt><trkpt lat="42.96368470994972" lon="12.107464264958322"><ele>484.00000000000006</ele><time>2026-04-12T08:43:55Z</time></trkpt><trkpt lat="42.96365260692583" lon="12.107607103423668"><ele>484.0</ele><time>2026-04-12T08:43:57Z</time></trkpt><trkpt lat="42.963619346431095" lon="12.107734814706847"><ele>485.0</ele><time>2026-04-12T08:43:59Z</time></trkpt><trkpt lat="42.96355906382932" lon="12.107883134512884"><ele>486.0</ele><time>2026-04-12T08:44:01Z</time></trkpt><trkpt lat="42.96350994376141" lon="12.107958780796942"><ele>487.0</ele><time>2026-04-12T08:44:02Z</time></trkpt><trkpt lat="42.9634607596534" lon="12.10801998913652"><ele>488.0</ele><time>2026-04-12T08:44:03Z</time></trkpt><trkpt lat="42.963381371007706" lon="12.108099528518295"><ele>489.0</ele><time>2026-04-12T08:44:05Z</time></trkpt><trkpt lat="42.96331390651017" lon="12.108197136858383"><ele>489.0</ele><time>2026-04-12T08:44:07Z</time></trkpt><trkpt lat="42.96324703116984" lon="12.108254997494026"><ele>489.0</ele><time>2026-04-12T08:44:08Z</time></trkpt><trkpt lat="42.96315844040572" lon="12.108309386306443"><ele>489.0</ele><time>2026-04-12T08:44:09Z</time></trkpt><trkpt lat="42.963090378822834" lon="12.1083225788804"><ele>489.0</ele><time>2026-04-12T08:44:10Z</time></trkpt><trkpt lat="42.963024905768314" lon="12.108352108869024"><ele>489.0</ele><time>2026-04-12T08:44:13Z</time></trkpt><trkpt lat="42.96313562281428" lon="12.108270371512196"><ele>489.0</ele><time>2026-04-12T08:44:18Z</time></trkpt><trkpt lat="42.96307222135293" lon="12.10762577546431"><ele>489.0</ele><time>2026-04-12T08:44:19Z</time></trkpt><trkpt lat="42.96314034912188" lon="12.107543047282014"><ele>489.0</ele><time>2026-04-12T08:44:21Z</time></trkpt><trkpt lat="42.96319962178079" lon="12.107413388635209"><ele>489.0</ele><time>2026-04-12T08:44:23Z</time></trkpt><trkpt lat="42.96328574198117" lon="12.107295581444586"><ele>489.0</ele><time>2026-04-12T08:44:24Z</time></trkpt><trkpt lat="42.963479198257154" lon="12.107148844239534"><ele>487.75</ele><time>2026-04-12T08:44:25Z</time></trkpt><trkpt lat="42.963733672808665" lon="12.107229833997135"><ele>486.5</ele><time>2026-04-12T08:44:27.999Z</time></trkpt><trkpt lat="42.96375069753669" lon="12.10714472153878"><ele>485.25</ele><time>2026-04-12T08:44:28.999Z</time></trkpt><trkpt lat="42.96381102757155" lon="12.10707099341915"><ele>484.0</ele><time>2026-04-12T08:44:30.999Z</time></trkpt><trkpt lat="42.96391790670379" lon="12.107040329129966"><ele>484.0</ele><time>2026-04-12T08:44:32.999Z</time></trkpt><trkpt lat="42.96399747753406" lon="12.107023519648683"><ele>484.0</ele><time>2026-04-12T08:44:33.999Z</time></trkpt><trkpt lat="42.96408715532721" lon="12.106995017045906"><ele>484.0</ele><time>2026-04-12T08:44:34.999Z</time></trkpt><trkpt lat="42.964189071922334" lon="12.106962038855382"><ele>484.0</ele><time>2026-04-12T08:44:35.999Z</time></trkpt><trkpt lat="42.964283504221704" lon="12.106918046097402"><ele>484.0</ele><time>2026-04-12T08:44:36.999Z</time></trkpt><trkpt lat="42.96437779173403" lon="12.106887290840026"><ele>482.85714285714283</ele><time>2026-04-12T08:44:37.999Z</time></trkpt><trkpt lat="42.96445651968474" lon="12.1068829013309"><ele>481.71428571428567</ele><time>2026-04-12T08:44:38.999Z</time></trkpt><trkpt lat="42.96453241178565" lon="12.106870389146904"><ele>480.57142857142856</ele><time>2026-04-12T08:44:39.999Z</time></trkpt><trkpt lat="42.96460602748946" lon="12.106864353207609"><ele>479.42857142857144</ele><time>2026-04-12T08:44:40.999Z</time></trkpt><trkpt lat="42.96467196671506" lon="12.106863931019884"><ele>478.2857142857143</ele><time>2026-04-12T08:44:41.999Z</time></trkpt><trkpt lat="42.96474973918722" lon="12.106861238500825"><ele>477.1428571428571</ele><time>2026-04-12T08:44:42.999Z</time></trkpt><trkpt lat="42.96481368784158" lon="12.10684907152873"><ele>476.0</ele><time>2026-04-12T08:44:43.999Z</time></trkpt><trkpt lat="42.96491894403953" lon="12.106777591418801"><ele>475.99999999999994</ele><time>2026-04-12T08:44:45.999Z</time></trkpt><trkpt lat="42.9649950666012" lon="12.106672241345175"><ele>476.0</ele><time>2026-04-12T08:44:47.999Z</time></trkpt><trkpt lat="42.96501320757969" lon="12.106582679367659"><ele>476.0</ele><time>2026-04-12T08:44:48.999Z</time></trkpt><trkpt lat="42.965030694750354" lon="12.106497105716818"><ele>476.0</ele><time>2026-04-12T08:44:49.999Z</time></trkpt><trkpt lat="42.96502427051731" lon="12.106370990509088"><ele>475.99999999999994</ele><time>2026-04-12T08:44:51.999Z</time></trkpt><trkpt lat="42.96496899355096" lon="12.10623702685727"><ele>476.0</ele><time>2026-04-12T08:44:53.999Z</time></trkpt><trkpt lat="42.96493209231512" lon="12.10616458440039"><ele>474.66666666666663</ele><time>2026-04-12T08:44:54.999Z</time></trkpt><trkpt lat="42.96491066509762" lon="12.106047404484292"><ele>473.3333333333333</ele><time>2026-04-12T08:44:56.999Z</time></trkpt><trkpt lat="42.96495585237921" lon="12.105954623474982"><ele>472.0</ele><time>2026-04-12T08:45:00Z</time></trkpt><trkpt lat="42.96504469869418" lon="12.105936252670519"><ele>470.66666666666663</ele><time>2026-04-12T08:45:02Z</time></trkpt><trkpt lat="42.96511475238579" lon="12.10587105447494"><ele>469.3333333333333</ele><time>2026-04-12T08:45:04Z</time></trkpt><trkpt lat="42.96517820763091" lon="12.105808910456245"><ele>468.0</ele><time>2026-04-12T08:45:06Z</time></trkpt><trkpt lat="42.9652394843836" lon="12.105743224212214"><ele>467.0</ele><time>2026-04-12T08:45:08Z</time></trkpt><trkpt lat="42.96530006835411" lon="12.105678092299874"><ele>466.0</ele><time>2026-04-12T08:45:10Z</time></trkpt><trkpt lat="42.9653518018951" lon="12.105606272812453"><ele>465.0</ele><time>2026-04-12T08:45:12Z</time></trkpt><trkpt lat="42.96542479692559" lon="12.105516498535927"><ele>464.0</ele><time>2026-04-12T08:45:14Z</time></trkpt><trkpt lat="42.96549829260202" lon="12.10546498785648"><ele>463.0</ele><time>2026-04-12T08:45:15Z</time></trkpt><trkpt lat="42.96557689144031" lon="12.105378779040471"><ele>462.0</ele><time>2026-04-12T08:45:16Z</time></trkpt><trkpt lat="42.96567193458821" lon="12.10527447181733"><ele>462.0</ele><time>2026-04-12T08:45:17Z</time></trkpt><trkpt lat="42.965762206314146" lon="12.105176172058389"><ele>462.0</ele><time>2026-04-12T08:45:18Z</time></trkpt><trkpt lat="42.96584073127073" lon="12.105070846486525"><ele>462.0</ele><time>2026-04-12T08:45:19Z</time></trkpt><trkpt lat="42.96593395591153" lon="12.104986016519337"><ele>462.0</ele><time>2026-04-12T08:45:20Z</time></trkpt><trkpt lat="42.96604303810032" lon="12.104919597606875"><ele>460.40000000000003</ele><time>2026-04-12T08:45:21Z</time></trkpt><trkpt lat="42.966137940197406" lon="12.104839810123444"><ele>458.80000000000007</ele><time>2026-04-12T08:45:22Z</time></trkpt><trkpt lat="42.96623239932257" lon="12.10476259310783"><ele>457.2</ele><time>2026-04-12T08:45:23Z</time></trkpt><trkpt lat="42.96632165623006" lon="12.104692882393826"><ele>455.6</ele><time>2026-04-12T08:45:24Z</time></trkpt><trkpt lat="42.96639151119309" lon="12.10463074883233"><ele>454.0</ele><time>2026-04-12T08:45:25Z</time></trkpt><trkpt lat="42.96647168254064" lon="12.10461730186039"><ele>454.00000000000006</ele><time>2026-04-12T08:45:26Z</time></trkpt><trkpt lat="42.96655748158053" lon="12.104668521995148"><ele>454.0</ele><time>2026-04-12T08:45:27Z</time></trkpt><trkpt lat="42.9666467581822" lon="12.104701632759182"><ele>454.0</ele><time>2026-04-12T08:45:28Z</time></trkpt><trkpt lat="42.96671657350601" lon="12.104758929376938"><ele>454.0</ele><time>2026-04-12T08:45:29Z</time></trkpt><trkpt lat="42.96682440272774" lon="12.10479798716082"><ele>454.00000000000006</ele><time>2026-04-12T08:45:31Z</time></trkpt><trkpt lat="42.966890341727506" lon="12.104775782799202"><ele>454.0</ele><time>2026-04-12T08:45:32Z</time></trkpt><trkpt lat="42.966964186810806" lon="12.104711577522819"><ele>452.0</ele><time>2026-04-12T08:45:33Z</time></trkpt><trkpt lat="42.967039503862345" lon="12.104617018811833"><ele>450.0</ele><time>2026-04-12T08:45:34Z</time></trkpt><trkpt lat="42.96713146373226" lon="12.104498691713493"><ele>448.0</ele><time>2026-04-12T08:45:35Z</time></trkpt><trkpt lat="42.96723232626818" lon="12.104385501746837"><ele>446.0</ele><time>2026-04-12T08:45:36Z</time></trkpt><trkpt lat="42.96732500263763" lon="12.104280509125587"><ele>445.99999999999994</ele><time>2026-04-12T08:45:37Z</time></trkpt><trkpt lat="42.96739897751389" lon="12.104191669222288"><ele>446.0</ele><time>2026-04-12T08:45:38Z</time></trkpt><trkpt lat="42.96746891006575" lon="12.1041244155429"><ele>446.0</ele><time>2026-04-12T08:45:39Z</time></trkpt><trkpt lat="42.9675468912855" lon="12.104145235586486"><ele>446.0</ele><time>2026-04-12T08:45:40Z</time></trkpt><trkpt lat="42.96761980010345" lon="12.104101675147154"><ele>445.99999999999994</ele><time>2026-04-12T08:45:42Z</time></trkpt><trkpt lat="42.96769630096351" lon="12.104078117489264"><ele>446.0</ele><time>2026-04-12T08:45:46Z</time></trkpt><trkpt lat="42.967785010033275" lon="12.104189827968415"><ele>444.20000000000005</ele><time>2026-04-12T08:45:47Z</time></trkpt><trkpt lat="42.96788271374886" lon="12.104184580084159"><ele>442.40000000000003</ele><time>2026-04-12T08:45:48Z</time></trkpt><trkpt lat="42.967988607178" lon="12.104213569414142"><ele>440.6</ele><time>2026-04-12T08:45:49Z</time></trkpt><trkpt lat="42.968090787230935" lon="12.104249400021843"><ele>438.8</ele><time>2026-04-12T08:45:50Z</time></trkpt><trkpt lat="42.96818403016089" lon="12.104272193122615"><ele>437.0</ele><time>2026-04-12T08:45:51Z</time></trkpt><trkpt lat="42.96828429864571" lon="12.104277377574613"><ele>435.0</ele><time>2026-04-12T08:45:52Z</time></trkpt><trkpt lat="42.968386831393396" lon="12.104260112254742"><ele>433.00000000000006</ele><time>2026-04-12T08:45:53Z</time></trkpt><trkpt lat="42.96849223854697" lon="12.104226412395667"><ele>431.00000000000006</ele><time>2026-04-12T08:45:54Z</time></trkpt><trkpt lat="42.96858553696024" lon="12.104177474393138"><ele>429.0</ele><time>2026-04-12T08:45:55Z</time></trkpt><trkpt lat="42.96866433582641" lon="12.104112199323703"><ele>427.0</ele><time>2026-04-12T08:45:56Z</time></trkpt><trkpt lat="42.968723526865226" lon="12.104029327328488"><ele>426.6666666666667</ele><time>2026-04-12T08:45:57Z</time></trkpt><trkpt lat="42.96876376686536" lon="12.103933441042384"><ele>426.33333333333337</ele><time>2026-04-12T08:45:58Z</time></trkpt><trkpt lat="42.96878622827492" lon="12.103832047475143"><ele>426.0</ele><time>2026-04-12T08:45:59Z</time></trkpt><trkpt lat="42.968790739541106" lon="12.103721373252203"><ele>425.66666666666663</ele><time>2026-04-12T08:46:00Z</time></trkpt><trkpt lat="42.96877707022967" lon="12.103622906203896"><ele>425.3333333333333</ele><time>2026-04-12T08:46:01Z</time></trkpt><trkpt lat="42.968768647107474" lon="12.103531543298804"><ele>425.0</ele><time>2026-04-12T08:46:02Z</time></trkpt><trkpt lat="42.968844819426415" lon="12.103401840795266"><ele>425.0</ele><time>2026-04-12T08:46:04Z</time></trkpt><trkpt lat="42.96893334884756" lon="12.103361528803847"><ele>425.0</ele><time>2026-04-12T08:46:05Z</time></trkpt><trkpt lat="42.96904595400737" lon="12.103337009781464"><ele>425.0</ele><time>2026-04-12T08:46:06Z</time></trkpt><trkpt lat="42.9691689834275" lon="12.103361276157319"><ele>425.0</ele><time>2026-04-12T08:46:07Z</time></trkpt><trkpt lat="42.96928729436736" lon="12.103384316845444"><ele>421.25</ele><time>2026-04-12T08:46:08Z</time></trkpt><trkpt lat="42.96940760292278" lon="12.103419998704899"><ele>417.5</ele><time>2026-04-12T08:46:09Z</time></trkpt><trkpt lat="42.96952931767117" lon="12.103445668584541"><ele>413.75</ele><time>2026-04-12T08:46:10Z</time></trkpt><trkpt lat="42.96964108415296" lon="12.103491099777132"><ele>410.0</ele><time>2026-04-12T08:46:11Z</time></trkpt><trkpt lat="42.96974386546961" lon="12.103526723405842"><ele>409.99999999999994</ele><time>2026-04-12T08:46:12Z</time></trkpt><trkpt lat="42.96984052637672" lon="12.10359016077324"><ele>410.0</ele><time>2026-04-12T08:46:13Z</time></trkpt><trkpt lat="42.96992231351644" lon="12.103636275070478"><ele>410.0</ele><time>2026-04-12T08:46:14Z</time></trkpt><trkpt lat="42.97000321220523" lon="12.10368331204744"><ele>410.0</ele><time>2026-04-12T08:46:15Z</time></trkpt><trkpt lat="42.97007570110631" lon="12.103727869691502"><ele>409.99999999999994</ele><time>2026-04-12T08:46:16Z</time></trkpt><trkpt lat="42.97014025523067" lon="12.103776813249826"><ele>410.0</ele><time>2026-04-12T08:46:17Z</time></trkpt><trkpt lat="42.97020718308324" lon="12.103803787248832"><ele>407.2</ele><time>2026-04-12T08:46:18Z</time></trkpt><trkpt lat="42.9703131835473" lon="12.103789653505931"><ele>404.4</ele><time>2026-04-12T08:46:20Z</time></trkpt><trkpt lat="42.970366502361955" lon="12.103711166914762"><ele>401.6</ele><time>2026-04-12T08:46:21Z</time></trkpt><trkpt lat="42.97041507673325" lon="12.103600794035364"><ele>398.8</ele><time>2026-04-12T08:46:22Z</time></trkpt><trkpt lat="42.97049835401326" lon="12.10350664017065"><ele>396.0</ele><time>2026-04-12T08:46:23.001Z</time></trkpt><trkpt lat="42.97057644990906" lon="12.103417429999444"><ele>396.0</ele><time>2026-04-12T08:46:24.001Z</time></trkpt><trkpt lat="42.97065408291488" lon="12.10334828453193"><ele>396.0</ele><time>2026-04-12T08:46:25.001Z</time></trkpt><trkpt lat="42.97073972021548" lon="12.103283875417725"><ele>396.0</ele><time>2026-04-12T08:46:26.001Z</time></trkpt><trkpt lat="42.970830884835436" lon="12.103228017548643"><ele>396.0</ele><time>2026-04-12T08:46:27.001Z</time></trkpt><trkpt lat="42.970917927996624" lon="12.103160128810595"><ele>396.0</ele><time>2026-04-12T08:46:28.001Z</time></trkpt><trkpt lat="42.97099978411763" lon="12.103073471809985"><ele>393.25</ele><time>2026-04-12T08:46:29.001Z</time></trkpt><trkpt lat="42.97107565534272" lon="12.102975682163308"><ele>390.5</ele><time>2026-04-12T08:46:30.001Z</time></trkpt><trkpt lat="42.971140417490375" lon="12.102838540685882"><ele>387.75</ele><time>2026-04-12T08:46:31.001Z</time></trkpt><trkpt lat="42.971177469664354" lon="12.102668667378287"><ele>385.0</ele><time>2026-04-12T08:46:32.001Z</time></trkpt><trkpt lat="42.97124503660014" lon="12.102537106849127"><ele>383.8</ele><time>2026-04-12T08:46:33.001Z</time></trkpt><trkpt lat="42.97129615855181" lon="12.10241338615105"><ele>382.6</ele><time>2026-04-12T08:46:33.999Z</time></trkpt><trkpt lat="42.97135074246409" lon="12.102290649967152"><ele>381.4</ele><time>2026-04-12T08:46:34.999Z</time></trkpt><trkpt lat="42.97141809267315" lon="12.102169378423833"><ele>380.2</ele><time>2026-04-12T08:46:35.999Z</time></trkpt><trkpt lat="42.9714955824291" lon="12.10204254209443"><ele>379.0</ele><time>2026-04-12T08:46:36.999Z</time></trkpt><trkpt lat="42.97160344135127" lon="12.101951683634324"><ele>377.25</ele><time>2026-04-12T08:46:37.999Z</time></trkpt><trkpt lat="42.971724261411964" lon="12.101887200602398"><ele>375.5</ele><time>2026-04-12T08:46:38.999Z</time></trkpt><trkpt lat="42.971833103535026" lon="12.101827058695013"><ele>373.75</ele><time>2026-04-12T08:46:39.999Z</time></trkpt><trkpt lat="42.9719378689542" lon="12.101779082159506"><ele>372.0</ele><time>2026-04-12T08:46:40.999Z</time></trkpt><trkpt lat="42.972023544088856" lon="12.101727867010728"><ele>372.0</ele><time>2026-04-12T08:46:41.999Z</time></trkpt><trkpt lat="42.97209895149385" lon="12.101713238590063"><ele>372.0</ele><time>2026-04-12T08:46:42.999Z</time></trkpt><trkpt lat="42.972174223217756" lon="12.101688628722087"><ele>372.0</ele><time>2026-04-12T08:46:43.999Z</time></trkpt><trkpt lat="42.97225838941176" lon="12.101667236326888"><ele>372.0</ele><time>2026-04-12T08:46:44.999Z</time></trkpt><trkpt lat="42.97234546171916" lon="12.101689285337551"><ele>372.0</ele><time>2026-04-12T08:46:45.999Z</time></trkpt><trkpt lat="42.972429698446696" lon="12.10170316419863"><ele>372.0</ele><time>2026-04-12T08:46:46.999Z</time></trkpt><trkpt lat="42.97251890367609" lon="12.101726998243032"><ele>370.0</ele><time>2026-04-12T08:46:47.999Z</time></trkpt><trkpt lat="42.97261609217064" lon="12.101754105737053"><ele>368.0</ele><time>2026-04-12T08:46:48.999Z</time></trkpt><trkpt lat="42.97270018447932" lon="12.101812275883916"><ele>366.0</ele><time>2026-04-12T08:46:49.999Z</time></trkpt><trkpt lat="42.972767907803274" lon="12.101897521432992"><ele>364.0</ele><time>2026-04-12T08:46:51Z</time></trkpt><trkpt lat="42.97283060460836" lon="12.101996148022726"><ele>362.0</ele><time>2026-04-12T08:46:52Z</time></trkpt><trkpt lat="42.97289245213753" lon="12.102121827565481"><ele>362.0</ele><time>2026-04-12T08:46:53Z</time></trkpt><trkpt lat="42.97298113632969" lon="12.102271127675431"><ele>362.0</ele><time>2026-04-12T08:46:54Z</time></trkpt><trkpt lat="42.973065144381145" lon="12.102449268251595"><ele>362.0</ele><time>2026-04-12T08:46:55Z</time></trkpt><trkpt lat="42.9731502196391" lon="12.102621744746967"><ele>362.0</ele><time>2026-04-12T08:46:56Z</time></trkpt><trkpt lat="42.9732194022488" lon="12.102773577024648"><ele>361.75</ele><time>2026-04-12T08:46:57Z</time></trkpt><trkpt lat="42.97328014885376" lon="12.102906220401039"><ele>361.5</ele><time>2026-04-12T08:46:58Z</time></trkpt><trkpt lat="42.97334538623172" lon="12.10302766261613"><ele>361.25</ele><time>2026-04-12T08:46:59Z</time></trkpt><trkpt lat="42.973418469698515" lon="12.103143881796045"><ele>361.0</ele><time>2026-04-12T08:47:00Z</time></trkpt><trkpt lat="42.97351094022651" lon="12.103256675425415"><ele>357.75</ele><time>2026-04-12T08:47:01Z</time></trkpt><trkpt lat="42.973601056942336" lon="12.103392418511802"><ele>354.5</ele><time>2026-04-12T08:47:02Z</time></trkpt><trkpt lat="42.97369067213078" lon="12.103512307846794"><ele>351.25</ele><time>2026-04-12T08:47:03Z</time></trkpt><trkpt lat="42.973772431023576" lon="12.10363841189936"><ele>348.0</ele><time>2026-04-12T08:47:04Z</time></trkpt><trkpt lat="42.973858010530904" lon="12.103769594136521"><ele>348.0</ele><time>2026-04-12T08:47:05Z</time></trkpt><trkpt lat="42.97395812669675" lon="12.103870523375718"><ele>348.0</ele><time>2026-04-12T08:47:06Z</time></trkpt><trkpt lat="42.97405457603279" lon="12.10396634324421"><ele>348.0</ele><time>2026-04-12T08:47:07Z</time></trkpt><trkpt lat="42.974152491652376" lon="12.10403541680112"><ele>348.0</ele><time>2026-04-12T08:47:08Z</time></trkpt><trkpt lat="42.97424825657972" lon="12.104076592096977"><ele>347.79999999999995</ele><time>2026-04-12T08:47:09Z</time></trkpt><trkpt lat="42.97433450891795" lon="12.10409506214445"><ele>347.6</ele><time>2026-04-12T08:47:10Z</time></trkpt><trkpt lat="42.974422418079676" lon="12.104119117756007"><ele>347.4</ele><time>2026-04-12T08:47:11Z</time></trkpt><trkpt lat="42.97451912197332" lon="12.104139820141663"><ele>347.20000000000005</ele><time>2026-04-12T08:47:12Z</time></trkpt><trkpt lat="42.97461708822367" lon="12.104199068271752"><ele>347.0</ele><time>2026-04-12T08:47:13Z</time></trkpt><trkpt lat="42.974733290749775" lon="12.104257265862485"><ele>347.0</ele><time>2026-04-12T08:47:14Z</time></trkpt><trkpt lat="42.97485234252546" lon="12.10432233483822"><ele>347.0</ele><time>2026-04-12T08:47:15Z</time></trkpt><trkpt lat="42.97496825382923" lon="12.104390178116239"><ele>347.0</ele><time>2026-04-12T08:47:16Z</time></trkpt><trkpt lat="42.975084261461525" lon="12.104467467629542"><ele>347.0</ele><time>2026-04-12T08:47:17Z</time></trkpt><trkpt lat="42.97520019038273" lon="12.104550858428313"><ele>344.0</ele><time>2026-04-12T08:47:18Z</time></trkpt><trkpt lat="42.97531588609557" lon="12.10462372355282"><ele>341.0</ele><time>2026-04-12T08:47:19Z</time></trkpt><trkpt lat="42.975412164774355" lon="12.104715588312512"><ele>338.0</ele><time>2026-04-12T08:47:20Z</time></trkpt><trkpt lat="42.97551245988618" lon="12.104790167426568"><ele>335.0</ele><time>2026-04-12T08:47:21Z</time></trkpt><trkpt lat="42.97562503067909" lon="12.104843804461492"><ele>335.0</ele><time>2026-04-12T08:47:22Z</time></trkpt><trkpt lat="42.97574743147959" lon="12.104875840300078"><ele>335.0</ele><time>2026-04-12T08:47:23Z</time></trkpt><trkpt lat="42.975888376878906" lon="12.10488622461119"><ele>335.0</ele><time>2026-04-12T08:47:24Z</time></trkpt><trkpt lat="42.97604499535293" lon="12.10487595778488"><ele>335.0</ele><time>2026-04-12T08:47:25Z</time></trkpt><trkpt lat="42.97621838177891" lon="12.104852634628791"><ele>333.33333333333337</ele><time>2026-04-12T08:47:26Z</time></trkpt><trkpt lat="42.9763937229521" lon="12.104842936684433"><ele>331.6666666666667</ele><time>2026-04-12T08:47:27Z</time></trkpt><trkpt lat="42.97656863449782" lon="12.104852646464076"><ele>330.0</ele><time>2026-04-12T08:47:28Z</time></trkpt><trkpt lat="42.97674446866346" lon="12.104874387524076"><ele>329.6666666666667</ele><time>2026-04-12T08:47:29Z</time></trkpt><trkpt lat="42.97691952332046" lon="12.104894922848489"><ele>329.33333333333337</ele><time>2026-04-12T08:47:30Z</time></trkpt><trkpt lat="42.977088801746774" lon="12.104912602069458"><ele>329.0</ele><time>2026-04-12T08:47:31Z</time></trkpt><trkpt lat="42.97724362223504" lon="12.104932924797858"><ele>332.0</ele><time>2026-04-12T08:47:32Z</time></trkpt><trkpt lat="42.97737424893659" lon="12.104958283559247"><ele>335.0</ele><time>2026-04-12T08:47:33Z</time></trkpt><trkpt lat="42.97749968709845" lon="12.104986462016871"><ele>338.0</ele><time>2026-04-12T08:47:34Z</time></trkpt><trkpt lat="42.977624435665554" lon="12.105015913445142"><ele>341.0</ele><time>2026-04-12T08:47:35Z</time></trkpt><trkpt lat="42.97775470058635" lon="12.105030030094474"><ele>341.0</ele><time>2026-04-12T08:47:36Z</time></trkpt><trkpt lat="42.97789826956022" lon="12.105042734594072"><ele>341.0</ele><time>2026-04-12T08:47:37Z</time></trkpt><trkpt lat="42.978051244373574" lon="12.104960719880335"><ele>341.0</ele><time>2026-04-12T08:47:38Z</time></trkpt><trkpt lat="42.9782281450519" lon="12.10488257585315"><ele>339.75</ele><time>2026-04-12T08:47:39Z</time></trkpt><trkpt lat="42.97838357342204" lon="12.104854014309593"><ele>338.5</ele><time>2026-04-12T08:47:40Z</time></trkpt><trkpt lat="42.978501937236246" lon="12.104805538727145"><ele>337.25</ele><time>2026-04-12T08:47:41Z</time></trkpt><trkpt lat="42.97860430698443" lon="12.104794175826184"><ele>336.0</ele><time>2026-04-12T08:47:42Z</time></trkpt><trkpt lat="42.978712229716265" lon="12.104758286837319"><ele>336.0</ele><time>2026-04-12T08:47:43Z</time></trkpt><trkpt lat="42.97884262384861" lon="12.104694601294044"><ele>336.0</ele><time>2026-04-12T08:47:44Z</time></trkpt><trkpt lat="42.97898479927657" lon="12.104614012542973"><ele>336.0</ele><time>2026-04-12T08:47:45Z</time></trkpt><trkpt lat="42.97913030877712" lon="12.104525845074992"><ele>336.0</ele><time>2026-04-12T08:47:46Z</time></trkpt><trkpt lat="42.97925617232557" lon="12.104468251280425"><ele>336.0</ele><time>2026-04-12T08:47:47Z</time></trkpt><trkpt lat="42.979369729882855" lon="12.104439386699303"><ele>336.0</ele><time>2026-04-12T08:47:48Z</time></trkpt><trkpt lat="42.97947741715243" lon="12.104479708617347"><ele>336.0</ele><time>2026-04-12T08:47:49Z</time></trkpt><trkpt lat="42.979599382307185" lon="12.104513997359993"><ele>336.0</ele><time>2026-04-12T08:47:50Z</time></trkpt><trkpt lat="42.97972329081975" lon="12.104541465019821"><ele>336.0</ele><time>2026-04-12T08:47:51Z</time></trkpt><trkpt lat="42.97984153207489" lon="12.104572660717505"><ele>336.0</ele><time>2026-04-12T08:47:52Z</time></trkpt><trkpt lat="42.97996452375528" lon="12.104563216810545"><ele>336.0</ele><time>2026-04-12T08:47:53.001Z</time></trkpt><trkpt lat="42.98009401634056" lon="12.104526528277791"><ele>335.3333333333333</ele><time>2026-04-12T08:47:54.001Z</time></trkpt><trkpt lat="42.98023760648495" lon="12.104457235252562"><ele>334.66666666666663</ele><time>2026-04-12T08:47:55.001Z</time></trkpt><trkpt lat="42.980384827875525" lon="12.104393348460059"><ele>334.0</ele><time>2026-04-12T08:47:56.001Z</time></trkpt><trkpt lat="42.98054459173124" lon="12.104363157377492"><ele>334.0</ele><time>2026-04-12T08:47:57.001Z</time></trkpt><trkpt lat="42.980709620572206" lon="12.104352901613648"><ele>334.0</ele><time>2026-04-12T08:47:58.001Z</time></trkpt><trkpt lat="42.980854203891894" lon="12.104331428079869"><ele>334.0</ele><time>2026-04-12T08:47:59.001Z</time></trkpt><trkpt lat="42.98098463055859" lon="12.104303372544848"><ele>334.0</ele><time>2026-04-12T08:48:00.001Z</time></trkpt><trkpt lat="42.981099593478014" lon="12.104269673531313"><ele>332.25</ele><time>2026-04-12T08:48:01.001Z</time></trkpt><trkpt lat="42.981210632346624" lon="12.104232718846992"><ele>330.5</ele><time>2026-04-12T08:48:02.001Z</time></trkpt><trkpt lat="42.98130843444747" lon="12.104193174466108"><ele>328.75</ele><time>2026-04-12T08:48:03.001Z</time></trkpt><trkpt lat="42.981413406793415" lon="12.10412411805683"><ele>327.0</ele><time>2026-04-12T08:48:04.001Z</time></trkpt><trkpt lat="42.98153078039809" lon="12.104049000354916"><ele>325.6</ele><time>2026-04-12T08:48:05.001Z</time></trkpt><trkpt lat="42.98165532654005" lon="12.103988521208416"><ele>324.20000000000005</ele><time>2026-04-12T08:48:06.001Z</time></trkpt><trkpt lat="42.9817726280132" lon="12.103944322982391"><ele>322.8</ele><time>2026-04-12T08:48:07.001Z</time></trkpt><trkpt lat="42.981877502786496" lon="12.103937683304668"><ele>321.4</ele><time>2026-04-12T08:48:08.001Z</time></trkpt><trkpt lat="42.98196479001864" lon="12.103933672102928"><ele>320.0</ele><time>2026-04-12T08:48:09.001Z</time></trkpt><trkpt lat="42.98204828022378" lon="12.103936347578287"><ele>320.0</ele><time>2026-04-12T08:48:10.001Z</time></trkpt><trkpt lat="42.98213535696087" lon="12.103939846160586"><ele>320.0</ele><time>2026-04-12T08:48:11.001Z</time></trkpt><trkpt lat="42.98220584356354" lon="12.103961665657952"><ele>320.0</ele><time>2026-04-12T08:48:12.001Z</time></trkpt><trkpt lat="42.982297653901696" lon="12.104041963593398"><ele>320.0</ele><time>2026-04-12T08:48:14.001Z</time></trkpt><trkpt lat="42.98231712366077" lon="12.104137621464425"><ele>320.0</ele><time>2026-04-12T08:48:15.001Z</time></trkpt><trkpt lat="42.98231536548295" lon="12.1042449164846"><ele>320.0</ele><time>2026-04-12T08:48:16.001Z</time></trkpt><trkpt lat="42.98230382828673" lon="12.104359361834058"><ele>319.5</ele><time>2026-04-12T08:48:17.001Z</time></trkpt><trkpt lat="42.982276912266705" lon="12.104484583766117"><ele>319.0</ele><time>2026-04-12T08:48:18.001Z</time></trkpt><trkpt lat="42.982214965317624" lon="12.104576652978055"><ele>318.5</ele><time>2026-04-12T08:48:19.001Z</time></trkpt><trkpt lat="42.982160977824854" lon="12.104654999117539"><ele>318.0</ele><time>2026-04-12T08:48:20.001Z</time></trkpt><trkpt lat="42.98210073853286" lon="12.104730948998174"><ele>317.5</ele><time>2026-04-12T08:48:21.001Z</time></trkpt><trkpt lat="42.98203909746093" lon="12.10479881571491"><ele>317.0</ele><time>2026-04-12T08:48:22.001Z</time></trkpt><trkpt lat="42.9819757532153" lon="12.104871958009111"><ele>313.8</ele><time>2026-04-12T08:48:23.001Z</time></trkpt><trkpt lat="42.98190456967198" lon="12.104938464836025"><ele>310.6</ele><time>2026-04-12T08:48:24.001Z</time></trkpt><trkpt lat="42.98184658260354" lon="12.105042288565938"><ele>307.40000000000003</ele><time>2026-04-12T08:48:25.001Z</time></trkpt><trkpt lat="42.981802224120806" lon="12.105171584685403"><ele>304.2</ele><time>2026-04-12T08:48:26.001Z</time></trkpt><trkpt lat="42.98176161492971" lon="12.105297963398368"><ele>301.0</ele><time>2026-04-12T08:48:27.001Z</time></trkpt><trkpt lat="42.98172543346667" lon="12.105429937133877"><ele>301.0</ele><time>2026-04-12T08:48:28.001Z</time></trkpt><trkpt lat="42.981691783282386" lon="12.105557762611523"><ele>301.0</ele><time>2026-04-12T08:48:29.001Z</time></trkpt><trkpt lat="42.98165684703216" lon="12.105683091340827"><ele>301.0</ele><time>2026-04-12T08:48:30.001Z</time></trkpt><trkpt lat="42.98162814280986" lon="12.10578326666606"><ele>301.0</ele><time>2026-04-12T08:48:31.001Z</time></trkpt><trkpt lat="42.98160470163104" lon="12.105876969311606"><ele>301.0</ele><time>2026-04-12T08:48:32.001Z</time></trkpt><trkpt lat="42.981565408201526" lon="12.105964415364136"><ele>301.0</ele><time>2026-04-12T08:48:33.001Z</time></trkpt><trkpt lat="42.98148305389271" lon="12.106030611015777"><ele>300.0</ele><time>2026-04-12T08:48:34.001Z</time></trkpt><trkpt lat="42.98138112731193" lon="12.106105347918508"><ele>299.0</ele><time>2026-04-12T08:48:35.001Z</time></trkpt><trkpt lat="42.98128181482547" lon="12.10619620236675"><ele>298.0</ele><time>2026-04-12T08:48:36.001Z</time></trkpt><trkpt lat="42.98122902764882" lon="12.106302696592957"><ele>297.0</ele><time>2026-04-12T08:48:37.001Z</time></trkpt><trkpt lat="42.98117866791587" lon="12.106381499917466"><ele>296.0</ele><time>2026-04-12T08:48:38.001Z</time></trkpt><trkpt lat="42.981126658288865" lon="12.106454782885258"><ele>296.0</ele><time>2026-04-12T08:48:39.001Z</time></trkpt><trkpt lat="42.98111203797621" lon="12.106543915942058"><ele>296.0</ele><time>2026-04-12T08:48:40Z</time></trkpt><trkpt lat="42.981086381491984" lon="12.106692778761783"><ele>296.0</ele><time>2026-04-12T08:48:42Z</time></trkpt><trkpt lat="42.98108645320712" lon="12.106781273869416"><ele>296.0</ele><time>2026-04-12T08:48:44Z</time></trkpt><trkpt lat="42.981102757723335" lon="12.106884793156773"><ele>296.0</ele><time>2026-04-12T08:48:46Z</time></trkpt><trkpt lat="42.98123836654088" lon="12.10693963311013"><ele>293.75</ele><time>2026-04-12T08:48:47Z</time></trkpt><trkpt lat="42.98136018339184" lon="12.107016022935836"><ele>291.5</ele><time>2026-04-12T08:48:48Z</time></trkpt><trkpt lat="42.98149428682486" lon="12.107098298857508"><ele>289.25</ele><time>2026-04-12T08:48:49Z</time></trkpt><trkpt lat="42.98161200024426" lon="12.107164815618171"><ele>287.0</ele><time>2026-04-12T08:48:50Z</time></trkpt><trkpt lat="42.981722115796885" lon="12.10718654882198"><ele>286.0</ele><time>2026-04-12T08:48:51Z</time></trkpt><trkpt lat="42.981836996631266" lon="12.107152377655533"><ele>285.0</ele><time>2026-04-12T08:48:52Z</time></trkpt><trkpt lat="42.98197857833455" lon="12.107068514016893"><ele>284.0</ele><time>2026-04-12T08:48:53Z</time></trkpt><trkpt lat="42.98215134695683" lon="12.106960927751606"><ele>284.0</ele><time>2026-04-12T08:48:54Z</time></trkpt><trkpt lat="42.98229024804683" lon="12.106869805861734"><ele>284.0</ele><time>2026-04-12T08:48:55Z</time></trkpt><trkpt lat="42.98239272321502" lon="12.10677553697493"><ele>284.0</ele><time>2026-04-12T08:48:56Z</time></trkpt><trkpt lat="42.98248371107708" lon="12.106654940404578"><ele>284.0</ele><time>2026-04-12T08:48:57Z</time></trkpt><trkpt lat="42.98259588391469" lon="12.106495114310633"><ele>280.5</ele><time>2026-04-12T08:48:58Z</time></trkpt><trkpt lat="42.982688857884575" lon="12.106335408273068"><ele>277.0</ele><time>2026-04-12T08:48:59Z</time></trkpt><trkpt lat="42.982750770661546" lon="12.106188777216598"><ele>273.5</ele><time>2026-04-12T08:49:00Z</time></trkpt><trkpt lat="42.98278243581715" lon="12.106014956636205"><ele>270.0</ele><time>2026-04-12T08:49:01Z</time></trkpt><trkpt lat="42.98279902753511" lon="12.10580111617152"><ele>271.0</ele><time>2026-04-12T08:49:02Z</time></trkpt><trkpt lat="42.98282742895091" lon="12.105572718674967"><ele>272.0</ele><time>2026-04-12T08:49:03Z</time></trkpt><trkpt lat="42.98289692124473" lon="12.105362487805012"><ele>273.0</ele><time>2026-04-12T08:49:04Z</time></trkpt><trkpt lat="42.98297941163222" lon="12.105146324006428"><ele>273.0</ele><time>2026-04-12T08:49:05Z</time></trkpt><trkpt lat="42.98306194249426" lon="12.104921621606604"><ele>273.0</ele><time>2026-04-12T08:49:06Z</time></trkpt><trkpt lat="42.98320877095281" lon="12.10474203319898"><ele>273.0</ele><time>2026-04-12T08:49:07Z</time></trkpt><trkpt lat="42.983347399106606" lon="12.104553304729414"><ele>271.3333333333333</ele><time>2026-04-12T08:49:08Z</time></trkpt><trkpt lat="42.98346738481413" lon="12.1043670134935"><ele>269.66666666666663</ele><time>2026-04-12T08:49:09Z</time></trkpt><trkpt lat="42.983591402765434" lon="12.104220363618955"><ele>268.0</ele><time>2026-04-12T08:49:10Z</time></trkpt><trkpt lat="42.983713494356444" lon="12.104114599242548"><ele>265.5</ele><time>2026-04-12T08:49:11Z</time></trkpt><trkpt lat="42.98384962393079" lon="12.104075129240425"><ele>263.0</ele><time>2026-04-12T08:49:12Z</time></trkpt><trkpt lat="42.98397564829008" lon="12.104033346506972"><ele>260.5</ele><time>2026-04-12T08:49:13Z</time></trkpt><trkpt lat="42.984097977500426" lon="12.104012489976178"><ele>258.0</ele><time>2026-04-12T08:49:14Z</time></trkpt><trkpt lat="42.98420561759042" lon="12.103937346483763"><ele>258.0</ele><time>2026-04-12T08:49:15Z</time></trkpt><trkpt lat="42.98429165213167" lon="12.10378228163736"><ele>258.0</ele><time>2026-04-12T08:49:16Z</time></trkpt><trkpt lat="42.984359003482794" lon="12.10358172512717"><ele>258.0</ele><time>2026-04-12T08:49:17Z</time></trkpt><trkpt lat="42.98443657733262" lon="12.103385503521212"><ele>258.25</ele><time>2026-04-12T08:49:18Z</time></trkpt><trkpt lat="42.984539564965836" lon="12.103226224671094"><ele>258.5</ele><time>2026-04-12T08:49:19Z</time></trkpt><trkpt lat="42.984631691961674" lon="12.103095704624435"><ele>258.75</ele><time>2026-04-12T08:49:20Z</time></trkpt><trkpt lat="42.984697534407815" lon="12.102970417105523"><ele>259.0</ele><time>2026-04-12T08:49:21Z</time></trkpt><trkpt lat="42.98472846782286" lon="12.102838012221948"><ele>259.0</ele><time>2026-04-12T08:49:22Z</time></trkpt><trkpt lat="42.98472136820898" lon="12.10267950041991"><ele>259.0</ele><time>2026-04-12T08:49:23Z</time></trkpt><trkpt lat="42.9846768278529" lon="12.1025027816215"><ele>259.0</ele><time>2026-04-12T08:49:24Z</time></trkpt><trkpt lat="42.984598117890755" lon="12.102309147703329"><ele>259.0</ele><time>2026-04-12T08:49:25Z</time></trkpt><trkpt lat="42.9845013628915" lon="12.102102970904227"><ele>258.25</ele><time>2026-04-12T08:49:26.001Z</time></trkpt><trkpt lat="42.9844272214137" lon="12.101900633164695"><ele>257.5</ele><time>2026-04-12T08:49:27.001Z</time></trkpt><trkpt lat="42.984379979427295" lon="12.101714968274118"><ele>256.75</ele><time>2026-04-12T08:49:28.001Z</time></trkpt><trkpt lat="42.98436188991985" lon="12.101562520347073"><ele>256.0</ele><time>2026-04-12T08:49:29.001Z</time></trkpt><trkpt lat="42.98436629505868" lon="12.101432551727813"><ele>256.0</ele><time>2026-04-12T08:49:30.001Z</time></trkpt><trkpt lat="42.98440749247786" lon="12.101317977666408"><ele>256.0</ele><time>2026-04-12T08:49:31.001Z</time></trkpt><trkpt lat="42.98448796479397" lon="12.101232462088984"><ele>256.0</ele><time>2026-04-12T08:49:32.001Z</time></trkpt><trkpt lat="42.98460768504019" lon="12.101167615606942"><ele>256.0</ele><time>2026-04-12T08:49:33.001Z</time></trkpt><trkpt lat="42.98475661110199" lon="12.101111662106824"><ele>256.0</ele><time>2026-04-12T08:49:34.001Z</time></trkpt><trkpt lat="42.98492579124062" lon="12.101043899027424"><ele>256.0</ele><time>2026-04-12T08:49:35.001Z</time></trkpt><trkpt lat="42.98512507768849" lon="12.100964043331855"><ele>256.0</ele><time>2026-04-12T08:49:36.001Z</time></trkpt><trkpt lat="42.985313818445526" lon="12.100891461008855"><ele>255.75</ele><time>2026-04-12T08:49:37.001Z</time></trkpt><trkpt lat="42.98546856040099" lon="12.100833459930062"><ele>255.5</ele><time>2026-04-12T08:49:38.001Z</time></trkpt><trkpt lat="42.98558934829313" lon="12.10078110810478"><ele>255.25</ele><time>2026-04-12T08:49:39.001Z</time></trkpt><trkpt lat="42.98567839456379" lon="12.100717737046548"><ele>255.0</ele><time>2026-04-12T08:49:40.001Z</time></trkpt><trkpt lat="42.985750225306155" lon="12.100612196582173"><ele>256.0</ele><time>2026-04-12T08:49:41.001Z</time></trkpt><trkpt lat="42.98581289556225" lon="12.100464410600138"><ele>257.0</ele><time>2026-04-12T08:49:42.001Z</time></trkpt><trkpt lat="42.985883365359726" lon="12.100305522534612"><ele>258.0</ele><time>2026-04-12T08:49:43.001Z</time></trkpt><trkpt lat="42.985948248640405" lon="12.100159791222344"><ele>259.0</ele><time>2026-04-12T08:49:44.001Z</time></trkpt><trkpt lat="42.98599676142895" lon="12.100063434613945"><ele>259.59999999999997</ele><time>2026-04-12T08:49:45.001Z</time></trkpt><trkpt lat="42.9860617111938" lon="12.099978978088203"><ele>260.2</ele><time>2026-04-12T08:49:47.001Z</time></trkpt><trkpt lat="42.98612806218285" lon="12.099956765307539"><ele>260.79999999999995</ele><time>2026-04-12T08:49:49.001Z</time></trkpt><trkpt lat="42.98621923439795" lon="12.099910256770272"><ele>261.4</ele><time>2026-04-12T08:49:52.001Z</time></trkpt><trkpt lat="42.98628614738048" lon="12.0998230282522"><ele>262.0</ele><time>2026-04-12T08:49:53.001Z</time></trkpt><trkpt lat="42.986363909199454" lon="12.09972483785199"><ele>262.0</ele><time>2026-04-12T08:49:54.001Z</time></trkpt><trkpt lat="42.98644581904462" lon="12.099600837696874"><ele>262.0</ele><time>2026-04-12T08:49:55.001Z</time></trkpt><trkpt lat="42.98653560002934" lon="12.099459181740976"><ele>262.0</ele><time>2026-04-12T08:49:56.001Z</time></trkpt><trkpt lat="42.986631235894635" lon="12.09931759036886"><ele>262.0</ele><time>2026-04-12T08:49:57.001Z</time></trkpt><trkpt lat="42.98673096940695" lon="12.099180118236495"><ele>262.5</ele><time>2026-04-12T08:49:58.001Z</time></trkpt><trkpt lat="42.98682874247085" lon="12.099054316072413"><ele>263.0</ele><time>2026-04-12T08:49:59.001Z</time></trkpt><trkpt lat="42.98690958278766" lon="12.098945967089776"><ele>263.5</ele><time>2026-04-12T08:50:00.001Z</time></trkpt><trkpt lat="42.986976795479855" lon="12.098836282835022"><ele>264.0</ele><time>2026-04-12T08:50:01.001Z</time></trkpt><trkpt lat="42.98702876280166" lon="12.098708069342587"><ele>264.0</ele><time>2026-04-12T08:50:02.001Z</time></trkpt><trkpt lat="42.987070020068515" lon="12.09855215732191"><ele>264.0</ele><time>2026-04-12T08:50:03.001Z</time></trkpt><trkpt lat="42.98710013882259" lon="12.09839601783033"><ele>264.0</ele><time>2026-04-12T08:50:04.001Z</time></trkpt><trkpt lat="42.98711287664704" lon="12.098269355109897"><ele>264.0</ele><time>2026-04-12T08:50:05.001Z</time></trkpt><trkpt lat="42.987104580118874" lon="12.098169512093413"><ele>264.0</ele><time>2026-04-12T08:50:06.001Z</time></trkpt><trkpt lat="42.987089280226755" lon="12.098042486508753"><ele>265.0</ele><time>2026-04-12T08:50:07.001Z</time></trkpt><trkpt lat="42.9870118621435" lon="12.09791230786425"><ele>266.0</ele><time>2026-04-12T08:50:08.001Z</time></trkpt><trkpt lat="42.9869685266013" lon="12.097754970481406"><ele>267.0</ele><time>2026-04-12T08:50:09.001Z</time></trkpt><trkpt lat="42.98693283902582" lon="12.097610730812598"><ele>268.0</ele><time>2026-04-12T08:50:10.001Z</time></trkpt><trkpt lat="42.986925947016765" lon="12.09747119397056"><ele>271.0</ele><time>2026-04-12T08:50:11.001Z</time></trkpt><trkpt lat="42.98694173263111" lon="12.097313602974491"><ele>274.0</ele><time>2026-04-12T08:50:12.001Z</time></trkpt><trkpt lat="42.986979824681484" lon="12.097152712790802"><ele>277.0</ele><time>2026-04-12T08:50:13.001Z</time></trkpt><trkpt lat="42.98703612713976" lon="12.096990678943207"><ele>280.0</ele><time>2026-04-12T08:50:14.001Z</time></trkpt><trkpt lat="42.987107432443175" lon="12.096830475070426"><ele>280.0</ele><time>2026-04-12T08:50:15.001Z</time></trkpt><trkpt lat="42.98716999243836" lon="12.096657782352713"><ele>280.0</ele><time>2026-04-12T08:50:16.001Z</time></trkpt><trkpt lat="42.98720733101871" lon="12.09645494136232"><ele>280.0</ele><time>2026-04-12T08:50:17.001Z</time></trkpt><trkpt lat="42.987265402087104" lon="12.096232809522583"><ele>283.3333333333333</ele><time>2026-04-12T08:50:18.001Z</time></trkpt><trkpt lat="42.98735709139333" lon="12.096010046699812"><ele>286.6666666666667</ele><time>2026-04-12T08:50:19.001Z</time></trkpt><trkpt lat="42.98740760135213" lon="12.095806913566813"><ele>290.0</ele><time>2026-04-12T08:50:20.001Z</time></trkpt><trkpt lat="42.98745615022148" lon="12.095674673755301"><ele>291.8</ele><time>2026-04-12T08:50:21.001Z</time></trkpt><trkpt lat="42.9874835273782" lon="12.095575535959812"><ele>293.6</ele><time>2026-04-12T08:50:22.001Z</time></trkpt><trkpt lat="42.98747034746633" lon="12.095423130532605"><ele>295.4</ele><time>2026-04-12T08:50:24.001Z</time></trkpt><trkpt lat="42.98743600320118" lon="12.09532888641279"><ele>297.2</ele><time>2026-04-12T08:50:25.001Z</time></trkpt><trkpt lat="42.98738835039797" lon="12.095219423115427"><ele>299.0</ele><time>2026-04-12T08:50:26.001Z</time></trkpt><trkpt lat="42.98734493746609" lon="12.09507012123465"><ele>300.59999999999997</ele><time>2026-04-12T08:50:27.001Z</time></trkpt><trkpt lat="42.98726742708606" lon="12.094915606880289"><ele>302.2</ele><time>2026-04-12T08:50:28.001Z</time></trkpt><trkpt lat="42.98722642174406" lon="12.094792718432952"><ele>303.79999999999995</ele><time>2026-04-12T08:50:29.001Z</time></trkpt><trkpt lat="42.98722149486379" lon="12.09469520279126"><ele>305.4</ele><time>2026-04-12T08:50:30.001Z</time></trkpt><trkpt lat="42.98722896524368" lon="12.094584374879918"><ele>307.0</ele><time>2026-04-12T08:50:31.001Z</time></trkpt><trkpt lat="42.98723927130037" lon="12.094430546056518"><ele>307.0</ele><time>2026-04-12T08:50:32.001Z</time></trkpt><trkpt lat="42.98725740090331" lon="12.094244862529992"><ele>307.0</ele><time>2026-04-12T08:50:33.001Z</time></trkpt><trkpt lat="42.987286212111044" lon="12.094046117512352"><ele>307.0</ele><time>2026-04-12T08:50:34.001Z</time></trkpt><trkpt lat="42.987319720094874" lon="12.093875867476603"><ele>307.0</ele><time>2026-04-12T08:50:35.001Z</time></trkpt><trkpt lat="42.98735262106388" lon="12.093726912220637"><ele>309.4</ele><time>2026-04-12T08:50:36.001Z</time></trkpt><trkpt lat="42.98735272626232" lon="12.093576968637787"><ele>311.79999999999995</ele><time>2026-04-12T08:50:37.001Z</time></trkpt><trkpt lat="42.98734548750321" lon="12.09344531638617"><ele>314.2</ele><time>2026-04-12T08:50:38.001Z</time></trkpt><trkpt lat="42.98732727392766" lon="12.093310728617796"><ele>316.59999999999997</ele><time>2026-04-12T08:50:39.001Z</time></trkpt><trkpt lat="42.987353906733986" lon="12.093179077739151"><ele>319.0</ele><time>2026-04-12T08:50:40.001Z</time></trkpt><trkpt lat="42.98737481142675" lon="12.0930338389399"><ele>319.0</ele><time>2026-04-12T08:50:41.001Z</time></trkpt><trkpt lat="42.987380953221745" lon="12.092880503422053"><ele>319.0</ele><time>2026-04-12T08:50:42.001Z</time></trkpt><trkpt lat="42.987387011980104" lon="12.092735176176967"><ele>319.0</ele><time>2026-04-12T08:50:43.001Z</time></trkpt><trkpt lat="42.98737100738361" lon="12.092574373222751"><ele>319.0</ele><time>2026-04-12T08:50:44.001Z</time></trkpt><trkpt lat="42.98732143094282" lon="12.092422130518873"><ele>317.5</ele><time>2026-04-12T08:50:45.001Z</time></trkpt><trkpt lat="42.98725249376345" lon="12.09226880621512"><ele>316.0</ele><time>2026-04-12T08:50:46.001Z</time></trkpt><trkpt lat="42.98716867386403" lon="12.092120033065253"><ele>314.5</ele><time>2026-04-12T08:50:47.001Z</time></trkpt><trkpt lat="42.98707698430509" lon="12.091973679430021"><ele>313.0</ele><time>2026-04-12T08:50:48.001Z</time></trkpt><trkpt lat="42.98701807657282" lon="12.091827350091767"><ele>313.0</ele><time>2026-04-12T08:50:49.001Z</time></trkpt><trkpt lat="42.986976527536896" lon="12.091707512804842"><ele>313.0</ele><time>2026-04-12T08:50:50.001Z</time></trkpt><trkpt lat="42.98695128717826" lon="12.091606205596042"><ele>313.0</ele><time>2026-04-12T08:50:51.001Z</time></trkpt><trkpt lat="42.986941802195744" lon="12.09150633934499"><ele>313.0</ele><time>2026-04-12T08:50:52.001Z</time></trkpt><trkpt lat="42.98695959641572" lon="12.0914026309536"><ele>313.0</ele><time>2026-04-12T08:50:53.001Z</time></trkpt><trkpt lat="42.98700106692634" lon="12.091271025106037"><ele>313.0</ele><time>2026-04-12T08:50:54.001Z</time></trkpt><trkpt lat="42.98703938390968" lon="12.091107118776415"><ele>314.25</ele><time>2026-04-12T08:50:55.001Z</time></trkpt><trkpt lat="42.98709203463119" lon="12.09093942661141"><ele>315.5</ele><time>2026-04-12T08:50:56.001Z</time></trkpt><trkpt lat="42.987133333913924" lon="12.09076287496136"><ele>316.75</ele><time>2026-04-12T08:50:57.001Z</time></trkpt><trkpt lat="42.987165628127094" lon="12.09059507255332"><ele>318.0</ele><time>2026-04-12T08:50:58.001Z</time></trkpt><trkpt lat="42.98720118953672" lon="12.090465245823193"><ele>318.0</ele><time>2026-04-12T08:50:59.001Z</time></trkpt><trkpt lat="42.98727440855699" lon="12.090391143628052"><ele>318.0</ele><time>2026-04-12T08:51:00.001Z</time></trkpt><trkpt lat="42.98735197499235" lon="12.090303171988444"><ele>318.0</ele><time>2026-04-12T08:51:01.001Z</time></trkpt><trkpt lat="42.98743803235036" lon="12.090206387113415"><ele>318.0</ele><time>2026-04-12T08:51:02.001Z</time></trkpt><trkpt lat="42.98749758485308" lon="12.090090616362334"><ele>318.0</ele><time>2026-04-12T08:51:03.001Z</time></trkpt><trkpt lat="42.987544550136484" lon="12.089964343400968"><ele>318.6666666666667</ele><time>2026-04-12T08:51:04.001Z</time></trkpt><trkpt lat="42.98756826790405" lon="12.0898159244575"><ele>319.3333333333333</ele><time>2026-04-12T08:51:05.001Z</time></trkpt><trkpt lat="42.98758198378334" lon="12.089668522225868"><ele>320.0</ele><time>2026-04-12T08:51:06.001Z</time></trkpt><trkpt lat="42.98758925171034" lon="12.08956486949813"><ele>320.66666666666663</ele><time>2026-04-12T08:51:07.001Z</time></trkpt><trkpt lat="42.987591440796805" lon="12.089478352373613"><ele>321.3333333333333</ele><time>2026-04-12T08:51:08.001Z</time></trkpt><trkpt lat="42.9875329188831" lon="12.089389751268957"><ele>322.0</ele><time>2026-04-12T08:51:09.001Z</time></trkpt><trkpt lat="42.98748701806432" lon="12.089306360354598"><ele>322.0</ele><time>2026-04-12T08:51:10.001Z</time></trkpt><trkpt lat="42.98744729908361" lon="12.089200482341203"><ele>322.0</ele><time>2026-04-12T08:51:11.001Z</time></trkpt><trkpt lat="42.98739581087895" lon="12.089094152357033"><ele>322.0</ele><time>2026-04-12T08:51:12.001Z</time></trkpt><trkpt lat="42.98733499576552" lon="12.089009732119742"><ele>322.0</ele><time>2026-04-12T08:51:13.001Z</time></trkpt><trkpt lat="42.98731858424878" lon="12.088921703343527"><ele>322.0</ele><time>2026-04-12T08:51:14.001Z</time></trkpt><trkpt lat="42.9873146518176" lon="12.088790868970507"><ele>322.0</ele><time>2026-04-12T08:51:16.001Z</time></trkpt><trkpt lat="42.98732033462224" lon="12.088675504188446"><ele>321.0</ele><time>2026-04-12T08:51:17.001Z</time></trkpt><trkpt lat="42.987337783234516" lon="12.088548359937802"><ele>320.0</ele><time>2026-04-12T08:51:18.001Z</time></trkpt><trkpt lat="42.9873499411512" lon="12.088411416782682"><ele>319.0</ele><time>2026-04-12T08:51:19.001Z</time></trkpt><trkpt lat="42.9873578501431" lon="12.088291461591394"><ele>318.0</ele><time>2026-04-12T08:51:20.001Z</time></trkpt><trkpt lat="42.98736958969867" lon="12.088178143656968"><ele>317.0</ele><time>2026-04-12T08:51:21.001Z</time></trkpt><trkpt lat="42.98739545971286" lon="12.088069624301871"><ele>316.2</ele><time>2026-04-12T08:51:22.001Z</time></trkpt><trkpt lat="42.987454803328546" lon="12.087988125833311"><ele>315.4</ele><time>2026-04-12T08:51:23.001Z</time></trkpt><trkpt lat="42.98752032371431" lon="12.087904869441225"><ele>314.6</ele><time>2026-04-12T08:51:24.001Z</time></trkpt><trkpt lat="42.98757133772532" lon="12.087793386264693"><ele>313.8</ele><time>2026-04-12T08:51:25.001Z</time></trkpt><trkpt lat="42.987640285422984" lon="12.087679550567863"><ele>313.0</ele><time>2026-04-12T08:51:26.001Z</time></trkpt><trkpt lat="42.987697605990114" lon="12.087563917736238"><ele>312.8</ele><time>2026-04-12T08:51:27.001Z</time></trkpt><trkpt lat="42.987761673314665" lon="12.08746532228093"><ele>312.6</ele><time>2026-04-12T08:51:28.001Z</time></trkpt><trkpt lat="42.98782350346133" lon="12.087379695691183"><ele>312.4</ele><time>2026-04-12T08:51:29.001Z</time></trkpt><trkpt lat="42.987887952146366" lon="12.087283649090757"><ele>312.2</ele><time>2026-04-12T08:51:30.001Z</time></trkpt><trkpt lat="42.98795765297293" lon="12.087186778022424"><ele>312.0</ele><time>2026-04-12T08:51:31.001Z</time></trkpt><trkpt lat="42.98801861204059" lon="12.087083793990638"><ele>313.8</ele><time>2026-04-12T08:51:32.001Z</time></trkpt><trkpt lat="42.9880937585758" lon="12.087024739534876"><ele>315.6</ele><time>2026-04-12T08:51:33.001Z</time></trkpt><trkpt lat="42.9881625888748" lon="12.08698238568916"><ele>317.40000000000003</ele><time>2026-04-12T08:51:34.001Z</time></trkpt><trkpt lat="42.98826878354743" lon="12.086867716467472"><ele>319.2</ele><time>2026-04-12T08:51:36.001Z</time></trkpt><trkpt lat="42.98832873235533" lon="12.086805385926043"><ele>321.0</ele><time>2026-04-12T08:51:37.001Z</time></trkpt><trkpt lat="42.98839257860392" lon="12.086739002967898"><ele>321.0</ele><time>2026-04-12T08:51:38.001Z</time></trkpt><trkpt lat="42.98849027105026" lon="12.086702438869201"><ele>321.0</ele><time>2026-04-12T08:51:40.001Z</time></trkpt><trkpt lat="42.98856059134445" lon="12.086651915789231"><ele>321.0</ele><time>2026-04-12T08:51:41.001Z</time></trkpt><trkpt lat="42.98877734694007" lon="12.086703910609709"><ele>321.0</ele><time>2026-04-12T08:51:42.001Z</time></trkpt><trkpt lat="42.988836200383844" lon="12.086637121713737"><ele>322.6666666666667</ele><time>2026-04-12T08:51:43.001Z</time></trkpt><trkpt lat="42.988915798951886" lon="12.08654679054241"><ele>324.33333333333337</ele><time>2026-04-12T08:51:45.001Z</time></trkpt><trkpt lat="42.98898378577607" lon="12.08646963677809"><ele>326.0</ele><time>2026-04-12T08:51:47.001Z</time></trkpt><trkpt lat="42.98879136701868" lon="12.0859449550844"><ele>326.0</ele><time>2026-04-12T08:51:49.001Z</time></trkpt><trkpt lat="42.988859054463774" lon="12.085859458671084"><ele>326.0</ele><time>2026-04-12T08:51:51.001Z</time></trkpt><trkpt lat="42.98894101752094" lon="12.085752703564568"><ele>326.0</ele><time>2026-04-12T08:51:53.001Z</time></trkpt><trkpt lat="42.988984790365244" lon="12.085670207826373"><ele>326.0</ele><time>2026-04-12T08:51:54.001Z</time></trkpt><trkpt lat="42.98902750186765" lon="12.085567264159794"><ele>326.0</ele><time>2026-04-12T08:51:55.001Z</time></trkpt><trkpt lat="42.989064524755165" lon="12.08545608305762"><ele>326.0</ele><time>2026-04-12T08:51:56.001Z</time></trkpt><trkpt lat="42.989094277073434" lon="12.085340491941881"><ele>326.0</ele><time>2026-04-12T08:51:57.001Z</time></trkpt><trkpt lat="42.98912526851861" lon="12.085213162583194"><ele>326.0</ele><time>2026-04-12T08:51:58.001Z</time></trkpt><trkpt lat="42.98916390575966" lon="12.08509304586075"><ele>326.0</ele><time>2026-04-12T08:51:59.001Z</time></trkpt><trkpt lat="42.98920353665717" lon="12.08498534071197"><ele>326.0</ele><time>2026-04-12T08:52:00.001Z</time></trkpt><trkpt lat="42.98923846029134" lon="12.084893588989482"><ele>326.0</ele><time>2026-04-12T08:52:01.001Z</time></trkpt><trkpt lat="42.98926438736349" lon="12.084814805105092"><ele>327.0</ele><time>2026-04-12T08:52:02.001Z</time></trkpt><trkpt lat="42.989296505167154" lon="12.084699676247398"><ele>328.0</ele><time>2026-04-12T08:52:04.001Z</time></trkpt><trkpt lat="42.98933132375946" lon="12.084561302892716"><ele>329.0</ele><time>2026-04-12T08:52:06.001Z</time></trkpt><trkpt lat="42.98936544307272" lon="12.084421694146059"><ele>330.0</ele><time>2026-04-12T08:52:08.001Z</time></trkpt><trkpt lat="42.989401815966445" lon="12.084302027682114"><ele>331.0</ele><time>2026-04-12T08:52:10.001Z</time></trkpt><trkpt lat="42.98943447834773" lon="12.084181638933975"><ele>333.8333333333333</ele><time>2026-04-12T08:52:12.001Z</time></trkpt><trkpt lat="42.98946884293499" lon="12.084061239599976"><ele>336.66666666666663</ele><time>2026-04-12T08:53:10.001Z</time></trkpt><trkpt lat="42.98943052949975" lon="12.083978665169838"><ele>339.5</ele><time>2026-04-12T08:53:12.001Z</time></trkpt><trkpt lat="42.98936873272712" lon="12.083895038445673"><ele>342.3333333333333</ele><time>2026-04-12T08:53:14.001Z</time></trkpt><trkpt lat="42.98930019057346" lon="12.083803643353464"><ele>345.1666666666667</ele><time>2026-04-12T08:53:16.001Z</time></trkpt><trkpt lat="42.989256927436315" lon="12.083720808817263"><ele>348.0</ele><time>2026-04-12T08:53:17.001Z</time></trkpt><trkpt lat="42.98921449205511" lon="12.08362847486965"><ele>345.6666666666667</ele><time>2026-04-12T08:53:18.001Z</time></trkpt><trkpt lat="42.989169670125925" lon="12.08351991746235"><ele>343.3333333333333</ele><time>2026-04-12T08:53:19.001Z</time></trkpt><trkpt lat="42.98912751505231" lon="12.083413470289662"><ele>341.0</ele><time>2026-04-12T08:53:20.001Z</time></trkpt><trkpt lat="42.98909327767088" lon="12.083319123458887"><ele>338.66666666666663</ele><time>2026-04-12T08:53:21.001Z</time></trkpt><trkpt lat="42.989057014669754" lon="12.083206717136184"><ele>336.3333333333333</ele><time>2026-04-12T08:53:23.001Z</time></trkpt><trkpt lat="42.9890271731433" lon="12.083112269748616"><ele>334.0</ele><time>2026-04-12T08:53:26.001Z</time></trkpt><trkpt lat="42.98897886897089" lon="12.082959099484885"><ele>334.0</ele><time>2026-04-12T08:53:28.001Z</time></trkpt><trkpt lat="42.988944288982424" lon="12.082845327972231"><ele>334.0</ele><time>2026-04-12T08:53:29.001Z</time></trkpt><trkpt lat="42.98891334535426" lon="12.082717699941488"><ele>334.0</ele><time>2026-04-12T08:53:30.001Z</time></trkpt><trkpt lat="42.988887387887495" lon="12.08260936986639"><ele>334.0</ele><time>2026-04-12T08:53:31.001Z</time></trkpt><trkpt lat="42.988871528273336" lon="12.082428774908179"><ele>334.0</ele><time>2026-04-12T08:53:33.001Z</time></trkpt><trkpt lat="42.9888959464106" lon="12.082277644579948"><ele>334.66666666666663</ele><time>2026-04-12T08:53:35.001Z</time></trkpt><trkpt lat="42.98876574717328" lon="12.081934954888721"><ele>335.3333333333333</ele><time>2026-04-12T08:53:44.001Z</time></trkpt><trkpt lat="42.98865308238837" lon="12.081857007286397"><ele>336.0</ele><time>2026-04-12T08:53:46.001Z</time></trkpt><trkpt lat="42.98858415683727" lon="12.081806295823043"><ele>336.0</ele><time>2026-04-12T08:53:47.001Z</time></trkpt><trkpt lat="42.98851431720163" lon="12.081748599593137"><ele>336.0</ele><time>2026-04-12T08:53:48.001Z</time></trkpt><trkpt lat="42.98842893746204" lon="12.081661100317568"><ele>336.0</ele><time>2026-04-12T08:53:50.001Z</time></trkpt><trkpt lat="42.98837044514072" lon="12.081604992046916"><ele>336.0</ele><time>2026-04-12T08:53:55.001Z</time></trkpt><trkpt lat="42.988321613793325" lon="12.08154689559927"><ele>336.0</ele><time>2026-04-12T08:53:57.001Z</time></trkpt><trkpt lat="42.98820744161292" lon="12.081482171105984"><ele>336.0</ele><time>2026-04-12T08:53:59.001Z</time></trkpt><trkpt lat="42.98811994091915" lon="12.081470795284869"><ele>338.1666666666667</ele><time>2026-04-12T08:54:00.001Z</time></trkpt><trkpt lat="42.988041658296375" lon="12.081460124209642"><ele>340.3333333333333</ele><time>2026-04-12T08:54:01.001Z</time></trkpt><trkpt lat="42.98796731452493" lon="12.081436150007196"><ele>342.5</ele><time>2026-04-12T08:54:02.001Z</time></trkpt><trkpt lat="42.98789534349072" lon="12.081387585078362"><ele>344.66666666666663</ele><time>2026-04-12T08:54:03.001Z</time></trkpt><trkpt lat="42.98781468207385" lon="12.081349154644654"><ele>346.8333333333333</ele><time>2026-04-12T08:54:04.001Z</time></trkpt><trkpt lat="42.98773858302516" lon="12.081346264843106"><ele>349.0</ele><time>2026-04-12T08:54:05.001Z</time></trkpt><trkpt lat="42.98766762156361" lon="12.08135554220212"><ele>349.0</ele><time>2026-04-12T08:54:06.001Z</time></trkpt><trkpt lat="42.98754201789326" lon="12.081313191854324"><ele>349.0</ele><time>2026-04-12T08:54:08.001Z</time></trkpt><trkpt lat="42.987476664564994" lon="12.081271143454172"><ele>349.0</ele><time>2026-04-12T08:54:09.001Z</time></trkpt><trkpt lat="42.987426805300636" lon="12.081211571210865"><ele>349.0</ele><time>2026-04-12T08:54:10.001Z</time></trkpt><trkpt lat="42.98738829186681" lon="12.08114338585268"><ele>349.0</ele><time>2026-04-12T08:54:11.001Z</time></trkpt><trkpt lat="42.98732074347584" lon="12.08102968308102"><ele>349.0</ele><time>2026-04-12T08:54:13.001Z</time></trkpt><trkpt lat="42.987325475140516" lon="12.08089234866762"><ele>349.5</ele><time>2026-04-12T08:54:15.001Z</time></trkpt><trkpt lat="42.98731695590432" lon="12.080785068246522"><ele>350.0</ele><time>2026-04-12T08:54:17.001Z</time></trkpt><trkpt lat="42.98725376576326" lon="12.080762440587604"><ele>350.5</ele><time>2026-04-12T08:54:21.001Z</time></trkpt><trkpt lat="42.987181032410426" lon="12.080831505845463"><ele>351.0</ele><time>2026-04-12T08:54:26.001Z</time></trkpt><trkpt lat="42.98717871207116" lon="12.080949530880849"><ele>351.5</ele><time>2026-04-12T08:54:28.001Z</time></trkpt><trkpt lat="42.98715556581131" lon="12.081119599889316"><ele>352.0</ele><time>2026-04-12T08:54:30.001Z</time></trkpt><trkpt lat="42.98712546245813" lon="12.081241862567545"><ele>349.6</ele><time>2026-04-12T08:54:31.001Z</time></trkpt><trkpt lat="42.98707924963867" lon="12.081337117849502"><ele>347.20000000000005</ele><time>2026-04-12T08:54:32.001Z</time></trkpt><trkpt lat="42.98703054435755" lon="12.081411947064145"><ele>344.8</ele><time>2026-04-12T08:54:33.001Z</time></trkpt><trkpt lat="42.98692910042638" lon="12.081464231594673"><ele>342.4</ele><time>2026-04-12T08:54:35.001Z</time></trkpt><trkpt lat="42.986859720336724" lon="12.081416958843493"><ele>340.0</ele><time>2026-04-12T08:54:37.001Z</time></trkpt><trkpt lat="42.98681767348406" lon="12.081273893935677"><ele>340.0</ele><time>2026-04-12T08:54:39.001Z</time></trkpt><trkpt lat="42.98678774942128" lon="12.081186755317928"><ele>340.0</ele><time>2026-04-12T08:54:40.001Z</time></trkpt><trkpt lat="42.98674576745486" lon="12.081107283016728"><ele>340.0</ele><time>2026-04-12T08:54:41.001Z</time></trkpt><trkpt lat="42.98666456669845" lon="12.080993908789187"><ele>340.0</ele><time>2026-04-12T08:54:43.001Z</time></trkpt><trkpt lat="42.986613580375376" lon="12.080935502867595"><ele>340.0</ele><time>2026-04-12T08:54:44.001Z</time></trkpt><trkpt lat="42.986555078592374" lon="12.080858137930278"><ele>340.0</ele><time>2026-04-12T08:54:45.001Z</time></trkpt><trkpt lat="42.98651178225855" lon="12.08077011069308"><ele>340.0</ele><time>2026-04-12T08:54:46.001Z</time></trkpt><trkpt lat="42.98648827506223" lon="12.080672859981979"><ele>340.0</ele><time>2026-04-12T08:54:47.001Z</time></trkpt><trkpt lat="42.98648312002215" lon="12.080578686048142"><ele>340.0</ele><time>2026-04-12T08:54:48.001Z</time></trkpt><trkpt lat="42.986477655515614" lon="12.08048478893652"><ele>340.0</ele><time>2026-04-12T08:54:49.001Z</time></trkpt><trkpt lat="42.98648107245178" lon="12.080369679257409"><ele>340.0</ele><time>2026-04-12T08:54:50.001Z</time></trkpt><trkpt lat="42.98648553656765" lon="12.080253388147662"><ele>340.0</ele><time>2026-04-12T08:54:51.001Z</time></trkpt><trkpt lat="42.9864853540958" lon="12.080143417558514"><ele>340.0</ele><time>2026-04-12T08:54:52.001Z</time></trkpt><trkpt lat="42.98648943680577" lon="12.080047764988066"><ele>340.0</ele><time>2026-04-12T08:54:54.001Z</time></trkpt><trkpt lat="42.98650480619871" lon="12.07995048687633"><ele>340.0</ele><time>2026-04-12T08:54:56.001Z</time></trkpt><trkpt lat="42.98653589729343" lon="12.07980848621566"><ele>340.0</ele><time>2026-04-12T08:54:58Z</time></trkpt><trkpt lat="42.98649380710681" lon="12.079678845921727"><ele>340.0</ele><time>2026-04-12T08:55:00Z</time></trkpt><trkpt lat="42.98644946971795" lon="12.079612193046414"><ele>340.0</ele><time>2026-04-12T08:55:01Z</time></trkpt><trkpt lat="42.9863877400959" lon="12.079545080173004"><ele>341.5</ele><time>2026-04-12T08:55:02Z</time></trkpt><trkpt lat="42.986312328062226" lon="12.07946873698824"><ele>343.0</ele><time>2026-04-12T08:55:03Z</time></trkpt><trkpt lat="42.98624406003885" lon="12.079380114764561"><ele>344.5</ele><time>2026-04-12T08:55:04Z</time></trkpt><trkpt lat="42.986181558921146" lon="12.07929203638245"><ele>346.0</ele><time>2026-04-12T08:55:05Z</time></trkpt><trkpt lat="42.986108915930124" lon="12.079210950686322"><ele>347.5</ele><time>2026-04-12T08:55:06Z</time></trkpt><trkpt lat="42.98604963965781" lon="12.079151144348101"><ele>349.0</ele><time>2026-04-12T08:55:07Z</time></trkpt><trkpt lat="42.98600599233755" lon="12.079082699715574"><ele>348.8333333333333</ele><time>2026-04-12T08:55:08Z</time></trkpt><trkpt lat="42.985960661192706" lon="12.078992865658181"><ele>348.66666666666663</ele><time>2026-04-12T08:55:09Z</time></trkpt><trkpt lat="42.98592190473357" lon="12.078882543163987"><ele>348.5</ele><time>2026-04-12T08:55:10Z</time></trkpt><trkpt lat="42.98588148709799" lon="12.078763184583336"><ele>348.3333333333333</ele><time>2026-04-12T08:55:11Z</time></trkpt><trkpt lat="42.98583396553753" lon="12.078649359981602"><ele>348.1666666666667</ele><time>2026-04-12T08:55:12Z</time></trkpt><trkpt lat="42.985782788930784" lon="12.078553916142653"><ele>348.0</ele><time>2026-04-12T08:55:13Z</time></trkpt><trkpt lat="42.985725985221606" lon="12.078482028982986"><ele>348.0</ele><time>2026-04-12T08:55:14Z</time></trkpt><trkpt lat="42.98567302106753" lon="12.07840358743466"><ele>348.0</ele><time>2026-04-12T08:55:15Z</time></trkpt><trkpt lat="42.98561814062207" lon="12.078338415572553"><ele>348.0</ele><time>2026-04-12T08:55:16Z</time></trkpt><trkpt lat="42.98551089372259" lon="12.078289729717273"><ele>348.0</ele><time>2026-04-12T08:55:18Z</time></trkpt><trkpt lat="42.98545041049961" lon="12.078208374441514"><ele>348.0</ele><time>2026-04-12T08:55:20Z</time></trkpt><trkpt lat="42.985470040300015" lon="12.078026434592228"><ele>350.0</ele><time>2026-04-12T08:55:22Z</time></trkpt><trkpt lat="42.98545786999042" lon="12.077923671872899"><ele>352.0</ele><time>2026-04-12T08:55:23Z</time></trkpt><trkpt lat="42.9854389582413" lon="12.077824562977435"><ele>354.0</ele><time>2026-04-12T08:55:24Z</time></trkpt><trkpt lat="42.98538920681353" lon="12.077748152568182"><ele>356.0</ele><time>2026-04-12T08:55:25Z</time></trkpt><trkpt lat="42.985327513474175" lon="12.07764050175644"><ele>358.0</ele><time>2026-04-12T08:55:26Z</time></trkpt><trkpt lat="42.98527093801473" lon="12.07755354331773"><ele>360.0</ele><time>2026-04-12T08:55:27Z</time></trkpt><trkpt lat="42.98521466041632" lon="12.077464714031994"><ele>359.3333333333333</ele><time>2026-04-12T08:55:28Z</time></trkpt><trkpt lat="42.985152966139" lon="12.07738811462967"><ele>358.6666666666667</ele><time>2026-04-12T08:55:29Z</time></trkpt><trkpt lat="42.9851068661662" lon="12.07728824302684"><ele>358.0</ele><time>2026-04-12T08:55:30Z</time></trkpt><trkpt lat="42.985056682605325" lon="12.077197001447361"><ele>357.33333333333337</ele><time>2026-04-12T08:55:31Z</time></trkpt><trkpt lat="42.98500349767438" lon="12.077091667366764"><ele>356.6666666666667</ele><time>2026-04-12T08:55:32Z</time></trkpt><trkpt lat="42.98495704600841" lon="12.076985910441087"><ele>356.0</ele><time>2026-04-12T08:55:33Z</time></trkpt><trkpt lat="42.984926810543314" lon="12.07689582925613"><ele>356.0</ele><time>2026-04-12T08:55:34Z</time></trkpt><trkpt lat="42.98488751090073" lon="12.076805263491032"><ele>356.0</ele><time>2026-04-12T08:55:35Z</time></trkpt><trkpt lat="42.98484326628912" lon="12.076718906101007"><ele>356.0</ele><time>2026-04-12T08:55:36Z</time></trkpt><trkpt lat="42.98478308173261" lon="12.076651670721764"><ele>356.0</ele><time>2026-04-12T08:55:37Z</time></trkpt><trkpt lat="42.98472626750869" lon="12.076585819656668"><ele>356.0</ele><time>2026-04-12T08:55:38Z</time></trkpt><trkpt lat="42.98464680241234" lon="12.076529096953115"><ele>356.0</ele><time>2026-04-12T08:55:39Z</time></trkpt><trkpt lat="42.984580102604426" lon="12.076462865234006"><ele>357.0</ele><time>2026-04-12T08:55:40Z</time></trkpt><trkpt lat="42.984557841732205" lon="12.076328016633825"><ele>358.0</ele><time>2026-04-12T08:55:42Z</time></trkpt><trkpt lat="42.98449889117561" lon="12.076199326181687"><ele>359.0</ele><time>2026-04-12T08:55:46Z</time></trkpt><trkpt lat="42.98452669189149" lon="12.07607487150141"><ele>360.0</ele><time>2026-04-12T08:55:47Z</time></trkpt><trkpt lat="42.98455496076515" lon="12.07594832131119"><ele>361.0</ele><time>2026-04-12T08:55:48Z</time></trkpt><trkpt lat="42.984583903952" lon="12.075835348746512"><ele>361.0</ele><time>2026-04-12T08:55:49Z</time></trkpt><trkpt lat="42.98459985242425" lon="12.07572554300307"><ele>361.0</ele><time>2026-04-12T08:55:50Z</time></trkpt><trkpt lat="42.98466571695677" lon="12.075688472724885"><ele>361.0</ele><time>2026-04-12T08:55:51Z</time></trkpt><trkpt lat="42.984789185231605" lon="12.075679360438071"><ele>361.0</ele><time>2026-04-12T08:55:53Z</time></trkpt><trkpt lat="42.984855032673515" lon="12.075728694302263"><ele>361.0</ele><time>2026-04-12T08:55:54Z</time></trkpt><trkpt lat="42.98492474536726" lon="12.07581043092999"><ele>361.0</ele><time>2026-04-12T08:55:56Z</time></trkpt><trkpt lat="42.98500931639628" lon="12.075869518640236"><ele>364.20000000000005</ele><time>2026-04-12T08:55:58Z</time></trkpt><trkpt lat="42.98508031236337" lon="12.075913442012867"><ele>367.40000000000003</ele><time>2026-04-12T08:55:59Z</time></trkpt><trkpt lat="42.98515447017666" lon="12.075959625277259"><ele>370.6</ele><time>2026-04-12T08:56:00Z</time></trkpt><trkpt lat="42.985235446493654" lon="12.076037446010638"><ele>373.8</ele><time>2026-04-12T08:56:01Z</time></trkpt><trkpt lat="42.98534179665103" lon="12.076109581491805"><ele>377.0</ele><time>2026-04-12T08:56:02Z</time></trkpt><trkpt lat="42.98540173759657" lon="12.07617953107263"><ele>377.0</ele><time>2026-04-12T08:56:03Z</time></trkpt><trkpt lat="42.98531957052341" lon="12.076074783761488"><ele>377.0</ele><time>2026-04-12T08:56:10Z</time></trkpt><trkpt lat="42.9852142246222" lon="12.076000359312838"><ele>377.0</ele><time>2026-04-12T08:56:11Z</time></trkpt><trkpt lat="42.98510851187375" lon="12.075919123320434"><ele>377.0</ele><time>2026-04-12T08:56:12Z</time></trkpt><trkpt lat="42.984995146526636" lon="12.075846871729356"><ele>373.5</ele><time>2026-04-12T08:56:13Z</time></trkpt><trkpt lat="42.9849012201256" lon="12.075769320940015"><ele>370.0</ele><time>2026-04-12T08:56:14Z</time></trkpt><trkpt lat="42.98482097741225" lon="12.075701178822822"><ele>366.5</ele><time>2026-04-12T08:56:15Z</time></trkpt><trkpt lat="42.98475285749136" lon="12.075655248256227"><ele>363.0</ele><time>2026-04-12T08:56:16Z</time></trkpt><trkpt lat="42.98467929322814" lon="12.07564009672472"><ele>359.5</ele><time>2026-04-12T08:56:17Z</time></trkpt><trkpt lat="42.984609273753264" lon="12.075674539617816"><ele>356.0</ele><time>2026-04-12T08:56:18Z</time></trkpt><trkpt lat="42.98455320906646" lon="12.075755334388939"><ele>357.0</ele><time>2026-04-12T08:56:19.001Z</time></trkpt><trkpt lat="42.98452988978298" lon="12.075895307052853"><ele>358.0</ele><time>2026-04-12T08:56:20.001Z</time></trkpt><trkpt lat="42.984513285569776" lon="12.076041675268915"><ele>359.0</ele><time>2026-04-12T08:56:21.001Z</time></trkpt><trkpt lat="42.98448837833901" lon="12.076196166654718"><ele>360.0</ele><time>2026-04-12T08:56:22.001Z</time></trkpt><trkpt lat="42.984452114168654" lon="12.076339317057192"><ele>361.0</ele><time>2026-04-12T08:56:23.001Z</time></trkpt><trkpt lat="42.98441003856109" lon="12.076460915157924"><ele>361.0</ele><time>2026-04-12T08:56:24.001Z</time></trkpt><trkpt lat="42.984359463160644" lon="12.076572171667761"><ele>361.0</ele><time>2026-04-12T08:56:25.001Z</time></trkpt><trkpt lat="42.984297487877875" lon="12.076676525038195"><ele>361.0</ele><time>2026-04-12T08:56:26.001Z</time></trkpt><trkpt lat="42.98420130309197" lon="12.076750163936426"><ele>361.0</ele><time>2026-04-12T08:56:27.001Z</time></trkpt><trkpt lat="42.984103337182056" lon="12.076858861168802"><ele>361.0</ele><time>2026-04-12T08:56:28.001Z</time></trkpt><trkpt lat="42.983980416389905" lon="12.07696623067098"><ele>358.0</ele><time>2026-04-12T08:56:29.001Z</time></trkpt><trkpt lat="42.98385575287499" lon="12.077087245822227"><ele>355.0</ele><time>2026-04-12T08:56:30.001Z</time></trkpt><trkpt lat="42.983723630558735" lon="12.07718484876502"><ele>352.0</ele><time>2026-04-12T08:56:31.001Z</time></trkpt><trkpt lat="42.98358609571277" lon="12.077250727020783"><ele>349.0</ele><time>2026-04-12T08:56:32.001Z</time></trkpt><trkpt lat="42.98344622301489" lon="12.077291564480612"><ele>347.25</ele><time>2026-04-12T08:56:33.001Z</time></trkpt><trkpt lat="42.98332663329797" lon="12.077335823123718"><ele>345.5</ele><time>2026-04-12T08:56:34.001Z</time></trkpt><trkpt lat="42.983229434550026" lon="12.077407973105181"><ele>343.75</ele><time>2026-04-12T08:56:35.001Z</time></trkpt><trkpt lat="42.98313593653811" lon="12.077522895066487"><ele>342.0</ele><time>2026-04-12T08:56:36.001Z</time></trkpt><trkpt lat="42.9830428099731" lon="12.077667422609679"><ele>342.0</ele><time>2026-04-12T08:56:37.001Z</time></trkpt><trkpt lat="42.98293621632083" lon="12.07782350807816"><ele>342.0</ele><time>2026-04-12T08:56:38.001Z</time></trkpt><trkpt lat="42.982806304116764" lon="12.077965257921393"><ele>342.0</ele><time>2026-04-12T08:56:39.001Z</time></trkpt><trkpt lat="42.982695051105935" lon="12.078131021173453"><ele>342.0</ele><time>2026-04-12T08:56:40.001Z</time></trkpt><trkpt lat="42.98257452572041" lon="12.078267943892834"><ele>342.0</ele><time>2026-04-12T08:56:41.001Z</time></trkpt><trkpt lat="42.98246148517988" lon="12.078431635301767"><ele>342.0</ele><time>2026-04-12T08:56:42.001Z</time></trkpt><trkpt lat="42.98236397042686" lon="12.078627357463317"><ele>341.0</ele><time>2026-04-12T08:56:43.001Z</time></trkpt><trkpt lat="42.982273176075175" lon="12.078840096680619"><ele>340.0</ele><time>2026-04-12T08:56:44.001Z</time></trkpt><trkpt lat="42.98219308962651" lon="12.079056873379752"><ele>339.0</ele><time>2026-04-12T08:56:45.001Z</time></trkpt><trkpt lat="42.982128257759136" lon="12.079260503824424"><ele>339.0</ele><time>2026-04-12T08:56:46.001Z</time></trkpt><trkpt lat="42.982087671634766" lon="12.079422192153414"><ele>339.0</ele><time>2026-04-12T08:56:47.001Z</time></trkpt><trkpt lat="42.98202879778148" lon="12.079522993494939"><ele>339.0</ele><time>2026-04-12T08:56:48.001Z</time></trkpt><trkpt lat="42.9819923169442" lon="12.079599714627152"><ele>339.0</ele><time>2026-04-12T08:56:49.001Z</time></trkpt><trkpt lat="42.98191228204499" lon="12.079602789855997"><ele>339.0</ele><time>2026-04-12T08:56:50.001Z</time></trkpt><trkpt lat="42.98182393062599" lon="12.07952052208229"><ele>339.0</ele><time>2026-04-12T08:56:51.001Z</time></trkpt><trkpt lat="42.981723706481816" lon="12.079440439621335"><ele>339.0</ele><time>2026-04-12T08:56:52.001Z</time></trkpt><trkpt lat="42.98160512655001" lon="12.079370960287878"><ele>339.0</ele><time>2026-04-12T08:56:53.001Z</time></trkpt><trkpt lat="42.981500760927595" lon="12.079286541383851"><ele>339.0</ele><time>2026-04-12T08:56:54.001Z</time></trkpt><trkpt lat="42.98141357408464" lon="12.079241199395057"><ele>340.6666666666667</ele><time>2026-04-12T08:56:55.001Z</time></trkpt><trkpt lat="42.98134237114979" lon="12.079242576350254"><ele>342.3333333333333</ele><time>2026-04-12T08:56:56.001Z</time></trkpt><trkpt lat="42.981289271792924" lon="12.079291968466022"><ele>344.0</ele><time>2026-04-12T08:56:57.001Z</time></trkpt><trkpt lat="42.98125692025997" lon="12.079384511427094"><ele>345.66666666666663</ele><time>2026-04-12T08:56:58.001Z</time></trkpt><trkpt lat="42.98125519573474" lon="12.079509950397316"><ele>347.3333333333333</ele><time>2026-04-12T08:56:59.001Z</time></trkpt><trkpt lat="42.98126241221417" lon="12.07967422369465"><ele>349.0</ele><time>2026-04-12T08:57:00.001Z</time></trkpt><trkpt lat="42.98121942232313" lon="12.079862918927075"><ele>352.5</ele><time>2026-04-12T08:57:01.001Z</time></trkpt><trkpt lat="42.981170311539074" lon="12.080065216686535"><ele>356.0</ele><time>2026-04-12T08:57:02.001Z</time></trkpt><trkpt lat="42.981127120689784" lon="12.080267867963352"><ele>359.5</ele><time>2026-04-12T08:57:03.001Z</time></trkpt><trkpt lat="42.98105219168886" lon="12.080415367498416"><ele>363.0</ele><time>2026-04-12T08:57:04Z</time></trkpt><trkpt lat="42.98101693476589" lon="12.080542557429892"><ele>363.0</ele><time>2026-04-12T08:57:05Z</time></trkpt><trkpt lat="42.98101657886962" lon="12.08065413963007"><ele>363.0</ele><time>2026-04-12T08:57:06Z</time></trkpt><trkpt lat="42.98102057575098" lon="12.080785561466374"><ele>363.0</ele><time>2026-04-12T08:57:07Z</time></trkpt><trkpt lat="42.98097500865221" lon="12.080923995098182"><ele>363.0</ele><time>2026-04-12T08:57:08Z</time></trkpt><trkpt lat="42.980912523907364" lon="12.081082641279268"><ele>363.0</ele><time>2026-04-12T08:57:09Z</time></trkpt><trkpt lat="42.980832090123435" lon="12.081250451032293"><ele>362.3333333333333</ele><time>2026-04-12T08:57:10Z</time></trkpt><trkpt lat="42.980753340268876" lon="12.08143707374221"><ele>361.66666666666663</ele><time>2026-04-12T08:57:11Z</time></trkpt><trkpt lat="42.98066291029661" lon="12.081622384602902"><ele>361.0</ele><time>2026-04-12T08:57:12Z</time></trkpt><trkpt lat="42.98057180305709" lon="12.081819327447434"><ele>357.3333333333333</ele><time>2026-04-12T08:57:13Z</time></trkpt><trkpt lat="42.980485362128725" lon="12.082017018727788"><ele>353.6666666666667</ele><time>2026-04-12T08:57:14Z</time></trkpt><trkpt lat="42.98039712336609" lon="12.082212283187996"><ele>350.0</ele><time>2026-04-12T08:57:15Z</time></trkpt><trkpt lat="42.98031556621116" lon="12.082396368471276"><ele>344.6666666666667</ele><time>2026-04-12T08:57:16Z</time></trkpt><trkpt lat="42.98023443826053" lon="12.082578515041988"><ele>339.3333333333333</ele><time>2026-04-12T08:57:17Z</time></trkpt><trkpt lat="42.98016198343623" lon="12.082764036425436"><ele>334.0</ele><time>2026-04-12T08:57:18Z</time></trkpt><trkpt lat="42.98009676793828" lon="12.082959110738335"><ele>334.0</ele><time>2026-04-12T08:57:19Z</time></trkpt><trkpt lat="42.980032886536534" lon="12.083162504155224"><ele>334.0</ele><time>2026-04-12T08:57:20Z</time></trkpt><trkpt lat="42.97996603955836" lon="12.083366924600053"><ele>334.0</ele><time>2026-04-12T08:57:21Z</time></trkpt><trkpt lat="42.97989687876503" lon="12.083553357912585"><ele>333.75</ele><time>2026-04-12T08:57:22Z</time></trkpt><trkpt lat="42.979815583212165" lon="12.08370926123672"><ele>333.5</ele><time>2026-04-12T08:57:23Z</time></trkpt><trkpt lat="42.97974711096173" lon="12.083862443250784"><ele>333.25</ele><time>2026-04-12T08:57:24Z</time></trkpt><trkpt lat="42.979678446903854" lon="12.08402005161108"><ele>333.0</ele><time>2026-04-12T08:57:25Z</time></trkpt><trkpt lat="42.979588974760915" lon="12.0841543764459"><ele>333.0</ele><time>2026-04-12T08:57:26Z</time></trkpt><trkpt lat="42.979484359408616" lon="12.084245415086887"><ele>333.0</ele><time>2026-04-12T08:57:27Z</time></trkpt><trkpt lat="42.97936874390349" lon="12.084305244571828"><ele>333.0</ele><time>2026-04-12T08:57:28Z</time></trkpt><trkpt lat="42.97925039801882" lon="12.084340494840342"><ele>333.0</ele><time>2026-04-12T08:57:29Z</time></trkpt><trkpt lat="42.97912625024445" lon="12.084366950577296"><ele>333.5</ele><time>2026-04-12T08:57:30Z</time></trkpt><trkpt lat="42.97901360693884" lon="12.08441603715066"><ele>334.0</ele><time>2026-04-12T08:57:31Z</time></trkpt><trkpt lat="42.97891803328214" lon="12.084505455569904"><ele>334.5</ele><time>2026-04-12T08:57:32Z</time></trkpt><trkpt lat="42.97883150328568" lon="12.08462746770698"><ele>335.0</ele><time>2026-04-12T08:57:33Z</time></trkpt><trkpt lat="42.978748967163" lon="12.084764782472586"><ele>335.0</ele><time>2026-04-12T08:57:34Z</time></trkpt><trkpt lat="42.978645820677585" lon="12.084874115248438"><ele>335.0</ele><time>2026-04-12T08:57:35Z</time></trkpt><trkpt lat="42.9785806966396" lon="12.085013370657109"><ele>335.0</ele><time>2026-04-12T08:57:36Z</time></trkpt><trkpt lat="42.97852081581284" lon="12.0851376762519"><ele>335.0</ele><time>2026-04-12T08:57:37Z</time></trkpt><trkpt lat="42.978484875705" lon="12.085286796390736"><ele>334.6</ele><time>2026-04-12T08:57:38Z</time></trkpt><trkpt lat="42.978434719755114" lon="12.08540493209555"><ele>334.2</ele><time>2026-04-12T08:57:39Z</time></trkpt><trkpt lat="42.97838720571565" lon="12.08550982336086"><ele>333.79999999999995</ele><time>2026-04-12T08:57:40Z</time></trkpt><trkpt lat="42.978313321380114" lon="12.085592494018824"><ele>333.4</ele><time>2026-04-12T08:57:41Z</time></trkpt><trkpt lat="42.978216314233855" lon="12.085675296260321"><ele>333.0</ele><time>2026-04-12T08:57:42Z</time></trkpt><trkpt lat="42.97810017248711" lon="12.085758705072376"><ele>333.75</ele><time>2026-04-12T08:57:43Z</time></trkpt><trkpt lat="42.977977371827" lon="12.085836906632162"><ele>334.5</ele><time>2026-04-12T08:57:44Z</time></trkpt><trkpt lat="42.97786629876133" lon="12.085924246756868"><ele>335.25</ele><time>2026-04-12T08:57:45Z</time></trkpt><trkpt lat="42.977748615079165" lon="12.085987978849627"><ele>336.0</ele><time>2026-04-12T08:57:46Z</time></trkpt><trkpt lat="42.97763033122383" lon="12.086040825590285"><ele>336.0</ele><time>2026-04-12T08:57:47Z</time></trkpt><trkpt lat="42.977524199761355" lon="12.086098287515672"><ele>336.0</ele><time>2026-04-12T08:57:48Z</time></trkpt><trkpt lat="42.97743554601439" lon="12.086157858984942"><ele>336.0</ele><time>2026-04-12T08:57:49Z</time></trkpt><trkpt lat="42.9773614079374" lon="12.086248366022886"><ele>336.0</ele><time>2026-04-12T08:57:50Z</time></trkpt><trkpt lat="42.97727990940871" lon="12.086364447491455"><ele>336.0</ele><time>2026-04-12T08:57:51Z</time></trkpt><trkpt lat="42.977230651310855" lon="12.086536186743675"><ele>333.5</ele><time>2026-04-12T08:57:52Z</time></trkpt><trkpt lat="42.97717786526505" lon="12.086677809966895"><ele>331.0</ele><time>2026-04-12T08:57:53Z</time></trkpt><trkpt lat="42.977140193974314" lon="12.086782460843406"><ele>328.5</ele><time>2026-04-12T08:57:54Z</time></trkpt><trkpt lat="42.977123038294" lon="12.086873349246966"><ele>326.0</ele><time>2026-04-12T08:57:55Z</time></trkpt><trkpt lat="42.97713594568649" lon="12.086977760760796"><ele>323.5</ele><time>2026-04-12T08:57:56Z</time></trkpt><trkpt lat="42.977164729338696" lon="12.087099599793376"><ele>321.0</ele><time>2026-04-12T08:57:57Z</time></trkpt><trkpt lat="42.977255667376454" lon="12.08722326373009"><ele>321.0</ele><time>2026-04-12T08:57:58Z</time></trkpt><trkpt lat="42.977309876911626" lon="12.087369088857448"><ele>321.0</ele><time>2026-04-12T08:57:59Z</time></trkpt><trkpt lat="42.97737213493628" lon="12.087470019573756"><ele>321.0</ele><time>2026-04-12T08:58:00Z</time></trkpt><trkpt lat="42.97738171688286" lon="12.087573320510636"><ele>321.0</ele><time>2026-04-12T08:58:01Z</time></trkpt><trkpt lat="42.97734760160004" lon="12.087685704152094"><ele>321.0</ele><time>2026-04-12T08:58:02Z</time></trkpt><trkpt lat="42.97729621322014" lon="12.087812383794015"><ele>319.6</ele><time>2026-04-12T08:58:03Z</time></trkpt><trkpt lat="42.977258689132306" lon="12.087945216343357"><ele>318.20000000000005</ele><time>2026-04-12T08:58:04Z</time></trkpt><trkpt lat="42.97725472785915" lon="12.088075425979726"><ele>316.79999999999995</ele><time>2026-04-12T08:58:05Z</time></trkpt><trkpt lat="42.97727884164972" lon="12.088219649255034"><ele>315.4</ele><time>2026-04-12T08:58:06Z</time></trkpt><trkpt lat="42.97729721081242" lon="12.088398723556987"><ele>314.0</ele><time>2026-04-12T08:58:07Z</time></trkpt><trkpt lat="42.977337141265345" lon="12.088551325611602"><ele>311.8</ele><time>2026-04-12T08:58:08Z</time></trkpt><trkpt lat="42.97738665338872" lon="12.08868788662329"><ele>309.59999999999997</ele><time>2026-04-12T08:58:09Z</time></trkpt><trkpt lat="42.97743505172513" lon="12.088813688975417"><ele>307.4</ele><time>2026-04-12T08:58:10Z</time></trkpt><trkpt lat="42.97748103385286" lon="12.088926549854241"><ele>305.2</ele><time>2026-04-12T08:58:11Z</time></trkpt><trkpt lat="42.97750568275265" lon="12.089030657978878"><ele>303.0</ele><time>2026-04-12T08:58:12Z</time></trkpt><trkpt lat="42.977452548776334" lon="12.089174114235602"><ele>300.6</ele><time>2026-04-12T08:58:14Z</time></trkpt><trkpt lat="42.97737047502045" lon="12.089203975966878"><ele>298.20000000000005</ele><time>2026-04-12T08:58:15Z</time></trkpt><trkpt lat="42.97727134336847" lon="12.08921326916612"><ele>295.8</ele><time>2026-04-12T08:58:16Z</time></trkpt><trkpt lat="42.97716023902434" lon="12.089217207474467"><ele>293.40000000000003</ele><time>2026-04-12T08:58:17Z</time></trkpt><trkpt lat="42.977053021790525" lon="12.089163534841228"><ele>291.0</ele><time>2026-04-12T08:58:18Z</time></trkpt><trkpt lat="42.97694812914562" lon="12.089099647324117"><ele>292.5</ele><time>2026-04-12T08:58:19Z</time></trkpt><trkpt lat="42.97682789327065" lon="12.089040486762666"><ele>294.0</ele><time>2026-04-12T08:58:20Z</time></trkpt><trkpt lat="42.97670935602779" lon="12.088945020283997"><ele>295.5</ele><time>2026-04-12T08:58:21Z</time></trkpt><trkpt lat="42.9765882383108" lon="12.088842065660128"><ele>297.0</ele><time>2026-04-12T08:58:22Z</time></trkpt><trkpt lat="42.97646496070046" lon="12.08872767015162"><ele>297.0</ele><time>2026-04-12T08:58:23Z</time></trkpt><trkpt lat="42.97636215543733" lon="12.088574759618062"><ele>297.0</ele><time>2026-04-12T08:58:24Z</time></trkpt><trkpt lat="42.97626662404683" lon="12.088391444972418"><ele>297.0</ele><time>2026-04-12T08:58:25.001Z</time></trkpt><trkpt lat="42.976163688545256" lon="12.088199009964605"><ele>301.0</ele><time>2026-04-12T08:58:26.001Z</time></trkpt><trkpt lat="42.97604920246228" lon="12.08800343931077"><ele>305.0</ele><time>2026-04-12T08:58:27.001Z</time></trkpt><trkpt lat="42.97595157274258" lon="12.087811330106607"><ele>309.0</ele><time>2026-04-12T08:58:28.001Z</time></trkpt><trkpt lat="42.97585666779972" lon="12.087650561510573"><ele>307.0</ele><time>2026-04-12T08:58:29.001Z</time></trkpt><trkpt lat="42.97576189569637" lon="12.087525856060342"><ele>305.0</ele><time>2026-04-12T08:58:30.001Z</time></trkpt><trkpt lat="42.97565934699004" lon="12.087434793124421"><ele>303.0</ele><time>2026-04-12T08:58:31.001Z</time></trkpt><trkpt lat="42.97557558475633" lon="12.087382351578052"><ele>301.0</ele><time>2026-04-12T08:58:32.001Z</time></trkpt><trkpt lat="42.97545548775643" lon="12.087310407162313"><ele>301.0</ele><time>2026-04-12T08:58:33.001Z</time></trkpt><trkpt lat="42.97536400670623" lon="12.087257718746683"><ele>301.0</ele><time>2026-04-12T08:58:34.001Z</time></trkpt><trkpt lat="42.97528138567133" lon="12.087218903333648"><ele>301.0</ele><time>2026-04-12T08:58:35.001Z</time></trkpt><trkpt lat="42.975208022006484" lon="12.087172330350622"><ele>301.0</ele><time>2026-04-12T08:58:36.001Z</time></trkpt><trkpt lat="42.97511425181716" lon="12.08713296518336"><ele>301.0</ele><time>2026-04-12T08:58:37.001Z</time></trkpt><trkpt lat="42.97503465327053" lon="12.0870540988847"><ele>298.0</ele><time>2026-04-12T08:58:38.001Z</time></trkpt><trkpt lat="42.97494545597867" lon="12.086986278585481"><ele>295.0</ele><time>2026-04-12T08:58:39.001Z</time></trkpt><trkpt lat="42.974856250436915" lon="12.086916980253697"><ele>292.0</ele><time>2026-04-12T08:58:40.001Z</time></trkpt><trkpt lat="42.97477082210042" lon="12.086876472692186"><ele>289.0</ele><time>2026-04-12T08:58:41.001Z</time></trkpt><trkpt lat="42.97469358150883" lon="12.086818363526136"><ele>286.0</ele><time>2026-04-12T08:58:43.001Z</time></trkpt><trkpt lat="42.974649175221806" lon="12.087097171324622"><ele>286.0</ele><time>2026-04-12T08:58:48.001Z</time></trkpt><trkpt lat="42.97466370235965" lon="12.087244838787507"><ele>286.0</ele><time>2026-04-12T08:58:49.001Z</time></trkpt><trkpt lat="42.9746654250924" lon="12.087427872252528"><ele>286.0</ele><time>2026-04-12T08:58:50.001Z</time></trkpt><trkpt lat="42.97466612624834" lon="12.08763264252996"><ele>286.0</ele><time>2026-04-12T08:58:51.001Z</time></trkpt><trkpt lat="42.97466742952011" lon="12.087867583004162"><ele>285.66666666666663</ele><time>2026-04-12T08:58:52.001Z</time></trkpt><trkpt lat="42.97467263788325" lon="12.088116981054302"><ele>285.3333333333333</ele><time>2026-04-12T08:58:53.001Z</time></trkpt><trkpt lat="42.97468165922417" lon="12.088367839916188"><ele>285.0</ele><time>2026-04-12T08:58:54.001Z</time></trkpt><trkpt lat="42.97470821740281" lon="12.088616138428922"><ele>284.0</ele><time>2026-04-12T08:58:55.001Z</time></trkpt><trkpt lat="42.974763237320516" lon="12.088866866747855"><ele>283.0</ele><time>2026-04-12T08:58:56.001Z</time></trkpt><trkpt lat="42.97484942170262" lon="12.089104640956778"><ele>282.0</ele><time>2026-04-12T08:58:57.001Z</time></trkpt><trkpt lat="42.97496633862732" lon="12.089314829596972"><ele>282.0</ele><time>2026-04-12T08:58:58.001Z</time></trkpt><trkpt lat="42.97511254874851" lon="12.089497627954302"><ele>282.0</ele><time>2026-04-12T08:58:59.001Z</time></trkpt><trkpt lat="42.97528629120946" lon="12.08965634745272"><ele>282.0</ele><time>2026-04-12T08:59:00.001Z</time></trkpt><trkpt lat="42.97547897940266" lon="12.08979922594789"><ele>282.0</ele><time>2026-04-12T08:59:01.001Z</time></trkpt><trkpt lat="42.975680192628474" lon="12.089943517920831"><ele>282.0</ele><time>2026-04-12T08:59:02.001Z</time></trkpt><trkpt lat="42.97587172209761" lon="12.090117202491374"><ele>282.0</ele><time>2026-04-12T08:59:03.001Z</time></trkpt><trkpt lat="42.9760653148053" lon="12.090270149603505"><ele>282.0</ele><time>2026-04-12T08:59:04.001Z</time></trkpt><trkpt lat="42.97626087913521" lon="12.090424667957684"><ele>282.0</ele><time>2026-04-12T08:59:05.001Z</time></trkpt><trkpt lat="42.97646350443125" lon="12.090563475917603"><ele>282.0</ele><time>2026-04-12T08:59:06.001Z</time></trkpt><trkpt lat="42.97665267966672" lon="12.090719975548632"><ele>282.0</ele><time>2026-04-12T08:59:07.001Z</time></trkpt><trkpt lat="42.9768326503398" lon="12.090868836380496"><ele>282.0</ele><time>2026-04-12T08:59:08.001Z</time></trkpt><trkpt lat="42.97700622489807" lon="12.09102321455586"><ele>282.0</ele><time>2026-04-12T08:59:09.001Z</time></trkpt><trkpt lat="42.97716806594563" lon="12.091185750442344"><ele>282.0</ele><time>2026-04-12T08:59:10Z</time></trkpt><trkpt lat="42.97732601533059" lon="12.091364579303594"><ele>282.0</ele><time>2026-04-12T08:59:11Z</time></trkpt><trkpt lat="42.97748202789722" lon="12.091553169248607"><ele>281.3333333333333</ele><time>2026-04-12T08:59:12Z</time></trkpt><trkpt lat="42.97763501369894" lon="12.09174601285446"><ele>280.66666666666663</ele><time>2026-04-12T08:59:13Z</time></trkpt><trkpt lat="42.97778515725322" lon="12.091946018461847"><ele>280.0</ele><time>2026-04-12T08:59:14Z</time></trkpt><trkpt lat="42.97793502802915" lon="12.092149183275435"><ele>280.0</ele><time>2026-04-12T08:59:15Z</time></trkpt><trkpt lat="42.97808988452411" lon="12.09235106267816"><ele>280.0</ele><time>2026-04-12T08:59:16Z</time></trkpt><trkpt lat="42.97825018281708" lon="12.092544443461481"><ele>280.0</ele><time>2026-04-12T08:59:17Z</time></trkpt><trkpt lat="42.978418863049626" lon="12.092722488288807"><ele>281.3333333333333</ele><time>2026-04-12T08:59:18Z</time></trkpt><trkpt lat="42.97860393528023" lon="12.092869669587419"><ele>282.6666666666667</ele><time>2026-04-12T08:59:19Z</time></trkpt><trkpt lat="42.978802400883254" lon="12.09299409996577"><ele>284.0</ele><time>2026-04-12T08:59:20Z</time></trkpt><trkpt lat="42.979008574231926" lon="12.093102808600172"><ele>285.0</ele><time>2026-04-12T08:59:21Z</time></trkpt><trkpt lat="42.979223012804695" lon="12.09319562366358"><ele>286.0</ele><time>2026-04-12T08:59:22Z</time></trkpt><trkpt lat="42.979444979277524" lon="12.093285813232313"><ele>282.5</ele><time>2026-04-12T08:59:23Z</time></trkpt><trkpt lat="42.97966875178175" lon="12.093376412939936"><ele>279.0</ele><time>2026-04-12T08:59:24Z</time></trkpt><trkpt lat="42.97989309853277" lon="12.093470167054228"><ele>277.5</ele><time>2026-04-12T08:59:25Z</time></trkpt><trkpt lat="42.980117367074286" lon="12.093562078126432"><ele>276.0</ele><time>2026-04-12T08:59:26Z</time></trkpt><trkpt lat="42.98033916444866" lon="12.093653263826901"><ele>276.0</ele><time>2026-04-12T08:59:27Z</time></trkpt><trkpt lat="42.98055892084895" lon="12.09375009612827"><ele>276.0</ele><time>2026-04-12T08:59:28Z</time></trkpt><trkpt lat="42.980774777030426" lon="12.09386377693104"><ele>273.5</ele><time>2026-04-12T08:59:29Z</time></trkpt><trkpt lat="42.98098300379618" lon="12.093999023792263"><ele>271.0</ele><time>2026-04-12T08:59:30Z</time></trkpt><trkpt lat="42.98118419300996" lon="12.094150235876704"><ele>269.0</ele><time>2026-04-12T08:59:31Z</time></trkpt><trkpt lat="42.9813819405712" lon="12.094309376559398"><ele>267.0</ele><time>2026-04-12T08:59:32Z</time></trkpt><trkpt lat="42.981580466289756" lon="12.094471858723868"><ele>271.0</ele><time>2026-04-12T08:59:33Z</time></trkpt><trkpt lat="42.98177824826813" lon="12.094632939439009"><ele>275.0</ele><time>2026-04-12T08:59:34Z</time></trkpt><trkpt lat="42.98197624888265" lon="12.094792190048869"><ele>271.0</ele><time>2026-04-12T08:59:35Z</time></trkpt><trkpt lat="42.982174677464435" lon="12.09495139770312"><ele>267.0</ele><time>2026-04-12T08:59:36Z</time></trkpt><trkpt lat="42.98237368768619" lon="12.09511071563174"><ele>275.0</ele><time>2026-04-12T08:59:37Z</time></trkpt><trkpt lat="42.98257009216657" lon="12.095268367128671"><ele>283.0</ele><time>2026-04-12T08:59:38Z</time></trkpt><trkpt lat="42.98276555733958" lon="12.09542693720925"><ele>283.0</ele><time>2026-04-12T08:59:39Z</time></trkpt><trkpt lat="42.98296094744046" lon="12.095583062266922"><ele>283.0</ele><time>2026-04-12T08:59:40Z</time></trkpt><trkpt lat="42.98315540979243" lon="12.095744898049169"><ele>283.0</ele><time>2026-04-12T08:59:41Z</time></trkpt><trkpt lat="42.98334243227569" lon="12.095910140008046"><ele>283.0</ele><time>2026-04-12T08:59:42Z</time></trkpt><trkpt lat="42.98352064756615" lon="12.096093418402717"><ele>283.0</ele><time>2026-04-12T08:59:43Z</time></trkpt><trkpt lat="42.983687275527615" lon="12.096302168190082"><ele>283.0</ele><time>2026-04-12T08:59:44Z</time></trkpt><trkpt lat="42.98383078228107" lon="12.096535347685887"><ele>283.0</ele><time>2026-04-12T08:59:45Z</time></trkpt><trkpt lat="42.98395975348" lon="12.096790423787493"><ele>280.3333333333333</ele><time>2026-04-12T08:59:46Z</time></trkpt><trkpt lat="42.98407672468854" lon="12.09704599748602"><ele>277.6666666666667</ele><time>2026-04-12T08:59:47Z</time></trkpt><trkpt lat="42.98418931089238" lon="12.097288101406788"><ele>275.0</ele><time>2026-04-12T08:59:48Z</time></trkpt><trkpt lat="42.98431991418607" lon="12.097515461041713"><ele>273.6666666666667</ele><time>2026-04-12T08:59:49Z</time></trkpt><trkpt lat="42.98447875346939" lon="12.097713015678444"><ele>272.3333333333333</ele><time>2026-04-12T08:59:50Z</time></trkpt><trkpt lat="42.984659973369304" lon="12.097882085767429"><ele>271.0</ele><time>2026-04-12T08:59:51Z</time></trkpt><trkpt lat="42.98485348694922" lon="12.098041754476895"><ele>272.0</ele><time>2026-04-12T08:59:52Z</time></trkpt><trkpt lat="42.9850311800518" lon="12.098190985241663"><ele>273.0</ele><time>2026-04-12T08:59:53Z</time></trkpt><trkpt lat="42.98518939173398" lon="12.09834939503899"><ele>274.0</ele><time>2026-04-12T08:59:54Z</time></trkpt><trkpt lat="42.98532737723075" lon="12.09852240933266"><ele>271.66666666666663</ele><time>2026-04-12T08:59:55Z</time></trkpt><trkpt lat="42.985457104476104" lon="12.098720837020515"><ele>269.3333333333333</ele><time>2026-04-12T08:59:56Z</time></trkpt><trkpt lat="42.985581783008115" lon="12.098934864745917"><ele>267.0</ele><time>2026-04-12T08:59:57Z</time></trkpt><trkpt lat="42.98570263824439" lon="12.099154149427228"><ele>267.0</ele><time>2026-04-12T08:59:58Z</time></trkpt><trkpt lat="42.98581212964302" lon="12.099373668446493"><ele>267.0</ele><time>2026-04-12T08:59:59Z</time></trkpt><trkpt lat="42.98592173803068" lon="12.099588556660247"><ele>267.0</ele><time>2026-04-12T09:00:00Z</time></trkpt><trkpt lat="42.98604981149798" lon="12.099785979353598"><ele>265.3333333333333</ele><time>2026-04-12T09:00:01Z</time></trkpt><trkpt lat="42.98619785767886" lon="12.099963841583204"><ele>263.66666666666663</ele><time>2026-04-12T09:00:02Z</time></trkpt><trkpt lat="42.98636396978625" lon="12.100123881746388"><ele>262.0</ele><time>2026-04-12T09:00:03Z</time></trkpt><trkpt lat="42.98654411323594" lon="12.10025849338062"><ele>260.66666666666663</ele><time>2026-04-12T09:00:04Z</time></trkpt><trkpt lat="42.98673272582872" lon="12.100388939688125"><ele>259.3333333333333</ele><time>2026-04-12T09:00:05Z</time></trkpt><trkpt lat="42.986912389454844" lon="12.10055092833095"><ele>258.0</ele><time>2026-04-12T09:00:06Z</time></trkpt><trkpt lat="42.98710729701518" lon="12.100679826559507"><ele>257.6666666666667</ele><time>2026-04-12T09:00:07Z</time></trkpt><trkpt lat="42.98729656361016" lon="12.100832034609907"><ele>257.33333333333337</ele><time>2026-04-12T09:00:08Z</time></trkpt><trkpt lat="42.98748614979288" lon="12.100984101206556"><ele>257.0</ele><time>2026-04-12T09:00:09Z</time></trkpt><trkpt lat="42.98767095352233" lon="12.101130346534894"><ele>257.0</ele><time>2026-04-12T09:00:10Z</time></trkpt><trkpt lat="42.98784256481276" lon="12.101273087331458"><ele>257.0</ele><time>2026-04-12T09:00:11.001Z</time></trkpt><trkpt lat="42.98799442194516" lon="12.101419738754727"><ele>257.0</ele><time>2026-04-12T09:00:12.001Z</time></trkpt><trkpt lat="42.98813548572935" lon="12.101601713154233"><ele>256.33333333333337</ele><time>2026-04-12T09:00:13.001Z</time></trkpt><trkpt lat="42.98826258459886" lon="12.101812776593581"><ele>255.66666666666669</ele><time>2026-04-12T09:00:14.001Z</time></trkpt><trkpt lat="42.98838062285772" lon="12.102047814621995"><ele>255.0</ele><time>2026-04-12T09:00:15.001Z</time></trkpt><trkpt lat="42.988464999775914" lon="12.102317532668373"><ele>255.66666666666669</ele><time>2026-04-12T09:00:16.001Z</time></trkpt><trkpt lat="42.98855910472203" lon="12.102585528605495"><ele>256.33333333333337</ele><time>2026-04-12T09:00:17.001Z</time></trkpt><trkpt lat="42.988664905289745" lon="12.10284850722333"><ele>257.0</ele><time>2026-04-12T09:00:18.001Z</time></trkpt><trkpt lat="42.98875953646654" lon="12.103128245039123"><ele>255.5</ele><time>2026-04-12T09:00:19.001Z</time></trkpt><trkpt lat="42.98885784949928" lon="12.103410732278114"><ele>254.0</ele><time>2026-04-12T09:00:20.001Z</time></trkpt><trkpt lat="42.98895914678916" lon="12.103693699885588"><ele>254.0</ele><time>2026-04-12T09:00:21.001Z</time></trkpt><trkpt lat="42.989060500517134" lon="12.103974878578184"><ele>254.0</ele><time>2026-04-12T09:00:22.001Z</time></trkpt><trkpt lat="42.98916171488314" lon="12.104258731836659"><ele>253.5</ele><time>2026-04-12T09:00:23.001Z</time></trkpt><trkpt lat="42.989265276315564" lon="12.104546962588708"><ele>253.0</ele><time>2026-04-12T09:00:24.001Z</time></trkpt><trkpt lat="42.9893675884609" lon="12.104831017636668"><ele>253.5</ele><time>2026-04-12T09:00:25.001Z</time></trkpt><trkpt lat="42.98946896722737" lon="12.105116801164307"><ele>254.0</ele><time>2026-04-12T09:00:26.001Z</time></trkpt><trkpt lat="42.98956872119318" lon="12.105402935604108"><ele>254.0</ele><time>2026-04-12T09:00:27.001Z</time></trkpt><trkpt lat="42.98967260915523" lon="12.105690926808919"><ele>254.0</ele><time>2026-04-12T09:00:28.001Z</time></trkpt><trkpt lat="42.98977977415679" lon="12.105977179580632"><ele>253.0</ele><time>2026-04-12T09:00:29.001Z</time></trkpt><trkpt lat="42.989880318188334" lon="12.106262956105772"><ele>252.0</ele><time>2026-04-12T09:00:30.001Z</time></trkpt><trkpt lat="42.98998138982817" lon="12.106554939183406"><ele>253.0</ele><time>2026-04-12T09:00:31.001Z</time></trkpt><trkpt lat="42.99008516082772" lon="12.106844003219338"><ele>254.0</ele><time>2026-04-12T09:00:32.001Z</time></trkpt><trkpt lat="42.99019119450591" lon="12.107136626611034"><ele>252.5</ele><time>2026-04-12T09:00:33.001Z</time></trkpt><trkpt lat="42.99029678651916" lon="12.107428178312988"><ele>251.0</ele><time>2026-04-12T09:00:34.001Z</time></trkpt><trkpt lat="42.9904042783577" lon="12.107718067168106"><ele>251.0</ele><time>2026-04-12T09:00:35.001Z</time></trkpt><trkpt lat="42.990509986642984" lon="12.108012589887906"><ele>251.0</ele><time>2026-04-12T09:00:36.001Z</time></trkpt><trkpt lat="42.99061394874253" lon="12.108308460617438"><ele>251.0</ele><time>2026-04-12T09:00:37.001Z</time></trkpt><trkpt lat="42.99071943352177" lon="12.108602640658132"><ele>251.0</ele><time>2026-04-12T09:00:38.001Z</time></trkpt><trkpt lat="42.990829122070195" lon="12.108893506606565"><ele>249.5</ele><time>2026-04-12T09:00:39.001Z</time></trkpt><trkpt lat="42.990937511126674" lon="12.10918846749407"><ele>248.0</ele><time>2026-04-12T09:00:40.001Z</time></trkpt><trkpt lat="42.99104345654013" lon="12.109486278463766"><ele>248.0</ele><time>2026-04-12T09:00:41.001Z</time></trkpt><trkpt lat="42.99114844858911" lon="12.109779715171276"><ele>248.0</ele><time>2026-04-12T09:00:42.001Z</time></trkpt><trkpt lat="42.9912509078972" lon="12.11007611151656"><ele>247.0</ele><time>2026-04-12T09:00:43.001Z</time></trkpt><trkpt lat="42.991345579944294" lon="12.11036783645957"><ele>246.0</ele><time>2026-04-12T09:00:44.001Z</time></trkpt><trkpt lat="42.99143820206518" lon="12.11066377614029"><ele>245.0</ele><time>2026-04-12T09:00:45.001Z</time></trkpt><trkpt lat="42.99151883166015" lon="12.110965743378678"><ele>244.0</ele><time>2026-04-12T09:00:46.001Z</time></trkpt><trkpt lat="42.991579776934564" lon="12.111271949738402"><ele>244.0</ele><time>2026-04-12T09:00:47.001Z</time></trkpt><trkpt lat="42.99162106206086" lon="12.111560197929233"><ele>244.0</ele><time>2026-04-12T09:00:48.001Z</time></trkpt><trkpt lat="42.9916470154487" lon="12.111824946004761"><ele>244.0</ele><time>2026-04-12T09:00:49.001Z</time></trkpt><trkpt lat="42.99166620248462" lon="12.112075935684897"><ele>244.0</ele><time>2026-04-12T09:00:50.001Z</time></trkpt><trkpt lat="42.99168256047708" lon="12.112312595575832"><ele>244.0</ele><time>2026-04-12T09:00:51.001Z</time></trkpt><trkpt lat="42.99170087964934" lon="12.112524158060443"><ele>244.0</ele><time>2026-04-12T09:00:52.001Z</time></trkpt><trkpt lat="42.99171475760253" lon="12.112720628384782"><ele>244.0</ele><time>2026-04-12T09:00:53.001Z</time></trkpt><trkpt lat="42.99172466431406" lon="12.11290421606667"><ele>244.0</ele><time>2026-04-12T09:00:54.001Z</time></trkpt><trkpt lat="42.9917199979039" lon="12.113080988567644"><ele>244.0</ele><time>2026-04-12T09:00:55.001Z</time></trkpt><trkpt lat="42.99169045503535" lon="12.11324690273605"><ele>244.0</ele><time>2026-04-12T09:00:56.001Z</time></trkpt><trkpt lat="42.99163540328759" lon="12.113406059883618"><ele>244.0</ele><time>2026-04-12T09:00:57.001Z</time></trkpt><trkpt lat="42.99156473144041" lon="12.11354774840254"><ele>243.99999999999997</ele><time>2026-04-12T09:00:58.001Z</time></trkpt><trkpt lat="42.991528553543084" lon="12.113690837012815"><ele>243.99999999999997</ele><time>2026-04-12T09:00:59.001Z</time></trkpt><trkpt lat="42.991528098914145" lon="12.113838046902298"><ele>244.0</ele><time>2026-04-12T09:01:00.001Z</time></trkpt><trkpt lat="42.99156647902074" lon="12.113969750532966"><ele>244.0</ele><time>2026-04-12T09:01:01.001Z</time></trkpt><trkpt lat="42.991632838046044" lon="12.114082451389084"><ele>243.79999999999998</ele><time>2026-04-12T09:01:02.001Z</time></trkpt><trkpt lat="42.99172235716361" lon="12.114151034824603"><ele>243.59999999999997</ele><time>2026-04-12T09:01:03.001Z</time></trkpt><trkpt lat="42.991815846736976" lon="12.114172315930812"><ele>243.4</ele><time>2026-04-12T09:01:04.001Z</time></trkpt><trkpt lat="42.99190888654339" lon="12.11414816556123"><ele>243.2</ele><time>2026-04-12T09:01:05.001Z</time></trkpt><trkpt lat="42.991994300894845" lon="12.114082001435664"><ele>243.0</ele><time>2026-04-12T09:01:06.001Z</time></trkpt><trkpt lat="42.992061326049516" lon="12.113987627194062"><ele>243.0</ele><time>2026-04-12T09:01:07.001Z</time></trkpt><trkpt lat="42.99211838803447" lon="12.113884221257617"><ele>243.0</ele><time>2026-04-12T09:01:08.001Z</time></trkpt><trkpt lat="42.99214663616172" lon="12.113770565186812"><ele>243.0</ele><time>2026-04-12T09:01:09.001Z</time></trkpt><trkpt lat="42.99223790654838" lon="12.11371162752479"><ele>243.0</ele><time>2026-04-12T09:01:10.001Z</time></trkpt><trkpt lat="42.99232127259209" lon="12.113678425262966"><ele>243.0</ele><time>2026-04-12T09:01:11.001Z</time></trkpt><trkpt lat="42.99240931598303" lon="12.113689109820998"><ele>243.0</ele><time>2026-04-12T09:01:12.001Z</time></trkpt><trkpt lat="42.99248732706681" lon="12.113745191128318"><ele>243.0</ele><time>2026-04-12T09:01:13.001Z</time></trkpt><trkpt lat="42.99254713963049" lon="12.113845406362056"><ele>243.0</ele><time>2026-04-12T09:01:14.001Z</time></trkpt><trkpt lat="42.99258199437382" lon="12.11398770431455"><ele>243.0</ele><time>2026-04-12T09:01:15.001Z</time></trkpt><trkpt lat="42.992607689737476" lon="12.114164901436945"><ele>243.0</ele><time>2026-04-12T09:01:16Z</time></trkpt><trkpt lat="42.99264179307172" lon="12.11435498140894"><ele>243.66666666666669</ele><time>2026-04-12T09:01:17Z</time></trkpt><trkpt lat="42.99268349952629" lon="12.114559106437046"><ele>244.33333333333334</ele><time>2026-04-12T09:01:18Z</time></trkpt><trkpt lat="42.992731505813744" lon="12.114786114579934"><ele>245.0</ele><time>2026-04-12T09:01:19Z</time></trkpt><trkpt lat="42.99278167855228" lon="12.11501101058587"><ele>245.0</ele><time>2026-04-12T09:01:20Z</time></trkpt><trkpt lat="42.99283874818509" lon="12.115248332146622"><ele>245.0</ele><time>2026-04-12T09:01:21Z</time></trkpt><trkpt lat="42.992901988014474" lon="12.115501612450105"><ele>245.0</ele><time>2026-04-12T09:01:22Z</time></trkpt><trkpt lat="42.992955359716525" lon="12.115772427171045"><ele>245.33333333333334</ele><time>2026-04-12T09:01:23Z</time></trkpt><trkpt lat="42.99301996844865" lon="12.116044302523898"><ele>245.66666666666669</ele><time>2026-04-12T09:01:24Z</time></trkpt><trkpt lat="42.99308914494318" lon="12.116315133545077"><ele>246.0</ele><time>2026-04-12T09:01:25Z</time></trkpt><trkpt lat="42.9932804119356" lon="12.116520818213035"><ele>246.0</ele><time>2026-04-12T09:01:26Z</time></trkpt><trkpt lat="42.99337576496124" lon="12.116737532458773"><ele>246.0</ele><time>2026-04-12T09:01:27Z</time></trkpt><trkpt lat="42.993459898451384" lon="12.116932207749555"><ele>246.0</ele><time>2026-04-12T09:01:28Z</time></trkpt><trkpt lat="42.993546527923506" lon="12.117127752673436"><ele>246.0</ele><time>2026-04-12T09:01:29Z</time></trkpt><trkpt lat="42.993639493692285" lon="12.117336482642902"><ele>246.0</ele><time>2026-04-12T09:01:30Z</time></trkpt><trkpt lat="42.9937360730204" lon="12.117549069748634"><ele>246.0</ele><time>2026-04-12T09:01:31Z</time></trkpt><trkpt lat="42.99383573533291" lon="12.11776385129715"><ele>245.33333333333331</ele><time>2026-04-12T09:01:32Z</time></trkpt><trkpt lat="42.99393639364988" lon="12.117979683903904"><ele>244.66666666666666</ele><time>2026-04-12T09:01:33Z</time></trkpt><trkpt lat="42.99403325334301" lon="12.118201401259562"><ele>244.0</ele><time>2026-04-12T09:01:34Z</time></trkpt><trkpt lat="42.99412808268669" lon="12.118414621252507"><ele>244.0</ele><time>2026-04-12T09:01:35Z</time></trkpt><trkpt lat="42.99422754964698" lon="12.118626176510434"><ele>244.0</ele><time>2026-04-12T09:01:36Z</time></trkpt><trkpt lat="42.994330443768476" lon="12.118829883255477"><ele>244.0</ele><time>2026-04-12T09:01:37Z</time></trkpt><trkpt lat="42.99444098230058" lon="12.11903105491997"><ele>243.66666666666666</ele><time>2026-04-12T09:01:38Z</time></trkpt><trkpt lat="42.994559229526175" lon="12.119229344325534"><ele>243.33333333333331</ele><time>2026-04-12T09:01:39Z</time></trkpt><trkpt lat="42.99469067056069" lon="12.119421328374608"><ele>243.0</ele><time>2026-04-12T09:01:40Z</time></trkpt><trkpt lat="42.99483012288171" lon="12.119615822541608"><ele>243.0</ele><time>2026-04-12T09:01:41Z</time></trkpt><trkpt lat="42.99497494257836" lon="12.11981102726493"><ele>243.0</ele><time>2026-04-12T09:01:42Z</time></trkpt><trkpt lat="42.99512120845461" lon="12.120006716920017"><ele>243.0</ele><time>2026-04-12T09:01:43Z</time></trkpt><trkpt lat="42.99525880606749" lon="12.12020934628585"><ele>243.33333333333331</ele><time>2026-04-12T09:01:44Z</time></trkpt><trkpt lat="42.995391102104726" lon="12.120421666862988"><ele>243.66666666666666</ele><time>2026-04-12T09:01:45Z</time></trkpt><trkpt lat="42.99550988104335" lon="12.120646783822579"><ele>244.0</ele><time>2026-04-12T09:01:46Z</time></trkpt><trkpt lat="42.99562274378361" lon="12.120884767162474"><ele>243.33333333333331</ele><time>2026-04-12T09:01:47Z</time></trkpt><trkpt lat="42.995725715513416" lon="12.121129705151384"><ele>242.66666666666669</ele><time>2026-04-12T09:01:48Z</time></trkpt><trkpt lat="42.99582604556338" lon="12.121380422926892"><ele>242.0</ele><time>2026-04-12T09:01:49Z</time></trkpt><trkpt lat="42.9959248357563" lon="12.12162526562"><ele>241.66666666666669</ele><time>2026-04-12T09:01:50Z</time></trkpt><trkpt lat="42.99602988113557" lon="12.121869971292739"><ele>241.33333333333331</ele><time>2026-04-12T09:01:51Z</time></trkpt><trkpt lat="42.9961476619912" lon="12.122104721366075"><ele>241.0</ele><time>2026-04-12T09:01:52Z</time></trkpt><trkpt lat="42.996277622335164" lon="12.122327690287486"><ele>240.66666666666666</ele><time>2026-04-12T09:01:53Z</time></trkpt><trkpt lat="42.99641951892823" lon="12.122536832776959"><ele>240.33333333333331</ele><time>2026-04-12T09:01:54Z</time></trkpt><trkpt lat="42.99657162830447" lon="12.122732028596875"><ele>240.0</ele><time>2026-04-12T09:01:55Z</time></trkpt><trkpt lat="42.99673472484687" lon="12.12290780873605"><ele>240.0</ele><time>2026-04-12T09:01:56Z</time></trkpt><trkpt lat="42.9969094862174" lon="12.123065481502607"><ele>240.0</ele><time>2026-04-12T09:01:57.001Z</time></trkpt><trkpt lat="42.99708963885635" lon="12.123210634786053"><ele>240.0</ele><time>2026-04-12T09:01:58.001Z</time></trkpt><trkpt lat="42.99727253686196" lon="12.123350511900037"><ele>239.66666666666669</ele><time>2026-04-12T09:01:59.001Z</time></trkpt><trkpt lat="42.997454305878364" lon="12.123496854974533"><ele>239.33333333333334</ele><time>2026-04-12T09:02:00.001Z</time></trkpt><trkpt lat="42.99763260733148" lon="12.123643473021312"><ele>239.0</ele><time>2026-04-12T09:02:01.001Z</time></trkpt><trkpt lat="42.99779945066032" lon="12.123782548570759"><ele>239.33333333333334</ele><time>2026-04-12T09:02:02.001Z</time></trkpt><trkpt lat="42.997956556202205" lon="12.123908542520821"><ele>239.66666666666669</ele><time>2026-04-12T09:02:03.001Z</time></trkpt><trkpt lat="42.99810009294498" lon="12.124024580240931"><ele>240.0</ele><time>2026-04-12T09:02:04.001Z</time></trkpt><trkpt lat="42.998232281162736" lon="12.124136624063492"><ele>241.25</ele><time>2026-04-12T09:02:05.001Z</time></trkpt><trkpt lat="42.99835483593922" lon="12.124254077784235"><ele>242.5</ele><time>2026-04-12T09:02:06.001Z</time></trkpt><trkpt lat="42.998464719753244" lon="12.124376926877032"><ele>243.75</ele><time>2026-04-12T09:02:07.001Z</time></trkpt><trkpt lat="42.99856502112815" lon="12.124516475510593"><ele>245.0</ele><time>2026-04-12T09:02:08.001Z</time></trkpt><trkpt lat="42.99865400336133" lon="12.124660699640765"><ele>245.0</ele><time>2026-04-12T09:02:09.001Z</time></trkpt><trkpt lat="42.998727908262524" lon="12.124805625318878"><ele>245.0</ele><time>2026-04-12T09:02:10.001Z</time></trkpt><trkpt lat="42.998777932036546" lon="12.124936879996499"><ele>245.0</ele><time>2026-04-12T09:02:11.001Z</time></trkpt><trkpt lat="42.9988146170307" lon="12.125050698893192"><ele>245.0</ele><time>2026-04-12T09:02:12.001Z</time></trkpt><trkpt lat="42.998837177648724" lon="12.12513839888782"><ele>245.0</ele><time>2026-04-12T09:02:13.001Z</time></trkpt><trkpt lat="42.998828195841305" lon="12.125227556063672"><ele>245.0</ele><time>2026-04-12T09:02:15.001Z</time></trkpt><trkpt lat="42.998864314519395" lon="12.125301036229805"><ele>245.0</ele><time>2026-04-12T09:03:15.001Z</time></trkpt><trkpt lat="42.99887425475337" lon="12.125215165454051"><ele>245.0</ele><time>2026-04-12T09:03:19.001Z</time></trkpt><trkpt lat="42.998886196730965" lon="12.12508190010005"><ele>245.0</ele><time>2026-04-12T09:03:20.001Z</time></trkpt><trkpt lat="42.99876910844141" lon="12.124834394103639"><ele>245.0</ele><time>2026-04-12T09:03:21.001Z</time></trkpt><trkpt lat="42.99874101703487" lon="12.124694305023251"><ele>245.00000000000003</ele><time>2026-04-12T09:03:22Z</time></trkpt><trkpt lat="42.99873360074672" lon="12.124577915407968"><ele>245.0</ele><time>2026-04-12T09:03:23Z</time></trkpt><trkpt lat="42.99875237863119" lon="12.124464298285739"><ele>245.0</ele><time>2026-04-12T09:03:24Z</time></trkpt><trkpt lat="42.99879175646642" lon="12.12436665793159"><ele>245.0</ele><time>2026-04-12T09:03:25Z</time></trkpt><trkpt lat="42.998844967349214" lon="12.124299645251995"><ele>245.00000000000003</ele><time>2026-04-12T09:03:26Z</time></trkpt><trkpt lat="42.99892558456736" lon="12.124256569437147"><ele>245.0</ele><time>2026-04-12T09:03:27Z</time></trkpt><trkpt lat="42.99902381690902" lon="12.124216193829023"><ele>245.0</ele><time>2026-04-12T09:03:28Z</time></trkpt><trkpt lat="42.99912000694177" lon="12.124161339898238"><ele>245.0</ele><time>2026-04-12T09:03:29Z</time></trkpt><trkpt lat="42.999205753103155" lon="12.124086685751333"><ele>245.0</ele><time>2026-04-12T09:03:30Z</time></trkpt><trkpt lat="42.999257804417574" lon="12.123981998245974"><ele>245.0</ele><time>2026-04-12T09:03:31Z</time></trkpt><trkpt lat="42.999277671486404" lon="12.123843423424104"><ele>245.0</ele><time>2026-04-12T09:03:32Z</time></trkpt><trkpt lat="42.999272758203404" lon="12.123669304126834"><ele>250.0</ele><time>2026-04-12T09:03:33Z</time></trkpt><trkpt lat="42.999258489195775" lon="12.123466550541824"><ele>255.0</ele><time>2026-04-12T09:03:34Z</time></trkpt><trkpt lat="42.99925439711911" lon="12.123228542007359"><ele>260.0</ele><time>2026-04-12T09:03:35Z</time></trkpt><trkpt lat="42.999237056485846" lon="12.122947124122096"><ele>261.33333333333337</ele><time>2026-04-12T09:03:36Z</time></trkpt><trkpt lat="42.999218045258296" lon="12.122646830873885"><ele>262.6666666666667</ele><time>2026-04-12T09:03:37Z</time></trkpt><trkpt lat="42.999182245726345" lon="12.122349059664584"><ele>264.0</ele><time>2026-04-12T09:03:38Z</time></trkpt><trkpt lat="42.99916252944022" lon="12.1220469390684"><ele>257.5</ele><time>2026-04-12T09:03:39Z</time></trkpt><trkpt lat="42.99914259161736" lon="12.121740888418444"><ele>251.0</ele><time>2026-04-12T09:03:40Z</time></trkpt><trkpt lat="42.99912434200822" lon="12.121420146555483"><ele>251.0</ele><time>2026-04-12T09:03:41Z</time></trkpt><trkpt lat="42.99911024978678" lon="12.121109718425545"><ele>251.0</ele><time>2026-04-12T09:03:42Z</time></trkpt><trkpt lat="42.99911033550564" lon="12.120835659574613"><ele>251.0</ele><time>2026-04-12T09:03:43Z</time></trkpt><trkpt lat="42.99914983948568" lon="12.12058925649072"><ele>254.33333333333334</ele><time>2026-04-12T09:03:44Z</time></trkpt><trkpt lat="42.99918566299106" lon="12.120339482005244"><ele>257.6666666666667</ele><time>2026-04-12T09:03:45Z</time></trkpt><trkpt lat="42.99923846143553" lon="12.120074800934233"><ele>261.0</ele><time>2026-04-12T09:03:46Z</time></trkpt><trkpt lat="42.99929630129538" lon="12.119800104529121"><ele>261.0</ele><time>2026-04-12T09:03:47Z</time></trkpt><trkpt lat="42.99934390194442" lon="12.119513120091167"><ele>261.0</ele><time>2026-04-12T09:03:48Z</time></trkpt><trkpt lat="42.99938973134493" lon="12.119219426663394"><ele>261.0</ele><time>2026-04-12T09:03:49Z</time></trkpt><trkpt lat="42.99941655957235" lon="12.11891018444612"><ele>258.0</ele><time>2026-04-12T09:03:50Z</time></trkpt><trkpt lat="42.999421540845105" lon="12.118593159116031"><ele>255.0</ele><time>2026-04-12T09:03:51Z</time></trkpt><trkpt lat="42.999414844571035" lon="12.118262707299154"><ele>257.0</ele><time>2026-04-12T09:03:52Z</time></trkpt><trkpt lat="42.99942852063842" lon="12.117934331851176"><ele>259.0</ele><time>2026-04-12T09:03:53Z</time></trkpt><trkpt lat="42.99942506467786" lon="12.117602566994846"><ele>261.5</ele><time>2026-04-12T09:03:54Z</time></trkpt><trkpt lat="42.99942410839602" lon="12.117273095655554"><ele>264.0</ele><time>2026-04-12T09:03:55Z</time></trkpt><trkpt lat="42.999424650370585" lon="12.116948125870364"><ele>264.0</ele><time>2026-04-12T09:03:56Z</time></trkpt><trkpt lat="42.99942126780541" lon="12.11664792310096"><ele>264.0</ele><time>2026-04-12T09:03:57Z</time></trkpt><trkpt lat="42.99941755500392" lon="12.116393301011248"><ele>264.0</ele><time>2026-04-12T09:03:58Z</time></trkpt><trkpt lat="42.999416415263255" lon="12.116178700884346"><ele>263.6666666666667</ele><time>2026-04-12T09:03:59Z</time></trkpt><trkpt lat="42.99941733551007" lon="12.11597014348518"><ele>263.33333333333337</ele><time>2026-04-12T09:04:00Z</time></trkpt><trkpt lat="42.99941949970906" lon="12.115746735779464"><ele>263.0</ele><time>2026-04-12T09:04:01Z</time></trkpt><trkpt lat="42.999425422178525" lon="12.115499249877"><ele>260.6666666666667</ele><time>2026-04-12T09:04:02Z</time></trkpt><trkpt lat="42.99943733522148" lon="12.115242871530544"><ele>258.3333333333333</ele><time>2026-04-12T09:04:03Z</time></trkpt><trkpt lat="42.99945583031832" lon="12.114985291865333"><ele>256.0</ele><time>2026-04-12T09:04:04Z</time></trkpt><trkpt lat="42.99946446183284" lon="12.114712234082212"><ele>256.0</ele><time>2026-04-12T09:04:05Z</time></trkpt><trkpt lat="42.99952188700445" lon="12.114437082693378"><ele>256.0</ele><time>2026-04-12T09:04:06Z</time></trkpt><trkpt lat="42.999565785753795" lon="12.114155077287688"><ele>256.0</ele><time>2026-04-12T09:04:07Z</time></trkpt><trkpt lat="42.99958777336392" lon="12.113902253935587"><ele>256.0</ele><time>2026-04-12T09:04:08Z</time></trkpt><trkpt lat="42.99962421602287" lon="12.113704312849759"><ele>256.0</ele><time>2026-04-12T09:04:09Z</time></trkpt><trkpt lat="42.99969102985442" lon="12.11355668744261"><ele>256.0</ele><time>2026-04-12T09:04:10Z</time></trkpt><trkpt lat="42.999748400368226" lon="12.1133985323339"><ele>256.0</ele><time>2026-04-12T09:04:11Z</time></trkpt><trkpt lat="42.999883338670685" lon="12.113307766460725"><ele>255.33333333333331</ele><time>2026-04-12T09:04:12Z</time></trkpt><trkpt lat="43.00002868392819" lon="12.113189773445221"><ele>254.66666666666669</ele><time>2026-04-12T09:04:13Z</time></trkpt><trkpt lat="43.00018268410289" lon="12.113057347204387"><ele>254.0</ele><time>2026-04-12T09:04:14Z</time></trkpt><trkpt lat="43.00033139772582" lon="12.112955953551948"><ele>254.0</ele><time>2026-04-12T09:04:15Z</time></trkpt><trkpt lat="43.00045002393519" lon="12.112868646275164"><ele>253.99999999999997</ele><time>2026-04-12T09:04:16Z</time></trkpt><trkpt lat="43.00054181059345" lon="12.112822226526221"><ele>253.99999999999997</ele><time>2026-04-12T09:04:17Z</time></trkpt><trkpt lat="43.000606639822465" lon="12.112851783554206"><ele>254.0</ele><time>2026-04-12T09:04:18Z</time></trkpt><trkpt lat="43.00064394105371" lon="12.112951486109347"><ele>254.0</ele><time>2026-04-12T09:04:19Z</time></trkpt><trkpt lat="43.000652972288464" lon="12.11309763179321"><ele>254.5</ele><time>2026-04-12T09:04:20Z</time></trkpt><trkpt lat="43.000648689495165" lon="12.11327106964643"><ele>255.0</ele><time>2026-04-12T09:04:21Z</time></trkpt><trkpt lat="43.000667277509784" lon="12.113438955318149"><ele>255.5</ele><time>2026-04-12T09:04:22Z</time></trkpt><trkpt lat="43.00071947278318" lon="12.113571984410658"><ele>256.0</ele><time>2026-04-12T09:04:23Z</time></trkpt><trkpt lat="43.00079666586592" lon="12.113662474438067"><ele>258.2</ele><time>2026-04-12T09:04:24Z</time></trkpt><trkpt lat="43.00087970523802" lon="12.113697987002347"><ele>260.40000000000003</ele><time>2026-04-12T09:04:25Z</time></trkpt><trkpt lat="43.00096146033074" lon="12.113669477515652"><ele>262.6</ele><time>2026-04-12T09:04:26Z</time></trkpt><trkpt lat="43.001034698239174" lon="12.113579100740049"><ele>264.8</ele><time>2026-04-12T09:04:27Z</time></trkpt><trkpt lat="43.001085862074056" lon="12.113426063931257"><ele>267.0</ele><time>2026-04-12T09:04:28Z</time></trkpt><trkpt lat="43.00111505294196" lon="12.113244857129457"><ele>267.6666666666667</ele><time>2026-04-12T09:04:29Z</time></trkpt><trkpt lat="43.00117905713174" lon="12.11303364750858"><ele>268.33333333333337</ele><time>2026-04-12T09:04:30Z</time></trkpt><trkpt lat="43.0012424649253" lon="12.11279762170773"><ele>269.0</ele><time>2026-04-12T09:04:31Z</time></trkpt><trkpt lat="43.001294997722816" lon="12.112568531956283"><ele>268.75</ele><time>2026-04-12T09:04:32Z</time></trkpt><trkpt lat="43.00128965585963" lon="12.112349372530282"><ele>268.5</ele><time>2026-04-12T09:04:33Z</time></trkpt><trkpt lat="43.00128403686852" lon="12.112172282167185"><ele>268.25</ele><time>2026-04-12T09:04:34Z</time></trkpt><trkpt lat="43.0013210103779" lon="12.112018180165597"><ele>268.0</ele><time>2026-04-12T09:04:35Z</time></trkpt><trkpt lat="43.00136696318048" lon="12.111917403260401"><ele>268.0</ele><time>2026-04-12T09:04:36.001Z</time></trkpt><trkpt lat="43.00149759227204" lon="12.111851102643799"><ele>268.0</ele><time>2026-04-12T09:04:37.001Z</time></trkpt><trkpt lat="43.00164639650669" lon="12.111697220583716"><ele>268.0</ele><time>2026-04-12T09:04:38.001Z</time></trkpt><trkpt lat="43.00181334164091" lon="12.111572396604288"><ele>272.0</ele><time>2026-04-12T09:04:39.001Z</time></trkpt><trkpt lat="43.001962346495645" lon="12.111439106989328"><ele>276.0</ele><time>2026-04-12T09:04:40.001Z</time></trkpt><trkpt lat="43.00207699158315" lon="12.111295698882143"><ele>280.0</ele><time>2026-04-12T09:04:41.001Z</time></trkpt><trkpt lat="43.00214985266587" lon="12.111116116924862"><ele>280.0</ele><time>2026-04-12T09:04:42.001Z</time></trkpt><trkpt lat="43.00224339127902" lon="12.110928430555326"><ele>280.0</ele><time>2026-04-12T09:04:43.001Z</time></trkpt><trkpt lat="43.00232267148269" lon="12.11080870575216"><ele>280.0</ele><time>2026-04-12T09:04:44.001Z</time></trkpt><trkpt lat="43.00242262114318" lon="12.110753762250647"><ele>280.0</ele><time>2026-04-12T09:04:45.001Z</time></trkpt><trkpt lat="43.002564581492784" lon="12.110718028129622"><ele>280.75</ele><time>2026-04-12T09:04:46.001Z</time></trkpt><trkpt lat="43.00272162517585" lon="12.110724419011067"><ele>281.5</ele><time>2026-04-12T09:04:47.001Z</time></trkpt><trkpt lat="43.00285643629519" lon="12.110684661812828"><ele>282.25</ele><time>2026-04-12T09:04:48.001Z</time></trkpt><trkpt lat="43.00299114832834" lon="12.110604010450947"><ele>283.0</ele><time>2026-04-12T09:04:49.001Z</time></trkpt><trkpt lat="43.003155390800636" lon="12.110476760785366"><ele>283.0</ele><time>2026-04-12T09:04:50.001Z</time></trkpt><trkpt lat="43.00330722150544" lon="12.110312097582044"><ele>283.0</ele><time>2026-04-12T09:04:51.001Z</time></trkpt><trkpt lat="43.003445614412826" lon="12.110113912954887"><ele>283.0</ele><time>2026-04-12T09:04:52.001Z</time></trkpt><trkpt lat="43.003577455508164" lon="12.109887094523046"><ele>287.0</ele><time>2026-04-12T09:04:53.001Z</time></trkpt><trkpt lat="43.00372891834171" lon="12.109683637487242"><ele>291.0</ele><time>2026-04-12T09:04:54.001Z</time></trkpt><trkpt lat="43.00388217474378" lon="12.109484645840872"><ele>295.0</ele><time>2026-04-12T09:04:55.001Z</time></trkpt><trkpt lat="43.004049839338215" lon="12.109295257496"><ele>295.3333333333333</ele><time>2026-04-12T09:04:56.001Z</time></trkpt><trkpt lat="43.00420923285303" lon="12.109105382312922"><ele>295.6666666666667</ele><time>2026-04-12T09:04:57.001Z</time></trkpt><trkpt lat="43.004356890200626" lon="12.108942907315257"><ele>296.0</ele><time>2026-04-12T09:04:58.001Z</time></trkpt><trkpt lat="43.004504249996614" lon="12.108779545802708"><ele>296.0</ele><time>2026-04-12T09:04:59.001Z</time></trkpt><trkpt lat="43.004640835388564" lon="12.108617536664621"><ele>296.0</ele><time>2026-04-12T09:05:00.001Z</time></trkpt><trkpt lat="43.004771342983574" lon="12.108475849555933"><ele>296.0</ele><time>2026-04-12T09:05:01.001Z</time></trkpt><trkpt lat="43.00490270049187" lon="12.108349531610644"><ele>297.5</ele><time>2026-04-12T09:05:02.001Z</time></trkpt><trkpt lat="43.005026746903944" lon="12.108238333108343"><ele>299.0</ele><time>2026-04-12T09:05:03.001Z</time></trkpt><trkpt lat="43.00513880505797" lon="12.108127161940855"><ele>300.5</ele><time>2026-04-12T09:05:04.001Z</time></trkpt><trkpt lat="43.00522442693927" lon="12.107995162202396"><ele>302.0</ele><time>2026-04-12T09:05:05.001Z</time></trkpt><trkpt lat="43.00528414989027" lon="12.10781961860794"><ele>302.0</ele><time>2026-04-12T09:05:06.001Z</time></trkpt><trkpt lat="43.005316159877644" lon="12.107615254061436"><ele>302.0</ele><time>2026-04-12T09:05:07.001Z</time></trkpt><trkpt lat="43.00530672059254" lon="12.107384014279475"><ele>302.0</ele><time>2026-04-12T09:05:08.001Z</time></trkpt><trkpt lat="43.00528873032093" lon="12.10717334598097"><ele>302.0</ele><time>2026-04-12T09:05:09.001Z</time></trkpt><trkpt lat="43.005280752817015" lon="12.106952660230467"><ele>302.0</ele><time>2026-04-12T09:05:10.001Z</time></trkpt><trkpt lat="43.005277641476496" lon="12.106731070927696"><ele>302.0</ele><time>2026-04-12T09:05:11.001Z</time></trkpt><trkpt lat="43.00528390693054" lon="12.106494900280842"><ele>302.33333333333337</ele><time>2026-04-12T09:05:12.001Z</time></trkpt><trkpt lat="43.00529115624583" lon="12.106256107412612"><ele>302.6666666666667</ele><time>2026-04-12T09:05:13.001Z</time></trkpt><trkpt lat="43.00528713714672" lon="12.106013812994954"><ele>303.0</ele><time>2026-04-12T09:05:14.001Z</time></trkpt><trkpt lat="43.00529403297929" lon="12.105763514788793"><ele>304.6666666666667</ele><time>2026-04-12T09:05:15.001Z</time></trkpt><trkpt lat="43.00528456012583" lon="12.105514638683582"><ele>306.33333333333337</ele><time>2026-04-12T09:05:16.001Z</time></trkpt><trkpt lat="43.005292045809576" lon="12.10526713363083"><ele>308.0</ele><time>2026-04-12T09:05:17.001Z</time></trkpt><trkpt lat="43.00529193964989" lon="12.105020720727186"><ele>306.6666666666667</ele><time>2026-04-12T09:05:18.001Z</time></trkpt><trkpt lat="43.005300327642985" lon="12.10478143730962"><ele>305.3333333333333</ele><time>2026-04-12T09:05:19.001Z</time></trkpt><trkpt lat="43.00531790570699" lon="12.104541903048817"><ele>304.0</ele><time>2026-04-12T09:05:20.001Z</time></trkpt><trkpt lat="43.00535792671583" lon="12.104316172829362"><ele>304.0</ele><time>2026-04-12T09:05:21.001Z</time></trkpt><trkpt lat="43.00539115162351" lon="12.104086950038823"><ele>304.0</ele><time>2026-04-12T09:05:22.001Z</time></trkpt><trkpt lat="43.00544312225476" lon="12.103865909237513"><ele>304.0</ele><time>2026-04-12T09:05:23.001Z</time></trkpt><trkpt lat="43.00547297233854" lon="12.103636823560597"><ele>303.66666666666663</ele><time>2026-04-12T09:05:24.001Z</time></trkpt><trkpt lat="43.005478985260474" lon="12.103403093035764"><ele>303.3333333333333</ele><time>2026-04-12T09:05:25.001Z</time></trkpt><trkpt lat="43.005475909414606" lon="12.103161421185504"><ele>303.0</ele><time>2026-04-12T09:05:26.001Z</time></trkpt><trkpt lat="43.005461482500614" lon="12.102923152326989"><ele>305.6666666666667</ele><time>2026-04-12T09:05:27.001Z</time></trkpt><trkpt lat="43.005437668124124" lon="12.1026851247377"><ele>308.33333333333337</ele><time>2026-04-12T09:05:28Z</time></trkpt><trkpt lat="43.00540864296067" lon="12.102446520324664"><ele>311.0</ele><time>2026-04-12T09:05:29Z</time></trkpt><trkpt lat="43.005382788821535" lon="12.102228421357635"><ele>314.0</ele><time>2026-04-12T09:05:30Z</time></trkpt><trkpt lat="43.00539201173708" lon="12.102015839770338"><ele>317.0</ele><time>2026-04-12T09:05:31Z</time></trkpt><trkpt lat="43.00538760992781" lon="12.101801408866367"><ele>320.0</ele><time>2026-04-12T09:05:32Z</time></trkpt><trkpt lat="43.005359606672414" lon="12.101578198053305"><ele>322.6666666666667</ele><time>2026-04-12T09:05:33Z</time></trkpt><trkpt lat="43.005334052876535" lon="12.101348613941282"><ele>325.3333333333333</ele><time>2026-04-12T09:05:34Z</time></trkpt><trkpt lat="43.00528933903385" lon="12.101126137140657"><ele>328.0</ele><time>2026-04-12T09:05:35Z</time></trkpt><trkpt lat="43.00526952167352" lon="12.100903421207205"><ele>330.75</ele><time>2026-04-12T09:05:36Z</time></trkpt><trkpt lat="43.00524546541022" lon="12.100686007827353"><ele>333.5</ele><time>2026-04-12T09:05:37Z</time></trkpt><trkpt lat="43.005233128589985" lon="12.100489624678232"><ele>336.25</ele><time>2026-04-12T09:05:38Z</time></trkpt><trkpt lat="43.005224165644655" lon="12.100295098475526"><ele>339.0</ele><time>2026-04-12T09:05:39Z</time></trkpt><trkpt lat="43.005208846264125" lon="12.100121979659713"><ele>339.0</ele><time>2026-04-12T09:05:40Z</time></trkpt><trkpt lat="43.00523702851105" lon="12.099986648633019"><ele>339.0</ele><time>2026-04-12T09:05:41Z</time></trkpt><trkpt lat="43.00525390250744" lon="12.099874158829959"><ele>339.0</ele><time>2026-04-12T09:05:42Z</time></trkpt><trkpt lat="43.0052693683584" lon="12.099776208948306"><ele>339.0</ele><time>2026-04-12T09:05:43Z</time></trkpt><trkpt lat="43.00530715501361" lon="12.099675134513056"><ele>339.0</ele><time>2026-04-12T09:05:44Z</time></trkpt><trkpt lat="43.00539114092601" lon="12.099582147584309"><ele>339.0</ele><time>2026-04-12T09:05:45Z</time></trkpt><trkpt lat="43.00544474587451" lon="12.099438859004342"><ele>339.0</ele><time>2026-04-12T09:05:46Z</time></trkpt><trkpt lat="43.00550946429937" lon="12.099297816662585"><ele>339.0</ele><time>2026-04-12T09:05:47Z</time></trkpt><trkpt lat="43.005550106162744" lon="12.09915223309634"><ele>339.0</ele><time>2026-04-12T09:05:48Z</time></trkpt><trkpt lat="43.00558477682183" lon="12.099020295541123"><ele>339.79999999999995</ele><time>2026-04-12T09:05:49Z</time></trkpt><trkpt lat="43.00564432955042" lon="12.098901441877134"><ele>340.59999999999997</ele><time>2026-04-12T09:05:50Z</time></trkpt><trkpt lat="43.005696752667035" lon="12.098790280035335"><ele>341.4</ele><time>2026-04-12T09:05:51Z</time></trkpt><trkpt lat="43.005748984860496" lon="12.098697494274882"><ele>342.2</ele><time>2026-04-12T09:05:52Z</time></trkpt><trkpt lat="43.00581066772426" lon="12.098620870919508"><ele>343.0</ele><time>2026-04-12T09:05:53Z</time></trkpt><trkpt lat="43.00587714244204" lon="12.098542780884527"><ele>343.0</ele><time>2026-04-12T09:05:54Z</time></trkpt><trkpt lat="43.00597162905695" lon="12.098493085899973"><ele>343.0</ele><time>2026-04-12T09:05:55Z</time></trkpt><trkpt lat="43.0060817021704" lon="12.098430340594955"><ele>343.0</ele><time>2026-04-12T09:05:56Z</time></trkpt><trkpt lat="43.006205774817076" lon="12.098357658504732"><ele>343.0</ele><time>2026-04-12T09:05:57Z</time></trkpt><trkpt lat="43.00634294529494" lon="12.098283687128603"><ele>344.66666666666663</ele><time>2026-04-12T09:05:58Z</time></trkpt><trkpt lat="43.00648160382215" lon="12.09820573505768"><ele>346.3333333333333</ele><time>2026-04-12T09:05:59Z</time></trkpt><trkpt lat="43.00661196478432" lon="12.098093423963972"><ele>348.0</ele><time>2026-04-12T09:06:00Z</time></trkpt><trkpt lat="43.00673281435025" lon="12.097964384907701"><ele>348.0</ele><time>2026-04-12T09:06:01Z</time></trkpt><trkpt lat="43.00684528779786" lon="12.097825429906909"><ele>348.0</ele><time>2026-04-12T09:06:02Z</time></trkpt><trkpt lat="43.006951482407544" lon="12.097686530964932"><ele>348.0</ele><time>2026-04-12T09:06:03Z</time></trkpt><trkpt lat="43.00705428312972" lon="12.097553952713335"><ele>348.0</ele><time>2026-04-12T09:06:04Z</time></trkpt><trkpt lat="43.00714470554395" lon="12.09743843254948"><ele>348.0</ele><time>2026-04-12T09:06:05Z</time></trkpt><trkpt lat="43.00722361442265" lon="12.097345314608484"><ele>348.0</ele><time>2026-04-12T09:06:06Z</time></trkpt><trkpt lat="43.00731097909913" lon="12.097263100559745"><ele>348.0</ele><time>2026-04-12T09:06:07Z</time></trkpt><trkpt lat="43.00742147771835" lon="12.09719429781181"><ele>348.0</ele><time>2026-04-12T09:06:08Z</time></trkpt><trkpt lat="43.007550580340826" lon="12.097150525133037"><ele>350.5</ele><time>2026-04-12T09:06:09Z</time></trkpt><trkpt lat="43.00769204381261" lon="12.097131257388542"><ele>353.0</ele><time>2026-04-12T09:06:10Z</time></trkpt><trkpt lat="43.007832946464674" lon="12.097126233527081"><ele>355.5</ele><time>2026-04-12T09:06:11Z</time></trkpt><trkpt lat="43.00797305472447" lon="12.097114992882375"><ele>358.0</ele><time>2026-04-12T09:06:12Z</time></trkpt><trkpt lat="43.008109074265796" lon="12.097078738210305"><ele>358.0</ele><time>2026-04-12T09:06:13Z</time></trkpt><trkpt lat="43.00823655444751" lon="12.096998127442465"><ele>358.0</ele><time>2026-04-12T09:06:14Z</time></trkpt><trkpt lat="43.00835449308312" lon="12.096898019655027"><ele>358.0</ele><time>2026-04-12T09:06:15Z</time></trkpt><trkpt lat="43.00846875779528" lon="12.096791855424039"><ele>358.0</ele><time>2026-04-12T09:06:16Z</time></trkpt><trkpt lat="43.008585897049734" lon="12.096703061824083"><ele>357.25</ele><time>2026-04-12T09:06:17Z</time></trkpt><trkpt lat="43.00871536924882" lon="12.096622319586896"><ele>356.5</ele><time>2026-04-12T09:06:18Z</time></trkpt><trkpt lat="43.008853610488565" lon="12.096558051114519"><ele>355.75</ele><time>2026-04-12T09:06:19Z</time></trkpt><trkpt lat="43.00899300338574" lon="12.096514816785959"><ele>355.0</ele><time>2026-04-12T09:06:20Z</time></trkpt><trkpt lat="43.009129939290034" lon="12.096479466585482"><ele>357.75</ele><time>2026-04-12T09:06:21Z</time></trkpt><trkpt lat="43.00926107116236" lon="12.096444533997358"><ele>360.5</ele><time>2026-04-12T09:06:22Z</time></trkpt><trkpt lat="43.009374258521476" lon="12.096393278267604"><ele>363.25</ele><time>2026-04-12T09:06:23Z</time></trkpt><trkpt lat="43.00946834260473" lon="12.09632064873148"><ele>366.0</ele><time>2026-04-12T09:06:24.001Z</time></trkpt><trkpt lat="43.009544407482075" lon="12.096213875961551"><ele>366.0</ele><time>2026-04-12T09:06:25.001Z</time></trkpt><trkpt lat="43.00961564114011" lon="12.09608239961676"><ele>366.0</ele><time>2026-04-12T09:06:26.001Z</time></trkpt><trkpt lat="43.00966161341309" lon="12.095926743549535"><ele>366.0</ele><time>2026-04-12T09:06:27.001Z</time></trkpt><trkpt lat="43.00969128399129" lon="12.095794804189453"><ele>366.0</ele><time>2026-04-12T09:06:28.001Z</time></trkpt><trkpt lat="43.00974435693245" lon="12.09570524946418"><ele>366.0</ele><time>2026-04-12T09:06:29.001Z</time></trkpt><trkpt lat="43.009812040936474" lon="12.095679428375984"><ele>366.0</ele><time>2026-04-12T09:06:30.001Z</time></trkpt><trkpt lat="43.00988461459956" lon="12.095697025840229"><ele>366.0</ele><time>2026-04-12T09:06:31.001Z</time></trkpt><trkpt lat="43.00996730446239" lon="12.09576172255818"><ele>366.0</ele><time>2026-04-12T09:06:32.001Z</time></trkpt><trkpt lat="43.01006295618119" lon="12.095810706110221"><ele>366.0</ele><time>2026-04-12T09:06:33.001Z</time></trkpt><trkpt lat="43.01018164463065" lon="12.09579646521937"><ele>366.0</ele><time>2026-04-12T09:06:34.001Z</time></trkpt><trkpt lat="43.010321315524344" lon="12.09573771646972"><ele>366.3333333333333</ele><time>2026-04-12T09:06:35.001Z</time></trkpt><trkpt lat="43.01047289320014" lon="12.095687281437423"><ele>366.66666666666663</ele><time>2026-04-12T09:06:36.001Z</time></trkpt><trkpt lat="43.010627680729606" lon="12.095704090954392"><ele>367.0</ele><time>2026-04-12T09:06:37.001Z</time></trkpt><trkpt lat="43.01078092299277" lon="12.095788367236622"><ele>369.0</ele><time>2026-04-12T09:06:38.001Z</time></trkpt><trkpt lat="43.01090641822165" lon="12.095884573222886"><ele>371.0</ele><time>2026-04-12T09:06:39.001Z</time></trkpt><trkpt lat="43.011020404147864" lon="12.095917076521346"><ele>373.0</ele><time>2026-04-12T09:06:40.001Z</time></trkpt><trkpt lat="43.011124626993656" lon="12.09590641384645"><ele>375.0</ele><time>2026-04-12T09:06:41.001Z</time></trkpt><trkpt lat="43.01123375289264" lon="12.095837243942821"><ele>378.5</ele><time>2026-04-12T09:06:42.001Z</time></trkpt><trkpt lat="43.01135698488297" lon="12.095715240802821"><ele>382.0</ele><time>2026-04-12T09:06:43.001Z</time></trkpt><trkpt lat="43.011487125689705" lon="12.095610161323679"><ele>385.5</ele><time>2026-04-12T09:06:44.001Z</time></trkpt><trkpt lat="43.011611383521085" lon="12.095549567987053"><ele>389.0</ele><time>2026-04-12T09:06:45.001Z</time></trkpt><trkpt lat="43.011718072262966" lon="12.095524972498282"><ele>390.0</ele><time>2026-04-12T09:06:46.001Z</time></trkpt><trkpt lat="43.01181609046725" lon="12.095497785984882"><ele>391.0</ele><time>2026-04-12T09:06:47.001Z</time></trkpt><trkpt lat="43.01190590924504" lon="12.095454905219972"><ele>392.0</ele><time>2026-04-12T09:06:48.001Z</time></trkpt><trkpt lat="43.011991441956575" lon="12.095401195795567"><ele>393.0</ele><time>2026-04-12T09:06:49.001Z</time></trkpt><trkpt lat="43.01207879280464" lon="12.095327929127215"><ele>394.0</ele><time>2026-04-12T09:06:50.001Z</time></trkpt><trkpt lat="43.01216867995429" lon="12.095233655134454"><ele>394.0</ele><time>2026-04-12T09:06:51.001Z</time></trkpt><trkpt lat="43.012246771584145" lon="12.095125117716739"><ele>394.0</ele><time>2026-04-12T09:06:52.001Z</time></trkpt><trkpt lat="43.01230581046278" lon="12.094988311424148"><ele>394.0</ele><time>2026-04-12T09:06:53.001Z</time></trkpt><trkpt lat="43.012341441779064" lon="12.09482150590665"><ele>394.0</ele><time>2026-04-12T09:06:54.001Z</time></trkpt><trkpt lat="43.012373430442864" lon="12.09464347120418"><ele>396.0</ele><time>2026-04-12T09:06:55.001Z</time></trkpt><trkpt lat="43.012388378050126" lon="12.094447932092166"><ele>398.0</ele><time>2026-04-12T09:06:56.001Z</time></trkpt><trkpt lat="43.01240811951437" lon="12.094250811605017"><ele>400.0</ele><time>2026-04-12T09:06:57.001Z</time></trkpt><trkpt lat="43.01245403018328" lon="12.094064293425514"><ele>402.0</ele><time>2026-04-12T09:06:58.001Z</time></trkpt><trkpt lat="43.01251695881977" lon="12.093886199656444"><ele>402.0</ele><time>2026-04-12T09:06:59.001Z</time></trkpt><trkpt lat="43.0125772809391" lon="12.093744557852906"><ele>402.0</ele><time>2026-04-12T09:07:00.001Z</time></trkpt><trkpt lat="43.012632937144616" lon="12.093610221895863"><ele>402.0</ele><time>2026-04-12T09:07:01.001Z</time></trkpt><trkpt lat="43.01276332996576" lon="12.093562800170623"><ele>402.0</ele><time>2026-04-12T09:07:02.001Z</time></trkpt><trkpt lat="43.01288171406599" lon="12.093452521099685"><ele>402.0</ele><time>2026-04-12T09:07:03.001Z</time></trkpt><trkpt lat="43.01299774245103" lon="12.093337878291777"><ele>402.0</ele><time>2026-04-12T09:07:04.001Z</time></trkpt><trkpt lat="43.013106273441046" lon="12.09325412627889"><ele>402.0</ele><time>2026-04-12T09:07:05.001Z</time></trkpt><trkpt lat="43.01320371979669" lon="12.093204737385875"><ele>402.0</ele><time>2026-04-12T09:07:06.001Z</time></trkpt><trkpt lat="43.013295898156464" lon="12.093218142309228"><ele>402.0</ele><time>2026-04-12T09:07:07.001Z</time></trkpt><trkpt lat="43.01335910899494" lon="12.093299697224769"><ele>402.0</ele><time>2026-04-12T09:07:08.001Z</time></trkpt><trkpt lat="43.01337297653475" lon="12.093418131884668"><ele>402.0</ele><time>2026-04-12T09:07:09.001Z</time></trkpt><trkpt lat="43.01335099055969" lon="12.093534605353543"><ele>402.0</ele><time>2026-04-12T09:07:10.001Z</time></trkpt><trkpt lat="43.01329642726848" lon="12.093659729576597"><ele>402.0</ele><time>2026-04-12T09:07:11.001Z</time></trkpt><trkpt lat="43.01326320955324" lon="12.093801793274046"><ele>402.0</ele><time>2026-04-12T09:07:12.001Z</time></trkpt><trkpt lat="43.013250069902256" lon="12.093936011230031"><ele>402.0</ele><time>2026-04-12T09:07:13.001Z</time></trkpt><trkpt lat="43.01326699040852" lon="12.094059616989586"><ele>402.0</ele><time>2026-04-12T09:07:14.001Z</time></trkpt><trkpt lat="43.01332253454165" lon="12.094157743106873"><ele>402.0</ele><time>2026-04-12T09:07:15.001Z</time></trkpt><trkpt lat="43.01341192076824" lon="12.094207020562784"><ele>402.0</ele><time>2026-04-12T09:07:16.001Z</time></trkpt><trkpt lat="43.01352074804442" lon="12.094198414067337"><ele>397.6</ele><time>2026-04-12T09:07:17.001Z</time></trkpt><trkpt lat="43.01363302141899" lon="12.094148840704793"><ele>393.20000000000005</ele><time>2026-04-12T09:07:18.001Z</time></trkpt><trkpt lat="43.01374120174005" lon="12.094096916432983"><ele>388.8</ele><time>2026-04-12T09:07:19.001Z</time></trkpt><trkpt lat="43.01383389273069" lon="12.094094721563845"><ele>384.4</ele><time>2026-04-12T09:07:20.001Z</time></trkpt><trkpt lat="43.013918682334165" lon="12.09416412918041"><ele>380.0</ele><time>2026-04-12T09:07:21.001Z</time></trkpt><trkpt lat="43.01397735495946" lon="12.094279647798732"><ele>380.0</ele><time>2026-04-12T09:07:22.001Z</time></trkpt><trkpt lat="43.014017981189376" lon="12.09440391433583"><ele>380.0</ele><time>2026-04-12T09:07:23.001Z</time></trkpt><trkpt lat="43.01407353154606" lon="12.094496796377612"><ele>380.0</ele><time>2026-04-12T09:07:24.001Z</time></trkpt><trkpt lat="43.0141520981432" lon="12.094555798243565"><ele>380.0</ele><time>2026-04-12T09:07:25.001Z</time></trkpt><trkpt lat="43.014243309298124" lon="12.094615300815958"><ele>380.0</ele><time>2026-04-12T09:07:26.001Z</time></trkpt><trkpt lat="43.014335288770674" lon="12.094676620474385"><ele>379.6</ele><time>2026-04-12T09:07:27.001Z</time></trkpt><trkpt lat="43.01443262921772" lon="12.094746845237585"><ele>379.2</ele><time>2026-04-12T09:07:28.001Z</time></trkpt><trkpt lat="43.014531709059284" lon="12.094819372440263"><ele>378.79999999999995</ele><time>2026-04-12T09:07:29.001Z</time></trkpt><trkpt lat="43.014627984225555" lon="12.094869327448487"><ele>378.4</ele><time>2026-04-12T09:07:30.001Z</time></trkpt><trkpt lat="43.01470627417579" lon="12.094927860987331"><ele>378.0</ele><time>2026-04-12T09:07:31.001Z</time></trkpt><trkpt lat="43.014778555806046" lon="12.094979985754575"><ele>378.0</ele><time>2026-04-12T09:07:32.001Z</time></trkpt><trkpt lat="43.014845376049735" lon="12.095012514362574"><ele>378.0</ele><time>2026-04-12T09:07:33.001Z</time></trkpt><trkpt lat="43.014910975782605" lon="12.095041309611203"><ele>378.0</ele><time>2026-04-12T09:07:34.001Z</time></trkpt><trkpt lat="43.014975320009185" lon="12.095059105242512"><ele>378.0</ele><time>2026-04-12T09:07:35.001Z</time></trkpt><trkpt lat="43.01504085352742" lon="12.095069994831722"><ele>378.0</ele><time>2026-04-12T09:07:36.001Z</time></trkpt><trkpt lat="43.0151582338165" lon="12.09506935117184"><ele>378.0</ele><time>2026-04-12T09:07:38.001Z</time></trkpt><trkpt lat="43.015224876700024" lon="12.095095743306883"><ele>378.8333333333333</ele><time>2026-04-12T09:07:39.001Z</time></trkpt><trkpt lat="43.01529805344061" lon="12.095124325736233"><ele>379.6666666666667</ele><time>2026-04-12T09:07:40.001Z</time></trkpt><trkpt lat="43.015348837654464" lon="12.09522398488379"><ele>380.5</ele><time>2026-04-12T09:07:41.001Z</time></trkpt><trkpt lat="43.01537530674095" lon="12.095353341607566"><ele>381.33333333333337</ele><time>2026-04-12T09:07:42.001Z</time></trkpt><trkpt lat="43.015388563294806" lon="12.09547341168419"><ele>382.1666666666667</ele><time>2026-04-12T09:07:43.001Z</time></trkpt><trkpt lat="43.01540081627703" lon="12.095580497772108"><ele>383.0</ele><time>2026-04-12T09:07:44.001Z</time></trkpt><trkpt lat="43.01542249550438" lon="12.095668117938478"><ele>383.0</ele><time>2026-04-12T09:07:45.001Z</time></trkpt><trkpt lat="43.01545835059754" lon="12.095743171730005"><ele>383.0</ele><time>2026-04-12T09:07:46.001Z</time></trkpt><trkpt lat="43.01551962027705" lon="12.095807815614995"><ele>383.0</ele><time>2026-04-12T09:07:47Z</time></trkpt><trkpt lat="43.01562222905784" lon="12.09588606295279"><ele>383.0</ele><time>2026-04-12T09:07:48Z</time></trkpt><trkpt lat="43.01576333204087" lon="12.095986372446562"><ele>383.0</ele><time>2026-04-12T09:07:49Z</time></trkpt><trkpt lat="43.01590986032744" lon="12.096101610280597"><ele>382.5</ele><time>2026-04-12T09:07:50Z</time></trkpt><trkpt lat="43.01603185737434" lon="12.09618070715899"><ele>382.0</ele><time>2026-04-12T09:07:51Z</time></trkpt><trkpt lat="43.01616415319621" lon="12.096204478818404"><ele>381.5</ele><time>2026-04-12T09:07:52Z</time></trkpt><trkpt lat="43.016311638958875" lon="12.09619830553695"><ele>381.0</ele><time>2026-04-12T09:07:53Z</time></trkpt><trkpt lat="43.01646412239969" lon="12.096207212617344"><ele>381.0</ele><time>2026-04-12T09:07:54Z</time></trkpt><trkpt lat="43.01659981591057" lon="12.096246900568739"><ele>381.0</ele><time>2026-04-12T09:07:55Z</time></trkpt><trkpt lat="43.01672030258605" lon="12.096284974981023"><ele>381.0</ele><time>2026-04-12T09:07:56Z</time></trkpt><trkpt lat="43.01684432377934" lon="12.096291718724357"><ele>381.0</ele><time>2026-04-12T09:07:57Z</time></trkpt><trkpt lat="43.01698512241472" lon="12.096264320119596"><ele>382.75</ele><time>2026-04-12T09:07:58Z</time></trkpt><trkpt lat="43.01713424123454" lon="12.0962669579661"><ele>384.5</ele><time>2026-04-12T09:07:59Z</time></trkpt><trkpt lat="43.01727183979844" lon="12.096230837097659"><ele>386.25</ele><time>2026-04-12T09:08:00Z</time></trkpt><trkpt lat="43.017396348463016" lon="12.096188530362467"><ele>388.0</ele><time>2026-04-12T09:08:01Z</time></trkpt><trkpt lat="43.017499064736874" lon="12.096113585655848"><ele>388.2</ele><time>2026-04-12T09:08:02Z</time></trkpt><trkpt lat="43.01758726912073" lon="12.09604504855325"><ele>388.4</ele><time>2026-04-12T09:08:03Z</time></trkpt><trkpt lat="43.0176708077029" lon="12.096019309499296"><ele>388.59999999999997</ele><time>2026-04-12T09:08:04Z</time></trkpt><trkpt lat="43.0177609939787" lon="12.096046444769737"><ele>388.79999999999995</ele><time>2026-04-12T09:08:05.001Z</time></trkpt><trkpt lat="43.01783993969097" lon="12.09613983974065"><ele>389.0</ele><time>2026-04-12T09:08:06.001Z</time></trkpt><trkpt lat="43.01790182647931" lon="12.096264983067336"><ele>389.0</ele><time>2026-04-12T09:08:07.001Z</time></trkpt><trkpt lat="43.01796874939937" lon="12.096387168359616"><ele>389.0</ele><time>2026-04-12T09:08:08.001Z</time></trkpt><trkpt lat="43.01805144600924" lon="12.096479409086966"><ele>389.0</ele><time>2026-04-12T09:08:09.001Z</time></trkpt><trkpt lat="43.01815083756527" lon="12.096524762820046"><ele>389.0</ele><time>2026-04-12T09:08:10.001Z</time></trkpt><trkpt lat="43.01827128124111" lon="12.096522374246925"><ele>389.0</ele><time>2026-04-12T09:08:11.001Z</time></trkpt><trkpt lat="43.01838247398706" lon="12.096472585499296"><ele>390.0</ele><time>2026-04-12T09:08:12.001Z</time></trkpt><trkpt lat="43.018477673033324" lon="12.096376693779144"><ele>391.0</ele><time>2026-04-12T09:08:13.001Z</time></trkpt><trkpt lat="43.01858492892147" lon="12.096262450453954"><ele>392.0</ele><time>2026-04-12T09:08:14.001Z</time></trkpt><trkpt lat="43.018689069504916" lon="12.096136866701006"><ele>393.0</ele><time>2026-04-12T09:08:15.001Z</time></trkpt><trkpt lat="43.01877768312236" lon="12.096044485465292"><ele>393.0</ele><time>2026-04-12T09:08:16.001Z</time></trkpt><trkpt lat="43.01887196815749" lon="12.096026455151497"><ele>393.0</ele><time>2026-04-12T09:08:17.001Z</time></trkpt><trkpt lat="43.018973444271396" lon="12.096058282113109"><ele>393.0</ele><time>2026-04-12T09:08:18.001Z</time></trkpt><trkpt lat="43.01907583345512" lon="12.096105774569933"><ele>393.0</ele><time>2026-04-12T09:08:19.001Z</time></trkpt><trkpt lat="43.01918296548291" lon="12.096086232794047"><ele>393.0</ele><time>2026-04-12T09:08:20.001Z</time></trkpt><trkpt lat="43.0192996823061" lon="12.09600506432502"><ele>392.25</ele><time>2026-04-12T09:08:21.001Z</time></trkpt><trkpt lat="43.01944007978602" lon="12.095936144076674"><ele>391.5</ele><time>2026-04-12T09:08:22.001Z</time></trkpt><trkpt lat="43.01955966687628" lon="12.095864011362517"><ele>390.75</ele><time>2026-04-12T09:08:23.001Z</time></trkpt><trkpt lat="43.019670100646934" lon="12.095779811506098"><ele>390.0</ele><time>2026-04-12T09:08:24.001Z</time></trkpt><trkpt lat="43.01979716051844" lon="12.095702593187522"><ele>390.33333333333337</ele><time>2026-04-12T09:08:25.001Z</time></trkpt><trkpt lat="43.019927040899546" lon="12.095554571897722"><ele>390.6666666666667</ele><time>2026-04-12T09:08:26.001Z</time></trkpt><trkpt lat="43.02003697851726" lon="12.095393951264322"><ele>391.0</ele><time>2026-04-12T09:08:27.001Z</time></trkpt><trkpt lat="43.020121696750365" lon="12.095272865701663"><ele>391.0</ele><time>2026-04-12T09:08:28.001Z</time></trkpt><trkpt lat="43.020190155718836" lon="12.095197372221053"><ele>391.0</ele><time>2026-04-12T09:08:29.001Z</time></trkpt><trkpt lat="43.02026018006341" lon="12.095179449420081"><ele>391.0</ele><time>2026-04-12T09:08:30.001Z</time></trkpt><trkpt lat="43.02036484405595" lon="12.095257506112059"><ele>391.0</ele><time>2026-04-12T09:08:32.001Z</time></trkpt><trkpt lat="43.0204015297358" lon="12.095366802564268"><ele>391.0</ele><time>2026-04-12T09:08:33.001Z</time></trkpt><trkpt lat="43.02044261825435" lon="12.095513446813813"><ele>391.0</ele><time>2026-04-12T09:08:34.001Z</time></trkpt><trkpt lat="43.02051384068323" lon="12.095662111870935"><ele>391.0</ele><time>2026-04-12T09:08:35.001Z</time></trkpt><trkpt lat="43.02057812375195" lon="12.09581498845147"><ele>391.0</ele><time>2026-04-12T09:08:36.001Z</time></trkpt><trkpt lat="43.020673189059124" lon="12.09597242597077"><ele>391.0</ele><time>2026-04-12T09:08:37.001Z</time></trkpt><trkpt lat="43.02077703555961" lon="12.09613352814471"><ele>389.0</ele><time>2026-04-12T09:08:38.001Z</time></trkpt><trkpt lat="43.02086911773694" lon="12.096259601619076"><ele>387.0</ele><time>2026-04-12T09:08:39.001Z</time></trkpt><trkpt lat="43.020944529455356" lon="12.096351614811597"><ele>385.0</ele><time>2026-04-12T09:08:40.001Z</time></trkpt><trkpt lat="43.0210265887705" lon="12.096399050909147"><ele>383.0</ele><time>2026-04-12T09:08:41.001Z</time></trkpt><trkpt lat="43.02112210143738" lon="12.096396939454676"><ele>381.0</ele><time>2026-04-12T09:08:42.001Z</time></trkpt><trkpt lat="43.02122586825942" lon="12.096351922310033"><ele>381.0</ele><time>2026-04-12T09:08:43.001Z</time></trkpt><trkpt lat="43.0213401328541" lon="12.096241720157867"><ele>381.0</ele><time>2026-04-12T09:08:44.001Z</time></trkpt><trkpt lat="43.0214580749033" lon="12.09610502611898"><ele>381.0</ele><time>2026-04-12T09:08:45.001Z</time></trkpt><trkpt lat="43.02157479005905" lon="12.09598565399346"><ele>381.0</ele><time>2026-04-12T09:08:46.001Z</time></trkpt><trkpt lat="43.02167411238399" lon="12.095928928202424"><ele>380.4</ele><time>2026-04-12T09:08:47.001Z</time></trkpt><trkpt lat="43.02175949037262" lon="12.095962706944979"><ele>379.8</ele><time>2026-04-12T09:08:48.001Z</time></trkpt><trkpt lat="43.021813444003875" lon="12.096041126729675"><ele>379.2</ele><time>2026-04-12T09:08:49.001Z</time></trkpt><trkpt lat="43.02184764655898" lon="12.096147727532465"><ele>378.59999999999997</ele><time>2026-04-12T09:08:50.001Z</time></trkpt><trkpt lat="43.0218313367383" lon="12.096301723049109"><ele>378.0</ele><time>2026-04-12T09:08:51.001Z</time></trkpt><trkpt lat="43.02183708263784" lon="12.09648353454578"><ele>376.3333333333333</ele><time>2026-04-12T09:08:52.001Z</time></trkpt><trkpt lat="43.02182961138407" lon="12.096690357247642"><ele>374.66666666666663</ele><time>2026-04-12T09:08:53.001Z</time></trkpt><trkpt lat="43.02185299738383" lon="12.096926472456737"><ele>373.0</ele><time>2026-04-12T09:08:54.001Z</time></trkpt><trkpt lat="43.021889699619216" lon="12.097110530531321"><ele>373.0</ele><time>2026-04-12T09:08:55.001Z</time></trkpt><trkpt lat="43.02192825303958" lon="12.097230939554091"><ele>373.0</ele><time>2026-04-12T09:08:56.001Z</time></trkpt><trkpt lat="43.02198927810711" lon="12.097320930035128"><ele>373.0</ele><time>2026-04-12T09:08:57.001Z</time></trkpt><trkpt lat="43.02209481414534" lon="12.09740620397357"><ele>373.0</ele><time>2026-04-12T09:08:58.001Z</time></trkpt><trkpt lat="43.02223896427804" lon="12.097491897295006"><ele>372.0</ele><time>2026-04-12T09:08:59.001Z</time></trkpt><trkpt lat="43.0224096743021" lon="12.097584311959555"><ele>371.0</ele><time>2026-04-12T09:09:00.001Z</time></trkpt><trkpt lat="43.022597685711375" lon="12.09768143948701"><ele>370.0</ele><time>2026-04-12T09:09:01.001Z</time></trkpt><trkpt lat="43.022791447396024" lon="12.097778106841245"><ele>375.66666666666663</ele><time>2026-04-12T09:09:02.001Z</time></trkpt><trkpt lat="43.0229888136239" lon="12.097867700933739"><ele>381.3333333333333</ele><time>2026-04-12T09:09:03.001Z</time></trkpt><trkpt lat="43.02317960770815" lon="12.097943202320986"><ele>387.0</ele><time>2026-04-12T09:09:04.001Z</time></trkpt><trkpt lat="43.02335092266233" lon="12.097998825252079"><ele>390.0</ele><time>2026-04-12T09:09:05.001Z</time></trkpt><trkpt lat="43.023501961612226" lon="12.098052943492696"><ele>393.0</ele><time>2026-04-12T09:09:06.001Z</time></trkpt><trkpt lat="43.02363720288562" lon="12.098108945862927"><ele>396.0</ele><time>2026-04-12T09:09:07.001Z</time></trkpt><trkpt lat="43.023757359979" lon="12.09816195289865"><ele>399.0</ele><time>2026-04-12T09:09:08.001Z</time></trkpt><trkpt lat="43.0238696450036" lon="12.098186576471873"><ele>399.0</ele><time>2026-04-12T09:09:09.001Z</time></trkpt><trkpt lat="43.02398789186543" lon="12.098181884991497"><ele>399.0</ele><time>2026-04-12T09:09:10.001Z</time></trkpt><trkpt lat="43.02411698987695" lon="12.098157911087169"><ele>399.0</ele><time>2026-04-12T09:09:11.001Z</time></trkpt><trkpt lat="43.02425362464374" lon="12.098152080505377"><ele>399.0</ele><time>2026-04-12T09:09:12.001Z</time></trkpt><trkpt lat="43.024394457263504" lon="12.098153144074702"><ele>401.25</ele><time>2026-04-12T09:09:13.001Z</time></trkpt><trkpt lat="43.02452437383657" lon="12.09814576928619"><ele>403.5</ele><time>2026-04-12T09:09:14.001Z</time></trkpt><trkpt lat="43.024638998414865" lon="12.098134749874948"><ele>405.75</ele><time>2026-04-12T09:09:15.001Z</time></trkpt><trkpt lat="43.02473698208743" lon="12.098101550954341"><ele>408.0</ele><time>2026-04-12T09:09:16.001Z</time></trkpt><trkpt lat="43.02483810630422" lon="12.098024481384591"><ele>408.0</ele><time>2026-04-12T09:09:17.001Z</time></trkpt><trkpt lat="43.0249453356865" lon="12.09791217481146"><ele>408.0</ele><time>2026-04-12T09:09:18.001Z</time></trkpt><trkpt lat="43.02505529862804" lon="12.097795741690627"><ele>408.0</ele><time>2026-04-12T09:09:19.001Z</time></trkpt><trkpt lat="43.02514070026048" lon="12.097695652810744"><ele>408.0</ele><time>2026-04-12T09:09:20.001Z</time></trkpt><trkpt lat="43.0252135769226" lon="12.097607186261733"><ele>407.59999999999997</ele><time>2026-04-12T09:09:21.001Z</time></trkpt><trkpt lat="43.02529405858074" lon="12.097562505578754"><ele>407.2</ele><time>2026-04-12T09:09:22.001Z</time></trkpt><trkpt lat="43.0253549822141" lon="12.097537826474351"><ele>406.8</ele><time>2026-04-12T09:09:23.001Z</time></trkpt><trkpt lat="43.02543676127478" lon="12.097583175799592"><ele>406.4</ele><time>2026-04-12T09:09:24.001Z</time></trkpt><trkpt lat="43.02551409673062" lon="12.097677999222432"><ele>406.0</ele><time>2026-04-12T09:09:25.001Z</time></trkpt><trkpt lat="43.025583299328446" lon="12.09780117366245"><ele>406.0</ele><time>2026-04-12T09:09:26.001Z</time></trkpt><trkpt lat="43.025646475214636" lon="12.097932542887014"><ele>406.0</ele><time>2026-04-12T09:09:27.001Z</time></trkpt><trkpt lat="43.02571314577631" lon="12.098044443403047"><ele>406.0</ele><time>2026-04-12T09:09:28.001Z</time></trkpt><trkpt lat="43.02577889094305" lon="12.098111653461642"><ele>406.0</ele><time>2026-04-12T09:09:29.001Z</time></trkpt><trkpt lat="43.02585168334475" lon="12.098115189504078"><ele>406.0</ele><time>2026-04-12T09:09:30.001Z</time></trkpt><trkpt lat="43.02592886194537" lon="12.098063978011071"><ele>407.20000000000005</ele><time>2026-04-12T09:09:31.001Z</time></trkpt><trkpt lat="43.02599570834007" lon="12.097974772859299"><ele>408.40000000000003</ele><time>2026-04-12T09:09:32.001Z</time></trkpt><trkpt lat="43.026065029786274" lon="12.09788522632383"><ele>409.6</ele><time>2026-04-12T09:09:33.001Z</time></trkpt><trkpt lat="43.02616592622917" lon="12.097843079022333"><ele>410.8</ele><time>2026-04-12T09:09:34.001Z</time></trkpt><trkpt lat="43.0262742521332" lon="12.097826573024907"><ele>412.0</ele><time>2026-04-12T09:09:35.001Z</time></trkpt><trkpt lat="43.02639186462519" lon="12.097787690149048"><ele>412.0</ele><time>2026-04-12T09:09:36.001Z</time></trkpt><trkpt lat="43.02651913261835" lon="12.09775874459034"><ele>412.0</ele><time>2026-04-12T09:09:37.001Z</time></trkpt><trkpt lat="43.026653789173935" lon="12.097702617566279"><ele>412.0</ele><time>2026-04-12T09:09:38.001Z</time></trkpt><trkpt lat="43.02679370598215" lon="12.097639568217836"><ele>412.0</ele><time>2026-04-12T09:09:39.001Z</time></trkpt><trkpt lat="43.02693303191887" lon="12.09757568127858"><ele>413.75</ele><time>2026-04-12T09:09:40.001Z</time></trkpt><trkpt lat="43.02705288336594" lon="12.097506745840628"><ele>415.5</ele><time>2026-04-12T09:09:41.001Z</time></trkpt><trkpt lat="43.027171037765946" lon="12.097432384893997"><ele>417.25</ele><time>2026-04-12T09:09:42.001Z</time></trkpt><trkpt lat="43.027281938694415" lon="12.097358221480222"><ele>419.0</ele><time>2026-04-12T09:09:43.001Z</time></trkpt><trkpt lat="43.027396328661425" lon="12.09733135987887"><ele>423.5</ele><time>2026-04-12T09:09:44.001Z</time></trkpt><trkpt lat="43.027503188148025" lon="12.097341856716314"><ele>428.0</ele><time>2026-04-12T09:09:45.001Z</time></trkpt><trkpt lat="43.02762429292586" lon="12.097361939709348"><ele>432.5</ele><time>2026-04-12T09:09:46.001Z</time></trkpt><trkpt lat="43.02775847566214" lon="12.097376927887835"><ele>437.0</ele><time>2026-04-12T09:09:47.001Z</time></trkpt><trkpt lat="43.027886824637264" lon="12.09739743193086"><ele>437.0</ele><time>2026-04-12T09:09:48.001Z</time></trkpt><trkpt lat="43.0280167811152" lon="12.097407647605117"><ele>437.0</ele><time>2026-04-12T09:09:49Z</time></trkpt><trkpt lat="43.02813932777455" lon="12.097418337971481"><ele>437.0</ele><time>2026-04-12T09:09:50.001Z</time></trkpt><trkpt lat="43.028254871364474" lon="12.097437555358177"><ele>437.0</ele><time>2026-04-12T09:09:51Z</time></trkpt><trkpt lat="43.028354964253666" lon="12.097477081310894"><ele>436.99999999999994</ele><time>2026-04-12T09:09:52Z</time></trkpt><trkpt lat="43.02843216658096" lon="12.097467068541802"><ele>437.0</ele><time>2026-04-12T09:09:53Z</time></trkpt><trkpt lat="43.02853246048925" lon="12.097467515057879"><ele>437.0</ele><time>2026-04-12T09:09:55Z</time></trkpt><trkpt lat="43.02859163542997" lon="12.097499833287474"><ele>437.0</ele><time>2026-04-12T09:09:59Z</time></trkpt><trkpt lat="43.028661146043746" lon="12.09752804327736"><ele>436.99999999999994</ele><time>2026-04-12T09:10:01Z</time></trkpt><trkpt lat="43.02870760643214" lon="12.09744495270256"><ele>437.0</ele><time>2026-04-12T09:10:02Z</time></trkpt><trkpt lat="43.028785160227315" lon="12.097357070241301"><ele>436.99999999999994</ele><time>2026-04-12T09:10:04Z</time></trkpt><trkpt lat="43.02885067438841" lon="12.09727547299851"><ele>437.0</ele><time>2026-04-12T09:10:06Z</time></trkpt><trkpt lat="43.02891977027189" lon="12.097199767104135"><ele>437.0</ele><time>2026-04-12T09:10:08Z</time></trkpt><trkpt lat="43.02900103666931" lon="12.097103371364996"><ele>437.0</ele><time>2026-04-12T09:10:10Z</time></trkpt><trkpt lat="43.029040340047835" lon="12.097032510037803"><ele>436.99999999999994</ele><time>2026-04-12T09:10:11Z</time></trkpt><trkpt lat="43.02909895619964" lon="12.096986320076766"><ele>437.0</ele><time>2026-04-12T09:10:12Z</time></trkpt><trkpt lat="43.02915133676444" lon="12.096932684031101"><ele>435.1428571428571</ele><time>2026-04-12T09:10:13Z</time></trkpt><trkpt lat="43.029211554830155" lon="12.096877817928464"><ele>433.28571428571433</ele><time>2026-04-12T09:10:14Z</time></trkpt><trkpt lat="43.02925586750655" lon="12.09681465737922"><ele>431.42857142857144</ele><time>2026-04-12T09:10:15Z</time></trkpt><trkpt lat="43.029289265682266" lon="12.0967377026245"><ele>429.57142857142856</ele><time>2026-04-12T09:10:16Z</time></trkpt><trkpt lat="43.0293175475119" lon="12.096651817584451"><ele>427.71428571428567</ele><time>2026-04-12T09:10:17.001Z</time></trkpt><trkpt lat="43.02933901957155" lon="12.09656264499022"><ele>425.8571428571429</ele><time>2026-04-12T09:10:18.001Z</time></trkpt><trkpt lat="43.029368138074304" lon="12.096446710523395"><ele>424.0</ele><time>2026-04-12T09:10:20.001Z</time></trkpt><trkpt lat="43.02936848853686" lon="12.096327609106664"><ele>423.83333333333337</ele><time>2026-04-12T09:10:53.001Z</time></trkpt><trkpt lat="43.029317727862306" lon="12.09625824081117"><ele>423.6666666666667</ele><time>2026-04-12T09:10:54.001Z</time></trkpt><trkpt lat="43.02924514984754" lon="12.096189896007873"><ele>423.5</ele><time>2026-04-12T09:10:55.001Z</time></trkpt><trkpt lat="43.02921356995793" lon="12.096108535722678"><ele>423.33333333333337</ele><time>2026-04-12T09:10:56.001Z</time></trkpt><trkpt lat="43.02918422855173" lon="12.09597006138863"><ele>423.1666666666667</ele><time>2026-04-12T09:10:58.001Z</time></trkpt><trkpt lat="43.02916423014617" lon="12.095861939033801"><ele>423.0</ele><time>2026-04-12T09:10:59.001Z</time></trkpt><trkpt lat="43.02908421840453" lon="12.095732639292244"><ele>427.5</ele><time>2026-04-12T09:11:00.001Z</time></trkpt><trkpt lat="43.02901056213794" lon="12.09560327060038"><ele>432.0</ele><time>2026-04-12T09:11:01.001Z</time></trkpt><trkpt lat="43.02892626011815" lon="12.095452209965828"><ele>436.5</ele><time>2026-04-12T09:11:02.001Z</time></trkpt><trkpt lat="43.028852708324244" lon="12.095292807091067"><ele>441.0</ele><time>2026-04-12T09:11:03.001Z</time></trkpt><trkpt lat="43.028823975075674" lon="12.095137140612538"><ele>441.0</ele><time>2026-04-12T09:11:04.001Z</time></trkpt><trkpt lat="43.02877793689833" lon="12.095030031395817"><ele>441.0</ele><time>2026-04-12T09:11:05.001Z</time></trkpt><trkpt lat="43.02873566069053" lon="12.094925790942137"><ele>441.0</ele><time>2026-04-12T09:11:06.001Z</time></trkpt><trkpt lat="43.02869442167705" lon="12.094819814908915"><ele>441.0</ele><time>2026-04-12T09:11:07.001Z</time></trkpt><trkpt lat="43.02863826748716" lon="12.094675509737515"><ele>441.0</ele><time>2026-04-12T09:11:08.001Z</time></trkpt><trkpt lat="43.028579303708" lon="12.094523984645935"><ele>438.25</ele><time>2026-04-12T09:11:09.001Z</time></trkpt><trkpt lat="43.028514786482255" lon="12.094359844637609"><ele>435.5</ele><time>2026-04-12T09:11:10.001Z</time></trkpt><trkpt lat="43.02844612459656" lon="12.094186030296147"><ele>432.75</ele><time>2026-04-12T09:11:11.001Z</time></trkpt><trkpt lat="43.02837067848004" lon="12.093997210318545"><ele>430.0</ele><time>2026-04-12T09:11:12.001Z</time></trkpt><trkpt lat="43.02829185127726" lon="12.09380115438536"><ele>436.0</ele><time>2026-04-12T09:11:13.001Z</time></trkpt><trkpt lat="43.02820870752167" lon="12.093599716385812"><ele>442.0</ele><time>2026-04-12T09:11:14.001Z</time></trkpt><trkpt lat="43.02811958876676" lon="12.093393283387645"><ele>448.0</ele><time>2026-04-12T09:11:15.001Z</time></trkpt><trkpt lat="43.028030207508685" lon="12.093207760307717"><ele>448.0</ele><time>2026-04-12T09:11:16.001Z</time></trkpt><trkpt lat="43.0279461900309" lon="12.09302983287196"><ele>448.0</ele><time>2026-04-12T09:11:17.001Z</time></trkpt><trkpt lat="43.027895038634156" lon="12.092881094331931"><ele>448.0</ele><time>2026-04-12T09:11:18.001Z</time></trkpt><trkpt lat="43.02787430662009" lon="12.092731898435604"><ele>448.0</ele><time>2026-04-12T09:11:19.001Z</time></trkpt><trkpt lat="43.02788735153278" lon="12.092563873452548"><ele>445.25</ele><time>2026-04-12T09:11:20.001Z</time></trkpt><trkpt lat="43.02785783531268" lon="12.092387649863388"><ele>442.5</ele><time>2026-04-12T09:11:21.001Z</time></trkpt><trkpt lat="43.027829600472586" lon="12.092207311896177"><ele>439.75</ele><time>2026-04-12T09:11:22.001Z</time></trkpt><trkpt lat="43.02777847937181" lon="12.092041710426912"><ele>437.0</ele><time>2026-04-12T09:11:23.001Z</time></trkpt><trkpt lat="43.02770805337663" lon="12.09190796209109"><ele>437.0</ele><time>2026-04-12T09:11:24.001Z</time></trkpt><trkpt lat="43.02761144603394" lon="12.091812276277638"><ele>437.0</ele><time>2026-04-12T09:11:25.001Z</time></trkpt><trkpt lat="43.02748993693155" lon="12.091772948221303"><ele>437.0</ele><time>2026-04-12T09:11:26.001Z</time></trkpt><trkpt lat="43.027354057443944" lon="12.091728872263495"><ele>437.0</ele><time>2026-04-12T09:11:27.001Z</time></trkpt><trkpt lat="43.0271952942056" lon="12.091704727287473"><ele>438.25</ele><time>2026-04-12T09:11:28.001Z</time></trkpt><trkpt lat="43.02703761339901" lon="12.091696872611923"><ele>439.5</ele><time>2026-04-12T09:11:29.001Z</time></trkpt><trkpt lat="43.02689471016596" lon="12.091729340827017"><ele>440.75</ele><time>2026-04-12T09:11:30.001Z</time></trkpt><trkpt lat="43.02676444746833" lon="12.091770103798728"><ele>442.0</ele><time>2026-04-12T09:11:31.001Z</time></trkpt><trkpt lat="43.026652415118406" lon="12.091807086801223"><ele>444.00000000000006</ele><time>2026-04-12T09:11:32.001Z</time></trkpt><trkpt lat="43.0265560956134" lon="12.091803887021854"><ele>446.0</ele><time>2026-04-12T09:11:33.001Z</time></trkpt><trkpt lat="43.02647659863788" lon="12.091762471616416"><ele>448.0</ele><time>2026-04-12T09:11:34.001Z</time></trkpt><trkpt lat="43.02643903199638" lon="12.09166732684423"><ele>450.0</ele><time>2026-04-12T09:11:35.001Z</time></trkpt><trkpt lat="43.02644095888757" lon="12.091570787679506"><ele>452.00000000000006</ele><time>2026-04-12T09:11:36.001Z</time></trkpt><trkpt lat="43.02646752344045" lon="12.091463181551559"><ele>454.0</ele><time>2026-04-12T09:11:37.001Z</time></trkpt><trkpt lat="43.02645455743545" lon="12.091308818553678"><ele>454.0</ele><time>2026-04-12T09:11:38.001Z</time></trkpt><trkpt lat="43.026479146896726" lon="12.09115572566052"><ele>454.0</ele><time>2026-04-12T09:11:39.001Z</time></trkpt><trkpt lat="43.026453588935425" lon="12.090995374464875"><ele>454.0</ele><time>2026-04-12T09:11:40.001Z</time></trkpt><trkpt lat="43.02638218768365" lon="12.0908629028712"><ele>454.0</ele><time>2026-04-12T09:11:41.001Z</time></trkpt><trkpt lat="43.02627838595983" lon="12.090773295093102"><ele>448.6666666666667</ele><time>2026-04-12T09:11:42.001Z</time></trkpt><trkpt lat="43.02614812140969" lon="12.0906987158491"><ele>443.33333333333337</ele><time>2026-04-12T09:11:43.001Z</time></trkpt><trkpt lat="43.026019501415846" lon="12.09055683726665"><ele>438.0</ele><time>2026-04-12T09:11:44.001Z</time></trkpt><trkpt lat="43.025876125027" lon="12.090412036000508"><ele>442.25</ele><time>2026-04-12T09:11:45.001Z</time></trkpt><trkpt lat="43.025745966756176" lon="12.09027653900268"><ele>446.5</ele><time>2026-04-12T09:11:46Z</time></trkpt><trkpt lat="43.025642533730434" lon="12.090152340982602"><ele>450.75</ele><time>2026-04-12T09:11:47Z</time></trkpt><trkpt lat="43.02556751097904" lon="12.09003161276615"><ele>455.0</ele><time>2026-04-12T09:11:48Z</time></trkpt><trkpt lat="43.025521431904124" lon="12.089897407185912"><ele>455.0</ele><time>2026-04-12T09:11:49Z</time></trkpt><trkpt lat="43.02550798399898" lon="12.089770593719239"><ele>455.0</ele><time>2026-04-12T09:11:50Z</time></trkpt><trkpt lat="43.02549245880452" lon="12.089606504269938"><ele>455.0</ele><time>2026-04-12T09:11:51Z</time></trkpt><trkpt lat="43.02551766927218" lon="12.089431606106748"><ele>455.0</ele><time>2026-04-12T09:11:52Z</time></trkpt><trkpt lat="43.025535500201855" lon="12.089262158690351"><ele>455.0</ele><time>2026-04-12T09:11:53Z</time></trkpt><trkpt lat="43.025525505005085" lon="12.089123196659658"><ele>455.0</ele><time>2026-04-12T09:11:54Z</time></trkpt><trkpt lat="43.025498329966034" lon="12.088980737266821"><ele>455.0</ele><time>2026-04-12T09:11:55Z</time></trkpt><trkpt lat="43.02541618470889" lon="12.08884486499169"><ele>455.0</ele><time>2026-04-12T09:11:56Z</time></trkpt><trkpt lat="43.025299645968225" lon="12.088732115727522"><ele>454.75</ele><time>2026-04-12T09:11:57Z</time></trkpt><trkpt lat="43.025171965175" lon="12.088657303073045"><ele>454.5</ele><time>2026-04-12T09:11:58Z</time></trkpt><trkpt lat="43.025039400898606" lon="12.08859170748629"><ele>454.25</ele><time>2026-04-12T09:11:59Z</time></trkpt><trkpt lat="43.024888159052054" lon="12.088551565361666"><ele>454.0</ele><time>2026-04-12T09:12:00Z</time></trkpt><trkpt lat="43.024730231443904" lon="12.088501931261584"><ele>454.0</ele><time>2026-04-12T09:12:01Z</time></trkpt><trkpt lat="43.02456304147292" lon="12.088511201354954"><ele>454.0</ele><time>2026-04-12T09:12:02Z</time></trkpt><trkpt lat="43.024417440338425" lon="12.088494869216897"><ele>454.0</ele><time>2026-04-12T09:12:03Z</time></trkpt><trkpt lat="43.02429617075483" lon="12.088444640897526"><ele>454.0</ele><time>2026-04-12T09:12:04Z</time></trkpt><trkpt lat="43.02420807172142" lon="12.088407670726436"><ele>454.4</ele><time>2026-04-12T09:12:05Z</time></trkpt><trkpt lat="43.024145802309334" lon="12.088356941460043"><ele>454.79999999999995</ele><time>2026-04-12T09:12:06Z</time></trkpt><trkpt lat="43.02413076018904" lon="12.088248412176998"><ele>455.20000000000005</ele><time>2026-04-12T09:12:07Z</time></trkpt><trkpt lat="43.024187157155545" lon="12.088125133971241"><ele>455.6</ele><time>2026-04-12T09:12:08Z</time></trkpt><trkpt lat="43.0242075872032" lon="12.087969828797675"><ele>456.0</ele><time>2026-04-12T09:12:09Z</time></trkpt><trkpt lat="43.02426736420289" lon="12.087799089293346"><ele>456.0</ele><time>2026-04-12T09:12:10Z</time></trkpt><trkpt lat="43.02429768222649" lon="12.087602534457424"><ele>456.0</ele><time>2026-04-12T09:12:11Z</time></trkpt><trkpt lat="43.02431155659903" lon="12.087404575978617"><ele>456.0</ele><time>2026-04-12T09:12:12Z</time></trkpt><trkpt lat="43.02435156942873" lon="12.08725287763278"><ele>456.0</ele><time>2026-04-12T09:12:13Z</time></trkpt><trkpt lat="43.024369893715516" lon="12.087119790462259"><ele>455.5</ele><time>2026-04-12T09:12:14Z</time></trkpt><trkpt lat="43.02438361065376" lon="12.087002644656462"><ele>455.0</ele><time>2026-04-12T09:12:15Z</time></trkpt><trkpt lat="43.024378934703236" lon="12.086888056226845"><ele>454.5</ele><time>2026-04-12T09:12:16Z</time></trkpt><trkpt lat="43.02437984865529" lon="12.086776039805184"><ele>454.0</ele><time>2026-04-12T09:12:17Z</time></trkpt><trkpt lat="43.02435808521208" lon="12.086657754014027"><ele>453.5</ele><time>2026-04-12T09:12:18Z</time></trkpt><trkpt lat="43.02430493238238" lon="12.08656241340077"><ele>453.0</ele><time>2026-04-12T09:12:19Z</time></trkpt><trkpt lat="43.02422757706078" lon="12.086461882506605"><ele>456.75</ele><time>2026-04-12T09:12:20Z</time></trkpt><trkpt lat="43.02413810096396" lon="12.086372393031448"><ele>460.5</ele><time>2026-04-12T09:12:21Z</time></trkpt><trkpt lat="43.02404261182298" lon="12.086278552743527"><ele>464.25</ele><time>2026-04-12T09:12:22Z</time></trkpt><trkpt lat="43.02394886520448" lon="12.086173146065727"><ele>468.0</ele><time>2026-04-12T09:12:23Z</time></trkpt><trkpt lat="43.023860901068694" lon="12.086048271002586"><ele>468.0</ele><time>2026-04-12T09:12:24Z</time></trkpt><trkpt lat="43.02377065612946" lon="12.085918708426151"><ele>468.0</ele><time>2026-04-12T09:12:25Z</time></trkpt><trkpt lat="43.02370328835222" lon="12.085755633168981"><ele>468.0</ele><time>2026-04-12T09:12:26Z</time></trkpt><trkpt lat="43.02365767449162" lon="12.085576000386872"><ele>468.0</ele><time>2026-04-12T09:12:27Z</time></trkpt><trkpt lat="43.02361789695461" lon="12.08539335067955"><ele>468.25</ele><time>2026-04-12T09:12:28Z</time></trkpt><trkpt lat="43.02358866653425" lon="12.085204477603515"><ele>468.5</ele><time>2026-04-12T09:12:29Z</time></trkpt><trkpt lat="43.02355980059519" lon="12.08500941779287"><ele>468.75</ele><time>2026-04-12T09:12:30Z</time></trkpt><trkpt lat="43.02354792945404" lon="12.084810691114003"><ele>469.0</ele><time>2026-04-12T09:12:31Z</time></trkpt><trkpt lat="43.023550551836365" lon="12.084649489143512"><ele>469.50000000000006</ele><time>2026-04-12T09:12:32Z</time></trkpt><trkpt lat="43.02356764162626" lon="12.084522952388893"><ele>470.0</ele><time>2026-04-12T09:12:33Z</time></trkpt><trkpt lat="43.023609563735306" lon="12.084420849610163"><ele>470.5</ele><time>2026-04-12T09:12:34Z</time></trkpt><trkpt lat="43.023660355793965" lon="12.084314128019614"><ele>471.0</ele><time>2026-04-12T09:12:35Z</time></trkpt><trkpt lat="43.023727211284815" lon="12.084223610570898"><ele>471.50000000000006</ele><time>2026-04-12T09:12:36Z</time></trkpt><trkpt lat="43.02375705465168" lon="12.08413473760182"><ele>472.0</ele><time>2026-04-12T09:12:37Z</time></trkpt><trkpt lat="43.02375586815446" lon="12.084041627477001"><ele>472.40000000000003</ele><time>2026-04-12T09:12:38Z</time></trkpt><trkpt lat="43.02372866112177" lon="12.083942876880826"><ele>472.80000000000007</ele><time>2026-04-12T09:12:39Z</time></trkpt><trkpt lat="43.02368551761853" lon="12.083844326088327"><ele>473.2</ele><time>2026-04-12T09:12:40Z</time></trkpt><trkpt lat="43.02364643918107" lon="12.083723250891333"><ele>473.6</ele><time>2026-04-12T09:12:41Z</time></trkpt><trkpt lat="43.0235663044748" lon="12.083560173566713"><ele>474.0</ele><time>2026-04-12T09:12:42Z</time></trkpt><trkpt lat="43.02344898134041" lon="12.083366670728466"><ele>473.25</ele><time>2026-04-12T09:12:43Z</time></trkpt><trkpt lat="43.02336525401235" lon="12.08317090569641"><ele>472.5</ele><time>2026-04-12T09:12:44Z</time></trkpt><trkpt lat="43.0232756758309" lon="12.083011518394255"><ele>471.75</ele><time>2026-04-12T09:12:45Z</time></trkpt><trkpt lat="43.023194100266224" lon="12.082870425108165"><ele>471.0</ele><time>2026-04-12T09:12:46Z</time></trkpt><trkpt lat="43.02312510487244" lon="12.082680407367533"><ele>476.66666666666663</ele><time>2026-04-12T09:12:47Z</time></trkpt><trkpt lat="43.02302324922116" lon="12.082472673233816"><ele>482.3333333333333</ele><time>2026-04-12T09:12:48Z</time></trkpt><trkpt lat="43.02294815904592" lon="12.082242184244414"><ele>488.0</ele><time>2026-04-12T09:12:49Z</time></trkpt><trkpt lat="43.02288142028522" lon="12.082029928954784"><ele>488.0</ele><time>2026-04-12T09:12:50Z</time></trkpt><trkpt lat="43.02282266791225" lon="12.081826813851777"><ele>488.0</ele><time>2026-04-12T09:12:51Z</time></trkpt><trkpt lat="43.02275376684802" lon="12.081649980170594"><ele>488.0</ele><time>2026-04-12T09:12:52Z</time></trkpt><trkpt lat="43.02267727257184" lon="12.081491553321749"><ele>488.0</ele><time>2026-04-12T09:12:53Z</time></trkpt><trkpt lat="43.022619482605805" lon="12.081337719245148"><ele>488.79999999999995</ele><time>2026-04-12T09:12:54Z</time></trkpt><trkpt lat="43.02257782511474" lon="12.081217365971185"><ele>489.59999999999997</ele><time>2026-04-12T09:12:55Z</time></trkpt><trkpt lat="43.0225730451432" lon="12.081105719401219"><ele>490.40000000000003</ele><time>2026-04-12T09:12:56Z</time></trkpt><trkpt lat="43.02259510464292" lon="12.080958077360583"><ele>491.20000000000005</ele><time>2026-04-12T09:12:57Z</time></trkpt><trkpt lat="43.02269277539595" lon="12.080796407693711"><ele>492.0</ele><time>2026-04-12T09:12:58Z</time></trkpt><trkpt lat="43.02284841296059" lon="12.080671308628686"><ele>493.5</ele><time>2026-04-12T09:12:59Z</time></trkpt><trkpt lat="43.02296618935312" lon="12.080547822822286"><ele>495.0</ele><time>2026-04-12T09:13:00Z</time></trkpt><trkpt lat="43.02303923216347" lon="12.080460979364602"><ele>496.5</ele><time>2026-04-12T09:13:01Z</time></trkpt><trkpt lat="43.023086431522565" lon="12.080341204550948"><ele>498.0</ele><time>2026-04-12T09:13:02Z</time></trkpt><trkpt lat="43.02311265539648" lon="12.080159051987517"><ele>498.0</ele><time>2026-04-12T09:13:03Z</time></trkpt><trkpt lat="43.02315001404308" lon="12.079978954665641"><ele>498.0</ele><time>2026-04-12T09:13:04Z</time></trkpt><trkpt lat="43.023145040222545" lon="12.079797950233003"><ele>498.0</ele><time>2026-04-12T09:13:05Z</time></trkpt><trkpt lat="43.02310633900577" lon="12.079669471767659"><ele>498.0</ele><time>2026-04-12T09:13:06Z</time></trkpt><trkpt lat="43.023063591747515" lon="12.079539945915386"><ele>495.25</ele><time>2026-04-12T09:13:07Z</time></trkpt><trkpt lat="43.02298085066636" lon="12.079356276164182"><ele>492.5</ele><time>2026-04-12T09:13:08Z</time></trkpt><trkpt lat="43.022884653060586" lon="12.079198475270797"><ele>489.75</ele><time>2026-04-12T09:13:09Z</time></trkpt><trkpt lat="43.02278171776547" lon="12.079108366854772"><ele>487.0</ele><time>2026-04-12T09:13:10.001Z</time></trkpt><trkpt lat="43.02268049686749" lon="12.079046480881"><ele>486.5</ele><time>2026-04-12T09:13:11.001Z</time></trkpt><trkpt lat="43.02256617975971" lon="12.079010026451542"><ele>486.0</ele><time>2026-04-12T09:13:12.001Z</time></trkpt><trkpt lat="43.02246554837343" lon="12.078923240584606"><ele>485.5</ele><time>2026-04-12T09:13:13.001Z</time></trkpt><trkpt lat="43.022358393414386" lon="12.078835386798126"><ele>485.0</ele><time>2026-04-12T09:13:14.001Z</time></trkpt><trkpt lat="43.02225492013547" lon="12.07872594188074"><ele>485.0</ele><time>2026-04-12T09:13:15.001Z</time></trkpt><trkpt lat="43.022142901997704" lon="12.078594682516993"><ele>485.0</ele><time>2026-04-12T09:13:16.001Z</time></trkpt><trkpt lat="43.022060099276906" lon="12.07846055021018"><ele>485.0</ele><time>2026-04-12T09:13:17.001Z</time></trkpt><trkpt lat="43.02201404557819" lon="12.078346887460583"><ele>485.0</ele><time>2026-04-12T09:13:18.001Z</time></trkpt><trkpt lat="43.02197951533239" lon="12.078222801520994"><ele>483.0</ele><time>2026-04-12T09:13:19.001Z</time></trkpt><trkpt lat="43.021942208085996" lon="12.078060108363134"><ele>481.0</ele><time>2026-04-12T09:13:20.001Z</time></trkpt><trkpt lat="43.02190172560113" lon="12.077868028966966"><ele>479.0</ele><time>2026-04-12T09:13:21.001Z</time></trkpt><trkpt lat="43.02185072365596" lon="12.077661288097287"><ele>477.0</ele><time>2026-04-12T09:13:22.001Z</time></trkpt><trkpt lat="43.02183279112098" lon="12.077441387053069"><ele>474.0</ele><time>2026-04-12T09:13:23.001Z</time></trkpt><trkpt lat="43.021801244343344" lon="12.077254891333016"><ele>471.0</ele><time>2026-04-12T09:13:24.001Z</time></trkpt><trkpt lat="43.02175049857149" lon="12.07709244546546"><ele>468.0</ele><time>2026-04-12T09:13:25.001Z</time></trkpt><trkpt lat="43.02172142233938" lon="12.076970590342697"><ele>465.0</ele><time>2026-04-12T09:13:26.001Z</time></trkpt><trkpt lat="43.02165539580542" lon="12.076880825367345"><ele>468.5</ele><time>2026-04-12T09:13:27.001Z</time></trkpt><trkpt lat="43.02156665300738" lon="12.076812417198044"><ele>472.0</ele><time>2026-04-12T09:13:28.001Z</time></trkpt><trkpt lat="43.02144924839313" lon="12.076748487374507"><ele>475.5</ele><time>2026-04-12T09:13:29.001Z</time></trkpt><trkpt lat="43.021305974663086" lon="12.076683664792224"><ele>479.0</ele><time>2026-04-12T09:13:30.001Z</time></trkpt><trkpt lat="43.021160494909815" lon="12.076611771345403"><ele>475.5</ele><time>2026-04-12T09:13:31.001Z</time></trkpt><trkpt lat="43.02106359602016" lon="12.0764959599453"><ele>472.0</ele><time>2026-04-12T09:13:32.001Z</time></trkpt><trkpt lat="43.020986653783446" lon="12.076390395998933"><ele>468.5</ele><time>2026-04-12T09:13:33.001Z</time></trkpt><trkpt lat="43.02092377176365" lon="12.076268054450978"><ele>465.0</ele><time>2026-04-12T09:13:34.001Z</time></trkpt><trkpt lat="43.02089666416026" lon="12.07611245048957"><ele>465.0</ele><time>2026-04-12T09:13:35.001Z</time></trkpt><trkpt lat="43.0208995057247" lon="12.075934896747977"><ele>465.0</ele><time>2026-04-12T09:13:36.001Z</time></trkpt><trkpt lat="43.02090089822167" lon="12.075751893707814"><ele>465.0</ele><time>2026-04-12T09:13:37.001Z</time></trkpt><trkpt lat="43.02087452624158" lon="12.075599481805055"><ele>465.0</ele><time>2026-04-12T09:13:38.001Z</time></trkpt><trkpt lat="43.020829444351534" lon="12.07546943264311"><ele>462.0</ele><time>2026-04-12T09:13:39.001Z</time></trkpt><trkpt lat="43.020750103808496" lon="12.075385161251331"><ele>459.0</ele><time>2026-04-12T09:13:40.001Z</time></trkpt><trkpt lat="43.02064174319686" lon="12.075322798748969"><ele>456.0</ele><time>2026-04-12T09:13:41.001Z</time></trkpt><trkpt lat="43.0204842201648" lon="12.075324021353767"><ele>453.0</ele><time>2026-04-12T09:13:42.001Z</time></trkpt><trkpt lat="43.02032684521109" lon="12.07527080279041"><ele>453.0</ele><time>2026-04-12T09:13:43.001Z</time></trkpt><trkpt lat="43.020174157322074" lon="12.075204885790711"><ele>453.0</ele><time>2026-04-12T09:13:44.001Z</time></trkpt><trkpt lat="43.02005879763906" lon="12.075136446294666"><ele>453.0</ele><time>2026-04-12T09:13:45.001Z</time></trkpt><trkpt lat="43.01997526807684" lon="12.075062633849631"><ele>453.0</ele><time>2026-04-12T09:13:46.001Z</time></trkpt><trkpt lat="43.019910836963746" lon="12.074968843197787"><ele>454.75</ele><time>2026-04-12T09:13:47.001Z</time></trkpt><trkpt lat="43.01982760795597" lon="12.07482455031843"><ele>456.5</ele><time>2026-04-12T09:13:48.001Z</time></trkpt><trkpt lat="43.01974614669269" lon="12.074655078705385"><ele>458.25</ele><time>2026-04-12T09:13:49.001Z</time></trkpt><trkpt lat="43.01967689945263" lon="12.074481587827936"><ele>460.0</ele><time>2026-04-12T09:13:50.001Z</time></trkpt><trkpt lat="43.019621656846596" lon="12.074321521335493"><ele>460.0</ele><time>2026-04-12T09:13:51.001Z</time></trkpt><trkpt lat="43.01957968254985" lon="12.074191215544511"><ele>460.0</ele><time>2026-04-12T09:13:52Z</time></trkpt><trkpt lat="43.01954818635433" lon="12.074088975176764"><ele>460.0</ele><time>2026-04-12T09:13:53Z</time></trkpt><trkpt lat="43.01956869707338" lon="12.073950415108971"><ele>460.0</ele><time>2026-04-12T09:13:54Z</time></trkpt><trkpt lat="43.01962704160715" lon="12.073806547903754"><ele>460.0</ele><time>2026-04-12T09:13:55Z</time></trkpt><trkpt lat="43.01969239197756" lon="12.073607820019168"><ele>459.6666666666667</ele><time>2026-04-12T09:13:56Z</time></trkpt><trkpt lat="43.01973508405672" lon="12.0733832555326"><ele>459.33333333333337</ele><time>2026-04-12T09:13:57Z</time></trkpt><trkpt lat="43.0197758561413" lon="12.073164356512745"><ele>459.0</ele><time>2026-04-12T09:13:58Z</time></trkpt><trkpt lat="43.01985661746818" lon="12.07297682303112"><ele>459.0</ele><time>2026-04-12T09:13:59Z</time></trkpt><trkpt lat="43.019938053268945" lon="12.072813458760004"><ele>459.0</ele><time>2026-04-12T09:14:00Z</time></trkpt><trkpt lat="43.020029607294994" lon="12.072655934933488"><ele>459.0</ele><time>2026-04-12T09:14:01Z</time></trkpt><trkpt lat="43.02010218661471" lon="12.072513506696477"><ele>459.0</ele><time>2026-04-12T09:14:02Z</time></trkpt><trkpt lat="43.0201752010263" lon="12.072425963475096"><ele>455.0</ele><time>2026-04-12T09:14:03Z</time></trkpt><trkpt lat="43.02022795673639" lon="12.072345832400412"><ele>451.0</ele><time>2026-04-12T09:14:04Z</time></trkpt><trkpt lat="43.02028413772132" lon="12.072267808085266"><ele>447.0</ele><time>2026-04-12T09:14:05Z</time></trkpt><trkpt lat="43.0203408739743" lon="12.072169695149677"><ele>443.0</ele><time>2026-04-12T09:14:06Z</time></trkpt><trkpt lat="43.020417818326" lon="12.07208455248476"><ele>439.0</ele><time>2026-04-12T09:14:07Z</time></trkpt><trkpt lat="43.020492047360186" lon="12.07201063756178"><ele>435.0</ele><time>2026-04-12T09:14:08Z</time></trkpt><trkpt lat="43.02057378567667" lon="12.071951777141862"><ele>435.0</ele><time>2026-04-12T09:14:09Z</time></trkpt><trkpt lat="43.02065933327255" lon="12.07191135603775"><ele>435.0</ele><time>2026-04-12T09:14:10Z</time></trkpt><trkpt lat="43.02074604693748" lon="12.071869946201414"><ele>435.0</ele><time>2026-04-12T09:14:11Z</time></trkpt><trkpt lat="43.02082492428904" lon="12.071817353031317"><ele>435.0</ele><time>2026-04-12T09:14:12Z</time></trkpt><trkpt lat="43.020902977857055" lon="12.071760735762659"><ele>435.0</ele><time>2026-04-12T09:14:13Z</time></trkpt><trkpt lat="43.02097802993797" lon="12.0717003537425"><ele>435.0</ele><time>2026-04-12T09:14:14Z</time></trkpt><trkpt lat="43.02104522968357" lon="12.07164639623226"><ele>430.6666666666667</ele><time>2026-04-12T09:14:15Z</time></trkpt><trkpt lat="43.021102474444326" lon="12.071605880783117"><ele>426.33333333333337</ele><time>2026-04-12T09:14:16Z</time></trkpt><trkpt lat="43.021163406556475" lon="12.071560025854671"><ele>422.0</ele><time>2026-04-12T09:14:17Z</time></trkpt><trkpt lat="43.02125123614911" lon="12.07147897348676"><ele>417.6666666666667</ele><time>2026-04-12T09:14:19Z</time></trkpt><trkpt lat="43.021286235786896" lon="12.071346198010222"><ele>413.33333333333337</ele><time>2026-04-12T09:14:22Z</time></trkpt><trkpt lat="43.02134152545004" lon="12.071226394476634"><ele>409.0</ele><time>2026-04-12T09:14:24Z</time></trkpt><trkpt lat="43.02135868887028" lon="12.071141341264601"><ele>409.00000000000006</ele><time>2026-04-12T09:14:25Z</time></trkpt><trkpt lat="43.021375175148734" lon="12.071038936865776"><ele>409.0</ele><time>2026-04-12T09:14:26Z</time></trkpt><trkpt lat="43.021392194967824" lon="12.070929216685775"><ele>409.0</ele><time>2026-04-12T09:14:27Z</time></trkpt><trkpt lat="43.021410683744946" lon="12.07082011056073"><ele>409.0</ele><time>2026-04-12T09:14:28Z</time></trkpt><trkpt lat="43.02143301837264" lon="12.070716066626263"><ele>409.00000000000006</ele><time>2026-04-12T09:14:29Z</time></trkpt><trkpt lat="43.02146412759343" lon="12.070631641027624"><ele>409.0</ele><time>2026-04-12T09:14:30Z</time></trkpt><trkpt lat="43.021508821093676" lon="12.07049996712453"><ele>408.33333333333337</ele><time>2026-04-12T09:14:32Z</time></trkpt><trkpt lat="43.02155750511951" lon="12.070441173986518"><ele>407.6666666666667</ele><time>2026-04-12T09:14:35Z</time></trkpt><trkpt lat="43.02142870482274" lon="12.070386316977045"><ele>407.0</ele><time>2026-04-12T09:14:37Z</time></trkpt><trkpt lat="43.02136647629781" lon="12.07042770229209"><ele>406.33333333333337</ele><time>2026-04-12T09:14:38Z</time></trkpt><trkpt lat="43.02130283065363" lon="12.07041269053954"><ele>405.6666666666667</ele><time>2026-04-12T09:14:39Z</time></trkpt><trkpt lat="43.021285205812475" lon="12.070266811769871"><ele>405.0</ele><time>2026-04-12T09:14:41Z</time></trkpt><trkpt lat="43.02130383005859" lon="12.070178996707462"><ele>405.0</ele><time>2026-04-12T09:14:42Z</time></trkpt><trkpt lat="43.02132162270418" lon="12.070064116264861"><ele>405.0</ele><time>2026-04-12T09:14:43Z</time></trkpt><trkpt lat="43.02135023931708" lon="12.069943279321599"><ele>405.0</ele><time>2026-04-12T09:14:44Z</time></trkpt><trkpt lat="43.021360400297255" lon="12.069842347555413"><ele>405.0</ele><time>2026-04-12T09:14:45Z</time></trkpt><trkpt lat="43.02136311278355" lon="12.069735952716577"><ele>405.0</ele><time>2026-04-12T09:14:46Z</time></trkpt><trkpt lat="43.02134686500791" lon="12.069617877345781"><ele>405.0</ele><time>2026-04-12T09:14:47Z</time></trkpt><trkpt lat="43.02130141925687" lon="12.069494002448614"><ele>403.8</ele><time>2026-04-12T09:14:48Z</time></trkpt><trkpt lat="43.021240053770505" lon="12.069371080459609"><ele>402.6</ele><time>2026-04-12T09:14:49Z</time></trkpt><trkpt lat="43.021169286623085" lon="12.069257729489195"><ele>401.4</ele><time>2026-04-12T09:14:50Z</time></trkpt><trkpt lat="43.02109518581465" lon="12.069161314065807"><ele>400.2</ele><time>2026-04-12T09:14:51Z</time></trkpt><trkpt lat="43.02102979025661" lon="12.069092441300397"><ele>399.0</ele><time>2026-04-12T09:14:52Z</time></trkpt><trkpt lat="43.020969775905584" lon="12.069046898767805"><ele>397.0</ele><time>2026-04-12T09:14:53Z</time></trkpt><trkpt lat="43.020942001499044" lon="12.06889208270808"><ele>395.0</ele><time>2026-04-12T09:14:55Z</time></trkpt><trkpt lat="43.02098278701809" lon="12.068717504795883"><ele>393.0</ele><time>2026-04-12T09:14:57Z</time></trkpt><trkpt lat="43.021012059864034" lon="12.068602414888579"><ele>391.0</ele><time>2026-04-12T09:14:58Z</time></trkpt><trkpt lat="43.02104250942433" lon="12.068480417684114"><ele>389.0</ele><time>2026-04-12T09:14:59Z</time></trkpt><trkpt lat="43.021038510777295" lon="12.068334876117506"><ele>386.5</ele><time>2026-04-12T09:15:00Z</time></trkpt><trkpt lat="43.02101110661312" lon="12.068184099320908"><ele>384.0</ele><time>2026-04-12T09:15:01Z</time></trkpt><trkpt lat="43.02099395849127" lon="12.068020977211901"><ele>381.5</ele><time>2026-04-12T09:15:02Z</time></trkpt><trkpt lat="43.020983083032185" lon="12.067852435780177"><ele>379.0</ele><time>2026-04-12T09:15:03Z</time></trkpt><trkpt lat="43.020983627517154" lon="12.067658622183297"><ele>379.0</ele><time>2026-04-12T09:15:05Z</time></trkpt><trkpt lat="43.02098459097811" lon="12.067568615630663"><ele>379.0</ele><time>2026-04-12T09:15:06Z</time></trkpt><trkpt lat="43.0210005950205" lon="12.067484371205039"><ele>379.0</ele><time>2026-04-12T09:15:08Z</time></trkpt><trkpt lat="43.02088443538191" lon="12.06740423041581"><ele>379.0</ele><time>2026-04-12T09:15:11Z</time></trkpt><trkpt lat="43.02074948971843" lon="12.067343931409624"><ele>379.0</ele><time>2026-04-12T09:15:13.001Z</time></trkpt><trkpt lat="43.02067248203753" lon="12.067277918286015"><ele>378.0</ele><time>2026-04-12T09:15:14.001Z</time></trkpt><trkpt lat="43.02058221123124" lon="12.067229044699948"><ele>377.0</ele><time>2026-04-12T09:15:15.001Z</time></trkpt><trkpt lat="43.02048852943327" lon="12.067207447745632"><ele>376.0</ele><time>2026-04-12T09:15:16.001Z</time></trkpt><trkpt lat="43.020396962793754" lon="12.067165788143308"><ele>375.0</ele><time>2026-04-12T09:15:17.001Z</time></trkpt><trkpt lat="43.02031003861101" lon="12.067118861328975"><ele>374.0</ele><time>2026-04-12T09:15:18.001Z</time></trkpt><trkpt lat="43.02023938802768" lon="12.06708768065406"><ele>374.0</ele><time>2026-04-12T09:15:19.001Z</time></trkpt><trkpt lat="43.02013875954763" lon="12.067020584782435"><ele>374.0</ele><time>2026-04-12T09:15:21.001Z</time></trkpt><trkpt lat="43.02012832370843" lon="12.066893566943003"><ele>374.0</ele><time>2026-04-12T09:15:23.001Z</time></trkpt><trkpt lat="43.02022183588297" lon="12.066843757420441"><ele>374.0</ele><time>2026-04-12T09:15:24.001Z</time></trkpt><trkpt lat="43.02035926306504" lon="12.066762858267321"><ele>374.0</ele><time>2026-04-12T09:15:26.001Z</time></trkpt><trkpt lat="43.02043094264529" lon="12.066741263670908"><ele>374.0</ele><time>2026-04-12T09:15:27.001Z</time></trkpt><trkpt lat="43.02050884391925" lon="12.066714308046771"><ele>374.0</ele><time>2026-04-12T09:15:28.001Z</time></trkpt><trkpt lat="43.020578332214335" lon="12.066671404051238"><ele>374.0</ele><time>2026-04-12T09:15:29.001Z</time></trkpt><trkpt lat="43.02063375274169" lon="12.066608806812118"><ele>374.0</ele><time>2026-04-12T09:15:30.001Z</time></trkpt><trkpt lat="43.02068072733291" lon="12.066518349782106"><ele>374.0</ele><time>2026-04-12T09:15:31.001Z</time></trkpt><trkpt lat="43.02073650591614" lon="12.066424007880572"><ele>374.4</ele><time>2026-04-12T09:15:32.001Z</time></trkpt><trkpt lat="43.02078321009346" lon="12.06628926235727"><ele>374.79999999999995</ele><time>2026-04-12T09:15:33.001Z</time></trkpt><trkpt lat="43.02082727745286" lon="12.066146850211126"><ele>375.20000000000005</ele><time>2026-04-12T09:15:34.001Z</time></trkpt><trkpt lat="43.020857488411025" lon="12.065998885937617"><ele>375.6</ele><time>2026-04-12T09:15:35.001Z</time></trkpt><trkpt lat="43.020909111134856" lon="12.065877114274784"><ele>376.0</ele><time>2026-04-12T09:15:36.001Z</time></trkpt><trkpt lat="43.020950254520855" lon="12.065758409679741"><ele>373.6</ele><time>2026-04-12T09:15:37.001Z</time></trkpt><trkpt lat="43.02099605038539" lon="12.065655078856267"><ele>371.20000000000005</ele><time>2026-04-12T09:15:38.001Z</time></trkpt><trkpt lat="43.02099937332927" lon="12.06552913481139"><ele>368.79999999999995</ele><time>2026-04-12T09:15:39.001Z</time></trkpt><trkpt lat="43.02100079649623" lon="12.06543272568202"><ele>366.4</ele><time>2026-04-12T09:15:40.001Z</time></trkpt><trkpt lat="43.02102850241507" lon="12.06529263722314"><ele>364.0</ele><time>2026-04-12T09:15:42.001Z</time></trkpt><trkpt lat="43.02115220069907" lon="12.065158378528988"><ele>364.0</ele><time>2026-04-12T09:15:44.001Z</time></trkpt><trkpt lat="43.02124347287589" lon="12.065064298852338"><ele>364.0</ele><time>2026-04-12T09:15:45.001Z</time></trkpt><trkpt lat="43.021325647643" lon="12.064975555578224"><ele>364.0</ele><time>2026-04-12T09:15:46.001Z</time></trkpt><trkpt lat="43.0214061808979" lon="12.064908821009167"><ele>364.0</ele><time>2026-04-12T09:15:47.001Z</time></trkpt><trkpt lat="43.02147118263416" lon="12.064846281211214"><ele>364.0</ele><time>2026-04-12T09:15:48.001Z</time></trkpt><trkpt lat="43.02155499365191" lon="12.064739600756784"><ele>362.79999999999995</ele><time>2026-04-12T09:15:50.001Z</time></trkpt><trkpt lat="43.02156062991992" lon="12.064552066558234"><ele>361.59999999999997</ele><time>2026-04-12T09:15:52.001Z</time></trkpt><trkpt lat="43.02156112929712" lon="12.06444598111727"><ele>360.4</ele><time>2026-04-12T09:15:53.001Z</time></trkpt><trkpt lat="43.02156255833763" lon="12.064327649442191"><ele>359.2</ele><time>2026-04-12T09:15:54.001Z</time></trkpt><trkpt lat="43.02155048845189" lon="12.064215674437005"><ele>358.0</ele><time>2026-04-12T09:15:55.001Z</time></trkpt><trkpt lat="43.02153826414246" lon="12.064090510107471"><ele>357.5</ele><time>2026-04-12T09:15:57.001Z</time></trkpt><trkpt lat="43.0215286491337" lon="12.063992062154005"><ele>357.0</ele><time>2026-04-12T09:15:59Z</time></trkpt><trkpt lat="43.021509233176246" lon="12.06390287240056"><ele>356.5</ele><time>2026-04-12T09:16:00Z</time></trkpt><trkpt lat="43.02150289184978" lon="12.06378907410858"><ele>356.0</ele><time>2026-04-12T09:16:01Z</time></trkpt><trkpt lat="43.02149052392984" lon="12.06365867761837"><ele>355.5</ele><time>2026-04-12T09:16:02Z</time></trkpt><trkpt lat="43.02148032425949" lon="12.06356415204331"><ele>355.0</ele><time>2026-04-12T09:16:03Z</time></trkpt><trkpt lat="43.02149215176276" lon="12.063444872455527"><ele>355.0</ele><time>2026-04-12T09:16:05Z</time></trkpt><trkpt lat="43.021492151762" lon="12.063355696055499"><ele>355.0</ele><time>2026-04-12T09:16:08Z</time></trkpt><trkpt lat="43.02149027355655" lon="12.063446313702539"><ele>355.0</ele><time>2026-04-12T09:16:14Z</time></trkpt><trkpt lat="43.021482796395745" lon="12.063650066072114"><ele>355.0</ele><time>2026-04-12T09:16:15Z</time></trkpt><trkpt lat="43.02148619784726" lon="12.063765500525841"><ele>355.0</ele><time>2026-04-12T09:16:16Z</time></trkpt><trkpt lat="43.02149617144177" lon="12.063902962119347"><ele>355.0</ele><time>2026-04-12T09:16:17Z</time></trkpt><trkpt lat="43.02149637997783" lon="12.064051178119998"><ele>355.0</ele><time>2026-04-12T09:16:18Z</time></trkpt><trkpt lat="43.0215066554105" lon="12.064190748368999"><ele>355.0</ele><time>2026-04-12T09:16:19Z</time></trkpt><trkpt lat="43.021530957147256" lon="12.064332930654496"><ele>355.0</ele><time>2026-04-12T09:16:21Z</time></trkpt><trkpt lat="43.02154177849874" lon="12.064418051009863"><ele>355.0</ele><time>2026-04-12T09:16:22Z</time></trkpt><trkpt lat="43.02154561518394" lon="12.064528182613769"><ele>355.5</ele><time>2026-04-12T09:16:23Z</time></trkpt><trkpt lat="43.02154079643146" lon="12.064637231450117"><ele>356.0</ele><time>2026-04-12T09:16:24Z</time></trkpt><trkpt lat="43.021529510617434" lon="12.064726403264661"><ele>356.5</ele><time>2026-04-12T09:16:25Z</time></trkpt><trkpt lat="43.02147367204124" lon="12.064850107390043"><ele>357.0</ele><time>2026-04-12T09:16:27Z</time></trkpt><trkpt lat="43.02141801571354" lon="12.064895384232564"><ele>357.5</ele><time>2026-04-12T09:16:29Z</time></trkpt><trkpt lat="43.021462784701" lon="12.06481700625086"><ele>358.0</ele><time>2026-04-12T09:16:31Z</time></trkpt><trkpt lat="43.021561574441805" lon="12.064856675992681"><ele>358.0</ele><time>2026-04-12T09:16:32Z</time></trkpt><trkpt lat="43.02163746107227" lon="12.064795737636707"><ele>358.0</ele><time>2026-04-12T09:16:33Z</time></trkpt><trkpt lat="43.021732828607824" lon="12.064733987755375"><ele>358.0</ele><time>2026-04-12T09:16:34Z</time></trkpt><trkpt lat="43.02178254794523" lon="12.064657301210083"><ele>358.0</ele><time>2026-04-12T09:16:35Z</time></trkpt><trkpt lat="43.02185977371763" lon="12.064606473044284"><ele>358.0</ele><time>2026-04-12T09:16:36Z</time></trkpt><trkpt lat="43.021923041821985" lon="12.064547064258916"><ele>358.0</ele><time>2026-04-12T09:16:37Z</time></trkpt><trkpt lat="43.02199958438509" lon="12.064480123253801"><ele>357.4</ele><time>2026-04-12T09:16:38Z</time></trkpt><trkpt lat="43.02206900175253" lon="12.064402573982255"><ele>356.79999999999995</ele><time>2026-04-12T09:16:39Z</time></trkpt><trkpt lat="43.02216826895752" lon="12.064341367185197"><ele>356.2</ele><time>2026-04-12T09:16:40Z</time></trkpt><trkpt lat="43.02222194654074" lon="12.06426118929123"><ele>355.6</ele><time>2026-04-12T09:16:41Z</time></trkpt><trkpt lat="43.02227371074941" lon="12.064209768369002"><ele>355.0</ele><time>2026-04-12T09:16:42Z</time></trkpt><trkpt lat="43.022408614513104" lon="12.064080287162838"><ele>352.8</ele><time>2026-04-12T09:16:44Z</time></trkpt><trkpt lat="43.02250194740113" lon="12.064033413659716"><ele>350.6</ele><time>2026-04-12T09:16:45Z</time></trkpt><trkpt lat="43.0225676753549" lon="12.063962334220745"><ele>348.4</ele><time>2026-04-12T09:16:46Z</time></trkpt><trkpt lat="43.02265483481306" lon="12.063906222679568"><ele>346.2</ele><time>2026-04-12T09:16:47Z</time></trkpt><trkpt lat="43.02275528202982" lon="12.063867329600093"><ele>344.0</ele><time>2026-04-12T09:16:48Z</time></trkpt><trkpt lat="43.02283945444859" lon="12.063797446088168"><ele>344.0</ele><time>2026-04-12T09:16:49Z</time></trkpt><trkpt lat="43.02291796890859" lon="12.063733022308115"><ele>344.0</ele><time>2026-04-12T09:16:50Z</time></trkpt><trkpt lat="43.02300397458342" lon="12.06369230049224"><ele>344.0</ele><time>2026-04-12T09:16:51Z</time></trkpt><trkpt lat="43.0230705268073" lon="12.063644637220113"><ele>344.0</ele><time>2026-04-12T09:16:52Z</time></trkpt><trkpt lat="43.02315501336149" lon="12.06358693972911"><ele>344.0</ele><time>2026-04-12T09:16:53Z</time></trkpt><trkpt lat="43.02323585778402" lon="12.06353731589033"><ele>344.0</ele><time>2026-04-12T09:16:54Z</time></trkpt><trkpt lat="43.023311612365525" lon="12.063471868942338"><ele>343.0</ele><time>2026-04-12T09:16:55Z</time></trkpt><trkpt lat="43.02338718495671" lon="12.06342213927693"><ele>342.0</ele><time>2026-04-12T09:16:56Z</time></trkpt><trkpt lat="43.0234592184061" lon="12.063369652580823"><ele>341.0</ele><time>2026-04-12T09:16:57Z</time></trkpt><trkpt lat="43.02352524214643" lon="12.063308843349303"><ele>340.0</ele><time>2026-04-12T09:16:58Z</time></trkpt><trkpt lat="43.02358149080369" lon="12.06323436358213"><ele>339.0</ele><time>2026-04-12T09:16:59Z</time></trkpt><trkpt lat="43.023625526449635" lon="12.063148824096768"><ele>338.0</ele><time>2026-04-12T09:17:00Z</time></trkpt><trkpt lat="43.02366317866305" lon="12.063066774843792"><ele>337.2</ele><time>2026-04-12T09:17:01Z</time></trkpt><trkpt lat="43.023706384274455" lon="12.062934129470419"><ele>336.4</ele><time>2026-04-12T09:17:03Z</time></trkpt><trkpt lat="43.0237587136534" lon="12.062857431440726"><ele>335.59999999999997</ele><time>2026-04-12T09:17:06Z</time></trkpt><trkpt lat="43.02381458983948" lon="12.062759737627205"><ele>334.79999999999995</ele><time>2026-04-12T09:17:09Z</time></trkpt><trkpt lat="43.0238631955569" lon="12.062626636346298"><ele>334.0</ele><time>2026-04-12T09:17:11.001Z</time></trkpt><trkpt lat="43.02400785887001" lon="12.062671601135152"><ele>334.0</ele><time>2026-04-12T09:17:12.001Z</time></trkpt><trkpt lat="43.02404081853535" lon="12.062575897612973"><ele>334.0</ele><time>2026-04-12T09:17:14.001Z</time></trkpt><trkpt lat="43.024038499359946" lon="12.062426318914374"><ele>334.0</ele><time>2026-04-12T09:17:16.001Z</time></trkpt><trkpt lat="43.02403986165689" lon="12.062273760402014"><ele>334.0</ele><time>2026-04-12T09:17:18.001Z</time></trkpt><trkpt lat="43.02410202250935" lon="12.06211640909029"><ele>334.0</ele><time>2026-04-12T09:17:20.001Z</time></trkpt><trkpt lat="43.02415130888382" lon="12.06201825408824"><ele>332.5</ele><time>2026-04-12T09:17:21.001Z</time></trkpt><trkpt lat="43.02419964979431" lon="12.061923149034758"><ele>331.0</ele><time>2026-04-12T09:17:22.001Z</time></trkpt><trkpt lat="43.02423088162628" lon="12.061825117992797"><ele>329.5</ele><time>2026-04-12T09:17:23.001Z</time></trkpt><trkpt lat="43.02425715632506" lon="12.061725654590447"><ele>328.0</ele><time>2026-04-12T09:17:24.001Z</time></trkpt><trkpt lat="43.0242747302711" lon="12.061619507151066"><ele>326.5</ele><time>2026-04-12T09:17:25.001Z</time></trkpt><trkpt lat="43.024277618107575" lon="12.061450033408214"><ele>325.0</ele><time>2026-04-12T09:17:27.001Z</time></trkpt><trkpt lat="43.02426460638324" lon="12.061359768383452"><ele>324.16666666666663</ele><time>2026-04-12T09:17:28.001Z</time></trkpt><trkpt lat="43.02425983964144" lon="12.061262253160091"><ele>323.3333333333333</ele><time>2026-04-12T09:17:29.001Z</time></trkpt><trkpt lat="43.02425291816647" lon="12.061091706466556"><ele>322.5</ele><time>2026-04-12T09:17:31.001Z</time></trkpt><trkpt lat="43.02425859957384" lon="12.060989794223426"><ele>321.6666666666667</ele><time>2026-04-12T09:17:32.001Z</time></trkpt><trkpt lat="43.02427853021568" lon="12.060877478630031"><ele>320.83333333333337</ele><time>2026-04-12T09:17:33.001Z</time></trkpt><trkpt lat="43.024295354528846" lon="12.0607769198818"><ele>320.0</ele><time>2026-04-12T09:17:34.001Z</time></trkpt><trkpt lat="43.02432998224672" lon="12.060697264399682"><ele>319.4</ele><time>2026-04-12T09:17:35.001Z</time></trkpt><trkpt lat="43.0243841844917" lon="12.060556309819203"><ele>318.8</ele><time>2026-04-12T09:17:37.001Z</time></trkpt><trkpt lat="43.024397416067266" lon="12.06046542581919"><ele>318.2</ele><time>2026-04-12T09:17:38.001Z</time></trkpt><trkpt lat="43.02437219897752" lon="12.060356956668619"><ele>317.6</ele><time>2026-04-12T09:17:40.001Z</time></trkpt><trkpt lat="43.0243392288375" lon="12.060240656991175"><ele>317.0</ele><time>2026-04-12T09:17:43.001Z</time></trkpt><trkpt lat="43.0242929457151" lon="12.060097208224933"><ele>317.0</ele><time>2026-04-12T09:17:45.001Z</time></trkpt><trkpt lat="43.02425521263996" lon="12.060023336439144"><ele>317.0</ele><time>2026-04-12T09:17:47.001Z</time></trkpt><trkpt lat="43.02423551474247" lon="12.05992288482151"><ele>317.0</ele><time>2026-04-12T09:17:50.001Z</time></trkpt><trkpt lat="43.024218402364575" lon="12.05979601195529"><ele>317.0</ele><time>2026-04-12T09:17:52.001Z</time></trkpt><trkpt lat="43.024199855211286" lon="12.059649631969089"><ele>317.0</ele><time>2026-04-12T09:17:54.001Z</time></trkpt><trkpt lat="43.02417198535689" lon="12.059472719929122"><ele>316.4</ele><time>2026-04-12T09:17:56.001Z</time></trkpt><trkpt lat="43.02415150436436" lon="12.059362276278947"><ele>315.79999999999995</ele><time>2026-04-12T09:17:57.001Z</time></trkpt><trkpt lat="43.02414563550099" lon="12.059268399677086"><ele>315.2</ele><time>2026-04-12T09:17:58.001Z</time></trkpt><trkpt lat="43.02411485628981" lon="12.05908945664558"><ele>314.59999999999997</ele><time>2026-04-12T09:18:00.001Z</time></trkpt><trkpt lat="43.024091087653204" lon="12.059009222233533"><ele>314.0</ele><time>2026-04-12T09:18:01.001Z</time></trkpt><trkpt lat="43.02405887293538" lon="12.058863071946995"><ele>312.0</ele><time>2026-04-12T09:18:03.001Z</time></trkpt><trkpt lat="43.024037447275745" lon="12.058711784360234"><ele>310.0</ele><time>2026-04-12T09:18:05Z</time></trkpt><trkpt lat="43.02404142550038" lon="12.058536975517235"><ele>308.0</ele><time>2026-04-12T09:18:07Z</time></trkpt><trkpt lat="43.0240536904562" lon="12.05843729946202"><ele>306.0</ele><time>2026-04-12T09:18:08Z</time></trkpt><trkpt lat="43.024064775548794" lon="12.058349574041085"><ele>304.0</ele><time>2026-04-12T09:18:09Z</time></trkpt><trkpt lat="43.024085348245606" lon="12.058185194936724"><ele>302.59999999999997</ele><time>2026-04-12T09:18:11Z</time></trkpt><trkpt lat="43.024146986129566" lon="12.058096837728046"><ele>301.2</ele><time>2026-04-12T09:18:13Z</time></trkpt><trkpt lat="43.024202554193494" lon="12.057977516388613"><ele>299.79999999999995</ele><time>2026-04-12T09:18:15Z</time></trkpt><trkpt lat="43.024271680696685" lon="12.057862229644728"><ele>298.4</ele><time>2026-04-12T09:18:17Z</time></trkpt><trkpt lat="43.02434908396423" lon="12.05777443428413"><ele>297.0</ele><time>2026-04-12T09:18:19Z</time></trkpt><trkpt lat="43.024401053726926" lon="12.0576993467778"><ele>297.0</ele><time>2026-04-12T09:18:21Z</time></trkpt><trkpt lat="43.024450620520476" lon="12.057619472095677"><ele>297.0</ele><time>2026-04-12T09:18:23Z</time></trkpt><trkpt lat="43.02456611246591" lon="12.057516055434803"><ele>297.0</ele><time>2026-04-12T09:18:25Z</time></trkpt><trkpt lat="43.02463931983495" lon="12.057460553207545"><ele>297.0</ele><time>2026-04-12T09:18:26Z</time></trkpt><trkpt lat="43.02470360665872" lon="12.057409071607312"><ele>297.0</ele><time>2026-04-12T09:18:27Z</time></trkpt><trkpt lat="43.02478221027417" lon="12.057288242282675"><ele>296.0</ele><time>2026-04-12T09:18:29Z</time></trkpt><trkpt lat="43.02484222327538" lon="12.057240237397295"><ele>295.0</ele><time>2026-04-12T09:18:30Z</time></trkpt><trkpt lat="43.02489440869931" lon="12.057177565379074"><ele>294.0</ele><time>2026-04-12T09:18:31Z</time></trkpt><trkpt lat="43.02498428288251" lon="12.057067498879421"><ele>293.0</ele><time>2026-04-12T09:18:33Z</time></trkpt><trkpt lat="43.025064522647966" lon="12.056955303305857"><ele>292.0</ele><time>2026-04-12T09:18:35Z</time></trkpt><trkpt lat="43.02514871592097" lon="12.056847416904713"><ele>292.0</ele><time>2026-04-12T09:18:37Z</time></trkpt><trkpt lat="43.025194233381846" lon="12.056778559745593"><ele>292.0</ele><time>2026-04-12T09:18:38Z</time></trkpt><trkpt lat="43.025260626423915" lon="12.056648451008877"><ele>292.0</ele><time>2026-04-12T09:18:40Z</time></trkpt><trkpt lat="43.025338206219935" lon="12.056554293434708"><ele>292.0</ele><time>2026-04-12T09:18:42Z</time></trkpt><trkpt lat="43.02540778279265" lon="12.056547977018228"><ele>292.0</ele><time>2026-04-12T09:18:43Z</time></trkpt><trkpt lat="43.02548335879763" lon="12.056551992419463"><ele>292.0</ele><time>2026-04-12T09:18:44Z</time></trkpt><trkpt lat="43.02555212563756" lon="12.05652333432487"><ele>291.3333333333333</ele><time>2026-04-12T09:18:45Z</time></trkpt><trkpt lat="43.02563157881088" lon="12.056488223600152"><ele>290.66666666666663</ele><time>2026-04-12T09:18:46Z</time></trkpt><trkpt lat="43.02572040484026" lon="12.056417363997879"><ele>290.0</ele><time>2026-04-12T09:18:47Z</time></trkpt><trkpt lat="43.02578197392098" lon="12.056343569969707"><ele>289.3333333333333</ele><time>2026-04-12T09:18:48Z</time></trkpt><trkpt lat="43.02580451892312" lon="12.056254451067232"><ele>288.6666666666667</ele><time>2026-04-12T09:18:49Z</time></trkpt><trkpt lat="43.02583577806712" lon="12.056141606757924"><ele>288.0</ele><time>2026-04-12T09:18:50Z</time></trkpt><trkpt lat="43.02586283880907" lon="12.055982328281228"><ele>288.0</ele><time>2026-04-12T09:18:51Z</time></trkpt><trkpt lat="43.02593767607005" lon="12.05582411303641"><ele>288.0</ele><time>2026-04-12T09:18:52Z</time></trkpt><trkpt lat="43.02600447038026" lon="12.055656566273361"><ele>288.0</ele><time>2026-04-12T09:18:53Z</time></trkpt><trkpt lat="43.02603606106699" lon="12.055494093881403"><ele>288.0</ele><time>2026-04-12T09:18:54Z</time></trkpt><trkpt lat="43.02606379463482" lon="12.0553766827715"><ele>287.6</ele><time>2026-04-12T09:18:55Z</time></trkpt><trkpt lat="43.026078970763" lon="12.055254652602487"><ele>287.20000000000005</ele><time>2026-04-12T09:18:56Z</time></trkpt><trkpt lat="43.0260907243605" lon="12.055128744597617"><ele>286.8</ele><time>2026-04-12T09:18:57Z</time></trkpt><trkpt lat="43.02610331150893" lon="12.055014432884347"><ele>286.40000000000003</ele><time>2026-04-12T09:18:58Z</time></trkpt><trkpt lat="43.02613934210185" lon="12.054930918645447"><ele>286.0</ele><time>2026-04-12T09:18:59Z</time></trkpt><trkpt lat="43.02620498409898" lon="12.054782869409761"><ele>286.0</ele><time>2026-04-12T09:19:01Z</time></trkpt><trkpt lat="43.02625992398842" lon="12.054711228511247"><ele>286.0</ele><time>2026-04-12T09:19:02Z</time></trkpt><trkpt lat="43.02631935497198" lon="12.054625068391315"><ele>286.0</ele><time>2026-04-12T09:19:03Z</time></trkpt><trkpt lat="43.026397121312215" lon="12.054540244451175"><ele>286.0</ele><time>2026-04-12T09:19:04Z</time></trkpt><trkpt lat="43.02643609564898" lon="12.054436266940002"><ele>286.0</ele><time>2026-04-12T09:19:05Z</time></trkpt><trkpt lat="43.0264762136508" lon="12.054358623172867"><ele>286.0</ele><time>2026-04-12T09:19:06Z</time></trkpt><trkpt lat="43.02653322435811" lon="12.054262465361239"><ele>286.0</ele><time>2026-04-12T09:19:08Z</time></trkpt><trkpt lat="43.02659179430769" lon="12.054213322400692"><ele>286.0</ele><time>2026-04-12T09:19:10Z</time></trkpt><trkpt lat="43.026667676087364" lon="12.054266133662159"><ele>286.0</ele><time>2026-04-12T09:19:11Z</time></trkpt><trkpt lat="43.026736577498845" lon="12.054254572189384"><ele>286.0</ele><time>2026-04-12T09:19:12Z</time></trkpt><trkpt lat="43.02680936498833" lon="12.05426987727113"><ele>286.0</ele><time>2026-04-12T09:19:13Z</time></trkpt><trkpt lat="43.02689443037632" lon="12.05428393697384"><ele>286.0</ele><time>2026-04-12T09:19:14Z</time></trkpt><trkpt lat="43.026993614109266" lon="12.054295797353518"><ele>285.5</ele><time>2026-04-12T09:19:15Z</time></trkpt><trkpt lat="43.027118327934815" lon="12.054313621432478"><ele>285.0</ele><time>2026-04-12T09:19:16Z</time></trkpt><trkpt lat="43.02727040434824" lon="12.054342197830115"><ele>284.5</ele><time>2026-04-12T09:19:17Z</time></trkpt><trkpt lat="43.02742305469516" lon="12.054370213261207"><ele>284.0</ele><time>2026-04-12T09:19:18.001Z</time></trkpt><trkpt lat="43.02758237346832" lon="12.054402340001273"><ele>285.6666666666667</ele><time>2026-04-12T09:19:19.001Z</time></trkpt><trkpt lat="43.02773667202518" lon="12.054431437112154"><ele>287.3333333333333</ele><time>2026-04-12T09:19:20.001Z</time></trkpt><trkpt lat="43.027891543133435" lon="12.054459005666395"><ele>289.0</ele><time>2026-04-12T09:19:21.001Z</time></trkpt><trkpt lat="43.02805046972705" lon="12.054485111122947"><ele>289.0</ele><time>2026-04-12T09:19:22.001Z</time></trkpt><trkpt lat="43.02821131005029" lon="12.054514800210784"><ele>289.0</ele><time>2026-04-12T09:19:23.001Z</time></trkpt><trkpt lat="43.02837159201707" lon="12.054540831210018"><ele>289.0</ele><time>2026-04-12T09:19:24.001Z</time></trkpt><trkpt lat="43.02851100406838" lon="12.05456603544215"><ele>290.8</ele><time>2026-04-12T09:19:25.001Z</time></trkpt><trkpt lat="43.028636888860234" lon="12.054587834445858"><ele>292.59999999999997</ele><time>2026-04-12T09:19:26.001Z</time></trkpt><trkpt lat="43.02872886774286" lon="12.054605571491157"><ele>294.4</ele><time>2026-04-12T09:19:27.001Z</time></trkpt><trkpt lat="43.02882111478312" lon="12.054629994914894"><ele>296.2</ele><time>2026-04-12T09:19:29.001Z</time></trkpt><trkpt lat="43.028895554497254" lon="12.054652814058873"><ele>298.0</ele><time>2026-04-12T09:19:33.001Z</time></trkpt><trkpt lat="43.02894670049044" lon="12.054428505937095"><ele>298.0</ele><time>2026-04-12T09:19:34.001Z</time></trkpt><trkpt lat="43.02899977048349" lon="12.054295828407955"><ele>298.0</ele><time>2026-04-12T09:19:35.001Z</time></trkpt><trkpt lat="43.02904201415749" lon="12.054149580112261"><ele>298.0</ele><time>2026-04-12T09:19:36.001Z</time></trkpt><trkpt lat="43.029096155856834" lon="12.05398428804079"><ele>298.0</ele><time>2026-04-12T09:19:37.001Z</time></trkpt><trkpt lat="43.02917137845222" lon="12.05381529794665"><ele>298.3333333333333</ele><time>2026-04-12T09:19:38.001Z</time></trkpt><trkpt lat="43.02925404212949" lon="12.053637577484977"><ele>298.6666666666667</ele><time>2026-04-12T09:19:39.001Z</time></trkpt><trkpt lat="43.029357397528074" lon="12.053475553060608"><ele>299.0</ele><time>2026-04-12T09:19:40.001Z</time></trkpt><trkpt lat="43.02946242533737" lon="12.053298177483153"><ele>299.6666666666667</ele><time>2026-04-12T09:19:41.001Z</time></trkpt><trkpt lat="43.029570578118324" lon="12.053106301438135"><ele>300.3333333333333</ele><time>2026-04-12T09:19:42.001Z</time></trkpt><trkpt lat="43.02967179036085" lon="12.052938930390596"><ele>301.0</ele><time>2026-04-12T09:19:43.001Z</time></trkpt><trkpt lat="43.02975264354497" lon="12.052753724039878"><ele>301.0</ele><time>2026-04-12T09:19:44.001Z</time></trkpt><trkpt lat="43.02981776652013" lon="12.052549599992824"><ele>301.0</ele><time>2026-04-12T09:19:45.001Z</time></trkpt><trkpt lat="43.02986670340442" lon="12.052321075422515"><ele>301.0</ele><time>2026-04-12T09:19:46.001Z</time></trkpt><trkpt lat="43.02991098707274" lon="12.052079905896516"><ele>301.0</ele><time>2026-04-12T09:19:47.001Z</time></trkpt><trkpt lat="43.02998035448749" lon="12.051844348020735"><ele>301.0</ele><time>2026-04-12T09:19:48.001Z</time></trkpt><trkpt lat="43.03002930392291" lon="12.051601481118972"><ele>301.0</ele><time>2026-04-12T09:19:49.001Z</time></trkpt><trkpt lat="43.030047769744606" lon="12.051375159438889"><ele>301.0</ele><time>2026-04-12T09:19:50.001Z</time></trkpt><trkpt lat="43.030050561138054" lon="12.051235415966579"><ele>301.0</ele><time>2026-04-12T09:19:51.001Z</time></trkpt><trkpt lat="43.03005962066466" lon="12.051140882228268"><ele>301.0</ele><time>2026-04-12T09:19:55.001Z</time></trkpt><trkpt lat="43.03004765885184" lon="12.051031888563546"><ele>301.0</ele><time>2026-04-12T09:19:58.001Z</time></trkpt><trkpt lat="43.03002197405538" lon="12.050943511669306"><ele>301.0</ele><time>2026-04-12T09:20:17Z</time></trkpt><trkpt lat="43.029999855916465" lon="12.051187365984784"><ele>301.0</ele><time>2026-04-12T09:20:24Z</time></trkpt><trkpt lat="43.030055145067394" lon="12.051245605459316"><ele>301.0</ele><time>2026-04-12T09:20:26Z</time></trkpt><trkpt lat="43.030173953414824" lon="12.051249291048372"><ele>301.0</ele><time>2026-04-12T09:20:28Z</time></trkpt><trkpt lat="43.03027144666464" lon="12.051258649091325"><ele>301.0</ele><time>2026-04-12T09:20:29Z</time></trkpt><trkpt lat="43.03035365562683" lon="12.051279136819375"><ele>301.0</ele><time>2026-04-12T09:20:30Z</time></trkpt><trkpt lat="43.03044993243881" lon="12.05137041061734"><ele>301.0</ele><time>2026-04-12T09:20:32Z</time></trkpt><trkpt lat="43.030492757555905" lon="12.051456083428217"><ele>301.0</ele><time>2026-04-12T09:20:33Z</time></trkpt><trkpt lat="43.0305330880435" lon="12.051570986563172"><ele>301.0</ele><time>2026-04-12T09:20:34Z</time></trkpt><trkpt lat="43.03058742830012" lon="12.05169584768285"><ele>301.0</ele><time>2026-04-12T09:20:35Z</time></trkpt><trkpt lat="43.030658598730795" lon="12.051831784351455"><ele>301.0</ele><time>2026-04-12T09:20:36Z</time></trkpt><trkpt lat="43.03071844057974" lon="12.051961864783637"><ele>300.8333333333333</ele><time>2026-04-12T09:20:37Z</time></trkpt><trkpt lat="43.03076128000169" lon="12.0520926082761"><ele>300.66666666666663</ele><time>2026-04-12T09:20:38Z</time></trkpt><trkpt lat="43.03082825745419" lon="12.052185435522745"><ele>300.5</ele><time>2026-04-12T09:20:39Z</time></trkpt><trkpt lat="43.03086119009992" lon="12.052275021671338"><ele>300.3333333333333</ele><time>2026-04-12T09:20:40Z</time></trkpt><trkpt lat="43.03090183430752" lon="12.052342315258201"><ele>300.1666666666667</ele><time>2026-04-12T09:20:41Z</time></trkpt><trkpt lat="43.031007597433195" lon="12.052372932697152"><ele>300.0</ele><time>2026-04-12T09:20:43Z</time></trkpt><trkpt lat="43.03108189386038" lon="12.0522795103875"><ele>298.0</ele><time>2026-04-12T09:20:45Z</time></trkpt><trkpt lat="43.031122091451124" lon="12.052194285490705"><ele>296.0</ele><time>2026-04-12T09:20:46Z</time></trkpt><trkpt lat="43.031174771496104" lon="12.052099836729035"><ele>294.0</ele><time>2026-04-12T09:20:47Z</time></trkpt><trkpt lat="43.03123245331748" lon="12.051991066491507"><ele>292.0</ele><time>2026-04-12T09:20:48Z</time></trkpt><trkpt lat="43.031290714490126" lon="12.051864662604347"><ele>290.0</ele><time>2026-04-12T09:20:49Z</time></trkpt><trkpt lat="43.03134806006431" lon="12.05173813964552"><ele>290.25</ele><time>2026-04-12T09:20:50Z</time></trkpt><trkpt lat="43.031409782005916" lon="12.051622979080587"><ele>290.5</ele><time>2026-04-12T09:20:51Z</time></trkpt><trkpt lat="43.031477278404395" lon="12.05150482186877"><ele>290.75</ele><time>2026-04-12T09:20:52Z</time></trkpt><trkpt lat="43.03154538671383" lon="12.051369186071229"><ele>291.0</ele><time>2026-04-12T09:20:53Z</time></trkpt><trkpt lat="43.031614237657585" lon="12.051241910771328"><ele>289.0</ele><time>2026-04-12T09:20:54Z</time></trkpt><trkpt lat="43.031674592477195" lon="12.051121294134465"><ele>287.0</ele><time>2026-04-12T09:20:55Z</time></trkpt><trkpt lat="43.031735229628914" lon="12.050995930323767"><ele>285.0</ele><time>2026-04-12T09:20:56Z</time></trkpt><trkpt lat="43.03179668053078" lon="12.050873119650841"><ele>283.0</ele><time>2026-04-12T09:20:57Z</time></trkpt><trkpt lat="43.031858939228115" lon="12.050745210048929"><ele>281.0</ele><time>2026-04-12T09:20:58Z</time></trkpt><trkpt lat="43.03192356518418" lon="12.050615009187892"><ele>280.6</ele><time>2026-04-12T09:20:59Z</time></trkpt><trkpt lat="43.03198427923459" lon="12.050498257694164"><ele>280.20000000000005</ele><time>2026-04-12T09:21:00Z</time></trkpt><trkpt lat="43.032045098658315" lon="12.050375789998272"><ele>279.79999999999995</ele><time>2026-04-12T09:21:01Z</time></trkpt><trkpt lat="43.03210259289206" lon="12.050253528944426"><ele>279.4</ele><time>2026-04-12T09:21:02Z</time></trkpt><trkpt lat="43.032179727823625" lon="12.050132260488471"><ele>279.0</ele><time>2026-04-12T09:21:03Z</time></trkpt><trkpt lat="43.03224100244016" lon="12.05000588152702"><ele>278.4</ele><time>2026-04-12T09:21:04Z</time></trkpt><trkpt lat="43.032300553130064" lon="12.049884366305697"><ele>277.79999999999995</ele><time>2026-04-12T09:21:05Z</time></trkpt><trkpt lat="43.032354959617635" lon="12.049754959411962"><ele>277.20000000000005</ele><time>2026-04-12T09:21:06Z</time></trkpt><trkpt lat="43.032427172008965" lon="12.049633144167743"><ele>276.6</ele><time>2026-04-12T09:21:07Z</time></trkpt><trkpt lat="43.03250210960189" lon="12.049511139195056"><ele>276.0</ele><time>2026-04-12T09:21:08Z</time></trkpt><trkpt lat="43.03257800900539" lon="12.04939257907417"><ele>275.25</ele><time>2026-04-12T09:21:09Z</time></trkpt><trkpt lat="43.03266609580363" lon="12.049271965354366"><ele>274.5</ele><time>2026-04-12T09:21:10Z</time></trkpt><trkpt lat="43.032754573078975" lon="12.049155480285146"><ele>273.75</ele><time>2026-04-12T09:21:11Z</time></trkpt><trkpt lat="43.032839975092" lon="12.049012596764733"><ele>273.0</ele><time>2026-04-12T09:21:12Z</time></trkpt><trkpt lat="43.03292803860492" lon="12.04885942156001"><ele>272.25</ele><time>2026-04-12T09:21:13Z</time></trkpt><trkpt lat="43.03302296861932" lon="12.048690720051269"><ele>271.5</ele><time>2026-04-12T09:21:14Z</time></trkpt><trkpt lat="43.03311141804273" lon="12.048525675618174"><ele>270.75</ele><time>2026-04-12T09:21:15Z</time></trkpt><trkpt lat="43.033192928070754" lon="12.048373144142394"><ele>270.0</ele><time>2026-04-12T09:21:16Z</time></trkpt><trkpt lat="43.03327392922079" lon="12.048230974545499"><ele>269.0</ele><time>2026-04-12T09:21:17Z</time></trkpt><trkpt lat="43.033355647831094" lon="12.04807985031507"><ele>268.0</ele><time>2026-04-12T09:21:18Z</time></trkpt><trkpt lat="43.03344602842858" lon="12.047927196817321"><ele>267.0</ele><time>2026-04-12T09:21:19Z</time></trkpt><trkpt lat="43.03355332628873" lon="12.047739077152025"><ele>267.0</ele><time>2026-04-12T09:21:20Z</time></trkpt><trkpt lat="43.0336631635745" lon="12.047553825568503"><ele>267.0</ele><time>2026-04-12T09:21:21Z</time></trkpt><trkpt lat="43.03377318785441" lon="12.047377341218596"><ele>267.0</ele><time>2026-04-12T09:21:22Z</time></trkpt><trkpt lat="43.03388500139459" lon="12.04718604635567"><ele>267.0</ele><time>2026-04-12T09:21:23Z</time></trkpt><trkpt lat="43.034006277795" lon="12.046977857330706"><ele>267.0</ele><time>2026-04-12T09:21:24Z</time></trkpt><trkpt lat="43.03411563571017" lon="12.046792466104161"><ele>267.0</ele><time>2026-04-12T09:21:25Z</time></trkpt><trkpt lat="43.034199012694955" lon="12.046649132897192"><ele>268.2</ele><time>2026-04-12T09:21:26Z</time></trkpt><trkpt lat="43.03426384016397" lon="12.046531100275143"><ele>269.4</ele><time>2026-04-12T09:21:27Z</time></trkpt><trkpt lat="43.034315670130205" lon="12.046443359896553"><ele>270.6</ele><time>2026-04-12T09:21:28Z</time></trkpt><trkpt lat="43.03436295221441" lon="12.046377145890576"><ele>271.8</ele><time>2026-04-12T09:21:29Z</time></trkpt><trkpt lat="43.03445510628741" lon="12.046335323953116"><ele>273.0</ele><time>2026-04-12T09:21:31Z</time></trkpt><trkpt lat="43.034504366267385" lon="12.046203912100836"><ele>273.0</ele><time>2026-04-12T09:21:33Z</time></trkpt><trkpt lat="43.03453537703384" lon="12.046114405620052"><ele>273.0</ele><time>2026-04-12T09:21:34Z</time></trkpt><trkpt lat="43.03459002994619" lon="12.046022592279838"><ele>273.0</ele><time>2026-04-12T09:21:35Z</time></trkpt><trkpt lat="43.03463868815971" lon="12.045929025197132"><ele>273.0</ele><time>2026-04-12T09:21:36Z</time></trkpt><trkpt lat="43.034682702547215" lon="12.045830027878567"><ele>273.0</ele><time>2026-04-12T09:21:37.001Z</time></trkpt><trkpt lat="43.03471748043948" lon="12.04571963950112"><ele>273.0</ele><time>2026-04-12T09:21:38.001Z</time></trkpt><trkpt lat="43.034758871045454" lon="12.045570162157484"><ele>272.6666666666667</ele><time>2026-04-12T09:21:39.001Z</time></trkpt><trkpt lat="43.03482204266821" lon="12.0453885612298"><ele>272.33333333333337</ele><time>2026-04-12T09:21:40.001Z</time></trkpt><trkpt lat="43.03484950444334" lon="12.045167629338268"><ele>272.0</ele><time>2026-04-12T09:21:41.001Z</time></trkpt><trkpt lat="43.034907863703985" lon="12.04494191054372"><ele>272.0</ele><time>2026-04-12T09:21:42.001Z</time></trkpt><trkpt lat="43.034950316873356" lon="12.044705480140932"><ele>272.0</ele><time>2026-04-12T09:21:43.001Z</time></trkpt><trkpt lat="43.034991401815354" lon="12.04446908061667"><ele>272.0</ele><time>2026-04-12T09:21:44.001Z</time></trkpt><trkpt lat="43.03503190038182" lon="12.04423352744429"><ele>271.5</ele><time>2026-04-12T09:21:45.001Z</time></trkpt><trkpt lat="43.0350678741707" lon="12.044024291848652"><ele>271.0</ele><time>2026-04-12T09:21:46.001Z</time></trkpt><trkpt lat="43.03509912394122" lon="12.043842532410363"><ele>270.5</ele><time>2026-04-12T09:21:47.001Z</time></trkpt><trkpt lat="43.03513104016881" lon="12.04366260215666"><ele>270.0</ele><time>2026-04-12T09:21:48.001Z</time></trkpt><trkpt lat="43.03516650272757" lon="12.04348797129199"><ele>269.6666666666667</ele><time>2026-04-12T09:21:49.001Z</time></trkpt><trkpt lat="43.0351971819949" lon="12.043275804533184"><ele>269.33333333333337</ele><time>2026-04-12T09:21:50.001Z</time></trkpt><trkpt lat="43.03526642314741" lon="12.043062811954094"><ele>269.0</ele><time>2026-04-12T09:21:51.001Z</time></trkpt><trkpt lat="43.035342181966605" lon="12.042853422271483"><ele>269.0</ele><time>2026-04-12T09:21:52.001Z</time></trkpt><trkpt lat="43.03534892342027" lon="12.04264142262531"><ele>269.0</ele><time>2026-04-12T09:21:53.001Z</time></trkpt><trkpt lat="43.03541230339215" lon="12.042458534608121"><ele>269.0</ele><time>2026-04-12T09:21:54.001Z</time></trkpt><trkpt lat="43.035463009072515" lon="12.042281980761516"><ele>269.0</ele><time>2026-04-12T09:21:55.001Z</time></trkpt><trkpt lat="43.03551402080135" lon="12.042113826476768"><ele>268.75</ele><time>2026-04-12T09:21:56.001Z</time></trkpt><trkpt lat="43.035564239069714" lon="12.041948187031329"><ele>268.5</ele><time>2026-04-12T09:21:57.001Z</time></trkpt><trkpt lat="43.035603318973294" lon="12.041808514930315"><ele>268.25</ele><time>2026-04-12T09:21:58.001Z</time></trkpt><trkpt lat="43.035641934889775" lon="12.041670503317281"><ele>268.0</ele><time>2026-04-12T09:21:59.001Z</time></trkpt><trkpt lat="43.035671726723415" lon="12.04153230464425"><ele>267.4</ele><time>2026-04-12T09:22:00.001Z</time></trkpt><trkpt lat="43.03568276381178" lon="12.041376073830047"><ele>266.8</ele><time>2026-04-12T09:22:01.001Z</time></trkpt><trkpt lat="43.03567858111319" lon="12.041221701956895"><ele>266.2</ele><time>2026-04-12T09:22:02.001Z</time></trkpt><trkpt lat="43.0356648073167" lon="12.041096244072572"><ele>265.6</ele><time>2026-04-12T09:22:03.001Z</time></trkpt><trkpt lat="43.03564209210839" lon="12.040990412365927"><ele>265.0</ele><time>2026-04-12T09:22:04.001Z</time></trkpt><trkpt lat="43.03560786165886" lon="12.040848504227396"><ele>265.0</ele><time>2026-04-12T09:22:06.001Z</time></trkpt><trkpt lat="43.035723505535934" lon="12.040815653884906"><ele>265.0</ele><time>2026-04-12T09:22:10.001Z</time></trkpt><trkpt lat="43.03581507546822" lon="12.040798907960953"><ele>265.0</ele><time>2026-04-12T09:22:11.001Z</time></trkpt><trkpt lat="43.035909101774536" lon="12.040761625542833"><ele>265.0</ele><time>2026-04-12T09:22:12.001Z</time></trkpt><trkpt lat="43.03600385409425" lon="12.040697646504238"><ele>265.0</ele><time>2026-04-12T09:22:13.001Z</time></trkpt><trkpt lat="43.03610632432903" lon="12.040632368094922"><ele>264.8</ele><time>2026-04-12T09:22:14.001Z</time></trkpt><trkpt lat="43.036182763081996" lon="12.040549707880276"><ele>264.6</ele><time>2026-04-12T09:22:15Z</time></trkpt><trkpt lat="43.03622856805071" lon="12.04047565866504"><ele>264.4</ele><time>2026-04-12T09:22:16Z</time></trkpt><trkpt lat="43.03627263762885" lon="12.040389536103575"><ele>264.2</ele><time>2026-04-12T09:22:17Z</time></trkpt><trkpt lat="43.03639785506657" lon="12.040335490145834"><ele>264.0</ele><time>2026-04-12T09:22:19Z</time></trkpt><trkpt lat="43.036507413230304" lon="12.040291367927367"><ele>264.0</ele><time>2026-04-12T09:22:21Z</time></trkpt><trkpt lat="43.03656000956152" lon="12.040178721440409"><ele>264.0</ele><time>2026-04-12T09:22:23Z</time></trkpt><trkpt lat="43.03654209980765" lon="12.040091906775375"><ele>264.0</ele><time>2026-04-12T09:22:24Z</time></trkpt><trkpt lat="43.0365417108689" lon="12.040003283071869"><ele>264.0</ele><time>2026-04-12T09:22:25Z</time></trkpt><trkpt lat="43.03652926900097" lon="12.039896921541711"><ele>264.0</ele><time>2026-04-12T09:22:26Z</time></trkpt><trkpt lat="43.036524851973596" lon="12.039785065591039"><ele>264.0</ele><time>2026-04-12T09:22:27Z</time></trkpt><trkpt lat="43.03654806100684" lon="12.039692728988976"><ele>264.0</ele><time>2026-04-12T09:22:28Z</time></trkpt><trkpt lat="43.03658321486858" lon="12.039594118611488"><ele>264.0</ele><time>2026-04-12T09:22:29Z</time></trkpt><trkpt lat="43.03663293394945" lon="12.0394924647847"><ele>264.0</ele><time>2026-04-12T09:22:30Z</time></trkpt><trkpt lat="43.03667807010343" lon="12.039395969211004"><ele>264.0</ele><time>2026-04-12T09:22:31Z</time></trkpt><trkpt lat="43.03670892805477" lon="12.03929018888518"><ele>264.0</ele><time>2026-04-12T09:22:32Z</time></trkpt><trkpt lat="43.03676661354069" lon="12.039176963040516"><ele>264.0</ele><time>2026-04-12T09:22:33Z</time></trkpt><trkpt lat="43.03682874032878" lon="12.039046653407016"><ele>263.5</ele><time>2026-04-12T09:22:34Z</time></trkpt><trkpt lat="43.036892776065486" lon="12.038904393927877"><ele>263.0</ele><time>2026-04-12T09:22:35Z</time></trkpt><trkpt lat="43.03696044793469" lon="12.038753948711422"><ele>262.5</ele><time>2026-04-12T09:22:36Z</time></trkpt><trkpt lat="43.037030048325384" lon="12.038608476235133"><ele>262.0</ele><time>2026-04-12T09:22:37Z</time></trkpt><trkpt lat="43.03708888868331" lon="12.038472871197511"><ele>262.0</ele><time>2026-04-12T09:22:38Z</time></trkpt><trkpt lat="43.03715434105194" lon="12.038360010409603"><ele>262.0</ele><time>2026-04-12T09:22:39Z</time></trkpt><trkpt lat="43.03719133046209" lon="12.03825190552411"><ele>262.0</ele><time>2026-04-12T09:22:40Z</time></trkpt><trkpt lat="43.03722771011548" lon="12.038162438535633"><ele>262.0</ele><time>2026-04-12T09:22:41Z</time></trkpt><trkpt lat="43.037274976754624" lon="12.038053892728575"><ele>262.0</ele><time>2026-04-12T09:22:42Z</time></trkpt><trkpt lat="43.0373346115986" lon="12.037930385540326"><ele>262.0</ele><time>2026-04-12T09:22:43Z</time></trkpt><trkpt lat="43.03738287712932" lon="12.037816155558865"><ele>262.0</ele><time>2026-04-12T09:22:44Z</time></trkpt><trkpt lat="43.037427626181454" lon="12.037713057109789"><ele>262.0</ele><time>2026-04-12T09:22:45Z</time></trkpt><trkpt lat="43.037466715288794" lon="12.037621966220279"><ele>262.0</ele><time>2026-04-12T09:22:46Z</time></trkpt><trkpt lat="43.0375024289276" lon="12.037543142529008"><ele>262.0</ele><time>2026-04-12T09:22:47Z</time></trkpt><trkpt lat="43.037547057915575" lon="12.037453787333154"><ele>262.0</ele><time>2026-04-12T09:22:48Z</time></trkpt><trkpt lat="43.037596246897046" lon="12.037369975465767"><ele>262.0</ele><time>2026-04-12T09:22:49Z</time></trkpt><trkpt lat="43.037640383117804" lon="12.037274302475497"><ele>262.0</ele><time>2026-04-12T09:22:50Z</time></trkpt><trkpt lat="43.037679787314524" lon="12.037188886770187"><ele>262.0</ele><time>2026-04-12T09:22:51Z</time></trkpt><trkpt lat="43.037718543138574" lon="12.037104876630234"><ele>262.0</ele><time>2026-04-12T09:22:52Z</time></trkpt><trkpt lat="43.03776246321664" lon="12.037009672307466"><ele>262.0</ele><time>2026-04-12T09:22:53Z</time></trkpt><trkpt lat="43.03780403519208" lon="12.03691813202617"><ele>262.0</ele><time>2026-04-12T09:22:54Z</time></trkpt><trkpt lat="43.03784317332217" lon="12.03683113876645"><ele>262.0</ele><time>2026-04-12T09:22:55Z</time></trkpt><trkpt lat="43.0378852860391" lon="12.036737533485125"><ele>262.0</ele><time>2026-04-12T09:22:56Z</time></trkpt><trkpt lat="43.037926627348604" lon="12.03664564246431"><ele>262.0</ele><time>2026-04-12T09:22:57Z</time></trkpt><trkpt lat="43.037965663747876" lon="12.036558875225557"><ele>262.0</ele><time>2026-04-12T09:22:58Z</time></trkpt><trkpt lat="43.038003271330545" lon="12.036475283962304"><ele>262.0</ele><time>2026-04-12T09:22:59Z</time></trkpt><trkpt lat="43.038067774381624" lon="12.036328680125175"><ele>262.0</ele><time>2026-04-12T09:23:01Z</time></trkpt><trkpt lat="43.03809185920521" lon="12.036224132298818"><ele>262.0</ele><time>2026-04-12T09:23:02Z</time></trkpt><trkpt lat="43.03814741634034" lon="12.036134634305046"><ele>262.0</ele><time>2026-04-12T09:23:03Z</time></trkpt><trkpt lat="43.03818596770362" lon="12.036045972777302"><ele>262.0</ele><time>2026-04-12T09:23:04Z</time></trkpt><trkpt lat="43.03822454188091" lon="12.035957219857934"><ele>262.0</ele><time>2026-04-12T09:23:05Z</time></trkpt><trkpt lat="43.03826268039617" lon="12.035869469073642"><ele>262.0</ele><time>2026-04-12T09:23:06Z</time></trkpt><trkpt lat="43.03828934848799" lon="12.035765616007923"><ele>262.0</ele><time>2026-04-12T09:23:07Z</time></trkpt><trkpt lat="43.03832666718935" lon="12.035680882799122"><ele>262.0</ele><time>2026-04-12T09:23:08Z</time></trkpt><trkpt lat="43.038370196983706" lon="12.035596201475995"><ele>262.0</ele><time>2026-04-12T09:23:09Z</time></trkpt><trkpt lat="43.0383990329611" lon="12.035508897398842"><ele>262.0</ele><time>2026-04-12T09:23:10Z</time></trkpt><trkpt lat="43.03844383537391" lon="12.035421009766662"><ele>262.0</ele><time>2026-04-12T09:23:11Z</time></trkpt><trkpt lat="43.03848608359928" lon="12.035324962715498"><ele>262.0</ele><time>2026-04-12T09:23:12Z</time></trkpt><trkpt lat="43.038528943558944" lon="12.03522290286912"><ele>262.0</ele><time>2026-04-12T09:23:13Z</time></trkpt><trkpt lat="43.03856698593534" lon="12.035131238144338"><ele>262.0</ele><time>2026-04-12T09:23:14Z</time></trkpt><trkpt lat="43.03860581246469" lon="12.035039044453091"><ele>262.0</ele><time>2026-04-12T09:23:15Z</time></trkpt><trkpt lat="43.03865360771458" lon="12.034955849107705"><ele>262.0</ele><time>2026-04-12T09:23:16Z</time></trkpt><trkpt lat="43.03869201683004" lon="12.03487314253468"><ele>262.0</ele><time>2026-04-12T09:23:17Z</time></trkpt><trkpt lat="43.03875362984218" lon="12.034748674012643"><ele>262.0</ele><time>2026-04-12T09:23:19Z</time></trkpt><trkpt lat="43.03878872565518" lon="12.034668787649718"><ele>262.0</ele><time>2026-04-12T09:23:21.001Z</time></trkpt><trkpt lat="43.038824331506675" lon="12.034583159482212"><ele>261.8333333333333</ele><time>2026-04-12T09:23:24.001Z</time></trkpt><trkpt lat="43.038850050716256" lon="12.03447557143111"><ele>261.66666666666663</ele><time>2026-04-12T09:23:27.001Z</time></trkpt><trkpt lat="43.03892183803889" lon="12.034397119647853"><ele>261.5</ele><time>2026-04-12T09:23:29.001Z</time></trkpt><trkpt lat="43.038926721001566" lon="12.034296721214513"><ele>261.3333333333333</ele><time>2026-04-12T09:23:30.001Z</time></trkpt><trkpt lat="43.03897831281806" lon="12.034207776904907"><ele>261.1666666666667</ele><time>2026-04-12T09:23:32.001Z</time></trkpt><trkpt lat="43.03905264356574" lon="12.034115685724846"><ele>261.0</ele><time>2026-04-12T09:23:34.001Z</time></trkpt><trkpt lat="43.03912357651561" lon="12.034050219863747"><ele>261.0</ele><time>2026-04-12T09:23:37.001Z</time></trkpt><trkpt lat="43.03913845195963" lon="12.033955319010342"><ele>261.0</ele><time>2026-04-12T09:23:40.001Z</time></trkpt><trkpt lat="43.039117868451534" lon="12.033830368764141"><ele>261.0</ele><time>2026-04-12T09:23:43.001Z</time></trkpt><trkpt lat="43.03906891976571" lon="12.033728307735533"><ele>261.0</ele><time>2026-04-12T09:23:45.001Z</time></trkpt><trkpt lat="43.03906526702455" lon="12.033551792541568"><ele>261.0</ele><time>2026-04-12T09:23:47.001Z</time></trkpt><trkpt lat="43.03907331428516" lon="12.03345166348326"><ele>261.0</ele><time>2026-04-12T09:23:48.001Z</time></trkpt><trkpt lat="43.039104856036964" lon="12.033324316291228"><ele>261.0</ele><time>2026-04-12T09:23:50.001Z</time></trkpt><trkpt lat="43.039150257832716" lon="12.033259532491092"><ele>261.0</ele><time>2026-04-12T09:23:52.001Z</time></trkpt><trkpt lat="43.03920192206847" lon="12.033184755672085"><ele>261.0</ele><time>2026-04-12T09:23:53.001Z</time></trkpt><trkpt lat="43.03926061360275" lon="12.033085857414834"><ele>261.0</ele><time>2026-04-12T09:23:54.001Z</time></trkpt><trkpt lat="43.03932553105989" lon="12.032981621203486"><ele>261.0</ele><time>2026-04-12T09:23:55.001Z</time></trkpt><trkpt lat="43.03938527465185" lon="12.032892131549637"><ele>261.0</ele><time>2026-04-12T09:23:56.001Z</time></trkpt><trkpt lat="43.03943849522541" lon="12.032806199290377"><ele>261.0</ele><time>2026-04-12T09:23:57.001Z</time></trkpt><trkpt lat="43.03948560342059" lon="12.032721706230621"><ele>261.0</ele><time>2026-04-12T09:23:58.001Z</time></trkpt><trkpt lat="43.039565483814044" lon="12.032637142424324"><ele>261.0</ele><time>2026-04-12T09:23:59.001Z</time></trkpt><trkpt lat="43.03961728265743" lon="12.032527598975488"><ele>261.0</ele><time>2026-04-12T09:24:00.001Z</time></trkpt><trkpt lat="43.03967336669362" lon="12.032432683944405"><ele>261.0</ele><time>2026-04-12T09:24:01.001Z</time></trkpt><trkpt lat="43.03974061156839" lon="12.032345906491123"><ele>261.0</ele><time>2026-04-12T09:24:02.001Z</time></trkpt><trkpt lat="43.03980083874414" lon="12.03224797925106"><ele>261.0</ele><time>2026-04-12T09:24:03.001Z</time></trkpt><trkpt lat="43.039847965566665" lon="12.032136079552444"><ele>261.0</ele><time>2026-04-12T09:24:04.001Z</time></trkpt><trkpt lat="43.03990936745443" lon="12.032040002866719"><ele>261.0</ele><time>2026-04-12T09:24:05.001Z</time></trkpt><trkpt lat="43.03997188353703" lon="12.031968649738706"><ele>261.0</ele><time>2026-04-12T09:24:06.001Z</time></trkpt><trkpt lat="43.040014113512534" lon="12.031865041465739"><ele>261.0</ele><time>2026-04-12T09:24:07.001Z</time></trkpt><trkpt lat="43.040083123797174" lon="12.031783229673692"><ele>261.1666666666667</ele><time>2026-04-12T09:24:08.001Z</time></trkpt><trkpt lat="43.04014172379828" lon="12.031684695144525"><ele>261.3333333333333</ele><time>2026-04-12T09:24:09.001Z</time></trkpt><trkpt lat="43.040176836723376" lon="12.031592054086314"><ele>261.5</ele><time>2026-04-12T09:24:10.001Z</time></trkpt><trkpt lat="43.04023704988568" lon="12.031526523495895"><ele>261.66666666666663</ele><time>2026-04-12T09:24:11.001Z</time></trkpt><trkpt lat="43.040274286115405" lon="12.031429624347851"><ele>261.8333333333333</ele><time>2026-04-12T09:24:12.001Z</time></trkpt><trkpt lat="43.0403167412043" lon="12.03136047515705"><ele>262.0</ele><time>2026-04-12T09:24:13.001Z</time></trkpt><trkpt lat="43.04041074201663" lon="12.031262985849276"><ele>262.2</ele><time>2026-04-12T09:24:15.001Z</time></trkpt><trkpt lat="43.04050432816842" lon="12.031136734678451"><ele>262.4</ele><time>2026-04-12T09:24:17.001Z</time></trkpt><trkpt lat="43.04059725554425" lon="12.031058282206912"><ele>262.6</ele><time>2026-04-12T09:24:19.001Z</time></trkpt><trkpt lat="43.040646042641015" lon="12.031000149781914"><ele>262.8</ele><time>2026-04-12T09:24:20.001Z</time></trkpt><trkpt lat="43.04070715242743" lon="12.030928395484764"><ele>263.0</ele><time>2026-04-12T09:24:21Z</time></trkpt><trkpt lat="43.040764104997365" lon="12.030831860323575"><ele>262.83333333333337</ele><time>2026-04-12T09:24:22Z</time></trkpt><trkpt lat="43.0408412414341" lon="12.030755801106324"><ele>262.6666666666667</ele><time>2026-04-12T09:24:23Z</time></trkpt><trkpt lat="43.04090673053597" lon="12.03066739300216"><ele>262.5</ele><time>2026-04-12T09:24:24Z</time></trkpt><trkpt lat="43.04095814016789" lon="12.030599697088006"><ele>262.3333333333333</ele><time>2026-04-12T09:24:25Z</time></trkpt><trkpt lat="43.041021229340295" lon="12.030522148633477"><ele>262.16666666666663</ele><time>2026-04-12T09:24:27Z</time></trkpt><trkpt lat="43.04107528324193" lon="12.03045570825516"><ele>262.0</ele><time>2026-04-12T09:24:29Z</time></trkpt><trkpt lat="43.041151415282094" lon="12.030558693016742"><ele>262.0</ele><time>2026-04-12T09:24:30Z</time></trkpt><trkpt lat="43.04124244180383" lon="12.030591015572954"><ele>262.0</ele><time>2026-04-12T09:24:31Z</time></trkpt><trkpt lat="43.0413481431925" lon="12.030675949000859"><ele>262.0</ele><time>2026-04-12T09:24:32Z</time></trkpt><trkpt lat="43.04147172626864" lon="12.030786040879113"><ele>262.0</ele><time>2026-04-12T09:24:33Z</time></trkpt><trkpt lat="43.041605812450044" lon="12.030924178878431"><ele>262.0</ele><time>2026-04-12T09:24:34Z</time></trkpt><trkpt lat="43.04174749070015" lon="12.031092758270631"><ele>262.0</ele><time>2026-04-12T09:24:35Z</time></trkpt><trkpt lat="43.041889907507155" lon="12.031281115371039"><ele>262.0</ele><time>2026-04-12T09:24:36Z</time></trkpt><trkpt lat="43.042040005040434" lon="12.031476838655102"><ele>262.0</ele><time>2026-04-12T09:24:37Z</time></trkpt><trkpt lat="43.042192751812294" lon="12.031668055545657"><ele>262.0</ele><time>2026-04-12T09:24:38Z</time></trkpt><trkpt lat="43.04234602385551" lon="12.031863059696109"><ele>262.0</ele><time>2026-04-12T09:24:39Z</time></trkpt><trkpt lat="43.04249883811786" lon="12.032054339990124"><ele>262.0</ele><time>2026-04-12T09:24:40Z</time></trkpt><trkpt lat="43.042647540998814" lon="12.032247026651696"><ele>262.0</ele><time>2026-04-12T09:24:41Z</time></trkpt><trkpt lat="43.04277850221934" lon="12.032420314125638"><ele>262.0</ele><time>2026-04-12T09:24:42Z</time></trkpt><trkpt lat="43.04289761631172" lon="12.032572180861957"><ele>261.75</ele><time>2026-04-12T09:24:43Z</time></trkpt><trkpt lat="43.04301307506754" lon="12.032722934000425"><ele>261.5</ele><time>2026-04-12T09:24:44Z</time></trkpt><trkpt lat="43.04311674527539" lon="12.032851034289552"><ele>261.25</ele><time>2026-04-12T09:24:45Z</time></trkpt><trkpt lat="43.04321070811017" lon="12.032971671475805"><ele>261.0</ele><time>2026-04-12T09:24:46Z</time></trkpt><trkpt lat="43.04328632339273" lon="12.033059605526951"><ele>261.2</ele><time>2026-04-12T09:24:47Z</time></trkpt><trkpt lat="43.043331617343256" lon="12.033137563674032"><ele>261.40000000000003</ele><time>2026-04-12T09:24:48Z</time></trkpt><trkpt lat="43.0433963585669" lon="12.033220108945077"><ele>261.6</ele><time>2026-04-12T09:24:50Z</time></trkpt><trkpt lat="43.04350484326203" lon="12.033042727313708"><ele>261.8</ele><time>2026-04-12T09:24:51Z</time></trkpt><trkpt lat="43.04354633765263" lon="12.032959194440084"><ele>262.0</ele><time>2026-04-12T09:24:52Z</time></trkpt><trkpt lat="43.04358124075806" lon="12.032846115838968"><ele>262.0</ele><time>2026-04-12T09:24:53Z</time></trkpt><trkpt lat="43.043577766206056" lon="12.032681883143477"><ele>262.0</ele><time>2026-04-12T09:24:54Z</time></trkpt><trkpt lat="43.04356768037855" lon="12.032486559810216"><ele>262.0</ele><time>2026-04-12T09:24:55Z</time></trkpt><trkpt lat="43.043574410857005" lon="12.032251631967961"><ele>262.0</ele><time>2026-04-12T09:24:56Z</time></trkpt><trkpt lat="43.04358922379047" lon="12.031989353450575"><ele>262.66666666666663</ele><time>2026-04-12T09:24:57Z</time></trkpt><trkpt lat="43.04360118163424" lon="12.031706388183101"><ele>263.3333333333333</ele><time>2026-04-12T09:24:58Z</time></trkpt><trkpt lat="43.043608511371545" lon="12.031413770015469"><ele>264.0</ele><time>2026-04-12T09:24:59Z</time></trkpt><trkpt lat="43.04362010095327" lon="12.031100815670511"><ele>266.5</ele><time>2026-04-12T09:25:00Z</time></trkpt><trkpt lat="43.04362764879682" lon="12.030791631694004"><ele>269.0</ele><time>2026-04-12T09:25:01Z</time></trkpt><trkpt lat="43.043635086755515" lon="12.030480242959454"><ele>269.0</ele><time>2026-04-12T09:25:02Z</time></trkpt><trkpt lat="43.04365093802715" lon="12.030159010454453"><ele>269.0</ele><time>2026-04-12T09:25:03Z</time></trkpt><trkpt lat="43.04366190645769" lon="12.029835416882742"><ele>270.0</ele><time>2026-04-12T09:25:04Z</time></trkpt><trkpt lat="43.043676631170776" lon="12.029509244717202"><ele>271.0</ele><time>2026-04-12T09:25:05Z</time></trkpt><trkpt lat="43.04369296148833" lon="12.029196530965203"><ele>272.0</ele><time>2026-04-12T09:25:06Z</time></trkpt><trkpt lat="43.04370960486204" lon="12.02889484077397"><ele>273.0</ele><time>2026-04-12T09:25:07Z</time></trkpt><trkpt lat="43.04373204186532" lon="12.028592537709601"><ele>274.0</ele><time>2026-04-12T09:25:08Z</time></trkpt><trkpt lat="43.043772546071764" lon="12.028294987035823"><ele>274.66666666666663</ele><time>2026-04-12T09:25:09Z</time></trkpt><trkpt lat="43.04382800255787" lon="12.028000366488545"><ele>275.3333333333333</ele><time>2026-04-12T09:25:10Z</time></trkpt><trkpt lat="43.04388970483258" lon="12.02771020763565"><ele>276.0</ele><time>2026-04-12T09:25:11Z</time></trkpt><trkpt lat="43.043959723054684" lon="12.027423763348406"><ele>276.3333333333333</ele><time>2026-04-12T09:25:12Z</time></trkpt><trkpt lat="43.044037909947036" lon="12.027141039381949"><ele>276.66666666666663</ele><time>2026-04-12T09:25:13Z</time></trkpt><trkpt lat="43.04412293710446" lon="12.026861788659895"><ele>277.0</ele><time>2026-04-12T09:25:14Z</time></trkpt><trkpt lat="43.04421616944427" lon="12.026592047484327"><ele>279.3333333333333</ele><time>2026-04-12T09:25:15Z</time></trkpt><trkpt lat="43.0443201149272" lon="12.02633170749899"><ele>281.6666666666667</ele><time>2026-04-12T09:25:16Z</time></trkpt><trkpt lat="43.044434548248674" lon="12.026081092351037"><ele>284.0</ele><time>2026-04-12T09:25:17Z</time></trkpt><trkpt lat="43.044558857555096" lon="12.025837420917947"><ele>284.0</ele><time>2026-04-12T09:25:18Z</time></trkpt><trkpt lat="43.044689755096485" lon="12.025607623673112"><ele>284.0</ele><time>2026-04-12T09:25:19Z</time></trkpt><trkpt lat="43.044823360261354" lon="12.025392688292232"><ele>284.0</ele><time>2026-04-12T09:25:20Z</time></trkpt><trkpt lat="43.04495280751329" lon="12.025205629875554"><ele>287.33333333333337</ele><time>2026-04-12T09:25:21Z</time></trkpt><trkpt lat="43.04508466108084" lon="12.025019995336633"><ele>290.6666666666667</ele><time>2026-04-12T09:25:22Z</time></trkpt><trkpt lat="43.04522309490341" lon="12.024842468670212"><ele>294.0</ele><time>2026-04-12T09:25:23Z</time></trkpt><trkpt lat="43.04536319729521" lon="12.02465534481604"><ele>294.3333333333333</ele><time>2026-04-12T09:25:24Z</time></trkpt><trkpt lat="43.045507858796476" lon="12.024462656190618"><ele>294.66666666666663</ele><time>2026-04-12T09:25:25Z</time></trkpt><trkpt lat="43.04565698537232" lon="12.024264800821191"><ele>295.0</ele><time>2026-04-12T09:25:26Z</time></trkpt><trkpt lat="43.04580837626103" lon="12.024062107430296"><ele>295.0</ele><time>2026-04-12T09:25:27Z</time></trkpt><trkpt lat="43.04595819382209" lon="12.023860150107405"><ele>295.0</ele><time>2026-04-12T09:25:28Z</time></trkpt><trkpt lat="43.04609403393171" lon="12.023689639497556"><ele>295.0</ele><time>2026-04-12T09:25:29.001Z</time></trkpt><trkpt lat="43.04621528828855" lon="12.023551142288648"><ele>295.0</ele><time>2026-04-12T09:25:30.001Z</time></trkpt><trkpt lat="43.04634496581937" lon="12.023440451011878"><ele>295.0</ele><time>2026-04-12T09:25:31.001Z</time></trkpt><trkpt lat="43.04650756231255" lon="12.023380818315031"><ele>295.0</ele><time>2026-04-12T09:25:32.001Z</time></trkpt><trkpt lat="43.04667974517806" lon="12.023368300496347"><ele>294.66666666666663</ele><time>2026-04-12T09:25:33.001Z</time></trkpt><trkpt lat="43.04684874410233" lon="12.023369188872287"><ele>294.3333333333333</ele><time>2026-04-12T09:25:34.001Z</time></trkpt><trkpt lat="43.047013059379225" lon="12.023345234062965"><ele>294.0</ele><time>2026-04-12T09:25:35.001Z</time></trkpt><trkpt lat="43.04716189133888" lon="12.023258910866117"><ele>294.0</ele><time>2026-04-12T09:25:36.001Z</time></trkpt><trkpt lat="43.04728453482161" lon="12.023113640041238"><ele>294.0</ele><time>2026-04-12T09:25:37.001Z</time></trkpt><trkpt lat="43.047372185455814" lon="12.022916495429614"><ele>294.0</ele><time>2026-04-12T09:25:38.001Z</time></trkpt><trkpt lat="43.047443210703015" lon="12.022680748503348"><ele>297.0</ele><time>2026-04-12T09:25:39.001Z</time></trkpt><trkpt lat="43.04752721172176" lon="12.022452364593475"><ele>300.0</ele><time>2026-04-12T09:25:40.001Z</time></trkpt><trkpt lat="43.0476104579249" lon="12.022209331184072"><ele>303.0</ele><time>2026-04-12T09:25:41.001Z</time></trkpt><trkpt lat="43.0476938996859" lon="12.021955367090518"><ele>303.0</ele><time>2026-04-12T09:25:42.001Z</time></trkpt><trkpt lat="43.04777761338621" lon="12.021697606550035"><ele>303.0</ele><time>2026-04-12T09:25:43.001Z</time></trkpt><trkpt lat="43.04786005010444" lon="12.021443785266653"><ele>303.0</ele><time>2026-04-12T09:25:44.001Z</time></trkpt><trkpt lat="43.04794571497903" lon="12.021197189325443"><ele>303.0</ele><time>2026-04-12T09:25:45.001Z</time></trkpt><trkpt lat="43.04804023190036" lon="12.0209533836245"><ele>303.0</ele><time>2026-04-12T09:25:46.001Z</time></trkpt><trkpt lat="43.04816534986272" lon="12.020729649322641"><ele>303.0</ele><time>2026-04-12T09:25:47.001Z</time></trkpt><trkpt lat="43.04828861420243" lon="12.020502312790931"><ele>306.6666666666667</ele><time>2026-04-12T09:25:48.001Z</time></trkpt><trkpt lat="43.04840255239452" lon="12.020270713960562"><ele>310.33333333333337</ele><time>2026-04-12T09:25:49.001Z</time></trkpt><trkpt lat="43.04852904426979" lon="12.020048619829957"><ele>314.0</ele><time>2026-04-12T09:25:50.001Z</time></trkpt><trkpt lat="43.04863969759461" lon="12.019823107153249"><ele>314.6666666666667</ele><time>2026-04-12T09:25:51.001Z</time></trkpt><trkpt lat="43.04872871683806" lon="12.019583965430533"><ele>315.3333333333333</ele><time>2026-04-12T09:25:52.001Z</time></trkpt><trkpt lat="43.048786059922676" lon="12.019323023402766"><ele>316.0</ele><time>2026-04-12T09:25:53.001Z</time></trkpt><trkpt lat="43.04881588549464" lon="12.019038326779302"><ele>316.0</ele><time>2026-04-12T09:25:54.001Z</time></trkpt><trkpt lat="43.04883824128635" lon="12.01874614376692"><ele>316.0</ele><time>2026-04-12T09:25:55.001Z</time></trkpt><trkpt lat="43.04888382164136" lon="12.018455294821699"><ele>316.0</ele><time>2026-04-12T09:25:56.001Z</time></trkpt><trkpt lat="43.048898858590874" lon="12.018154319170161"><ele>317.0</ele><time>2026-04-12T09:25:57.001Z</time></trkpt><trkpt lat="43.04892318908128" lon="12.017852179980345"><ele>318.0</ele><time>2026-04-12T09:25:58.001Z</time></trkpt><trkpt lat="43.04894842573401" lon="12.017564842272815"><ele>319.0</ele><time>2026-04-12T09:25:59.001Z</time></trkpt><trkpt lat="43.04897258181545" lon="12.017311118915082"><ele>319.25</ele><time>2026-04-12T09:26:00.001Z</time></trkpt><trkpt lat="43.04899225352175" lon="12.017097543200922"><ele>319.5</ele><time>2026-04-12T09:26:01.001Z</time></trkpt><trkpt lat="43.04900757096827" lon="12.01692183947911"><ele>319.75</ele><time>2026-04-12T09:26:02.001Z</time></trkpt><trkpt lat="43.049021399091984" lon="12.0167586998761"><ele>320.0</ele><time>2026-04-12T09:26:03.001Z</time></trkpt><trkpt lat="43.04903393613472" lon="12.016613742570296"><ele>320.1666666666667</ele><time>2026-04-12T09:26:04.001Z</time></trkpt><trkpt lat="43.04904178012544" lon="12.016508114626026"><ele>320.33333333333337</ele><time>2026-04-12T09:26:05.001Z</time></trkpt><trkpt lat="43.04910397229772" lon="12.016437238434124"><ele>320.5</ele><time>2026-04-12T09:26:08.001Z</time></trkpt><trkpt lat="43.049175005007385" lon="12.016451491434008"><ele>320.6666666666667</ele><time>2026-04-12T09:26:10.001Z</time></trkpt><trkpt lat="43.049248535095266" lon="12.016560327619738"><ele>320.8333333333333</ele><time>2026-04-12T09:26:12.001Z</time></trkpt><trkpt lat="43.04927619339274" lon="12.016649511934318"><ele>321.0</ele><time>2026-04-12T09:26:13.001Z</time></trkpt><trkpt lat="43.049310934420376" lon="12.016755511186949"><ele>323.0</ele><time>2026-04-12T09:26:14.001Z</time></trkpt><trkpt lat="43.04935638185716" lon="12.016864512264089"><ele>325.0</ele><time>2026-04-12T09:26:15.001Z</time></trkpt><trkpt lat="43.04941284101752" lon="12.016977591919071"><ele>327.0</ele><time>2026-04-12T09:26:16.001Z</time></trkpt><trkpt lat="43.0494776791992" lon="12.017098835925557"><ele>329.0</ele><time>2026-04-12T09:26:17.001Z</time></trkpt><trkpt lat="43.04954665144696" lon="12.017232691841958"><ele>331.0</ele><time>2026-04-12T09:26:18.001Z</time></trkpt><trkpt lat="43.04960962239947" lon="12.017354566794655"><ele>331.0</ele><time>2026-04-12T09:26:19.001Z</time></trkpt><trkpt lat="43.049652505751794" lon="12.017443355384746"><ele>331.0</ele><time>2026-04-12T09:26:20.001Z</time></trkpt><trkpt lat="43.049751584953675" lon="12.01751699097522"><ele>331.0</ele><time>2026-04-12T09:26:22.001Z</time></trkpt><trkpt lat="43.049875890653894" lon="12.017533809721229"><ele>331.0</ele><time>2026-04-12T09:26:24.001Z</time></trkpt><trkpt lat="43.0499445575468" lon="12.017529848602015"><ele>331.0</ele><time>2026-04-12T09:26:25.001Z</time></trkpt><trkpt lat="43.05004158519472" lon="12.017525993678015"><ele>332.6</ele><time>2026-04-12T09:26:26Z</time></trkpt><trkpt lat="43.050137988444696" lon="12.01750314428042"><ele>334.20000000000005</ele><time>2026-04-12T09:26:27Z</time></trkpt><trkpt lat="43.05021643871002" lon="12.017475827908846"><ele>335.79999999999995</ele><time>2026-04-12T09:26:29Z</time></trkpt><trkpt lat="43.050299946912105" lon="12.017439483659903"><ele>337.4</ele><time>2026-04-12T09:26:32Z</time></trkpt><trkpt lat="43.050391632332456" lon="12.017382230893022"><ele>339.0</ele><time>2026-04-12T09:26:34Z</time></trkpt><trkpt lat="43.05047264713942" lon="12.017324914321431"><ele>339.6</ele><time>2026-04-12T09:26:35Z</time></trkpt><trkpt lat="43.05057415170156" lon="12.017265255059145"><ele>340.2</ele><time>2026-04-12T09:26:36Z</time></trkpt><trkpt lat="43.05068113914725" lon="12.017195773492121"><ele>340.8</ele><time>2026-04-12T09:26:37Z</time></trkpt><trkpt lat="43.05079222809811" lon="12.017131633929024"><ele>341.40000000000003</ele><time>2026-04-12T09:26:38Z</time></trkpt><trkpt lat="43.05087229022824" lon="12.017061415559054"><ele>342.0</ele><time>2026-04-12T09:26:39Z</time></trkpt><trkpt lat="43.050955305957835" lon="12.016988331301585"><ele>342.0</ele><time>2026-04-12T09:26:40Z</time></trkpt><trkpt lat="43.05104987383345" lon="12.016919628425171"><ele>342.0</ele><time>2026-04-12T09:26:41Z</time></trkpt><trkpt lat="43.051140221757066" lon="12.016855965494674"><ele>342.0</ele><time>2026-04-12T09:26:42Z</time></trkpt><trkpt lat="43.05123110289185" lon="12.016771105368113"><ele>342.0</ele><time>2026-04-12T09:26:43Z</time></trkpt><trkpt lat="43.051311930844975" lon="12.016687172845415"><ele>342.0</ele><time>2026-04-12T09:26:44Z</time></trkpt><trkpt lat="43.051407095222196" lon="12.016606746406145"><ele>342.0</ele><time>2026-04-12T09:26:45Z</time></trkpt><trkpt lat="43.05149540837501" lon="12.016556080777288"><ele>342.0</ele><time>2026-04-12T09:26:46Z</time></trkpt><trkpt lat="43.05158426985168" lon="12.016499435715541"><ele>342.0</ele><time>2026-04-12T09:26:47Z</time></trkpt><trkpt lat="43.051674890145314" lon="12.016447261563245"><ele>342.0</ele><time>2026-04-12T09:26:48Z</time></trkpt><trkpt lat="43.05177277462185" lon="12.01638784586468"><ele>342.0</ele><time>2026-04-12T09:26:49Z</time></trkpt><trkpt lat="43.05185914210273" lon="12.016323637902131"><ele>341.0</ele><time>2026-04-12T09:26:50Z</time></trkpt><trkpt lat="43.051939063287534" lon="12.016264558558108"><ele>340.0</ele><time>2026-04-12T09:26:51Z</time></trkpt><trkpt lat="43.05202312485099" lon="12.016197221028069"><ele>339.0</ele><time>2026-04-12T09:26:52Z</time></trkpt><trkpt lat="43.05210898442996" lon="12.016140202198297"><ele>338.0</ele><time>2026-04-12T09:26:53Z</time></trkpt><trkpt lat="43.05219812185689" lon="12.016078577667397"><ele>337.0</ele><time>2026-04-12T09:26:54Z</time></trkpt><trkpt lat="43.05227963160791" lon="12.016023045268057"><ele>337.0</ele><time>2026-04-12T09:26:55Z</time></trkpt><trkpt lat="43.05236523173065" lon="12.015966308657807"><ele>337.0</ele><time>2026-04-12T09:26:56Z</time></trkpt><trkpt lat="43.052445083058444" lon="12.015911833752382"><ele>337.0</ele><time>2026-04-12T09:26:57Z</time></trkpt><trkpt lat="43.05254910412021" lon="12.015845861162513"><ele>337.0</ele><time>2026-04-12T09:26:59Z</time></trkpt><trkpt lat="43.05266170133762" lon="12.01589742324018"><ele>337.0</ele><time>2026-04-12T09:27:01Z</time></trkpt><trkpt lat="43.05272102752479" lon="12.015968730817109"><ele>335.40000000000003</ele><time>2026-04-12T09:27:02Z</time></trkpt><trkpt lat="43.05279034796309" lon="12.016071599034099"><ele>333.8</ele><time>2026-04-12T09:27:03Z</time></trkpt><trkpt lat="43.05286218502295" lon="12.01616300072197"><ele>332.2</ele><time>2026-04-12T09:27:04Z</time></trkpt><trkpt lat="43.052921995534604" lon="12.016252724375715"><ele>330.6</ele><time>2026-04-12T09:27:05Z</time></trkpt><trkpt lat="43.052986935140694" lon="12.016339675760815"><ele>329.0</ele><time>2026-04-12T09:27:06Z</time></trkpt><trkpt lat="43.05306567073391" lon="12.016435052219117"><ele>329.0</ele><time>2026-04-12T09:27:07Z</time></trkpt><trkpt lat="43.05314446391523" lon="12.016529390564848"><ele>329.0</ele><time>2026-04-12T09:27:08Z</time></trkpt><trkpt lat="43.05322680718459" lon="12.016624395696518"><ele>329.0</ele><time>2026-04-12T09:27:09Z</time></trkpt><trkpt lat="43.05332763898972" lon="12.016728552927662"><ele>329.0</ele><time>2026-04-12T09:27:10Z</time></trkpt><trkpt lat="43.05344185453308" lon="12.016859548100133"><ele>325.59999999999997</ele><time>2026-04-12T09:27:12Z</time></trkpt><trkpt lat="43.053512028432074" lon="12.01693499308869"><ele>322.2</ele><time>2026-04-12T09:27:13Z</time></trkpt><trkpt lat="43.053591824278925" lon="12.017012122169715"><ele>318.79999999999995</ele><time>2026-04-12T09:27:14Z</time></trkpt><trkpt lat="43.05366325307067" lon="12.01709231696105"><ele>315.4</ele><time>2026-04-12T09:27:15Z</time></trkpt><trkpt lat="43.05373998415868" lon="12.017176023753283"><ele>312.0</ele><time>2026-04-12T09:27:16Z</time></trkpt><trkpt lat="43.053808620315735" lon="12.017254907475866"><ele>312.0</ele><time>2026-04-12T09:27:17Z</time></trkpt><trkpt lat="43.0538721867694" lon="12.017328388393"><ele>312.0</ele><time>2026-04-12T09:27:18Z</time></trkpt><trkpt lat="43.05394324015123" lon="12.017402649345515"><ele>312.0</ele><time>2026-04-12T09:27:19Z</time></trkpt><trkpt lat="43.05402831175838" lon="12.017485006296637"><ele>312.0</ele><time>2026-04-12T09:27:20Z</time></trkpt><trkpt lat="43.054111978315774" lon="12.017562368431497"><ele>312.0</ele><time>2026-04-12T09:27:21Z</time></trkpt><trkpt lat="43.05420102295076" lon="12.017641532857546"><ele>309.4</ele><time>2026-04-12T09:27:22Z</time></trkpt><trkpt lat="43.05428649871773" lon="12.01773115979987"><ele>306.79999999999995</ele><time>2026-04-12T09:27:23Z</time></trkpt><trkpt lat="43.054366538513264" lon="12.01781793090921"><ele>304.2</ele><time>2026-04-12T09:27:24Z</time></trkpt><trkpt lat="43.054441738841504" lon="12.017898884434572"><ele>301.59999999999997</ele><time>2026-04-12T09:27:25Z</time></trkpt><trkpt lat="43.05452228790561" lon="12.017980521452143"><ele>299.0</ele><time>2026-04-12T09:27:26Z</time></trkpt><trkpt lat="43.054603948986355" lon="12.018067656082799"><ele>299.0</ele><time>2026-04-12T09:27:27Z</time></trkpt><trkpt lat="43.05467867007162" lon="12.018143494455677"><ele>299.0</ele><time>2026-04-12T09:27:28Z</time></trkpt><trkpt lat="43.054757770408386" lon="12.018227214629205"><ele>299.0</ele><time>2026-04-12T09:27:29Z</time></trkpt><trkpt lat="43.05483692223003" lon="12.018313776925522"><ele>299.0</ele><time>2026-04-12T09:27:30Z</time></trkpt><trkpt lat="43.054907782329735" lon="12.018390093628149"><ele>299.0</ele><time>2026-04-12T09:27:31Z</time></trkpt><trkpt lat="43.054979413977094" lon="12.018460918076741"><ele>297.59999999999997</ele><time>2026-04-12T09:27:32Z</time></trkpt><trkpt lat="43.05504087982916" lon="12.018528674322674"><ele>296.2</ele><time>2026-04-12T09:27:33Z</time></trkpt><trkpt lat="43.055135865063" lon="12.018619701068204"><ele>294.79999999999995</ele><time>2026-04-12T09:27:35Z</time></trkpt><trkpt lat="43.05521258138614" lon="12.01869872851661"><ele>293.4</ele><time>2026-04-12T09:27:37Z</time></trkpt><trkpt lat="43.05528785451604" lon="12.018783034859407"><ele>292.0</ele><time>2026-04-12T09:27:39Z</time></trkpt><trkpt lat="43.05534907402978" lon="12.018844377325493"><ele>292.0</ele><time>2026-04-12T09:27:41.001Z</time></trkpt><trkpt lat="43.055417597895875" lon="12.018864302460617"><ele>292.0</ele><time>2026-04-12T09:27:44.001Z</time></trkpt><trkpt lat="43.05549796140412" lon="12.018863133525036"><ele>292.0</ele><time>2026-04-12T09:29:23Z</time></trkpt><trkpt lat="43.05558170564617" lon="12.018852351104169"><ele>292.0</ele><time>2026-04-12T09:29:24Z</time></trkpt><trkpt lat="43.05566983315197" lon="12.01883858013093"><ele>292.0</ele><time>2026-04-12T09:29:25Z</time></trkpt><trkpt lat="43.05578224954765" lon="12.01883051959688"><ele>292.0</ele><time>2026-04-12T09:29:26Z</time></trkpt><trkpt lat="43.055914284535426" lon="12.018820133485836"><ele>292.5</ele><time>2026-04-12T09:29:27Z</time></trkpt><trkpt lat="43.05605434608647" lon="12.018799893225808"><ele>293.0</ele><time>2026-04-12T09:29:28Z</time></trkpt><trkpt lat="43.056188235834284" lon="12.018775920767395"><ele>293.5</ele><time>2026-04-12T09:29:29Z</time></trkpt><trkpt lat="43.05631172373095" lon="12.018753343642885"><ele>294.0</ele><time>2026-04-12T09:29:30Z</time></trkpt><trkpt lat="43.056430413830896" lon="12.018735368127949"><ele>294.0</ele><time>2026-04-12T09:29:31Z</time></trkpt><trkpt lat="43.05653497683725" lon="12.018714433799296"><ele>294.0</ele><time>2026-04-12T09:29:32Z</time></trkpt><trkpt lat="43.05662139567338" lon="12.018690131008146"><ele>294.0</ele><time>2026-04-12T09:29:33Z</time></trkpt><trkpt lat="43.056711448881366" lon="12.018681344827852"><ele>294.0</ele><time>2026-04-12T09:29:34Z</time></trkpt><trkpt lat="43.05681608335016" lon="12.018686758821364"><ele>294.0</ele><time>2026-04-12T09:29:35Z</time></trkpt><trkpt lat="43.056926443288965" lon="12.018672638094614"><ele>295.59999999999997</ele><time>2026-04-12T09:29:36Z</time></trkpt><trkpt lat="43.057034677766296" lon="12.018657979767921"><ele>297.2</ele><time>2026-04-12T09:29:37Z</time></trkpt><trkpt lat="43.057138407433676" lon="12.018655160377847"><ele>298.79999999999995</ele><time>2026-04-12T09:29:38Z</time></trkpt><trkpt lat="43.05723602713669" lon="12.01864220743073"><ele>300.4</ele><time>2026-04-12T09:29:39Z</time></trkpt><trkpt lat="43.05732358198011" lon="12.018638077557098"><ele>302.0</ele><time>2026-04-12T09:29:40Z</time></trkpt><trkpt lat="43.05741318112422" lon="12.018623380456651"><ele>304.0</ele><time>2026-04-12T09:29:41Z</time></trkpt><trkpt lat="43.057504621599364" lon="12.018615357276085"><ele>306.0</ele><time>2026-04-12T09:29:42Z</time></trkpt><trkpt lat="43.05758382701707" lon="12.018618915766599"><ele>308.0</ele><time>2026-04-12T09:29:43Z</time></trkpt><trkpt lat="43.057662887426034" lon="12.018620880035925"><ele>310.0</ele><time>2026-04-12T09:29:44Z</time></trkpt><trkpt lat="43.05775997623154" lon="12.018624155531477"><ele>312.0</ele><time>2026-04-12T09:29:45Z</time></trkpt><trkpt lat="43.057860087905276" lon="12.018639428267221"><ele>314.0</ele><time>2026-04-12T09:29:46Z</time></trkpt><trkpt lat="43.057946331316465" lon="12.018656769714168"><ele>314.0</ele><time>2026-04-12T09:29:47Z</time></trkpt><trkpt lat="43.05802515506603" lon="12.018658754144171"><ele>314.0</ele><time>2026-04-12T09:29:48Z</time></trkpt><trkpt lat="43.05809692626644" lon="12.018639453197606"><ele>314.0</ele><time>2026-04-12T09:29:49Z</time></trkpt><trkpt lat="43.05815965397958" lon="12.01860813581231"><ele>314.0</ele><time>2026-04-12T09:29:50.001Z</time></trkpt><trkpt lat="43.05821637989988" lon="12.018555819714168"><ele>314.0</ele><time>2026-04-12T09:29:51.001Z</time></trkpt><trkpt lat="43.05828464734951" lon="12.018488413418234"><ele>314.0</ele><time>2026-04-12T09:29:52.001Z</time></trkpt><trkpt lat="43.058369968263165" lon="12.018431694961933"><ele>317.5</ele><time>2026-04-12T09:29:53.001Z</time></trkpt><trkpt lat="43.05846454411225" lon="12.018380222225622"><ele>321.0</ele><time>2026-04-12T09:29:54.001Z</time></trkpt><trkpt lat="43.058568584677886" lon="12.018341934995085"><ele>324.5</ele><time>2026-04-12T09:29:55.001Z</time></trkpt><trkpt lat="43.05868795980606" lon="12.01831772976847"><ele>328.0</ele><time>2026-04-12T09:29:56.001Z</time></trkpt><trkpt lat="43.05881337091854" lon="12.018306003933256"><ele>328.0</ele><time>2026-04-12T09:29:57.001Z</time></trkpt><trkpt lat="43.058927256491906" lon="12.018305230508702"><ele>328.0</ele><time>2026-04-12T09:29:58.001Z</time></trkpt><trkpt lat="43.05902293043681" lon="12.018315120734998"><ele>328.0</ele><time>2026-04-12T09:29:59.001Z</time></trkpt><trkpt lat="43.05910923663202" lon="12.018325089554056"><ele>328.0</ele><time>2026-04-12T09:30:01.001Z</time></trkpt><trkpt lat="43.05916002793224" lon="12.018267891910995"><ele>328.0</ele><time>2026-04-12T09:30:04.001Z</time></trkpt><trkpt lat="43.05916669259055" lon="12.01811629964729"><ele>330.0</ele><time>2026-04-12T09:30:06.001Z</time></trkpt><trkpt lat="43.05918368550644" lon="12.018005914036916"><ele>332.0</ele><time>2026-04-12T09:30:07.001Z</time></trkpt><trkpt lat="43.05918943067887" lon="12.017878387271875"><ele>334.0</ele><time>2026-04-12T09:30:08.001Z</time></trkpt><trkpt lat="43.059195628314384" lon="12.017740817249802"><ele>336.0</ele><time>2026-04-12T09:30:09.001Z</time></trkpt><trkpt lat="43.05918687966907" lon="12.017589691033333"><ele>338.0</ele><time>2026-04-12T09:30:10.001Z</time></trkpt><trkpt lat="43.059192871098915" lon="12.017427989951736"><ele>339.25</ele><time>2026-04-12T09:30:11.001Z</time></trkpt><trkpt lat="43.059213969282425" lon="12.01725290978258"><ele>340.5</ele><time>2026-04-12T09:30:12.001Z</time></trkpt><trkpt lat="43.05922100422033" lon="12.017074011934804"><ele>341.75</ele><time>2026-04-12T09:30:13.001Z</time></trkpt><trkpt lat="43.059235198608526" lon="12.01690003875613"><ele>343.0</ele><time>2026-04-12T09:30:14.001Z</time></trkpt><trkpt lat="43.05925951333423" lon="12.016732729264325"><ele>342.25</ele><time>2026-04-12T09:30:15.001Z</time></trkpt><trkpt lat="43.059288988504974" lon="12.016553191251385"><ele>341.5</ele><time>2026-04-12T09:30:16.001Z</time></trkpt><trkpt lat="43.059350025935956" lon="12.01640466008077"><ele>340.75</ele><time>2026-04-12T09:30:17.001Z</time></trkpt><trkpt lat="43.05940857123229" lon="12.016249760169117"><ele>340.0</ele><time>2026-04-12T09:30:18.001Z</time></trkpt><trkpt lat="43.059420711191905" lon="12.016108903100667"><ele>340.0</ele><time>2026-04-12T09:30:19.001Z</time></trkpt><trkpt lat="43.05945396558076" lon="12.015966835392376"><ele>340.0</ele><time>2026-04-12T09:30:20.001Z</time></trkpt><trkpt lat="43.0594963391079" lon="12.015817949572188"><ele>340.0</ele><time>2026-04-12T09:30:21.001Z</time></trkpt><trkpt lat="43.05953166596675" lon="12.015677790566667"><ele>340.0</ele><time>2026-04-12T09:30:22.001Z</time></trkpt><trkpt lat="43.059561944296846" lon="12.015527809323222"><ele>340.0</ele><time>2026-04-12T09:30:23.001Z</time></trkpt><trkpt lat="43.05958520737906" lon="12.015358568783373"><ele>339.25</ele><time>2026-04-12T09:30:24.001Z</time></trkpt><trkpt lat="43.05958787091222" lon="12.015189856337912"><ele>338.5</ele><time>2026-04-12T09:30:25.001Z</time></trkpt><trkpt lat="43.05958216067895" lon="12.015010792932303"><ele>337.75</ele><time>2026-04-12T09:30:26.001Z</time></trkpt><trkpt lat="43.059569335728035" lon="12.014833562706613"><ele>337.0</ele><time>2026-04-12T09:30:27.001Z</time></trkpt><trkpt lat="43.059557163834974" lon="12.014648429889482"><ele>337.25</ele><time>2026-04-12T09:30:28.001Z</time></trkpt><trkpt lat="43.059541170341966" lon="12.014466337748248"><ele>337.5</ele><time>2026-04-12T09:30:29.001Z</time></trkpt><trkpt lat="43.05952157931063" lon="12.014287256518925"><ele>337.75</ele><time>2026-04-12T09:30:30.001Z</time></trkpt><trkpt lat="43.059505021050775" lon="12.014111048645537"><ele>338.0</ele><time>2026-04-12T09:30:31.001Z</time></trkpt><trkpt lat="43.059493638402714" lon="12.013946252083317"><ele>338.0</ele><time>2026-04-12T09:30:32.001Z</time></trkpt><trkpt lat="43.05947015878768" lon="12.013772008894197"><ele>338.0</ele><time>2026-04-12T09:30:33.001Z</time></trkpt><trkpt lat="43.05944249718912" lon="12.013590205766015"><ele>338.0</ele><time>2026-04-12T09:30:34.001Z</time></trkpt><trkpt lat="43.05936639871167" lon="12.013403267113274"><ele>338.0</ele><time>2026-04-12T09:30:35.001Z</time></trkpt><trkpt lat="43.05931046317735" lon="12.013185679052738"><ele>338.0</ele><time>2026-04-12T09:30:36.001Z</time></trkpt><trkpt lat="43.05925443323332" lon="12.012955255801884"><ele>338.0</ele><time>2026-04-12T09:30:37.001Z</time></trkpt><trkpt lat="43.05919918658857" lon="12.01269622910969"><ele>338.0</ele><time>2026-04-12T09:30:38Z</time></trkpt><trkpt lat="43.05913844694272" lon="12.012434350526917"><ele>339.0</ele><time>2026-04-12T09:30:39Z</time></trkpt><trkpt lat="43.05909269233658" lon="12.012156764011948"><ele>340.0</ele><time>2026-04-12T09:30:40Z</time></trkpt><trkpt lat="43.05904754126847" lon="12.0118914212495"><ele>341.0</ele><time>2026-04-12T09:30:41Z</time></trkpt><trkpt lat="43.05900335914916" lon="12.011650675858652"><ele>341.6666666666667</ele><time>2026-04-12T09:30:42Z</time></trkpt><trkpt lat="43.05894977729914" lon="12.01144088635424"><ele>342.3333333333333</ele><time>2026-04-12T09:30:43Z</time></trkpt><trkpt lat="43.05889262503183" lon="12.011243878488626"><ele>343.0</ele><time>2026-04-12T09:30:44Z</time></trkpt><trkpt lat="43.05882625564001" lon="12.01106000740045"><ele>343.0</ele><time>2026-04-12T09:30:45Z</time></trkpt><trkpt lat="43.05875428919511" lon="12.010871050985266"><ele>343.0</ele><time>2026-04-12T09:30:46Z</time></trkpt><trkpt lat="43.05867892762515" lon="12.010689404989803"><ele>343.0</ele><time>2026-04-12T09:30:47Z</time></trkpt><trkpt lat="43.05862516268579" lon="12.010510432075332"><ele>342.0</ele><time>2026-04-12T09:30:48Z</time></trkpt><trkpt lat="43.058562651605506" lon="12.010345131305314"><ele>341.0</ele><time>2026-04-12T09:30:49Z</time></trkpt><trkpt lat="43.05850298181311" lon="12.010186452160333"><ele>340.0</ele><time>2026-04-12T09:30:50Z</time></trkpt><trkpt lat="43.058434097612796" lon="12.010055289030396"><ele>339.0</ele><time>2026-04-12T09:30:51Z</time></trkpt><trkpt lat="43.05837916409847" lon="12.00991661236487"><ele>338.3333333333333</ele><time>2026-04-12T09:30:52Z</time></trkpt><trkpt lat="43.05833108773138" lon="12.009799564782348"><ele>337.6666666666667</ele><time>2026-04-12T09:30:53Z</time></trkpt><trkpt lat="43.05828796172374" lon="12.009704971945968"><ele>337.0</ele><time>2026-04-12T09:30:54Z</time></trkpt><trkpt lat="43.05823266779799" lon="12.009623876135304"><ele>336.33333333333337</ele><time>2026-04-12T09:30:55Z</time></trkpt><trkpt lat="43.058171098325744" lon="12.009558434877842"><ele>335.6666666666667</ele><time>2026-04-12T09:30:56Z</time></trkpt><trkpt lat="43.05811490919843" lon="12.009493676539993"><ele>335.0</ele><time>2026-04-12T09:30:58Z</time></trkpt><trkpt lat="43.0580112986347" lon="12.009411692806376"><ele>336.75</ele><time>2026-04-12T09:31:00Z</time></trkpt><trkpt lat="43.05794566807847" lon="12.00934548911337"><ele>338.5</ele><time>2026-04-12T09:31:01Z</time></trkpt><trkpt lat="43.05784766632637" lon="12.00927198560876"><ele>340.25</ele><time>2026-04-12T09:31:02Z</time></trkpt><trkpt lat="43.05772159890996" lon="12.00918078702497"><ele>342.0</ele><time>2026-04-12T09:31:03Z</time></trkpt><trkpt lat="43.05758243340271" lon="12.009086863974577"><ele>343.6666666666667</ele><time>2026-04-12T09:31:04Z</time></trkpt><trkpt lat="43.057445460883656" lon="12.008973770552062"><ele>345.33333333333337</ele><time>2026-04-12T09:31:05Z</time></trkpt><trkpt lat="43.05729633681325" lon="12.008864055944143"><ele>347.0</ele><time>2026-04-12T09:31:06Z</time></trkpt><trkpt lat="43.05716687460191" lon="12.008768121773402"><ele>347.0</ele><time>2026-04-12T09:31:07Z</time></trkpt><trkpt lat="43.05703665631476" lon="12.008676843029175"><ele>347.0</ele><time>2026-04-12T09:31:08Z</time></trkpt><trkpt lat="43.05690098267942" lon="12.008586945230414"><ele>347.0</ele><time>2026-04-12T09:31:09Z</time></trkpt><trkpt lat="43.056771731829805" lon="12.008498325591098"><ele>347.0</ele><time>2026-04-12T09:31:10Z</time></trkpt><trkpt lat="43.056637735019386" lon="12.008413700269722"><ele>347.0</ele><time>2026-04-12T09:31:11Z</time></trkpt><trkpt lat="43.056500796508296" lon="12.008329324015754"><ele>347.0</ele><time>2026-04-12T09:31:12Z</time></trkpt><trkpt lat="43.05635915780753" lon="12.008240615486066"><ele>347.0</ele><time>2026-04-12T09:31:13Z</time></trkpt><trkpt lat="43.056215061533045" lon="12.008145944398748"><ele>347.0</ele><time>2026-04-12T09:31:14Z</time></trkpt><trkpt lat="43.056066516561025" lon="12.008049104482744"><ele>347.0</ele><time>2026-04-12T09:31:15Z</time></trkpt><trkpt lat="43.05591229624611" lon="12.007954399637848"><ele>347.0</ele><time>2026-04-12T09:31:16Z</time></trkpt><trkpt lat="43.05575771116358" lon="12.007857943048803"><ele>348.33333333333337</ele><time>2026-04-12T09:31:17Z</time></trkpt><trkpt lat="43.05560449080455" lon="12.007761623719906"><ele>349.6666666666667</ele><time>2026-04-12T09:31:18Z</time></trkpt><trkpt lat="43.0554493572629" lon="12.007669601516103"><ele>351.0</ele><time>2026-04-12T09:31:19Z</time></trkpt><trkpt lat="43.05529228008665" lon="12.007586027969372"><ele>351.0</ele><time>2026-04-12T09:31:20Z</time></trkpt><trkpt lat="43.05513285164957" lon="12.00751616206089"><ele>351.0</ele><time>2026-04-12T09:31:21Z</time></trkpt><trkpt lat="43.05497172475618" lon="12.007458606960414"><ele>351.0</ele><time>2026-04-12T09:31:22Z</time></trkpt><trkpt lat="43.054827727911196" lon="12.007379501326605"><ele>351.75</ele><time>2026-04-12T09:31:23Z</time></trkpt><trkpt lat="43.054698470585016" lon="12.00732101984865"><ele>352.5</ele><time>2026-04-12T09:31:24Z</time></trkpt><trkpt lat="43.054577307770124" lon="12.007252215445517"><ele>353.25</ele><time>2026-04-12T09:31:25Z</time></trkpt><trkpt lat="43.05446036161691" lon="12.007175398268684"><ele>354.0</ele><time>2026-04-12T09:31:26Z</time></trkpt><trkpt lat="43.05433418513073" lon="12.00711475138875"><ele>354.0</ele><time>2026-04-12T09:31:27Z</time></trkpt><trkpt lat="43.05420414979456" lon="12.00701960541378"><ele>354.0</ele><time>2026-04-12T09:31:28Z</time></trkpt><trkpt lat="43.0540680127609" lon="12.006919877411415"><ele>354.0</ele><time>2026-04-12T09:31:29Z</time></trkpt><trkpt lat="43.053931638006446" lon="12.006818326786934"><ele>353.25</ele><time>2026-04-12T09:31:30Z</time></trkpt><trkpt lat="43.05380091421943" lon="12.006719268769743"><ele>352.5</ele><time>2026-04-12T09:31:31Z</time></trkpt><trkpt lat="43.0536793043687" lon="12.006617471718558"><ele>351.75</ele><time>2026-04-12T09:31:32Z</time></trkpt><trkpt lat="43.0535667270879" lon="12.0065073093252"><ele>351.0</ele><time>2026-04-12T09:31:33Z</time></trkpt><trkpt lat="43.05347066761851" lon="12.006388571010913"><ele>351.0</ele><time>2026-04-12T09:31:34Z</time></trkpt><trkpt lat="43.05338865014768" lon="12.006259379300838"><ele>351.0</ele><time>2026-04-12T09:31:35Z</time></trkpt><trkpt lat="43.05331948197144" lon="12.00610734293198"><ele>351.0</ele><time>2026-04-12T09:31:36Z</time></trkpt><trkpt lat="43.05328561543286" lon="12.005917545599832"><ele>351.0</ele><time>2026-04-12T09:31:37Z</time></trkpt><trkpt lat="43.05323083751491" lon="12.005733620825586"><ele>347.0</ele><time>2026-04-12T09:31:38Z</time></trkpt><trkpt lat="43.05319471911493" lon="12.005536755047093"><ele>343.0</ele><time>2026-04-12T09:31:39Z</time></trkpt><trkpt lat="43.05315801915914" lon="12.00533390847027"><ele>339.0</ele><time>2026-04-12T09:31:40Z</time></trkpt><trkpt lat="43.05312143110278" lon="12.005135581750425"><ele>340.6666666666667</ele><time>2026-04-12T09:31:41Z</time></trkpt><trkpt lat="43.05307772847916" lon="12.004957790437722"><ele>342.33333333333337</ele><time>2026-04-12T09:31:42Z</time></trkpt><trkpt lat="43.053008928638846" lon="12.004775195465825"><ele>344.0</ele><time>2026-04-12T09:31:43Z</time></trkpt><trkpt lat="43.052902588788356" lon="12.004600303478545"><ele>344.0</ele><time>2026-04-12T09:31:44Z</time></trkpt><trkpt lat="43.05276928249368" lon="12.004430274821235"><ele>344.0</ele><time>2026-04-12T09:31:45Z</time></trkpt><trkpt lat="43.05261617401277" lon="12.004265138282937"><ele>344.0</ele><time>2026-04-12T09:31:46Z</time></trkpt><trkpt lat="43.052462135749415" lon="12.004087388614694"><ele>342.6666666666667</ele><time>2026-04-12T09:31:47Z</time></trkpt><trkpt lat="43.052320301557835" lon="12.003927498290583"><ele>341.3333333333333</ele><time>2026-04-12T09:31:48Z</time></trkpt><trkpt lat="43.05218200085385" lon="12.003767636001076"><ele>340.0</ele><time>2026-04-12T09:31:49Z</time></trkpt><trkpt lat="43.05205891785971" lon="12.003615985256674"><ele>340.0</ele><time>2026-04-12T09:31:50Z</time></trkpt><trkpt lat="43.05194580479412" lon="12.003476824535952"><ele>340.0</ele><time>2026-04-12T09:31:51Z</time></trkpt><trkpt lat="43.05183607482666" lon="12.003338474965087"><ele>340.0</ele><time>2026-04-12T09:31:52Z</time></trkpt><trkpt lat="43.051732569899606" lon="12.003219818545148"><ele>340.0</ele><time>2026-04-12T09:31:53Z</time></trkpt><trkpt lat="43.05163492103065" lon="12.003099697928445"><ele>340.6</ele><time>2026-04-12T09:31:54Z</time></trkpt><trkpt lat="43.05154552195761" lon="12.002991849165511"><ele>341.2</ele><time>2026-04-12T09:31:55Z</time></trkpt><trkpt lat="43.051473896583424" lon="12.002897972871034"><ele>341.79999999999995</ele><time>2026-04-12T09:31:56Z</time></trkpt><trkpt lat="43.05141976634037" lon="12.002815631837482"><ele>342.4</ele><time>2026-04-12T09:31:57Z</time></trkpt><trkpt lat="43.0513751890303" lon="12.002691368414707"><ele>343.0</ele><time>2026-04-12T09:31:59Z</time></trkpt><trkpt lat="43.05136681474119" lon="12.002597055690112"><ele>343.0</ele><time>2026-04-12T09:32:01Z</time></trkpt><trkpt lat="43.05151007056651" lon="12.00255695625442"><ele>343.0</ele><time>2026-04-12T09:32:02Z</time></trkpt><trkpt lat="43.051639049912524" lon="12.002580413821308"><ele>343.0</ele><time>2026-04-12T09:32:04Z</time></trkpt><trkpt lat="43.05172399209374" lon="12.002586673788679"><ele>343.0</ele><time>2026-04-12T09:32:05Z</time></trkpt><trkpt lat="43.05181131927205" lon="12.002591243466481"><ele>343.0</ele><time>2026-04-12T09:32:06Z</time></trkpt><trkpt lat="43.05191317245517" lon="12.002592265853155"><ele>343.0</ele><time>2026-04-12T09:32:07Z</time></trkpt><trkpt lat="43.052028342642735" lon="12.002596485608795"><ele>343.0</ele><time>2026-04-12T09:32:08Z</time></trkpt><trkpt lat="43.052155156921444" lon="12.002604258456358"><ele>343.0</ele><time>2026-04-12T09:32:09Z</time></trkpt><trkpt lat="43.052302458356" lon="12.002613570189283"><ele>343.0</ele><time>2026-04-12T09:32:10Z</time></trkpt><trkpt lat="43.05246427230167" lon="12.002617179564673"><ele>343.0</ele><time>2026-04-12T09:32:11Z</time></trkpt><trkpt lat="43.05264691978938" lon="12.002627559438459"><ele>343.0</ele><time>2026-04-12T09:32:12Z</time></trkpt><trkpt lat="43.052856167115046" lon="12.00261162767687"><ele>343.0</ele><time>2026-04-12T09:32:13Z</time></trkpt><trkpt lat="43.05309127677737" lon="12.002592301125455"><ele>343.0</ele><time>2026-04-12T09:32:14Z</time></trkpt><trkpt lat="43.05330348280551" lon="12.002572470103614"><ele>343.0</ele><time>2026-04-12T09:32:15Z</time></trkpt><trkpt lat="43.0534958227864" lon="12.002553215595034"><ele>343.0</ele><time>2026-04-12T09:32:16Z</time></trkpt><trkpt lat="43.0536659657484" lon="12.002483144770443"><ele>342.0</ele><time>2026-04-12T09:32:17Z</time></trkpt><trkpt lat="43.053824256013336" lon="12.002397607853025"><ele>341.0</ele><time>2026-04-12T09:32:18Z</time></trkpt><trkpt lat="43.05398171589898" lon="12.002269612188337"><ele>340.0</ele><time>2026-04-12T09:32:19Z</time></trkpt><trkpt lat="43.05413732521045" lon="12.002124908006246"><ele>340.0</ele><time>2026-04-12T09:32:20Z</time></trkpt><trkpt lat="43.054297813718904" lon="12.001974714717853"><ele>340.0</ele><time>2026-04-12T09:32:21Z</time></trkpt><trkpt lat="43.05445545572352" lon="12.001823280620401"><ele>340.0</ele><time>2026-04-12T09:32:22Z</time></trkpt><trkpt lat="43.05461617413468" lon="12.00167120391741"><ele>340.0</ele><time>2026-04-12T09:32:23Z</time></trkpt><trkpt lat="43.054777918042205" lon="12.001522026271381"><ele>340.0</ele><time>2026-04-12T09:32:24.001Z</time></trkpt><trkpt lat="43.054938323458195" lon="12.001373529997934"><ele>340.0</ele><time>2026-04-12T09:32:25.001Z</time></trkpt><trkpt lat="43.05509884316219" lon="12.001225788880292"><ele>340.0</ele><time>2026-04-12T09:32:26.001Z</time></trkpt><trkpt lat="43.05526159375701" lon="12.001079245189693"><ele>340.0</ele><time>2026-04-12T09:32:27.001Z</time></trkpt><trkpt lat="43.05542516031112" lon="12.000930823377155"><ele>340.0</ele><time>2026-04-12T09:32:28.001Z</time></trkpt><trkpt lat="43.05558907239694" lon="12.000781023519368"><ele>340.66666666666663</ele><time>2026-04-12T09:32:29.001Z</time></trkpt><trkpt lat="43.05575540737804" lon="12.000629605423875"><ele>341.3333333333333</ele><time>2026-04-12T09:32:30.001Z</time></trkpt><trkpt lat="43.055922578478985" lon="12.000476305567918"><ele>342.0</ele><time>2026-04-12T09:32:31.001Z</time></trkpt><trkpt lat="43.056090060168614" lon="12.000320126486963"><ele>342.0</ele><time>2026-04-12T09:32:32.001Z</time></trkpt><trkpt lat="43.05626095531833" lon="12.000163363081656"><ele>342.0</ele><time>2026-04-12T09:32:33.001Z</time></trkpt><trkpt lat="43.05642920738742" lon="12.000006183150662"><ele>342.0</ele><time>2026-04-12T09:32:34.001Z</time></trkpt><trkpt lat="43.056586329908704" lon="11.99985516443576"><ele>342.0</ele><time>2026-04-12T09:32:35.001Z</time></trkpt><trkpt lat="43.056740852409725" lon="11.999706877307538"><ele>342.0</ele><time>2026-04-12T09:32:36.001Z</time></trkpt><trkpt lat="43.056895406307696" lon="11.99957304835633"><ele>342.0</ele><time>2026-04-12T09:32:37.001Z</time></trkpt><trkpt lat="43.05703970656519" lon="11.999386520236797"><ele>342.0</ele><time>2026-04-12T09:32:38.001Z</time></trkpt><trkpt lat="43.057163717128226" lon="11.999222587422008"><ele>342.0</ele><time>2026-04-12T09:32:39.001Z</time></trkpt><trkpt lat="43.05731133446732" lon="11.99906126729835"><ele>342.0</ele><time>2026-04-12T09:32:40.001Z</time></trkpt><trkpt lat="43.05743208453866" lon="11.998901025697934"><ele>344.25</ele><time>2026-04-12T09:32:41.001Z</time></trkpt><trkpt lat="43.05756115265788" lon="11.998810041982827"><ele>346.5</ele><time>2026-04-12T09:32:42.001Z</time></trkpt><trkpt lat="43.05769228070719" lon="11.99876728817178"><ele>348.75</ele><time>2026-04-12T09:32:43.001Z</time></trkpt><trkpt lat="43.05782600830725" lon="11.998785297329407"><ele>351.0</ele><time>2026-04-12T09:32:43.999Z</time></trkpt><trkpt lat="43.05797621333948" lon="11.99877208129395"><ele>351.0</ele><time>2026-04-12T09:32:44.999Z</time></trkpt><trkpt lat="43.05813689919607" lon="11.998790408000799"><ele>351.0</ele><time>2026-04-12T09:32:45.999Z</time></trkpt><trkpt lat="43.058301356270086" lon="11.998806001832895"><ele>351.0</ele><time>2026-04-12T09:32:46.999Z</time></trkpt><trkpt lat="43.0584649851096" lon="11.998816196215936"><ele>353.25</ele><time>2026-04-12T09:32:47.999Z</time></trkpt><trkpt lat="43.05860576847603" lon="11.998829059910276"><ele>355.5</ele><time>2026-04-12T09:32:48.999Z</time></trkpt><trkpt lat="43.05873729773278" lon="11.998835792802211"><ele>357.75</ele><time>2026-04-12T09:32:49.999Z</time></trkpt><trkpt lat="43.05886438729685" lon="11.998838603807378"><ele>360.0</ele><time>2026-04-12T09:32:50.999Z</time></trkpt><trkpt lat="43.05899213280348" lon="11.998840189457079"><ele>360.75</ele><time>2026-04-12T09:32:51.999Z</time></trkpt><trkpt lat="43.059122895841654" lon="11.998820600396522"><ele>361.5</ele><time>2026-04-12T09:32:52.999Z</time></trkpt><trkpt lat="43.05925934433012" lon="11.998766003924557"><ele>362.25</ele><time>2026-04-12T09:32:53.999Z</time></trkpt><trkpt lat="43.059395430108815" lon="11.998685814219504"><ele>363.0</ele><time>2026-04-12T09:32:54.999Z</time></trkpt><trkpt lat="43.05953047089783" lon="11.998599722002183"><ele>363.0</ele><time>2026-04-12T09:32:55.999Z</time></trkpt><trkpt lat="43.05966137537137" lon="11.998514479783678"><ele>363.0</ele><time>2026-04-12T09:32:56.999Z</time></trkpt><trkpt lat="43.05978256230701" lon="11.998427911800707"><ele>363.0</ele><time>2026-04-12T09:32:57.999Z</time></trkpt><trkpt lat="43.059897503531815" lon="11.998350262073815"><ele>363.0</ele><time>2026-04-12T09:32:59Z</time></trkpt><trkpt lat="43.06000217848347" lon="11.998272384707196"><ele>360.5</ele><time>2026-04-12T09:33:00Z</time></trkpt><trkpt lat="43.06010079600929" lon="11.998229781564483"><ele>358.0</ele><time>2026-04-12T09:33:01Z</time></trkpt><trkpt lat="43.06016569726631" lon="11.998162140818371"><ele>355.5</ele><time>2026-04-12T09:33:02Z</time></trkpt><trkpt lat="43.06026996060652" lon="11.998105836488454"><ele>353.0</ele><time>2026-04-12T09:33:04Z</time></trkpt><trkpt lat="43.060303401794734" lon="11.997866335561463"><ele>353.0</ele><time>2026-04-12T09:33:06Z</time></trkpt><trkpt lat="43.06030657725642" lon="11.99771124631916"><ele>353.0</ele><time>2026-04-12T09:33:07Z</time></trkpt><trkpt lat="43.06032789404907" lon="11.997529073980145"><ele>353.0</ele><time>2026-04-12T09:33:08Z</time></trkpt><trkpt lat="43.06036135131035" lon="11.99732450185106"><ele>353.0</ele><time>2026-04-12T09:33:09Z</time></trkpt><trkpt lat="43.060374637206536" lon="11.997112909112472"><ele>350.0</ele><time>2026-04-12T09:33:10Z</time></trkpt><trkpt lat="43.06038468526339" lon="11.996921885483916"><ele>347.0</ele><time>2026-04-12T09:33:11Z</time></trkpt><trkpt lat="43.06039476425946" lon="11.996743064562551"><ele>344.0</ele><time>2026-04-12T09:33:12Z</time></trkpt><trkpt lat="43.06040519911668" lon="11.996564685158184"><ele>341.0</ele><time>2026-04-12T09:33:13Z</time></trkpt><trkpt lat="43.060402577454035" lon="11.996385632230586"><ele>338.75</ele><time>2026-04-12T09:33:14Z</time></trkpt><trkpt lat="43.06042622365539" lon="11.996206780212166"><ele>336.5</ele><time>2026-04-12T09:33:15Z</time></trkpt><trkpt lat="43.060436616077986" lon="11.996029867891055"><ele>334.25</ele><time>2026-04-12T09:33:16Z</time></trkpt><trkpt lat="43.060430376758504" lon="11.995860443921586"><ele>332.0</ele><time>2026-04-12T09:33:17Z</time></trkpt><trkpt lat="43.06045490278523" lon="11.995696016915804"><ele>330.8</ele><time>2026-04-12T09:33:18Z</time></trkpt><trkpt lat="43.060454190691935" lon="11.995533747070759"><ele>329.6</ele><time>2026-04-12T09:33:19Z</time></trkpt><trkpt lat="43.06046394192131" lon="11.995375094744995"><ele>328.40000000000003</ele><time>2026-04-12T09:33:20Z</time></trkpt><trkpt lat="43.06047550764641" lon="11.995223308843052"><ele>327.20000000000005</ele><time>2026-04-12T09:33:21Z</time></trkpt><trkpt lat="43.06048961672482" lon="11.995084133639493"><ele>326.0</ele><time>2026-04-12T09:33:22Z</time></trkpt><trkpt lat="43.06049805515391" lon="11.994960810157812"><ele>325.25</ele><time>2026-04-12T09:33:23Z</time></trkpt><trkpt lat="43.06047935402894" lon="11.994826338744991"><ele>324.5</ele><time>2026-04-12T09:33:24Z</time></trkpt><trkpt lat="43.060445290815835" lon="11.99468926985495"><ele>323.75</ele><time>2026-04-12T09:33:25Z</time></trkpt><trkpt lat="43.06038927563082" lon="11.994529473442986"><ele>323.0</ele><time>2026-04-12T09:33:26Z</time></trkpt><trkpt lat="43.060327545717314" lon="11.994350332500217"><ele>323.0</ele><time>2026-04-12T09:33:27Z</time></trkpt><trkpt lat="43.06027100427879" lon="11.994176329550307"><ele>323.0</ele><time>2026-04-12T09:33:28Z</time></trkpt><trkpt lat="43.060218492910955" lon="11.9940050387126"><ele>323.0</ele><time>2026-04-12T09:33:29Z</time></trkpt><trkpt lat="43.060170576079955" lon="11.993837561987172"><ele>323.0</ele><time>2026-04-12T09:33:30Z</time></trkpt><trkpt lat="43.0601217106299" lon="11.993678814821015"><ele>322.25</ele><time>2026-04-12T09:33:31Z</time></trkpt><trkpt lat="43.06008811775095" lon="11.993531182714838"><ele>321.5</ele><time>2026-04-12T09:33:32Z</time></trkpt><trkpt lat="43.06005440865932" lon="11.993376830176791"><ele>320.75</ele><time>2026-04-12T09:33:33Z</time></trkpt><trkpt lat="43.060027178191206" lon="11.993221639470582"><ele>320.0</ele><time>2026-04-12T09:33:34Z</time></trkpt><trkpt lat="43.06000598335471" lon="11.993072845757055"><ele>319.5</ele><time>2026-04-12T09:33:35Z</time></trkpt><trkpt lat="43.05997653965479" lon="11.992923151294232"><ele>319.0</ele><time>2026-04-12T09:33:36Z</time></trkpt><trkpt lat="43.05994202946251" lon="11.992769592437075"><ele>318.5</ele><time>2026-04-12T09:33:37Z</time></trkpt><trkpt lat="43.059900314396124" lon="11.992602534843085"><ele>318.0</ele><time>2026-04-12T09:33:38Z</time></trkpt><trkpt lat="43.05985172466201" lon="11.992427592576991"><ele>311.6666666666667</ele><time>2026-04-12T09:33:39Z</time></trkpt><trkpt lat="43.05980093524015" lon="11.992253388117861"><ele>305.33333333333337</ele><time>2026-04-12T09:33:40Z</time></trkpt><trkpt lat="43.05973294404562" lon="11.992062649473242"><ele>299.0</ele><time>2026-04-12T09:33:41Z</time></trkpt><trkpt lat="43.05966134326499" lon="11.991866513423345"><ele>298.0</ele><time>2026-04-12T09:33:42Z</time></trkpt><trkpt lat="43.05960565257266" lon="11.991664661414296"><ele>297.0</ele><time>2026-04-12T09:33:43Z</time></trkpt><trkpt lat="43.0595233541458" lon="11.991481479775002"><ele>296.0</ele><time>2026-04-12T09:33:44Z</time></trkpt><trkpt lat="43.05945764899187" lon="11.991283426507364"><ele>296.0</ele><time>2026-04-12T09:33:45Z</time></trkpt><trkpt lat="43.059403150562126" lon="11.991084002413393"><ele>296.0</ele><time>2026-04-12T09:33:46Z</time></trkpt><trkpt lat="43.05932236709066" lon="11.99090178494428"><ele>296.0</ele><time>2026-04-12T09:33:47Z</time></trkpt><trkpt lat="43.0592534132882" lon="11.990707820467104"><ele>295.6666666666667</ele><time>2026-04-12T09:33:48Z</time></trkpt><trkpt lat="43.059180758983274" lon="11.99051996329002"><ele>295.3333333333333</ele><time>2026-04-12T09:33:49Z</time></trkpt><trkpt lat="43.059096707300476" lon="11.990335257251472"><ele>295.0</ele><time>2026-04-12T09:33:50Z</time></trkpt><trkpt lat="43.05901610980034" lon="11.99014923813586"><ele>292.0</ele><time>2026-04-12T09:33:51Z</time></trkpt><trkpt lat="43.05888683972868" lon="11.989990860030648"><ele>289.0</ele><time>2026-04-12T09:33:52Z</time></trkpt><trkpt lat="43.05876298436244" lon="11.98981621531605"><ele>286.0</ele><time>2026-04-12T09:33:53Z</time></trkpt><trkpt lat="43.05863802989025" lon="11.989652422492181"><ele>286.0</ele><time>2026-04-12T09:33:54Z</time></trkpt><trkpt lat="43.05852701487694" lon="11.989501329780376"><ele>286.0</ele><time>2026-04-12T09:33:55Z</time></trkpt><trkpt lat="43.05844313751927" lon="11.98935356764571"><ele>286.0</ele><time>2026-04-12T09:33:56Z</time></trkpt><trkpt lat="43.05834222525837" lon="11.98925024301676"><ele>286.0</ele><time>2026-04-12T09:33:57Z</time></trkpt><trkpt lat="43.05826712101169" lon="11.989140505835737"><ele>284.6</ele><time>2026-04-12T09:33:58Z</time></trkpt><trkpt lat="43.05819607780904" lon="11.989026914213886"><ele>283.20000000000005</ele><time>2026-04-12T09:33:59Z</time></trkpt><trkpt lat="43.058141017569476" lon="11.98890107131173"><ele>281.79999999999995</ele><time>2026-04-12T09:34:00Z</time></trkpt><trkpt lat="43.058091871959256" lon="11.98876422979666"><ele>280.4</ele><time>2026-04-12T09:34:01Z</time></trkpt><trkpt lat="43.058054241911016" lon="11.98863084340219"><ele>279.0</ele><time>2026-04-12T09:34:02Z</time></trkpt><trkpt lat="43.05802855235407" lon="11.988501901223042"><ele>279.0</ele><time>2026-04-12T09:34:03Z</time></trkpt><trkpt lat="43.05802287192194" lon="11.988377368687619"><ele>279.0</ele><time>2026-04-12T09:34:04Z</time></trkpt><trkpt lat="43.05804329710458" lon="11.988262229063414"><ele>279.0</ele><time>2026-04-12T09:34:05Z</time></trkpt><trkpt lat="43.05808647435568" lon="11.98816054938582"><ele>279.0</ele><time>2026-04-12T09:34:06Z</time></trkpt><trkpt lat="43.058162453330716" lon="11.988105915043068"><ele>279.0</ele><time>2026-04-12T09:34:07Z</time></trkpt><trkpt lat="43.05823543724748" lon="11.988027115637074"><ele>279.0</ele><time>2026-04-12T09:34:08Z</time></trkpt><trkpt lat="43.058329334950834" lon="11.987977314819798"><ele>280.8</ele><time>2026-04-12T09:34:09Z</time></trkpt><trkpt lat="43.05843160287346" lon="11.987931748302312"><ele>282.59999999999997</ele><time>2026-04-12T09:34:10Z</time></trkpt><trkpt lat="43.05851940898415" lon="11.987886262692667"><ele>284.4</ele><time>2026-04-12T09:34:11Z</time></trkpt><trkpt lat="43.05858689856236" lon="11.987828308051636"><ele>286.2</ele><time>2026-04-12T09:34:12Z</time></trkpt><trkpt lat="43.05863240883464" lon="11.987736906371296"><ele>288.0</ele><time>2026-04-12T09:34:13Z</time></trkpt><trkpt lat="43.05864777333862" lon="11.987617442875623"><ele>286.6</ele><time>2026-04-12T09:34:14Z</time></trkpt><trkpt lat="43.05863225258463" lon="11.98749084828324"><ele>285.20000000000005</ele><time>2026-04-12T09:34:15Z</time></trkpt><trkpt lat="43.05858712793077" lon="11.987364835191805"><ele>283.8</ele><time>2026-04-12T09:34:16Z</time></trkpt><trkpt lat="43.05852481473343" lon="11.98722743145172"><ele>282.40000000000003</ele><time>2026-04-12T09:34:17Z</time></trkpt><trkpt lat="43.0584657857213" lon="11.987062913845065"><ele>281.0</ele><time>2026-04-12T09:34:18Z</time></trkpt><trkpt lat="43.0584164593746" lon="11.986872868525234"><ele>281.0</ele><time>2026-04-12T09:34:19Z</time></trkpt><trkpt lat="43.058346322183105" lon="11.986709397945424"><ele>281.0</ele><time>2026-04-12T09:34:20Z</time></trkpt><trkpt lat="43.058296004945156" lon="11.986534611728157"><ele>281.0</ele><time>2026-04-12T09:34:21Z</time></trkpt><trkpt lat="43.058233674769355" lon="11.986368252691793"><ele>281.0</ele><time>2026-04-12T09:34:22Z</time></trkpt><trkpt lat="43.05818210057413" lon="11.986198023184567"><ele>278.0</ele><time>2026-04-12T09:34:23Z</time></trkpt><trkpt lat="43.058123827444746" lon="11.986030210004772"><ele>275.0</ele><time>2026-04-12T09:34:24Z</time></trkpt><trkpt lat="43.05806858644414" lon="11.985857049107763"><ele>272.0</ele><time>2026-04-12T09:34:25Z</time></trkpt><trkpt lat="43.05802625701556" lon="11.985674578269423"><ele>269.0</ele><time>2026-04-12T09:34:26.001Z</time></trkpt><trkpt lat="43.05796057374963" lon="11.985517902059266"><ele>267.25</ele><time>2026-04-12T09:34:27.001Z</time></trkpt><trkpt lat="43.05791449787927" lon="11.985340479833715"><ele>265.5</ele><time>2026-04-12T09:34:28.001Z</time></trkpt><trkpt lat="43.05786072887557" lon="11.98515612776048"><ele>263.75</ele><time>2026-04-12T09:34:29.001Z</time></trkpt><trkpt lat="43.05782114391117" lon="11.984966182599495"><ele>262.0</ele><time>2026-04-12T09:34:30.001Z</time></trkpt><trkpt lat="43.05778802390824" lon="11.984772750168101"><ele>260.66666666666663</ele><time>2026-04-12T09:34:31.001Z</time></trkpt><trkpt lat="43.057766388809306" lon="11.984563079690778"><ele>259.3333333333333</ele><time>2026-04-12T09:34:32.001Z</time></trkpt><trkpt lat="43.0577586395036" lon="11.984346745508578"><ele>258.0</ele><time>2026-04-12T09:34:33.001Z</time></trkpt><trkpt lat="43.05777323470146" lon="11.984122723881232"><ele>256.6666666666667</ele><time>2026-04-12T09:34:34.001Z</time></trkpt><trkpt lat="43.057787156714696" lon="11.98389086388315"><ele>255.33333333333334</ele><time>2026-04-12T09:34:35.001Z</time></trkpt><trkpt lat="43.0577849440326" lon="11.983654503543457"><ele>254.0</ele><time>2026-04-12T09:34:36.001Z</time></trkpt><trkpt lat="43.057805611431725" lon="11.98340834295796"><ele>253.66666666666669</ele><time>2026-04-12T09:34:37.001Z</time></trkpt><trkpt lat="43.05782810897623" lon="11.983160113113529"><ele>253.33333333333331</ele><time>2026-04-12T09:34:38.001Z</time></trkpt><trkpt lat="43.057856007821165" lon="11.982913698028643"><ele>253.0</ele><time>2026-04-12T09:34:39.001Z</time></trkpt><trkpt lat="43.05788316039266" lon="11.982663593755566"><ele>252.33333333333331</ele><time>2026-04-12T09:34:40.001Z</time></trkpt><trkpt lat="43.05790344114142" lon="11.982431576716193"><ele>251.66666666666669</ele><time>2026-04-12T09:34:41.001Z</time></trkpt><trkpt lat="43.05794016448542" lon="11.982197775603437"><ele>251.0</ele><time>2026-04-12T09:34:42.001Z</time></trkpt><trkpt lat="43.057942596880736" lon="11.981944330341515"><ele>251.0</ele><time>2026-04-12T09:34:43.001Z</time></trkpt><trkpt lat="43.057957022453195" lon="11.981694503126361"><ele>251.0</ele><time>2026-04-12T09:34:44.001Z</time></trkpt><trkpt lat="43.05796541359579" lon="11.981434125422899"><ele>251.0</ele><time>2026-04-12T09:34:45.001Z</time></trkpt><trkpt lat="43.05797346461499" lon="11.981170032323277"><ele>250.66666666666669</ele><time>2026-04-12T09:34:46.001Z</time></trkpt><trkpt lat="43.05798131472111" lon="11.980916030920751"><ele>250.33333333333331</ele><time>2026-04-12T09:34:47.001Z</time></trkpt><trkpt lat="43.05798541102527" lon="11.980694245194474"><ele>250.0</ele><time>2026-04-12T09:34:48.001Z</time></trkpt><trkpt lat="43.057995578230255" lon="11.980490483277814"><ele>250.0</ele><time>2026-04-12T09:34:49.001Z</time></trkpt><trkpt lat="43.0580084411718" lon="11.980334634833682"><ele>250.0</ele><time>2026-04-12T09:34:50Z</time></trkpt><trkpt lat="43.05805264836857" lon="11.980212684780133"><ele>250.0</ele><time>2026-04-12T09:34:51Z</time></trkpt><trkpt lat="43.05810314470948" lon="11.980082550808909"><ele>250.0</ele><time>2026-04-12T09:34:52Z</time></trkpt><trkpt lat="43.058172724287346" lon="11.979940309649738"><ele>250.0</ele><time>2026-04-12T09:34:53Z</time></trkpt><trkpt lat="43.05826887445677" lon="11.979778374790412"><ele>251.66666666666666</ele><time>2026-04-12T09:34:54Z</time></trkpt><trkpt lat="43.05837519585802" lon="11.979588923756578"><ele>253.33333333333331</ele><time>2026-04-12T09:34:55Z</time></trkpt><trkpt lat="43.05849476540904" lon="11.979442791862024"><ele>255.0</ele><time>2026-04-12T09:34:56Z</time></trkpt><trkpt lat="43.058600151723255" lon="11.97932776416856"><ele>255.0</ele><time>2026-04-12T09:34:57Z</time></trkpt><trkpt lat="43.0587034939289" lon="11.979226102003343"><ele>255.0</ele><time>2026-04-12T09:34:58Z</time></trkpt><trkpt lat="43.058822545720815" lon="11.979161237418447"><ele>255.0</ele><time>2026-04-12T09:34:59Z</time></trkpt><trkpt lat="43.058961767658" lon="11.97906749570233"><ele>255.0</ele><time>2026-04-12T09:35:00Z</time></trkpt><trkpt lat="43.059130651244196" lon="11.978947656880045"><ele>256.6666666666667</ele><time>2026-04-12T09:35:01Z</time></trkpt><trkpt lat="43.059309349200106" lon="11.978820853892378"><ele>258.33333333333337</ele><time>2026-04-12T09:35:02Z</time></trkpt><trkpt lat="43.059474239235556" lon="11.97870090955074"><ele>260.0</ele><time>2026-04-12T09:35:03Z</time></trkpt><trkpt lat="43.05962611348504" lon="11.978588026239557"><ele>260.0</ele><time>2026-04-12T09:35:04Z</time></trkpt><trkpt lat="43.05976702651028" lon="11.978479627560699"><ele>260.0</ele><time>2026-04-12T09:35:05Z</time></trkpt><trkpt lat="43.05989717769474" lon="11.978353629343259"><ele>260.0</ele><time>2026-04-12T09:35:06Z</time></trkpt><trkpt lat="43.06003727144809" lon="11.97825100121473"><ele>260.33333333333337</ele><time>2026-04-12T09:35:07Z</time></trkpt><trkpt lat="43.06017576439877" lon="11.978142203005946"><ele>260.6666666666667</ele><time>2026-04-12T09:35:08Z</time></trkpt><trkpt lat="43.06032232153844" lon="11.978029030405493"><ele>261.0</ele><time>2026-04-12T09:35:09Z</time></trkpt><trkpt lat="43.06046476977484" lon="11.97790961757766"><ele>261.0</ele><time>2026-04-12T09:35:10Z</time></trkpt><trkpt lat="43.06062213142155" lon="11.977799178279751"><ele>261.0</ele><time>2026-04-12T09:35:11Z</time></trkpt><trkpt lat="43.060746230915626" lon="11.977664538251656"><ele>261.0</ele><time>2026-04-12T09:35:12Z</time></trkpt><trkpt lat="43.06088014631321" lon="11.977553765558008"><ele>261.0</ele><time>2026-04-12T09:35:13Z</time></trkpt><trkpt lat="43.06101566015753" lon="11.977436326674402"><ele>261.0</ele><time>2026-04-12T09:35:14Z</time></trkpt><trkpt lat="43.061149563214364" lon="11.977322165769996"><ele>261.0</ele><time>2026-04-12T09:35:15Z</time></trkpt><trkpt lat="43.06127766178865" lon="11.977195532000438"><ele>261.0</ele><time>2026-04-12T09:35:16Z</time></trkpt><trkpt lat="43.06141704318625" lon="11.977098090510658"><ele>261.0</ele><time>2026-04-12T09:35:17Z</time></trkpt><trkpt lat="43.06155071621334" lon="11.976982920965815"><ele>261.0</ele><time>2026-04-12T09:35:18Z</time></trkpt><trkpt lat="43.061687933818234" lon="11.976871387115338"><ele>260.5</ele><time>2026-04-12T09:35:19Z</time></trkpt><trkpt lat="43.06181731396155" lon="11.976781454190393"><ele>260.0</ele><time>2026-04-12T09:35:20Z</time></trkpt><trkpt lat="43.06194351357843" lon="11.976711061501154"><ele>259.5</ele><time>2026-04-12T09:35:21Z</time></trkpt><trkpt lat="43.062075865646065" lon="11.976653251542675"><ele>259.0</ele><time>2026-04-12T09:35:22Z</time></trkpt><trkpt lat="43.06221346283536" lon="11.976585419059502"><ele>259.0</ele><time>2026-04-12T09:35:23Z</time></trkpt><trkpt lat="43.06236825573843" lon="11.976536852630701"><ele>259.0</ele><time>2026-04-12T09:35:24Z</time></trkpt><trkpt lat="43.06252069617043" lon="11.976481383187695"><ele>259.0</ele><time>2026-04-12T09:35:25Z</time></trkpt><trkpt lat="43.06266820704184" lon="11.976428909176017"><ele>259.0</ele><time>2026-04-12T09:35:26Z</time></trkpt><trkpt lat="43.062816927287834" lon="11.976377014278754"><ele>259.0</ele><time>2026-04-12T09:35:27Z</time></trkpt><trkpt lat="43.06295598941561" lon="11.976329288405742"><ele>259.0</ele><time>2026-04-12T09:35:28Z</time></trkpt><trkpt lat="43.06308439986721" lon="11.976287337841974"><ele>259.0</ele><time>2026-04-12T09:35:29Z</time></trkpt><trkpt lat="43.06320732717009" lon="11.976248006861834"><ele>258.8</ele><time>2026-04-12T09:35:30Z</time></trkpt><trkpt lat="43.06331634568416" lon="11.976211612235762"><ele>258.59999999999997</ele><time>2026-04-12T09:35:31Z</time></trkpt><trkpt lat="43.063413518998324" lon="11.97614761144454"><ele>258.4</ele><time>2026-04-12T09:35:32Z</time></trkpt><trkpt lat="43.06349778220864" lon="11.976061932050929"><ele>258.2</ele><time>2026-04-12T09:35:33Z</time></trkpt><trkpt lat="43.06358163588649" lon="11.975974659545626"><ele>258.0</ele><time>2026-04-12T09:35:34Z</time></trkpt><trkpt lat="43.06362576999954" lon="11.975824663962637"><ele>256.0</ele><time>2026-04-12T09:35:35Z</time></trkpt><trkpt lat="43.06362258563959" lon="11.975644489711648"><ele>254.0</ele><time>2026-04-12T09:35:36Z</time></trkpt><trkpt lat="43.06362895566126" lon="11.975441874941039"><ele>252.0</ele><time>2026-04-12T09:35:37Z</time></trkpt><trkpt lat="43.06365353821389" lon="11.975208493919471"><ele>251.33333333333331</ele><time>2026-04-12T09:35:38Z</time></trkpt><trkpt lat="43.063688305614086" lon="11.974983515438037"><ele>250.66666666666666</ele><time>2026-04-12T09:35:39Z</time></trkpt><trkpt lat="43.0637321998838" lon="11.97478197681152"><ele>250.0</ele><time>2026-04-12T09:35:40Z</time></trkpt><trkpt lat="43.063793807133244" lon="11.974597784613753"><ele>250.0</ele><time>2026-04-12T09:35:41Z</time></trkpt><trkpt lat="43.06387142864571" lon="11.97442656717227"><ele>250.0</ele><time>2026-04-12T09:35:42Z</time></trkpt><trkpt lat="43.063956313659595" lon="11.974235798649948"><ele>250.0</ele><time>2026-04-12T09:35:43Z</time></trkpt><trkpt lat="43.06405388212986" lon="11.974023361645056"><ele>252.5</ele><time>2026-04-12T09:35:44Z</time></trkpt><trkpt lat="43.06416571135955" lon="11.97376577717249"><ele>255.0</ele><time>2026-04-12T09:35:45Z</time></trkpt><trkpt lat="43.06428033413456" lon="11.973481878745813"><ele>254.0</ele><time>2026-04-12T09:35:46Z</time></trkpt><trkpt lat="43.064381962916094" lon="11.973223866064497"><ele>253.0</ele><time>2026-04-12T09:35:47Z</time></trkpt><trkpt lat="43.06446143369742" lon="11.972988335627546"><ele>252.0</ele><time>2026-04-12T09:35:48Z</time></trkpt><trkpt lat="43.06454215998942" lon="11.972789999741016"><ele>252.0</ele><time>2026-04-12T09:35:49Z</time></trkpt><trkpt lat="43.06461056258459" lon="11.972591768896994"><ele>252.0</ele><time>2026-04-12T09:35:50Z</time></trkpt><trkpt lat="43.06466910699301" lon="11.972389786118919"><ele>252.0</ele><time>2026-04-12T09:35:51Z</time></trkpt><trkpt lat="43.06472216667364" lon="11.972139108126575"><ele>251.0</ele><time>2026-04-12T09:35:52Z</time></trkpt><trkpt lat="43.064784110352505" lon="11.971870453054477"><ele>250.0</ele><time>2026-04-12T09:35:53Z</time></trkpt><trkpt lat="43.06484718441682" lon="11.971610362537241"><ele>249.0</ele><time>2026-04-12T09:35:54Z</time></trkpt><trkpt lat="43.06492154932896" lon="11.971383173244188"><ele>249.33333333333331</ele><time>2026-04-12T09:35:55Z</time></trkpt><trkpt lat="43.06500020418512" lon="11.971151928757475"><ele>249.66666666666666</ele><time>2026-04-12T09:35:56Z</time></trkpt><trkpt lat="43.06508272796223" lon="11.970928412142444"><ele>250.0</ele><time>2026-04-12T09:35:57Z</time></trkpt><trkpt lat="43.06517804039849" lon="11.970704603689997"><ele>250.0</ele><time>2026-04-12T09:35:58Z</time></trkpt><trkpt lat="43.0652820681842" lon="11.970477272184356"><ele>250.0</ele><time>2026-04-12T09:35:59Z</time></trkpt><trkpt lat="43.065391858123576" lon="11.97023734924166"><ele>250.0</ele><time>2026-04-12T09:36:00Z</time></trkpt><trkpt lat="43.065507513003446" lon="11.969983958666223"><ele>249.66666666666666</ele><time>2026-04-12T09:36:01Z</time></trkpt><trkpt lat="43.065619634581665" lon="11.969736359259127"><ele>249.33333333333331</ele><time>2026-04-12T09:36:02Z</time></trkpt><trkpt lat="43.06572144663133" lon="11.969471755946321"><ele>249.0</ele><time>2026-04-12T09:36:03Z</time></trkpt><trkpt lat="43.06583803160137" lon="11.969254070762052"><ele>249.66666666666669</ele><time>2026-04-12T09:36:04Z</time></trkpt><trkpt lat="43.06594158410973" lon="11.969023596238618"><ele>250.33333333333334</ele><time>2026-04-12T09:36:05Z</time></trkpt><trkpt lat="43.06604364729656" lon="11.968792822141234"><ele>251.0</ele><time>2026-04-12T09:36:06Z</time></trkpt><trkpt lat="43.06614641898183" lon="11.968557321858468"><ele>250.66666666666669</ele><time>2026-04-12T09:36:07.001Z</time></trkpt><trkpt lat="43.06624949325451" lon="11.968320287247076"><ele>250.33333333333331</ele><time>2026-04-12T09:36:08.001Z</time></trkpt><trkpt lat="43.06634033831768" lon="11.968070999428397"><ele>250.0</ele><time>2026-04-12T09:36:09.001Z</time></trkpt><trkpt lat="43.066447905386866" lon="11.96783427902112"><ele>250.0</ele><time>2026-04-12T09:36:10.001Z</time></trkpt><trkpt lat="43.06656240958524" lon="11.967581546538902"><ele>250.0</ele><time>2026-04-12T09:36:11.001Z</time></trkpt><trkpt lat="43.06668269928578" lon="11.967318657962378"><ele>250.0</ele><time>2026-04-12T09:36:12.001Z</time></trkpt><trkpt lat="43.06679181198145" lon="11.967075862195799"><ele>250.33333333333331</ele><time>2026-04-12T09:36:13.001Z</time></trkpt><trkpt lat="43.06689703515856" lon="11.966841608646847"><ele>250.66666666666669</ele><time>2026-04-12T09:36:14.001Z</time></trkpt><trkpt lat="43.0670003068816" lon="11.966613889583334"><ele>251.0</ele><time>2026-04-12T09:36:15.001Z</time></trkpt><trkpt lat="43.06709519810155" lon="11.966396998272579"><ele>251.0</ele><time>2026-04-12T09:36:16.001Z</time></trkpt><trkpt lat="43.06718492351264" lon="11.966202979862384"><ele>251.0</ele><time>2026-04-12T09:36:17.001Z</time></trkpt><trkpt lat="43.06726264764503" lon="11.966024644394862"><ele>251.0</ele><time>2026-04-12T09:36:18.001Z</time></trkpt><trkpt lat="43.06733626689962" lon="11.965857139235773"><ele>251.5</ele><time>2026-04-12T09:36:19.001Z</time></trkpt><trkpt lat="43.06740945514809" lon="11.965690502029698"><ele>252.0</ele><time>2026-04-12T09:36:20.001Z</time></trkpt><trkpt lat="43.06747432725599" lon="11.965542682393847"><ele>252.5</ele><time>2026-04-12T09:36:21.001Z</time></trkpt><trkpt lat="43.06753390343822" lon="11.965408038897973"><ele>253.0</ele><time>2026-04-12T09:36:22.001Z</time></trkpt><trkpt lat="43.06759811915697" lon="11.965269299040413"><ele>253.0</ele><time>2026-04-12T09:36:23.001Z</time></trkpt><trkpt lat="43.06767250056582" lon="11.965145750894994"><ele>253.0</ele><time>2026-04-12T09:36:24.001Z</time></trkpt><trkpt lat="43.06774263253711" lon="11.964992701423027"><ele>253.0</ele><time>2026-04-12T09:36:25.001Z</time></trkpt><trkpt lat="43.067827151438" lon="11.964808255243916"><ele>253.0</ele><time>2026-04-12T09:36:26.001Z</time></trkpt><trkpt lat="43.06792244110349" lon="11.964600304025156"><ele>252.33333333333331</ele><time>2026-04-12T09:36:27.001Z</time></trkpt><trkpt lat="43.068019387410914" lon="11.96438998048116"><ele>251.66666666666669</ele><time>2026-04-12T09:36:28.001Z</time></trkpt><trkpt lat="43.06811368797452" lon="11.964169127770797"><ele>251.0</ele><time>2026-04-12T09:36:29.001Z</time></trkpt><trkpt lat="43.068211687968045" lon="11.963944213607764"><ele>250.66666666666669</ele><time>2026-04-12T09:36:30.001Z</time></trkpt><trkpt lat="43.06831307775133" lon="11.963727777715707"><ele>250.33333333333331</ele><time>2026-04-12T09:36:31.001Z</time></trkpt><trkpt lat="43.068405281136755" lon="11.963535192694671"><ele>250.0</ele><time>2026-04-12T09:36:32.001Z</time></trkpt><trkpt lat="43.068497259648815" lon="11.963340056060385"><ele>250.0</ele><time>2026-04-12T09:36:33.001Z</time></trkpt><trkpt lat="43.06858099604665" lon="11.9631355164795"><ele>250.0</ele><time>2026-04-12T09:36:34.001Z</time></trkpt><trkpt lat="43.06864993781502" lon="11.962921922233162"><ele>250.0</ele><time>2026-04-12T09:36:35.001Z</time></trkpt><trkpt lat="43.068699691480084" lon="11.962695761161521"><ele>249.66666666666666</ele><time>2026-04-12T09:36:36.001Z</time></trkpt><trkpt lat="43.06873616405597" lon="11.962451193210695"><ele>249.33333333333331</ele><time>2026-04-12T09:36:37.001Z</time></trkpt><trkpt lat="43.06877035453418" lon="11.962207890762539"><ele>249.0</ele><time>2026-04-12T09:36:38.001Z</time></trkpt><trkpt lat="43.06881033278559" lon="11.961958055241821"><ele>249.0</ele><time>2026-04-12T09:36:39.001Z</time></trkpt><trkpt lat="43.06884990293198" lon="11.96170928716412"><ele>249.0</ele><time>2026-04-12T09:36:40.001Z</time></trkpt><trkpt lat="43.06888792396" lon="11.96146495303952"><ele>249.0</ele><time>2026-04-12T09:36:41.001Z</time></trkpt><trkpt lat="43.06892933260924" lon="11.961221021554966"><ele>249.0</ele><time>2026-04-12T09:36:42.001Z</time></trkpt><trkpt lat="43.06897040405421" lon="11.960976369317112"><ele>249.0</ele><time>2026-04-12T09:36:43.001Z</time></trkpt><trkpt lat="43.069009924353225" lon="11.960729346117587"><ele>249.0</ele><time>2026-04-12T09:36:44.001Z</time></trkpt><trkpt lat="43.06904788459228" lon="11.960481351755053"><ele>249.0</ele><time>2026-04-12T09:36:45.001Z</time></trkpt><trkpt lat="43.06908718244754" lon="11.960226091951995"><ele>249.0</ele><time>2026-04-12T09:36:46.001Z</time></trkpt><trkpt lat="43.06912667044096" lon="11.959971801322949"><ele>249.0</ele><time>2026-04-12T09:36:47.001Z</time></trkpt><trkpt lat="43.06916802264374" lon="11.959712952479233"><ele>249.0</ele><time>2026-04-12T09:36:48.001Z</time></trkpt><trkpt lat="43.06921029123224" lon="11.959459338216448"><ele>249.0</ele><time>2026-04-12T09:36:49.001Z</time></trkpt><trkpt lat="43.069251864093644" lon="11.959206618220353"><ele>249.0</ele><time>2026-04-12T09:36:50.001Z</time></trkpt><trkpt lat="43.06929448478825" lon="11.958932327676193"><ele>248.66666666666669</ele><time>2026-04-12T09:36:51.001Z</time></trkpt><trkpt lat="43.06933829315415" lon="11.9586654267681"><ele>248.33333333333334</ele><time>2026-04-12T09:36:52.001Z</time></trkpt><trkpt lat="43.06938381784003" lon="11.95839126973106"><ele>248.0</ele><time>2026-04-12T09:36:53.001Z</time></trkpt><trkpt lat="43.06943313224252" lon="11.958100026256023"><ele>248.0</ele><time>2026-04-12T09:36:54.001Z</time></trkpt><trkpt lat="43.06947908233057" lon="11.957810455528424"><ele>248.0</ele><time>2026-04-12T09:36:55.001Z</time></trkpt><trkpt lat="43.069527084456254" lon="11.957517483095785"><ele>248.0</ele><time>2026-04-12T09:36:56Z</time></trkpt><trkpt lat="43.06957006701451" lon="11.957237105520292"><ele>248.0</ele><time>2026-04-12T09:36:57Z</time></trkpt><trkpt lat="43.06961641601586" lon="11.956950809438188"><ele>248.0</ele><time>2026-04-12T09:36:58Z</time></trkpt><trkpt lat="43.0696654710455" lon="11.956653018968298"><ele>248.0</ele><time>2026-04-12T09:36:59Z</time></trkpt><trkpt lat="43.06972179151587" lon="11.956327665035321"><ele>248.0</ele><time>2026-04-12T09:37:00Z</time></trkpt><trkpt lat="43.06977259633474" lon="11.956007460283008"><ele>248.0</ele><time>2026-04-12T09:37:01Z</time></trkpt><trkpt lat="43.069821475009064" lon="11.955731316580746"><ele>248.0</ele><time>2026-04-12T09:37:02Z</time></trkpt><trkpt lat="43.06986064480679" lon="11.95549671939768"><ele>248.0</ele><time>2026-04-12T09:37:03Z</time></trkpt><trkpt lat="43.06989419062417" lon="11.955278319238968"><ele>248.0</ele><time>2026-04-12T09:37:04Z</time></trkpt><trkpt lat="43.0699304207927" lon="11.955066987598686"><ele>248.0</ele><time>2026-04-12T09:37:05Z</time></trkpt><trkpt lat="43.06996364618228" lon="11.954852004246508"><ele>248.33333333333334</ele><time>2026-04-12T09:37:06Z</time></trkpt><trkpt lat="43.07000189008816" lon="11.954626773302229"><ele>248.66666666666669</ele><time>2026-04-12T09:37:07Z</time></trkpt><trkpt lat="43.07003977282641" lon="11.954396392709032"><ele>249.0</ele><time>2026-04-12T09:37:08Z</time></trkpt><trkpt lat="43.07007561064869" lon="11.954176067708577"><ele>249.33333333333331</ele><time>2026-04-12T09:37:09Z</time></trkpt><trkpt lat="43.070111360906516" lon="11.95395448151602"><ele>249.66666666666666</ele><time>2026-04-12T09:37:10Z</time></trkpt><trkpt lat="43.0701471836306" lon="11.953719954324876"><ele>250.0</ele><time>2026-04-12T09:37:11Z</time></trkpt><trkpt lat="43.07018174553867" lon="11.95350557845173"><ele>250.0</ele><time>2026-04-12T09:37:12Z</time></trkpt><trkpt lat="43.07021499340896" lon="11.953296766392649"><ele>250.0</ele><time>2026-04-12T09:37:13Z</time></trkpt><trkpt lat="43.07024746896179" lon="11.95309312365519"><ele>250.0</ele><time>2026-04-12T09:37:14Z</time></trkpt><trkpt lat="43.07027719889286" lon="11.952915194967309"><ele>250.0</ele><time>2026-04-12T09:37:15Z</time></trkpt><trkpt lat="43.070296983448294" lon="11.95272606999012"><ele>250.0</ele><time>2026-04-12T09:37:16Z</time></trkpt><trkpt lat="43.07030232063496" lon="11.952521706802665"><ele>250.0</ele><time>2026-04-12T09:37:17Z</time></trkpt><trkpt lat="43.07028498864186" lon="11.952303517764374"><ele>250.0</ele><time>2026-04-12T09:37:18Z</time></trkpt><trkpt lat="43.07024596913573" lon="11.952063172827918"><ele>250.0</ele><time>2026-04-12T09:37:19Z</time></trkpt><trkpt lat="43.070194482240325" lon="11.951793969546658"><ele>250.0</ele><time>2026-04-12T09:37:20Z</time></trkpt><trkpt lat="43.07012988143493" lon="11.951530506139884"><ele>250.0</ele><time>2026-04-12T09:37:21Z</time></trkpt><trkpt lat="43.07006985019979" lon="11.951306706741754"><ele>250.25</ele><time>2026-04-12T09:37:22Z</time></trkpt><trkpt lat="43.07001968472684" lon="11.951116176487831"><ele>250.5</ele><time>2026-04-12T09:37:23Z</time></trkpt><trkpt lat="43.069972231157365" lon="11.950951686100273"><ele>250.75</ele><time>2026-04-12T09:37:24Z</time></trkpt><trkpt lat="43.06993963180438" lon="11.950775982131173"><ele>251.0</ele><time>2026-04-12T09:37:25Z</time></trkpt><trkpt lat="43.06986735748907" lon="11.950579571430273"><ele>251.0</ele><time>2026-04-12T09:37:26Z</time></trkpt><trkpt lat="43.06980715370824" lon="11.950362330417757"><ele>251.0</ele><time>2026-04-12T09:37:27Z</time></trkpt><trkpt lat="43.069742611458736" lon="11.950126683221628"><ele>251.0</ele><time>2026-04-12T09:37:28Z</time></trkpt><trkpt lat="43.06967165738072" lon="11.949889838731812"><ele>251.0</ele><time>2026-04-12T09:37:29Z</time></trkpt><trkpt lat="43.06960457691576" lon="11.949638280691698"><ele>251.0</ele><time>2026-04-12T09:37:30Z</time></trkpt><trkpt lat="43.06953273129108" lon="11.949394351860699"><ele>251.0</ele><time>2026-04-12T09:37:31Z</time></trkpt><trkpt lat="43.06947710144592" lon="11.949146169960153"><ele>250.66666666666669</ele><time>2026-04-12T09:37:32Z</time></trkpt><trkpt lat="43.06939273175506" lon="11.948917450987343"><ele>250.33333333333331</ele><time>2026-04-12T09:37:33Z</time></trkpt><trkpt lat="43.06933238945971" lon="11.94870042221711"><ele>250.0</ele><time>2026-04-12T09:37:34Z</time></trkpt><trkpt lat="43.06927834379171" lon="11.948490619848496"><ele>250.25</ele><time>2026-04-12T09:37:35Z</time></trkpt><trkpt lat="43.06923105293973" lon="11.948312711255369"><ele>250.5</ele><time>2026-04-12T09:37:36Z</time></trkpt><trkpt lat="43.06918410894873" lon="11.94813068193802"><ele>250.75</ele><time>2026-04-12T09:37:37Z</time></trkpt><trkpt lat="43.06915122561442" lon="11.947937550268374"><ele>251.0</ele><time>2026-04-12T09:37:38Z</time></trkpt><trkpt lat="43.069155296063094" lon="11.947726961763355"><ele>251.0</ele><time>2026-04-12T09:37:39Z</time></trkpt><trkpt lat="43.06913840047856" lon="11.947514639600552"><ele>251.0</ele><time>2026-04-12T09:37:40Z</time></trkpt><trkpt lat="43.06912879582758" lon="11.947299435733193"><ele>251.0</ele><time>2026-04-12T09:37:41Z</time></trkpt><trkpt lat="43.06909344630817" lon="11.947091226755738"><ele>251.33333333333334</ele><time>2026-04-12T09:37:42Z</time></trkpt><trkpt lat="43.06904305081946" lon="11.946882398338994"><ele>251.66666666666669</ele><time>2026-04-12T09:37:43Z</time></trkpt><trkpt lat="43.068985047804475" lon="11.946680413856527"><ele>252.0</ele><time>2026-04-12T09:37:44Z</time></trkpt><trkpt lat="43.06893211941879" lon="11.94651329430919"><ele>252.83333333333334</ele><time>2026-04-12T09:37:45Z</time></trkpt><trkpt lat="43.068890112550555" lon="11.946376664817937"><ele>253.66666666666669</ele><time>2026-04-12T09:37:46Z</time></trkpt><trkpt lat="43.06885780137633" lon="11.946268157994165"><ele>254.5</ele><time>2026-04-12T09:37:47Z</time></trkpt><trkpt lat="43.068845962651864" lon="11.946173239700506"><ele>255.33333333333334</ele><time>2026-04-12T09:37:48.001Z</time></trkpt><trkpt lat="43.06886077259479" lon="11.946087972816006"><ele>256.1666666666667</ele><time>2026-04-12T09:37:49.001Z</time></trkpt><trkpt lat="43.06890561371575" lon="11.94601826443607"><ele>257.0</ele><time>2026-04-12T09:37:50.001Z</time></trkpt><trkpt lat="43.06902580923903" lon="11.946058931455209"><ele>257.0</ele><time>2026-04-12T09:37:52.001Z</time></trkpt><trkpt lat="43.06909435825498" lon="11.946066652661234"><ele>257.0</ele><time>2026-04-12T09:37:53.001Z</time></trkpt><trkpt lat="43.06918590534724" lon="11.946076996692325"><ele>257.0</ele><time>2026-04-12T09:37:54.001Z</time></trkpt><trkpt lat="43.069269652789636" lon="11.946070613628507"><ele>257.0</ele><time>2026-04-12T09:37:55.001Z</time></trkpt><trkpt lat="43.069343450687704" lon="11.946062393471916"><ele>257.0</ele><time>2026-04-12T09:37:56.001Z</time></trkpt><trkpt lat="43.06941512536316" lon="11.945965943034931"><ele>257.0</ele><time>2026-04-12T09:37:57.001Z</time></trkpt><trkpt lat="43.069475755304204" lon="11.945867896111334"><ele>259.5</ele><time>2026-04-12T09:37:58.001Z</time></trkpt><trkpt lat="43.06952665707518" lon="11.945753991506969"><ele>262.0</ele><time>2026-04-12T09:37:59.001Z</time></trkpt><trkpt lat="43.06957493856969" lon="11.945647349199836"><ele>264.5</ele><time>2026-04-12T09:38:00.001Z</time></trkpt><trkpt lat="43.069605261215386" lon="11.94555701741713"><ele>267.0</ele><time>2026-04-12T09:38:01.001Z</time></trkpt><trkpt lat="43.069629675559824" lon="11.945459167812583"><ele>269.5</ele><time>2026-04-12T09:38:02.001Z</time></trkpt><trkpt lat="43.06965208196209" lon="11.945368566657493"><ele>272.0</ele><time>2026-04-12T09:38:03.001Z</time></trkpt><trkpt lat="43.069650692562156" lon="11.945278534155014"><ele>272.0</ele><time>2026-04-12T09:38:04.001Z</time></trkpt><trkpt lat="43.06953681547309" lon="11.94520032760199"><ele>272.0</ele><time>2026-04-12T09:38:06.001Z</time></trkpt><trkpt lat="43.069455172289636" lon="11.945170709808213"><ele>272.0</ele><time>2026-04-12T09:38:07.001Z</time></trkpt><trkpt lat="43.06937555721518" lon="11.945090715779344"><ele>272.0</ele><time>2026-04-12T09:38:09.001Z</time></trkpt><trkpt lat="43.06940429345911" lon="11.94496939763483"><ele>272.0</ele><time>2026-04-12T09:38:10.001Z</time></trkpt><trkpt lat="43.069400716887706" lon="11.944841844748375"><ele>274.2</ele><time>2026-04-12T09:38:11.001Z</time></trkpt><trkpt lat="43.06944329563862" lon="11.944727973019523"><ele>276.4</ele><time>2026-04-12T09:38:12.001Z</time></trkpt><trkpt lat="43.06951730586964" lon="11.944635505619283"><ele>278.6</ele><time>2026-04-12T09:38:13.001Z</time></trkpt><trkpt lat="43.06958946903972" lon="11.944549347182091"><ele>280.8</ele><time>2026-04-12T09:38:14.001Z</time></trkpt><trkpt lat="43.0696274178004" lon="11.94446569181825"><ele>283.0</ele><time>2026-04-12T09:38:15.001Z</time></trkpt><trkpt lat="43.069637780833325" lon="11.94433487340536"><ele>283.6</ele><time>2026-04-12T09:38:16.001Z</time></trkpt><trkpt lat="43.06962372021731" lon="11.944172130819876"><ele>284.20000000000005</ele><time>2026-04-12T09:38:17.001Z</time></trkpt><trkpt lat="43.06960180432592" lon="11.94401098227966"><ele>284.8</ele><time>2026-04-12T09:38:18.001Z</time></trkpt><trkpt lat="43.06958616286567" lon="11.943881919834908"><ele>285.40000000000003</ele><time>2026-04-12T09:38:19.001Z</time></trkpt><trkpt lat="43.06959945583591" lon="11.943745647190235"><ele>286.0</ele><time>2026-04-12T09:38:20.001Z</time></trkpt><trkpt lat="43.06959968181689" lon="11.943598902919266"><ele>286.0</ele><time>2026-04-12T09:38:21.001Z</time></trkpt><trkpt lat="43.069622224163915" lon="11.94345291956684"><ele>286.0</ele><time>2026-04-12T09:38:22.001Z</time></trkpt><trkpt lat="43.069678854787696" lon="11.943311644243384"><ele>286.0</ele><time>2026-04-12T09:38:23.001Z</time></trkpt><trkpt lat="43.06972611251281" lon="11.943152242032669"><ele>286.0</ele><time>2026-04-12T09:38:24.001Z</time></trkpt><trkpt lat="43.06978959271987" lon="11.94300875270971"><ele>286.6</ele><time>2026-04-12T09:38:25.001Z</time></trkpt><trkpt lat="43.06984204537736" lon="11.942860685564153"><ele>287.20000000000005</ele><time>2026-04-12T09:38:26.001Z</time></trkpt><trkpt lat="43.069902177813894" lon="11.942727410092694"><ele>287.79999999999995</ele><time>2026-04-12T09:38:27.001Z</time></trkpt><trkpt lat="43.06994441528287" lon="11.94260241824314"><ele>288.4</ele><time>2026-04-12T09:38:28.001Z</time></trkpt><trkpt lat="43.06999170866661" lon="11.942497223635126"><ele>289.0</ele><time>2026-04-12T09:38:29.001Z</time></trkpt><trkpt lat="43.070051465527364" lon="11.942430331214887"><ele>290.0</ele><time>2026-04-12T09:38:30.001Z</time></trkpt><trkpt lat="43.070141007347374" lon="11.94239946680084"><ele>291.0</ele><time>2026-04-12T09:38:31.001Z</time></trkpt><trkpt lat="43.07025445984411" lon="11.942317292750587"><ele>292.0</ele><time>2026-04-12T09:38:32.001Z</time></trkpt><trkpt lat="43.0703813716839" lon="11.942262388878724"><ele>293.0</ele><time>2026-04-12T09:38:33.001Z</time></trkpt><trkpt lat="43.07050845710964" lon="11.942172837769856"><ele>293.0</ele><time>2026-04-12T09:38:34.001Z</time></trkpt><trkpt lat="43.07063548485629" lon="11.942129585811038"><ele>293.0</ele><time>2026-04-12T09:38:35.001Z</time></trkpt><trkpt lat="43.07073066676337" lon="11.942055745307705"><ele>293.0</ele><time>2026-04-12T09:38:36.001Z</time></trkpt><trkpt lat="43.07081863798032" lon="11.942027833497043"><ele>293.0</ele><time>2026-04-12T09:38:37.001Z</time></trkpt><trkpt lat="43.07088498434363" lon="11.941974553481478"><ele>293.0</ele><time>2026-04-12T09:38:38.001Z</time></trkpt><trkpt lat="43.070947761625796" lon="11.941936282309886"><ele>293.25</ele><time>2026-04-12T09:38:40.001Z</time></trkpt><trkpt lat="43.07107481781586" lon="11.942052953981511"><ele>293.5</ele><time>2026-04-12T09:38:43.001Z</time></trkpt><trkpt lat="43.07117257148646" lon="11.942140469725684"><ele>293.75</ele><time>2026-04-12T09:38:44.001Z</time></trkpt><trkpt lat="43.071274527414424" lon="11.942258117129555"><ele>294.0</ele><time>2026-04-12T09:38:45.001Z</time></trkpt><trkpt lat="43.07138400576175" lon="11.942388689573393"><ele>294.0</ele><time>2026-04-12T09:38:46.001Z</time></trkpt><trkpt lat="43.071489357835" lon="11.942517740182781"><ele>294.0</ele><time>2026-04-12T09:38:47.001Z</time></trkpt><trkpt lat="43.07158572894888" lon="11.94263470166272"><ele>294.0</ele><time>2026-04-12T09:38:48.001Z</time></trkpt><trkpt lat="43.07168632170101" lon="11.942725423318548"><ele>294.0</ele><time>2026-04-12T09:38:49.001Z</time></trkpt><trkpt lat="43.07180466816678" lon="11.942770564670248"><ele>293.75</ele><time>2026-04-12T09:38:50.001Z</time></trkpt><trkpt lat="43.0719345064983" lon="11.942792732195278"><ele>293.5</ele><time>2026-04-12T09:38:51.001Z</time></trkpt><trkpt lat="43.07208306788848" lon="11.942778413993643"><ele>293.25</ele><time>2026-04-12T09:38:52.001Z</time></trkpt><trkpt lat="43.072244622785206" lon="11.942742368859262"><ele>293.0</ele><time>2026-04-12T09:38:53.001Z</time></trkpt><trkpt lat="43.07242622358097" lon="11.942737655798036"><ele>291.6666666666667</ele><time>2026-04-12T09:38:54.001Z</time></trkpt><trkpt lat="43.072619182663566" lon="11.942708973501155"><ele>290.3333333333333</ele><time>2026-04-12T09:38:55.001Z</time></trkpt><trkpt lat="43.072813499708495" lon="11.942680046876045"><ele>289.0</ele><time>2026-04-12T09:38:56.001Z</time></trkpt><trkpt lat="43.07300927624662" lon="11.942650478882559"><ele>289.0</ele><time>2026-04-12T09:38:57.001Z</time></trkpt><trkpt lat="43.073193575478726" lon="11.94260498520849"><ele>289.0</ele><time>2026-04-12T09:38:58.001Z</time></trkpt><trkpt lat="43.07338064296987" lon="11.942588769385864"><ele>289.0</ele><time>2026-04-12T09:38:59.001Z</time></trkpt><trkpt lat="43.07356945947175" lon="11.942622190290537"><ele>289.66666666666663</ele><time>2026-04-12T09:39:00.001Z</time></trkpt><trkpt lat="43.07376161316492" lon="11.942656348794689"><ele>290.3333333333333</ele><time>2026-04-12T09:39:01.001Z</time></trkpt><trkpt lat="43.07395784782814" lon="11.942693315061522"><ele>291.0</ele><time>2026-04-12T09:39:02.001Z</time></trkpt><trkpt lat="43.074156839090975" lon="11.942717857159922"><ele>294.0</ele><time>2026-04-12T09:39:03.001Z</time></trkpt><trkpt lat="43.07435273326206" lon="11.94276770274033"><ele>297.0</ele><time>2026-04-12T09:39:04.001Z</time></trkpt><trkpt lat="43.07456223693682" lon="11.942785465284372"><ele>300.0</ele><time>2026-04-12T09:39:05.001Z</time></trkpt><trkpt lat="43.07475523998722" lon="11.9428274113016"><ele>301.3333333333333</ele><time>2026-04-12T09:39:06Z</time></trkpt><trkpt lat="43.074939888983515" lon="11.942863679506234"><ele>302.66666666666663</ele><time>2026-04-12T09:39:07.001Z</time></trkpt><trkpt lat="43.075119842364536" lon="11.942903117938815"><ele>304.0</ele><time>2026-04-12T09:39:08Z</time></trkpt><trkpt lat="43.075287853835555" lon="11.942942085773941"><ele>304.0</ele><time>2026-04-12T09:39:09Z</time></trkpt><trkpt lat="43.07544392420765" lon="11.94298446538117"><ele>304.0</ele><time>2026-04-12T09:39:10Z</time></trkpt><trkpt lat="43.075604594182145" lon="11.943019365424055"><ele>304.0</ele><time>2026-04-12T09:39:11Z</time></trkpt><trkpt lat="43.075774567736374" lon="11.943038263705649"><ele>303.0</ele><time>2026-04-12T09:39:12Z</time></trkpt><trkpt lat="43.075946148647915" lon="11.943027000038185"><ele>302.0</ele><time>2026-04-12T09:39:13Z</time></trkpt><trkpt lat="43.076121731454656" lon="11.942987702317751"><ele>301.0</ele><time>2026-04-12T09:39:14Z</time></trkpt><trkpt lat="43.076294329953946" lon="11.942960554825166"><ele>301.0</ele><time>2026-04-12T09:39:15Z</time></trkpt><trkpt lat="43.07646217591088" lon="11.94292015966302"><ele>301.0</ele><time>2026-04-12T09:39:16Z</time></trkpt><trkpt lat="43.076632457734604" lon="11.942885218884097"><ele>301.0</ele><time>2026-04-12T09:39:17Z</time></trkpt><trkpt lat="43.07680717923524" lon="11.94285959935402"><ele>300.3333333333333</ele><time>2026-04-12T09:39:18Z</time></trkpt><trkpt lat="43.076979438026285" lon="11.94283877751224"><ele>299.6666666666667</ele><time>2026-04-12T09:39:19Z</time></trkpt><trkpt lat="43.07715329362093" lon="11.942814105678009"><ele>299.0</ele><time>2026-04-12T09:39:20Z</time></trkpt><trkpt lat="43.0773269086052" lon="11.942782939309268"><ele>302.33333333333337</ele><time>2026-04-12T09:39:21Z</time></trkpt><trkpt lat="43.07749820571608" lon="11.9427530354469"><ele>305.6666666666667</ele><time>2026-04-12T09:39:22Z</time></trkpt><trkpt lat="43.0776655090977" lon="11.942727833412745"><ele>309.0</ele><time>2026-04-12T09:39:23Z</time></trkpt><trkpt lat="43.07782737155804" lon="11.942701414903594"><ele>309.0</ele><time>2026-04-12T09:39:24Z</time></trkpt><trkpt lat="43.077985235524" lon="11.942681128598764"><ele>309.0</ele><time>2026-04-12T09:39:25Z</time></trkpt><trkpt lat="43.07814839212217" lon="11.94270816648696"><ele>309.0</ele><time>2026-04-12T09:39:26Z</time></trkpt><trkpt lat="43.078317522157235" lon="11.942695356587114"><ele>313.0</ele><time>2026-04-12T09:39:27Z</time></trkpt><trkpt lat="43.078493740430055" lon="11.942706126464046"><ele>317.0</ele><time>2026-04-12T09:39:28Z</time></trkpt><trkpt lat="43.078674131668194" lon="11.94272095123458"><ele>321.0</ele><time>2026-04-12T09:39:29Z</time></trkpt><trkpt lat="43.078857031022004" lon="11.942734972105772"><ele>321.0</ele><time>2026-04-12T09:39:30Z</time></trkpt><trkpt lat="43.07903580357131" lon="11.942736566650735"><ele>321.0</ele><time>2026-04-12T09:39:31Z</time></trkpt><trkpt lat="43.07919776003507" lon="11.94274368455884"><ele>321.0</ele><time>2026-04-12T09:39:32Z</time></trkpt><trkpt lat="43.07933874515562" lon="11.942746305107596"><ele>321.4</ele><time>2026-04-12T09:39:33Z</time></trkpt><trkpt lat="43.079473978319136" lon="11.94275272452741"><ele>321.8</ele><time>2026-04-12T09:39:34Z</time></trkpt><trkpt lat="43.07958040868892" lon="11.942760466301301"><ele>322.2</ele><time>2026-04-12T09:39:35Z</time></trkpt><trkpt lat="43.079682404546745" lon="11.942776661531763"><ele>322.59999999999997</ele><time>2026-04-12T09:39:36Z</time></trkpt><trkpt lat="43.079771123105175" lon="11.942790865318814"><ele>323.0</ele><time>2026-04-12T09:39:37Z</time></trkpt><trkpt lat="43.079853690404775" lon="11.942830685508783"><ele>323.0</ele><time>2026-04-12T09:39:39Z</time></trkpt><trkpt lat="43.07988954218121" lon="11.942633476598319"><ele>323.0</ele><time>2026-04-12T09:39:40Z</time></trkpt><trkpt lat="43.07992108996781" lon="11.942512773064863"><ele>323.0</ele><time>2026-04-12T09:39:41Z</time></trkpt><trkpt lat="43.08002367180518" lon="11.942448574650845"><ele>323.0</ele><time>2026-04-12T09:39:42Z</time></trkpt><trkpt lat="43.080137649764495" lon="11.942345662302149"><ele>323.0</ele><time>2026-04-12T09:39:43Z</time></trkpt><trkpt lat="43.080243987569666" lon="11.942212414608695"><ele>323.0</ele><time>2026-04-12T09:39:44Z</time></trkpt><trkpt lat="43.080379937789246" lon="11.94211203066746"><ele>323.0</ele><time>2026-04-12T09:39:45Z</time></trkpt><trkpt lat="43.08050407723704" lon="11.942001441130389"><ele>323.0</ele><time>2026-04-12T09:39:46.001Z</time></trkpt><trkpt lat="43.08062703220943" lon="11.941936751719462"><ele>323.0</ele><time>2026-04-12T09:39:47.001Z</time></trkpt><trkpt lat="43.08074474808688" lon="11.941905379748828"><ele>323.0</ele><time>2026-04-12T09:39:48.001Z</time></trkpt><trkpt lat="43.08085182921133" lon="11.94187450401475"><ele>323.0</ele><time>2026-04-12T09:39:49.001Z</time></trkpt><trkpt lat="43.08095667366906" lon="11.941821684642134"><ele>323.0</ele><time>2026-04-12T09:39:50.001Z</time></trkpt><trkpt lat="43.08105716557656" lon="11.941778081594595"><ele>323.0</ele><time>2026-04-12T09:39:51.001Z</time></trkpt><trkpt lat="43.081150207891206" lon="11.941705485611285"><ele>323.0</ele><time>2026-04-12T09:39:52.001Z</time></trkpt><trkpt lat="43.08123878666842" lon="11.941592494750225"><ele>323.0</ele><time>2026-04-12T09:39:53.001Z</time></trkpt><trkpt lat="43.08131797494213" lon="11.94142244959839"><ele>323.0</ele><time>2026-04-12T09:39:54.001Z</time></trkpt><trkpt lat="43.08141532317647" lon="11.941249834398775"><ele>323.0</ele><time>2026-04-12T09:39:55.001Z</time></trkpt><trkpt lat="43.081502145405736" lon="11.941056618871626"><ele>321.0</ele><time>2026-04-12T09:39:56.001Z</time></trkpt><trkpt lat="43.08158992480457" lon="11.940858704447253"><ele>319.0</ele><time>2026-04-12T09:39:57.001Z</time></trkpt><trkpt lat="43.08167306946537" lon="11.940663796518056"><ele>317.0</ele><time>2026-04-12T09:39:58.001Z</time></trkpt><trkpt lat="43.08174899099909" lon="11.940487357681286"><ele>316.0</ele><time>2026-04-12T09:39:59.001Z</time></trkpt><trkpt lat="43.08182594371621" lon="11.940349034243864"><ele>315.0</ele><time>2026-04-12T09:40:00.001Z</time></trkpt><trkpt lat="43.08191516270704" lon="11.940243529930813"><ele>314.0</ele><time>2026-04-12T09:40:01.001Z</time></trkpt><trkpt lat="43.08202174747117" lon="11.940157843486665"><ele>313.0</ele><time>2026-04-12T09:40:02.001Z</time></trkpt><trkpt lat="43.08214742948945" lon="11.940073654688184"><ele>312.66666666666663</ele><time>2026-04-12T09:40:03.001Z</time></trkpt><trkpt lat="43.082284391997526" lon="11.93997700078963"><ele>312.3333333333333</ele><time>2026-04-12T09:40:04.001Z</time></trkpt><trkpt lat="43.082405981348245" lon="11.93985258381193"><ele>312.0</ele><time>2026-04-12T09:40:05.001Z</time></trkpt><trkpt lat="43.08252145137441" lon="11.939734679183912"><ele>312.0</ele><time>2026-04-12T09:40:06.001Z</time></trkpt><trkpt lat="43.08263632974862" lon="11.93961817669661"><ele>312.0</ele><time>2026-04-12T09:40:07.001Z</time></trkpt><trkpt lat="43.0827439484702" lon="11.939481602862395"><ele>312.0</ele><time>2026-04-12T09:40:08.001Z</time></trkpt><trkpt lat="43.08284458924187" lon="11.939330986255165"><ele>312.0</ele><time>2026-04-12T09:40:09.001Z</time></trkpt><trkpt lat="43.08293388825164" lon="11.939148912279132"><ele>311.6666666666667</ele><time>2026-04-12T09:40:10.001Z</time></trkpt><trkpt lat="43.08301447470544" lon="11.938953959994693"><ele>311.33333333333337</ele><time>2026-04-12T09:40:11.001Z</time></trkpt><trkpt lat="43.08310085165579" lon="11.938759689742382"><ele>311.0</ele><time>2026-04-12T09:40:12.001Z</time></trkpt><trkpt lat="43.083189416756326" lon="11.938565715353606"><ele>308.6666666666667</ele><time>2026-04-12T09:40:13.001Z</time></trkpt><trkpt lat="43.08327512014396" lon="11.93838213057861"><ele>306.3333333333333</ele><time>2026-04-12T09:40:14.001Z</time></trkpt><trkpt lat="43.08337075546408" lon="11.938210173645356"><ele>304.0</ele><time>2026-04-12T09:40:15.001Z</time></trkpt><trkpt lat="43.0834340609312" lon="11.938022332842221"><ele>304.0</ele><time>2026-04-12T09:40:16.001Z</time></trkpt><trkpt lat="43.083507802292026" lon="11.937836840985343"><ele>304.0</ele><time>2026-04-12T09:40:17.001Z</time></trkpt><trkpt lat="43.083560647175766" lon="11.937656932468121"><ele>304.0</ele><time>2026-04-12T09:40:18.001Z</time></trkpt><trkpt lat="43.08361070323528" lon="11.937512181257524"><ele>304.0</ele><time>2026-04-12T09:40:19.001Z</time></trkpt><trkpt lat="43.08368373314733" lon="11.937416181614266"><ele>303.0</ele><time>2026-04-12T09:40:20.001Z</time></trkpt><trkpt lat="43.083783825871954" lon="11.937327848704843"><ele>302.0</ele><time>2026-04-12T09:40:21.001Z</time></trkpt><trkpt lat="43.083910115658746" lon="11.937238716042673"><ele>301.0</ele><time>2026-04-12T09:40:22.001Z</time></trkpt><trkpt lat="43.084045703474686" lon="11.937124799172397"><ele>300.0</ele><time>2026-04-12T09:40:23.001Z</time></trkpt><trkpt lat="43.084206236404725" lon="11.937022445824516"><ele>299.0</ele><time>2026-04-12T09:40:24.001Z</time></trkpt><trkpt lat="43.08438039550564" lon="11.936900647352925"><ele>298.0</ele><time>2026-04-12T09:40:25.001Z</time></trkpt><trkpt lat="43.08456162134436" lon="11.936774035776226"><ele>297.0</ele><time>2026-04-12T09:40:26.001Z</time></trkpt><trkpt lat="43.08473867881545" lon="11.936651244301764"><ele>297.0</ele><time>2026-04-12T09:40:27.001Z</time></trkpt><trkpt lat="43.0849070067609" lon="11.936533786248619"><ele>297.0</ele><time>2026-04-12T09:40:28.001Z</time></trkpt><trkpt lat="43.08507871592637" lon="11.936412080713088"><ele>297.0</ele><time>2026-04-12T09:40:29.001Z</time></trkpt><trkpt lat="43.08524800764514" lon="11.936295042383101"><ele>293.6666666666667</ele><time>2026-04-12T09:40:30.001Z</time></trkpt><trkpt lat="43.0853981298989" lon="11.936192960833315"><ele>290.33333333333337</ele><time>2026-04-12T09:40:31.001Z</time></trkpt><trkpt lat="43.08553134003702" lon="11.936100833572901"><ele>287.0</ele><time>2026-04-12T09:40:32.001Z</time></trkpt><trkpt lat="43.0856515877515" lon="11.93601493545466"><ele>287.0</ele><time>2026-04-12T09:40:33.001Z</time></trkpt><trkpt lat="43.08576042111682" lon="11.9359173085426"><ele>287.0</ele><time>2026-04-12T09:40:34.001Z</time></trkpt><trkpt lat="43.08586802539957" lon="11.93580570559813"><ele>287.0</ele><time>2026-04-12T09:40:35.001Z</time></trkpt><trkpt lat="43.08596862327882" lon="11.93567561243708"><ele>287.0</ele><time>2026-04-12T09:40:36.001Z</time></trkpt><trkpt lat="43.086066778049236" lon="11.935515506593518"><ele>286.5</ele><time>2026-04-12T09:40:37.001Z</time></trkpt><trkpt lat="43.08615574952552" lon="11.935360968001797"><ele>286.0</ele><time>2026-04-12T09:40:38.001Z</time></trkpt><trkpt lat="43.08623835672674" lon="11.93521771533153"><ele>285.5</ele><time>2026-04-12T09:40:39.001Z</time></trkpt><trkpt lat="43.08630972387438" lon="11.93506767813772"><ele>285.0</ele><time>2026-04-12T09:40:40.001Z</time></trkpt><trkpt lat="43.08636691986573" lon="11.934890340261536"><ele>285.0</ele><time>2026-04-12T09:40:41.001Z</time></trkpt><trkpt lat="43.08642108714386" lon="11.934697026819702"><ele>285.0</ele><time>2026-04-12T09:40:42.001Z</time></trkpt><trkpt lat="43.0864776585527" lon="11.934496819357202"><ele>285.0</ele><time>2026-04-12T09:40:43.001Z</time></trkpt><trkpt lat="43.08652315265537" lon="11.934287529987795"><ele>284.75</ele><time>2026-04-12T09:40:44.001Z</time></trkpt><trkpt lat="43.086553463404385" lon="11.934078543523752"><ele>284.5</ele><time>2026-04-12T09:40:45.001Z</time></trkpt><trkpt lat="43.086563721679994" lon="11.933882923779652"><ele>284.25</ele><time>2026-04-12T09:40:46.001Z</time></trkpt><trkpt lat="43.08656586900701" lon="11.93370315208266"><ele>284.0</ele><time>2026-04-12T09:40:47.001Z</time></trkpt><trkpt lat="43.086545368676184" lon="11.933535152407773"><ele>282.2</ele><time>2026-04-12T09:40:48.001Z</time></trkpt><trkpt lat="43.08650608705235" lon="11.933379517056629"><ele>280.4</ele><time>2026-04-12T09:40:49.001Z</time></trkpt><trkpt lat="43.086459184078294" lon="11.933241163133879"><ele>278.6</ele><time>2026-04-12T09:40:50.001Z</time></trkpt><trkpt lat="43.08641505888241" lon="11.933116275146443"><ele>276.8</ele><time>2026-04-12T09:40:51.001Z</time></trkpt><trkpt lat="43.08639820025468" lon="11.932984691234394"><ele>275.0</ele><time>2026-04-12T09:40:52.001Z</time></trkpt><trkpt lat="43.08642134189144" lon="11.9328602471839"><ele>275.0</ele><time>2026-04-12T09:40:53.001Z</time></trkpt><trkpt lat="43.08649921926207" lon="11.93276594485117"><ele>275.0</ele><time>2026-04-12T09:40:54.001Z</time></trkpt><trkpt lat="43.08658921024013" lon="11.93270124928096"><ele>275.0</ele><time>2026-04-12T09:40:55.001Z</time></trkpt><trkpt lat="43.08670235170397" lon="11.932663748510569"><ele>275.0</ele><time>2026-04-12T09:40:56.001Z</time></trkpt><trkpt lat="43.08682511324891" lon="11.932610179319491"><ele>271.5</ele><time>2026-04-12T09:40:57.001Z</time></trkpt><trkpt lat="43.086954320751495" lon="11.932585944058138"><ele>268.0</ele><time>2026-04-12T09:40:58.001Z</time></trkpt><trkpt lat="43.08708058294699" lon="11.932523987260772"><ele>264.5</ele><time>2026-04-12T09:40:59.001Z</time></trkpt><trkpt lat="43.0871960802433" lon="11.932431878062637"><ele>261.0</ele><time>2026-04-12T09:41:00.001Z</time></trkpt><trkpt lat="43.08731005995446" lon="11.932326461201136"><ele>259.75</ele><time>2026-04-12T09:41:01.001Z</time></trkpt><trkpt lat="43.0874210616863" lon="11.932221787507489"><ele>258.5</ele><time>2026-04-12T09:41:02.001Z</time></trkpt><trkpt lat="43.08753104680498" lon="11.93211908330195"><ele>257.25</ele><time>2026-04-12T09:41:03.001Z</time></trkpt><trkpt lat="43.08763041249367" lon="11.93201616867437"><ele>256.0</ele><time>2026-04-12T09:41:04.001Z</time></trkpt><trkpt lat="43.08770975211247" lon="11.931905716031785"><ele>255.8</ele><time>2026-04-12T09:41:05.001Z</time></trkpt><trkpt lat="43.08777082292723" lon="11.931784125491276"><ele>255.60000000000002</ele><time>2026-04-12T09:41:06.001Z</time></trkpt><trkpt lat="43.08781166642983" lon="11.931644979164545"><ele>255.4</ele><time>2026-04-12T09:41:07Z</time></trkpt><trkpt lat="43.08781828515893" lon="11.931500987133532"><ele>255.2</ele><time>2026-04-12T09:41:08Z</time></trkpt><trkpt lat="43.087786486901294" lon="11.931358690995761"><ele>255.0</ele><time>2026-04-12T09:41:09Z</time></trkpt><trkpt lat="43.08773588692473" lon="11.931224668543509"><ele>255.0</ele><time>2026-04-12T09:41:10Z</time></trkpt><trkpt lat="43.08768749366433" lon="11.931099154538975"><ele>255.0</ele><time>2026-04-12T09:41:11Z</time></trkpt><trkpt lat="43.087674839059574" lon="11.930975735385603"><ele>255.0</ele><time>2026-04-12T09:41:12Z</time></trkpt><trkpt lat="43.08765600405334" lon="11.930859449768652"><ele>255.0</ele><time>2026-04-12T09:41:13Z</time></trkpt><trkpt lat="43.0876289822151" lon="11.93074876779861"><ele>255.0</ele><time>2026-04-12T09:41:14Z</time></trkpt><trkpt lat="43.08762926154182" lon="11.930658644972183"><ele>255.0</ele><time>2026-04-12T09:41:15Z</time></trkpt><trkpt lat="43.087700613262456" lon="11.930609432803722"><ele>255.0</ele><time>2026-04-12T09:41:17Z</time></trkpt><trkpt lat="43.08776079708235" lon="11.930635225806231"><ele>255.00000000000003</ele><time>2026-04-12T09:41:18Z</time></trkpt><trkpt lat="43.08780275896183" lon="11.930726816521688"><ele>255.0</ele><time>2026-04-12T09:41:19Z</time></trkpt><trkpt lat="43.087867325028384" lon="11.93077704283608"><ele>255.0</ele><time>2026-04-12T09:41:20Z</time></trkpt><trkpt lat="43.0879350703293" lon="11.93083914999905"><ele>255.00000000000003</ele><time>2026-04-12T09:41:21Z</time></trkpt><trkpt lat="43.08799946507756" lon="11.930890702286138"><ele>255.0</ele><time>2026-04-12T09:41:22Z</time></trkpt><trkpt lat="43.08804375928927" lon="11.930961188301543"><ele>255.0</ele><time>2026-04-12T09:41:23Z</time></trkpt><trkpt lat="43.08810140985608" lon="11.931022762976722"><ele>255.0</ele><time>2026-04-12T09:41:24Z</time></trkpt><trkpt lat="43.088169803279435" lon="11.931097255001362"><ele>255.0</ele><time>2026-04-12T09:41:25Z</time></trkpt><trkpt lat="43.088251013688534" lon="11.931172419560742"><ele>255.0</ele><time>2026-04-12T09:41:26Z</time></trkpt><trkpt lat="43.08832322157527" lon="11.931277323392495"><ele>255.0</ele><time>2026-04-12T09:41:27Z</time></trkpt><trkpt lat="43.08836028567881" lon="11.931409272345201"><ele>255.0</ele><time>2026-04-12T09:41:28Z</time></trkpt><trkpt lat="43.088401921082955" lon="11.93154452383361"><ele>255.4</ele><time>2026-04-12T09:41:29Z</time></trkpt><trkpt lat="43.08845592185017" lon="11.931639599119157"><ele>255.8</ele><time>2026-04-12T09:41:30Z</time></trkpt><trkpt lat="43.088517201282826" lon="11.931717138176307"><ele>256.2</ele><time>2026-04-12T09:41:31Z</time></trkpt><trkpt lat="43.08860172092293" lon="11.931775121719854"><ele>256.6</ele><time>2026-04-12T09:41:32Z</time></trkpt><trkpt lat="43.08870333320289" lon="11.931813166067194"><ele>257.0</ele><time>2026-04-12T09:41:33Z</time></trkpt><trkpt lat="43.08880185462003" lon="11.931853339463144"><ele>257.0</ele><time>2026-04-12T09:41:34Z</time></trkpt><trkpt lat="43.088883640951266" lon="11.931894469988414"><ele>257.0</ele><time>2026-04-12T09:41:35Z</time></trkpt><trkpt lat="43.088955109908596" lon="11.931935325373464"><ele>257.0</ele><time>2026-04-12T09:41:36Z</time></trkpt><trkpt lat="43.089025347770864" lon="11.931950539852583"><ele>257.0</ele><time>2026-04-12T09:41:37Z</time></trkpt><trkpt lat="43.08909046453715" lon="11.931915317008533"><ele>257.0</ele><time>2026-04-12T09:41:38Z</time></trkpt><trkpt lat="43.089151430034775" lon="11.931834485803893"><ele>257.0</ele><time>2026-04-12T09:41:39Z</time></trkpt><trkpt lat="43.089236597389096" lon="11.931741781886648"><ele>257.75</ele><time>2026-04-12T09:41:40Z</time></trkpt><trkpt lat="43.089324966710016" lon="11.931626243249774"><ele>258.5</ele><time>2026-04-12T09:41:41Z</time></trkpt><trkpt lat="43.08941590883662" lon="11.931507340842668"><ele>259.25</ele><time>2026-04-12T09:41:42Z</time></trkpt><trkpt lat="43.08949330946518" lon="11.931377019101909"><ele>260.0</ele><time>2026-04-12T09:41:43Z</time></trkpt><trkpt lat="43.08957786446453" lon="11.931288070179145"><ele>260.0</ele><time>2026-04-12T09:41:44Z</time></trkpt><trkpt lat="43.089666405721026" lon="11.931255375043031"><ele>260.0</ele><time>2026-04-12T09:41:45Z</time></trkpt><trkpt lat="43.08975653695208" lon="11.931238078024162"><ele>260.0</ele><time>2026-04-12T09:41:46Z</time></trkpt><trkpt lat="43.08985175046525" lon="11.931222358969602"><ele>260.0</ele><time>2026-04-12T09:41:47Z</time></trkpt><trkpt lat="43.08995507237734" lon="11.931277480662933"><ele>260.0</ele><time>2026-04-12T09:41:48Z</time></trkpt><trkpt lat="43.09006879266177" lon="11.931315974133675"><ele>261.0</ele><time>2026-04-12T09:41:49Z</time></trkpt><trkpt lat="43.09019246597927" lon="11.931351164350502"><ele>262.0</ele><time>2026-04-12T09:41:50Z</time></trkpt><trkpt lat="43.09032102892354" lon="11.93134577202445"><ele>263.0</ele><time>2026-04-12T09:41:51Z</time></trkpt><trkpt lat="43.090438855483015" lon="11.931340107012527"><ele>264.0</ele><time>2026-04-12T09:41:52Z</time></trkpt><trkpt lat="43.09054739970672" lon="11.931359633613203"><ele>264.0</ele><time>2026-04-12T09:41:53Z</time></trkpt><trkpt lat="43.090653377628215" lon="11.9313592963523"><ele>264.0</ele><time>2026-04-12T09:41:54Z</time></trkpt><trkpt lat="43.09075569027768" lon="11.931358970754756"><ele>264.0</ele><time>2026-04-12T09:41:55Z</time></trkpt><trkpt lat="43.090854788227006" lon="11.931335964990296"><ele>264.0</ele><time>2026-04-12T09:41:56Z</time></trkpt><trkpt lat="43.0909536325509" lon="11.931344677108854"><ele>264.0</ele><time>2026-04-12T09:41:57Z</time></trkpt><trkpt lat="43.09105250868943" lon="11.931334580307192"><ele>265.0</ele><time>2026-04-12T09:41:58Z</time></trkpt><trkpt lat="43.091153680098046" lon="11.931353954726525"><ele>266.0</ele><time>2026-04-12T09:41:59Z</time></trkpt><trkpt lat="43.091261771517544" lon="11.931331993491334"><ele>267.0</ele><time>2026-04-12T09:42:00Z</time></trkpt><trkpt lat="43.09136459100685" lon="11.931334726308066"><ele>268.0</ele><time>2026-04-12T09:42:01Z</time></trkpt><trkpt lat="43.09147033574756" lon="11.931352903002189"><ele>269.0</ele><time>2026-04-12T09:42:02Z</time></trkpt><trkpt lat="43.091574996497485" lon="11.93133294293892"><ele>268.8</ele><time>2026-04-12T09:42:03Z</time></trkpt><trkpt lat="43.091678187423284" lon="11.931340550436937"><ele>268.59999999999997</ele><time>2026-04-12T09:42:04Z</time></trkpt><trkpt lat="43.09178256777991" lon="11.931338359159865"><ele>268.4</ele><time>2026-04-12T09:42:05Z</time></trkpt><trkpt lat="43.09189003573127" lon="11.931352287818582"><ele>268.2</ele><time>2026-04-12T09:42:06Z</time></trkpt><trkpt lat="43.091987213549004" lon="11.931397598377046"><ele>268.0</ele><time>2026-04-12T09:42:07Z</time></trkpt><trkpt lat="43.09207358795791" lon="11.931452634455873"><ele>268.0</ele><time>2026-04-12T09:42:08Z</time></trkpt><trkpt lat="43.092143575911805" lon="11.93151937376759"><ele>268.0</ele><time>2026-04-12T09:42:09Z</time></trkpt><trkpt lat="43.092203696975545" lon="11.931600512890833"><ele>268.0</ele><time>2026-04-12T09:42:10Z</time></trkpt><trkpt lat="43.09226405717957" lon="11.931688054842363"><ele>268.0</ele><time>2026-04-12T09:42:11Z</time></trkpt><trkpt lat="43.092311968670025" lon="11.931792007455153"><ele>268.0</ele><time>2026-04-12T09:42:12Z</time></trkpt><trkpt lat="43.0923559913961" lon="11.931897679578416"><ele>268.0</ele><time>2026-04-12T09:42:13Z</time></trkpt><trkpt lat="43.09238545949576" lon="11.932002623517736"><ele>268.3333333333333</ele><time>2026-04-12T09:42:14Z</time></trkpt><trkpt lat="43.0924061310697" lon="11.932108245939554"><ele>268.66666666666663</ele><time>2026-04-12T09:42:15Z</time></trkpt><trkpt lat="43.09242227406775" lon="11.93219756125816"><ele>269.0</ele><time>2026-04-12T09:42:16.001Z</time></trkpt><trkpt lat="43.09243186108355" lon="11.932293433847663"><ele>269.3333333333333</ele><time>2026-04-12T09:42:17.001Z</time></trkpt><trkpt lat="43.09244249763363" lon="11.932414327814541"><ele>269.6666666666667</ele><time>2026-04-12T09:42:18.001Z</time></trkpt><trkpt lat="43.09244967350213" lon="11.932560825235953"><ele>270.0</ele><time>2026-04-12T09:42:19.001Z</time></trkpt><trkpt lat="43.09247590366024" lon="11.932701973027848"><ele>270.0</ele><time>2026-04-12T09:42:21.001Z</time></trkpt><trkpt lat="43.092488547510726" lon="11.932823767795718"><ele>270.0</ele><time>2026-04-12T09:42:24.001Z</time></trkpt><trkpt lat="43.092552774459385" lon="11.932833195591098"><ele>270.0</ele><time>2026-04-12T09:42:27.001Z</time></trkpt><trkpt lat="43.092483695275355" lon="11.932779976121415"><ele>270.0</ele><time>2026-04-12T09:42:30.001Z</time></trkpt><trkpt lat="43.09243135725998" lon="11.932669877605546"><ele>270.0</ele><time>2026-04-12T09:42:31.001Z</time></trkpt><trkpt lat="43.09243833705227" lon="11.93250388416579"><ele>270.0</ele><time>2026-04-12T09:42:32.001Z</time></trkpt><trkpt lat="43.09242942951753" lon="11.932332475285376"><ele>270.0</ele><time>2026-04-12T09:42:33.001Z</time></trkpt><trkpt lat="43.09239618802802" lon="11.932147933523607"><ele>270.0</ele><time>2026-04-12T09:42:34.001Z</time></trkpt><trkpt lat="43.092372393388246" lon="11.931985658520642"><ele>270.0</ele><time>2026-04-12T09:42:35.001Z</time></trkpt><trkpt lat="43.09231976167323" lon="11.931854276063335"><ele>269.5</ele><time>2026-04-12T09:42:36.001Z</time></trkpt><trkpt lat="43.09227737687618" lon="11.931708032743794"><ele>269.0</ele><time>2026-04-12T09:42:37.001Z</time></trkpt><trkpt lat="43.09221299693189" lon="11.931618266567186"><ele>268.5</ele><time>2026-04-12T09:42:38.001Z</time></trkpt><trkpt lat="43.09214291454899" lon="11.931524888940388"><ele>268.0</ele><time>2026-04-12T09:42:40.001Z</time></trkpt><trkpt lat="43.09265998865471" lon="11.931237494150421"><ele>267.8</ele><time>2026-04-12T09:43:32Z</time></trkpt><trkpt lat="43.09275591274676" lon="11.931203134309312"><ele>267.6</ele><time>2026-04-12T09:43:34Z</time></trkpt><trkpt lat="43.09286576391034" lon="11.931172301171403"><ele>267.4</ele><time>2026-04-12T09:43:36Z</time></trkpt><trkpt lat="43.092956240692004" lon="11.93113968824114"><ele>267.2</ele><time>2026-04-12T09:43:38Z</time></trkpt><trkpt lat="43.09303303044457" lon="11.931112027130604"><ele>267.0</ele><time>2026-04-12T09:43:40Z</time></trkpt><trkpt lat="43.09314017969456" lon="11.931089374232076"><ele>267.0</ele><time>2026-04-12T09:43:42Z</time></trkpt><trkpt lat="43.093247422079855" lon="11.931067098048427"><ele>267.0</ele><time>2026-04-12T09:43:44Z</time></trkpt><trkpt lat="43.09336060877137" lon="11.931034517147936"><ele>267.0</ele><time>2026-04-12T09:43:46Z</time></trkpt><trkpt lat="43.09346866741902" lon="11.930989010756438"><ele>267.0</ele><time>2026-04-12T09:43:48Z</time></trkpt><trkpt lat="43.09356376651492" lon="11.930948667097415"><ele>267.0</ele><time>2026-04-12T09:43:50Z</time></trkpt><trkpt lat="43.093627192698754" lon="11.930927480350837"><ele>267.5</ele><time>2026-04-12T09:43:51Z</time></trkpt><trkpt lat="43.09369791043617" lon="11.930903379279249"><ele>268.0</ele><time>2026-04-12T09:43:52Z</time></trkpt><trkpt lat="43.09381639556857" lon="11.930885529970945"><ele>268.5</ele><time>2026-04-12T09:43:54Z</time></trkpt><trkpt lat="43.09388832489436" lon="11.930869221466882"><ele>269.0</ele><time>2026-04-12T09:43:56Z</time></trkpt><trkpt lat="43.09395610408111" lon="11.930840866124713"><ele>269.5</ele><time>2026-04-12T09:43:58Z</time></trkpt><trkpt lat="43.0940246634554" lon="11.930815240400426"><ele>270.0</ele><time>2026-04-12T09:44:00Z</time></trkpt><trkpt lat="43.094098208924514" lon="11.930790576127315"><ele>266.8</ele><time>2026-04-12T09:44:02Z</time></trkpt><trkpt lat="43.094192623944615" lon="11.930743800734625"><ele>263.6</ele><time>2026-04-12T09:44:04Z</time></trkpt><trkpt lat="43.09428503892155" lon="11.930698464246309"><ele>260.4</ele><time>2026-04-12T09:44:06Z</time></trkpt><trkpt lat="43.09437605618968" lon="11.930653124556338"><ele>257.2</ele><time>2026-04-12T09:44:08Z</time></trkpt><trkpt lat="43.09446963932469" lon="11.930608273686856"><ele>254.0</ele><time>2026-04-12T09:44:10Z</time></trkpt><trkpt lat="43.09455881133933" lon="11.930560633750344"><ele>254.0</ele><time>2026-04-12T09:44:12Z</time></trkpt><trkpt lat="43.09464619356523" lon="11.930517747954982"><ele>253.99999999999997</ele><time>2026-04-12T09:44:14Z</time></trkpt><trkpt lat="43.09473229414629" lon="11.930463847309746"><ele>253.99999999999997</ele><time>2026-04-12T09:44:16Z</time></trkpt><trkpt lat="43.0948233293304" lon="11.930409023780095"><ele>254.0</ele><time>2026-04-12T09:44:18Z</time></trkpt><trkpt lat="43.09491994941359" lon="11.930352415155877"><ele>254.0</ele><time>2026-04-12T09:44:20Z</time></trkpt><trkpt lat="43.09501385387296" lon="11.930302605707476"><ele>253.6</ele><time>2026-04-12T09:44:22Z</time></trkpt><trkpt lat="43.09508643657544" lon="11.930263421283342"><ele>253.2</ele><time>2026-04-12T09:44:24Z</time></trkpt><trkpt lat="43.095162252128596" lon="11.930213271808478"><ele>252.79999999999998</ele><time>2026-04-12T09:44:26Z</time></trkpt><trkpt lat="43.0952696290588" lon="11.930135704973395"><ele>252.39999999999998</ele><time>2026-04-12T09:44:28Z</time></trkpt><trkpt lat="43.095330008479195" lon="11.930096496662673"><ele>252.0</ele><time>2026-04-12T09:44:29Z</time></trkpt><trkpt lat="43.09544002024101" lon="11.930032048161038"><ele>252.0</ele><time>2026-04-12T09:44:31Z</time></trkpt><trkpt lat="43.095506212360476" lon="11.929988388753202"><ele>252.0</ele><time>2026-04-12T09:44:32Z</time></trkpt><trkpt lat="43.0955724598197" lon="11.929950482471355"><ele>252.0</ele><time>2026-04-12T09:44:33Z</time></trkpt><trkpt lat="43.095634802891446" lon="11.929925307439772"><ele>252.0</ele><time>2026-04-12T09:44:34Z</time></trkpt><trkpt lat="43.095697450627384" lon="11.929891529604047"><ele>252.0</ele><time>2026-04-12T09:44:35.001Z</time></trkpt><trkpt lat="43.09581662013909" lon="11.929841104038454"><ele>252.0</ele><time>2026-04-12T09:44:37.001Z</time></trkpt><trkpt lat="43.09593024791745" lon="11.92979061534525"><ele>252.8</ele><time>2026-04-12T09:44:39.001Z</time></trkpt><trkpt lat="43.09603684802666" lon="11.929724879039489"><ele>253.6</ele><time>2026-04-12T09:44:41.001Z</time></trkpt><trkpt lat="43.09613017550847" lon="11.929654547998965"><ele>254.40000000000003</ele><time>2026-04-12T09:44:43.001Z</time></trkpt><trkpt lat="43.096204884299716" lon="11.929587532279665"><ele>255.20000000000002</ele><time>2026-04-12T09:44:52.001Z</time></trkpt><trkpt lat="43.09630165571555" lon="11.929540345571834"><ele>256.0</ele><time>2026-04-12T09:44:54.001Z</time></trkpt><trkpt lat="43.09636341758448" lon="11.929518245624527"><ele>256.0</ele><time>2026-04-12T09:44:55.001Z</time></trkpt><trkpt lat="43.09648600475046" lon="11.929480559702176"><ele>256.0</ele><time>2026-04-12T09:44:57.001Z</time></trkpt><trkpt lat="43.09659989630693" lon="11.929427850582583"><ele>256.0</ele><time>2026-04-12T09:44:59.001Z</time></trkpt><trkpt lat="43.09672336286642" lon="11.92939052779524"><ele>256.0</ele><time>2026-04-12T09:45:01.001Z</time></trkpt><trkpt lat="43.096783725681235" lon="11.929360075492049"><ele>256.0</ele><time>2026-04-12T09:45:02.001Z</time></trkpt><trkpt lat="43.09685007928246" lon="11.929337147360473"><ele>257.0</ele><time>2026-04-12T09:45:03.001Z</time></trkpt><trkpt lat="43.09695296258901" lon="11.929295192026368"><ele>258.0</ele><time>2026-04-12T09:45:05.001Z</time></trkpt><trkpt lat="43.09704830253462" lon="11.929270295816295"><ele>259.0</ele><time>2026-04-12T09:45:07.001Z</time></trkpt><trkpt lat="43.09714285946683" lon="11.929231316202701"><ele>260.0</ele><time>2026-04-12T09:45:09.001Z</time></trkpt><trkpt lat="43.09724421831107" lon="11.929190775241516"><ele>261.0</ele><time>2026-04-12T09:45:11.001Z</time></trkpt><trkpt lat="43.09733549213222" lon="11.929164606558896"><ele>259.40000000000003</ele><time>2026-04-12T09:45:13.001Z</time></trkpt><trkpt lat="43.09743449122121" lon="11.929124683011661"><ele>257.8</ele><time>2026-04-12T09:45:15.001Z</time></trkpt><trkpt lat="43.0975557684772" lon="11.929052726497275"><ele>256.20000000000005</ele><time>2026-04-12T09:45:17.001Z</time></trkpt><trkpt lat="43.09762093652055" lon="11.929006617743482"><ele>254.60000000000002</ele><time>2026-04-12T09:45:18.001Z</time></trkpt><trkpt lat="43.097686602073665" lon="11.928947798542332"><ele>253.0</ele><time>2026-04-12T09:45:19Z</time></trkpt><trkpt lat="43.097749177214666" lon="11.92889281058226"><ele>252.99999999999997</ele><time>2026-04-12T09:45:20Z</time></trkpt><trkpt lat="43.097809437753455" lon="11.928834881793145"><ele>253.0</ele><time>2026-04-12T09:45:21Z</time></trkpt><trkpt lat="43.09786713248171" lon="11.928766956082017"><ele>253.0</ele><time>2026-04-12T09:45:22Z</time></trkpt><trkpt lat="43.09792022691836" lon="11.928698687496848"><ele>253.0</ele><time>2026-04-12T09:45:23Z</time></trkpt><trkpt lat="43.09796534609767" lon="11.928632974908332"><ele>252.99999999999997</ele><time>2026-04-12T09:45:24Z</time></trkpt><trkpt lat="43.09802524182348" lon="11.928535260550785"><ele>253.0</ele><time>2026-04-12T09:45:26Z</time></trkpt><trkpt lat="43.098073037865284" lon="11.928466904365049"><ele>253.0</ele><time>2026-04-12T09:45:28Z</time></trkpt><trkpt lat="43.098169117944735" lon="11.92838729231875"><ele>253.0</ele><time>2026-04-12T09:45:30Z</time></trkpt><trkpt lat="43.09826913637736" lon="11.92833243357702"><ele>253.0</ele><time>2026-04-12T09:45:32Z</time></trkpt><trkpt lat="43.09832653042959" lon="11.928244009617954"><ele>253.0</ele><time>2026-04-12T09:45:34Z</time></trkpt><trkpt lat="43.098430308583175" lon="11.928180434145704"><ele>253.0</ele><time>2026-04-12T09:45:36Z</time></trkpt><trkpt lat="43.098494548184256" lon="11.928146647803162"><ele>252.99999999999997</ele><time>2026-04-12T09:45:37Z</time></trkpt><trkpt lat="43.098558520424355" lon="11.9281187437085"><ele>253.0</ele><time>2026-04-12T09:45:38Z</time></trkpt><trkpt lat="43.09862419081707" lon="11.928076151653551"><ele>253.0</ele><time>2026-04-12T09:45:39Z</time></trkpt><trkpt lat="43.098698627222674" lon="11.928033570444834"><ele>253.0</ele><time>2026-04-12T09:45:40Z</time></trkpt><trkpt lat="43.098770648582324" lon="11.927995643589112"><ele>252.99999999999997</ele><time>2026-04-12T09:45:41Z</time></trkpt><trkpt lat="43.0988333681385" lon="11.927960667296968"><ele>253.0</ele><time>2026-04-12T09:45:42Z</time></trkpt><trkpt lat="43.098951905623004" lon="11.927901031423488"><ele>252.99999999999997</ele><time>2026-04-12T09:45:44Z</time></trkpt><trkpt lat="43.09901569394014" lon="11.927869126613354"><ele>253.0</ele><time>2026-04-12T09:45:45Z</time></trkpt><trkpt lat="43.09907854108614" lon="11.927837289803941"><ele>253.0</ele><time>2026-04-12T09:45:46Z</time></trkpt><trkpt lat="43.09913962828532" lon="11.92780335906376"><ele>253.0</ele><time>2026-04-12T09:45:47Z</time></trkpt><trkpt lat="43.09920026256823" lon="11.927765173115235"><ele>252.99999999999997</ele><time>2026-04-12T09:45:48Z</time></trkpt><trkpt lat="43.0993198980245" lon="11.9277037834471"><ele>253.0</ele><time>2026-04-12T09:45:50Z</time></trkpt><trkpt lat="43.09943380661184" lon="11.927638291358052"><ele>252.4</ele><time>2026-04-12T09:45:52Z</time></trkpt><trkpt lat="43.09954187441378" lon="11.92758897913927"><ele>251.8</ele><time>2026-04-12T09:45:54Z</time></trkpt><trkpt lat="43.09963544867734" lon="11.927546027664427"><ele>251.2</ele><time>2026-04-12T09:45:56Z</time></trkpt><trkpt lat="43.099723631691575" lon="11.927508354555606"><ele>250.6</ele><time>2026-04-12T09:45:58Z</time></trkpt><trkpt lat="43.09981159111414" lon="11.927457454128485"><ele>250.0</ele><time>2026-04-12T09:46:00Z</time></trkpt><trkpt lat="43.09990504189617" lon="11.927412578135915"><ele>250.33333333333331</ele><time>2026-04-12T09:46:02Z</time></trkpt><trkpt lat="43.10000876537198" lon="11.927399845905251"><ele>250.66666666666666</ele><time>2026-04-12T09:46:04Z</time></trkpt><trkpt lat="43.10012891075075" lon="11.927393700102284"><ele>251.0</ele><time>2026-04-12T09:46:06Z</time></trkpt><trkpt lat="43.10019596852044" lon="11.927397121297256"><ele>251.33333333333331</ele><time>2026-04-12T09:46:07Z</time></trkpt><trkpt lat="43.10026111965678" lon="11.927412614249393"><ele>251.66666666666666</ele><time>2026-04-12T09:46:08Z</time></trkpt><trkpt lat="43.100338694405146" lon="11.927440155544968"><ele>252.0</ele><time>2026-04-12T09:46:09Z</time></trkpt><trkpt lat="43.10041502123177" lon="11.927469314843695"><ele>252.0</ele><time>2026-04-12T09:46:10Z</time></trkpt><trkpt lat="43.100496588038354" lon="11.927480143520311"><ele>252.0</ele><time>2026-04-12T09:46:11Z</time></trkpt><trkpt lat="43.100571462687974" lon="11.92748538163635"><ele>252.0</ele><time>2026-04-12T09:46:12Z</time></trkpt><trkpt lat="43.100647102821135" lon="11.92749717242351"><ele>252.0</ele><time>2026-04-12T09:46:13Z</time></trkpt><trkpt lat="43.10071952269972" lon="11.927518572264402"><ele>252.0</ele><time>2026-04-12T09:46:14Z</time></trkpt><trkpt lat="43.100780753200716" lon="11.927541117445193"><ele>252.0</ele><time>2026-04-12T09:46:15Z</time></trkpt><trkpt lat="43.10085284183533" lon="11.92755739071719"><ele>252.0</ele><time>2026-04-12T09:46:16Z</time></trkpt><trkpt lat="43.10092569431862" lon="11.92756959958589"><ele>252.83333333333334</ele><time>2026-04-12T09:46:17Z</time></trkpt><trkpt lat="43.10100320360519" lon="11.927590884445625"><ele>253.66666666666669</ele><time>2026-04-12T09:46:18Z</time></trkpt><trkpt lat="43.10107245932224" lon="11.927622157594394"><ele>254.5</ele><time>2026-04-12T09:46:19Z</time></trkpt><trkpt lat="43.101145677853516" lon="11.927654267945233"><ele>255.33333333333334</ele><time>2026-04-12T09:46:20Z</time></trkpt><trkpt lat="43.10121634705117" lon="11.92767496359491"><ele>256.1666666666667</ele><time>2026-04-12T09:46:21Z</time></trkpt><trkpt lat="43.10128396723407" lon="11.927685750055407"><ele>257.0</ele><time>2026-04-12T09:46:22Z</time></trkpt><trkpt lat="43.1014068968611" lon="11.9276615430394"><ele>257.0</ele><time>2026-04-12T09:46:24Z</time></trkpt><trkpt lat="43.10147537104131" lon="11.927652836150767"><ele>257.0</ele><time>2026-04-12T09:46:25Z</time></trkpt><trkpt lat="43.10154469180283" lon="11.927646962265595"><ele>257.0</ele><time>2026-04-12T09:46:26Z</time></trkpt><trkpt lat="43.10161054249986" lon="11.927635890782312"><ele>257.0</ele><time>2026-04-12T09:46:27Z</time></trkpt><trkpt lat="43.10168424579036" lon="11.927624413114163"><ele>257.0</ele><time>2026-04-12T09:46:28Z</time></trkpt><trkpt lat="43.101751806819806" lon="11.927619037111436"><ele>257.0</ele><time>2026-04-12T09:46:29Z</time></trkpt><trkpt lat="43.10182180582767" lon="11.927612248508758"><ele>257.0</ele><time>2026-04-12T09:46:30Z</time></trkpt><trkpt lat="43.10196317191075" lon="11.927587984108735"><ele>257.0</ele><time>2026-04-12T09:46:32Z</time></trkpt><trkpt lat="43.102039554892805" lon="11.927574703955747"><ele>257.0</ele><time>2026-04-12T09:46:33Z</time></trkpt><trkpt lat="43.10211778768703" lon="11.927562359741904"><ele>257.0</ele><time>2026-04-12T09:46:34Z</time></trkpt><trkpt lat="43.10219474067154" lon="11.92755179025204"><ele>257.0</ele><time>2026-04-12T09:46:35Z</time></trkpt><trkpt lat="43.102270132252826" lon="11.927546839304183"><ele>257.0</ele><time>2026-04-12T09:46:36Z</time></trkpt><trkpt lat="43.10235331774214" lon="11.927552353859852"><ele>257.0</ele><time>2026-04-12T09:46:37Z</time></trkpt><trkpt lat="43.102421976999224" lon="11.927572662482996"><ele>258.0</ele><time>2026-04-12T09:46:38Z</time></trkpt><trkpt lat="43.102489713030366" lon="11.927593216969335"><ele>259.0</ele><time>2026-04-12T09:46:39Z</time></trkpt><trkpt lat="43.10255382193232" lon="11.927611243245368"><ele>260.0</ele><time>2026-04-12T09:46:40Z</time></trkpt><trkpt lat="43.102617938179336" lon="11.927628170143608"><ele>261.0</ele><time>2026-04-12T09:46:41Z</time></trkpt><trkpt lat="43.10270224957259" lon="11.927638265888042"><ele>262.0</ele><time>2026-04-12T09:46:42Z</time></trkpt><trkpt lat="43.102780574453874" lon="11.927647266328819"><ele>263.0</ele><time>2026-04-12T09:46:43Z</time></trkpt><trkpt lat="43.102858207099445" lon="11.927672258192796"><ele>264.0</ele><time>2026-04-12T09:46:44Z</time></trkpt><trkpt lat="43.10292437122984" lon="11.927695930308944"><ele>264.0</ele><time>2026-04-12T09:46:45Z</time></trkpt><trkpt lat="43.1029929594854" lon="11.927701022053139"><ele>264.0</ele><time>2026-04-12T09:46:48Z</time></trkpt><trkpt lat="43.10309237819405" lon="11.927769199265931"><ele>264.0</ele><time>2026-04-12T09:46:51.001Z</time></trkpt><trkpt lat="43.10319752191544" lon="11.927814077335757"><ele>264.0</ele><time>2026-04-12T09:46:53.001Z</time></trkpt><trkpt lat="43.103295479457906" lon="11.927847707813163"><ele>264.0</ele><time>2026-04-12T09:46:55.001Z</time></trkpt><trkpt lat="43.10338563416215" lon="11.927893529191307"><ele>263.59999999999997</ele><time>2026-04-12T09:46:57.001Z</time></trkpt><trkpt lat="43.10344738142963" lon="11.927930940396658"><ele>263.2</ele><time>2026-04-12T09:46:58.001Z</time></trkpt><trkpt lat="43.1035747791175" lon="11.928003201574317"><ele>262.79999999999995</ele><time>2026-04-12T09:47:00.001Z</time></trkpt><trkpt lat="43.10365275684889" lon="11.928051215990763"><ele>262.4</ele><time>2026-04-12T09:47:01.001Z</time></trkpt><trkpt lat="43.103745933173656" lon="11.928093597933126"><ele>262.0</ele><time>2026-04-12T09:47:02.001Z</time></trkpt><trkpt lat="43.10383223454818" lon="11.928122464132892"><ele>262.0</ele><time>2026-04-12T09:47:03.001Z</time></trkpt><trkpt lat="43.10391074043725" lon="11.928155264789059"><ele>262.0</ele><time>2026-04-12T09:47:04.001Z</time></trkpt><trkpt lat="43.103979788723564" lon="11.928185085439925"><ele>262.0</ele><time>2026-04-12T09:47:05.001Z</time></trkpt><trkpt lat="43.10404284661188" lon="11.92820951023174"><ele>262.0</ele><time>2026-04-12T09:47:06.001Z</time></trkpt><trkpt lat="43.10411093824025" lon="11.928237839983469"><ele>262.0</ele><time>2026-04-12T09:47:07.001Z</time></trkpt><trkpt lat="43.10418222187086" lon="11.928237865705716"><ele>262.0</ele><time>2026-04-12T09:47:08.001Z</time></trkpt><trkpt lat="43.104249690315356" lon="11.928221436987686"><ele>262.0</ele><time>2026-04-12T09:47:09.001Z</time></trkpt><trkpt lat="43.10431469179643" lon="11.928175695853577"><ele>260.8</ele><time>2026-04-12T09:47:10.001Z</time></trkpt><trkpt lat="43.10437726683382" lon="11.928120923071493"><ele>259.6</ele><time>2026-04-12T09:47:11.001Z</time></trkpt><trkpt lat="43.104442418156054" lon="11.92804594850664"><ele>258.40000000000003</ele><time>2026-04-12T09:47:12.001Z</time></trkpt><trkpt lat="43.10451767698514" lon="11.927986870121543"><ele>257.2</ele><time>2026-04-12T09:47:13.001Z</time></trkpt><trkpt lat="43.10460833623028" lon="11.927922122017293"><ele>256.0</ele><time>2026-04-12T09:47:14.001Z</time></trkpt><trkpt lat="43.104709859164096" lon="11.927845601093505"><ele>256.0</ele><time>2026-04-12T09:47:15.001Z</time></trkpt><trkpt lat="43.10481465700055" lon="11.927755598061028"><ele>256.0</ele><time>2026-04-12T09:47:16.001Z</time></trkpt><trkpt lat="43.104928714752255" lon="11.927660914635304"><ele>256.0</ele><time>2026-04-12T09:47:17.001Z</time></trkpt><trkpt lat="43.10504288982341" lon="11.927577368534571"><ele>256.0</ele><time>2026-04-12T09:47:18.001Z</time></trkpt><trkpt lat="43.10516154391249" lon="11.927501571849884"><ele>255.0</ele><time>2026-04-12T09:47:19.001Z</time></trkpt><trkpt lat="43.10526233569953" lon="11.927433142748635"><ele>254.00000000000003</ele><time>2026-04-12T09:47:20.001Z</time></trkpt><trkpt lat="43.10535400316356" lon="11.927361208144262"><ele>253.00000000000003</ele><time>2026-04-12T09:47:21.001Z</time></trkpt><trkpt lat="43.10543747076375" lon="11.927297246948566"><ele>252.0</ele><time>2026-04-12T09:47:22.001Z</time></trkpt><trkpt lat="43.10553822400468" lon="11.927240671904217"><ele>251.0</ele><time>2026-04-12T09:47:23.001Z</time></trkpt><trkpt lat="43.10565291599619" lon="11.927183682469405"><ele>250.75</ele><time>2026-04-12T09:47:24.001Z</time></trkpt><trkpt lat="43.10577200964813" lon="11.927150026311228"><ele>250.5</ele><time>2026-04-12T09:47:25Z</time></trkpt><trkpt lat="43.10590261731469" lon="11.927138633766905"><ele>250.25</ele><time>2026-04-12T09:47:26Z</time></trkpt><trkpt lat="43.10603497541025" lon="11.927131401076958"><ele>250.0</ele><time>2026-04-12T09:47:27Z</time></trkpt><trkpt lat="43.1061702564489" lon="11.927106763101104"><ele>250.0</ele><time>2026-04-12T09:47:28Z</time></trkpt><trkpt lat="43.10631260603405" lon="11.927048410837397"><ele>250.0</ele><time>2026-04-12T09:47:29Z</time></trkpt><trkpt lat="43.10646144290357" lon="11.926982513262345"><ele>250.0</ele><time>2026-04-12T09:47:30Z</time></trkpt><trkpt lat="43.10661489121119" lon="11.9269101283808"><ele>250.0</ele><time>2026-04-12T09:47:31Z</time></trkpt><trkpt lat="43.10677934505906" lon="11.926861117745965"><ele>250.0</ele><time>2026-04-12T09:47:32Z</time></trkpt><trkpt lat="43.10693926697841" lon="11.926796565393644"><ele>250.0</ele><time>2026-04-12T09:47:33Z</time></trkpt><trkpt lat="43.10709699240351" lon="11.926712718148506"><ele>250.0</ele><time>2026-04-12T09:47:34Z</time></trkpt><trkpt lat="43.10726534733954" lon="11.926647613389264"><ele>250.0</ele><time>2026-04-12T09:47:35Z</time></trkpt><trkpt lat="43.107443713715114" lon="11.92657860602166"><ele>250.0</ele><time>2026-04-12T09:47:36Z</time></trkpt><trkpt lat="43.10762295301008" lon="11.92651371274225"><ele>250.0</ele><time>2026-04-12T09:47:37Z</time></trkpt><trkpt lat="43.10780739074432" lon="11.926444756139906"><ele>250.0</ele><time>2026-04-12T09:47:38Z</time></trkpt><trkpt lat="43.107992146975235" lon="11.92637596083502"><ele>250.0</ele><time>2026-04-12T09:47:39Z</time></trkpt><trkpt lat="43.10818398048349" lon="11.926327225750361"><ele>250.66666666666666</ele><time>2026-04-12T09:47:40Z</time></trkpt><trkpt lat="43.1083623455639" lon="11.926260200019268"><ele>251.33333333333331</ele><time>2026-04-12T09:47:41Z</time></trkpt><trkpt lat="43.108510511676435" lon="11.926205165284461"><ele>252.0</ele><time>2026-04-12T09:47:42Z</time></trkpt><trkpt lat="43.10862445753267" lon="11.926141884836477"><ele>252.0</ele><time>2026-04-12T09:47:43Z</time></trkpt><trkpt lat="43.10873046935013" lon="11.926117450990578"><ele>252.0</ele><time>2026-04-12T09:47:44Z</time></trkpt><trkpt lat="43.10883661138031" lon="11.926127407087781"><ele>252.0</ele><time>2026-04-12T09:47:45Z</time></trkpt><trkpt lat="43.10894189804709" lon="11.926179595928925"><ele>252.0</ele><time>2026-04-12T09:47:46Z</time></trkpt><trkpt lat="43.109037121558124" lon="11.926259683446732"><ele>252.0</ele><time>2026-04-12T09:47:47Z</time></trkpt><trkpt lat="43.10911945503274" lon="11.926353929335468"><ele>252.39999999999998</ele><time>2026-04-12T09:47:48Z</time></trkpt><trkpt lat="43.10920639386233" lon="11.926424420619187"><ele>252.79999999999998</ele><time>2026-04-12T09:47:49Z</time></trkpt><trkpt lat="43.1093070225754" lon="11.9264619501258"><ele>253.2</ele><time>2026-04-12T09:47:50Z</time></trkpt><trkpt lat="43.10941865892907" lon="11.926465505170519"><ele>253.6</ele><time>2026-04-12T09:47:51Z</time></trkpt><trkpt lat="43.1095388690482" lon="11.926445912293238"><ele>254.0</ele><time>2026-04-12T09:47:52Z</time></trkpt><trkpt lat="43.10965992676274" lon="11.926398271615355"><ele>254.0</ele><time>2026-04-12T09:47:53Z</time></trkpt><trkpt lat="43.109783661826306" lon="11.926331138324782"><ele>254.0</ele><time>2026-04-12T09:47:54Z</time></trkpt><trkpt lat="43.109916391617965" lon="11.926255667141245"><ele>254.0</ele><time>2026-04-12T09:47:55Z</time></trkpt><trkpt lat="43.11005056290717" lon="11.926190087819565"><ele>254.0</ele><time>2026-04-12T09:47:56Z</time></trkpt><trkpt lat="43.1102114796229" lon="11.926138912470554"><ele>256.33333333333337</ele><time>2026-04-12T09:47:57Z</time></trkpt><trkpt lat="43.11036386242678" lon="11.926048698678132"><ele>258.6666666666667</ele><time>2026-04-12T09:47:58Z</time></trkpt><trkpt lat="43.110531406181465" lon="11.925976290892134"><ele>261.0</ele><time>2026-04-12T09:47:59Z</time></trkpt><trkpt lat="43.11070613415988" lon="11.925924314082307"><ele>259.25</ele><time>2026-04-12T09:48:00Z</time></trkpt><trkpt lat="43.11087483476972" lon="11.925851562550134"><ele>257.5</ele><time>2026-04-12T09:48:01Z</time></trkpt><trkpt lat="43.1110163462356" lon="11.925786467853207"><ele>255.75</ele><time>2026-04-12T09:48:02Z</time></trkpt><trkpt lat="43.111127691463075" lon="11.925736338276884"><ele>254.0</ele><time>2026-04-12T09:48:03Z</time></trkpt><trkpt lat="43.111215484286596" lon="11.92570432413537"><ele>254.00000000000003</ele><time>2026-04-12T09:48:04Z</time></trkpt><trkpt lat="43.11128750541676" lon="11.925672280641315"><ele>254.0</ele><time>2026-04-12T09:48:05Z</time></trkpt><trkpt lat="43.11135602227611" lon="11.925705620328378"><ele>254.0</ele><time>2026-04-12T09:48:06Z</time></trkpt><trkpt lat="43.11142256761744" lon="11.925785526101583"><ele>254.0</ele><time>2026-04-12T09:48:07Z</time></trkpt><trkpt lat="43.11146720236329" lon="11.925892020654192"><ele>254.00000000000003</ele><time>2026-04-12T09:48:08Z</time></trkpt><trkpt lat="43.11148204641109" lon="11.926008056267738"><ele>254.0</ele><time>2026-04-12T09:48:09Z</time></trkpt><trkpt lat="43.111485712295384" lon="11.926123767183501"><ele>255.33333333333334</ele><time>2026-04-12T09:48:10Z</time></trkpt><trkpt lat="43.11151003755118" lon="11.926217952788942"><ele>256.6666666666667</ele><time>2026-04-12T09:48:11Z</time></trkpt><trkpt lat="43.11156588624138" lon="11.926281613233495"><ele>258.0</ele><time>2026-04-12T09:48:12Z</time></trkpt><trkpt lat="43.11164248956367" lon="11.926298725492101"><ele>259.3333333333333</ele><time>2026-04-12T09:48:13Z</time></trkpt><trkpt lat="43.11172927365879" lon="11.926285508488112"><ele>260.66666666666663</ele><time>2026-04-12T09:48:14Z</time></trkpt><trkpt lat="43.11183762569443" lon="11.926253826945402"><ele>262.0</ele><time>2026-04-12T09:48:15Z</time></trkpt><trkpt lat="43.11197056843394" lon="11.92620438488642"><ele>262.0</ele><time>2026-04-12T09:48:16Z</time></trkpt><trkpt lat="43.11211533972398" lon="11.92613172271623"><ele>262.0</ele><time>2026-04-12T09:48:17Z</time></trkpt><trkpt lat="43.112267197762876" lon="11.926068245564823"><ele>262.0</ele><time>2026-04-12T09:48:18Z</time></trkpt><trkpt lat="43.11240817295947" lon="11.925970220412772"><ele>260.25</ele><time>2026-04-12T09:48:19Z</time></trkpt><trkpt lat="43.11253252416523" lon="11.92586103128079"><ele>258.5</ele><time>2026-04-12T09:48:20Z</time></trkpt><trkpt lat="43.112663419887674" lon="11.925804817826803"><ele>256.75</ele><time>2026-04-12T09:48:21Z</time></trkpt><trkpt lat="43.11278113486165" lon="11.92573307489058"><ele>255.0</ele><time>2026-04-12T09:48:22Z</time></trkpt><trkpt lat="43.11288590986683" lon="11.92565930232454"><ele>255.0</ele><time>2026-04-12T09:48:23Z</time></trkpt><trkpt lat="43.11296967353609" lon="11.925563638857463"><ele>255.0</ele><time>2026-04-12T09:48:24Z</time></trkpt><trkpt lat="43.113051076723536" lon="11.925459371563448"><ele>255.0</ele><time>2026-04-12T09:48:25Z</time></trkpt><trkpt lat="43.113120750932275" lon="11.925316187676927"><ele>255.0</ele><time>2026-04-12T09:48:26Z</time></trkpt><trkpt lat="43.11317174024951" lon="11.925159525437671"><ele>254.2</ele><time>2026-04-12T09:48:27Z</time></trkpt><trkpt lat="43.11322073238991" lon="11.925021946649258"><ele>253.4</ele><time>2026-04-12T09:48:28Z</time></trkpt><trkpt lat="43.113281533938554" lon="11.92490560982246"><ele>252.60000000000002</ele><time>2026-04-12T09:48:29Z</time></trkpt><trkpt lat="43.11332018468745" lon="11.92480755350991"><ele>251.8</ele><time>2026-04-12T09:48:30Z</time></trkpt><trkpt lat="43.113361076015636" lon="11.924732464393012"><ele>251.0</ele><time>2026-04-12T09:48:31Z</time></trkpt><trkpt lat="43.11346419967968" lon="11.924653850509877"><ele>251.0</ele><time>2026-04-12T09:48:33Z</time></trkpt><trkpt lat="43.113529412203555" lon="11.924638334205492"><ele>251.00000000000003</ele><time>2026-04-12T09:48:34Z</time></trkpt><trkpt lat="43.113620946020646" lon="11.924613201654912"><ele>251.00000000000003</ele><time>2026-04-12T09:48:35Z</time></trkpt><trkpt lat="43.113735904958794" lon="11.92456406454188"><ele>251.0</ele><time>2026-04-12T09:48:36Z</time></trkpt><trkpt lat="43.113865925110446" lon="11.924531254742757"><ele>251.0</ele><time>2026-04-12T09:48:37Z</time></trkpt><trkpt lat="43.113998412219594" lon="11.924500160678111"><ele>251.20000000000002</ele><time>2026-04-12T09:48:38Z</time></trkpt><trkpt lat="43.11411141338806" lon="11.924473311292443"><ele>251.40000000000003</ele><time>2026-04-12T09:48:39Z</time></trkpt><trkpt lat="43.114195867158756" lon="11.924449328205876"><ele>251.6</ele><time>2026-04-12T09:48:40Z</time></trkpt><trkpt lat="43.1142632674006" lon="11.924414002740715"><ele>251.8</ele><time>2026-04-12T09:48:42Z</time></trkpt><trkpt lat="43.114244582472615" lon="11.924180920744531"><ele>252.0</ele><time>2026-04-12T09:48:46Z</time></trkpt><trkpt lat="43.114218020571094" lon="11.92405487145085"><ele>252.25</ele><time>2026-04-12T09:48:47Z</time></trkpt><trkpt lat="43.11420418147287" lon="11.923910579671395"><ele>252.5</ele><time>2026-04-12T09:48:48Z</time></trkpt><trkpt lat="43.114218328180954" lon="11.923764487124396"><ele>252.75</ele><time>2026-04-12T09:48:49Z</time></trkpt><trkpt lat="43.1142722611604" lon="11.923626840628362"><ele>253.0</ele><time>2026-04-12T09:48:50Z</time></trkpt><trkpt lat="43.114356060367484" lon="11.92349969565438"><ele>252.75</ele><time>2026-04-12T09:48:51Z</time></trkpt><trkpt lat="43.114461301298945" lon="11.923388012854955"><ele>252.5</ele><time>2026-04-12T09:48:52Z</time></trkpt><trkpt lat="43.11459097712908" lon="11.923295024381222"><ele>252.25</ele><time>2026-04-12T09:48:53Z</time></trkpt><trkpt lat="43.114732923203725" lon="11.92321007412939"><ele>252.0</ele><time>2026-04-12T09:48:54Z</time></trkpt><trkpt lat="43.1148874268421" lon="11.92310510096392"><ele>253.0</ele><time>2026-04-12T09:48:55Z</time></trkpt><trkpt lat="43.115047577653954" lon="11.922986608326573"><ele>254.0</ele><time>2026-04-12T09:48:56Z</time></trkpt><trkpt lat="43.11519774021029" lon="11.922873779560511"><ele>255.0</ele><time>2026-04-12T09:48:57Z</time></trkpt><trkpt lat="43.11533634820806" lon="11.922774148031733"><ele>255.0</ele><time>2026-04-12T09:48:58Z</time></trkpt><trkpt lat="43.11544399178347" lon="11.922671566628646"><ele>255.0</ele><time>2026-04-12T09:48:59Z</time></trkpt><trkpt lat="43.11553240933912" lon="11.922538289603294"><ele>255.0</ele><time>2026-04-12T09:49:00Z</time></trkpt><trkpt lat="43.11559347799895" lon="11.922376625884185"><ele>255.0</ele><time>2026-04-12T09:49:01Z</time></trkpt><trkpt lat="43.115621044065115" lon="11.922207498197931"><ele>253.75</ele><time>2026-04-12T09:49:02Z</time></trkpt><trkpt lat="43.11561759593856" lon="11.922030235978593"><ele>252.5</ele><time>2026-04-12T09:49:03Z</time></trkpt><trkpt lat="43.11558765454619" lon="11.92184091151071"><ele>251.25</ele><time>2026-04-12T09:49:04Z</time></trkpt><trkpt lat="43.11553411064977" lon="11.921642771162169"><ele>250.0</ele><time>2026-04-12T09:49:05Z</time></trkpt><trkpt lat="43.115477079872576" lon="11.921420214959781"><ele>249.66666666666666</ele><time>2026-04-12T09:49:06Z</time></trkpt><trkpt lat="43.115421055958436" lon="11.921183180404867"><ele>249.33333333333331</ele><time>2026-04-12T09:49:07Z</time></trkpt><trkpt lat="43.115387626153755" lon="11.920944006560513"><ele>249.0</ele><time>2026-04-12T09:49:08Z</time></trkpt><trkpt lat="43.11532285601293" lon="11.920708313832414"><ele>249.0</ele><time>2026-04-12T09:49:09Z</time></trkpt><trkpt lat="43.115271846791934" lon="11.92045699511393"><ele>249.0</ele><time>2026-04-12T09:49:10Z</time></trkpt><trkpt lat="43.115219944568885" lon="11.920204216798496"><ele>249.0</ele><time>2026-04-12T09:49:11Z</time></trkpt><trkpt lat="43.11516511757343" lon="11.91993683177809"><ele>248.66666666666669</ele><time>2026-04-12T09:49:12Z</time></trkpt><trkpt lat="43.1151118426084" lon="11.919669778631548"><ele>248.33333333333334</ele><time>2026-04-12T09:49:13Z</time></trkpt><trkpt lat="43.11505688713216" lon="11.919398016781011"><ele>248.0</ele><time>2026-04-12T09:49:14Z</time></trkpt><trkpt lat="43.11499902137632" lon="11.919126890555257"><ele>248.0</ele><time>2026-04-12T09:49:15Z</time></trkpt><trkpt lat="43.11493918068883" lon="11.918854416071973"><ele>248.0</ele><time>2026-04-12T09:49:16.001Z</time></trkpt><trkpt lat="43.114878882116834" lon="11.918578533026338"><ele>248.0</ele><time>2026-04-12T09:49:17.001Z</time></trkpt><trkpt lat="43.11481635900529" lon="11.918307291773234"><ele>248.33333333333334</ele><time>2026-04-12T09:49:18.001Z</time></trkpt><trkpt lat="43.114755135713004" lon="11.918031157691333"><ele>248.66666666666669</ele><time>2026-04-12T09:49:19.001Z</time></trkpt><trkpt lat="43.114697690388866" lon="11.917764984650246"><ele>249.0</ele><time>2026-04-12T09:49:20.001Z</time></trkpt><trkpt lat="43.114642737411465" lon="11.91750525460531"><ele>249.0</ele><time>2026-04-12T09:49:21.001Z</time></trkpt><trkpt lat="43.11459406561843" lon="11.917245418334398"><ele>249.0</ele><time>2026-04-12T09:49:22.001Z</time></trkpt><trkpt lat="43.1145565854175" lon="11.917007514004174"><ele>249.0</ele><time>2026-04-12T09:49:23.001Z</time></trkpt><trkpt lat="43.11453972967358" lon="11.916767918388162"><ele>249.0</ele><time>2026-04-12T09:49:24.001Z</time></trkpt><trkpt lat="43.11454341386111" lon="11.916520098446933"><ele>249.0</ele><time>2026-04-12T09:49:25.001Z</time></trkpt><trkpt lat="43.11457179113333" lon="11.91627067168252"><ele>249.0</ele><time>2026-04-12T09:49:26.001Z</time></trkpt><trkpt lat="43.114607382815116" lon="11.916013999906923"><ele>249.0</ele><time>2026-04-12T09:49:27.001Z</time></trkpt><trkpt lat="43.114637391253865" lon="11.915756859150132"><ele>249.0</ele><time>2026-04-12T09:49:28.001Z</time></trkpt><trkpt lat="43.11466337939463" lon="11.915491666563321"><ele>249.0</ele><time>2026-04-12T09:49:29.001Z</time></trkpt><trkpt lat="43.114689207634264" lon="11.915224463061913"><ele>249.0</ele><time>2026-04-12T09:49:30.001Z</time></trkpt><trkpt lat="43.11471520091993" lon="11.91495574634281"><ele>249.0</ele><time>2026-04-12T09:49:30.999Z</time></trkpt><trkpt lat="43.11474008815792" lon="11.914681443391908"><ele>249.0</ele><time>2026-04-12T09:49:31.999Z</time></trkpt><trkpt lat="43.114762470287154" lon="11.914405226089054"><ele>248.66666666666669</ele><time>2026-04-12T09:49:32.999Z</time></trkpt><trkpt lat="43.11478565662332" lon="11.91412356405345"><ele>248.33333333333334</ele><time>2026-04-12T09:49:33.999Z</time></trkpt><trkpt lat="43.114810491173145" lon="11.913842007694628"><ele>248.0</ele><time>2026-04-12T09:49:34.999Z</time></trkpt><trkpt lat="43.11483353879972" lon="11.913556286338517"><ele>248.33333333333334</ele><time>2026-04-12T09:49:35.999Z</time></trkpt><trkpt lat="43.11485257292063" lon="11.913270589869144"><ele>248.66666666666669</ele><time>2026-04-12T09:49:36.999Z</time></trkpt><trkpt lat="43.11486080177763" lon="11.912978985488913"><ele>249.0</ele><time>2026-04-12T09:49:37.999Z</time></trkpt><trkpt lat="43.11486210676896" lon="11.912685782888227"><ele>249.0</ele><time>2026-04-12T09:49:38.999Z</time></trkpt><trkpt lat="43.11484881590566" lon="11.91238656038658"><ele>249.0</ele><time>2026-04-12T09:49:39.999Z</time></trkpt><trkpt lat="43.114833643945076" lon="11.912085250218361"><ele>249.0</ele><time>2026-04-12T09:49:40.999Z</time></trkpt><trkpt lat="43.11481994436282" lon="11.911783072374533"><ele>249.0</ele><time>2026-04-12T09:49:42Z</time></trkpt><trkpt lat="43.11481068229242" lon="11.911478593887677"><ele>249.0</ele><time>2026-04-12T09:49:43Z</time></trkpt><trkpt lat="43.11480009499877" lon="11.911171843300632"><ele>249.0</ele><time>2026-04-12T09:49:44Z</time></trkpt><trkpt lat="43.11478915634281" lon="11.910864629724017"><ele>248.5</ele><time>2026-04-12T09:49:45Z</time></trkpt><trkpt lat="43.11477767261594" lon="11.910555234383045"><ele>248.0</ele><time>2026-04-12T09:49:46Z</time></trkpt><trkpt lat="43.11476673247168" lon="11.910245926708678"><ele>249.0</ele><time>2026-04-12T09:49:47Z</time></trkpt><trkpt lat="43.11475712239426" lon="11.909935448491435"><ele>250.0</ele><time>2026-04-12T09:49:48Z</time></trkpt><trkpt lat="43.11474642727968" lon="11.90962451928227"><ele>250.0</ele><time>2026-04-12T09:49:49Z</time></trkpt><trkpt lat="43.114735513506695" lon="11.909315163964898"><ele>250.0</ele><time>2026-04-12T09:49:50Z</time></trkpt><trkpt lat="43.11472571081044" lon="11.909009489102756"><ele>250.0</ele><time>2026-04-12T09:49:51Z</time></trkpt><trkpt lat="43.114717383512094" lon="11.908732640994582"><ele>250.25</ele><time>2026-04-12T09:49:52Z</time></trkpt><trkpt lat="43.114708424397286" lon="11.908505989291713"><ele>250.5</ele><time>2026-04-12T09:49:53Z</time></trkpt><trkpt lat="43.11469793284039" lon="11.908306263480643"><ele>250.75</ele><time>2026-04-12T09:49:54Z</time></trkpt><trkpt lat="43.11468931624464" lon="11.908123449811582"><ele>251.0</ele><time>2026-04-12T09:49:55Z</time></trkpt><trkpt lat="43.11467774834429" lon="11.907969535925433"><ele>251.0</ele><time>2026-04-12T09:49:56Z</time></trkpt><trkpt lat="43.114669408103815" lon="11.907863949406511"><ele>251.0</ele><time>2026-04-12T09:49:57Z</time></trkpt><trkpt lat="43.114652717818764" lon="11.907709801488373"><ele>251.0</ele><time>2026-04-12T09:49:59Z</time></trkpt><trkpt lat="43.11471422995602" lon="11.907487588003065"><ele>251.0</ele><time>2026-04-12T09:50:01Z</time></trkpt><trkpt lat="43.114751623847205" lon="11.907378134076284"><ele>251.0</ele><time>2026-04-12T09:50:02Z</time></trkpt><trkpt lat="43.11478944243961" lon="11.907257410168047"><ele>251.0</ele><time>2026-04-12T09:50:03Z</time></trkpt><trkpt lat="43.1148354547602" lon="11.907129651932394"><ele>251.0</ele><time>2026-04-12T09:50:04Z</time></trkpt><trkpt lat="43.11489470688139" lon="11.906980206932186"><ele>251.0</ele><time>2026-04-12T09:50:05Z</time></trkpt><trkpt lat="43.114953848986076" lon="11.90680247166827"><ele>250.33333333333334</ele><time>2026-04-12T09:50:06Z</time></trkpt><trkpt lat="43.11503509367203" lon="11.906626366186368"><ele>249.66666666666669</ele><time>2026-04-12T09:50:07Z</time></trkpt><trkpt lat="43.11512042001065" lon="11.906435567297667"><ele>249.0</ele><time>2026-04-12T09:50:08Z</time></trkpt><trkpt lat="43.11520691260938" lon="11.906240915150253"><ele>249.0</ele><time>2026-04-12T09:50:09Z</time></trkpt><trkpt lat="43.11529739511372" lon="11.90603368931291"><ele>249.0</ele><time>2026-04-12T09:50:10Z</time></trkpt><trkpt lat="43.115388001392155" lon="11.905819223390163"><ele>249.0</ele><time>2026-04-12T09:50:11Z</time></trkpt><trkpt lat="43.1154813534846" lon="11.905600045664823"><ele>249.0</ele><time>2026-04-12T09:50:12Z</time></trkpt><trkpt lat="43.115580642426785" lon="11.905373644530686"><ele>249.0</ele><time>2026-04-12T09:50:13Z</time></trkpt><trkpt lat="43.11568068420601" lon="11.905141539503745"><ele>249.0</ele><time>2026-04-12T09:50:14Z</time></trkpt><trkpt lat="43.11578347670982" lon="11.90490112371206"><ele>249.0</ele><time>2026-04-12T09:50:15Z</time></trkpt><trkpt lat="43.11588708591509" lon="11.904657658651855"><ele>249.0</ele><time>2026-04-12T09:50:16Z</time></trkpt><trkpt lat="43.11599535211766" lon="11.904407815679049"><ele>249.0</ele><time>2026-04-12T09:50:17Z</time></trkpt><trkpt lat="43.11610170958201" lon="11.904155662077924"><ele>249.0</ele><time>2026-04-12T09:50:18Z</time></trkpt><trkpt lat="43.11621094450951" lon="11.903901518520852"><ele>249.0</ele><time>2026-04-12T09:50:19Z</time></trkpt><trkpt lat="43.116323153225586" lon="11.90364249013431"><ele>249.0</ele><time>2026-04-12T09:50:20Z</time></trkpt><trkpt lat="43.11643470178054" lon="11.903382878913506"><ele>249.0</ele><time>2026-04-12T09:50:21Z</time></trkpt><trkpt lat="43.116546343728345" lon="11.903118585117863"><ele>249.0</ele><time>2026-04-12T09:50:22Z</time></trkpt><trkpt lat="43.11665911216935" lon="11.902854778272369"><ele>249.0</ele><time>2026-04-12T09:50:23Z</time></trkpt><trkpt lat="43.11677256633474" lon="11.902584671956875"><ele>249.0</ele><time>2026-04-12T09:50:24Z</time></trkpt><trkpt lat="43.11690274748936" lon="11.90232545389492"><ele>249.0</ele><time>2026-04-12T09:50:25Z</time></trkpt><trkpt lat="43.11702158640552" lon="11.902052818729116"><ele>249.0</ele><time>2026-04-12T09:50:26Z</time></trkpt><trkpt lat="43.117140542594804" lon="11.90178035196644"><ele>249.0</ele><time>2026-04-12T09:50:27Z</time></trkpt><trkpt lat="43.117260089865376" lon="11.901506658726532"><ele>249.5</ele><time>2026-04-12T09:50:28Z</time></trkpt><trkpt lat="43.11737895661681" lon="11.901230219250357"><ele>250.0</ele><time>2026-04-12T09:50:29Z</time></trkpt><trkpt lat="43.1174972271249" lon="11.90095116782851"><ele>249.5</ele><time>2026-04-12T09:50:30Z</time></trkpt><trkpt lat="43.117616692273465" lon="11.90066735288619"><ele>249.0</ele><time>2026-04-12T09:50:31Z</time></trkpt><trkpt lat="43.117735697886765" lon="11.900384629807895"><ele>249.0</ele><time>2026-04-12T09:50:32Z</time></trkpt><trkpt lat="43.117855157615516" lon="11.900104552231236"><ele>249.0</ele><time>2026-04-12T09:50:33Z</time></trkpt><trkpt lat="43.11797496859704" lon="11.899826321331515"><ele>250.0</ele><time>2026-04-12T09:50:34Z</time></trkpt><trkpt lat="43.11809599709785" lon="11.899545262853684"><ele>251.0</ele><time>2026-04-12T09:50:35Z</time></trkpt><trkpt lat="43.118216480015214" lon="11.899264254535696"><ele>250.5</ele><time>2026-04-12T09:50:36Z</time></trkpt><trkpt lat="43.11833528871125" lon="11.898982335997074"><ele>250.0</ele><time>2026-04-12T09:50:37Z</time></trkpt><trkpt lat="43.118452391242435" lon="11.898700127806434"><ele>250.0</ele><time>2026-04-12T09:50:38Z</time></trkpt><trkpt lat="43.11856509896393" lon="11.898423231314009"><ele>250.0</ele><time>2026-04-12T09:50:39Z</time></trkpt><trkpt lat="43.118672420281854" lon="11.898159525106394"><ele>250.0</ele><time>2026-04-12T09:50:40Z</time></trkpt><trkpt lat="43.11877573638762" lon="11.897905459859686"><ele>250.0</ele><time>2026-04-12T09:50:41Z</time></trkpt><trkpt lat="43.118880408549686" lon="11.897648059846226"><ele>250.0</ele><time>2026-04-12T09:50:42Z</time></trkpt><trkpt lat="43.118986289251204" lon="11.89738785074509"><ele>250.33333333333331</ele><time>2026-04-12T09:50:43Z</time></trkpt><trkpt lat="43.11909554482939" lon="11.897124896606774"><ele>250.66666666666669</ele><time>2026-04-12T09:50:44Z</time></trkpt><trkpt lat="43.11919202194475" lon="11.896857956548622"><ele>251.0</ele><time>2026-04-12T09:50:45Z</time></trkpt><trkpt lat="43.1193011554714" lon="11.896600092179774"><ele>251.0</ele><time>2026-04-12T09:50:46Z</time></trkpt><trkpt lat="43.119413922354305" lon="11.896337229969793"><ele>251.0</ele><time>2026-04-12T09:50:47Z</time></trkpt><trkpt lat="43.11953890856598" lon="11.896089063258911"><ele>251.0</ele><time>2026-04-12T09:50:48Z</time></trkpt><trkpt lat="43.119651424154576" lon="11.895826844260684"><ele>251.0</ele><time>2026-04-12T09:50:49Z</time></trkpt><trkpt lat="43.11976342003966" lon="11.895565450539339"><ele>251.0</ele><time>2026-04-12T09:50:50Z</time></trkpt><trkpt lat="43.119875948066706" lon="11.89530281450559"><ele>251.0</ele><time>2026-04-12T09:50:51Z</time></trkpt><trkpt lat="43.11998726933183" lon="11.895042995063873"><ele>250.33333333333334</ele><time>2026-04-12T09:50:52Z</time></trkpt><trkpt lat="43.12009635570677" lon="11.894788391645523"><ele>249.66666666666669</ele><time>2026-04-12T09:50:53Z</time></trkpt><trkpt lat="43.12019719694987" lon="11.894553032132256"><ele>249.0</ele><time>2026-04-12T09:50:54Z</time></trkpt><trkpt lat="43.1202975285666" lon="11.89431736069071"><ele>249.33333333333331</ele><time>2026-04-12T09:50:55Z</time></trkpt><trkpt lat="43.120399455756825" lon="11.894074548853645"><ele>249.66666666666666</ele><time>2026-04-12T09:50:56Z</time></trkpt><trkpt lat="43.1205014544789" lon="11.893831566666428"><ele>250.0</ele><time>2026-04-12T09:50:57Z</time></trkpt><trkpt lat="43.12060315971321" lon="11.89358928398932"><ele>250.0</ele><time>2026-04-12T09:50:58Z</time></trkpt><trkpt lat="43.12070525869168" lon="11.89334420363754"><ele>250.0</ele><time>2026-04-12T09:50:59Z</time></trkpt><trkpt lat="43.12080825731652" lon="11.893097142170957"><ele>250.0</ele><time>2026-04-12T09:51:00Z</time></trkpt><trkpt lat="43.12091258785491" lon="11.892849826031535"><ele>249.66666666666666</ele><time>2026-04-12T09:51:01Z</time></trkpt><trkpt lat="43.12101754878933" lon="11.892602099863185"><ele>249.33333333333331</ele><time>2026-04-12T09:51:02Z</time></trkpt><trkpt lat="43.12112210765865" lon="11.892355322631838"><ele>249.0</ele><time>2026-04-12T09:51:03Z</time></trkpt><trkpt lat="43.12122520615248" lon="11.892112002665156"><ele>249.0</ele><time>2026-04-12T09:51:04Z</time></trkpt><trkpt lat="43.12132503235754" lon="11.891879706873286"><ele>249.0</ele><time>2026-04-12T09:51:05Z</time></trkpt><trkpt lat="43.12141822407471" lon="11.891662849572356"><ele>249.0</ele><time>2026-04-12T09:51:06Z</time></trkpt><trkpt lat="43.12150458115001" lon="11.8914648293052"><ele>249.33333333333331</ele><time>2026-04-12T09:51:07Z</time></trkpt><trkpt lat="43.121585702411714" lon="11.891278860663602"><ele>249.66666666666666</ele><time>2026-04-12T09:51:08Z</time></trkpt><trkpt lat="43.121663952996386" lon="11.891100634155187"><ele>250.0</ele><time>2026-04-12T09:51:09Z</time></trkpt><trkpt lat="43.121738739606464" lon="11.890931176003326"><ele>250.5</ele><time>2026-04-12T09:51:10Z</time></trkpt><trkpt lat="43.12181667761754" lon="11.890754577196532"><ele>251.0</ele><time>2026-04-12T09:51:11Z</time></trkpt><trkpt lat="43.121891880209155" lon="11.890584176510231"><ele>251.5</ele><time>2026-04-12T09:51:12Z</time></trkpt><trkpt lat="43.12196799092734" lon="11.890411027626232"><ele>252.0</ele><time>2026-04-12T09:51:13Z</time></trkpt><trkpt lat="43.122041538057765" lon="11.890243086254726"><ele>252.5</ele><time>2026-04-12T09:51:14Z</time></trkpt><trkpt lat="43.12211207376594" lon="11.89007998116504"><ele>253.0</ele><time>2026-04-12T09:51:15Z</time></trkpt><trkpt lat="43.12217948667172" lon="11.889924846864597"><ele>253.5</ele><time>2026-04-12T09:51:16Z</time></trkpt><trkpt lat="43.12223903534692" lon="11.889786358632996"><ele>254.0</ele><time>2026-04-12T09:51:17.001Z</time></trkpt><trkpt lat="43.12230166529611" lon="11.889640164365433"><ele>254.0</ele><time>2026-04-12T09:51:18.001Z</time></trkpt><trkpt lat="43.122365607736214" lon="11.889491489553611"><ele>254.0</ele><time>2026-04-12T09:51:19.001Z</time></trkpt><trkpt lat="43.12243022857367" lon="11.8893412563998"><ele>254.0</ele><time>2026-04-12T09:51:20.001Z</time></trkpt><trkpt lat="43.12249880185132" lon="11.889181834440118"><ele>254.0</ele><time>2026-04-12T09:51:21.001Z</time></trkpt><trkpt lat="43.12257122777477" lon="11.889013455702022"><ele>252.66666666666669</ele><time>2026-04-12T09:51:22.001Z</time></trkpt><trkpt lat="43.1226469920381" lon="11.88883731588952"><ele>251.33333333333331</ele><time>2026-04-12T09:51:23.001Z</time></trkpt><trkpt lat="43.122727308444844" lon="11.88865059303648"><ele>250.0</ele><time>2026-04-12T09:51:24.001Z</time></trkpt><trkpt lat="43.12279564045376" lon="11.888445251814387"><ele>250.0</ele><time>2026-04-12T09:51:25.001Z</time></trkpt><trkpt lat="43.12288187236495" lon="11.888242119347852"><ele>250.0</ele><time>2026-04-12T09:51:26.001Z</time></trkpt><trkpt lat="43.12298599324029" lon="11.888039399618073"><ele>250.0</ele><time>2026-04-12T09:51:27.001Z</time></trkpt><trkpt lat="43.12307839932303" lon="11.887820840936815"><ele>250.0</ele><time>2026-04-12T09:51:28.001Z</time></trkpt><trkpt lat="43.12315151805441" lon="11.88760207700712"><ele>250.0</ele><time>2026-04-12T09:51:29.001Z</time></trkpt><trkpt lat="43.123234232720556" lon="11.887412793650327"><ele>250.0</ele><time>2026-04-12T09:51:30.001Z</time></trkpt><trkpt lat="43.12332712206121" lon="11.887246792563781"><ele>250.0</ele><time>2026-04-12T09:51:31.001Z</time></trkpt><trkpt lat="43.12341245064229" lon="11.887055814445725"><ele>250.0</ele><time>2026-04-12T09:51:32.001Z</time></trkpt><trkpt lat="43.12352948389388" lon="11.886877251348736"><ele>250.0</ele><time>2026-04-12T09:51:33.001Z</time></trkpt><trkpt lat="43.123636141885655" lon="11.88667951789545"><ele>250.0</ele><time>2026-04-12T09:51:34.001Z</time></trkpt><trkpt lat="43.123806922845134" lon="11.886518975804826"><ele>250.0</ele><time>2026-04-12T09:51:35.001Z</time></trkpt><trkpt lat="43.123956165900026" lon="11.88632984793856"><ele>250.0</ele><time>2026-04-12T09:51:36.001Z</time></trkpt><trkpt lat="43.12411191607691" lon="11.886132439145275"><ele>250.0</ele><time>2026-04-12T09:51:37Z</time></trkpt><trkpt lat="43.124274100851174" lon="11.885928661631063"><ele>250.0</ele><time>2026-04-12T09:51:38Z</time></trkpt><trkpt lat="43.12444078387622" lon="11.885712891768422"><ele>250.0</ele><time>2026-04-12T09:51:39Z</time></trkpt><trkpt lat="43.12461220024492" lon="11.885490900585225"><ele>250.0</ele><time>2026-04-12T09:51:40Z</time></trkpt><trkpt lat="43.124788344554396" lon="11.88526754700908"><ele>250.0</ele><time>2026-04-12T09:51:41Z</time></trkpt><trkpt lat="43.124963956969765" lon="11.885042149927271"><ele>249.5</ele><time>2026-04-12T09:51:42Z</time></trkpt><trkpt lat="43.12514446564191" lon="11.88481429795158"><ele>249.0</ele><time>2026-04-12T09:51:43Z</time></trkpt><trkpt lat="43.12532060293291" lon="11.88458666639718"><ele>249.0</ele><time>2026-04-12T09:51:44Z</time></trkpt><trkpt lat="43.125499785201804" lon="11.884358385226529"><ele>249.0</ele><time>2026-04-12T09:51:45Z</time></trkpt><trkpt lat="43.125670413377996" lon="11.884137116003219"><ele>249.33333333333331</ele><time>2026-04-12T09:51:46Z</time></trkpt><trkpt lat="43.12583139269479" lon="11.883932729123433"><ele>249.66666666666666</ele><time>2026-04-12T09:51:47Z</time></trkpt><trkpt lat="43.12598217391441" lon="11.883738533955933"><ele>250.0</ele><time>2026-04-12T09:51:48Z</time></trkpt><trkpt lat="43.12613062311903" lon="11.88354621656526"><ele>250.0</ele><time>2026-04-12T09:51:49Z</time></trkpt><trkpt lat="43.12628293635822" lon="11.883351774035253"><ele>250.0</ele><time>2026-04-12T09:51:50Z</time></trkpt><trkpt lat="43.12643631429874" lon="11.883157567677637"><ele>250.0</ele><time>2026-04-12T09:51:51Z</time></trkpt><trkpt lat="43.1265874044465" lon="11.882964716055781"><ele>250.0</ele><time>2026-04-12T09:51:52Z</time></trkpt><trkpt lat="43.12674099224292" lon="11.88277162008221"><ele>250.0</ele><time>2026-04-12T09:51:53Z</time></trkpt><trkpt lat="43.12689654816184" lon="11.882571119648514"><ele>250.0</ele><time>2026-04-12T09:51:54Z</time></trkpt><trkpt lat="43.12705102977417" lon="11.882367110592119"><ele>250.0</ele><time>2026-04-12T09:51:55Z</time></trkpt><trkpt lat="43.12721087279037" lon="11.882159634367722"><ele>250.0</ele><time>2026-04-12T09:51:56Z</time></trkpt><trkpt lat="43.1273735817988" lon="11.881954275704988"><ele>250.0</ele><time>2026-04-12T09:51:57Z</time></trkpt><trkpt lat="43.12753908039095" lon="11.881749067142508"><ele>250.0</ele><time>2026-04-12T09:51:58Z</time></trkpt><trkpt lat="43.12770338460276" lon="11.881542201744262"><ele>250.0</ele><time>2026-04-12T09:51:59Z</time></trkpt><trkpt lat="43.12786668474476" lon="11.881335867027964"><ele>250.0</ele><time>2026-04-12T09:52:00Z</time></trkpt><trkpt lat="43.12801530068584" lon="11.881146246466493"><ele>250.0</ele><time>2026-04-12T09:52:01Z</time></trkpt><trkpt lat="43.128158181602984" lon="11.880967915149878"><ele>250.0</ele><time>2026-04-12T09:52:02Z</time></trkpt><trkpt lat="43.12830018073644" lon="11.880794110820158"><ele>250.0</ele><time>2026-04-12T09:52:03Z</time></trkpt><trkpt lat="43.12843096151673" lon="11.880633196387445"><ele>250.75</ele><time>2026-04-12T09:52:04Z</time></trkpt><trkpt lat="43.12854683108174" lon="11.880487398849613"><ele>251.5</ele><time>2026-04-12T09:52:05Z</time></trkpt><trkpt lat="43.1286517882208" lon="11.88034892262436"><ele>252.25</ele><time>2026-04-12T09:52:06Z</time></trkpt><trkpt lat="43.128751206251366" lon="11.880221743892502"><ele>253.0</ele><time>2026-04-12T09:52:07Z</time></trkpt><trkpt lat="43.128845822228406" lon="11.880102800917921"><ele>252.75</ele><time>2026-04-12T09:52:08Z</time></trkpt><trkpt lat="43.12893896066577" lon="11.879983463467163"><ele>252.5</ele><time>2026-04-12T09:52:09Z</time></trkpt><trkpt lat="43.12902574268492" lon="11.879866559131411"><ele>252.25</ele><time>2026-04-12T09:52:10Z</time></trkpt><trkpt lat="43.12910805665476" lon="11.879764635251528"><ele>252.0</ele><time>2026-04-12T09:52:11Z</time></trkpt><trkpt lat="43.12917852306673" lon="11.87968036127845"><ele>252.0</ele><time>2026-04-12T09:52:12Z</time></trkpt><trkpt lat="43.12923212929903" lon="11.879614941525045"><ele>252.0</ele><time>2026-04-12T09:52:13Z</time></trkpt><trkpt lat="43.129287734348125" lon="11.879571881838856"><ele>252.0</ele><time>2026-04-12T09:52:15Z</time></trkpt><trkpt lat="43.12935787162663" lon="11.879579493627261"><ele>252.0</ele><time>2026-04-12T09:52:17Z</time></trkpt><trkpt lat="43.129442369986165" lon="11.87963910009176"><ele>252.0</ele><time>2026-04-12T09:52:18Z</time></trkpt><trkpt lat="43.12955331369958" lon="11.87971992692937"><ele>252.0</ele><time>2026-04-12T09:52:19Z</time></trkpt><trkpt lat="43.12969733631486" lon="11.8798257351485"><ele>252.0</ele><time>2026-04-12T09:52:20Z</time></trkpt><trkpt lat="43.12987743095592" lon="11.879952473281474"><ele>252.0</ele><time>2026-04-12T09:52:21Z</time></trkpt><trkpt lat="43.13008314113074" lon="11.880094583489008"><ele>252.0</ele><time>2026-04-12T09:52:22Z</time></trkpt><trkpt lat="43.13030443254149" lon="11.880244286669406"><ele>251.5</ele><time>2026-04-12T09:52:23Z</time></trkpt><trkpt lat="43.13053432488456" lon="11.880401203056355"><ele>251.0</ele><time>2026-04-12T09:52:24Z</time></trkpt><trkpt lat="43.13076349866196" lon="11.880555838350066"><ele>250.5</ele><time>2026-04-12T09:52:25Z</time></trkpt><trkpt lat="43.130991840484164" lon="11.880714091494262"><ele>250.0</ele><time>2026-04-12T09:52:26Z</time></trkpt><trkpt lat="43.13121824520381" lon="11.880871034074149"><ele>250.0</ele><time>2026-04-12T09:52:27Z</time></trkpt><trkpt lat="43.131445669271685" lon="11.881028113628659"><ele>250.0</ele><time>2026-04-12T09:52:28Z</time></trkpt><trkpt lat="43.131673133905906" lon="11.88118172835204"><ele>249.5</ele><time>2026-04-12T09:52:29Z</time></trkpt><trkpt lat="43.13189936142098" lon="11.881332648708424"><ele>249.0</ele><time>2026-04-12T09:52:30Z</time></trkpt><trkpt lat="43.13212322201568" lon="11.881481603818184"><ele>249.0</ele><time>2026-04-12T09:52:31Z</time></trkpt><trkpt lat="43.132346701705714" lon="11.88163214640338"><ele>249.0</ele><time>2026-04-12T09:52:32Z</time></trkpt><trkpt lat="43.13256725687731" lon="11.881783270071022"><ele>251.0</ele><time>2026-04-12T09:52:33Z</time></trkpt><trkpt lat="43.132789670784184" lon="11.88195456337016"><ele>253.0</ele><time>2026-04-12T09:52:34Z</time></trkpt><trkpt lat="43.13301319409193" lon="11.882095015826343"><ele>251.5</ele><time>2026-04-12T09:52:35Z</time></trkpt><trkpt lat="43.13323771976583" lon="11.882250873575826"><ele>250.0</ele><time>2026-04-12T09:52:36Z</time></trkpt><trkpt lat="43.13346447278388" lon="11.882410936652775"><ele>250.0</ele><time>2026-04-12T09:52:37Z</time></trkpt><trkpt lat="43.13369349816209" lon="11.88256718778257"><ele>250.0</ele><time>2026-04-12T09:52:38Z</time></trkpt><trkpt lat="43.133923921191105" lon="11.88272253448869"><ele>249.5</ele><time>2026-04-12T09:52:39Z</time></trkpt><trkpt lat="43.134156713387235" lon="11.882880489848615"><ele>249.0</ele><time>2026-04-12T09:52:40Z</time></trkpt><trkpt lat="43.13438942422514" lon="11.883037039649254"><ele>249.0</ele><time>2026-04-12T09:52:41Z</time></trkpt><trkpt lat="43.134621992555026" lon="11.883194399235874"><ele>249.0</ele><time>2026-04-12T09:52:42Z</time></trkpt><trkpt lat="43.13485482540154" lon="11.883357313421673"><ele>249.5</ele><time>2026-04-12T09:52:43Z</time></trkpt><trkpt lat="43.13508728162962" lon="11.883519251146058"><ele>250.0</ele><time>2026-04-12T09:52:44Z</time></trkpt><trkpt lat="43.135322169744995" lon="11.883680349866236"><ele>250.0</ele><time>2026-04-12T09:52:45Z</time></trkpt><trkpt lat="43.13555618707954" lon="11.883840701020118"><ele>250.0</ele><time>2026-04-12T09:52:46Z</time></trkpt><trkpt lat="43.13579040765203" lon="11.884002162923613"><ele>250.0</ele><time>2026-04-12T09:52:47Z</time></trkpt><trkpt lat="43.13602384916764" lon="11.884163927133793"><ele>250.0</ele><time>2026-04-12T09:52:48Z</time></trkpt><trkpt lat="43.13625870143587" lon="11.884324839444567"><ele>250.0</ele><time>2026-04-12T09:52:49Z</time></trkpt><trkpt lat="43.136494114459836" lon="11.884484856019615"><ele>250.0</ele><time>2026-04-12T09:52:50Z</time></trkpt><trkpt lat="43.13673046668263" lon="11.884645391481664"><ele>249.0</ele><time>2026-04-12T09:52:51Z</time></trkpt><trkpt lat="43.13696649701663" lon="11.88480564064646"><ele>248.0</ele><time>2026-04-12T09:52:52Z</time></trkpt><trkpt lat="43.13720201413534" lon="11.88496738328739"><ele>248.5</ele><time>2026-04-12T09:52:53Z</time></trkpt><trkpt lat="43.13744006582989" lon="11.88512935664333"><ele>249.0</ele><time>2026-04-12T09:52:54Z</time></trkpt><trkpt lat="43.13768101236154" lon="11.885294320207796"><ele>249.0</ele><time>2026-04-12T09:52:55Z</time></trkpt><trkpt lat="43.13792280489199" lon="11.88546055420804"><ele>249.0</ele><time>2026-04-12T09:52:56Z</time></trkpt><trkpt lat="43.13816674579198" lon="11.885626883324758"><ele>249.0</ele><time>2026-04-12T09:52:57Z</time></trkpt><trkpt lat="43.13841032948244" lon="11.885794127796608"><ele>249.0</ele><time>2026-04-12T09:52:58.001Z</time></trkpt><trkpt lat="43.13865633356721" lon="11.885963552543188"><ele>248.5</ele><time>2026-04-12T09:52:59.001Z</time></trkpt><trkpt lat="43.13890240576123" lon="11.886132823949035"><ele>248.0</ele><time>2026-04-12T09:53:00.001Z</time></trkpt><trkpt lat="43.1391494235138" lon="11.886299998062231"><ele>248.0</ele><time>2026-04-12T09:53:01.001Z</time></trkpt><trkpt lat="43.13939729620875" lon="11.886468051131544"><ele>248.0</ele><time>2026-04-12T09:53:02.001Z</time></trkpt><trkpt lat="43.13964522084389" lon="11.886638943158001"><ele>248.0</ele><time>2026-04-12T09:53:03.001Z</time></trkpt><trkpt lat="43.13989319188792" lon="11.886807710581278"><ele>248.0</ele><time>2026-04-12T09:53:04.001Z</time></trkpt><trkpt lat="43.140142506201926" lon="11.886977412110719"><ele>248.0</ele><time>2026-04-12T09:53:05.001Z</time></trkpt><trkpt lat="43.14039111183367" lon="11.887143147894268"><ele>248.0</ele><time>2026-04-12T09:53:06.001Z</time></trkpt><trkpt lat="43.140635461306594" lon="11.887305149867029"><ele>248.0</ele><time>2026-04-12T09:53:07.001Z</time></trkpt><trkpt lat="43.140862975334485" lon="11.887459588698269"><ele>248.0</ele><time>2026-04-12T09:53:08.001Z</time></trkpt><trkpt lat="43.141069527595455" lon="11.887600302741047"><ele>248.0</ele><time>2026-04-12T09:53:09.001Z</time></trkpt><trkpt lat="43.141257643508816" lon="11.887732647780803"><ele>248.0</ele><time>2026-04-12T09:53:10.001Z</time></trkpt><trkpt lat="43.141431952275454" lon="11.8878603677385"><ele>248.0</ele><time>2026-04-12T09:53:11.001Z</time></trkpt><trkpt lat="43.141590391864554" lon="11.887971184909038"><ele>248.25</ele><time>2026-04-12T09:53:12.001Z</time></trkpt><trkpt lat="43.14172609674082" lon="11.888070094628729"><ele>248.5</ele><time>2026-04-12T09:53:13.001Z</time></trkpt><trkpt lat="43.14186183772974" lon="11.888167721984182"><ele>248.75</ele><time>2026-04-12T09:53:14.001Z</time></trkpt><trkpt lat="43.14198052921563" lon="11.888255121304834"><ele>249.0</ele><time>2026-04-12T09:53:15.001Z</time></trkpt><trkpt lat="43.14208606693834" lon="11.888335756677504"><ele>249.0</ele><time>2026-04-12T09:53:16.001Z</time></trkpt><trkpt lat="43.14218096444122" lon="11.88840624712644"><ele>248.99999999999997</ele><time>2026-04-12T09:53:17.001Z</time></trkpt><trkpt lat="43.142255694950606" lon="11.88845760569064"><ele>248.99999999999997</ele><time>2026-04-12T09:53:18.001Z</time></trkpt><trkpt lat="43.14233326978555" lon="11.888506528284829"><ele>249.0</ele><time>2026-04-12T09:53:20.001Z</time></trkpt><trkpt lat="43.14239795911197" lon="11.888416418632625"><ele>249.0</ele><time>2026-04-12T09:53:47Z</time></trkpt><trkpt lat="43.14238102529557" lon="11.888249109058565"><ele>249.0</ele><time>2026-04-12T09:53:49Z</time></trkpt><trkpt lat="43.14233906178749" lon="11.888121803795267"><ele>249.0</ele><time>2026-04-12T09:53:50Z</time></trkpt><trkpt lat="43.14230075807092" lon="11.887968167079462"><ele>249.0</ele><time>2026-04-12T09:53:51Z</time></trkpt><trkpt lat="43.14225911936013" lon="11.887797495269208"><ele>249.0</ele><time>2026-04-12T09:53:52Z</time></trkpt><trkpt lat="43.142214810305894" lon="11.887620592760747"><ele>249.33333333333331</ele><time>2026-04-12T09:53:53Z</time></trkpt><trkpt lat="43.142167531598645" lon="11.887421241855833"><ele>249.66666666666666</ele><time>2026-04-12T09:53:54Z</time></trkpt><trkpt lat="43.14211859329279" lon="11.887214135378935"><ele>250.0</ele><time>2026-04-12T09:53:55Z</time></trkpt><trkpt lat="43.14206248393564" lon="11.88699747968599"><ele>250.0</ele><time>2026-04-12T09:53:56Z</time></trkpt><trkpt lat="43.14200381773577" lon="11.886773111913955"><ele>250.0</ele><time>2026-04-12T09:53:57Z</time></trkpt><trkpt lat="43.141945896243904" lon="11.88653872396052"><ele>250.0</ele><time>2026-04-12T09:53:58Z</time></trkpt><trkpt lat="43.14188727587192" lon="11.886298052703737"><ele>249.33333333333331</ele><time>2026-04-12T09:53:59Z</time></trkpt><trkpt lat="43.141821784629975" lon="11.886046500892745"><ele>248.66666666666669</ele><time>2026-04-12T09:54:00Z</time></trkpt><trkpt lat="43.14175502277257" lon="11.88578155134043"><ele>248.0</ele><time>2026-04-12T09:54:01Z</time></trkpt><trkpt lat="43.14168780399199" lon="11.885510708386352"><ele>248.33333333333334</ele><time>2026-04-12T09:54:02Z</time></trkpt><trkpt lat="43.141619617170754" lon="11.885237583498563"><ele>248.66666666666669</ele><time>2026-04-12T09:54:03Z</time></trkpt><trkpt lat="43.14154927804723" lon="11.884957258874165"><ele>249.0</ele><time>2026-04-12T09:54:04Z</time></trkpt><trkpt lat="43.141478542853946" lon="11.884675499664137"><ele>249.0</ele><time>2026-04-12T09:54:05Z</time></trkpt><trkpt lat="43.141409091944794" lon="11.88438987222183"><ele>249.0</ele><time>2026-04-12T09:54:06Z</time></trkpt><trkpt lat="43.14134820688032" lon="11.884097497115738"><ele>249.0</ele><time>2026-04-12T09:54:07Z</time></trkpt><trkpt lat="43.1412963241437" lon="11.883795772566103"><ele>249.0</ele><time>2026-04-12T09:54:08Z</time></trkpt><trkpt lat="43.14126070615429" lon="11.883480005334514"><ele>249.0</ele><time>2026-04-12T09:54:09Z</time></trkpt><trkpt lat="43.141244334404085" lon="11.883151556624412"><ele>248.5</ele><time>2026-04-12T09:54:10Z</time></trkpt><trkpt lat="43.141232841124214" lon="11.882825184660183"><ele>248.0</ele><time>2026-04-12T09:54:11Z</time></trkpt><trkpt lat="43.14124212566649" lon="11.882494739974724"><ele>248.0</ele><time>2026-04-12T09:54:12Z</time></trkpt><trkpt lat="43.14127093487508" lon="11.88215731447583"><ele>248.0</ele><time>2026-04-12T09:54:13Z</time></trkpt><trkpt lat="43.14130511883447" lon="11.881823921857997"><ele>248.5</ele><time>2026-04-12T09:54:14Z</time></trkpt><trkpt lat="43.14133800612685" lon="11.881489026467218"><ele>249.0</ele><time>2026-04-12T09:54:15Z</time></trkpt><trkpt lat="43.141367640379485" lon="11.881152046457931"><ele>249.0</ele><time>2026-04-12T09:54:16Z</time></trkpt><trkpt lat="43.14139552131963" lon="11.880817587711348"><ele>249.0</ele><time>2026-04-12T09:54:17Z</time></trkpt><trkpt lat="43.14142574569866" lon="11.88048336231114"><ele>249.0</ele><time>2026-04-12T09:54:18Z</time></trkpt><trkpt lat="43.14146087132668" lon="11.880150681938172"><ele>249.0</ele><time>2026-04-12T09:54:19Z</time></trkpt><trkpt lat="43.14149765379325" lon="11.879838745782193"><ele>249.0</ele><time>2026-04-12T09:54:20Z</time></trkpt><trkpt lat="43.14153514892078" lon="11.879557486181305"><ele>249.0</ele><time>2026-04-12T09:54:21Z</time></trkpt><trkpt lat="43.14157082050852" lon="11.87928944236661"><ele>249.0</ele><time>2026-04-12T09:54:22Z</time></trkpt><trkpt lat="43.1416056402101" lon="11.879027717396825"><ele>248.66666666666669</ele><time>2026-04-12T09:54:23Z</time></trkpt><trkpt lat="43.14163872784254" lon="11.878779614821035"><ele>248.33333333333334</ele><time>2026-04-12T09:54:24Z</time></trkpt><trkpt lat="43.14167084270088" lon="11.878551426613246"><ele>248.0</ele><time>2026-04-12T09:54:25Z</time></trkpt><trkpt lat="43.141700482171466" lon="11.878339041657888"><ele>248.0</ele><time>2026-04-12T09:54:26Z</time></trkpt><trkpt lat="43.14172484116527" lon="11.878142614808201"><ele>248.0</ele><time>2026-04-12T09:54:27Z</time></trkpt><trkpt lat="43.14174863769086" lon="11.877953424195718"><ele>248.0</ele><time>2026-04-12T09:54:28Z</time></trkpt><trkpt lat="43.14177336498441" lon="11.877769628007645"><ele>248.0</ele><time>2026-04-12T09:54:29Z</time></trkpt><trkpt lat="43.141801368238596" lon="11.877576122497972"><ele>248.33333333333334</ele><time>2026-04-12T09:54:30Z</time></trkpt><trkpt lat="43.141823080518314" lon="11.87736317513442"><ele>248.66666666666669</ele><time>2026-04-12T09:54:31Z</time></trkpt><trkpt lat="43.141866877425706" lon="11.877141348909324"><ele>249.0</ele><time>2026-04-12T09:54:32Z</time></trkpt><trkpt lat="43.1418996164226" lon="11.87689607758316"><ele>249.33333333333331</ele><time>2026-04-12T09:54:33Z</time></trkpt><trkpt lat="43.14193488406634" lon="11.876630996442755"><ele>249.66666666666666</ele><time>2026-04-12T09:54:34Z</time></trkpt><trkpt lat="43.14195778513829" lon="11.876343507062538"><ele>250.0</ele><time>2026-04-12T09:54:35Z</time></trkpt><trkpt lat="43.14200264351953" lon="11.876050068926324"><ele>250.0</ele><time>2026-04-12T09:54:36Z</time></trkpt><trkpt lat="43.14204907049868" lon="11.875750339622392"><ele>250.0</ele><time>2026-04-12T09:54:37Z</time></trkpt><trkpt lat="43.14209973942312" lon="11.875444994380688"><ele>250.0</ele><time>2026-04-12T09:54:38Z</time></trkpt><trkpt lat="43.14215627332434" lon="11.875135889551347"><ele>250.0</ele><time>2026-04-12T09:54:39Z</time></trkpt><trkpt lat="43.142220659447354" lon="11.874824990017073"><ele>250.0</ele><time>2026-04-12T09:54:40Z</time></trkpt><trkpt lat="43.14228327514424" lon="11.874511097021163"><ele>250.0</ele><time>2026-04-12T09:54:41Z</time></trkpt><trkpt lat="43.14233975517858" lon="11.874184814515715"><ele>249.5</ele><time>2026-04-12T09:54:42Z</time></trkpt><trkpt lat="43.14238443088824" lon="11.873838841512036"><ele>249.0</ele><time>2026-04-12T09:54:43Z</time></trkpt><trkpt lat="43.14242656914397" lon="11.873481593956024"><ele>248.5</ele><time>2026-04-12T09:54:44Z</time></trkpt><trkpt lat="43.14246281931264" lon="11.873112578279944"><ele>248.0</ele><time>2026-04-12T09:54:45Z</time></trkpt><trkpt lat="43.142494491409074" lon="11.872753140246424"><ele>248.5</ele><time>2026-04-12T09:54:46Z</time></trkpt><trkpt lat="43.142523448419915" lon="11.872397538739396"><ele>249.0</ele><time>2026-04-12T09:54:47Z</time></trkpt><trkpt lat="43.1425513479189" lon="11.872037635412875"><ele>249.5</ele><time>2026-04-12T09:54:48Z</time></trkpt><trkpt lat="43.14258070384131" lon="11.871676602508249"><ele>250.0</ele><time>2026-04-12T09:54:49Z</time></trkpt><trkpt lat="43.14261141002681" lon="11.871312844744875"><ele>250.0</ele><time>2026-04-12T09:54:50Z</time></trkpt><trkpt lat="43.14264144966212" lon="11.870950400178376"><ele>250.0</ele><time>2026-04-12T09:54:51Z</time></trkpt><trkpt lat="43.142672786583795" lon="11.870588701677462"><ele>250.0</ele><time>2026-04-12T09:54:52Z</time></trkpt><trkpt lat="43.14270609258131" lon="11.870227775378453"><ele>250.0</ele><time>2026-04-12T09:54:53Z</time></trkpt><trkpt lat="43.142739480236685" lon="11.86986983733556"><ele>250.0</ele><time>2026-04-12T09:54:54Z</time></trkpt><trkpt lat="43.14277186579584" lon="11.86951371935806"><ele>250.0</ele><time>2026-04-12T09:54:55Z</time></trkpt><trkpt lat="43.14279938696076" lon="11.869182607371009"><ele>250.0</ele><time>2026-04-12T09:54:56Z</time></trkpt><trkpt lat="43.14282386512495" lon="11.86888287371574"><ele>250.0</ele><time>2026-04-12T09:54:57Z</time></trkpt><trkpt lat="43.14284494977701" lon="11.868610123083727"><ele>250.0</ele><time>2026-04-12T09:54:58Z</time></trkpt><trkpt lat="43.142867800158484" lon="11.868352218932943"><ele>250.66666666666666</ele><time>2026-04-12T09:54:59Z</time></trkpt><trkpt lat="43.14288637693306" lon="11.868105008448229"><ele>251.33333333333331</ele><time>2026-04-12T09:55:00Z</time></trkpt><trkpt lat="43.14289187047812" lon="11.867870811102433"><ele>252.0</ele><time>2026-04-12T09:55:01Z</time></trkpt><trkpt lat="43.14286819635393" lon="11.867636353051598"><ele>252.0</ele><time>2026-04-12T09:55:02Z</time></trkpt><trkpt lat="43.14281081081614" lon="11.867401659253282"><ele>252.0</ele><time>2026-04-12T09:55:03Z</time></trkpt><trkpt lat="43.14271584909678" lon="11.867170163769398"><ele>252.0</ele><time>2026-04-12T09:55:04.001Z</time></trkpt><trkpt lat="43.142598001799186" lon="11.866943628778168"><ele>252.0</ele><time>2026-04-12T09:55:05.001Z</time></trkpt><trkpt lat="43.142469310624314" lon="11.866710256352475"><ele>252.0</ele><time>2026-04-12T09:55:06.001Z</time></trkpt><trkpt lat="43.14234111249791" lon="11.866475428740863"><ele>252.0</ele><time>2026-04-12T09:55:07.001Z</time></trkpt><trkpt lat="43.142215503056626" lon="11.86625008003843"><ele>252.0</ele><time>2026-04-12T09:55:08.001Z</time></trkpt><trkpt lat="43.1420988491115" lon="11.86604676686549"><ele>252.0</ele><time>2026-04-12T09:55:09.001Z</time></trkpt><trkpt lat="43.14197995104141" lon="11.865870422890882"><ele>252.0</ele><time>2026-04-12T09:55:10.001Z</time></trkpt><trkpt lat="43.14182412173436" lon="11.865737122848433"><ele>252.0</ele><time>2026-04-12T09:55:11.001Z</time></trkpt><trkpt lat="43.14163886923828" lon="11.865627533984231"><ele>252.0</ele><time>2026-04-12T09:55:12.001Z</time></trkpt><trkpt lat="43.14143812447922" lon="11.86552257640692"><ele>252.0</ele><time>2026-04-12T09:55:13.001Z</time></trkpt><trkpt lat="43.14124666658973" lon="11.86538402385255"><ele>252.0</ele><time>2026-04-12T09:55:14.001Z</time></trkpt><trkpt lat="43.14106195911141" lon="11.865288460710339"><ele>252.0</ele><time>2026-04-12T09:55:15.001Z</time></trkpt><trkpt lat="43.14090873929738" lon="11.86517944041694"><ele>252.0</ele><time>2026-04-12T09:55:16.001Z</time></trkpt><trkpt lat="43.140772859347514" lon="11.865066547298337"><ele>252.0</ele><time>2026-04-12T09:55:17.001Z</time></trkpt><trkpt lat="43.140653076709036" lon="11.864946009256268"><ele>252.0</ele><time>2026-04-12T09:55:18.001Z</time></trkpt><trkpt lat="43.140544516311344" lon="11.86479176936607"><ele>252.0</ele><time>2026-04-12T09:55:19.001Z</time></trkpt><trkpt lat="43.14043787426494" lon="11.86461810365418"><ele>252.0</ele><time>2026-04-12T09:55:20.001Z</time></trkpt><trkpt lat="43.14032504345121" lon="11.864438017565284"><ele>252.0</ele><time>2026-04-12T09:55:21.001Z</time></trkpt><trkpt lat="43.1402039464584" lon="11.86426493835165"><ele>252.0</ele><time>2026-04-12T09:55:22.001Z</time></trkpt><trkpt lat="43.140072083188" lon="11.864087736749369"><ele>252.66666666666669</ele><time>2026-04-12T09:55:23.001Z</time></trkpt><trkpt lat="43.139931863362015" lon="11.863919530669165"><ele>253.33333333333334</ele><time>2026-04-12T09:55:24.001Z</time></trkpt><trkpt lat="43.139787228606615" lon="11.863751786630251"><ele>254.0</ele><time>2026-04-12T09:55:25.001Z</time></trkpt><trkpt lat="43.13964348088661" lon="11.863579594946986"><ele>254.0</ele><time>2026-04-12T09:55:26.001Z</time></trkpt><trkpt lat="43.1395026534086" lon="11.863405453983471"><ele>254.0</ele><time>2026-04-12T09:55:27.001Z</time></trkpt><trkpt lat="43.13936569277977" lon="11.863233072558932"><ele>254.0</ele><time>2026-04-12T09:55:28.001Z</time></trkpt><trkpt lat="43.139234230594006" lon="11.86307085886"><ele>254.0</ele><time>2026-04-12T09:55:29.001Z</time></trkpt><trkpt lat="43.13910927930046" lon="11.86291176704622"><ele>254.0</ele><time>2026-04-12T09:55:30.001Z</time></trkpt><trkpt lat="43.138993863010825" lon="11.862753150482945"><ele>254.0</ele><time>2026-04-12T09:55:31.001Z</time></trkpt><trkpt lat="43.13889589233129" lon="11.86258674869787"><ele>254.25</ele><time>2026-04-12T09:55:32.001Z</time></trkpt><trkpt lat="43.138816514549745" lon="11.862423439261208"><ele>254.5</ele><time>2026-04-12T09:55:33.001Z</time></trkpt><trkpt lat="43.13875395482422" lon="11.862248076909633"><ele>254.75</ele><time>2026-04-12T09:55:34.001Z</time></trkpt><trkpt lat="43.138687664583294" lon="11.862086608764795"><ele>255.0</ele><time>2026-04-12T09:55:35.001Z</time></trkpt><trkpt lat="43.138615389947596" lon="11.861913849795867"><ele>255.5</ele><time>2026-04-12T09:55:36.001Z</time></trkpt><trkpt lat="43.13854155471622" lon="11.861743480250338"><ele>256.0</ele><time>2026-04-12T09:55:37.001Z</time></trkpt><trkpt lat="43.1384658861192" lon="11.86156722493312"><ele>256.5</ele><time>2026-04-12T09:55:38.001Z</time></trkpt><trkpt lat="43.138390576310826" lon="11.861387419719895"><ele>257.0</ele><time>2026-04-12T09:55:39.001Z</time></trkpt><trkpt lat="43.13832286069166" lon="11.861209388269577"><ele>257.0</ele><time>2026-04-12T09:55:40.001Z</time></trkpt><trkpt lat="43.138268445652486" lon="11.861031362545955"><ele>257.0</ele><time>2026-04-12T09:55:41.001Z</time></trkpt><trkpt lat="43.13824744475769" lon="11.86084132947172"><ele>257.0</ele><time>2026-04-12T09:55:42.001Z</time></trkpt><trkpt lat="43.13825893254408" lon="11.860652896323527"><ele>257.0</ele><time>2026-04-12T09:55:43.001Z</time></trkpt><trkpt lat="43.138292865969156" lon="11.86046268038537"><ele>257.0</ele><time>2026-04-12T09:55:44.001Z</time></trkpt><trkpt lat="43.13833310642061" lon="11.860270903910045"><ele>257.0</ele><time>2026-04-12T09:55:45.001Z</time></trkpt><trkpt lat="43.13836823029139" lon="11.860077881897395"><ele>257.0</ele><time>2026-04-12T09:55:46.001Z</time></trkpt><trkpt lat="43.138401487639136" lon="11.859886571007701"><ele>257.0</ele><time>2026-04-12T09:55:47.001Z</time></trkpt><trkpt lat="43.13843646981423" lon="11.859695120929928"><ele>257.0</ele><time>2026-04-12T09:55:48.001Z</time></trkpt><trkpt lat="43.13847356018882" lon="11.859502969910295"><ele>257.0</ele><time>2026-04-12T09:55:49Z</time></trkpt><trkpt lat="43.13851088125684" lon="11.859312683850574"><ele>257.0</ele><time>2026-04-12T09:55:50Z</time></trkpt><trkpt lat="43.13854584631531" lon="11.859124627924823"><ele>257.0</ele><time>2026-04-12T09:55:51Z</time></trkpt><trkpt lat="43.13857585392557" lon="11.85893883566656"><ele>257.0</ele><time>2026-04-12T09:55:52Z</time></trkpt><trkpt lat="43.13859458396843" lon="11.85876165377715"><ele>257.0</ele><time>2026-04-12T09:55:53Z</time></trkpt><trkpt lat="43.13858635058579" lon="11.858584562581495"><ele>257.0</ele><time>2026-04-12T09:55:54Z</time></trkpt><trkpt lat="43.13855304140683" lon="11.858417295271133"><ele>257.0</ele><time>2026-04-12T09:55:55Z</time></trkpt><trkpt lat="43.13849683088788" lon="11.858258842062275"><ele>257.0</ele><time>2026-04-12T09:55:56Z</time></trkpt><trkpt lat="43.13843093361952" lon="11.858104910548139"><ele>257.0</ele><time>2026-04-12T09:55:57Z</time></trkpt><trkpt lat="43.13835801212175" lon="11.857961570346065"><ele>257.0</ele><time>2026-04-12T09:55:58Z</time></trkpt><trkpt lat="43.13828604126313" lon="11.857814253994158"><ele>257.0</ele><time>2026-04-12T09:55:59Z</time></trkpt><trkpt lat="43.138224671501085" lon="11.85765936630587"><ele>256.75</ele><time>2026-04-12T09:56:00Z</time></trkpt><trkpt lat="43.1381778584761" lon="11.857495223670753"><ele>256.5</ele><time>2026-04-12T09:56:01Z</time></trkpt><trkpt lat="43.138144968922354" lon="11.857322963984497"><ele>256.25</ele><time>2026-04-12T09:56:02Z</time></trkpt><trkpt lat="43.1381218359248" lon="11.85714750600005"><ele>256.0</ele><time>2026-04-12T09:56:03Z</time></trkpt><trkpt lat="43.138101853550474" lon="11.85697195457842"><ele>256.0</ele><time>2026-04-12T09:56:04Z</time></trkpt><trkpt lat="43.13808161759965" lon="11.856792421997707"><ele>256.0</ele><time>2026-04-12T09:56:05Z</time></trkpt><trkpt lat="43.13805824218577" lon="11.856614129896053"><ele>256.0</ele><time>2026-04-12T09:56:06Z</time></trkpt><trkpt lat="43.13803288116125" lon="11.856433091518275"><ele>256.0</ele><time>2026-04-12T09:56:07Z</time></trkpt><trkpt lat="43.138010746033665" lon="11.856249382446595"><ele>256.0</ele><time>2026-04-12T09:56:08Z</time></trkpt><trkpt lat="43.13798648461392" lon="11.856063426913243"><ele>256.0</ele><time>2026-04-12T09:56:09Z</time></trkpt><trkpt lat="43.137960344356664" lon="11.855878176013013"><ele>256.0</ele><time>2026-04-12T09:56:10Z</time></trkpt><trkpt lat="43.1379334741024" lon="11.855692271723251"><ele>256.0</ele><time>2026-04-12T09:56:11Z</time></trkpt><trkpt lat="43.13790681295291" lon="11.855503980984864"><ele>256.5</ele><time>2026-04-12T09:56:12Z</time></trkpt><trkpt lat="43.13788064007497" lon="11.855322225648246"><ele>257.0</ele><time>2026-04-12T09:56:13Z</time></trkpt><trkpt lat="43.13785654015471" lon="11.855143884994762"><ele>257.5</ele><time>2026-04-12T09:56:14Z</time></trkpt><trkpt lat="43.137831672114785" lon="11.854975412092426"><ele>258.0</ele><time>2026-04-12T09:56:15Z</time></trkpt><trkpt lat="43.13780629149168" lon="11.854813162871608"><ele>258.2</ele><time>2026-04-12T09:56:16Z</time></trkpt><trkpt lat="43.13778919626655" lon="11.854657349549326"><ele>258.4</ele><time>2026-04-12T09:56:17Z</time></trkpt><trkpt lat="43.13776462882888" lon="11.85451848726405"><ele>258.59999999999997</ele><time>2026-04-12T09:56:18Z</time></trkpt><trkpt lat="43.13774311212972" lon="11.854383414023946"><ele>258.8</ele><time>2026-04-12T09:56:19Z</time></trkpt><trkpt lat="43.137722406844254" lon="11.854258299499582"><ele>259.0</ele><time>2026-04-12T09:56:20Z</time></trkpt><trkpt lat="43.13770508873122" lon="11.854139443765332"><ele>259.16666666666663</ele><time>2026-04-12T09:56:21Z</time></trkpt><trkpt lat="43.13768764285655" lon="11.854024457283552"><ele>259.3333333333333</ele><time>2026-04-12T09:56:22Z</time></trkpt><trkpt lat="43.137673336775315" lon="11.853909250979576"><ele>259.5</ele><time>2026-04-12T09:56:23Z</time></trkpt><trkpt lat="43.13766058417428" lon="11.853805620764554"><ele>259.6666666666667</ele><time>2026-04-12T09:56:24Z</time></trkpt><trkpt lat="43.137652757410386" lon="11.85371643728223"><ele>259.83333333333337</ele><time>2026-04-12T09:56:25Z</time></trkpt><trkpt lat="43.13763317199673" lon="11.853558214920513"><ele>260.0</ele><time>2026-04-12T09:56:27Z</time></trkpt><trkpt lat="43.13762988114735" lon="11.853451234803531"><ele>260.1666666666667</ele><time>2026-04-12T09:56:29Z</time></trkpt><trkpt lat="43.13760219270911" lon="11.853334685088129"><ele>260.33333333333337</ele><time>2026-04-12T09:57:25.001Z</time></trkpt><trkpt lat="43.1375804334302" lon="11.85324514027436"><ele>260.5</ele><time>2026-04-12T09:57:26.001Z</time></trkpt><trkpt lat="43.13756038025814" lon="11.853127233082255"><ele>260.6666666666667</ele><time>2026-04-12T09:57:27.001Z</time></trkpt><trkpt lat="43.13753839506948" lon="11.852994015398423"><ele>260.8333333333333</ele><time>2026-04-12T09:57:28.001Z</time></trkpt><trkpt lat="43.13752199689556" lon="11.85287153552293"><ele>261.0</ele><time>2026-04-12T09:57:30.001Z</time></trkpt><trkpt lat="43.13741183073791" lon="11.852895387132353"><ele>261.0</ele><time>2026-04-12T09:57:35.001Z</time></trkpt><trkpt lat="43.13735522005949" lon="11.852978307312199"><ele>261.0</ele><time>2026-04-12T09:57:36.001Z</time></trkpt><trkpt lat="43.13729814108826" lon="11.853037314081748"><ele>261.0</ele><time>2026-04-12T09:57:37.001Z</time></trkpt><trkpt lat="43.13723850130343" lon="11.853081122232997"><ele>261.0</ele><time>2026-04-12T09:57:38.001Z</time></trkpt><trkpt lat="43.13717971700272" lon="11.853134374710047"><ele>261.0</ele><time>2026-04-12T09:57:39.001Z</time></trkpt><trkpt lat="43.137097313471415" lon="11.853220383411202"><ele>261.0</ele><time>2026-04-12T09:57:41.001Z</time></trkpt><trkpt lat="43.137054406785545" lon="11.853288870318964"><ele>261.0</ele><time>2026-04-12T09:57:42.001Z</time></trkpt><trkpt lat="43.1369997133296" lon="11.853379907076445"><ele>261.0</ele><time>2026-04-12T09:57:43.001Z</time></trkpt><trkpt lat="43.13694348895051" lon="11.85348847457969"><ele>261.0</ele><time>2026-04-12T09:57:44.001Z</time></trkpt><trkpt lat="43.13688807145256" lon="11.853606189519837"><ele>261.0</ele><time>2026-04-12T09:57:45.001Z</time></trkpt><trkpt lat="43.1368232578392" lon="11.853738690802443"><ele>261.0</ele><time>2026-04-12T09:57:46.001Z</time></trkpt><trkpt lat="43.136747669434534" lon="11.85385154907606"><ele>261.0</ele><time>2026-04-12T09:57:47.001Z</time></trkpt><trkpt lat="43.13665632455397" lon="11.853947644443439"><ele>261.0</ele><time>2026-04-12T09:57:48.001Z</time></trkpt><trkpt lat="43.13655687489557" lon="11.85402859924102"><ele>261.0</ele><time>2026-04-12T09:57:49.001Z</time></trkpt><trkpt lat="43.13646012164201" lon="11.854103221870712"><ele>261.0</ele><time>2026-04-12T09:57:50.001Z</time></trkpt><trkpt lat="43.13637240068181" lon="11.854178558197876"><ele>261.0</ele><time>2026-04-12T09:57:51.001Z</time></trkpt><trkpt lat="43.13629656004615" lon="11.85424395123645"><ele>261.0</ele><time>2026-04-12T09:57:52.001Z</time></trkpt><trkpt lat="43.13622469500054" lon="11.854304131606526"><ele>261.0</ele><time>2026-04-12T09:57:53.001Z</time></trkpt><trkpt lat="43.13616407176633" lon="11.854356296837988"><ele>261.0</ele><time>2026-04-12T09:57:54.001Z</time></trkpt><trkpt lat="43.1361058097708" lon="11.854407262326307"><ele>261.0</ele><time>2026-04-12T09:57:55Z</time></trkpt><trkpt lat="43.136048891740415" lon="11.854459189134445"><ele>261.0</ele><time>2026-04-12T09:57:57Z</time></trkpt><trkpt lat="43.135931848521196" lon="11.854562913323825"><ele>261.0</ele><time>2026-04-12T09:58:01Z</time></trkpt><trkpt lat="43.135869539933495" lon="11.854631660157258"><ele>261.0</ele><time>2026-04-12T09:58:02Z</time></trkpt><trkpt lat="43.135787881022864" lon="11.854697379735532"><ele>261.0</ele><time>2026-04-12T09:58:03Z</time></trkpt><trkpt lat="43.13570096819577" lon="11.854767189171255"><ele>261.0</ele><time>2026-04-12T09:58:04Z</time></trkpt><trkpt lat="43.13561453699975" lon="11.854834782442301"><ele>261.0</ele><time>2026-04-12T09:58:05Z</time></trkpt><trkpt lat="43.135554979595135" lon="11.854880747474127"><ele>261.0</ele><time>2026-04-12T09:58:06Z</time></trkpt><trkpt lat="43.135492381235" lon="11.854935747536187"><ele>261.0</ele><time>2026-04-12T09:58:09Z</time></trkpt><trkpt lat="43.135408622417124" lon="11.85501307687878"><ele>260.8</ele><time>2026-04-12T09:58:11Z</time></trkpt><trkpt lat="43.13534089517865" lon="11.8550747270646"><ele>260.6</ele><time>2026-04-12T09:58:12Z</time></trkpt><trkpt lat="43.13526192216688" lon="11.85514647067274"><ele>260.4</ele><time>2026-04-12T09:58:13Z</time></trkpt><trkpt lat="43.13518732501433" lon="11.855210515485012"><ele>260.2</ele><time>2026-04-12T09:58:14Z</time></trkpt><trkpt lat="43.135110794104264" lon="11.855285437300475"><ele>260.0</ele><time>2026-04-12T09:58:15Z</time></trkpt><trkpt lat="43.13502493752727" lon="11.85535313779781"><ele>260.0</ele><time>2026-04-12T09:58:16Z</time></trkpt><trkpt lat="43.134949774495155" lon="11.855445870797308"><ele>260.0</ele><time>2026-04-12T09:58:17Z</time></trkpt><trkpt lat="43.13487654455938" lon="11.855546323084047"><ele>260.0</ele><time>2026-04-12T09:58:18Z</time></trkpt><trkpt lat="43.13481194161122" lon="11.855636465782212"><ele>260.0</ele><time>2026-04-12T09:58:19Z</time></trkpt><trkpt lat="43.13476758951252" lon="11.85572391132187"><ele>260.0</ele><time>2026-04-12T09:58:20Z</time></trkpt><trkpt lat="43.1347071553203" lon="11.855786764128354"><ele>260.4</ele><time>2026-04-12T09:58:22Z</time></trkpt><trkpt lat="43.134607047944705" lon="11.855665436745587"><ele>260.8</ele><time>2026-04-12T09:58:25Z</time></trkpt><trkpt lat="43.134538263876664" lon="11.85558584958798"><ele>261.2</ele><time>2026-04-12T09:58:26Z</time></trkpt><trkpt lat="43.13446074002985" lon="11.855481591473835"><ele>261.6</ele><time>2026-04-12T09:58:27Z</time></trkpt><trkpt lat="43.13438310708641" lon="11.855379903031793"><ele>262.0</ele><time>2026-04-12T09:58:28Z</time></trkpt><trkpt lat="43.13430963367555" lon="11.855305561227752"><ele>262.0</ele><time>2026-04-12T09:58:29Z</time></trkpt><trkpt lat="43.134227497166485" lon="11.855284969461033"><ele>262.0</ele><time>2026-04-12T09:58:30Z</time></trkpt><trkpt lat="43.134138725753076" lon="11.855312260906215"><ele>262.0</ele><time>2026-04-12T09:58:31Z</time></trkpt><trkpt lat="43.13405704470236" lon="11.855379383963063"><ele>262.0</ele><time>2026-04-12T09:58:32Z</time></trkpt><trkpt lat="43.133981533407216" lon="11.855463551966217"><ele>262.0</ele><time>2026-04-12T09:58:33Z</time></trkpt><trkpt lat="43.13389279435706" lon="11.855553971114752"><ele>262.5</ele><time>2026-04-12T09:58:34Z</time></trkpt><trkpt lat="43.13378652335179" lon="11.85565175617588"><ele>263.0</ele><time>2026-04-12T09:58:35Z</time></trkpt><trkpt lat="43.13367799565022" lon="11.85575671101645"><ele>263.5</ele><time>2026-04-12T09:58:36Z</time></trkpt><trkpt lat="43.13355732346148" lon="11.855868180213196"><ele>264.0</ele><time>2026-04-12T09:58:37Z</time></trkpt><trkpt lat="43.13343502796644" lon="11.855987540351357"><ele>264.0</ele><time>2026-04-12T09:58:38Z</time></trkpt><trkpt lat="43.13330452168204" lon="11.856108263252336"><ele>264.0</ele><time>2026-04-12T09:58:39Z</time></trkpt><trkpt lat="43.13317250497732" lon="11.856237100652336"><ele>264.0</ele><time>2026-04-12T09:58:40Z</time></trkpt><trkpt lat="43.133036898243105" lon="11.856361153451607"><ele>264.3333333333333</ele><time>2026-04-12T09:58:41Z</time></trkpt><trkpt lat="43.13289912899219" lon="11.856493525402634"><ele>264.66666666666663</ele><time>2026-04-12T09:58:42Z</time></trkpt><trkpt lat="43.132757913044" lon="11.856629451821817"><ele>265.0</ele><time>2026-04-12T09:58:43Z</time></trkpt><trkpt lat="43.13261201051355" lon="11.856768992298166"><ele>264.0</ele><time>2026-04-12T09:58:44Z</time></trkpt><trkpt lat="43.132467373499885" lon="11.856908118812504"><ele>263.0</ele><time>2026-04-12T09:58:45Z</time></trkpt><trkpt lat="43.13231773822714" lon="11.857047378672451"><ele>262.0</ele><time>2026-04-12T09:58:46Z</time></trkpt><trkpt lat="43.13216729675366" lon="11.857187198936208"><ele>262.0</ele><time>2026-04-12T09:58:47Z</time></trkpt><trkpt lat="43.132013540152705" lon="11.85733073912604"><ele>262.0</ele><time>2026-04-12T09:58:48Z</time></trkpt><trkpt lat="43.131866627337956" lon="11.857469531215436"><ele>262.0</ele><time>2026-04-12T09:58:49Z</time></trkpt><trkpt lat="43.131720501879116" lon="11.857607419885193"><ele>262.0</ele><time>2026-04-12T09:58:50Z</time></trkpt><trkpt lat="43.13157543866342" lon="11.857745115292541"><ele>262.0</ele><time>2026-04-12T09:58:51Z</time></trkpt><trkpt lat="43.13142843741719" lon="11.857879400635964"><ele>262.0</ele><time>2026-04-12T09:58:52Z</time></trkpt><trkpt lat="43.13128738361494" lon="11.858009164536165"><ele>261.75</ele><time>2026-04-12T09:58:53Z</time></trkpt><trkpt lat="43.13116682429837" lon="11.858123849710752"><ele>261.5</ele><time>2026-04-12T09:58:54Z</time></trkpt><trkpt lat="43.13105682013787" lon="11.858226827182325"><ele>261.25</ele><time>2026-04-12T09:58:55Z</time></trkpt><trkpt lat="43.13096770396484" lon="11.858307191018575"><ele>261.0</ele><time>2026-04-12T09:58:56Z</time></trkpt><trkpt lat="43.13088798789116" lon="11.858346993081323"><ele>261.0</ele><time>2026-04-12T09:58:57Z</time></trkpt><trkpt lat="43.13081729422736" lon="11.858315526854172"><ele>261.0</ele><time>2026-04-12T09:58:58Z</time></trkpt><trkpt lat="43.1307611708019" lon="11.858189890785294"><ele>261.0</ele><time>2026-04-12T09:58:59Z</time></trkpt><trkpt lat="43.130706993255295" lon="11.858044081159624"><ele>261.0</ele><time>2026-04-12T09:59:00Z</time></trkpt><trkpt lat="43.130637824481155" lon="11.857865996321232"><ele>261.0</ele><time>2026-04-12T09:59:01Z</time></trkpt><trkpt lat="43.13055327033571" lon="11.857674955493286"><ele>260.75</ele><time>2026-04-12T09:59:02Z</time></trkpt><trkpt lat="43.13047379929913" lon="11.85746855537772"><ele>260.5</ele><time>2026-04-12T09:59:03Z</time></trkpt><trkpt lat="43.130401079817766" lon="11.857287704091002"><ele>260.25</ele><time>2026-04-12T09:59:04Z</time></trkpt><trkpt lat="43.13034282121148" lon="11.857132030963276"><ele>260.0</ele><time>2026-04-12T09:59:05Z</time></trkpt><trkpt lat="43.130292440264036" lon="11.857006384483846"><ele>260.0</ele><time>2026-04-12T09:59:06Z</time></trkpt><trkpt lat="43.13024778505586" lon="11.856921484939193"><ele>260.0</ele><time>2026-04-12T09:59:07Z</time></trkpt><trkpt lat="43.13021881926396" lon="11.856826017683092"><ele>260.0</ele><time>2026-04-12T09:59:09Z</time></trkpt><trkpt lat="43.130392170725834" lon="11.856649259813524"><ele>260.0</ele><time>2026-04-12T09:59:11Z</time></trkpt><trkpt lat="43.130489134147595" lon="11.856572005472392"><ele>260.4</ele><time>2026-04-12T09:59:12Z</time></trkpt><trkpt lat="43.13060394137558" lon="11.856515819828235"><ele>260.8</ele><time>2026-04-12T09:59:13Z</time></trkpt><trkpt lat="43.130709769807645" lon="11.85646530884491"><ele>261.2</ele><time>2026-04-12T09:59:14Z</time></trkpt><trkpt lat="43.130785896702214" lon="11.856453977988794"><ele>261.6</ele><time>2026-04-12T09:59:15Z</time></trkpt><trkpt lat="43.13088999781955" lon="11.856523790976008"><ele>262.0</ele><time>2026-04-12T09:59:17Z</time></trkpt><trkpt lat="43.13093574285464" lon="11.856385323206439"><ele>262.0</ele><time>2026-04-12T09:59:19Z</time></trkpt><trkpt lat="43.131023451290645" lon="11.856558296048117"><ele>262.0</ele><time>2026-04-12T09:59:20Z</time></trkpt><trkpt lat="43.13108252725572" lon="11.856484079592164"><ele>262.0</ele><time>2026-04-12T10:02:04.001Z</time></trkpt><trkpt lat="43.13113862796516" lon="11.856400634982512"><ele>262.0</ele><time>2026-04-12T10:02:05.001Z</time></trkpt><trkpt lat="43.13119158441248" lon="11.856307034777089"><ele>262.0</ele><time>2026-04-12T10:02:06.001Z</time></trkpt><trkpt lat="43.131270303484726" lon="11.856181555883524"><ele>262.0</ele><time>2026-04-12T10:02:08Z</time></trkpt><trkpt lat="43.13133894864191" lon="11.856095606535627"><ele>262.0</ele><time>2026-04-12T10:02:09Z</time></trkpt><trkpt lat="43.13143470593625" lon="11.856020089799657"><ele>262.0</ele><time>2026-04-12T10:02:10Z</time></trkpt><trkpt lat="43.13152756187172" lon="11.855932617532824"><ele>262.0</ele><time>2026-04-12T10:02:11Z</time></trkpt><trkpt lat="43.13162956255335" lon="11.855834313682404"><ele>262.0</ele><time>2026-04-12T10:02:12Z</time></trkpt><trkpt lat="43.13174111133246" lon="11.855726316617568"><ele>262.75</ele><time>2026-04-12T10:02:13Z</time></trkpt><trkpt lat="43.13184710020487" lon="11.855595455891446"><ele>263.5</ele><time>2026-04-12T10:02:14Z</time></trkpt><trkpt lat="43.13197062598261" lon="11.855487802758141"><ele>264.25</ele><time>2026-04-12T10:02:15Z</time></trkpt><trkpt lat="43.13209084559727" lon="11.855365749780153"><ele>265.0</ele><time>2026-04-12T10:02:16Z</time></trkpt><trkpt lat="43.132216908491074" lon="11.855242533233449"><ele>265.75</ele><time>2026-04-12T10:02:17Z</time></trkpt><trkpt lat="43.132351660479024" lon="11.855116076330418"><ele>266.5</ele><time>2026-04-12T10:02:18Z</time></trkpt><trkpt lat="43.132466659936135" lon="11.855005625155325"><ele>267.25</ele><time>2026-04-12T10:02:19Z</time></trkpt><trkpt lat="43.13257551446089" lon="11.85490538571384"><ele>268.0</ele><time>2026-04-12T10:02:20Z</time></trkpt><trkpt lat="43.132683550393175" lon="11.85480252646933"><ele>268.0</ele><time>2026-04-12T10:02:21Z</time></trkpt><trkpt lat="43.13279183136617" lon="11.854699147724187"><ele>268.0</ele><time>2026-04-12T10:02:22Z</time></trkpt><trkpt lat="43.13289529088476" lon="11.854597480202287"><ele>268.0</ele><time>2026-04-12T10:02:23Z</time></trkpt><trkpt lat="43.13298429531014" lon="11.85451060320341"><ele>268.0</ele><time>2026-04-12T10:02:24Z</time></trkpt><trkpt lat="43.13305955357182" lon="11.854438137469334"><ele>268.0</ele><time>2026-04-12T10:02:25Z</time></trkpt><trkpt lat="43.133123663087524" lon="11.854377037205786"><ele>268.0</ele><time>2026-04-12T10:02:26Z</time></trkpt><trkpt lat="43.133206758137305" lon="11.85429103656075"><ele>268.0</ele><time>2026-04-12T10:02:28Z</time></trkpt><trkpt lat="43.133273946479825" lon="11.854247596392312"><ele>268.0</ele><time>2026-04-12T10:02:33Z</time></trkpt><trkpt lat="43.13333788918762" lon="11.854348844860063"><ele>268.0</ele><time>2026-04-12T10:02:35Z</time></trkpt><trkpt lat="43.13340519419277" lon="11.854402817757748"><ele>268.0</ele><time>2026-04-12T10:02:36Z</time></trkpt><trkpt lat="43.133465689976525" lon="11.85449607021337"><ele>267.8</ele><time>2026-04-12T10:02:37Z</time></trkpt><trkpt lat="43.13353626575182" lon="11.854595438182908"><ele>267.6</ele><time>2026-04-12T10:02:38Z</time></trkpt><trkpt lat="43.13361322775267" lon="11.854700597057553"><ele>267.4</ele><time>2026-04-12T10:02:39Z</time></trkpt><trkpt lat="43.133686040346326" lon="11.854795391930285"><ele>267.2</ele><time>2026-04-12T10:02:40Z</time></trkpt><trkpt lat="43.1337542012116" lon="11.854882277964393"><ele>267.0</ele><time>2026-04-12T10:02:41Z</time></trkpt><trkpt lat="43.13381634280316" lon="11.854958815394134"><ele>267.0</ele><time>2026-04-12T10:02:42Z</time></trkpt><trkpt lat="43.13386843838559" lon="11.855009424336473"><ele>267.0</ele><time>2026-04-12T10:02:43Z</time></trkpt><trkpt lat="43.13393362854778" lon="11.855014261217846"><ele>267.0</ele><time>2026-04-12T10:02:44Z</time></trkpt><trkpt lat="43.13401110643073" lon="11.854997895622596"><ele>267.0</ele><time>2026-04-12T10:02:45Z</time></trkpt><trkpt lat="43.13408523155208" lon="11.855004846838328"><ele>267.0</ele><time>2026-04-12T10:02:46Z</time></trkpt><trkpt lat="43.13415308132258" lon="11.855064343107994"><ele>267.0</ele><time>2026-04-12T10:02:47Z</time></trkpt><trkpt lat="43.13418449374873" lon="11.855184415628424"><ele>265.75</ele><time>2026-04-12T10:02:48Z</time></trkpt><trkpt lat="43.134261223968316" lon="11.855327199705332"><ele>264.5</ele><time>2026-04-12T10:02:50Z</time></trkpt><trkpt lat="43.134370952599966" lon="11.855395266466262"><ele>263.25</ele><time>2026-04-12T10:02:51Z</time></trkpt><trkpt lat="43.134454340685366" lon="11.85550887792984"><ele>262.0</ele><time>2026-04-12T10:02:52Z</time></trkpt><trkpt lat="43.134535909306585" lon="11.855633428048845"><ele>262.0</ele><time>2026-04-12T10:02:53Z</time></trkpt><trkpt lat="43.13462772226594" lon="11.855757404661041"><ele>262.0</ele><time>2026-04-12T10:02:54Z</time></trkpt><trkpt lat="43.13473227277544" lon="11.855874395092249"><ele>262.0</ele><time>2026-04-12T10:02:55Z</time></trkpt><trkpt lat="43.1348286331187" lon="11.856013885976381"><ele>262.0</ele><time>2026-04-12T10:02:56Z</time></trkpt><trkpt lat="43.134916502456484" lon="11.856145308741473"><ele>261.4</ele><time>2026-04-12T10:02:57Z</time></trkpt><trkpt lat="43.13498512247467" lon="11.856256700352981"><ele>260.79999999999995</ele><time>2026-04-12T10:02:58Z</time></trkpt><trkpt lat="43.13503724773816" lon="11.856335604453557"><ele>260.2</ele><time>2026-04-12T10:02:59Z</time></trkpt><trkpt lat="43.13513861085214" lon="11.856372797092321"><ele>259.59999999999997</ele><time>2026-04-12T10:03:02Z</time></trkpt><trkpt lat="43.13521164614448" lon="11.856323986849823"><ele>259.0</ele><time>2026-04-12T10:03:03Z</time></trkpt><trkpt lat="43.13531047115561" lon="11.856217226048784"><ele>259.0</ele><time>2026-04-12T10:03:04Z</time></trkpt><trkpt lat="43.1354289118738" lon="11.856093928681595"><ele>259.0</ele><time>2026-04-12T10:03:05Z</time></trkpt><trkpt lat="43.13554027147051" lon="11.855980868990674"><ele>259.0</ele><time>2026-04-12T10:03:06Z</time></trkpt><trkpt lat="43.135629570979596" lon="11.855900837232577"><ele>259.0</ele><time>2026-04-12T10:03:07Z</time></trkpt><trkpt lat="43.13570113919211" lon="11.85585609302802"><ele>259.0</ele><time>2026-04-12T10:03:08Z</time></trkpt><trkpt lat="43.135771023098606" lon="11.855792040431622"><ele>259.0</ele><time>2026-04-12T10:03:09Z</time></trkpt><trkpt lat="43.13585848058145" lon="11.855711880613121"><ele>259.0</ele><time>2026-04-12T10:03:10Z</time></trkpt><trkpt lat="43.135960069188975" lon="11.85561851156345"><ele>259.0</ele><time>2026-04-12T10:03:11Z</time></trkpt><trkpt lat="43.13607400440823" lon="11.85550155047039"><ele>259.0</ele><time>2026-04-12T10:03:12Z</time></trkpt><trkpt lat="43.13621495872639" lon="11.855381509201996"><ele>259.0</ele><time>2026-04-12T10:03:13Z</time></trkpt><trkpt lat="43.13637099191379" lon="11.855238916786682"><ele>259.0</ele><time>2026-04-12T10:03:14Z</time></trkpt><trkpt lat="43.13651649943896" lon="11.855101191501648"><ele>259.0</ele><time>2026-04-12T10:03:15Z</time></trkpt><trkpt lat="43.13663680532282" lon="11.854990970312219"><ele>259.0</ele><time>2026-04-12T10:03:16Z</time></trkpt><trkpt lat="43.136739925940724" lon="11.854895886558216"><ele>259.0</ele><time>2026-04-12T10:03:17Z</time></trkpt><trkpt lat="43.13684601276053" lon="11.854808937087723"><ele>259.0</ele><time>2026-04-12T10:03:18Z</time></trkpt><trkpt lat="43.13695090046251" lon="11.854716825010579"><ele>259.0</ele><time>2026-04-12T10:03:19Z</time></trkpt><trkpt lat="43.13706754486127" lon="11.854615896149621"><ele>259.0</ele><time>2026-04-12T10:03:20Z</time></trkpt><trkpt lat="43.13719082195088" lon="11.854509786557568"><ele>259.0</ele><time>2026-04-12T10:03:21Z</time></trkpt><trkpt lat="43.13731355815396" lon="11.854418168235567"><ele>259.0</ele><time>2026-04-12T10:03:22Z</time></trkpt><trkpt lat="43.13740511609953" lon="11.854298667404807"><ele>259.2</ele><time>2026-04-12T10:03:23Z</time></trkpt><trkpt lat="43.137491010978806" lon="11.854216721417817"><ele>259.4</ele><time>2026-04-12T10:03:24Z</time></trkpt><trkpt lat="43.1375580144561" lon="11.854150622729671"><ele>259.6</ele><time>2026-04-12T10:03:25Z</time></trkpt><trkpt lat="43.137635197224185" lon="11.854077931711048"><ele>259.8</ele><time>2026-04-12T10:03:27Z</time></trkpt><trkpt lat="43.13771104991899" lon="11.854033525013298"><ele>260.0</ele><time>2026-04-12T10:03:31Z</time></trkpt><trkpt lat="43.13766908624943" lon="11.853838324410885"><ele>260.0</ele><time>2026-04-12T10:03:32Z</time></trkpt><trkpt lat="43.137654139131655" lon="11.853716068667275"><ele>260.0</ele><time>2026-04-12T10:03:33Z</time></trkpt><trkpt lat="43.1376275249062" lon="11.853561257246223"><ele>260.0</ele><time>2026-04-12T10:03:34Z</time></trkpt><trkpt lat="43.13759510349212" lon="11.853366954108493"><ele>260.0</ele><time>2026-04-12T10:03:35Z</time></trkpt><trkpt lat="43.13755784271228" lon="11.853145166055763"><ele>260.33333333333337</ele><time>2026-04-12T10:03:36Z</time></trkpt><trkpt lat="43.13751305476623" lon="11.852904580385513"><ele>260.6666666666667</ele><time>2026-04-12T10:03:37Z</time></trkpt><trkpt lat="43.137463227281906" lon="11.852653857086887"><ele>261.0</ele><time>2026-04-12T10:03:38Z</time></trkpt><trkpt lat="43.137408644490826" lon="11.85239478660765"><ele>260.6666666666667</ele><time>2026-04-12T10:03:39Z</time></trkpt><trkpt lat="43.13735250876577" lon="11.85213316158638"><ele>260.33333333333337</ele><time>2026-04-12T10:03:40Z</time></trkpt><trkpt lat="43.13729516649962" lon="11.851875766278017"><ele>260.0</ele><time>2026-04-12T10:03:41Z</time></trkpt><trkpt lat="43.13723363398205" lon="11.851619022803245"><ele>261.0</ele><time>2026-04-12T10:03:42Z</time></trkpt><trkpt lat="43.13716436267033" lon="11.85136920334158"><ele>262.0</ele><time>2026-04-12T10:03:43Z</time></trkpt><trkpt lat="43.13709260802724" lon="11.85114087352668"><ele>263.0</ele><time>2026-04-12T10:03:44Z</time></trkpt><trkpt lat="43.137030983150616" lon="11.850939372768526"><ele>263.2</ele><time>2026-04-12T10:03:45Z</time></trkpt><trkpt lat="43.13697655256065" lon="11.850763614897957"><ele>263.4</ele><time>2026-04-12T10:03:46Z</time></trkpt><trkpt lat="43.136934047546035" lon="11.850610941132507"><ele>263.59999999999997</ele><time>2026-04-12T10:03:47.001Z</time></trkpt><trkpt lat="43.136907717112614" lon="11.850481805918543"><ele>263.8</ele><time>2026-04-12T10:03:48.001Z</time></trkpt><trkpt lat="43.13689257983851" lon="11.850391784406112"><ele>264.0</ele><time>2026-04-12T10:03:49.001Z</time></trkpt><trkpt lat="43.13687779663313" lon="11.850266072961071"><ele>264.0</ele><time>2026-04-12T10:03:51.001Z</time></trkpt><trkpt lat="43.13687393948747" lon="11.850155244600757"><ele>264.0</ele><time>2026-04-12T10:03:53.001Z</time></trkpt><trkpt lat="43.13686666271137" lon="11.850065556486769"><ele>264.0</ele><time>2026-04-12T10:03:55.001Z</time></trkpt><trkpt lat="43.13686094189835" lon="11.849950923969136"><ele>264.0</ele><time>2026-04-12T10:03:58.001Z</time></trkpt><trkpt lat="43.13685460548366" lon="11.84984622997992"><ele>264.0</ele><time>2026-04-12T10:04:02.001Z</time></trkpt><trkpt lat="43.1368387703786" lon="11.849712136269753"><ele>264.0</ele><time>2026-04-12T10:04:23Z</time></trkpt><trkpt lat="43.13682716841488" lon="11.849608479606504"><ele>264.0</ele><time>2026-04-12T10:04:24Z</time></trkpt><trkpt lat="43.13681380562848" lon="11.849472057811901"><ele>264.0</ele><time>2026-04-12T10:04:25Z</time></trkpt><trkpt lat="43.13679931986952" lon="11.849295620135218"><ele>264.0</ele><time>2026-04-12T10:04:26Z</time></trkpt><trkpt lat="43.136781125643914" lon="11.849072109652095"><ele>264.0</ele><time>2026-04-12T10:04:27Z</time></trkpt><trkpt lat="43.136760159182046" lon="11.84880715199433"><ele>264.0</ele><time>2026-04-12T10:04:28Z</time></trkpt><trkpt lat="43.136734264890045" lon="11.848517609767232"><ele>264.0</ele><time>2026-04-12T10:04:29Z</time></trkpt><trkpt lat="43.136700782911596" lon="11.848226583497203"><ele>264.0</ele><time>2026-04-12T10:04:30Z</time></trkpt><trkpt lat="43.13666125807545" lon="11.847960060772966"><ele>263.6666666666667</ele><time>2026-04-12T10:04:31Z</time></trkpt><trkpt lat="43.1366209049286" lon="11.847711517712916"><ele>263.33333333333337</ele><time>2026-04-12T10:04:32Z</time></trkpt><trkpt lat="43.136587693811386" lon="11.847495349933888"><ele>263.0</ele><time>2026-04-12T10:04:33Z</time></trkpt><trkpt lat="43.13656791558559" lon="11.847298829612225"><ele>263.0</ele><time>2026-04-12T10:04:34Z</time></trkpt><trkpt lat="43.136565119629196" lon="11.847112126044356"><ele>263.0</ele><time>2026-04-12T10:04:35Z</time></trkpt><trkpt lat="43.136592162088135" lon="11.846927464050353"><ele>263.0</ele><time>2026-04-12T10:04:36Z</time></trkpt><trkpt lat="43.1366401244923" lon="11.846738417133105"><ele>263.0</ele><time>2026-04-12T10:04:37Z</time></trkpt><trkpt lat="43.13669804315146" lon="11.84654376444707"><ele>263.0</ele><time>2026-04-12T10:04:38Z</time></trkpt><trkpt lat="43.13675314234125" lon="11.846344132414234"><ele>263.0</ele><time>2026-04-12T10:04:39Z</time></trkpt><trkpt lat="43.13679803554539" lon="11.846137269593278"><ele>263.0</ele><time>2026-04-12T10:04:40Z</time></trkpt><trkpt lat="43.13680833063682" lon="11.845931800676887"><ele>263.0</ele><time>2026-04-12T10:04:41Z</time></trkpt><trkpt lat="43.13678100453667" lon="11.84572253710416"><ele>263.0</ele><time>2026-04-12T10:04:42Z</time></trkpt><trkpt lat="43.136722305813215" lon="11.845525180753555"><ele>263.0</ele><time>2026-04-12T10:04:43Z</time></trkpt><trkpt lat="43.13662001590678" lon="11.84533960394426"><ele>263.0</ele><time>2026-04-12T10:04:44Z</time></trkpt><trkpt lat="43.13649921590904" lon="11.84514979668437"><ele>263.0</ele><time>2026-04-12T10:04:45Z</time></trkpt><trkpt lat="43.13638790394998" lon="11.844937586213572"><ele>263.0</ele><time>2026-04-12T10:04:46Z</time></trkpt><trkpt lat="43.13627831809011" lon="11.844716289871117"><ele>263.0</ele><time>2026-04-12T10:04:47Z</time></trkpt><trkpt lat="43.13616536092498" lon="11.844491206393368"><ele>263.0</ele><time>2026-04-12T10:04:48Z</time></trkpt><trkpt lat="43.136046700874864" lon="11.84426422538023"><ele>263.0</ele><time>2026-04-12T10:04:49Z</time></trkpt><trkpt lat="43.13592854668471" lon="11.84403088214112"><ele>264.0</ele><time>2026-04-12T10:04:50Z</time></trkpt><trkpt lat="43.135810835617974" lon="11.843795537807825"><ele>265.0</ele><time>2026-04-12T10:04:51Z</time></trkpt><trkpt lat="43.13569144268428" lon="11.843559781318868"><ele>266.0</ele><time>2026-04-12T10:04:52Z</time></trkpt><trkpt lat="43.13557042338138" lon="11.84332053436349"><ele>267.6666666666667</ele><time>2026-04-12T10:04:53Z</time></trkpt><trkpt lat="43.13544960771804" lon="11.843083280965146"><ele>269.3333333333333</ele><time>2026-04-12T10:04:54Z</time></trkpt><trkpt lat="43.135328497346634" lon="11.842845384361594"><ele>271.0</ele><time>2026-04-12T10:04:55Z</time></trkpt><trkpt lat="43.13520749322567" lon="11.84260664103881"><ele>271.3333333333333</ele><time>2026-04-12T10:04:56Z</time></trkpt><trkpt lat="43.13508987491414" lon="11.842369651161933"><ele>271.6666666666667</ele><time>2026-04-12T10:04:57Z</time></trkpt><trkpt lat="43.134975079037986" lon="11.842138121554463"><ele>272.0</ele><time>2026-04-12T10:04:58Z</time></trkpt><trkpt lat="43.13486060685705" lon="11.841910163675557"><ele>273.33333333333337</ele><time>2026-04-12T10:04:59Z</time></trkpt><trkpt lat="43.134750465676476" lon="11.84168781756868"><ele>274.6666666666667</ele><time>2026-04-12T10:05:00Z</time></trkpt><trkpt lat="43.13463949408832" lon="11.841469634067893"><ele>276.0</ele><time>2026-04-12T10:05:01Z</time></trkpt><trkpt lat="43.13452994938375" lon="11.841256950073836"><ele>276.0</ele><time>2026-04-12T10:05:02Z</time></trkpt><trkpt lat="43.13441893312426" lon="11.841040562260112"><ele>276.0</ele><time>2026-04-12T10:05:03Z</time></trkpt><trkpt lat="43.13432002010077" lon="11.840841403815622"><ele>276.0</ele><time>2026-04-12T10:05:04Z</time></trkpt><trkpt lat="43.13423749294997" lon="11.840652114282499"><ele>276.6666666666667</ele><time>2026-04-12T10:05:05Z</time></trkpt><trkpt lat="43.13418376245311" lon="11.840429625900097"><ele>277.33333333333337</ele><time>2026-04-12T10:05:06Z</time></trkpt><trkpt lat="43.13417738029429" lon="11.840183022007299"><ele>278.0</ele><time>2026-04-12T10:05:07Z</time></trkpt><trkpt lat="43.13416341642129" lon="11.83992922403711"><ele>278.33333333333337</ele><time>2026-04-12T10:05:08Z</time></trkpt><trkpt lat="43.13414045650615" lon="11.839672254074776"><ele>278.6666666666667</ele><time>2026-04-12T10:05:09Z</time></trkpt><trkpt lat="43.13413313339602" lon="11.839405886767826"><ele>279.0</ele><time>2026-04-12T10:05:10Z</time></trkpt><trkpt lat="43.13411758440552" lon="11.839135787365592"><ele>280.0</ele><time>2026-04-12T10:05:11Z</time></trkpt><trkpt lat="43.134099603371055" lon="11.83886009154509"><ele>281.0</ele><time>2026-04-12T10:05:12Z</time></trkpt><trkpt lat="43.1340824325523" lon="11.838582034110004"><ele>282.0</ele><time>2026-04-12T10:05:13Z</time></trkpt><trkpt lat="43.13406673321481" lon="11.838303530356722"><ele>281.6666666666667</ele><time>2026-04-12T10:05:14Z</time></trkpt><trkpt lat="43.1340514635704" lon="11.838041795412407"><ele>281.33333333333337</ele><time>2026-04-12T10:05:15Z</time></trkpt><trkpt lat="43.13403593588698" lon="11.83780220737896"><ele>281.0</ele><time>2026-04-12T10:05:16Z</time></trkpt><trkpt lat="43.134010397540834" lon="11.837584025346874"><ele>281.0</ele><time>2026-04-12T10:05:17Z</time></trkpt><trkpt lat="43.133967043454405" lon="11.837355526731578"><ele>281.0</ele><time>2026-04-12T10:05:18Z</time></trkpt><trkpt lat="43.133898995035246" lon="11.83712023230062"><ele>281.0</ele><time>2026-04-12T10:05:19Z</time></trkpt><trkpt lat="43.13382010900724" lon="11.836891927278383"><ele>282.0</ele><time>2026-04-12T10:05:20Z</time></trkpt><trkpt lat="43.1337319735977" lon="11.836662957935548"><ele>283.0</ele><time>2026-04-12T10:05:21Z</time></trkpt><trkpt lat="43.13363863293734" lon="11.836434753502887"><ele>284.0</ele><time>2026-04-12T10:05:22Z</time></trkpt><trkpt lat="43.133548687027904" lon="11.83620244011615"><ele>284.0</ele><time>2026-04-12T10:05:23Z</time></trkpt><trkpt lat="43.13345899104881" lon="11.835971674112292"><ele>284.0</ele><time>2026-04-12T10:05:24Z</time></trkpt><trkpt lat="43.13337923657348" lon="11.835751773398837"><ele>284.0</ele><time>2026-04-12T10:05:25Z</time></trkpt><trkpt lat="43.13331598412621" lon="11.835525106300034"><ele>285.33333333333337</ele><time>2026-04-12T10:05:26Z</time></trkpt><trkpt lat="43.1332643542927" lon="11.835288725498032"><ele>286.6666666666667</ele><time>2026-04-12T10:05:27Z</time></trkpt><trkpt lat="43.133233605295835" lon="11.835045958786875"><ele>288.0</ele><time>2026-04-12T10:05:28Z</time></trkpt><trkpt lat="43.13322577434585" lon="11.83479631942986"><ele>290.0</ele><time>2026-04-12T10:05:29Z</time></trkpt><trkpt lat="43.13323968331409" lon="11.834542934860032"><ele>292.0</ele><time>2026-04-12T10:05:30Z</time></trkpt><trkpt lat="43.13325822917258" lon="11.834288911782082"><ele>294.0</ele><time>2026-04-12T10:05:31Z</time></trkpt><trkpt lat="43.133271956221876" lon="11.834030914611334"><ele>294.6666666666667</ele><time>2026-04-12T10:05:32Z</time></trkpt><trkpt lat="43.13326597597966" lon="11.833772839389674"><ele>295.33333333333337</ele><time>2026-04-12T10:05:33Z</time></trkpt><trkpt lat="43.133236199061805" lon="11.833512943475325"><ele>296.0</ele><time>2026-04-12T10:05:34Z</time></trkpt><trkpt lat="43.13319140022663" lon="11.833256142891097"><ele>296.0</ele><time>2026-04-12T10:05:35Z</time></trkpt><trkpt lat="43.133139956997006" lon="11.833010003412406"><ele>296.0</ele><time>2026-04-12T10:05:36Z</time></trkpt><trkpt lat="43.13308877094035" lon="11.832786703726857"><ele>296.0</ele><time>2026-04-12T10:05:37Z</time></trkpt><trkpt lat="43.13304550485615" lon="11.832571753513617"><ele>297.0</ele><time>2026-04-12T10:05:38Z</time></trkpt><trkpt lat="43.1330183517963" lon="11.832347348148863"><ele>298.0</ele><time>2026-04-12T10:05:39Z</time></trkpt><trkpt lat="43.13302030812754" lon="11.832121158346348"><ele>299.0</ele><time>2026-04-12T10:05:40Z</time></trkpt><trkpt lat="43.132987944111086" lon="11.831900760853108"><ele>300.5</ele><time>2026-04-12T10:05:41Z</time></trkpt><trkpt lat="43.13297181737639" lon="11.831678980538028"><ele>302.0</ele><time>2026-04-12T10:05:42Z</time></trkpt><trkpt lat="43.13295670460047" lon="11.831487357037329"><ele>303.5</ele><time>2026-04-12T10:05:43Z</time></trkpt><trkpt lat="43.13293799717519" lon="11.83131222310743"><ele>305.0</ele><time>2026-04-12T10:05:44Z</time></trkpt><trkpt lat="43.132918879998954" lon="11.83114395159695"><ele>305.0</ele><time>2026-04-12T10:05:45Z</time></trkpt><trkpt lat="43.13288752702671" lon="11.830995142611059"><ele>305.0</ele><time>2026-04-12T10:05:46Z</time></trkpt><trkpt lat="43.13284462640641" lon="11.830846003281906"><ele>305.0</ele><time>2026-04-12T10:05:47Z</time></trkpt><trkpt lat="43.132800784760796" lon="11.830699831548745"><ele>305.0</ele><time>2026-04-12T10:05:48Z</time></trkpt><trkpt lat="43.13278610712546" lon="11.830548675673832"><ele>305.25</ele><time>2026-04-12T10:05:49Z</time></trkpt><trkpt lat="43.13275420091669" lon="11.830403027989743"><ele>305.5</ele><time>2026-04-12T10:05:50Z</time></trkpt><trkpt lat="43.13269975191119" lon="11.830261930611993"><ele>305.75</ele><time>2026-04-12T10:05:51Z</time></trkpt><trkpt lat="43.132649969556326" lon="11.830120282587758"><ele>306.0</ele><time>2026-04-12T10:05:52Z</time></trkpt><trkpt lat="43.13258433556043" lon="11.829981166964256"><ele>306.0</ele><time>2026-04-12T10:05:53Z</time></trkpt><trkpt lat="43.132526003199565" lon="11.829847780048846"><ele>306.0</ele><time>2026-04-12T10:05:54Z</time></trkpt><trkpt lat="43.13246410517938" lon="11.829711789303063"><ele>306.0</ele><time>2026-04-12T10:05:55Z</time></trkpt><trkpt lat="43.13240532430926" lon="11.829574091188986"><ele>306.0</ele><time>2026-04-12T10:05:56Z</time></trkpt><trkpt lat="43.132353983556854" lon="11.829436893570204"><ele>304.6</ele><time>2026-04-12T10:05:57Z</time></trkpt><trkpt lat="43.13230258609082" lon="11.829293985796818"><ele>303.20000000000005</ele><time>2026-04-12T10:05:58Z</time></trkpt><trkpt lat="43.13225328364342" lon="11.829157173494988"><ele>301.79999999999995</ele><time>2026-04-12T10:05:59Z</time></trkpt><trkpt lat="43.132206147289864" lon="11.82902929398353"><ele>300.4</ele><time>2026-04-12T10:06:00Z</time></trkpt><trkpt lat="43.132166057382506" lon="11.828910387159155"><ele>299.0</ele><time>2026-04-12T10:06:01Z</time></trkpt><trkpt lat="43.13213452548457" lon="11.828813403045682"><ele>299.0</ele><time>2026-04-12T10:06:02Z</time></trkpt><trkpt lat="43.132124041824035" lon="11.828696318071575"><ele>299.0</ele><time>2026-04-12T10:06:04Z</time></trkpt><trkpt lat="43.132140334556006" lon="11.828605630067454"><ele>299.0</ele><time>2026-04-12T10:06:34.999Z</time></trkpt><trkpt lat="43.132295530020734" lon="11.828474358458429"><ele>299.0</ele><time>2026-04-12T10:06:36.999Z</time></trkpt><trkpt lat="43.13243656652695" lon="11.828359263429906"><ele>296.6666666666667</ele><time>2026-04-12T10:06:37.999Z</time></trkpt><trkpt lat="43.132616763866736" lon="11.828214317150438"><ele>294.3333333333333</ele><time>2026-04-12T10:06:38.999Z</time></trkpt><trkpt lat="43.132815091985165" lon="11.828056637581806"><ele>292.0</ele><time>2026-04-12T10:06:39.999Z</time></trkpt><trkpt lat="43.13301632086159" lon="11.827900716805805"><ele>292.0</ele><time>2026-04-12T10:06:40.999Z</time></trkpt><trkpt lat="43.133218371544906" lon="11.82773868253822"><ele>292.0</ele><time>2026-04-12T10:06:41.999Z</time></trkpt><trkpt lat="43.13340285892564" lon="11.827564892536593"><ele>287.5</ele><time>2026-04-12T10:06:42.999Z</time></trkpt><trkpt lat="43.13360757405235" lon="11.827426890248514"><ele>283.0</ele><time>2026-04-12T10:06:43.999Z</time></trkpt><trkpt lat="43.13380734840279" lon="11.827265296296043"><ele>283.0</ele><time>2026-04-12T10:06:44.999Z</time></trkpt><trkpt lat="43.13400057467392" lon="11.827080939028004"><ele>283.0</ele><time>2026-04-12T10:06:45.999Z</time></trkpt><trkpt lat="43.134206349893795" lon="11.826920444119555"><ele>278.0</ele><time>2026-04-12T10:06:46.999Z</time></trkpt><trkpt lat="43.13441313909965" lon="11.826758632858223"><ele>273.0</ele><time>2026-04-12T10:06:47.999Z</time></trkpt><trkpt lat="43.13462064383755" lon="11.826593816827776"><ele>273.0</ele><time>2026-04-12T10:06:48.999Z</time></trkpt><trkpt lat="43.13482489215302" lon="11.826434113026053"><ele>273.0</ele><time>2026-04-12T10:06:50Z</time></trkpt><trkpt lat="43.135023578519714" lon="11.82626706244"><ele>272.0</ele><time>2026-04-12T10:06:51Z</time></trkpt><trkpt lat="43.135222571783714" lon="11.826101417081441"><ele>271.0</ele><time>2026-04-12T10:06:52Z</time></trkpt><trkpt lat="43.13543432321579" lon="11.825959279927083"><ele>270.3333333333333</ele><time>2026-04-12T10:06:53Z</time></trkpt><trkpt lat="43.135628082509456" lon="11.825804109847784"><ele>269.6666666666667</ele><time>2026-04-12T10:06:54Z</time></trkpt><trkpt lat="43.135818921450664" lon="11.825650765818674"><ele>269.0</ele><time>2026-04-12T10:06:55Z</time></trkpt><trkpt lat="43.136006427235074" lon="11.825484742279578"><ele>268.33333333333337</ele><time>2026-04-12T10:06:56Z</time></trkpt><trkpt lat="43.136207200219054" lon="11.825350108007571"><ele>267.6666666666667</ele><time>2026-04-12T10:06:57Z</time></trkpt><trkpt lat="43.136420248341445" lon="11.825262647411876"><ele>267.0</ele><time>2026-04-12T10:06:58Z</time></trkpt><trkpt lat="43.13662792874723" lon="11.825149970723631"><ele>266.6666666666667</ele><time>2026-04-12T10:06:59Z</time></trkpt><trkpt lat="43.13683931813418" lon="11.825058741463948"><ele>266.33333333333337</ele><time>2026-04-12T10:07:00Z</time></trkpt><trkpt lat="43.13704369320062" lon="11.824938722931197"><ele>266.0</ele><time>2026-04-12T10:07:01Z</time></trkpt><trkpt lat="43.13723494347799" lon="11.824789831884182"><ele>266.33333333333337</ele><time>2026-04-12T10:07:02Z</time></trkpt><trkpt lat="43.137412682966826" lon="11.824613604311537"><ele>266.6666666666667</ele><time>2026-04-12T10:07:03Z</time></trkpt><trkpt lat="43.137574820778454" lon="11.824420786976814"><ele>267.0</ele><time>2026-04-12T10:07:04Z</time></trkpt><trkpt lat="43.137724834485624" lon="11.824212622007991"><ele>267.3333333333333</ele><time>2026-04-12T10:07:05Z</time></trkpt><trkpt lat="43.13785693004375" lon="11.823975497688187"><ele>267.66666666666663</ele><time>2026-04-12T10:07:06Z</time></trkpt><trkpt lat="43.137979424062635" lon="11.823729225042433"><ele>268.0</ele><time>2026-04-12T10:07:07Z</time></trkpt><trkpt lat="43.13810508986159" lon="11.82349284275747"><ele>266.0</ele><time>2026-04-12T10:07:08Z</time></trkpt><trkpt lat="43.13825364003598" lon="11.823266237858446"><ele>264.0</ele><time>2026-04-12T10:07:09Z</time></trkpt><trkpt lat="43.13841369467273" lon="11.823039331247822"><ele>264.0</ele><time>2026-04-12T10:07:10Z</time></trkpt><trkpt lat="43.13857713830093" lon="11.82280891315029"><ele>264.0</ele><time>2026-04-12T10:07:11Z</time></trkpt><trkpt lat="43.13874307014489" lon="11.822575190653513"><ele>264.0</ele><time>2026-04-12T10:07:12Z</time></trkpt><trkpt lat="43.138911119091595" lon="11.822343963399577"><ele>264.0</ele><time>2026-04-12T10:07:13Z</time></trkpt><trkpt lat="43.13908153480571" lon="11.822114667715418"><ele>264.0</ele><time>2026-04-12T10:07:14Z</time></trkpt><trkpt lat="43.13925290276583" lon="11.821887009525032"><ele>264.0</ele><time>2026-04-12T10:07:15Z</time></trkpt><trkpt lat="43.13941719059331" lon="11.821665810515835"><ele>264.0</ele><time>2026-04-12T10:07:16Z</time></trkpt><trkpt lat="43.13957691096801" lon="11.821449594970199"><ele>264.0</ele><time>2026-04-12T10:07:17Z</time></trkpt><trkpt lat="43.13973641940943" lon="11.821236820366137"><ele>264.0</ele><time>2026-04-12T10:07:18Z</time></trkpt><trkpt lat="43.1398940073649" lon="11.821025941674812"><ele>265.3333333333333</ele><time>2026-04-12T10:07:19Z</time></trkpt><trkpt lat="43.14004694318653" lon="11.820816306509169"><ele>266.66666666666663</ele><time>2026-04-12T10:07:20Z</time></trkpt><trkpt lat="43.14019858695373" lon="11.820611335809401"><ele>268.0</ele><time>2026-04-12T10:07:21Z</time></trkpt><trkpt lat="43.140349988841464" lon="11.820413936089496"><ele>268.0</ele><time>2026-04-12T10:07:22Z</time></trkpt><trkpt lat="43.14050349637422" lon="11.820224076013918"><ele>268.0</ele><time>2026-04-12T10:07:23Z</time></trkpt><trkpt lat="43.14065110239157" lon="11.8200360118682"><ele>268.0</ele><time>2026-04-12T10:07:24Z</time></trkpt><trkpt lat="43.14079432545881" lon="11.819859716716408"><ele>271.3333333333333</ele><time>2026-04-12T10:07:25Z</time></trkpt><trkpt lat="43.14092635959743" lon="11.81971068871881"><ele>274.6666666666667</ele><time>2026-04-12T10:07:26Z</time></trkpt><trkpt lat="43.14104684818491" lon="11.819571557413008"><ele>278.0</ele><time>2026-04-12T10:07:27Z</time></trkpt><trkpt lat="43.14116849410244" lon="11.819427750881658"><ele>279.0</ele><time>2026-04-12T10:07:28Z</time></trkpt><trkpt lat="43.14129181785202" lon="11.819282951779861"><ele>280.0</ele><time>2026-04-12T10:07:29Z</time></trkpt><trkpt lat="43.14141468657123" lon="11.819140689931402"><ele>281.0</ele><time>2026-04-12T10:07:30Z</time></trkpt><trkpt lat="43.14153720670437" lon="11.819004010307603"><ele>281.6666666666667</ele><time>2026-04-12T10:07:31Z</time></trkpt><trkpt lat="43.14165949841569" lon="11.818871219609605"><ele>282.3333333333333</ele><time>2026-04-12T10:07:32Z</time></trkpt><trkpt lat="43.141782642532036" lon="11.818735309775105"><ele>283.0</ele><time>2026-04-12T10:07:33Z</time></trkpt><trkpt lat="43.14190618717909" lon="11.818595249069297"><ele>284.0</ele><time>2026-04-12T10:07:34Z</time></trkpt><trkpt lat="43.142029204956366" lon="11.818454450305445"><ele>285.0</ele><time>2026-04-12T10:07:35Z</time></trkpt><trkpt lat="43.14213976635161" lon="11.818320257699071"><ele>286.0</ele><time>2026-04-12T10:07:36Z</time></trkpt><trkpt lat="43.14223320712028" lon="11.818203578775295"><ele>287.0</ele><time>2026-04-12T10:07:37Z</time></trkpt><trkpt lat="43.14230519344716" lon="11.818108106899613"><ele>287.0</ele><time>2026-04-12T10:07:38Z</time></trkpt><trkpt lat="43.14235111123652" lon="11.818043451894688"><ele>287.0</ele><time>2026-04-12T10:07:40Z</time></trkpt><trkpt lat="43.14243696037517" lon="11.817910765632426"><ele>287.0</ele><time>2026-04-12T10:07:43Z</time></trkpt><trkpt lat="43.14250934385551" lon="11.817799449582253"><ele>287.0</ele><time>2026-04-12T10:07:44Z</time></trkpt><trkpt lat="43.142580079879" lon="11.817625477425576"><ele>287.0</ele><time>2026-04-12T10:07:45Z</time></trkpt><trkpt lat="43.14263574873649" lon="11.81739263150982"><ele>288.6666666666667</ele><time>2026-04-12T10:07:46Z</time></trkpt><trkpt lat="43.14267257449339" lon="11.817112836704199"><ele>290.3333333333333</ele><time>2026-04-12T10:07:47Z</time></trkpt><trkpt lat="43.14269717801626" lon="11.816812563792464"><ele>292.0</ele><time>2026-04-12T10:07:48Z</time></trkpt><trkpt lat="43.14271274259289" lon="11.816541673290788"><ele>292.0</ele><time>2026-04-12T10:07:49Z</time></trkpt><trkpt lat="43.14272486151367" lon="11.816278915607104"><ele>292.0</ele><time>2026-04-12T10:07:50Z</time></trkpt><trkpt lat="43.14271899316745" lon="11.816031826501334"><ele>292.0</ele><time>2026-04-12T10:07:51Z</time></trkpt><trkpt lat="43.142692842809495" lon="11.815785014116273"><ele>292.0</ele><time>2026-04-12T10:07:52Z</time></trkpt><trkpt lat="43.14266155069625" lon="11.815541416148786"><ele>292.0</ele><time>2026-04-12T10:07:53Z</time></trkpt><trkpt lat="43.142662440341695" lon="11.815286480092611"><ele>292.0</ele><time>2026-04-12T10:07:54Z</time></trkpt><trkpt lat="43.142714463028895" lon="11.815011090909183"><ele>291.3333333333333</ele><time>2026-04-12T10:07:55Z</time></trkpt><trkpt lat="43.142793198347505" lon="11.814724530676804"><ele>290.6666666666667</ele><time>2026-04-12T10:07:56Z</time></trkpt><trkpt lat="43.142878880828285" lon="11.814438666342719"><ele>290.0</ele><time>2026-04-12T10:07:57Z</time></trkpt><trkpt lat="43.14295490841789" lon="11.814159602031921"><ele>290.0</ele><time>2026-04-12T10:07:58Z</time></trkpt><trkpt lat="43.143011562094614" lon="11.813894215857982"><ele>290.0</ele><time>2026-04-12T10:07:59Z</time></trkpt><trkpt lat="43.14305347715963" lon="11.813632166433754"><ele>290.0</ele><time>2026-04-12T10:08:00Z</time></trkpt><trkpt lat="43.1430807362861" lon="11.813371982276571"><ele>290.0</ele><time>2026-04-12T10:08:01Z</time></trkpt><trkpt lat="43.14309963511368" lon="11.813124050566158"><ele>290.0</ele><time>2026-04-12T10:08:02Z</time></trkpt><trkpt lat="43.14312628447632" lon="11.812880737606918"><ele>290.0</ele><time>2026-04-12T10:08:03Z</time></trkpt><trkpt lat="43.143156816979975" lon="11.812639196754782"><ele>289.6666666666667</ele><time>2026-04-12T10:08:04Z</time></trkpt><trkpt lat="43.14319100334981" lon="11.812401276088638"><ele>289.3333333333333</ele><time>2026-04-12T10:08:05Z</time></trkpt><trkpt lat="43.14322994330868" lon="11.812170766932367"><ele>289.0</ele><time>2026-04-12T10:08:06Z</time></trkpt><trkpt lat="43.143275035504814" lon="11.811939481250734"><ele>288.3333333333333</ele><time>2026-04-12T10:08:07Z</time></trkpt><trkpt lat="43.143320980819894" lon="11.81171397043647"><ele>287.6666666666667</ele><time>2026-04-12T10:08:08Z</time></trkpt><trkpt lat="43.143363746770916" lon="11.811489960191999"><ele>287.0</ele><time>2026-04-12T10:08:09Z</time></trkpt><trkpt lat="43.14341125372727" lon="11.811262048252047"><ele>287.0</ele><time>2026-04-12T10:08:10Z</time></trkpt><trkpt lat="43.143459616216305" lon="11.811037440777147"><ele>287.0</ele><time>2026-04-12T10:08:11Z</time></trkpt><trkpt lat="43.14350789634393" lon="11.810816356341023"><ele>287.0</ele><time>2026-04-12T10:08:12Z</time></trkpt><trkpt lat="43.143554692814455" lon="11.810601028708945"><ele>287.0</ele><time>2026-04-12T10:08:13Z</time></trkpt><trkpt lat="43.14359547966034" lon="11.810400518887477"><ele>287.0</ele><time>2026-04-12T10:08:14Z</time></trkpt><trkpt lat="43.143635365164656" lon="11.810196524733726"><ele>287.0</ele><time>2026-04-12T10:08:15Z</time></trkpt><trkpt lat="43.143674070287894" lon="11.810007895214136"><ele>287.0</ele><time>2026-04-12T10:08:16Z</time></trkpt><trkpt lat="43.143718755625784" lon="11.809827539101018"><ele>287.75</ele><time>2026-04-12T10:08:17Z</time></trkpt><trkpt lat="43.1437728592493" lon="11.809654774629712"><ele>288.5</ele><time>2026-04-12T10:08:18Z</time></trkpt><trkpt lat="43.14384302073295" lon="11.809497061262377"><ele>289.25</ele><time>2026-04-12T10:08:19Z</time></trkpt><trkpt lat="43.14392991999778" lon="11.809354707448279"><ele>290.0</ele><time>2026-04-12T10:08:20Z</time></trkpt><trkpt lat="43.144034791828005" lon="11.809223648464995"><ele>289.75</ele><time>2026-04-12T10:08:21Z</time></trkpt><trkpt lat="43.14414384360106" lon="11.809096187219764"><ele>289.5</ele><time>2026-04-12T10:08:22Z</time></trkpt><trkpt lat="43.144256067458535" lon="11.808975626584461"><ele>289.25</ele><time>2026-04-12T10:08:23Z</time></trkpt><trkpt lat="43.144369079202406" lon="11.808853515931874"><ele>289.0</ele><time>2026-04-12T10:08:24Z</time></trkpt><trkpt lat="43.14448329029828" lon="11.808735206092754"><ele>289.0</ele><time>2026-04-12T10:08:24.999Z</time></trkpt><trkpt lat="43.144598885617654" lon="11.808622512092414"><ele>289.0</ele><time>2026-04-12T10:08:25.999Z</time></trkpt><trkpt lat="43.144714711668435" lon="11.80851585611557"><ele>289.0</ele><time>2026-04-12T10:08:26.999Z</time></trkpt><trkpt lat="43.14482805304928" lon="11.808403012115468"><ele>289.0</ele><time>2026-04-12T10:08:27.999Z</time></trkpt><trkpt lat="43.144943938344355" lon="11.808288646719777"><ele>290.75</ele><time>2026-04-12T10:08:28.999Z</time></trkpt><trkpt lat="43.14506374864268" lon="11.808174543860527"><ele>292.5</ele><time>2026-04-12T10:08:29.999Z</time></trkpt><trkpt lat="43.145185650237416" lon="11.808058561330755"><ele>294.25</ele><time>2026-04-12T10:08:30.999Z</time></trkpt><trkpt lat="43.14530951760799" lon="11.807940058100453"><ele>296.0</ele><time>2026-04-12T10:08:31.999Z</time></trkpt><trkpt lat="43.14543420472675" lon="11.807819993021338"><ele>296.0</ele><time>2026-04-12T10:08:32.999Z</time></trkpt><trkpt lat="43.14555576095071" lon="11.807679017833255"><ele>296.0</ele><time>2026-04-12T10:08:33.999Z</time></trkpt><trkpt lat="43.145665019929055" lon="11.807516553122463"><ele>296.0</ele><time>2026-04-12T10:08:34.999Z</time></trkpt><trkpt lat="43.14575281547138" lon="11.80733011488039"><ele>295.0</ele><time>2026-04-12T10:08:35.999Z</time></trkpt><trkpt lat="43.145817298660305" lon="11.807135249744197"><ele>294.0</ele><time>2026-04-12T10:08:36.999Z</time></trkpt><trkpt lat="43.145856838760295" lon="11.806921290099261"><ele>293.0</ele><time>2026-04-12T10:08:37.999Z</time></trkpt><trkpt lat="43.14586892846241" lon="11.806713090270263"><ele>293.0</ele><time>2026-04-12T10:08:38.999Z</time></trkpt><trkpt lat="43.14589197704735" lon="11.806534553586808"><ele>293.0</ele><time>2026-04-12T10:08:39.999Z</time></trkpt><trkpt lat="43.145945871269554" lon="11.806371326449511"><ele>293.0</ele><time>2026-04-12T10:08:40.999Z</time></trkpt><trkpt lat="43.14606663338915" lon="11.80623458027059"><ele>293.0</ele><time>2026-04-12T10:08:41.999Z</time></trkpt><trkpt lat="43.14617097968548" lon="11.806065084435565"><ele>292.6666666666667</ele><time>2026-04-12T10:08:42.999Z</time></trkpt><trkpt lat="43.14628316378993" lon="11.805906859328166"><ele>292.3333333333333</ele><time>2026-04-12T10:08:43.999Z</time></trkpt><trkpt lat="43.14638434288723" lon="11.80575462880216"><ele>292.0</ele><time>2026-04-12T10:08:44.999Z</time></trkpt><trkpt lat="43.1464803087372" lon="11.805598994920809"><ele>292.66666666666663</ele><time>2026-04-12T10:08:45.999Z</time></trkpt><trkpt lat="43.14657138865804" lon="11.805435262408615"><ele>293.3333333333333</ele><time>2026-04-12T10:08:46.999Z</time></trkpt><trkpt lat="43.14663974577369" lon="11.805241829148219"><ele>294.0</ele><time>2026-04-12T10:08:47.999Z</time></trkpt><trkpt lat="43.14667297414477" lon="11.805009628093412"><ele>294.0</ele><time>2026-04-12T10:08:48.999Z</time></trkpt><trkpt lat="43.14669043113338" lon="11.804760687343137"><ele>294.0</ele><time>2026-04-12T10:08:49.999Z</time></trkpt><trkpt lat="43.14671153432076" lon="11.804509250333298"><ele>294.0</ele><time>2026-04-12T10:08:50.999Z</time></trkpt><trkpt lat="43.146746469320384" lon="11.804263623950366"><ele>293.6666666666667</ele><time>2026-04-12T10:08:51.999Z</time></trkpt><trkpt lat="43.14679814833945" lon="11.804027614128785"><ele>293.33333333333337</ele><time>2026-04-12T10:08:52.999Z</time></trkpt><trkpt lat="43.146855186990415" lon="11.803807097144443"><ele>293.0</ele><time>2026-04-12T10:08:53.999Z</time></trkpt><trkpt lat="43.14690994947517" lon="11.8035863514167"><ele>292.6666666666667</ele><time>2026-04-12T10:08:55Z</time></trkpt><trkpt lat="43.14696319343409" lon="11.803370191374194"><ele>292.3333333333333</ele><time>2026-04-12T10:08:56Z</time></trkpt><trkpt lat="43.147015559738904" lon="11.803152537448094"><ele>292.0</ele><time>2026-04-12T10:08:57Z</time></trkpt><trkpt lat="43.14707160517912" lon="11.80292977611242"><ele>292.0</ele><time>2026-04-12T10:08:58Z</time></trkpt><trkpt lat="43.14712972823473" lon="11.802716684472978"><ele>292.0</ele><time>2026-04-12T10:08:59Z</time></trkpt><trkpt lat="43.14719299161009" lon="11.802500751047262"><ele>292.0</ele><time>2026-04-12T10:09:00Z</time></trkpt><trkpt lat="43.14726442352019" lon="11.802284996002669"><ele>292.0</ele><time>2026-04-12T10:09:01Z</time></trkpt><trkpt lat="43.14734089117541" lon="11.802066956306968"><ele>292.0</ele><time>2026-04-12T10:09:02Z</time></trkpt><trkpt lat="43.14741674265404" lon="11.801849141893042"><ele>292.0</ele><time>2026-04-12T10:09:03Z</time></trkpt><trkpt lat="43.1474940983502" lon="11.80162571977562"><ele>293.0</ele><time>2026-04-12T10:09:04Z</time></trkpt><trkpt lat="43.147566182128415" lon="11.801400185996387"><ele>294.0</ele><time>2026-04-12T10:09:05Z</time></trkpt><trkpt lat="43.14763406970389" lon="11.801174214241174"><ele>295.0</ele><time>2026-04-12T10:09:06Z</time></trkpt><trkpt lat="43.147690778158584" lon="11.800939687027439"><ele>295.3333333333333</ele><time>2026-04-12T10:09:07Z</time></trkpt><trkpt lat="43.14772800742519" lon="11.800695442487731"><ele>295.6666666666667</ele><time>2026-04-12T10:09:08Z</time></trkpt><trkpt lat="43.14775455152577" lon="11.800443933824193"><ele>296.0</ele><time>2026-04-12T10:09:09Z</time></trkpt><trkpt lat="43.147780883583515" lon="11.800194523225723"><ele>294.6666666666667</ele><time>2026-04-12T10:09:10Z</time></trkpt><trkpt lat="43.14780698031656" lon="11.799959471035205"><ele>293.3333333333333</ele><time>2026-04-12T10:09:11Z</time></trkpt><trkpt lat="43.14782721680674" lon="11.79974222698095"><ele>292.0</ele><time>2026-04-12T10:09:12Z</time></trkpt><trkpt lat="43.14783010572405" lon="11.79952058509404"><ele>291.75</ele><time>2026-04-12T10:09:13Z</time></trkpt><trkpt lat="43.14779584672783" lon="11.79930878755511"><ele>291.5</ele><time>2026-04-12T10:09:14Z</time></trkpt><trkpt lat="43.14775622943325" lon="11.799108230278764"><ele>291.25</ele><time>2026-04-12T10:09:15Z</time></trkpt><trkpt lat="43.147729829989515" lon="11.798923398422776"><ele>291.0</ele><time>2026-04-12T10:09:16Z</time></trkpt><trkpt lat="43.14773071036761" lon="11.798728817796626"><ele>291.0</ele><time>2026-04-12T10:09:17Z</time></trkpt><trkpt lat="43.14778221653098" lon="11.798529117689275"><ele>291.0</ele><time>2026-04-12T10:09:18Z</time></trkpt><trkpt lat="43.14785197438687" lon="11.798329876324692"><ele>291.0</ele><time>2026-04-12T10:09:19Z</time></trkpt><trkpt lat="43.14793962434876" lon="11.798124993731069"><ele>290.6666666666667</ele><time>2026-04-12T10:09:20Z</time></trkpt><trkpt lat="43.14802089823828" lon="11.797914834588648"><ele>290.33333333333337</ele><time>2026-04-12T10:09:21Z</time></trkpt><trkpt lat="43.148117197642605" lon="11.797716507472074"><ele>290.0</ele><time>2026-04-12T10:09:22Z</time></trkpt><trkpt lat="43.14821399874582" lon="11.797521606224361"><ele>290.0</ele><time>2026-04-12T10:09:23Z</time></trkpt><trkpt lat="43.14832638766589" lon="11.797327319965538"><ele>290.0</ele><time>2026-04-12T10:09:24Z</time></trkpt><trkpt lat="43.14847447718783" lon="11.797169309068686"><ele>290.0</ele><time>2026-04-12T10:09:25Z</time></trkpt><trkpt lat="43.14861752492581" lon="11.796984522409058"><ele>290.6666666666667</ele><time>2026-04-12T10:09:26Z</time></trkpt><trkpt lat="43.148773473939166" lon="11.796821573734416"><ele>291.3333333333333</ele><time>2026-04-12T10:09:27Z</time></trkpt><trkpt lat="43.148923746604076" lon="11.796660558409199"><ele>292.0</ele><time>2026-04-12T10:09:28Z</time></trkpt><trkpt lat="43.1490773040585" lon="11.796495742049766"><ele>292.0</ele><time>2026-04-12T10:09:29Z</time></trkpt><trkpt lat="43.14922500655218" lon="11.79634525117795"><ele>292.0</ele><time>2026-04-12T10:09:30Z</time></trkpt><trkpt lat="43.14938032276856" lon="11.796196496600313"><ele>292.0</ele><time>2026-04-12T10:09:31Z</time></trkpt><trkpt lat="43.1495376221578" lon="11.796059586481817"><ele>291.66666666666663</ele><time>2026-04-12T10:09:32Z</time></trkpt><trkpt lat="43.149699884763066" lon="11.795929617388966"><ele>291.3333333333333</ele><time>2026-04-12T10:09:33Z</time></trkpt><trkpt lat="43.14987062516918" lon="11.795805797613802"><ele>291.0</ele><time>2026-04-12T10:09:34Z</time></trkpt><trkpt lat="43.150041640497044" lon="11.79568072206549"><ele>291.0</ele><time>2026-04-12T10:09:35Z</time></trkpt><trkpt lat="43.15021384246712" lon="11.795555889180912"><ele>291.0</ele><time>2026-04-12T10:09:36Z</time></trkpt><trkpt lat="43.150383635931945" lon="11.795425824245955"><ele>291.0</ele><time>2026-04-12T10:09:37Z</time></trkpt><trkpt lat="43.15055296158455" lon="11.795284966085413"><ele>288.6666666666667</ele><time>2026-04-12T10:09:38Z</time></trkpt><trkpt lat="43.1507256751743" lon="11.795133917596166"><ele>286.33333333333337</ele><time>2026-04-12T10:09:39Z</time></trkpt><trkpt lat="43.150887570391504" lon="11.794957605258778"><ele>284.0</ele><time>2026-04-12T10:09:40Z</time></trkpt><trkpt lat="43.15103300517508" lon="11.794768003144336"><ele>284.0</ele><time>2026-04-12T10:09:41Z</time></trkpt><trkpt lat="43.1511747132468" lon="11.794581416346086"><ele>284.0</ele><time>2026-04-12T10:09:42Z</time></trkpt><trkpt lat="43.1513222010112" lon="11.794398610552578"><ele>284.0</ele><time>2026-04-12T10:09:43Z</time></trkpt><trkpt lat="43.15146356470928" lon="11.794231128408958"><ele>282.6666666666667</ele><time>2026-04-12T10:09:44Z</time></trkpt><trkpt lat="43.151587560252096" lon="11.79407899318537"><ele>281.3333333333333</ele><time>2026-04-12T10:09:45Z</time></trkpt><trkpt lat="43.15170416568019" lon="11.793940503122485"><ele>280.0</ele><time>2026-04-12T10:09:46Z</time></trkpt><trkpt lat="43.151839568620055" lon="11.7938517543671"><ele>280.0</ele><time>2026-04-12T10:09:47Z</time></trkpt><trkpt lat="43.15198647825258" lon="11.793797467593118"><ele>280.0</ele><time>2026-04-12T10:09:48Z</time></trkpt><trkpt lat="43.152152831344914" lon="11.793809565479716"><ele>280.0</ele><time>2026-04-12T10:09:49Z</time></trkpt><trkpt lat="43.15233094195956" lon="11.79380540880158"><ele>280.3333333333333</ele><time>2026-04-12T10:09:50Z</time></trkpt><trkpt lat="43.152508157536005" lon="11.793832837057908"><ele>280.6666666666667</ele><time>2026-04-12T10:09:51Z</time></trkpt><trkpt lat="43.15268716959901" lon="11.793846951944923"><ele>281.0</ele><time>2026-04-12T10:09:52Z</time></trkpt><trkpt lat="43.15285945132156" lon="11.793853836357439"><ele>281.0</ele><time>2026-04-12T10:09:53Z</time></trkpt><trkpt lat="43.15301942852603" lon="11.793862534738777"><ele>281.0</ele><time>2026-04-12T10:09:54Z</time></trkpt><trkpt lat="43.15317196389425" lon="11.793868820891168"><ele>281.0</ele><time>2026-04-12T10:09:55Z</time></trkpt><trkpt lat="43.15331536011117" lon="11.793860631910208"><ele>281.6666666666667</ele><time>2026-04-12T10:09:56Z</time></trkpt><trkpt lat="43.15346631820874" lon="11.79382560583768"><ele>282.3333333333333</ele><time>2026-04-12T10:09:57Z</time></trkpt><trkpt lat="43.15362722652996" lon="11.793768695733512"><ele>283.0</ele><time>2026-04-12T10:09:58Z</time></trkpt><trkpt lat="43.153798112531895" lon="11.793713039364794"><ele>283.0</ele><time>2026-04-12T10:09:59Z</time></trkpt><trkpt lat="43.1539705628823" lon="11.793648756401813"><ele>283.0</ele><time>2026-04-12T10:10:00Z</time></trkpt><trkpt lat="43.154147318832784" lon="11.793580732410149"><ele>283.0</ele><time>2026-04-12T10:10:01Z</time></trkpt><trkpt lat="43.1543279199171" lon="11.79351408284655"><ele>282.3333333333333</ele><time>2026-04-12T10:10:02Z</time></trkpt><trkpt lat="43.154506926301366" lon="11.793444693999843"><ele>281.6666666666667</ele><time>2026-04-12T10:10:03Z</time></trkpt><trkpt lat="43.15469036284065" lon="11.793382096963107"><ele>281.0</ele><time>2026-04-12T10:10:04Z</time></trkpt><trkpt lat="43.1548691405974" lon="11.793313405952732"><ele>280.6666666666667</ele><time>2026-04-12T10:10:05Z</time></trkpt><trkpt lat="43.15505047084181" lon="11.793246962307926"><ele>280.3333333333333</ele><time>2026-04-12T10:10:06Z</time></trkpt><trkpt lat="43.15523279927171" lon="11.79318205429593"><ele>280.0</ele><time>2026-04-12T10:10:07Z</time></trkpt><trkpt lat="43.15541239602547" lon="11.793119086704527"><ele>280.0</ele><time>2026-04-12T10:10:08Z</time></trkpt><trkpt lat="43.15558634238294" lon="11.793061042592049"><ele>280.0</ele><time>2026-04-12T10:10:09Z</time></trkpt><trkpt lat="43.155759010334336" lon="11.792999566291783"><ele>280.0</ele><time>2026-04-12T10:10:10Z</time></trkpt><trkpt lat="43.1559226338306" lon="11.792937258606175"><ele>280.3333333333333</ele><time>2026-04-12T10:10:11Z</time></trkpt><trkpt lat="43.15608866178786" lon="11.79286338987409"><ele>280.6666666666667</ele><time>2026-04-12T10:10:12Z</time></trkpt><trkpt lat="43.156255412284004" lon="11.79277142387025"><ele>281.0</ele><time>2026-04-12T10:10:13Z</time></trkpt><trkpt lat="43.15642808951993" lon="11.792669659419087"><ele>279.6666666666667</ele><time>2026-04-12T10:10:14Z</time></trkpt><trkpt lat="43.156601344795355" lon="11.792561962534982"><ele>278.3333333333333</ele><time>2026-04-12T10:10:15Z</time></trkpt><trkpt lat="43.156773519727686" lon="11.792456465253208"><ele>277.0</ele><time>2026-04-12T10:10:16Z</time></trkpt><trkpt lat="43.15694088215876" lon="11.79234491840916"><ele>277.0</ele><time>2026-04-12T10:10:17Z</time></trkpt><trkpt lat="43.15710650275782" lon="11.792223808833045"><ele>277.0</ele><time>2026-04-12T10:10:18Z</time></trkpt><trkpt lat="43.15727152023041" lon="11.792093539230954"><ele>277.0</ele><time>2026-04-12T10:10:19Z</time></trkpt><trkpt lat="43.15743272225074" lon="11.791951455727917"><ele>275.0</ele><time>2026-04-12T10:10:20Z</time></trkpt><trkpt lat="43.15759017605309" lon="11.79180824476449"><ele>273.0</ele><time>2026-04-12T10:10:21Z</time></trkpt><trkpt lat="43.15775041531357" lon="11.79166550755418"><ele>271.0</ele><time>2026-04-12T10:10:22Z</time></trkpt><trkpt lat="43.15790759876056" lon="11.791520910430958"><ele>271.0</ele><time>2026-04-12T10:10:23Z</time></trkpt><trkpt lat="43.15805585648091" lon="11.79137889670026"><ele>271.0</ele><time>2026-04-12T10:10:24Z</time></trkpt><trkpt lat="43.15818659231285" lon="11.791253357416108"><ele>271.0</ele><time>2026-04-12T10:10:25Z</time></trkpt><trkpt lat="43.15831485480106" lon="11.79112905764786"><ele>271.0</ele><time>2026-04-12T10:10:26Z</time></trkpt><trkpt lat="43.158447365493" lon="11.790997652497651"><ele>271.0</ele><time>2026-04-12T10:10:27Z</time></trkpt><trkpt lat="43.158590045941295" lon="11.790873331583828"><ele>271.0</ele><time>2026-04-12T10:10:28Z</time></trkpt><trkpt lat="43.15873827150122" lon="11.790748179808173"><ele>271.0</ele><time>2026-04-12T10:10:29Z</time></trkpt><trkpt lat="43.15889112569846" lon="11.790624905933909"><ele>271.0</ele><time>2026-04-12T10:10:30.001Z</time></trkpt><trkpt lat="43.159042469028435" lon="11.79050210418299"><ele>271.0</ele><time>2026-04-12T10:10:30.999Z</time></trkpt><trkpt lat="43.15919260976635" lon="11.790383261866387"><ele>271.66666666666663</ele><time>2026-04-12T10:10:31.999Z</time></trkpt><trkpt lat="43.15934190486224" lon="11.79025713978313"><ele>272.3333333333333</ele><time>2026-04-12T10:10:32.999Z</time></trkpt><trkpt lat="43.15948579759679" lon="11.79013053022326"><ele>273.0</ele><time>2026-04-12T10:10:33.999Z</time></trkpt><trkpt lat="43.159630924729406" lon="11.790002882905164"><ele>273.0</ele><time>2026-04-12T10:10:34.999Z</time></trkpt><trkpt lat="43.15977626557072" lon="11.789874027095104"><ele>273.0</ele><time>2026-04-12T10:10:35.999Z</time></trkpt><trkpt lat="43.15992301992861" lon="11.78974235037477"><ele>273.0</ele><time>2026-04-12T10:10:36.999Z</time></trkpt><trkpt lat="43.16006747482685" lon="11.789617654960615"><ele>272.6666666666667</ele><time>2026-04-12T10:10:37.999Z</time></trkpt><trkpt lat="43.160203827922295" lon="11.78949813362704"><ele>272.33333333333337</ele><time>2026-04-12T10:10:38.999Z</time></trkpt><trkpt lat="43.16032974163322" lon="11.789381422331166"><ele>272.0</ele><time>2026-04-12T10:10:39.999Z</time></trkpt><trkpt lat="43.16044894641741" lon="11.789260026684387"><ele>272.0</ele><time>2026-04-12T10:10:40.999Z</time></trkpt><trkpt lat="43.16056601631375" lon="11.789133899473692"><ele>272.0</ele><time>2026-04-12T10:10:41.999Z</time></trkpt><trkpt lat="43.16067488834396" lon="11.788996258550444"><ele>272.0</ele><time>2026-04-12T10:10:42.999Z</time></trkpt><trkpt lat="43.16078082041071" lon="11.788844599782072"><ele>272.0</ele><time>2026-04-12T10:10:43.999Z</time></trkpt><trkpt lat="43.160887763742586" lon="11.788684977473858"><ele>272.0</ele><time>2026-04-12T10:10:44.999Z</time></trkpt><trkpt lat="43.160997436805395" lon="11.788522818183448"><ele>272.0</ele><time>2026-04-12T10:10:45.999Z</time></trkpt><trkpt lat="43.161099376553445" lon="11.788361393978228"><ele>272.0</ele><time>2026-04-12T10:10:46.999Z</time></trkpt><trkpt lat="43.1611956426433" lon="11.78819950301264"><ele>272.0</ele><time>2026-04-12T10:10:47.999Z</time></trkpt><trkpt lat="43.161289279750406" lon="11.788042176762671"><ele>272.0</ele><time>2026-04-12T10:10:48.999Z</time></trkpt><trkpt lat="43.16137578604552" lon="11.787894440204745"><ele>272.0</ele><time>2026-04-12T10:10:49.999Z</time></trkpt><trkpt lat="43.16145561712102" lon="11.787761901200062"><ele>271.0</ele><time>2026-04-12T10:10:51Z</time></trkpt><trkpt lat="43.161534729504105" lon="11.787658135652851"><ele>270.0</ele><time>2026-04-12T10:10:52Z</time></trkpt><trkpt lat="43.16163164882678" lon="11.787598657113655"><ele>269.0</ele><time>2026-04-12T10:10:53Z</time></trkpt><trkpt lat="43.161750505710536" lon="11.787579902707805"><ele>268.0</ele><time>2026-04-12T10:10:54Z</time></trkpt><trkpt lat="43.161880887315355" lon="11.787565637068736"><ele>268.0</ele><time>2026-04-12T10:10:55Z</time></trkpt><trkpt lat="43.162018473931276" lon="11.787529863398714"><ele>268.0</ele><time>2026-04-12T10:10:56Z</time></trkpt><trkpt lat="43.16216199315022" lon="11.787490704942295"><ele>268.0</ele><time>2026-04-12T10:10:57Z</time></trkpt><trkpt lat="43.16232368070708" lon="11.787584470542983"><ele>267.66666666666663</ele><time>2026-04-12T10:10:58Z</time></trkpt><trkpt lat="43.16250170701251" lon="11.787721650100973"><ele>267.3333333333333</ele><time>2026-04-12T10:10:59Z</time></trkpt><trkpt lat="43.162695322589265" lon="11.787885966095908"><ele>267.0</ele><time>2026-04-12T10:11:00Z</time></trkpt><trkpt lat="43.162902335341386" lon="11.788037030901501"><ele>267.0</ele><time>2026-04-12T10:11:01Z</time></trkpt><trkpt lat="43.163110759904946" lon="11.788185108021402"><ele>267.0</ele><time>2026-04-12T10:11:02Z</time></trkpt><trkpt lat="43.16331965784656" lon="11.788330438785968"><ele>268.0</ele><time>2026-04-12T10:11:03Z</time></trkpt><trkpt lat="43.16352954042694" lon="11.788464811071435"><ele>269.0</ele><time>2026-04-12T10:11:04Z</time></trkpt><trkpt lat="43.1637428975671" lon="11.788585395212383"><ele>267.0</ele><time>2026-04-12T10:11:05Z</time></trkpt><trkpt lat="43.16395819910238" lon="11.788695851756097"><ele>265.0</ele><time>2026-04-12T10:11:06Z</time></trkpt><trkpt lat="43.16417735762844" lon="11.788789766592384"><ele>264.0</ele><time>2026-04-12T10:11:07Z</time></trkpt><trkpt lat="43.16440067588192" lon="11.78887042882861"><ele>263.0</ele><time>2026-04-12T10:11:08Z</time></trkpt><trkpt lat="43.164628179823495" lon="11.788938129413776"><ele>263.0</ele><time>2026-04-12T10:11:09Z</time></trkpt><trkpt lat="43.16485498146434" lon="11.788997384842997"><ele>263.0</ele><time>2026-04-12T10:11:10Z</time></trkpt><trkpt lat="43.165082843206115" lon="11.78905423756498"><ele>263.0</ele><time>2026-04-12T10:11:11Z</time></trkpt><trkpt lat="43.16531036928473" lon="11.789112030799041"><ele>263.0</ele><time>2026-04-12T10:11:12Z</time></trkpt><trkpt lat="43.16553559670734" lon="11.789167294155968"><ele>261.0</ele><time>2026-04-12T10:11:13Z</time></trkpt><trkpt lat="43.16575933656773" lon="11.789224623492983"><ele>259.0</ele><time>2026-04-12T10:11:14Z</time></trkpt><trkpt lat="43.16598001153843" lon="11.789286493516624"><ele>258.66666666666663</ele><time>2026-04-12T10:11:15Z</time></trkpt><trkpt lat="43.166199483052424" lon="11.78935070894308"><ele>258.3333333333333</ele><time>2026-04-12T10:11:16Z</time></trkpt><trkpt lat="43.166417233956956" lon="11.789413544348694"><ele>258.0</ele><time>2026-04-12T10:11:17Z</time></trkpt><trkpt lat="43.16663181157994" lon="11.789469121784428"><ele>257.3333333333333</ele><time>2026-04-12T10:11:18Z</time></trkpt><trkpt lat="43.16684695999494" lon="11.789516055098368"><ele>256.66666666666663</ele><time>2026-04-12T10:11:19Z</time></trkpt><trkpt lat="43.16705936465821" lon="11.789563391588397"><ele>256.0</ele><time>2026-04-12T10:11:20Z</time></trkpt><trkpt lat="43.167267580308916" lon="11.789624002485025"><ele>255.66666666666666</ele><time>2026-04-12T10:11:21Z</time></trkpt><trkpt lat="43.16747229813696" lon="11.7896951360928"><ele>255.33333333333331</ele><time>2026-04-12T10:11:22Z</time></trkpt><trkpt lat="43.16767374689032" lon="11.789781850308623"><ele>255.0</ele><time>2026-04-12T10:11:23Z</time></trkpt><trkpt lat="43.167871493795595" lon="11.789878131755398"><ele>255.0</ele><time>2026-04-12T10:11:24Z</time></trkpt><trkpt lat="43.16806764911359" lon="11.789983136389866"><ele>255.0</ele><time>2026-04-12T10:11:25Z</time></trkpt><trkpt lat="43.16825916377311" lon="11.790092831559177"><ele>255.0</ele><time>2026-04-12T10:11:26Z</time></trkpt><trkpt lat="43.16844687297702" lon="11.7902136415618"><ele>255.33333333333331</ele><time>2026-04-12T10:11:27Z</time></trkpt><trkpt lat="43.16863457095097" lon="11.790342241832438"><ele>255.66666666666666</ele><time>2026-04-12T10:11:28Z</time></trkpt><trkpt lat="43.168822384023606" lon="11.79047115781699"><ele>256.0</ele><time>2026-04-12T10:11:29Z</time></trkpt><trkpt lat="43.1689987841904" lon="11.79059176190082"><ele>256.3333333333333</ele><time>2026-04-12T10:11:30Z</time></trkpt><trkpt lat="43.169158580036004" lon="11.790705462014088"><ele>256.6666666666667</ele><time>2026-04-12T10:11:31Z</time></trkpt><trkpt lat="43.16930785898066" lon="11.790807806417456"><ele>257.0</ele><time>2026-04-12T10:11:32Z</time></trkpt><trkpt lat="43.16944772676839" lon="11.790904496512386"><ele>257.0</ele><time>2026-04-12T10:11:33Z</time></trkpt><trkpt lat="43.1695735872727" lon="11.790989686348802"><ele>257.0</ele><time>2026-04-12T10:11:34Z</time></trkpt><trkpt lat="43.1696899984765" lon="11.791068651502439"><ele>257.0</ele><time>2026-04-12T10:11:35Z</time></trkpt><trkpt lat="43.16979266636676" lon="11.791139384454546"><ele>257.0</ele><time>2026-04-12T10:11:36Z</time></trkpt><trkpt lat="43.16988719868858" lon="11.79121318793163"><ele>257.0</ele><time>2026-04-12T10:11:37Z</time></trkpt><trkpt lat="43.16995871788629" lon="11.791295868697915"><ele>257.0</ele><time>2026-04-12T10:11:38Z</time></trkpt><trkpt lat="43.17000539584665" lon="11.791399604420793"><ele>257.0</ele><time>2026-04-12T10:11:39Z</time></trkpt><trkpt lat="43.17003680143018" lon="11.791530435903478"><ele>257.0</ele><time>2026-04-12T10:11:40Z</time></trkpt><trkpt lat="43.17005816914802" lon="11.791688251830196"><ele>257.0</ele><time>2026-04-12T10:11:41Z</time></trkpt><trkpt lat="43.17011008547872" lon="11.791828202657795"><ele>257.0</ele><time>2026-04-12T10:11:42Z</time></trkpt><trkpt lat="43.17017449717606" lon="11.791924618415337"><ele>257.0</ele><time>2026-04-12T10:11:43Z</time></trkpt><trkpt lat="43.1700309587756" lon="11.792153106174382"><ele>257.0</ele><time>2026-04-12T10:11:44Z</time></trkpt><trkpt lat="43.16998248504885" lon="11.792322247830574"><ele>257.0</ele><time>2026-04-12T10:11:45Z</time></trkpt><trkpt lat="43.16993555031558" lon="11.792493896489608"><ele>257.0</ele><time>2026-04-12T10:11:46Z</time></trkpt><trkpt lat="43.16986472009272" lon="11.792645335044924"><ele>257.0</ele><time>2026-04-12T10:11:47Z</time></trkpt><trkpt lat="43.169762563700424" lon="11.792765826125109"><ele>257.0</ele><time>2026-04-12T10:11:48Z</time></trkpt><trkpt lat="43.16967338296969" lon="11.792898823266963"><ele>257.0</ele><time>2026-04-12T10:11:49Z</time></trkpt><trkpt lat="43.16958428818741" lon="11.793033323378504"><ele>256.5</ele><time>2026-04-12T10:11:50Z</time></trkpt><trkpt lat="43.169504490761426" lon="11.793186772631575"><ele>256.0</ele><time>2026-04-12T10:11:51Z</time></trkpt><trkpt lat="43.16940384287919" lon="11.79333116863465"><ele>255.5</ele><time>2026-04-12T10:11:52Z</time></trkpt><trkpt lat="43.16930210209051" lon="11.793481162262395"><ele>255.0</ele><time>2026-04-12T10:11:53Z</time></trkpt><trkpt lat="43.16920871620762" lon="11.793620291446704"><ele>255.0</ele><time>2026-04-12T10:11:54Z</time></trkpt><trkpt lat="43.16912488191296" lon="11.793738765441924"><ele>255.0</ele><time>2026-04-12T10:11:55Z</time></trkpt><trkpt lat="43.16903710684662" lon="11.793843118901165"><ele>255.0</ele><time>2026-04-12T10:11:56Z</time></trkpt><trkpt lat="43.168940517312706" lon="11.793929502651343"><ele>255.0</ele><time>2026-04-12T10:11:57Z</time></trkpt><trkpt lat="43.168841212830166" lon="11.794005000299569"><ele>255.0</ele><time>2026-04-12T10:11:58Z</time></trkpt><trkpt lat="43.16873922959815" lon="11.7940504297692"><ele>255.0</ele><time>2026-04-12T10:11:59Z</time></trkpt><trkpt lat="43.16864218734131" lon="11.794065580317165"><ele>255.0</ele><time>2026-04-12T10:12:00Z</time></trkpt><trkpt lat="43.168540546918265" lon="11.794027986816392"><ele>255.0</ele><time>2026-04-12T10:12:01Z</time></trkpt><trkpt lat="43.16842602657218" lon="11.79401214692839"><ele>255.0</ele><time>2026-04-12T10:12:02Z</time></trkpt><trkpt lat="43.16830842966195" lon="11.794013381848632"><ele>255.0</ele><time>2026-04-12T10:12:03Z</time></trkpt><trkpt lat="43.16821488822142" lon="11.79400511141943"><ele>255.0</ele><time>2026-04-12T10:12:04Z</time></trkpt><trkpt lat="43.1681489177952" lon="11.794008432953422"><ele>255.0</ele><time>2026-04-12T10:12:05Z</time></trkpt><trkpt lat="43.16806535297892" lon="11.793993904956661"><ele>255.0</ele><time>2026-04-12T10:12:07Z</time></trkpt><trkpt lat="43.16806846204245" lon="11.794177471890931"><ele>255.0</ele><time>2026-04-12T10:12:09.001Z</time></trkpt><trkpt lat="43.168098612886716" lon="11.794274304200835"><ele>255.25</ele><time>2026-04-12T10:12:10.001Z</time></trkpt><trkpt lat="43.16813144712924" lon="11.794404335923923"><ele>255.5</ele><time>2026-04-12T10:12:11.001Z</time></trkpt><trkpt lat="43.168153455349554" lon="11.794565713147708"><ele>255.75</ele><time>2026-04-12T10:12:12.001Z</time></trkpt><trkpt lat="43.168167698763156" lon="11.794752765915595"><ele>256.0</ele><time>2026-04-12T10:12:13.001Z</time></trkpt><trkpt lat="43.168182713493906" lon="11.794954078313774"><ele>256.0</ele><time>2026-04-12T10:12:14.001Z</time></trkpt><trkpt lat="43.168202563368375" lon="11.7951727211595"><ele>256.0</ele><time>2026-04-12T10:12:15.001Z</time></trkpt><trkpt lat="43.16823163716699" lon="11.795401618131251"><ele>256.0</ele><time>2026-04-12T10:12:16.001Z</time></trkpt><trkpt lat="43.16826555508842" lon="11.79561466185221"><ele>256.0</ele><time>2026-04-12T10:12:17.001Z</time></trkpt><trkpt lat="43.16831458392352" lon="11.795794870678021"><ele>256.0</ele><time>2026-04-12T10:12:18.001Z</time></trkpt><trkpt lat="43.16835324484208" lon="11.795959979637173"><ele>256.0</ele><time>2026-04-12T10:12:19.001Z</time></trkpt><trkpt lat="43.16839168480747" lon="11.796107363809243"><ele>256.0</ele><time>2026-04-12T10:12:20.001Z</time></trkpt><trkpt lat="43.16843246238028" lon="11.796233532964097"><ele>255.99999999999997</ele><time>2026-04-12T10:12:21.001Z</time></trkpt><trkpt lat="43.1684855523664" lon="11.796379415824841"><ele>256.0</ele><time>2026-04-12T10:12:23.001Z</time></trkpt><trkpt lat="43.16850805484327" lon="11.796477297864579"><ele>256.0</ele><time>2026-04-12T10:12:24.001Z</time></trkpt><trkpt lat="43.168521057520074" lon="11.79659296674806"><ele>256.0</ele><time>2026-04-12T10:12:25.001Z</time></trkpt><trkpt lat="43.168528576547" lon="11.796704771127432"><ele>255.99999999999997</ele><time>2026-04-12T10:12:26.001Z</time></trkpt><trkpt lat="43.168509154467536" lon="11.796799478584987"><ele>256.0</ele><time>2026-04-12T10:12:27.001Z</time></trkpt><trkpt lat="43.168488064553955" lon="11.796892850698024"><ele>255.8</ele><time>2026-04-12T10:12:28.001Z</time></trkpt><trkpt lat="43.168479173422696" lon="11.797006046707416"><ele>255.60000000000002</ele><time>2026-04-12T10:12:29.001Z</time></trkpt><trkpt lat="43.16850472539029" lon="11.797136773333738"><ele>255.4</ele><time>2026-04-12T10:12:30.001Z</time></trkpt><trkpt lat="43.168510972155964" lon="11.797295919822634"><ele>255.2</ele><time>2026-04-12T10:12:31.001Z</time></trkpt><trkpt lat="43.16852718736637" lon="11.797467285273017"><ele>255.0</ele><time>2026-04-12T10:12:32.001Z</time></trkpt><trkpt lat="43.16854595592168" lon="11.797643448752893"><ele>254.75</ele><time>2026-04-12T10:12:33.001Z</time></trkpt><trkpt lat="43.16856710341473" lon="11.797813960518296"><ele>254.5</ele><time>2026-04-12T10:12:34.001Z</time></trkpt><trkpt lat="43.168607198900325" lon="11.797985804281408"><ele>254.25</ele><time>2026-04-12T10:12:35.001Z</time></trkpt><trkpt lat="43.168632201624774" lon="11.798163358885892"><ele>254.0</ele><time>2026-04-12T10:12:36.001Z</time></trkpt><trkpt lat="43.16866252958128" lon="11.798336977437488"><ele>254.0</ele><time>2026-04-12T10:12:37Z</time></trkpt><trkpt lat="43.168690830937486" lon="11.798505179683229"><ele>254.0</ele><time>2026-04-12T10:12:38Z</time></trkpt><trkpt lat="43.168720509486754" lon="11.798675109125206"><ele>254.0</ele><time>2026-04-12T10:12:39Z</time></trkpt><trkpt lat="43.168753120928294" lon="11.79884313611997"><ele>254.0</ele><time>2026-04-12T10:12:40Z</time></trkpt><trkpt lat="43.1687871434159" lon="11.799019973015673"><ele>254.0</ele><time>2026-04-12T10:12:41Z</time></trkpt><trkpt lat="43.16882790981407" lon="11.79920038956992"><ele>254.0</ele><time>2026-04-12T10:12:42Z</time></trkpt><trkpt lat="43.16887395508373" lon="11.799381983475177"><ele>254.0</ele><time>2026-04-12T10:12:43Z</time></trkpt><trkpt lat="43.16892660049971" lon="11.79956558495524"><ele>254.0</ele><time>2026-04-12T10:12:44Z</time></trkpt><trkpt lat="43.16898389517093" lon="11.799752946690516"><ele>253.66666666666669</ele><time>2026-04-12T10:12:45Z</time></trkpt><trkpt lat="43.16904389398054" lon="11.799942962656056"><ele>253.33333333333331</ele><time>2026-04-12T10:12:46Z</time></trkpt><trkpt lat="43.16910608288367" lon="11.800132227338652"><ele>253.0</ele><time>2026-04-12T10:12:47Z</time></trkpt><trkpt lat="43.169166575506345" lon="11.800329190846636"><ele>253.66666666666666</ele><time>2026-04-12T10:12:48Z</time></trkpt><trkpt lat="43.16923464972081" lon="11.800523488229409"><ele>254.33333333333331</ele><time>2026-04-12T10:12:49Z</time></trkpt><trkpt lat="43.169296847981755" lon="11.80071788633158"><ele>255.0</ele><time>2026-04-12T10:12:50Z</time></trkpt><trkpt lat="43.1693498499812" lon="11.800898987135996"><ele>255.0</ele><time>2026-04-12T10:12:51Z</time></trkpt><trkpt lat="43.16939028407965" lon="11.801088963514745"><ele>255.0</ele><time>2026-04-12T10:12:52Z</time></trkpt><trkpt lat="43.169413787326874" lon="11.80129491239525"><ele>255.0</ele><time>2026-04-12T10:12:53Z</time></trkpt><trkpt lat="43.169404939635605" lon="11.80152016755953"><ele>255.0</ele><time>2026-04-12T10:12:54Z</time></trkpt><trkpt lat="43.169428998363806" lon="11.801751509572556"><ele>255.0</ele><time>2026-04-12T10:12:55Z</time></trkpt><trkpt lat="43.169440430165956" lon="11.801986021496452"><ele>255.0</ele><time>2026-04-12T10:12:56Z</time></trkpt><trkpt lat="43.169454324904414" lon="11.802223194190432"><ele>255.0</ele><time>2026-04-12T10:12:57Z</time></trkpt><trkpt lat="43.16946514666298" lon="11.80245244328378"><ele>255.0</ele><time>2026-04-12T10:12:58Z</time></trkpt><trkpt lat="43.169475680896056" lon="11.802666964489358"><ele>255.0</ele><time>2026-04-12T10:12:59Z</time></trkpt><trkpt lat="43.1694848837576" lon="11.802851519447332"><ele>255.0</ele><time>2026-04-12T10:13:00Z</time></trkpt><trkpt lat="43.16949779076966" lon="11.803027989668555"><ele>255.0</ele><time>2026-04-12T10:13:01Z</time></trkpt><trkpt lat="43.16950370620452" lon="11.803181069499324"><ele>255.0</ele><time>2026-04-12T10:13:02Z</time></trkpt><trkpt lat="43.169509926480345" lon="11.803297040470083"><ele>255.0</ele><time>2026-04-12T10:13:03Z</time></trkpt><trkpt lat="43.1695172553008" lon="11.803387881419958"><ele>255.0</ele><time>2026-04-12T10:13:04Z</time></trkpt><trkpt lat="43.16951435215764" lon="11.803484764949982"><ele>254.5</ele><time>2026-04-12T10:13:06Z</time></trkpt><trkpt lat="43.16965139466702" lon="11.80349945846979"><ele>254.0</ele><time>2026-04-12T10:13:08Z</time></trkpt><trkpt lat="43.169755175621006" lon="11.803523629063063"><ele>253.5</ele><time>2026-04-12T10:13:09Z</time></trkpt><trkpt lat="43.169867094936244" lon="11.80356118622994"><ele>253.0</ele><time>2026-04-12T10:13:10Z</time></trkpt><trkpt lat="43.16997586666221" lon="11.80360906998496"><ele>252.8</ele><time>2026-04-12T10:13:11Z</time></trkpt><trkpt lat="43.17005561926851" lon="11.803659303890637"><ele>252.60000000000002</ele><time>2026-04-12T10:13:12Z</time></trkpt><trkpt lat="43.170122972947844" lon="11.803674376506832"><ele>252.39999999999998</ele><time>2026-04-12T10:13:13Z</time></trkpt><trkpt lat="43.17018701630311" lon="11.803709622192473"><ele>252.2</ele><time>2026-04-12T10:13:15Z</time></trkpt><trkpt lat="43.17015956287481" lon="11.803963492728228"><ele>252.0</ele><time>2026-04-12T10:13:19Z</time></trkpt><trkpt lat="43.17013104090468" lon="11.804110093393204"><ele>252.0</ele><time>2026-04-12T10:13:20Z</time></trkpt><trkpt lat="43.1701108956158" lon="11.80429976391942"><ele>252.0</ele><time>2026-04-12T10:13:21Z</time></trkpt><trkpt lat="43.17006494885079" lon="11.804516102001598"><ele>252.0</ele><time>2026-04-12T10:13:22Z</time></trkpt><trkpt lat="43.17001390407157" lon="11.804751932766097"><ele>251.66666666666669</ele><time>2026-04-12T10:13:23Z</time></trkpt><trkpt lat="43.16995955080863" lon="11.805008748642777"><ele>251.33333333333334</ele><time>2026-04-12T10:13:24Z</time></trkpt><trkpt lat="43.16988677113646" lon="11.805268270149964"><ele>251.0</ele><time>2026-04-12T10:13:25Z</time></trkpt><trkpt lat="43.16984328471543" lon="11.805540044245003"><ele>251.0</ele><time>2026-04-12T10:13:26Z</time></trkpt><trkpt lat="43.16978421690037" lon="11.80579793458396"><ele>251.0</ele><time>2026-04-12T10:13:27Z</time></trkpt><trkpt lat="43.16972882406788" lon="11.80603368873694"><ele>251.0</ele><time>2026-04-12T10:13:28Z</time></trkpt><trkpt lat="43.16967809593417" lon="11.806254727636194"><ele>251.0</ele><time>2026-04-12T10:13:29Z</time></trkpt><trkpt lat="43.16964479310391" lon="11.806460274602427"><ele>251.0</ele><time>2026-04-12T10:13:30Z</time></trkpt><trkpt lat="43.16963013831033" lon="11.806652308509763"><ele>251.0</ele><time>2026-04-12T10:13:31Z</time></trkpt><trkpt lat="43.1696190365864" lon="11.806839984882638"><ele>251.0</ele><time>2026-04-12T10:13:32Z</time></trkpt><trkpt lat="43.16962683290186" lon="11.807037334924708"><ele>251.66666666666669</ele><time>2026-04-12T10:13:33Z</time></trkpt><trkpt lat="43.16963147554193" lon="11.807243289089376"><ele>252.33333333333331</ele><time>2026-04-12T10:13:34Z</time></trkpt><trkpt lat="43.169637315146375" lon="11.807456851473882"><ele>253.0</ele><time>2026-04-12T10:13:35Z</time></trkpt><trkpt lat="43.16966480523641" lon="11.80767175239858"><ele>253.0</ele><time>2026-04-12T10:13:36Z</time></trkpt><trkpt lat="43.169673569672604" lon="11.807880749745015"><ele>253.0</ele><time>2026-04-12T10:13:37Z</time></trkpt><trkpt lat="43.16968428042119" lon="11.80808273519559"><ele>253.0</ele><time>2026-04-12T10:13:38Z</time></trkpt><trkpt lat="43.16969439264637" lon="11.808290848020551"><ele>252.66666666666666</ele><time>2026-04-12T10:13:39Z</time></trkpt><trkpt lat="43.16970362860335" lon="11.808496717592988"><ele>252.33333333333331</ele><time>2026-04-12T10:13:40Z</time></trkpt><trkpt lat="43.16971321447398" lon="11.80870550907011"><ele>252.0</ele><time>2026-04-12T10:13:41Z</time></trkpt><trkpt lat="43.169723513392626" lon="11.808918120445803"><ele>252.0</ele><time>2026-04-12T10:13:42Z</time></trkpt><trkpt lat="43.16973153774138" lon="11.809132507802675"><ele>252.0</ele><time>2026-04-12T10:13:43Z</time></trkpt><trkpt lat="43.169738885840445" lon="11.809347298978135"><ele>252.0</ele><time>2026-04-12T10:13:44Z</time></trkpt><trkpt lat="43.16974676064384" lon="11.809564284724821"><ele>252.0</ele><time>2026-04-12T10:13:45Z</time></trkpt><trkpt lat="43.16975540187774" lon="11.8097747158701"><ele>252.0</ele><time>2026-04-12T10:13:46Z</time></trkpt><trkpt lat="43.16976556701732" lon="11.809987119352257"><ele>252.0</ele><time>2026-04-12T10:13:47Z</time></trkpt><trkpt lat="43.16977349473024" lon="11.810173033566517"><ele>252.0</ele><time>2026-04-12T10:13:48Z</time></trkpt><trkpt lat="43.169780207129506" lon="11.81033727268857"><ele>252.0</ele><time>2026-04-12T10:13:49Z</time></trkpt><trkpt lat="43.169782178537716" lon="11.810470496604426"><ele>252.0</ele><time>2026-04-12T10:13:50Z</time></trkpt><trkpt lat="43.16978554263555" lon="11.810571957131705"><ele>252.0</ele><time>2026-04-12T10:13:51Z</time></trkpt><trkpt lat="43.169849632751685" lon="11.810750881904116"><ele>252.0</ele><time>2026-04-12T10:13:53.001Z</time></trkpt><trkpt lat="43.16993316025025" lon="11.810892841404097"><ele>252.0</ele><time>2026-04-12T10:13:54.001Z</time></trkpt><trkpt lat="43.170035335748004" lon="11.811066953307717"><ele>252.0</ele><time>2026-04-12T10:13:55.001Z</time></trkpt><trkpt lat="43.170121095482" lon="11.811215321691584"><ele>252.0</ele><time>2026-04-12T10:13:56.001Z</time></trkpt><trkpt lat="43.1702093666689" lon="11.811376914921423"><ele>252.0</ele><time>2026-04-12T10:13:57.001Z</time></trkpt><trkpt lat="43.17029920571486" lon="11.811524931056589"><ele>252.0</ele><time>2026-04-12T10:13:58.001Z</time></trkpt><trkpt lat="43.17039204015773" lon="11.811667087863833"><ele>252.0</ele><time>2026-04-12T10:13:59.001Z</time></trkpt><trkpt lat="43.170494274375436" lon="11.811808233988588"><ele>252.0</ele><time>2026-04-12T10:14:00.001Z</time></trkpt><trkpt lat="43.170592292792655" lon="11.811947749411122"><ele>252.0</ele><time>2026-04-12T10:14:01.001Z</time></trkpt><trkpt lat="43.17070301726114" lon="11.812090879819523"><ele>251.5</ele><time>2026-04-12T10:14:02.001Z</time></trkpt><trkpt lat="43.17081092275547" lon="11.81221275307317"><ele>251.0</ele><time>2026-04-12T10:14:03.001Z</time></trkpt><trkpt lat="43.17092671465547" lon="11.812344095639933"><ele>250.5</ele><time>2026-04-12T10:14:04.001Z</time></trkpt><trkpt lat="43.17104129288612" lon="11.812451582225249"><ele>250.0</ele><time>2026-04-12T10:14:05.001Z</time></trkpt><trkpt lat="43.171170568612226" lon="11.81256767796588"><ele>250.33333333333331</ele><time>2026-04-12T10:14:06.001Z</time></trkpt><trkpt lat="43.17130581747384" lon="11.812683440055581"><ele>250.66666666666669</ele><time>2026-04-12T10:14:07.001Z</time></trkpt><trkpt lat="43.17144284046737" lon="11.812804018422153"><ele>251.0</ele><time>2026-04-12T10:14:08.001Z</time></trkpt><trkpt lat="43.171574899027206" lon="11.812924828628493"><ele>251.0</ele><time>2026-04-12T10:14:09.001Z</time></trkpt><trkpt lat="43.1717147887095" lon="11.81304731716"><ele>251.0</ele><time>2026-04-12T10:14:10.001Z</time></trkpt><trkpt lat="43.17184240335605" lon="11.813153701932713"><ele>251.0</ele><time>2026-04-12T10:14:11.001Z</time></trkpt><trkpt lat="43.1719612931015" lon="11.81326096560863"><ele>251.0</ele><time>2026-04-12T10:14:12.001Z</time></trkpt><trkpt lat="43.17206502011458" lon="11.813357251239097"><ele>251.0</ele><time>2026-04-12T10:14:13.001Z</time></trkpt><trkpt lat="43.17216891425783" lon="11.813450309808532"><ele>251.0</ele><time>2026-04-12T10:14:14.001Z</time></trkpt><trkpt lat="43.17226951050113" lon="11.813534754077612"><ele>251.0</ele><time>2026-04-12T10:14:15.001Z</time></trkpt><trkpt lat="43.17236536405283" lon="11.813618977921985"><ele>251.0</ele><time>2026-04-12T10:14:16.001Z</time></trkpt><trkpt lat="43.17247633392551" lon="11.813717449675403"><ele>251.0</ele><time>2026-04-12T10:14:17.001Z</time></trkpt><trkpt lat="43.17257642916054" lon="11.813811698611918"><ele>251.0</ele><time>2026-04-12T10:14:18.001Z</time></trkpt><trkpt lat="43.172678260105634" lon="11.813898622799172"><ele>251.0</ele><time>2026-04-12T10:14:19.001Z</time></trkpt><trkpt lat="43.172781185737755" lon="11.813988870316445"><ele>251.0</ele><time>2026-04-12T10:14:20.001Z</time></trkpt><trkpt lat="43.17288853359372" lon="11.814085661006066"><ele>251.0</ele><time>2026-04-12T10:14:21.001Z</time></trkpt><trkpt lat="43.17299772677763" lon="11.814182130720265"><ele>251.0</ele><time>2026-04-12T10:14:22.001Z</time></trkpt><trkpt lat="43.17310905593576" lon="11.81427572769649"><ele>251.0</ele><time>2026-04-12T10:14:23.001Z</time></trkpt><trkpt lat="43.17322221877757" lon="11.814377243449426"><ele>251.0</ele><time>2026-04-12T10:14:24.001Z</time></trkpt><trkpt lat="43.173335234226" lon="11.81447237273892"><ele>251.0</ele><time>2026-04-12T10:14:25.001Z</time></trkpt><trkpt lat="43.17344753395361" lon="11.81457626588945"><ele>251.0</ele><time>2026-04-12T10:14:26.001Z</time></trkpt><trkpt lat="43.17356385545718" lon="11.814681169664237"><ele>251.0</ele><time>2026-04-12T10:14:27.001Z</time></trkpt><trkpt lat="43.173680289582514" lon="11.814787206272912"><ele>251.0</ele><time>2026-04-12T10:14:28.001Z</time></trkpt><trkpt lat="43.173798212946245" lon="11.814886867373698"><ele>251.0</ele><time>2026-04-12T10:14:29.001Z</time></trkpt><trkpt lat="43.1739096876708" lon="11.81497944860367"><ele>251.0</ele><time>2026-04-12T10:14:30.001Z</time></trkpt><trkpt lat="43.174015238807904" lon="11.815065763697934"><ele>251.0</ele><time>2026-04-12T10:14:31.001Z</time></trkpt><trkpt lat="43.17412050305111" lon="11.815161951697274"><ele>251.75</ele><time>2026-04-12T10:14:32.001Z</time></trkpt><trkpt lat="43.174227362580936" lon="11.815253606859743"><ele>252.5</ele><time>2026-04-12T10:14:33.001Z</time></trkpt><trkpt lat="43.1743323205367" lon="11.81534586744454"><ele>253.25</ele><time>2026-04-12T10:14:34.001Z</time></trkpt><trkpt lat="43.17443532872159" lon="11.815444079655139"><ele>254.0</ele><time>2026-04-12T10:14:35.001Z</time></trkpt><trkpt lat="43.17452756873227" lon="11.815537099637957"><ele>254.0</ele><time>2026-04-12T10:14:36.001Z</time></trkpt><trkpt lat="43.17461275338491" lon="11.81561628325157"><ele>253.99999999999997</ele><time>2026-04-12T10:14:37.001Z</time></trkpt><trkpt lat="43.17469950245902" lon="11.815695342433832"><ele>253.99999999999997</ele><time>2026-04-12T10:14:38.001Z</time></trkpt><trkpt lat="43.1747834186842" lon="11.815771286203354"><ele>254.0</ele><time>2026-04-12T10:14:39.001Z</time></trkpt><trkpt lat="43.17486389896763" lon="11.815843048390265"><ele>254.0</ele><time>2026-04-12T10:14:40.001Z</time></trkpt><trkpt lat="43.17494643653872" lon="11.815923989827679"><ele>253.79999999999998</ele><time>2026-04-12T10:14:41.001Z</time></trkpt><trkpt lat="43.17503182774491" lon="11.816008911937473"><ele>253.59999999999997</ele><time>2026-04-12T10:14:42.001Z</time></trkpt><trkpt lat="43.175116577096496" lon="11.816083949607666"><ele>253.4</ele><time>2026-04-12T10:14:43Z</time></trkpt><trkpt lat="43.17519796601612" lon="11.816158087496"><ele>253.2</ele><time>2026-04-12T10:14:44Z</time></trkpt><trkpt lat="43.175268719764766" lon="11.816247357164476"><ele>253.0</ele><time>2026-04-12T10:14:45Z</time></trkpt><trkpt lat="43.17535313168686" lon="11.816327062377573"><ele>253.0</ele><time>2026-04-12T10:14:46Z</time></trkpt><trkpt lat="43.175449320984676" lon="11.816382564973857"><ele>253.0</ele><time>2026-04-12T10:14:47Z</time></trkpt><trkpt lat="43.17553557664716" lon="11.816465424518901"><ele>253.0</ele><time>2026-04-12T10:14:48Z</time></trkpt><trkpt lat="43.17562041947142" lon="11.816552255774315"><ele>253.0</ele><time>2026-04-12T10:14:49Z</time></trkpt><trkpt lat="43.17570476985316" lon="11.816639225920339"><ele>253.0</ele><time>2026-04-12T10:14:50Z</time></trkpt><trkpt lat="43.17580789351453" lon="11.816728249601253"><ele>252.5</ele><time>2026-04-12T10:14:51Z</time></trkpt><trkpt lat="43.17590559594685" lon="11.816822084325743"><ele>252.0</ele><time>2026-04-12T10:14:52Z</time></trkpt><trkpt lat="43.175998252996386" lon="11.816913850037821"><ele>251.5</ele><time>2026-04-12T10:14:53Z</time></trkpt><trkpt lat="43.176087892400204" lon="11.816998981306517"><ele>251.0</ele><time>2026-04-12T10:14:54Z</time></trkpt><trkpt lat="43.17617736098666" lon="11.817083735133277"><ele>251.0</ele><time>2026-04-12T10:14:55Z</time></trkpt><trkpt lat="43.17626747111727" lon="11.817165457451495"><ele>251.00000000000003</ele><time>2026-04-12T10:14:56Z</time></trkpt><trkpt lat="43.17635563231544" lon="11.817249343154929"><ele>251.00000000000003</ele><time>2026-04-12T10:14:57Z</time></trkpt><trkpt lat="43.17644435218941" lon="11.817332894476571"><ele>251.0</ele><time>2026-04-12T10:14:58Z</time></trkpt><trkpt lat="43.1765324617225" lon="11.817416143082522"><ele>251.0</ele><time>2026-04-12T10:14:59Z</time></trkpt><trkpt lat="43.176623748273784" lon="11.817501799024415"><ele>251.0</ele><time>2026-04-12T10:15:00Z</time></trkpt><trkpt lat="43.17671796584443" lon="11.817586757619035"><ele>251.0</ele><time>2026-04-12T10:15:01Z</time></trkpt><trkpt lat="43.176817521080196" lon="11.817683696081694"><ele>251.0</ele><time>2026-04-12T10:15:02Z</time></trkpt><trkpt lat="43.17692371772244" lon="11.817781280784194"><ele>251.0</ele><time>2026-04-12T10:15:03Z</time></trkpt><trkpt lat="43.17702138957993" lon="11.8178736883577"><ele>251.0</ele><time>2026-04-12T10:15:04Z</time></trkpt><trkpt lat="43.177118131571056" lon="11.817962864971468"><ele>251.0</ele><time>2026-04-12T10:15:05Z</time></trkpt><trkpt lat="43.177210304437246" lon="11.81804931373546"><ele>251.0</ele><time>2026-04-12T10:15:06Z</time></trkpt><trkpt lat="43.17730239945707" lon="11.818136752532714"><ele>251.0</ele><time>2026-04-12T10:15:07Z</time></trkpt><trkpt lat="43.177393297271365" lon="11.81822123747331"><ele>251.0</ele><time>2026-04-12T10:15:08Z</time></trkpt><trkpt lat="43.17748094448073" lon="11.818305755139388"><ele>251.00000000000003</ele><time>2026-04-12T10:15:09Z</time></trkpt><trkpt lat="43.17757058477045" lon="11.818388465195484"><ele>251.00000000000003</ele><time>2026-04-12T10:15:10Z</time></trkpt><trkpt lat="43.17765618021001" lon="11.818469421389608"><ele>251.0</ele><time>2026-04-12T10:15:11Z</time></trkpt><trkpt lat="43.177742772822754" lon="11.818549209665518"><ele>251.0</ele><time>2026-04-12T10:15:12Z</time></trkpt><trkpt lat="43.17782471253935" lon="11.818626926444418"><ele>251.00000000000003</ele><time>2026-04-12T10:15:13Z</time></trkpt><trkpt lat="43.17789827013737" lon="11.81869381186828"><ele>251.0</ele><time>2026-04-12T10:15:14Z</time></trkpt><trkpt lat="43.17795246443428" lon="11.818746637423606"><ele>251.0</ele><time>2026-04-12T10:15:15Z</time></trkpt><trkpt lat="43.17802080858643" lon="11.818809420368336"><ele>251.0</ele><time>2026-04-12T10:15:17Z</time></trkpt><trkpt lat="43.17807737056676" lon="11.818872795855796"><ele>251.00000000000003</ele><time>2026-04-12T10:16:13.001Z</time></trkpt><trkpt lat="43.17800122438868" lon="11.818795260219458"><ele>251.0</ele><time>2026-04-12T10:16:44.001Z</time></trkpt><trkpt lat="43.17793838658458" lon="11.818746641581754"><ele>251.0</ele><time>2026-04-12T10:16:45.001Z</time></trkpt><trkpt lat="43.177870399640014" lon="11.818680422194676"><ele>251.0</ele><time>2026-04-12T10:16:46.001Z</time></trkpt><trkpt lat="43.177781102987204" lon="11.818593157193945"><ele>251.0</ele><time>2026-04-12T10:16:47.001Z</time></trkpt><trkpt lat="43.17766187592083" lon="11.818484887205575"><ele>251.0</ele><time>2026-04-12T10:16:48Z</time></trkpt><trkpt lat="43.177526150997224" lon="11.818354540252916"><ele>251.0</ele><time>2026-04-12T10:16:49Z</time></trkpt><trkpt lat="43.17740512744627" lon="11.818242295854173"><ele>251.0</ele><time>2026-04-12T10:16:50Z</time></trkpt><trkpt lat="43.17729234314652" lon="11.818134295904239"><ele>251.0</ele><time>2026-04-12T10:16:51Z</time></trkpt><trkpt lat="43.17717233024074" lon="11.818021736677437"><ele>251.0</ele><time>2026-04-12T10:16:52Z</time></trkpt><trkpt lat="43.17704687653462" lon="11.817904045181308"><ele>251.0</ele><time>2026-04-12T10:16:53Z</time></trkpt><trkpt lat="43.17692223327588" lon="11.817788317926968"><ele>251.0</ele><time>2026-04-12T10:16:54Z</time></trkpt><trkpt lat="43.17680268220443" lon="11.817674358621327"><ele>251.0</ele><time>2026-04-12T10:16:55Z</time></trkpt><trkpt lat="43.17667964051815" lon="11.817556992078885"><ele>251.0</ele><time>2026-04-12T10:16:56Z</time></trkpt><trkpt lat="43.17655985603102" lon="11.817445668878898"><ele>251.0</ele><time>2026-04-12T10:16:57Z</time></trkpt><trkpt lat="43.17644211045857" lon="11.81733693117477"><ele>251.0</ele><time>2026-04-12T10:16:58Z</time></trkpt><trkpt lat="43.17632190496534" lon="11.817221978259273"><ele>251.0</ele><time>2026-04-12T10:16:59Z</time></trkpt><trkpt lat="43.1762070190349" lon="11.817115623627979"><ele>251.0</ele><time>2026-04-12T10:17:00Z</time></trkpt><trkpt lat="43.17610429076008" lon="11.817019557815073"><ele>251.0</ele><time>2026-04-12T10:17:01Z</time></trkpt><trkpt lat="43.17600509815789" lon="11.81692659078388"><ele>251.0</ele><time>2026-04-12T10:17:02Z</time></trkpt><trkpt lat="43.17588861400288" lon="11.816819529621572"><ele>251.0</ele><time>2026-04-12T10:17:03Z</time></trkpt><trkpt lat="43.17578267045033" lon="11.816714654875922"><ele>251.0</ele><time>2026-04-12T10:17:04Z</time></trkpt><trkpt lat="43.17568081075258" lon="11.81661691528338"><ele>251.5</ele><time>2026-04-12T10:17:05Z</time></trkpt><trkpt lat="43.17557483362402" lon="11.816518936580872"><ele>252.0</ele><time>2026-04-12T10:17:06Z</time></trkpt><trkpt lat="43.17546913148769" lon="11.816418461529377"><ele>252.5</ele><time>2026-04-12T10:17:07Z</time></trkpt><trkpt lat="43.17536282704671" lon="11.816319110373573"><ele>253.0</ele><time>2026-04-12T10:17:08Z</time></trkpt><trkpt lat="43.17525632936872" lon="11.816218844971031"><ele>253.0</ele><time>2026-04-12T10:17:09Z</time></trkpt><trkpt lat="43.175160583548475" lon="11.816089941288988"><ele>253.0</ele><time>2026-04-12T10:17:10Z</time></trkpt><trkpt lat="43.17506171667936" lon="11.815996588708588"><ele>253.0</ele><time>2026-04-12T10:17:11Z</time></trkpt><trkpt lat="43.17497468197164" lon="11.815914410299463"><ele>253.0</ele><time>2026-04-12T10:17:12Z</time></trkpt><trkpt lat="43.17490897267805" lon="11.815852367176715"><ele>253.0</ele><time>2026-04-12T10:17:13Z</time></trkpt><trkpt lat="43.174831542494" lon="11.815806537151431"><ele>253.25</ele><time>2026-04-12T10:17:14Z</time></trkpt><trkpt lat="43.17480337860269" lon="11.815722226705336"><ele>253.5</ele><time>2026-04-12T10:17:16Z</time></trkpt><trkpt lat="43.17493903117124" lon="11.81549784284477"><ele>253.75</ele><time>2026-04-12T10:17:19Z</time></trkpt><trkpt lat="43.17500503878604" lon="11.81537587330596"><ele>254.0</ele><time>2026-04-12T10:17:20Z</time></trkpt><trkpt lat="43.175061479185125" lon="11.815260542906207"><ele>253.6</ele><time>2026-04-12T10:17:21Z</time></trkpt><trkpt lat="43.17511974320052" lon="11.815149330543948"><ele>253.2</ele><time>2026-04-12T10:17:22Z</time></trkpt><trkpt lat="43.175172476211216" lon="11.815037498604013"><ele>252.79999999999998</ele><time>2026-04-12T10:17:23Z</time></trkpt><trkpt lat="43.17522040241148" lon="11.814923002794584"><ele>252.39999999999998</ele><time>2026-04-12T10:17:24Z</time></trkpt><trkpt lat="43.17526969896709" lon="11.814788977361415"><ele>252.0</ele><time>2026-04-12T10:17:25Z</time></trkpt><trkpt lat="43.175323572625885" lon="11.814651784970644"><ele>252.0</ele><time>2026-04-12T10:17:26Z</time></trkpt><trkpt lat="43.17538564366477" lon="11.814517401212335"><ele>252.0</ele><time>2026-04-12T10:17:27Z</time></trkpt><trkpt lat="43.17545179335511" lon="11.81437842090503"><ele>252.0</ele><time>2026-04-12T10:17:28Z</time></trkpt><trkpt lat="43.17551836633912" lon="11.814240114720032"><ele>252.0</ele><time>2026-04-12T10:17:29Z</time></trkpt><trkpt lat="43.17557782450907" lon="11.814105921672459"><ele>252.0</ele><time>2026-04-12T10:17:30Z</time></trkpt><trkpt lat="43.17563913881541" lon="11.813972903138815"><ele>252.0</ele><time>2026-04-12T10:17:31Z</time></trkpt><trkpt lat="43.17569963837072" lon="11.813834177242889"><ele>252.0</ele><time>2026-04-12T10:17:32Z</time></trkpt><trkpt lat="43.1757620041691" lon="11.813691682769125"><ele>252.0</ele><time>2026-04-12T10:17:33Z</time></trkpt><trkpt lat="43.175827436538455" lon="11.81354697260492"><ele>252.0</ele><time>2026-04-12T10:17:34Z</time></trkpt><trkpt lat="43.17589223160092" lon="11.813412617861923"><ele>252.0</ele><time>2026-04-12T10:17:35Z</time></trkpt><trkpt lat="43.175959589134635" lon="11.813284507218993"><ele>252.0</ele><time>2026-04-12T10:17:36Z</time></trkpt><trkpt lat="43.176024976819306" lon="11.81315601121274"><ele>252.0</ele><time>2026-04-12T10:17:37Z</time></trkpt><trkpt lat="43.17608956840656" lon="11.813015969796814"><ele>252.0</ele><time>2026-04-12T10:17:38Z</time></trkpt><trkpt lat="43.1761528325706" lon="11.812890094115819"><ele>252.0</ele><time>2026-04-12T10:17:39Z</time></trkpt><trkpt lat="43.17621013788722" lon="11.812760845186832"><ele>252.0</ele><time>2026-04-12T10:17:40Z</time></trkpt><trkpt lat="43.17626712238571" lon="11.812651359476975"><ele>252.0</ele><time>2026-04-12T10:17:41Z</time></trkpt><trkpt lat="43.17632100436664" lon="11.812541570889142"><ele>252.0</ele><time>2026-04-12T10:17:42Z</time></trkpt><trkpt lat="43.1763720892373" lon="11.812423189895204"><ele>252.0</ele><time>2026-04-12T10:17:43Z</time></trkpt><trkpt lat="43.176450456176404" lon="11.812311103886671"><ele>252.0</ele><time>2026-04-12T10:17:44Z</time></trkpt><trkpt lat="43.17651133700371" lon="11.812183152700126"><ele>252.0</ele><time>2026-04-12T10:17:45Z</time></trkpt><trkpt lat="43.17655762648836" lon="11.812043716038495"><ele>252.0</ele><time>2026-04-12T10:17:46Z</time></trkpt><trkpt lat="43.17663497625904" lon="11.811916395278823"><ele>251.75</ele><time>2026-04-12T10:17:47Z</time></trkpt><trkpt lat="43.17669958705759" lon="11.811777839082055"><ele>251.5</ele><time>2026-04-12T10:17:48Z</time></trkpt><trkpt lat="43.176767508965426" lon="11.811634843441864"><ele>251.25</ele><time>2026-04-12T10:17:49Z</time></trkpt><trkpt lat="43.17683343170612" lon="11.811496056764037"><ele>251.0</ele><time>2026-04-12T10:17:50Z</time></trkpt><trkpt lat="43.176896416256426" lon="11.811363455450477"><ele>251.0</ele><time>2026-04-12T10:17:51Z</time></trkpt><trkpt lat="43.17695616519045" lon="11.811237665802354"><ele>251.00000000000003</ele><time>2026-04-12T10:17:52Z</time></trkpt><trkpt lat="43.17699573536172" lon="11.811113059376348"><ele>251.00000000000003</ele><time>2026-04-12T10:17:53Z</time></trkpt><trkpt lat="43.17704980161389" lon="11.811002571442305"><ele>251.0</ele><time>2026-04-12T10:17:54Z</time></trkpt><trkpt lat="43.17711308758921" lon="11.810907297669527"><ele>251.0</ele><time>2026-04-12T10:17:55.001Z</time></trkpt><trkpt lat="43.177148048062854" lon="11.810800058414051"><ele>251.16666666666669</ele><time>2026-04-12T10:17:56.001Z</time></trkpt><trkpt lat="43.17718380486693" lon="11.810710602603057"><ele>251.33333333333334</ele><time>2026-04-12T10:17:57.001Z</time></trkpt><trkpt lat="43.17723098232559" lon="11.810637709082364"><ele>251.5</ele><time>2026-04-12T10:17:58.001Z</time></trkpt><trkpt lat="43.17726093942249" lon="11.810518501611801"><ele>251.66666666666669</ele><time>2026-04-12T10:18:00.001Z</time></trkpt><trkpt lat="43.17732944247954" lon="11.810610129833849"><ele>251.83333333333334</ele><time>2026-04-12T10:18:05.001Z</time></trkpt><trkpt lat="43.17736761839682" lon="11.810754000116576"><ele>252.0</ele><time>2026-04-12T10:18:06.001Z</time></trkpt><trkpt lat="43.1774206327757" lon="11.81089803620749"><ele>251.66666666666669</ele><time>2026-04-12T10:18:07.001Z</time></trkpt><trkpt lat="43.17746759951855" lon="11.811084559489661"><ele>251.33333333333334</ele><time>2026-04-12T10:18:08.001Z</time></trkpt><trkpt lat="43.177519890144495" lon="11.811304840278378"><ele>251.0</ele><time>2026-04-12T10:18:09.001Z</time></trkpt><trkpt lat="43.17758129671737" lon="11.811539702989936"><ele>251.0</ele><time>2026-04-12T10:18:10.001Z</time></trkpt><trkpt lat="43.17764757373712" lon="11.811805792401925"><ele>251.0</ele><time>2026-04-12T10:18:11.001Z</time></trkpt><trkpt lat="43.1777117684881" lon="11.812049517592984"><ele>251.0</ele><time>2026-04-12T10:18:12.001Z</time></trkpt><trkpt lat="43.17776820803324" lon="11.81227856847663"><ele>251.33333333333334</ele><time>2026-04-12T10:18:13.001Z</time></trkpt><trkpt lat="43.17782399600902" lon="11.812502741556187"><ele>251.66666666666669</ele><time>2026-04-12T10:18:14.001Z</time></trkpt><trkpt lat="43.17787806242294" lon="11.812722890492632"><ele>252.0</ele><time>2026-04-12T10:18:15.001Z</time></trkpt><trkpt lat="43.17793068689648" lon="11.812935315205424"><ele>252.33333333333331</ele><time>2026-04-12T10:18:16.001Z</time></trkpt><trkpt lat="43.177982584051755" lon="11.81314035477459"><ele>252.66666666666666</ele><time>2026-04-12T10:18:17.001Z</time></trkpt><trkpt lat="43.17803662950596" lon="11.81334771992382"><ele>253.0</ele><time>2026-04-12T10:18:18.001Z</time></trkpt><trkpt lat="43.1780905830273" lon="11.813561627403907"><ele>253.0</ele><time>2026-04-12T10:18:19.001Z</time></trkpt><trkpt lat="43.178143456582376" lon="11.813771093389377"><ele>253.0</ele><time>2026-04-12T10:18:20.001Z</time></trkpt><trkpt lat="43.17819656716409" lon="11.813980435946066"><ele>253.0</ele><time>2026-04-12T10:18:21.001Z</time></trkpt><trkpt lat="43.178246057833356" lon="11.814188945791567"><ele>252.66666666666666</ele><time>2026-04-12T10:18:22.001Z</time></trkpt><trkpt lat="43.17829836184901" lon="11.8144030942728"><ele>252.33333333333331</ele><time>2026-04-12T10:18:23.001Z</time></trkpt><trkpt lat="43.17835405142781" lon="11.814617608525959"><ele>252.0</ele><time>2026-04-12T10:18:24.001Z</time></trkpt><trkpt lat="43.178412831323016" lon="11.814848736586434"><ele>252.0</ele><time>2026-04-12T10:18:25.001Z</time></trkpt><trkpt lat="43.17847133127876" lon="11.815081893311417"><ele>252.0</ele><time>2026-04-12T10:18:26.001Z</time></trkpt><trkpt lat="43.17853045325966" lon="11.815325856841428"><ele>252.0</ele><time>2026-04-12T10:18:27.001Z</time></trkpt><trkpt lat="43.17859017634291" lon="11.815570744387255"><ele>252.0</ele><time>2026-04-12T10:18:28.001Z</time></trkpt><trkpt lat="43.1786502409109" lon="11.815821402079594"><ele>252.0</ele><time>2026-04-12T10:18:29.001Z</time></trkpt><trkpt lat="43.17871140334489" lon="11.816073987919307"><ele>252.0</ele><time>2026-04-12T10:18:30.001Z</time></trkpt><trkpt lat="43.1787767346089" lon="11.816325023439653"><ele>252.0</ele><time>2026-04-12T10:18:31.001Z</time></trkpt><trkpt lat="43.17884232641356" lon="11.816576008397625"><ele>252.0</ele><time>2026-04-12T10:18:32.001Z</time></trkpt><trkpt lat="43.17890769897098" lon="11.816826081525246"><ele>252.0</ele><time>2026-04-12T10:18:33.001Z</time></trkpt><trkpt lat="43.17897158744078" lon="11.817064871835782"><ele>251.33333333333331</ele><time>2026-04-12T10:18:34.001Z</time></trkpt><trkpt lat="43.17903101137481" lon="11.817290617067007"><ele>250.66666666666666</ele><time>2026-04-12T10:18:35.001Z</time></trkpt><trkpt lat="43.17908918512446" lon="11.817516889955503"><ele>250.0</ele><time>2026-04-12T10:18:36.001Z</time></trkpt><trkpt lat="43.17914820875305" lon="11.817753319250016"><ele>250.0</ele><time>2026-04-12T10:18:37.001Z</time></trkpt><trkpt lat="43.179211982534504" lon="11.817994988414558"><ele>250.0</ele><time>2026-04-12T10:18:38.001Z</time></trkpt><trkpt lat="43.17927486141034" lon="11.81824479460734"><ele>250.0</ele><time>2026-04-12T10:18:39.001Z</time></trkpt><trkpt lat="43.17933708498784" lon="11.818495656873273"><ele>249.66666666666666</ele><time>2026-04-12T10:18:40.001Z</time></trkpt><trkpt lat="43.179396955358335" lon="11.81874831850809"><ele>249.33333333333331</ele><time>2026-04-12T10:18:41.001Z</time></trkpt><trkpt lat="43.179459934000576" lon="11.819003580906307"><ele>249.0</ele><time>2026-04-12T10:18:42.001Z</time></trkpt><trkpt lat="43.17952624477586" lon="11.81926121387401"><ele>249.33333333333331</ele><time>2026-04-12T10:18:43.001Z</time></trkpt><trkpt lat="43.17959363001452" lon="11.819519454574738"><ele>249.66666666666666</ele><time>2026-04-12T10:18:44.001Z</time></trkpt><trkpt lat="43.179660033609686" lon="11.819779845832317"><ele>250.0</ele><time>2026-04-12T10:18:45.001Z</time></trkpt><trkpt lat="43.1797270111302" lon="11.820042123514348"><ele>250.33333333333331</ele><time>2026-04-12T10:18:46.001Z</time></trkpt><trkpt lat="43.179795258564184" lon="11.8203063815878"><ele>250.66666666666669</ele><time>2026-04-12T10:18:47.001Z</time></trkpt><trkpt lat="43.179861499706526" lon="11.820574188855254"><ele>251.0</ele><time>2026-04-12T10:18:48.001Z</time></trkpt><trkpt lat="43.17992819585791" lon="11.820843305342468"><ele>251.33333333333334</ele><time>2026-04-12T10:18:49.001Z</time></trkpt><trkpt lat="43.179994624272965" lon="11.821111797993641"><ele>251.66666666666669</ele><time>2026-04-12T10:18:50.001Z</time></trkpt><trkpt lat="43.180063878456586" lon="11.821385434602684"><ele>252.0</ele><time>2026-04-12T10:18:51.001Z</time></trkpt><trkpt lat="43.18013174915851" lon="11.821658013104363"><ele>251.66666666666669</ele><time>2026-04-12T10:18:52.001Z</time></trkpt><trkpt lat="43.18020090227468" lon="11.821932315565208"><ele>251.33333333333334</ele><time>2026-04-12T10:18:53.001Z</time></trkpt><trkpt lat="43.18026937089574" lon="11.82220756269608"><ele>251.0</ele><time>2026-04-12T10:18:54Z</time></trkpt><trkpt lat="43.18034026231956" lon="11.822480249360556"><ele>251.0</ele><time>2026-04-12T10:18:55Z</time></trkpt><trkpt lat="43.180408457600834" lon="11.822755287998623"><ele>251.0</ele><time>2026-04-12T10:18:56Z</time></trkpt><trkpt lat="43.18047595950997" lon="11.82303210331296"><ele>251.0</ele><time>2026-04-12T10:18:57Z</time></trkpt><trkpt lat="43.1805429388397" lon="11.82330535163935"><ele>251.0</ele><time>2026-04-12T10:18:58Z</time></trkpt><trkpt lat="43.180610268478524" lon="11.823576659524305"><ele>251.0</ele><time>2026-04-12T10:18:59Z</time></trkpt><trkpt lat="43.18067645183522" lon="11.823841863049568"><ele>251.0</ele><time>2026-04-12T10:19:00Z</time></trkpt><trkpt lat="43.18074436791502" lon="11.824106628798177"><ele>251.33333333333334</ele><time>2026-04-12T10:19:01Z</time></trkpt><trkpt lat="43.18081293304296" lon="11.824369981834964"><ele>251.66666666666669</ele><time>2026-04-12T10:19:02Z</time></trkpt><trkpt lat="43.18087783417353" lon="11.824627998358707"><ele>252.0</ele><time>2026-04-12T10:19:03Z</time></trkpt><trkpt lat="43.18093644182875" lon="11.824872315663756"><ele>252.0</ele><time>2026-04-12T10:19:04Z</time></trkpt><trkpt lat="43.18098413881679" lon="11.825063940990256"><ele>252.0</ele><time>2026-04-12T10:19:05Z</time></trkpt><trkpt lat="43.18102160027048" lon="11.825208649548834"><ele>252.0</ele><time>2026-04-12T10:19:06Z</time></trkpt><trkpt lat="43.18105526115243" lon="11.82534506985001"><ele>252.0</ele><time>2026-04-12T10:19:07Z</time></trkpt><trkpt lat="43.18108809816222" lon="11.825476476129491"><ele>252.0</ele><time>2026-04-12T10:19:08Z</time></trkpt><trkpt lat="43.18112388846867" lon="11.82559522400333"><ele>252.0</ele><time>2026-04-12T10:19:09Z</time></trkpt><trkpt lat="43.18116167214505" lon="11.825701712902209"><ele>252.0</ele><time>2026-04-12T10:19:10Z</time></trkpt><trkpt lat="43.18120981971377" lon="11.8258038784156"><ele>252.0</ele><time>2026-04-12T10:19:11Z</time></trkpt><trkpt lat="43.18126262814391" lon="11.825902843306618"><ele>252.0</ele><time>2026-04-12T10:19:12Z</time></trkpt><trkpt lat="43.18131421222525" lon="11.825997032437256"><ele>252.0</ele><time>2026-04-12T10:19:13Z</time></trkpt><trkpt lat="43.18136061363461" lon="11.826080788432606"><ele>252.16666666666666</ele><time>2026-04-12T10:19:14Z</time></trkpt><trkpt lat="43.181387239997896" lon="11.826163410704183"><ele>252.33333333333331</ele><time>2026-04-12T10:19:15Z</time></trkpt><trkpt lat="43.18146585703483" lon="11.826253143605683"><ele>252.5</ele><time>2026-04-12T10:19:17Z</time></trkpt><trkpt lat="43.18154734845144" lon="11.826313730927215"><ele>252.66666666666666</ele><time>2026-04-12T10:19:19Z</time></trkpt><trkpt lat="43.18161041277926" lon="11.826310752999822"><ele>252.83333333333331</ele><time>2026-04-12T10:19:20Z</time></trkpt><trkpt lat="43.18167808177982" lon="11.826234747189247"><ele>253.0</ele><time>2026-04-12T10:19:21Z</time></trkpt><trkpt lat="43.18173208087927" lon="11.826165745246241"><ele>252.5</ele><time>2026-04-12T10:19:22Z</time></trkpt><trkpt lat="43.18179542282877" lon="11.826077466291338"><ele>252.0</ele><time>2026-04-12T10:19:23Z</time></trkpt><trkpt lat="43.181866802076584" lon="11.825943399884945"><ele>251.5</ele><time>2026-04-12T10:19:24Z</time></trkpt><trkpt lat="43.18196824864253" lon="11.82581068227464"><ele>251.0</ele><time>2026-04-12T10:19:25Z</time></trkpt><trkpt lat="43.182081418969" lon="11.825654617097765"><ele>251.0</ele><time>2026-04-12T10:19:26Z</time></trkpt><trkpt lat="43.182221998417425" lon="11.825453959377821"><ele>251.0</ele><time>2026-04-12T10:19:27Z</time></trkpt><trkpt lat="43.18238644678375" lon="11.825215998347929"><ele>251.0</ele><time>2026-04-12T10:19:28Z</time></trkpt><trkpt lat="43.18255732730294" lon="11.824966984250349"><ele>250.0</ele><time>2026-04-12T10:19:29Z</time></trkpt><trkpt lat="43.18273486543731" lon="11.824705980896345"><ele>249.0</ele><time>2026-04-12T10:19:30Z</time></trkpt><trkpt lat="43.182930676652425" lon="11.8244112847813"><ele>249.0</ele><time>2026-04-12T10:19:31Z</time></trkpt><trkpt lat="43.183126690172365" lon="11.824139941662981"><ele>249.0</ele><time>2026-04-12T10:19:32Z</time></trkpt><trkpt lat="43.18328956699439" lon="11.823898450664291"><ele>248.66666666666669</ele><time>2026-04-12T10:19:33Z</time></trkpt><trkpt lat="43.18344468988949" lon="11.823667580424921"><ele>248.33333333333334</ele><time>2026-04-12T10:19:34Z</time></trkpt><trkpt lat="43.183590242384646" lon="11.823455246475373"><ele>248.0</ele><time>2026-04-12T10:19:35Z</time></trkpt><trkpt lat="43.18373806941257" lon="11.823239855132385"><ele>248.0</ele><time>2026-04-12T10:19:36Z</time></trkpt><trkpt lat="43.183891134104435" lon="11.823020604002911"><ele>248.0</ele><time>2026-04-12T10:19:37Z</time></trkpt><trkpt lat="43.184047857848434" lon="11.82279914592989"><ele>248.0</ele><time>2026-04-12T10:19:38Z</time></trkpt><trkpt lat="43.184202457987865" lon="11.822575956403456"><ele>248.66666666666669</ele><time>2026-04-12T10:19:39Z</time></trkpt><trkpt lat="43.18435870391205" lon="11.822351672789996"><ele>249.33333333333331</ele><time>2026-04-12T10:19:40Z</time></trkpt><trkpt lat="43.18451207458326" lon="11.82212925762549"><ele>250.0</ele><time>2026-04-12T10:19:41Z</time></trkpt><trkpt lat="43.18466678091408" lon="11.821903204146027"><ele>250.5</ele><time>2026-04-12T10:19:42Z</time></trkpt><trkpt lat="43.184824096408654" lon="11.8216703609981"><ele>251.0</ele><time>2026-04-12T10:19:43Z</time></trkpt><trkpt lat="43.184988875655854" lon="11.82142728714211"><ele>251.0</ele><time>2026-04-12T10:19:44Z</time></trkpt><trkpt lat="43.185161966529556" lon="11.821172338584242"><ele>251.0</ele><time>2026-04-12T10:19:45Z</time></trkpt><trkpt lat="43.185339903976924" lon="11.820912123332459"><ele>251.0</ele><time>2026-04-12T10:19:46Z</time></trkpt><trkpt lat="43.185519382769066" lon="11.820649227209339"><ele>251.0</ele><time>2026-04-12T10:19:47Z</time></trkpt><trkpt lat="43.18570010519866" lon="11.820386157492083"><ele>250.5</ele><time>2026-04-12T10:19:48Z</time></trkpt><trkpt lat="43.185878207803114" lon="11.820125706728504"><ele>250.0</ele><time>2026-04-12T10:19:49Z</time></trkpt><trkpt lat="43.18605941514303" lon="11.819860846100159"><ele>250.0</ele><time>2026-04-12T10:19:50Z</time></trkpt><trkpt lat="43.186239592726935" lon="11.819597793058485"><ele>250.0</ele><time>2026-04-12T10:19:51Z</time></trkpt><trkpt lat="43.186420662884466" lon="11.819338530889473"><ele>250.0</ele><time>2026-04-12T10:19:52Z</time></trkpt><trkpt lat="43.18660057824983" lon="11.819077739321303"><ele>250.0</ele><time>2026-04-12T10:19:53Z</time></trkpt><trkpt lat="43.18677989307116" lon="11.818819858950105"><ele>250.0</ele><time>2026-04-12T10:19:54Z</time></trkpt><trkpt lat="43.18696130538514" lon="11.81856123563478"><ele>250.0</ele><time>2026-04-12T10:19:55Z</time></trkpt><trkpt lat="43.18714031770674" lon="11.81830418106992"><ele>249.5</ele><time>2026-04-12T10:19:56Z</time></trkpt><trkpt lat="43.187322558005626" lon="11.818043509951423"><ele>249.0</ele><time>2026-04-12T10:19:57Z</time></trkpt><trkpt lat="43.18750715174308" lon="11.817775320109742"><ele>249.0</ele><time>2026-04-12T10:19:58Z</time></trkpt><trkpt lat="43.187691059866594" lon="11.817509343617584"><ele>249.0</ele><time>2026-04-12T10:19:59Z</time></trkpt><trkpt lat="43.187871206469" lon="11.81724528930892"><ele>249.0</ele><time>2026-04-12T10:20:00Z</time></trkpt><trkpt lat="43.1880383335389" lon="11.81699859852247"><ele>249.0</ele><time>2026-04-12T10:20:01Z</time></trkpt><trkpt lat="43.18820393759671" lon="11.816758569703739"><ele>249.0</ele><time>2026-04-12T10:20:02Z</time></trkpt><trkpt lat="43.18836963704046" lon="11.816516488197056"><ele>249.0</ele><time>2026-04-12T10:20:03Z</time></trkpt><trkpt lat="43.18853663177177" lon="11.816277110793541"><ele>249.0</ele><time>2026-04-12T10:20:04Z</time></trkpt><trkpt lat="43.18870360288639" lon="11.81603566377707"><ele>249.0</ele><time>2026-04-12T10:20:05Z</time></trkpt><trkpt lat="43.18887305962629" lon="11.815792103299527"><ele>249.5</ele><time>2026-04-12T10:20:06Z</time></trkpt><trkpt lat="43.18904473044751" lon="11.815541564549575"><ele>250.0</ele><time>2026-04-12T10:20:07Z</time></trkpt><trkpt lat="43.1892093665909" lon="11.815303039421579"><ele>250.0</ele><time>2026-04-12T10:20:08Z</time></trkpt><trkpt lat="43.189357056003466" lon="11.815087407826132"><ele>250.0</ele><time>2026-04-12T10:20:09Z</time></trkpt><trkpt lat="43.189496420040754" lon="11.814883344194925"><ele>250.0</ele><time>2026-04-12T10:20:10Z</time></trkpt><trkpt lat="43.18963538168072" lon="11.814681651971586"><ele>250.0</ele><time>2026-04-12T10:20:11.001Z</time></trkpt><trkpt lat="43.18977920997718" lon="11.814470332827577"><ele>250.0</ele><time>2026-04-12T10:20:12.001Z</time></trkpt><trkpt lat="43.189924774336774" lon="11.81425729413439"><ele>250.0</ele><time>2026-04-12T10:20:13.001Z</time></trkpt><trkpt lat="43.19006441551998" lon="11.814048880006293"><ele>250.0</ele><time>2026-04-12T10:20:14.001Z</time></trkpt><trkpt lat="43.19019408835443" lon="11.813856690578971"><ele>250.0</ele><time>2026-04-12T10:20:15.001Z</time></trkpt><trkpt lat="43.190327128736456" lon="11.813659377810152"><ele>250.0</ele><time>2026-04-12T10:20:16.001Z</time></trkpt><trkpt lat="43.190460724379356" lon="11.813462135846196"><ele>250.0</ele><time>2026-04-12T10:20:17.001Z</time></trkpt><trkpt lat="43.190586767534185" lon="11.81327900754619"><ele>250.0</ele><time>2026-04-12T10:20:18.001Z</time></trkpt><trkpt lat="43.19071273259562" lon="11.813101850697292"><ele>250.0</ele><time>2026-04-12T10:20:19.001Z</time></trkpt><trkpt lat="43.19083311169357" lon="11.812927399542714"><ele>250.25</ele><time>2026-04-12T10:20:20.001Z</time></trkpt><trkpt lat="43.19093470358037" lon="11.812772355834483"><ele>250.5</ele><time>2026-04-12T10:20:21.001Z</time></trkpt><trkpt lat="43.19102021461756" lon="11.812646746151426"><ele>250.75</ele><time>2026-04-12T10:20:22.001Z</time></trkpt><trkpt lat="43.191089206005316" lon="11.812537957093635"><ele>251.0</ele><time>2026-04-12T10:20:23.001Z</time></trkpt><trkpt lat="43.19114546722966" lon="11.812454130378157"><ele>251.00000000000003</ele><time>2026-04-12T10:20:24.001Z</time></trkpt><trkpt lat="43.19118976951779" lon="11.812382700908762"><ele>251.0</ele><time>2026-04-12T10:20:25.001Z</time></trkpt><trkpt lat="43.19124604368428" lon="11.812302604085078"><ele>251.0</ele><time>2026-04-12T10:20:27.001Z</time></trkpt><trkpt lat="43.191301568322565" lon="11.812231675148519"><ele>251.0</ele><time>2026-04-12T10:20:30.001Z</time></trkpt><trkpt lat="43.19136281652463" lon="11.81216005827248"><ele>251.00000000000003</ele><time>2026-04-12T10:20:31.001Z</time></trkpt><trkpt lat="43.191424149668784" lon="11.81207726167132"><ele>251.0</ele><time>2026-04-12T10:20:32.001Z</time></trkpt><trkpt lat="43.191510520385854" lon="11.811968174970255"><ele>251.0</ele><time>2026-04-12T10:20:33.001Z</time></trkpt><trkpt lat="43.19162053706305" lon="11.811827209443052"><ele>251.0</ele><time>2026-04-12T10:20:34.001Z</time></trkpt><trkpt lat="43.19171787054279" lon="11.811664067699835"><ele>251.0</ele><time>2026-04-12T10:20:35.001Z</time></trkpt><trkpt lat="43.19180828707428" lon="11.811484290260513"><ele>251.0</ele><time>2026-04-12T10:20:36.001Z</time></trkpt><trkpt lat="43.19189150356122" lon="11.81127121986906"><ele>251.0</ele><time>2026-04-12T10:20:37.001Z</time></trkpt><trkpt lat="43.19197549067349" lon="11.811014024284317"><ele>251.0</ele><time>2026-04-12T10:20:38.001Z</time></trkpt><trkpt lat="43.19206104680213" lon="11.810743158653915"><ele>252.0</ele><time>2026-04-12T10:20:39.001Z</time></trkpt><trkpt lat="43.19214016638186" lon="11.810480904117899"><ele>253.0</ele><time>2026-04-12T10:20:40.001Z</time></trkpt><trkpt lat="43.19221379740829" lon="11.810229716379293"><ele>254.0</ele><time>2026-04-12T10:20:41.001Z</time></trkpt><trkpt lat="43.192285498618766" lon="11.809989002073566"><ele>253.66666666666669</ele><time>2026-04-12T10:20:42.001Z</time></trkpt><trkpt lat="43.19235882859064" lon="11.809745936009032"><ele>253.33333333333331</ele><time>2026-04-12T10:20:43.001Z</time></trkpt><trkpt lat="43.19243459185705" lon="11.809513903560127"><ele>253.0</ele><time>2026-04-12T10:20:44.001Z</time></trkpt><trkpt lat="43.19250899384605" lon="11.80928793230302"><ele>253.0</ele><time>2026-04-12T10:20:45.001Z</time></trkpt><trkpt lat="43.19258281386488" lon="11.80907905430335"><ele>253.0</ele><time>2026-04-12T10:20:46.001Z</time></trkpt><trkpt lat="43.19265681764289" lon="11.808869097870444"><ele>253.0</ele><time>2026-04-12T10:20:47.001Z</time></trkpt><trkpt lat="43.19273020049981" lon="11.808661915677423"><ele>253.66666666666666</ele><time>2026-04-12T10:20:48.001Z</time></trkpt><trkpt lat="43.19280153268864" lon="11.808456078575142"><ele>254.33333333333331</ele><time>2026-04-12T10:20:49.001Z</time></trkpt><trkpt lat="43.19287037084116" lon="11.80825582887841"><ele>255.0</ele><time>2026-04-12T10:20:50.001Z</time></trkpt><trkpt lat="43.19293231346701" lon="11.808071236120197"><ele>255.0</ele><time>2026-04-12T10:20:51.001Z</time></trkpt><trkpt lat="43.19299011643286" lon="11.807890021655583"><ele>255.0</ele><time>2026-04-12T10:20:52.001Z</time></trkpt><trkpt lat="43.193044054315166" lon="11.807721361605807"><ele>255.0</ele><time>2026-04-12T10:20:53.001Z</time></trkpt><trkpt lat="43.19309061565457" lon="11.8075564151288"><ele>255.0</ele><time>2026-04-12T10:20:54.001Z</time></trkpt><trkpt lat="43.19313436567185" lon="11.807405769786305"><ele>255.0</ele><time>2026-04-12T10:20:55.001Z</time></trkpt><trkpt lat="43.19316852945263" lon="11.807263004845948"><ele>255.0</ele><time>2026-04-12T10:20:56.001Z</time></trkpt><trkpt lat="43.193183337868206" lon="11.807122520913957"><ele>255.0</ele><time>2026-04-12T10:20:57.001Z</time></trkpt><trkpt lat="43.19317776810539" lon="11.806966011642322"><ele>255.0</ele><time>2026-04-12T10:20:58.001Z</time></trkpt><trkpt lat="43.193147431209624" lon="11.806780711727694"><ele>255.0</ele><time>2026-04-12T10:20:59.001Z</time></trkpt><trkpt lat="43.19311426682394" lon="11.806594995307883"><ele>255.0</ele><time>2026-04-12T10:21:00Z</time></trkpt><trkpt lat="43.19308910057693" lon="11.806418374399732"><ele>255.0</ele><time>2026-04-12T10:21:01Z</time></trkpt><trkpt lat="43.19306316334766" lon="11.806247100752348"><ele>255.0</ele><time>2026-04-12T10:21:02Z</time></trkpt><trkpt lat="43.19304557723664" lon="11.806095937359144"><ele>254.83333333333334</ele><time>2026-04-12T10:21:03Z</time></trkpt><trkpt lat="43.19302073935101" lon="11.805985977131293"><ele>254.66666666666669</ele><time>2026-04-12T10:21:04Z</time></trkpt><trkpt lat="43.193042949930046" lon="11.80585895888516"><ele>254.5</ele><time>2026-04-12T10:21:06Z</time></trkpt><trkpt lat="43.19313458796837" lon="11.805858006260884"><ele>254.33333333333334</ele><time>2026-04-12T10:21:09Z</time></trkpt><trkpt lat="43.19320451591056" lon="11.805894451168589"><ele>254.16666666666669</ele><time>2026-04-12T10:21:10Z</time></trkpt><trkpt lat="43.193283201666965" lon="11.805945188977109"><ele>254.0</ele><time>2026-04-12T10:21:11Z</time></trkpt><trkpt lat="43.193364123995266" lon="11.805977806467446"><ele>253.79999999999998</ele><time>2026-04-12T10:21:12Z</time></trkpt><trkpt lat="43.19345002204453" lon="11.806028499627212"><ele>253.59999999999997</ele><time>2026-04-12T10:21:13Z</time></trkpt><trkpt lat="43.193547836675684" lon="11.80607802581889"><ele>253.4</ele><time>2026-04-12T10:21:14Z</time></trkpt><trkpt lat="43.19365779336487" lon="11.806132170355903"><ele>253.2</ele><time>2026-04-12T10:21:15Z</time></trkpt><trkpt lat="43.193772285352885" lon="11.806190856056093"><ele>253.0</ele><time>2026-04-12T10:21:16Z</time></trkpt><trkpt lat="43.19389055141312" lon="11.806259964523633"><ele>253.0</ele><time>2026-04-12T10:21:17Z</time></trkpt><trkpt lat="43.19401313269453" lon="11.806331540695888"><ele>253.0</ele><time>2026-04-12T10:21:18Z</time></trkpt><trkpt lat="43.19414050594159" lon="11.806409655190997"><ele>253.0</ele><time>2026-04-12T10:21:19Z</time></trkpt><trkpt lat="43.1942712409151" lon="11.80648969640914"><ele>253.0</ele><time>2026-04-12T10:21:20Z</time></trkpt><trkpt lat="43.19439618516938" lon="11.806566183065703"><ele>253.0</ele><time>2026-04-12T10:21:21Z</time></trkpt><trkpt lat="43.194509834925306" lon="11.806636197818762"><ele>253.0</ele><time>2026-04-12T10:21:22Z</time></trkpt><trkpt lat="43.194600602180564" lon="11.806697815475598"><ele>253.0</ele><time>2026-04-12T10:21:23Z</time></trkpt><trkpt lat="43.19467453808329" lon="11.806744931147772"><ele>253.0</ele><time>2026-04-12T10:21:24Z</time></trkpt><trkpt lat="43.19477322305311" lon="11.806802352435243"><ele>253.0</ele><time>2026-04-12T10:21:26Z</time></trkpt><trkpt lat="43.19483893033134" lon="11.806834287528424"><ele>253.0</ele><time>2026-04-12T10:21:28Z</time></trkpt><trkpt lat="43.194897886274205" lon="11.806883801330642"><ele>253.0</ele><time>2026-04-12T10:21:39Z</time></trkpt><trkpt lat="43.195019044012604" lon="11.80697541197724"><ele>253.0</ele><time>2026-04-12T10:21:41Z</time></trkpt><trkpt lat="43.195135020939595" lon="11.807029604478174"><ele>253.0</ele><time>2026-04-12T10:21:42Z</time></trkpt><trkpt lat="43.195276127710976" lon="11.807087801339991"><ele>253.0</ele><time>2026-04-12T10:21:43Z</time></trkpt><trkpt lat="43.195423799432206" lon="11.807147558031444"><ele>253.0</ele><time>2026-04-12T10:21:44Z</time></trkpt><trkpt lat="43.195562123048596" lon="11.807205029625392"><ele>253.0</ele><time>2026-04-12T10:21:45Z</time></trkpt><trkpt lat="43.19569609534536" lon="11.807258623331617"><ele>253.0</ele><time>2026-04-12T10:21:46Z</time></trkpt><trkpt lat="43.19582740978068" lon="11.807311700269446"><ele>252.75</ele><time>2026-04-12T10:21:47Z</time></trkpt><trkpt lat="43.19595700811489" lon="11.807366910177999"><ele>252.5</ele><time>2026-04-12T10:21:48Z</time></trkpt><trkpt lat="43.19608877741764" lon="11.80741674185285"><ele>252.25</ele><time>2026-04-12T10:21:49Z</time></trkpt><trkpt lat="43.19621987209292" lon="11.807464420602734"><ele>252.0</ele><time>2026-04-12T10:21:50Z</time></trkpt><trkpt lat="43.196349588486676" lon="11.807508130959485"><ele>252.0</ele><time>2026-04-12T10:21:51Z</time></trkpt><trkpt lat="43.19648066272745" lon="11.807549368229362"><ele>252.0</ele><time>2026-04-12T10:21:52Z</time></trkpt><trkpt lat="43.1966150162279" lon="11.807578307731438"><ele>252.0</ele><time>2026-04-12T10:21:53Z</time></trkpt><trkpt lat="43.196755202193906" lon="11.807587353850506"><ele>252.0</ele><time>2026-04-12T10:21:54Z</time></trkpt><trkpt lat="43.196897882571605" lon="11.807593782040803"><ele>252.75</ele><time>2026-04-12T10:21:55Z</time></trkpt><trkpt lat="43.19703717394622" lon="11.807595138915396"><ele>253.5</ele><time>2026-04-12T10:21:56Z</time></trkpt><trkpt lat="43.197171694143194" lon="11.807597074862157"><ele>254.25</ele><time>2026-04-12T10:21:57Z</time></trkpt><trkpt lat="43.19730867858047" lon="11.807599076556246"><ele>255.0</ele><time>2026-04-12T10:21:58Z</time></trkpt><trkpt lat="43.19744834795554" lon="11.807601401855731"><ele>256.5</ele><time>2026-04-12T10:21:59Z</time></trkpt><trkpt lat="43.19758681682057" lon="11.807605082340716"><ele>258.0</ele><time>2026-04-12T10:22:00Z</time></trkpt><trkpt lat="43.19772619990961" lon="11.807607852185187"><ele>259.5</ele><time>2026-04-12T10:22:01Z</time></trkpt><trkpt lat="43.19786402001086" lon="11.807614426605918"><ele>261.0</ele><time>2026-04-12T10:22:02Z</time></trkpt><trkpt lat="43.198007693903875" lon="11.807623887195538"><ele>261.0</ele><time>2026-04-12T10:22:03Z</time></trkpt><trkpt lat="43.198151367218856" lon="11.807640681547774"><ele>261.0</ele><time>2026-04-12T10:22:04Z</time></trkpt><trkpt lat="43.198294600486015" lon="11.80766085160824"><ele>261.0</ele><time>2026-04-12T10:22:05Z</time></trkpt><trkpt lat="43.19843887896632" lon="11.80768201336174"><ele>261.0</ele><time>2026-04-12T10:22:06Z</time></trkpt><trkpt lat="43.198587556361865" lon="11.807704246254705"><ele>262.5</ele><time>2026-04-12T10:22:07Z</time></trkpt><trkpt lat="43.198736641848186" lon="11.80772659591402"><ele>264.0</ele><time>2026-04-12T10:22:08Z</time></trkpt><trkpt lat="43.198886276426336" lon="11.807748400292247"><ele>265.5</ele><time>2026-04-12T10:22:09Z</time></trkpt><trkpt lat="43.19903308858243" lon="11.80777174432832"><ele>267.0</ele><time>2026-04-12T10:22:10Z</time></trkpt><trkpt lat="43.19916225778219" lon="11.807789143399189"><ele>268.4</ele><time>2026-04-12T10:22:11Z</time></trkpt><trkpt lat="43.19927144121417" lon="11.807807134934759"><ele>269.79999999999995</ele><time>2026-04-12T10:22:12Z</time></trkpt><trkpt lat="43.19938039980947" lon="11.80782760342025"><ele>271.2</ele><time>2026-04-12T10:22:13Z</time></trkpt><trkpt lat="43.19947881671713" lon="11.807848675906822"><ele>272.59999999999997</ele><time>2026-04-12T10:22:14.001Z</time></trkpt><trkpt lat="43.199559822762765" lon="11.807868420244892"><ele>274.0</ele><time>2026-04-12T10:22:15.001Z</time></trkpt><trkpt lat="43.19966104618256" lon="11.807902488007104"><ele>274.0</ele><time>2026-04-12T10:22:17.001Z</time></trkpt><trkpt lat="43.19973675250561" lon="11.807909109493277"><ele>274.0</ele><time>2026-04-12T10:23:07.999Z</time></trkpt><trkpt lat="43.19988133679455" lon="11.807894405206692"><ele>274.0</ele><time>2026-04-12T10:23:09.999Z</time></trkpt><trkpt lat="43.19999740778822" lon="11.807877908806454"><ele>274.0</ele><time>2026-04-12T10:23:10.999Z</time></trkpt><trkpt lat="43.20013800720847" lon="11.807856859244174"><ele>275.5</ele><time>2026-04-12T10:23:11.999Z</time></trkpt><trkpt lat="43.20025644789604" lon="11.807807820524877"><ele>277.0</ele><time>2026-04-12T10:23:12.999Z</time></trkpt><trkpt lat="43.200367741578766" lon="11.807718695785617"><ele>278.5</ele><time>2026-04-12T10:23:13.999Z</time></trkpt><trkpt lat="43.200499331962064" lon="11.807585489773091"><ele>280.0</ele><time>2026-04-12T10:23:14.999Z</time></trkpt><trkpt lat="43.20062828219483" lon="11.807427746469738"><ele>281.0</ele><time>2026-04-12T10:23:15.999Z</time></trkpt><trkpt lat="43.20074606903734" lon="11.807297584377192"><ele>282.0</ele><time>2026-04-12T10:23:16.999Z</time></trkpt><trkpt lat="43.20085993722955" lon="11.807180260116356"><ele>283.0</ele><time>2026-04-12T10:23:17.999Z</time></trkpt><trkpt lat="43.2009760683595" lon="11.80706035537276"><ele>284.0</ele><time>2026-04-12T10:23:18.999Z</time></trkpt><trkpt lat="43.20109462888451" lon="11.806928116323242"><ele>283.0</ele><time>2026-04-12T10:23:19.999Z</time></trkpt><trkpt lat="43.20121645071553" lon="11.80679671201274"><ele>282.0</ele><time>2026-04-12T10:23:20.999Z</time></trkpt><trkpt lat="43.20134153370613" lon="11.806662407612102"><ele>281.0</ele><time>2026-04-12T10:23:21.999Z</time></trkpt><trkpt lat="43.201473422734345" lon="11.806529296837505"><ele>281.75</ele><time>2026-04-12T10:23:22.999Z</time></trkpt><trkpt lat="43.20159401458681" lon="11.806405769576658"><ele>282.5</ele><time>2026-04-12T10:23:23.999Z</time></trkpt><trkpt lat="43.2017096744667" lon="11.806277962363357"><ele>283.25</ele><time>2026-04-12T10:23:24.999Z</time></trkpt><trkpt lat="43.20182428550735" lon="11.806150383765548"><ele>284.0</ele><time>2026-04-12T10:23:25.999Z</time></trkpt><trkpt lat="43.20194514101132" lon="11.806031997774372"><ele>283.5</ele><time>2026-04-12T10:23:26.999Z</time></trkpt><trkpt lat="43.20205554745664" lon="11.805911612477152"><ele>283.0</ele><time>2026-04-12T10:23:28Z</time></trkpt><trkpt lat="43.20215296245482" lon="11.805785589749552"><ele>282.5</ele><time>2026-04-12T10:23:29Z</time></trkpt><trkpt lat="43.202227247919694" lon="11.805638340370612"><ele>282.0</ele><time>2026-04-12T10:23:30Z</time></trkpt><trkpt lat="43.202274825847894" lon="11.8054612564703"><ele>282.0</ele><time>2026-04-12T10:23:31Z</time></trkpt><trkpt lat="43.2023085060716" lon="11.80526947728061"><ele>282.0</ele><time>2026-04-12T10:23:32Z</time></trkpt><trkpt lat="43.202319119609946" lon="11.805066309870119"><ele>282.0</ele><time>2026-04-12T10:23:33Z</time></trkpt><trkpt lat="43.20232584934823" lon="11.804862422426979"><ele>282.0</ele><time>2026-04-12T10:23:34Z</time></trkpt><trkpt lat="43.20233600669218" lon="11.804655096035674"><ele>283.6666666666667</ele><time>2026-04-12T10:23:35Z</time></trkpt><trkpt lat="43.20235620548388" lon="11.804447130002286"><ele>285.33333333333337</ele><time>2026-04-12T10:23:36Z</time></trkpt><trkpt lat="43.202380032054734" lon="11.80423943001123"><ele>287.0</ele><time>2026-04-12T10:23:37Z</time></trkpt><trkpt lat="43.20240505593257" lon="11.80403785553819"><ele>288.0</ele><time>2026-04-12T10:23:38Z</time></trkpt><trkpt lat="43.202436883611384" lon="11.803845715748865"><ele>289.0</ele><time>2026-04-12T10:23:39Z</time></trkpt><trkpt lat="43.202488306571134" lon="11.803664035904164"><ele>290.0</ele><time>2026-04-12T10:23:40Z</time></trkpt><trkpt lat="43.20257352191816" lon="11.80350496056744"><ele>291.0</ele><time>2026-04-12T10:23:41Z</time></trkpt><trkpt lat="43.20267621976464" lon="11.803368638764464"><ele>291.0</ele><time>2026-04-12T10:23:42Z</time></trkpt><trkpt lat="43.20282041977082" lon="11.803292624566003"><ele>291.0</ele><time>2026-04-12T10:23:43Z</time></trkpt><trkpt lat="43.202947980004325" lon="11.803182206262555"><ele>291.0</ele><time>2026-04-12T10:23:44Z</time></trkpt><trkpt lat="43.20308583274428" lon="11.80308591842124"><ele>292.0</ele><time>2026-04-12T10:23:45Z</time></trkpt><trkpt lat="43.20322672985236" lon="11.802993838400797"><ele>293.0</ele><time>2026-04-12T10:23:46Z</time></trkpt><trkpt lat="43.20337476778098" lon="11.802917383309325"><ele>294.0</ele><time>2026-04-12T10:23:47Z</time></trkpt><trkpt lat="43.20353436651055" lon="11.802873486358555"><ele>294.0</ele><time>2026-04-12T10:23:48Z</time></trkpt><trkpt lat="43.20370072863615" lon="11.80285339780704"><ele>294.0</ele><time>2026-04-12T10:23:49Z</time></trkpt><trkpt lat="43.20386912936744" lon="11.802852156665123"><ele>294.0</ele><time>2026-04-12T10:23:50Z</time></trkpt><trkpt lat="43.20403455881514" lon="11.80287272443091"><ele>294.6666666666667</ele><time>2026-04-12T10:23:51Z</time></trkpt><trkpt lat="43.204195371198864" lon="11.802907076832408"><ele>295.33333333333337</ele><time>2026-04-12T10:23:52Z</time></trkpt><trkpt lat="43.20435386562407" lon="11.802951905418926"><ele>296.0</ele><time>2026-04-12T10:23:53Z</time></trkpt><trkpt lat="43.20450319905694" lon="11.802997900536052"><ele>296.0</ele><time>2026-04-12T10:23:54Z</time></trkpt><trkpt lat="43.20463398345685" lon="11.803057100030294"><ele>296.0</ele><time>2026-04-12T10:23:55Z</time></trkpt><trkpt lat="43.204744879955605" lon="11.803131391568831"><ele>296.0</ele><time>2026-04-12T10:23:56Z</time></trkpt><trkpt lat="43.20485629269219" lon="11.803180043515011"><ele>296.0</ele><time>2026-04-12T10:23:57Z</time></trkpt><trkpt lat="43.20499049439641" lon="11.80316206459259"><ele>295.75</ele><time>2026-04-12T10:23:58Z</time></trkpt><trkpt lat="43.20512693834137" lon="11.803126776505827"><ele>295.5</ele><time>2026-04-12T10:23:59Z</time></trkpt><trkpt lat="43.20526125711722" lon="11.803098370884193"><ele>295.25</ele><time>2026-04-12T10:24:00Z</time></trkpt><trkpt lat="43.20540504347903" lon="11.803083605628835"><ele>295.0</ele><time>2026-04-12T10:24:01Z</time></trkpt><trkpt lat="43.2055444578965" lon="11.803066670232509"><ele>295.5</ele><time>2026-04-12T10:24:02Z</time></trkpt><trkpt lat="43.205684264778405" lon="11.80304789554619"><ele>296.0</ele><time>2026-04-12T10:24:03Z</time></trkpt><trkpt lat="43.20581632648878" lon="11.803027904930586"><ele>296.5</ele><time>2026-04-12T10:24:04Z</time></trkpt><trkpt lat="43.205935262053664" lon="11.803017157008458"><ele>297.0</ele><time>2026-04-12T10:24:05Z</time></trkpt><trkpt lat="43.206038658590224" lon="11.803006206381664"><ele>297.0</ele><time>2026-04-12T10:24:06Z</time></trkpt><trkpt lat="43.20613589702122" lon="11.80299315181509"><ele>297.0</ele><time>2026-04-12T10:24:07Z</time></trkpt><trkpt lat="43.20622439828316" lon="11.802981566787603"><ele>297.0</ele><time>2026-04-12T10:24:08Z</time></trkpt><trkpt lat="43.20629964475759" lon="11.802972527616555"><ele>297.0</ele><time>2026-04-12T10:24:09Z</time></trkpt><trkpt lat="43.20641637073206" lon="11.802953676276507"><ele>297.0</ele><time>2026-04-12T10:24:11Z</time></trkpt><trkpt lat="43.20648887936482" lon="11.802792848851452"><ele>297.0</ele><time>2026-04-12T10:24:13Z</time></trkpt><trkpt lat="43.2065173906127" lon="11.802677999160325"><ele>297.0</ele><time>2026-04-12T10:24:14Z</time></trkpt><trkpt lat="43.20653828553739" lon="11.8025366141933"><ele>297.0</ele><time>2026-04-12T10:24:15Z</time></trkpt><trkpt lat="43.20656469414543" lon="11.80239300059569"><ele>297.0</ele><time>2026-04-12T10:24:16Z</time></trkpt><trkpt lat="43.206593282235396" lon="11.802239233003657"><ele>297.0</ele><time>2026-04-12T10:24:17Z</time></trkpt><trkpt lat="43.20662715382134" lon="11.802073057968116"><ele>295.0</ele><time>2026-04-12T10:24:18Z</time></trkpt><trkpt lat="43.206661121894975" lon="11.801895710660858"><ele>293.0</ele><time>2026-04-12T10:24:19Z</time></trkpt><trkpt lat="43.20669594974401" lon="11.80171530399014"><ele>291.0</ele><time>2026-04-12T10:24:20Z</time></trkpt><trkpt lat="43.20672988163349" lon="11.801535124929648"><ele>289.0</ele><time>2026-04-12T10:24:21Z</time></trkpt><trkpt lat="43.20676404325271" lon="11.801348844561966"><ele>288.25</ele><time>2026-04-12T10:24:22Z</time></trkpt><trkpt lat="43.20679623024478" lon="11.801165812606458"><ele>287.5</ele><time>2026-04-12T10:24:23Z</time></trkpt><trkpt lat="43.206831358174526" lon="11.800989509198349"><ele>286.75</ele><time>2026-04-12T10:24:24Z</time></trkpt><trkpt lat="43.20686689778918" lon="11.800820771601494"><ele>286.0</ele><time>2026-04-12T10:24:25Z</time></trkpt><trkpt lat="43.2069075714485" lon="11.80065454506308"><ele>285.0</ele><time>2026-04-12T10:24:26Z</time></trkpt><trkpt lat="43.20695644485566" lon="11.80049008717904"><ele>284.0</ele><time>2026-04-12T10:24:27Z</time></trkpt><trkpt lat="43.2070178618927" lon="11.80032404219738"><ele>283.0</ele><time>2026-04-12T10:24:28Z</time></trkpt><trkpt lat="43.207086342084104" lon="11.800154364219683"><ele>282.0</ele><time>2026-04-12T10:24:29Z</time></trkpt><trkpt lat="43.20715540504588" lon="11.79998490520522"><ele>281.75</ele><time>2026-04-12T10:24:30Z</time></trkpt><trkpt lat="43.20722123118061" lon="11.799808591519074"><ele>281.5</ele><time>2026-04-12T10:24:31Z</time></trkpt><trkpt lat="43.20728710569047" lon="11.799628905019986"><ele>281.25</ele><time>2026-04-12T10:24:32Z</time></trkpt><trkpt lat="43.20735075105908" lon="11.799459241225456"><ele>281.0</ele><time>2026-04-12T10:24:33Z</time></trkpt><trkpt lat="43.2073959543667" lon="11.799319470712737"><ele>280.0</ele><time>2026-04-12T10:24:34Z</time></trkpt><trkpt lat="43.20743389970212" lon="11.799196705122242"><ele>279.0</ele><time>2026-04-12T10:24:35Z</time></trkpt><trkpt lat="43.207471995559935" lon="11.799060794302733"><ele>278.0</ele><time>2026-04-12T10:24:36Z</time></trkpt><trkpt lat="43.207508379674735" lon="11.798902149181657"><ele>277.0</ele><time>2026-04-12T10:24:37Z</time></trkpt><trkpt lat="43.20754018039569" lon="11.798720872661528"><ele>277.0</ele><time>2026-04-12T10:24:38Z</time></trkpt><trkpt lat="43.20756619723084" lon="11.798520038357491"><ele>277.0</ele><time>2026-04-12T10:24:39Z</time></trkpt><trkpt lat="43.2075940123896" lon="11.798306843976878"><ele>277.0</ele><time>2026-04-12T10:24:40Z</time></trkpt><trkpt lat="43.20762332715541" lon="11.7980848197282"><ele>275.75</ele><time>2026-04-12T10:24:41Z</time></trkpt><trkpt lat="43.20765229095283" lon="11.797870034167449"><ele>274.5</ele><time>2026-04-12T10:24:42Z</time></trkpt><trkpt lat="43.207679814234346" lon="11.79766903946443"><ele>273.25</ele><time>2026-04-12T10:24:43Z</time></trkpt><trkpt lat="43.20770566904868" lon="11.797481683879127"><ele>272.0</ele><time>2026-04-12T10:24:44Z</time></trkpt><trkpt lat="43.20772649511219" lon="11.797304121972347"><ele>270.75</ele><time>2026-04-12T10:24:45Z</time></trkpt><trkpt lat="43.20774921892374" lon="11.797137429083557"><ele>269.5</ele><time>2026-04-12T10:24:46Z</time></trkpt><trkpt lat="43.207767885607666" lon="11.796974374201358"><ele>268.25</ele><time>2026-04-12T10:24:47Z</time></trkpt><trkpt lat="43.20778696732238" lon="11.79681889864032"><ele>267.0</ele><time>2026-04-12T10:24:48Z</time></trkpt><trkpt lat="43.20780760904516" lon="11.796661312658376"><ele>266.25</ele><time>2026-04-12T10:24:49Z</time></trkpt><trkpt lat="43.20782628561696" lon="11.79648997791685"><ele>265.5</ele><time>2026-04-12T10:24:50Z</time></trkpt><trkpt lat="43.20784902516877" lon="11.796309442205708"><ele>264.75</ele><time>2026-04-12T10:24:51Z</time></trkpt><trkpt lat="43.20787412713883" lon="11.796119231055675"><ele>264.0</ele><time>2026-04-12T10:24:52Z</time></trkpt><trkpt lat="43.20790309075558" lon="11.795921516544993"><ele>262.6666666666667</ele><time>2026-04-12T10:24:53Z</time></trkpt><trkpt lat="43.20793153859619" lon="11.795717221347306"><ele>261.33333333333337</ele><time>2026-04-12T10:24:54Z</time></trkpt><trkpt lat="43.207959799133626" lon="11.79550596583325"><ele>260.0</ele><time>2026-04-12T10:24:55Z</time></trkpt><trkpt lat="43.207987610398014" lon="11.795292787780722"><ele>259.6666666666667</ele><time>2026-04-12T10:24:56Z</time></trkpt><trkpt lat="43.20801361885284" lon="11.79507802755501"><ele>259.3333333333333</ele><time>2026-04-12T10:24:57Z</time></trkpt><trkpt lat="43.208042754833116" lon="11.794856722068385"><ele>259.0</ele><time>2026-04-12T10:24:58Z</time></trkpt><trkpt lat="43.20806841655345" lon="11.794633464744217"><ele>259.0</ele><time>2026-04-12T10:24:59Z</time></trkpt><trkpt lat="43.20809725348803" lon="11.794407659051286"><ele>259.0</ele><time>2026-04-12T10:25:00Z</time></trkpt><trkpt lat="43.20812960743836" lon="11.794177205210818"><ele>259.0</ele><time>2026-04-12T10:25:01Z</time></trkpt><trkpt lat="43.20815876983334" lon="11.793948712938601"><ele>259.3333333333333</ele><time>2026-04-12T10:25:02Z</time></trkpt><trkpt lat="43.20819134537144" lon="11.79371635610634"><ele>259.6666666666667</ele><time>2026-04-12T10:25:03Z</time></trkpt><trkpt lat="43.20822372278959" lon="11.79348305579016"><ele>260.0</ele><time>2026-04-12T10:25:04Z</time></trkpt><trkpt lat="43.20825459106263" lon="11.793251149632544"><ele>260.33333333333337</ele><time>2026-04-12T10:25:05Z</time></trkpt><trkpt lat="43.20828181787811" lon="11.793019588588903"><ele>260.6666666666667</ele><time>2026-04-12T10:25:06.001Z</time></trkpt><trkpt lat="43.20830967665064" lon="11.792789474027522"><ele>261.0</ele><time>2026-04-12T10:25:07.001Z</time></trkpt><trkpt lat="43.208341592902364" lon="11.79256528610391"><ele>262.0</ele><time>2026-04-12T10:25:08.001Z</time></trkpt><trkpt lat="43.208373249373004" lon="11.792338113610974"><ele>263.0</ele><time>2026-04-12T10:25:09.001Z</time></trkpt><trkpt lat="43.20841508127778" lon="11.792120756082342"><ele>264.0</ele><time>2026-04-12T10:25:10.001Z</time></trkpt><trkpt lat="43.208486675736175" lon="11.791923940621585"><ele>266.0</ele><time>2026-04-12T10:25:11.001Z</time></trkpt><trkpt lat="43.208589052506035" lon="11.791745246674362"><ele>268.0</ele><time>2026-04-12T10:25:11.999Z</time></trkpt><trkpt lat="43.2087106521058" lon="11.791582066763029"><ele>270.0</ele><time>2026-04-12T10:25:12.999Z</time></trkpt><trkpt lat="43.20884296634178" lon="11.791434839009858"><ele>270.0</ele><time>2026-04-12T10:25:13.999Z</time></trkpt><trkpt lat="43.20897575917526" lon="11.791287762441671"><ele>270.0</ele><time>2026-04-12T10:25:14.999Z</time></trkpt><trkpt lat="43.20910536632508" lon="11.791137837726366"><ele>270.0</ele><time>2026-04-12T10:25:15.999Z</time></trkpt><trkpt lat="43.20922169011102" lon="11.790990702400482"><ele>271.6666666666667</ele><time>2026-04-12T10:25:16.999Z</time></trkpt><trkpt lat="43.20931190789074" lon="11.790832037480413"><ele>273.33333333333337</ele><time>2026-04-12T10:25:17.999Z</time></trkpt><trkpt lat="43.209373780039506" lon="11.790640293777052"><ele>275.0</ele><time>2026-04-12T10:25:18.999Z</time></trkpt><trkpt lat="43.20941568671059" lon="11.790428041686077"><ele>275.0</ele><time>2026-04-12T10:25:19.999Z</time></trkpt><trkpt lat="43.209453586347074" lon="11.790208782463715"><ele>275.0</ele><time>2026-04-12T10:25:20.999Z</time></trkpt><trkpt lat="43.209513733951674" lon="11.790008393102742"><ele>275.0</ele><time>2026-04-12T10:25:21.999Z</time></trkpt><trkpt lat="43.209585211529" lon="11.789815534944838"><ele>276.33333333333337</ele><time>2026-04-12T10:25:22.999Z</time></trkpt><trkpt lat="43.20967529704434" lon="11.789626564760466"><ele>277.6666666666667</ele><time>2026-04-12T10:25:23.999Z</time></trkpt><trkpt lat="43.20976815829586" lon="11.789437304680733"><ele>279.0</ele><time>2026-04-12T10:25:24.999Z</time></trkpt><trkpt lat="43.2098829709419" lon="11.789258661864253"><ele>280.6666666666667</ele><time>2026-04-12T10:25:25.999Z</time></trkpt><trkpt lat="43.20999710923297" lon="11.789074468608451"><ele>282.33333333333337</ele><time>2026-04-12T10:25:26.999Z</time></trkpt><trkpt lat="43.210109396321926" lon="11.788887174754947"><ele>284.0</ele><time>2026-04-12T10:25:27.999Z</time></trkpt><trkpt lat="43.21021723653185" lon="11.788702427204266"><ele>284.0</ele><time>2026-04-12T10:25:28.999Z</time></trkpt><trkpt lat="43.210319612602724" lon="11.788518096115412"><ele>284.0</ele><time>2026-04-12T10:25:29.999Z</time></trkpt><trkpt lat="43.21041771637494" lon="11.78833642432763"><ele>284.0</ele><time>2026-04-12T10:25:30.999Z</time></trkpt><trkpt lat="43.210510143061555" lon="11.788165756531088"><ele>284.0</ele><time>2026-04-12T10:25:31.999Z</time></trkpt><trkpt lat="43.21059344187825" lon="11.7880176216557"><ele>284.0</ele><time>2026-04-12T10:25:32.999Z</time></trkpt><trkpt lat="43.210668733882855" lon="11.787873159558059"><ele>284.0</ele><time>2026-04-12T10:25:33.999Z</time></trkpt><trkpt lat="43.21072621441378" lon="11.78769974890954"><ele>284.0</ele><time>2026-04-12T10:25:34.999Z</time></trkpt><trkpt lat="43.2107818062562" lon="11.787500832469304"><ele>284.0</ele><time>2026-04-12T10:25:36Z</time></trkpt><trkpt lat="43.210851051676336" lon="11.787305782605953"><ele>284.0</ele><time>2026-04-12T10:25:37Z</time></trkpt><trkpt lat="43.210925156223624" lon="11.787102807004187"><ele>284.0</ele><time>2026-04-12T10:25:38Z</time></trkpt><trkpt lat="43.21100398633905" lon="11.78689511938627"><ele>283.6666666666667</ele><time>2026-04-12T10:25:39Z</time></trkpt><trkpt lat="43.211081520291025" lon="11.786688145836468"><ele>283.3333333333333</ele><time>2026-04-12T10:25:40Z</time></trkpt><trkpt lat="43.21116156970935" lon="11.786478984359189"><ele>283.0</ele><time>2026-04-12T10:25:41Z</time></trkpt><trkpt lat="43.21123829686396" lon="11.786282981571906"><ele>283.0</ele><time>2026-04-12T10:25:42Z</time></trkpt><trkpt lat="43.21130622531764" lon="11.78610220410976"><ele>283.0</ele><time>2026-04-12T10:25:43Z</time></trkpt><trkpt lat="43.211369473754225" lon="11.785955028027223"><ele>283.0</ele><time>2026-04-12T10:25:44Z</time></trkpt><trkpt lat="43.21143206966145" lon="11.785818055530859"><ele>283.0</ele><time>2026-04-12T10:25:45Z</time></trkpt><trkpt lat="43.211492933168564" lon="11.785688539442837"><ele>282.75</ele><time>2026-04-12T10:25:46Z</time></trkpt><trkpt lat="43.211565769764746" lon="11.785578170397079"><ele>282.5</ele><time>2026-04-12T10:25:47Z</time></trkpt><trkpt lat="43.21164499628201" lon="11.785458058505439"><ele>282.25</ele><time>2026-04-12T10:25:48Z</time></trkpt><trkpt lat="43.21172662008549" lon="11.785330583255298"><ele>282.0</ele><time>2026-04-12T10:25:49Z</time></trkpt><trkpt lat="43.21180478394382" lon="11.78519917415357"><ele>281.75</ele><time>2026-04-12T10:25:50Z</time></trkpt><trkpt lat="43.21187932434502" lon="11.785071687815874"><ele>281.5</ele><time>2026-04-12T10:25:51Z</time></trkpt><trkpt lat="43.211959317551695" lon="11.784947148894801"><ele>281.25</ele><time>2026-04-12T10:25:52Z</time></trkpt><trkpt lat="43.21203508181747" lon="11.784812469766011"><ele>281.0</ele><time>2026-04-12T10:25:53Z</time></trkpt><trkpt lat="43.21209917024058" lon="11.784655780494191"><ele>281.0</ele><time>2026-04-12T10:25:54Z</time></trkpt><trkpt lat="43.212150336367706" lon="11.784490189819396"><ele>281.0</ele><time>2026-04-12T10:25:55Z</time></trkpt><trkpt lat="43.212194817949836" lon="11.784317960815953"><ele>281.0</ele><time>2026-04-12T10:25:56Z</time></trkpt><trkpt lat="43.212270823517684" lon="11.784164631643058"><ele>281.0</ele><time>2026-04-12T10:25:57Z</time></trkpt><trkpt lat="43.2123088868546" lon="11.784004378342779"><ele>281.5</ele><time>2026-04-12T10:25:58Z</time></trkpt><trkpt lat="43.21234014121078" lon="11.783838796335864"><ele>282.0</ele><time>2026-04-12T10:25:59Z</time></trkpt><trkpt lat="43.212363923451434" lon="11.783681887347983"><ele>282.5</ele><time>2026-04-12T10:26:00Z</time></trkpt><trkpt lat="43.21238186252717" lon="11.783524051954414"><ele>283.0</ele><time>2026-04-12T10:26:01Z</time></trkpt><trkpt lat="43.21239615539396" lon="11.78336142476169"><ele>283.25</ele><time>2026-04-12T10:26:02Z</time></trkpt><trkpt lat="43.212407938123604" lon="11.783197856285843"><ele>283.5</ele><time>2026-04-12T10:26:03Z</time></trkpt><trkpt lat="43.212410070205486" lon="11.78302882741872"><ele>283.75</ele><time>2026-04-12T10:26:04Z</time></trkpt><trkpt lat="43.21240234681874" lon="11.782861784820904"><ele>284.0</ele><time>2026-04-12T10:26:05Z</time></trkpt><trkpt lat="43.212375779697496" lon="11.782690746232818"><ele>284.75</ele><time>2026-04-12T10:26:06Z</time></trkpt><trkpt lat="43.212344789989594" lon="11.782521245130223"><ele>285.5</ele><time>2026-04-12T10:26:07Z</time></trkpt><trkpt lat="43.212312184917245" lon="11.782345012909303"><ele>286.25</ele><time>2026-04-12T10:26:08Z</time></trkpt><trkpt lat="43.21228169532573" lon="11.782164503360033"><ele>287.0</ele><time>2026-04-12T10:26:09Z</time></trkpt><trkpt lat="43.21226174934241" lon="11.781985696273845"><ele>286.0</ele><time>2026-04-12T10:26:10Z</time></trkpt><trkpt lat="43.21225245555778" lon="11.781803669730127"><ele>285.0</ele><time>2026-04-12T10:26:11Z</time></trkpt><trkpt lat="43.2122416018805" lon="11.781627166160815"><ele>284.0</ele><time>2026-04-12T10:26:12Z</time></trkpt><trkpt lat="43.21222831031195" lon="11.781449722056072"><ele>283.0</ele><time>2026-04-12T10:26:13Z</time></trkpt><trkpt lat="43.21220668348743" lon="11.781272809177501"><ele>283.0</ele><time>2026-04-12T10:26:14Z</time></trkpt><trkpt lat="43.21216157657791" lon="11.781101795630056"><ele>283.0</ele><time>2026-04-12T10:26:15Z</time></trkpt><trkpt lat="43.21209605239296" lon="11.78093290325526"><ele>283.0</ele><time>2026-04-12T10:26:16Z</time></trkpt><trkpt lat="43.212028110382285" lon="11.780774566057941"><ele>283.0</ele><time>2026-04-12T10:26:17Z</time></trkpt><trkpt lat="43.21196972036691" lon="11.780631638398418"><ele>283.2</ele><time>2026-04-12T10:26:18Z</time></trkpt><trkpt lat="43.21191396107536" lon="11.78048697221619"><ele>283.4</ele><time>2026-04-12T10:26:19Z</time></trkpt><trkpt lat="43.211848791440694" lon="11.780360712556627"><ele>283.59999999999997</ele><time>2026-04-12T10:26:20Z</time></trkpt><trkpt lat="43.2117922465927" lon="11.780237207413514"><ele>283.8</ele><time>2026-04-12T10:26:21Z</time></trkpt><trkpt lat="43.21173267194642" lon="11.780123387698884"><ele>284.0</ele><time>2026-04-12T10:26:22Z</time></trkpt><trkpt lat="43.21166326532804" lon="11.780018846156725"><ele>284.59999999999997</ele><time>2026-04-12T10:26:23Z</time></trkpt><trkpt lat="43.21158044331037" lon="11.779918191017341"><ele>285.2</ele><time>2026-04-12T10:26:24Z</time></trkpt><trkpt lat="43.21149911770508" lon="11.779814845287063"><ele>285.79999999999995</ele><time>2026-04-12T10:26:25Z</time></trkpt><trkpt lat="43.21141788394412" lon="11.779713168096901"><ele>286.4</ele><time>2026-04-12T10:26:26Z</time></trkpt><trkpt lat="43.21133959910563" lon="11.779607161620007"><ele>287.0</ele><time>2026-04-12T10:26:27Z</time></trkpt><trkpt lat="43.211261163465764" lon="11.77950643198731"><ele>286.5</ele><time>2026-04-12T10:26:28Z</time></trkpt><trkpt lat="43.21118803156781" lon="11.779411289657888"><ele>286.0</ele><time>2026-04-12T10:26:29Z</time></trkpt><trkpt lat="43.21113162497742" lon="11.779326570360475"><ele>285.5</ele><time>2026-04-12T10:26:30Z</time></trkpt><trkpt lat="43.21108533206392" lon="11.77925403146679"><ele>285.0</ele><time>2026-04-12T10:26:31Z</time></trkpt><trkpt lat="43.2110544842602" lon="11.779161148241709"><ele>284.5</ele><time>2026-04-12T10:26:32Z</time></trkpt><trkpt lat="43.210999838652484" lon="11.779057383052079"><ele>284.0</ele><time>2026-04-12T10:26:33Z</time></trkpt><trkpt lat="43.21093798301468" lon="11.778925885553257"><ele>284.0</ele><time>2026-04-12T10:26:34Z</time></trkpt><trkpt lat="43.21087635933534" lon="11.778793578269825"><ele>284.0</ele><time>2026-04-12T10:26:35Z</time></trkpt><trkpt lat="43.210819388358374" lon="11.778626874610737"><ele>284.0</ele><time>2026-04-12T10:26:36Z</time></trkpt><trkpt lat="43.210745706034736" lon="11.778469285230871"><ele>284.0</ele><time>2026-04-12T10:26:37Z</time></trkpt><trkpt lat="43.21064291677498" lon="11.77832541094621"><ele>283.0</ele><time>2026-04-12T10:26:38Z</time></trkpt><trkpt lat="43.2105209787953" lon="11.778193811402781"><ele>282.0</ele><time>2026-04-12T10:26:39Z</time></trkpt><trkpt lat="43.210403694125894" lon="11.778052298813352"><ele>281.0</ele><time>2026-04-12T10:26:40Z</time></trkpt><trkpt lat="43.210299215063294" lon="11.777904891645244"><ele>281.0</ele><time>2026-04-12T10:26:41Z</time></trkpt><trkpt lat="43.21019762943469" lon="11.777749097965625"><ele>281.0</ele><time>2026-04-12T10:26:42Z</time></trkpt><trkpt lat="43.2100936226889" lon="11.777590648713907"><ele>281.0</ele><time>2026-04-12T10:26:43Z</time></trkpt><trkpt lat="43.20998193352903" lon="11.77742906498869"><ele>282.33333333333337</ele><time>2026-04-12T10:26:44Z</time></trkpt><trkpt lat="43.20988297924094" lon="11.777267305068012"><ele>283.6666666666667</ele><time>2026-04-12T10:26:45Z</time></trkpt><trkpt lat="43.20974424137894" lon="11.777112878397611"><ele>285.0</ele><time>2026-04-12T10:26:46Z</time></trkpt><trkpt lat="43.209620236760685" lon="11.776957356597833"><ele>282.75</ele><time>2026-04-12T10:26:47Z</time></trkpt><trkpt lat="43.20950773279012" lon="11.776812192189874"><ele>280.5</ele><time>2026-04-12T10:26:48Z</time></trkpt><trkpt lat="43.20940468120933" lon="11.776683197067761"><ele>278.25</ele><time>2026-04-12T10:26:49Z</time></trkpt><trkpt lat="43.20930978695396" lon="11.776563892236474"><ele>276.0</ele><time>2026-04-12T10:26:50Z</time></trkpt><trkpt lat="43.209231971767885" lon="11.776440065161488"><ele>276.0</ele><time>2026-04-12T10:26:51Z</time></trkpt><trkpt lat="43.20919803790623" lon="11.776274380565079"><ele>276.0</ele><time>2026-04-12T10:26:52Z</time></trkpt><trkpt lat="43.209204512129276" lon="11.776091083209128"><ele>276.0</ele><time>2026-04-12T10:26:53Z</time></trkpt><trkpt lat="43.20920814570443" lon="11.77589568347735"><ele>276.0</ele><time>2026-04-12T10:26:54Z</time></trkpt><trkpt lat="43.20921034590774" lon="11.775699815313954"><ele>276.0</ele><time>2026-04-12T10:26:55.001Z</time></trkpt><trkpt lat="43.209209003535754" lon="11.775504493074962"><ele>276.0</ele><time>2026-04-12T10:26:56.001Z</time></trkpt><trkpt lat="43.20921022696156" lon="11.77530847805779"><ele>276.0</ele><time>2026-04-12T10:26:57.001Z</time></trkpt><trkpt lat="43.209219339391716" lon="11.775110506063783"><ele>276.0</ele><time>2026-04-12T10:26:58.001Z</time></trkpt><trkpt lat="43.20923472153418" lon="11.77490739414547"><ele>276.0</ele><time>2026-04-12T10:26:59.001Z</time></trkpt><trkpt lat="43.20925354549058" lon="11.774708870449793"><ele>276.0</ele><time>2026-04-12T10:27:00.001Z</time></trkpt><trkpt lat="43.20928484117811" lon="11.774519855714054"><ele>276.0</ele><time>2026-04-12T10:27:01.001Z</time></trkpt><trkpt lat="43.209340953080805" lon="11.77433517426456"><ele>276.0</ele><time>2026-04-12T10:27:02.001Z</time></trkpt><trkpt lat="43.20943088247851" lon="11.774162022197967"><ele>275.6666666666667</ele><time>2026-04-12T10:27:03.001Z</time></trkpt><trkpt lat="43.20953995690688" lon="11.773996490199472"><ele>275.33333333333337</ele><time>2026-04-12T10:27:04.001Z</time></trkpt><trkpt lat="43.20964451967289" lon="11.773814143794493"><ele>275.0</ele><time>2026-04-12T10:27:05.001Z</time></trkpt><trkpt lat="43.20970927815236" lon="11.773607009972409"><ele>274.6666666666667</ele><time>2026-04-12T10:27:06.001Z</time></trkpt><trkpt lat="43.20975312556309" lon="11.773383069106293"><ele>274.3333333333333</ele><time>2026-04-12T10:27:07.001Z</time></trkpt><trkpt lat="43.20977747759304" lon="11.77314873369049"><ele>274.0</ele><time>2026-04-12T10:27:08.001Z</time></trkpt><trkpt lat="43.20980178293352" lon="11.77291720991156"><ele>274.0</ele><time>2026-04-12T10:27:09.001Z</time></trkpt><trkpt lat="43.20980813424768" lon="11.772703507543907"><ele>274.0</ele><time>2026-04-12T10:27:10.001Z</time></trkpt><trkpt lat="43.20979620889916" lon="11.77248083919124"><ele>274.0</ele><time>2026-04-12T10:27:11.001Z</time></trkpt><trkpt lat="43.20976965748014" lon="11.772269194634058"><ele>274.5</ele><time>2026-04-12T10:27:12.001Z</time></trkpt><trkpt lat="43.209746949370235" lon="11.772058412100368"><ele>275.0</ele><time>2026-04-12T10:27:13.001Z</time></trkpt><trkpt lat="43.209730785549496" lon="11.771869141282533"><ele>275.5</ele><time>2026-04-12T10:27:14.001Z</time></trkpt><trkpt lat="43.20972249143638" lon="11.771682762064827"><ele>276.0</ele><time>2026-04-12T10:27:15.001Z</time></trkpt><trkpt lat="43.209733876935196" lon="11.771505672082307"><ele>277.5</ele><time>2026-04-12T10:27:16.001Z</time></trkpt><trkpt lat="43.20978180900402" lon="11.771335838019077"><ele>279.0</ele><time>2026-04-12T10:27:17.001Z</time></trkpt><trkpt lat="43.2098111612563" lon="11.77116630343388"><ele>280.5</ele><time>2026-04-12T10:27:18Z</time></trkpt><trkpt lat="43.20986720248534" lon="11.771017450119663"><ele>282.0</ele><time>2026-04-12T10:27:19Z</time></trkpt><trkpt lat="43.20993418540873" lon="11.770882439585945"><ele>282.0</ele><time>2026-04-12T10:27:20Z</time></trkpt><trkpt lat="43.21001921594362" lon="11.770754661775069"><ele>282.0</ele><time>2026-04-12T10:27:21Z</time></trkpt><trkpt lat="43.21011277161096" lon="11.770633010706891"><ele>282.0</ele><time>2026-04-12T10:27:22Z</time></trkpt><trkpt lat="43.21020555200818" lon="11.770511995051148"><ele>282.0</ele><time>2026-04-12T10:27:23Z</time></trkpt><trkpt lat="43.21029464109231" lon="11.770393167775984"><ele>282.0</ele><time>2026-04-12T10:27:24Z</time></trkpt><trkpt lat="43.21038700415376" lon="11.770286035907564"><ele>282.0</ele><time>2026-04-12T10:27:25Z</time></trkpt><trkpt lat="43.210493571605234" lon="11.7702021226112"><ele>282.0</ele><time>2026-04-12T10:27:26Z</time></trkpt><trkpt lat="43.21061175295914" lon="11.770141302868753"><ele>282.0</ele><time>2026-04-12T10:27:27Z</time></trkpt><trkpt lat="43.210737378679724" lon="11.770113451498847"><ele>279.5</ele><time>2026-04-12T10:27:28Z</time></trkpt><trkpt lat="43.21086811762242" lon="11.770120020359727"><ele>277.0</ele><time>2026-04-12T10:27:29Z</time></trkpt><trkpt lat="43.21099492551426" lon="11.770123249233377"><ele>274.5</ele><time>2026-04-12T10:27:30Z</time></trkpt><trkpt lat="43.2111227553594" lon="11.770115003416622"><ele>272.0</ele><time>2026-04-12T10:27:31Z</time></trkpt><trkpt lat="43.21124735446983" lon="11.770087588417137"><ele>272.0</ele><time>2026-04-12T10:27:32Z</time></trkpt><trkpt lat="43.21136582879003" lon="11.770031322819015"><ele>272.0</ele><time>2026-04-12T10:27:33Z</time></trkpt><trkpt lat="43.21147257992482" lon="11.769953013423306"><ele>272.0</ele><time>2026-04-12T10:27:34Z</time></trkpt><trkpt lat="43.211565382502144" lon="11.769851491355158"><ele>272.0</ele><time>2026-04-12T10:27:35Z</time></trkpt><trkpt lat="43.21163865116256" lon="11.769741401168451"><ele>271.0</ele><time>2026-04-12T10:27:36Z</time></trkpt><trkpt lat="43.211692878802765" lon="11.769636984958904"><ele>270.0</ele><time>2026-04-12T10:27:37Z</time></trkpt><trkpt lat="43.21172905822224" lon="11.769557477535402"><ele>269.0</ele><time>2026-04-12T10:27:38Z</time></trkpt><trkpt lat="43.211766778601394" lon="11.769476587273367"><ele>268.0</ele><time>2026-04-12T10:27:41Z</time></trkpt><trkpt lat="43.21170118632819" lon="11.769454181410051"><ele>267.0</ele><time>2026-04-12T10:27:45Z</time></trkpt><trkpt lat="43.21157053217798" lon="11.769507550360386"><ele>266.0</ele><time>2026-04-12T10:27:47Z</time></trkpt><trkpt lat="43.21149990284259" lon="11.769533819278884"><ele>267.2</ele><time>2026-04-12T10:27:48Z</time></trkpt><trkpt lat="43.21141710596311" lon="11.769555107198478"><ele>268.40000000000003</ele><time>2026-04-12T10:27:49Z</time></trkpt><trkpt lat="43.21132656618759" lon="11.769571985757523"><ele>269.6</ele><time>2026-04-12T10:27:50Z</time></trkpt><trkpt lat="43.211229067926176" lon="11.769586432044948"><ele>270.8</ele><time>2026-04-12T10:27:51Z</time></trkpt><trkpt lat="43.21113261670192" lon="11.769599104983353"><ele>272.0</ele><time>2026-04-12T10:27:52Z</time></trkpt><trkpt lat="43.21102597028381" lon="11.769611680771687"><ele>272.0</ele><time>2026-04-12T10:27:53Z</time></trkpt><trkpt lat="43.210918870752906" lon="11.769623355130076"><ele>272.0</ele><time>2026-04-12T10:27:54Z</time></trkpt><trkpt lat="43.210817677783425" lon="11.769632780327031"><ele>272.0</ele><time>2026-04-12T10:27:55Z</time></trkpt><trkpt lat="43.21071657310215" lon="11.769641235211772"><ele>272.0</ele><time>2026-04-12T10:27:56Z</time></trkpt><trkpt lat="43.21061600367106" lon="11.769668826732717"><ele>272.0</ele><time>2026-04-12T10:27:57Z</time></trkpt><trkpt lat="43.21051982460913" lon="11.769682215253592"><ele>272.4</ele><time>2026-04-12T10:27:58Z</time></trkpt><trkpt lat="43.21042449659843" lon="11.76969526120844"><ele>272.79999999999995</ele><time>2026-04-12T10:27:59Z</time></trkpt><trkpt lat="43.21032435351947" lon="11.769706897642568"><ele>273.2</ele><time>2026-04-12T10:28:00Z</time></trkpt><trkpt lat="43.210224890452025" lon="11.769730425730085"><ele>273.59999999999997</ele><time>2026-04-12T10:28:01Z</time></trkpt><trkpt lat="43.21012907658879" lon="11.769768661694426"><ele>274.0</ele><time>2026-04-12T10:28:02Z</time></trkpt><trkpt lat="43.21003929452753" lon="11.76981161213813"><ele>274.0</ele><time>2026-04-12T10:28:03Z</time></trkpt><trkpt lat="43.20995083092484" lon="11.769823257240278"><ele>274.0</ele><time>2026-04-12T10:28:04Z</time></trkpt><trkpt lat="43.2098738583427" lon="11.769834670064297"><ele>274.0</ele><time>2026-04-12T10:28:05Z</time></trkpt><trkpt lat="43.20980089140878" lon="11.769808442031659"><ele>274.0</ele><time>2026-04-12T10:28:06Z</time></trkpt><trkpt lat="43.20972082393705" lon="11.769762141596734"><ele>274.0</ele><time>2026-04-12T10:28:07Z</time></trkpt><trkpt lat="43.20962866198505" lon="11.769697303604307"><ele>274.0</ele><time>2026-04-12T10:28:08Z</time></trkpt><trkpt lat="43.20954092589311" lon="11.769629236835486"><ele>273.2</ele><time>2026-04-12T10:28:09Z</time></trkpt><trkpt lat="43.209449027413584" lon="11.769552715427833"><ele>272.4</ele><time>2026-04-12T10:28:10Z</time></trkpt><trkpt lat="43.209357727040604" lon="11.769465134431643"><ele>271.6</ele><time>2026-04-12T10:28:11Z</time></trkpt><trkpt lat="43.20927202129333" lon="11.769371005966372"><ele>270.8</ele><time>2026-04-12T10:28:12Z</time></trkpt><trkpt lat="43.20919256299211" lon="11.769259646742523"><ele>270.0</ele><time>2026-04-12T10:28:13Z</time></trkpt><trkpt lat="43.20910897404804" lon="11.769146425919788"><ele>270.0</ele><time>2026-04-12T10:28:14Z</time></trkpt><trkpt lat="43.20902472025452" lon="11.769032954431601"><ele>270.0</ele><time>2026-04-12T10:28:15Z</time></trkpt><trkpt lat="43.20894226106839" lon="11.768921899888031"><ele>270.0</ele><time>2026-04-12T10:28:16Z</time></trkpt><trkpt lat="43.20887311581102" lon="11.768823794441042"><ele>270.0</ele><time>2026-04-12T10:28:17Z</time></trkpt><trkpt lat="43.20881917296544" lon="11.768727377285277"><ele>270.0</ele><time>2026-04-12T10:28:18Z</time></trkpt><trkpt lat="43.208762575152925" lon="11.768631303170713"><ele>270.0</ele><time>2026-04-12T10:28:19Z</time></trkpt><trkpt lat="43.20875637342516" lon="11.768495250910325"><ele>270.0</ele><time>2026-04-12T10:28:20Z</time></trkpt><trkpt lat="43.208724801223546" lon="11.768361684067271"><ele>270.0</ele><time>2026-04-12T10:28:21Z</time></trkpt><trkpt lat="43.208714130862056" lon="11.768214216312435"><ele>270.0</ele><time>2026-04-12T10:28:22Z</time></trkpt><trkpt lat="43.2087160364385" lon="11.768048104611497"><ele>270.0</ele><time>2026-04-12T10:28:23Z</time></trkpt><trkpt lat="43.20868427181488" lon="11.767884177231673"><ele>270.0</ele><time>2026-04-12T10:28:24Z</time></trkpt><trkpt lat="43.20867705563126" lon="11.767714219275398"><ele>270.0</ele><time>2026-04-12T10:28:25Z</time></trkpt><trkpt lat="43.20864320507137" lon="11.767545110708067"><ele>270.0</ele><time>2026-04-12T10:28:26Z</time></trkpt><trkpt lat="43.208625352526" lon="11.767377724757415"><ele>270.0</ele><time>2026-04-12T10:28:27Z</time></trkpt><trkpt lat="43.208605912718035" lon="11.767208169859888"><ele>269.5</ele><time>2026-04-12T10:28:28Z</time></trkpt><trkpt lat="43.208587073491294" lon="11.767045401609677"><ele>269.0</ele><time>2026-04-12T10:28:29Z</time></trkpt><trkpt lat="43.208567914221035" lon="11.766879228244221"><ele>268.5</ele><time>2026-04-12T10:28:30Z</time></trkpt><trkpt lat="43.20856007793255" lon="11.766708472433399"><ele>268.0</ele><time>2026-04-12T10:28:31Z</time></trkpt><trkpt lat="43.208520869800296" lon="11.766542203154646"><ele>268.0</ele><time>2026-04-12T10:28:32Z</time></trkpt><trkpt lat="43.208499446655935" lon="11.76636635659474"><ele>268.0</ele><time>2026-04-12T10:28:33Z</time></trkpt><trkpt lat="43.20849144086578" lon="11.76618086644776"><ele>268.0</ele><time>2026-04-12T10:28:34Z</time></trkpt><trkpt lat="43.20847135128751" lon="11.766001758811"><ele>268.0</ele><time>2026-04-12T10:28:35Z</time></trkpt><trkpt lat="43.20844200621668" lon="11.765843376997664"><ele>268.2</ele><time>2026-04-12T10:28:36Z</time></trkpt><trkpt lat="43.20841989364009" lon="11.7656967521723"><ele>268.4</ele><time>2026-04-12T10:28:37Z</time></trkpt><trkpt lat="43.20842144559994" lon="11.7655541294753"><ele>268.59999999999997</ele><time>2026-04-12T10:28:38.001Z</time></trkpt><trkpt lat="43.20840048570274" lon="11.765418516585115"><ele>268.8</ele><time>2026-04-12T10:28:39.001Z</time></trkpt><trkpt lat="43.20840810622761" lon="11.765286726097457"><ele>269.0</ele><time>2026-04-12T10:28:40.001Z</time></trkpt><trkpt lat="43.20840659738285" lon="11.765191250108252"><ele>269.2</ele><time>2026-04-12T10:28:41.001Z</time></trkpt><trkpt lat="43.208415476284166" lon="11.765051535717427"><ele>269.4</ele><time>2026-04-12T10:28:43.001Z</time></trkpt><trkpt lat="43.20842352797497" lon="11.764893809972614"><ele>269.6</ele><time>2026-04-12T10:28:45.001Z</time></trkpt><trkpt lat="43.2084335886384" lon="11.764727764217069"><ele>269.8</ele><time>2026-04-12T10:28:47.001Z</time></trkpt><trkpt lat="43.20842772819214" lon="11.764631490103667"><ele>270.0</ele><time>2026-04-12T10:28:48.001Z</time></trkpt><trkpt lat="43.208411224864854" lon="11.764519729252653"><ele>270.0</ele><time>2026-04-12T10:28:49.001Z</time></trkpt><trkpt lat="43.208385929666484" lon="11.764396697704083"><ele>270.0</ele><time>2026-04-12T10:28:50.001Z</time></trkpt><trkpt lat="43.20833884657073" lon="11.764255045491979"><ele>270.0</ele><time>2026-04-12T10:28:51.001Z</time></trkpt><trkpt lat="43.208300986986956" lon="11.764102363312697"><ele>270.0</ele><time>2026-04-12T10:28:52.001Z</time></trkpt><trkpt lat="43.20826141265897" lon="11.76395890395262"><ele>270.0</ele><time>2026-04-12T10:28:53.001Z</time></trkpt><trkpt lat="43.20821267897641" lon="11.76382997769602"><ele>269.2</ele><time>2026-04-12T10:28:54.001Z</time></trkpt><trkpt lat="43.208176169984476" lon="11.76369275398488"><ele>268.4</ele><time>2026-04-12T10:28:55.001Z</time></trkpt><trkpt lat="43.20814719520931" lon="11.763553921353063"><ele>267.6</ele><time>2026-04-12T10:28:56.001Z</time></trkpt><trkpt lat="43.20809628899836" lon="11.763435281474685"><ele>266.8</ele><time>2026-04-12T10:28:57.001Z</time></trkpt><trkpt lat="43.208032360623065" lon="11.763319455035369"><ele>266.0</ele><time>2026-04-12T10:28:58.001Z</time></trkpt><trkpt lat="43.20797553941712" lon="11.76320254566571"><ele>265.0</ele><time>2026-04-12T10:28:59.001Z</time></trkpt><trkpt lat="43.20792962723656" lon="11.76310033829586"><ele>264.0</ele><time>2026-04-12T10:29:00.001Z</time></trkpt><trkpt lat="43.2078895368277" lon="11.763014716155142"><ele>263.0</ele><time>2026-04-12T10:29:01.001Z</time></trkpt><trkpt lat="43.20785280641109" lon="11.762942737952745"><ele>262.0</ele><time>2026-04-12T10:29:02.001Z</time></trkpt><trkpt lat="43.20781397141366" lon="11.762859070152754"><ele>261.0</ele><time>2026-04-12T10:29:03.001Z</time></trkpt><trkpt lat="43.207769740631505" lon="11.762781598516405"><ele>260.0</ele><time>2026-04-12T10:29:04.001Z</time></trkpt><trkpt lat="43.20773807725307" lon="11.762695388175805"><ele>259.0</ele><time>2026-04-12T10:29:05.001Z</time></trkpt><trkpt lat="43.207685072337185" lon="11.762642257374921"><ele>258.8333333333333</ele><time>2026-04-12T10:29:06.001Z</time></trkpt><trkpt lat="43.207604629910584" lon="11.762529647331382"><ele>258.66666666666663</ele><time>2026-04-12T10:29:08.001Z</time></trkpt><trkpt lat="43.20755174394733" lon="11.762427751477079"><ele>258.5</ele><time>2026-04-12T10:29:10.001Z</time></trkpt><trkpt lat="43.207536100893186" lon="11.76230881025886"><ele>258.3333333333333</ele><time>2026-04-12T10:29:12.001Z</time></trkpt><trkpt lat="43.20753596510212" lon="11.762401278121482"><ele>258.1666666666667</ele><time>2026-04-12T10:30:22Z</time></trkpt><trkpt lat="43.20757227581237" lon="11.762500383611783"><ele>258.0</ele><time>2026-04-12T10:30:23Z</time></trkpt><trkpt lat="43.20760761391707" lon="11.762583094436271"><ele>258.0</ele><time>2026-04-12T10:30:24Z</time></trkpt><trkpt lat="43.20765896756319" lon="11.762638370522906"><ele>258.0</ele><time>2026-04-12T10:30:25Z</time></trkpt><trkpt lat="43.207730257578774" lon="11.762722608643248"><ele>258.0</ele><time>2026-04-12T10:30:26Z</time></trkpt><trkpt lat="43.20780043273674" lon="11.76282950725147"><ele>258.0</ele><time>2026-04-12T10:30:27Z</time></trkpt><trkpt lat="43.20786382175943" lon="11.762960535914042"><ele>258.0</ele><time>2026-04-12T10:30:28Z</time></trkpt><trkpt lat="43.20792854632557" lon="11.763101647100209"><ele>258.0</ele><time>2026-04-12T10:30:29Z</time></trkpt><trkpt lat="43.20799240494779" lon="11.763245958756364"><ele>258.0</ele><time>2026-04-12T10:30:30Z</time></trkpt><trkpt lat="43.20806147617565" lon="11.763400223686109"><ele>258.0</ele><time>2026-04-12T10:30:31Z</time></trkpt><trkpt lat="43.20812585438659" lon="11.763552662742741"><ele>258.0</ele><time>2026-04-12T10:30:32Z</time></trkpt><trkpt lat="43.2081824580213" lon="11.763700643533394"><ele>260.0</ele><time>2026-04-12T10:30:33Z</time></trkpt><trkpt lat="43.20822829594094" lon="11.763856096979454"><ele>262.0</ele><time>2026-04-12T10:30:34Z</time></trkpt><trkpt lat="43.20826962027806" lon="11.764028187836239"><ele>264.0</ele><time>2026-04-12T10:30:35Z</time></trkpt><trkpt lat="43.20832230125483" lon="11.764207256224873"><ele>266.0</ele><time>2026-04-12T10:30:36.001Z</time></trkpt><trkpt lat="43.208380717237546" lon="11.764373777690665"><ele>266.8</ele><time>2026-04-12T10:30:37.001Z</time></trkpt><trkpt lat="43.20838477597241" lon="11.764515010258936"><ele>267.6</ele><time>2026-04-12T10:30:38.001Z</time></trkpt><trkpt lat="43.20840694323294" lon="11.764633022677822"><ele>268.4</ele><time>2026-04-12T10:30:39.001Z</time></trkpt><trkpt lat="43.20841542972876" lon="11.764763881169115"><ele>269.2</ele><time>2026-04-12T10:30:40.001Z</time></trkpt><trkpt lat="43.208399305115435" lon="11.764900465539316"><ele>270.0</ele><time>2026-04-12T10:30:41.001Z</time></trkpt><trkpt lat="43.208379470274885" lon="11.765072489901199"><ele>269.75</ele><time>2026-04-12T10:30:42.001Z</time></trkpt><trkpt lat="43.2083735874913" lon="11.765212554640412"><ele>269.5</ele><time>2026-04-12T10:30:43.001Z</time></trkpt><trkpt lat="43.2083711125924" lon="11.765355355531675"><ele>269.25</ele><time>2026-04-12T10:30:44.001Z</time></trkpt><trkpt lat="43.20838670334054" lon="11.765532642683631"><ele>269.0</ele><time>2026-04-12T10:30:45.001Z</time></trkpt><trkpt lat="43.20840537903448" lon="11.765744962287057"><ele>269.0</ele><time>2026-04-12T10:30:46.001Z</time></trkpt><trkpt lat="43.2084458009443" lon="11.765968700066557"><ele>269.0</ele><time>2026-04-12T10:30:47.001Z</time></trkpt><trkpt lat="43.208464366449775" lon="11.766237955311805"><ele>269.0</ele><time>2026-04-12T10:30:48.001Z</time></trkpt><trkpt lat="43.20851648448779" lon="11.766525863567745"><ele>268.6666666666667</ele><time>2026-04-12T10:30:49.001Z</time></trkpt><trkpt lat="43.208554077775894" lon="11.766812984062256"><ele>268.3333333333333</ele><time>2026-04-12T10:30:50.001Z</time></trkpt><trkpt lat="43.20857119762169" lon="11.767071974084534"><ele>268.0</ele><time>2026-04-12T10:30:51.001Z</time></trkpt><trkpt lat="43.20859508644505" lon="11.767292683697724"><ele>268.0</ele><time>2026-04-12T10:30:52.001Z</time></trkpt><trkpt lat="43.20861858181361" lon="11.76750015053185"><ele>268.0</ele><time>2026-04-12T10:30:53.001Z</time></trkpt><trkpt lat="43.20864192964069" lon="11.767702889193055"><ele>268.0</ele><time>2026-04-12T10:30:54.001Z</time></trkpt><trkpt lat="43.20868041991229" lon="11.76790361292931"><ele>268.5</ele><time>2026-04-12T10:30:55.001Z</time></trkpt><trkpt lat="43.208687376357084" lon="11.768096304114573"><ele>269.0</ele><time>2026-04-12T10:30:56.001Z</time></trkpt><trkpt lat="43.20871403123947" lon="11.768273603716848"><ele>269.5</ele><time>2026-04-12T10:30:57.001Z</time></trkpt><trkpt lat="43.20872771407509" lon="11.76843123592739"><ele>270.0</ele><time>2026-04-12T10:30:58.001Z</time></trkpt><trkpt lat="43.20873661668568" lon="11.768563754549458"><ele>270.0</ele><time>2026-04-12T10:30:59.001Z</time></trkpt><trkpt lat="43.208760914043324" lon="11.768682695048348"><ele>270.0</ele><time>2026-04-12T10:31:00.001Z</time></trkpt><trkpt lat="43.2088094258523" lon="11.768798665319945"><ele>270.0</ele><time>2026-04-12T10:31:01.001Z</time></trkpt><trkpt lat="43.20887698593062" lon="11.76891481020762"><ele>270.0</ele><time>2026-04-12T10:31:02.001Z</time></trkpt><trkpt lat="43.20896177271438" lon="11.769022547541237"><ele>270.0</ele><time>2026-04-12T10:31:03.001Z</time></trkpt><trkpt lat="43.20906492615526" lon="11.769122395187868"><ele>270.0</ele><time>2026-04-12T10:31:04.001Z</time></trkpt><trkpt lat="43.20916321014886" lon="11.76926106207739"><ele>270.0</ele><time>2026-04-12T10:31:05.001Z</time></trkpt><trkpt lat="43.20927062903498" lon="11.76940483817332"><ele>270.0</ele><time>2026-04-12T10:31:06.001Z</time></trkpt><trkpt lat="43.209373160408134" lon="11.769532757025749"><ele>270.0</ele><time>2026-04-12T10:31:07.001Z</time></trkpt><trkpt lat="43.20947501072578" lon="11.76963325883283"><ele>270.8</ele><time>2026-04-12T10:31:08.001Z</time></trkpt><trkpt lat="43.20957264453205" lon="11.769723678674431"><ele>271.6</ele><time>2026-04-12T10:31:09.001Z</time></trkpt><trkpt lat="43.20968233217798" lon="11.769790667152522"><ele>272.4</ele><time>2026-04-12T10:31:10.001Z</time></trkpt><trkpt lat="43.20976866600607" lon="11.769851956448225"><ele>273.2</ele><time>2026-04-12T10:31:11.001Z</time></trkpt><trkpt lat="43.209849297032676" lon="11.769894556997624"><ele>274.0</ele><time>2026-04-12T10:31:12.001Z</time></trkpt><trkpt lat="43.209922477736136" lon="11.769905811117752"><ele>274.0</ele><time>2026-04-12T10:31:13.001Z</time></trkpt><trkpt lat="43.210006859806775" lon="11.769850268965266"><ele>274.0</ele><time>2026-04-12T10:31:14.001Z</time></trkpt><trkpt lat="43.21013693858648" lon="11.769818775368783"><ele>274.0</ele><time>2026-04-12T10:31:15.001Z</time></trkpt><trkpt lat="43.210269458115654" lon="11.769752616855108"><ele>274.0</ele><time>2026-04-12T10:31:16.001Z</time></trkpt><trkpt lat="43.210409307408426" lon="11.769723976019513"><ele>274.0</ele><time>2026-04-12T10:31:17.001Z</time></trkpt><trkpt lat="43.21057119600788" lon="11.769713731610182"><ele>274.0</ele><time>2026-04-12T10:31:18.001Z</time></trkpt><trkpt lat="43.21075902631401" lon="11.769692793718766"><ele>274.0</ele><time>2026-04-12T10:31:19.001Z</time></trkpt><trkpt lat="43.210931625802495" lon="11.769668249833492"><ele>273.5</ele><time>2026-04-12T10:31:20.001Z</time></trkpt><trkpt lat="43.21107610020174" lon="11.769656002678142"><ele>273.0</ele><time>2026-04-12T10:31:21.001Z</time></trkpt><trkpt lat="43.211210422479574" lon="11.769643726405286"><ele>272.5</ele><time>2026-04-12T10:31:22.001Z</time></trkpt><trkpt lat="43.21133371538983" lon="11.76962677850101"><ele>272.0</ele><time>2026-04-12T10:31:23.001Z</time></trkpt><trkpt lat="43.211446011385604" lon="11.769605208627297"><ele>270.8</ele><time>2026-04-12T10:31:24.001Z</time></trkpt><trkpt lat="43.21153190658273" lon="11.769563155548608"><ele>269.6</ele><time>2026-04-12T10:31:25.001Z</time></trkpt><trkpt lat="43.21160827420865" lon="11.769525478505152"><ele>268.40000000000003</ele><time>2026-04-12T10:31:26.001Z</time></trkpt><trkpt lat="43.211678713132116" lon="11.769516237209896"><ele>267.2</ele><time>2026-04-12T10:31:28.001Z</time></trkpt><trkpt lat="43.21176869238518" lon="11.769471283328551"><ele>266.0</ele><time>2026-04-12T10:31:31Z</time></trkpt><trkpt lat="43.21181303833409" lon="11.769264479980366"><ele>265.0</ele><time>2026-04-12T10:31:32Z</time></trkpt><trkpt lat="43.2118694726345" lon="11.769027161024924"><ele>264.0</ele><time>2026-04-12T10:31:33Z</time></trkpt><trkpt lat="43.21192650684122" lon="11.768780112325322"><ele>263.0</ele><time>2026-04-12T10:31:34Z</time></trkpt><trkpt lat="43.211983033435445" lon="11.76848821283006"><ele>263.0</ele><time>2026-04-12T10:31:35Z</time></trkpt><trkpt lat="43.21204650097178" lon="11.768222180352739"><ele>263.0</ele><time>2026-04-12T10:31:36Z</time></trkpt><trkpt lat="43.21211816223212" lon="11.767990919267113"><ele>263.0</ele><time>2026-04-12T10:31:37Z</time></trkpt><trkpt lat="43.21219900422462" lon="11.76778740095731"><ele>262.75</ele><time>2026-04-12T10:31:38Z</time></trkpt><trkpt lat="43.21228324181496" lon="11.767610446270215"><ele>262.5</ele><time>2026-04-12T10:31:39Z</time></trkpt><trkpt lat="43.21236367531759" lon="11.767445010994456"><ele>262.25</ele><time>2026-04-12T10:31:40Z</time></trkpt><trkpt lat="43.21243864198477" lon="11.767273643873741"><ele>262.0</ele><time>2026-04-12T10:31:41Z</time></trkpt><trkpt lat="43.21250419956255" lon="11.767081643325051"><ele>262.0</ele><time>2026-04-12T10:31:42Z</time></trkpt><trkpt lat="43.212547820174414" lon="11.766868979723661"><ele>262.0</ele><time>2026-04-12T10:31:43Z</time></trkpt><trkpt lat="43.212567382383654" lon="11.766645896255444"><ele>262.0</ele><time>2026-04-12T10:31:44Z</time></trkpt><trkpt lat="43.212576046117796" lon="11.766430104009508"><ele>261.3333333333333</ele><time>2026-04-12T10:31:45Z</time></trkpt><trkpt lat="43.21257968475338" lon="11.766203621845577"><ele>260.6666666666667</ele><time>2026-04-12T10:31:46Z</time></trkpt><trkpt lat="43.21258947951539" lon="11.765967781793215"><ele>260.0</ele><time>2026-04-12T10:31:47Z</time></trkpt><trkpt lat="43.212606545384304" lon="11.76575934102993"><ele>259.75</ele><time>2026-04-12T10:31:48Z</time></trkpt><trkpt lat="43.212624920859795" lon="11.765574835765326"><ele>259.5</ele><time>2026-04-12T10:31:49Z</time></trkpt><trkpt lat="43.21265029048432" lon="11.765389612774754"><ele>259.25</ele><time>2026-04-12T10:31:50Z</time></trkpt><trkpt lat="43.21267953273585" lon="11.765212128294175"><ele>259.0</ele><time>2026-04-12T10:31:51Z</time></trkpt><trkpt lat="43.212706267768525" lon="11.76503223407027"><ele>259.0</ele><time>2026-04-12T10:31:52Z</time></trkpt><trkpt lat="43.21273219450878" lon="11.764846877937487"><ele>259.0</ele><time>2026-04-12T10:31:52.999Z</time></trkpt><trkpt lat="43.21275761099742" lon="11.764659378010018"><ele>259.0</ele><time>2026-04-12T10:31:53.999Z</time></trkpt><trkpt lat="43.21278305491185" lon="11.764474898130066"><ele>259.0</ele><time>2026-04-12T10:31:54.999Z</time></trkpt><trkpt lat="43.21280275831177" lon="11.764296460137123"><ele>259.25</ele><time>2026-04-12T10:31:55.999Z</time></trkpt><trkpt lat="43.2128147252188" lon="11.764115826978552"><ele>259.5</ele><time>2026-04-12T10:31:56.999Z</time></trkpt><trkpt lat="43.21281699137064" lon="11.763931560765714"><ele>259.75</ele><time>2026-04-12T10:31:57.999Z</time></trkpt><trkpt lat="43.21281409032934" lon="11.76374416559204"><ele>260.0</ele><time>2026-04-12T10:31:58.999Z</time></trkpt><trkpt lat="43.21280340654774" lon="11.76355232540558"><ele>260.0</ele><time>2026-04-12T10:31:59.999Z</time></trkpt><trkpt lat="43.212791163499425" lon="11.763359270573432"><ele>260.0</ele><time>2026-04-12T10:32:00.999Z</time></trkpt><trkpt lat="43.21278252877891" lon="11.763179700633568"><ele>260.0</ele><time>2026-04-12T10:32:01.999Z</time></trkpt><trkpt lat="43.21277955711386" lon="11.763014489375804"><ele>260.0</ele><time>2026-04-12T10:32:02.999Z</time></trkpt><trkpt lat="43.21278390742261" lon="11.762861899503816"><ele>260.0</ele><time>2026-04-12T10:32:03.999Z</time></trkpt><trkpt lat="43.21279511165097" lon="11.762741490691953"><ele>260.0</ele><time>2026-04-12T10:32:04.999Z</time></trkpt><trkpt lat="43.21280576543125" lon="11.762635524199057"><ele>260.0</ele><time>2026-04-12T10:32:05.999Z</time></trkpt><trkpt lat="43.21281473203269" lon="11.762530980713766"><ele>260.0</ele><time>2026-04-12T10:32:06.999Z</time></trkpt><trkpt lat="43.212823035645705" lon="11.762424273840336"><ele>260.0</ele><time>2026-04-12T10:32:07.999Z</time></trkpt><trkpt lat="43.21282682844567" lon="11.762313718849782"><ele>260.0</ele><time>2026-04-12T10:32:08.999Z</time></trkpt><trkpt lat="43.21283425082866" lon="11.762195297433655"><ele>260.0</ele><time>2026-04-12T10:32:09.999Z</time></trkpt><trkpt lat="43.21284291061343" lon="11.76207018701149"><ele>260.0</ele><time>2026-04-12T10:32:10.999Z</time></trkpt><trkpt lat="43.21285274874957" lon="11.761934570068531"><ele>260.0</ele><time>2026-04-12T10:32:11.999Z</time></trkpt><trkpt lat="43.21286519990934" lon="11.761807878486698"><ele>260.0</ele><time>2026-04-12T10:32:12.999Z</time></trkpt><trkpt lat="43.21287775851026" lon="11.761686243491063"><ele>260.0</ele><time>2026-04-12T10:32:13.999Z</time></trkpt><trkpt lat="43.21288968666035" lon="11.761572322650547"><ele>259.83333333333337</ele><time>2026-04-12T10:32:14.999Z</time></trkpt><trkpt lat="43.212899738258194" lon="11.761472157841606"><ele>259.6666666666667</ele><time>2026-04-12T10:32:15.999Z</time></trkpt><trkpt lat="43.21291592504534" lon="11.761344819824679"><ele>259.5</ele><time>2026-04-12T10:32:17.999Z</time></trkpt><trkpt lat="43.212934627220015" lon="11.761247285805037"><ele>259.3333333333333</ele><time>2026-04-12T10:32:21.999Z</time></trkpt><trkpt lat="43.21297744148501" lon="11.76113256258813"><ele>259.16666666666663</ele><time>2026-04-12T10:32:25.999Z</time></trkpt><trkpt lat="43.21299037009932" lon="11.761008330046256"><ele>259.0</ele><time>2026-04-12T10:32:27.999Z</time></trkpt><trkpt lat="43.21300735282281" lon="11.76088282942203"><ele>258.66666666666663</ele><time>2026-04-12T10:32:30Z</time></trkpt><trkpt lat="43.21300601967562" lon="11.760783829120342"><ele>258.3333333333333</ele><time>2026-04-12T10:32:32Z</time></trkpt><trkpt lat="43.21307498523269" lon="11.760706825578675"><ele>258.0</ele><time>2026-04-12T10:32:34Z</time></trkpt><trkpt lat="43.21308874213471" lon="11.760597435424108"><ele>257.6666666666667</ele><time>2026-04-12T10:32:51Z</time></trkpt><trkpt lat="43.21309291949918" lon="11.760499518425249"><ele>257.33333333333337</ele><time>2026-04-12T10:32:52Z</time></trkpt><trkpt lat="43.21311876003709" lon="11.760409962977768"><ele>257.0</ele><time>2026-04-12T10:32:53Z</time></trkpt><trkpt lat="43.21314918264616" lon="11.760236079444253"><ele>257.75</ele><time>2026-04-12T10:32:55Z</time></trkpt><trkpt lat="43.21316958140208" lon="11.76010789853652"><ele>258.5</ele><time>2026-04-12T10:32:56Z</time></trkpt><trkpt lat="43.21320363829397" lon="11.759944067884138"><ele>259.25</ele><time>2026-04-12T10:32:57Z</time></trkpt><trkpt lat="43.213242282920774" lon="11.759765184448247"><ele>260.0</ele><time>2026-04-12T10:32:58Z</time></trkpt><trkpt lat="43.213282013287106" lon="11.759579158413251"><ele>260.0</ele><time>2026-04-12T10:32:59Z</time></trkpt><trkpt lat="43.213325564373264" lon="11.759383887231696"><ele>260.0</ele><time>2026-04-12T10:33:00Z</time></trkpt><trkpt lat="43.213366893415554" lon="11.759192157911633"><ele>260.0</ele><time>2026-04-12T10:33:01Z</time></trkpt><trkpt lat="43.21340550576453" lon="11.759013861305485"><ele>260.0</ele><time>2026-04-12T10:33:02Z</time></trkpt><trkpt lat="43.21343971269183" lon="11.758835323583366"><ele>260.0</ele><time>2026-04-12T10:33:03Z</time></trkpt><trkpt lat="43.21347301869713" lon="11.758652922566672"><ele>260.0</ele><time>2026-04-12T10:33:04Z</time></trkpt><trkpt lat="43.2135097777818" lon="11.75847725131056"><ele>260.0</ele><time>2026-04-12T10:33:05Z</time></trkpt><trkpt lat="43.213545190442986" lon="11.758322592852263"><ele>260.0</ele><time>2026-04-12T10:33:06Z</time></trkpt><trkpt lat="43.21357538556825" lon="11.758189764842951"><ele>260.0</ele><time>2026-04-12T10:33:07Z</time></trkpt><trkpt lat="43.21360616215326" lon="11.758099612140908"><ele>260.0</ele><time>2026-04-12T10:33:08Z</time></trkpt><trkpt lat="43.213683675583624" lon="11.758010903351524"><ele>260.0</ele><time>2026-04-12T10:33:10Z</time></trkpt><trkpt lat="43.213806570866545" lon="11.757939370940006"><ele>260.0</ele><time>2026-04-12T10:33:12Z</time></trkpt><trkpt lat="43.213859214142026" lon="11.757868131892957"><ele>260.0</ele><time>2026-04-12T10:33:13Z</time></trkpt><trkpt lat="43.21391473604013" lon="11.757792118855782"><ele>260.0</ele><time>2026-04-12T10:33:14Z</time></trkpt><trkpt lat="43.21398037453853" lon="11.757721540924758"><ele>260.0</ele><time>2026-04-12T10:33:15Z</time></trkpt><trkpt lat="43.214067047378606" lon="11.75766589891613"><ele>260.0</ele><time>2026-04-12T10:33:16Z</time></trkpt><trkpt lat="43.214173632519795" lon="11.757621850051326"><ele>260.0</ele><time>2026-04-12T10:33:17Z</time></trkpt><trkpt lat="43.2142866207319" lon="11.757570746118972"><ele>260.0</ele><time>2026-04-12T10:33:18Z</time></trkpt><trkpt lat="43.21440145920322" lon="11.75751867163815"><ele>259.8</ele><time>2026-04-12T10:33:19Z</time></trkpt><trkpt lat="43.21451291278935" lon="11.757466272280304"><ele>259.6</ele><time>2026-04-12T10:33:20Z</time></trkpt><trkpt lat="43.214611888763336" lon="11.757420429435532"><ele>259.4</ele><time>2026-04-12T10:33:21Z</time></trkpt><trkpt lat="43.214706041014665" lon="11.757378299594983"><ele>259.2</ele><time>2026-04-12T10:33:22Z</time></trkpt><trkpt lat="43.21479471931831" lon="11.757342446952054"><ele>259.0</ele><time>2026-04-12T10:33:23Z</time></trkpt><trkpt lat="43.214880030478895" lon="11.757303116202223"><ele>258.8</ele><time>2026-04-12T10:33:24Z</time></trkpt><trkpt lat="43.21495197823236" lon="11.757265400361954"><ele>258.59999999999997</ele><time>2026-04-12T10:33:25Z</time></trkpt><trkpt lat="43.21501760058539" lon="11.75723365667518"><ele>258.4</ele><time>2026-04-12T10:33:26Z</time></trkpt><trkpt lat="43.21508205868549" lon="11.757202906733095"><ele>258.2</ele><time>2026-04-12T10:33:27Z</time></trkpt><trkpt lat="43.215195989623716" lon="11.757148732975002"><ele>258.0</ele><time>2026-04-12T10:33:29Z</time></trkpt><trkpt lat="43.21531793070314" lon="11.757090046275081"><ele>258.0</ele><time>2026-04-12T10:33:31Z</time></trkpt><trkpt lat="43.21538273337143" lon="11.75706105868701"><ele>258.0</ele><time>2026-04-12T10:33:32Z</time></trkpt><trkpt lat="43.21544711951597" lon="11.757030700224165"><ele>258.0</ele><time>2026-04-12T10:33:33Z</time></trkpt><trkpt lat="43.21550897035071" lon="11.757003160979187"><ele>258.0</ele><time>2026-04-12T10:33:34Z</time></trkpt><trkpt lat="43.21562434309378" lon="11.75695033143801"><ele>258.0</ele><time>2026-04-12T10:33:35.999Z</time></trkpt><trkpt lat="43.215688308623456" lon="11.75692170524203"><ele>258.0</ele><time>2026-04-12T10:33:36.999Z</time></trkpt><trkpt lat="43.215751818484144" lon="11.756894382377078"><ele>257.99999999999994</ele><time>2026-04-12T10:33:37.999Z</time></trkpt><trkpt lat="43.215814135003484" lon="11.75687089986828"><ele>258.0</ele><time>2026-04-12T10:33:38.999Z</time></trkpt><trkpt lat="43.21587889471778" lon="11.756842472061702"><ele>258.0</ele><time>2026-04-12T10:33:39.999Z</time></trkpt><trkpt lat="43.21594440280357" lon="11.756804965322779"><ele>258.0</ele><time>2026-04-12T10:33:40.999Z</time></trkpt><trkpt lat="43.21600805184882" lon="11.756770848143756"><ele>258.0</ele><time>2026-04-12T10:33:41.999Z</time></trkpt><trkpt lat="43.21607780994602" lon="11.756734766596564"><ele>257.99999999999994</ele><time>2026-04-12T10:33:42.999Z</time></trkpt><trkpt lat="43.21615875226068" lon="11.756696858961712"><ele>258.0</ele><time>2026-04-12T10:33:43.999Z</time></trkpt><trkpt lat="43.216252156756234" lon="11.75665265865498"><ele>258.0</ele><time>2026-04-12T10:33:44.999Z</time></trkpt><trkpt lat="43.2163568631681" lon="11.756589416044568"><ele>258.0</ele><time>2026-04-12T10:33:45.999Z</time></trkpt><trkpt lat="43.216480380122825" lon="11.756554417579943"><ele>258.0</ele><time>2026-04-12T10:33:46.999Z</time></trkpt><trkpt lat="43.2166028962199" lon="11.75649835229638"><ele>258.0</ele><time>2026-04-12T10:33:47.999Z</time></trkpt><trkpt lat="43.216726710480096" lon="11.756423857197527"><ele>258.5</ele><time>2026-04-12T10:33:48.999Z</time></trkpt><trkpt lat="43.216859584093505" lon="11.756373423626734"><ele>259.0</ele><time>2026-04-12T10:33:49.999Z</time></trkpt><trkpt lat="43.216990560255525" lon="11.756313702395646"><ele>259.5</ele><time>2026-04-12T10:33:50.999Z</time></trkpt><trkpt lat="43.21712307528708" lon="11.756247645498018"><ele>260.0</ele><time>2026-04-12T10:33:51.999Z</time></trkpt><trkpt lat="43.21725743335815" lon="11.75618169766034"><ele>260.0</ele><time>2026-04-12T10:33:52.999Z</time></trkpt><trkpt lat="43.2173915777508" lon="11.7561220621334"><ele>260.0</ele><time>2026-04-12T10:33:53.999Z</time></trkpt><trkpt lat="43.217522034300316" lon="11.75606342247886"><ele>260.0</ele><time>2026-04-12T10:33:54.999Z</time></trkpt><trkpt lat="43.21765013027858" lon="11.756002424850587"><ele>260.0</ele><time>2026-04-12T10:33:55.999Z</time></trkpt><trkpt lat="43.21777627190744" lon="11.755943769719272"><ele>260.0</ele><time>2026-04-12T10:33:57Z</time></trkpt><trkpt lat="43.21790271065291" lon="11.755890543416301"><ele>260.0</ele><time>2026-04-12T10:33:58Z</time></trkpt><trkpt lat="43.21803168440878" lon="11.75583325792807"><ele>260.0</ele><time>2026-04-12T10:33:59Z</time></trkpt><trkpt lat="43.218162661357276" lon="11.755774212628712"><ele>260.0</ele><time>2026-04-12T10:34:00Z</time></trkpt><trkpt lat="43.218294347171884" lon="11.755714567249816"><ele>260.0</ele><time>2026-04-12T10:34:01Z</time></trkpt><trkpt lat="43.218426061916624" lon="11.755653443812061"><ele>260.0</ele><time>2026-04-12T10:34:02Z</time></trkpt><trkpt lat="43.21855740168945" lon="11.755592453713287"><ele>260.0</ele><time>2026-04-12T10:34:03Z</time></trkpt><trkpt lat="43.21868940700947" lon="11.755528379234232"><ele>260.0</ele><time>2026-04-12T10:34:04Z</time></trkpt><trkpt lat="43.21882455398447" lon="11.755466496846656"><ele>260.0</ele><time>2026-04-12T10:34:05Z</time></trkpt><trkpt lat="43.21895867372967" lon="11.755405623895001"><ele>260.0</ele><time>2026-04-12T10:34:06Z</time></trkpt><trkpt lat="43.21909233803631" lon="11.755345190499751"><ele>260.0</ele><time>2026-04-12T10:34:07Z</time></trkpt><trkpt lat="43.21922810675346" lon="11.755281037914727"><ele>260.0</ele><time>2026-04-12T10:34:08Z</time></trkpt><trkpt lat="43.219361437621195" lon="11.755219605194563"><ele>259.8</ele><time>2026-04-12T10:34:09Z</time></trkpt><trkpt lat="43.219485422052486" lon="11.755168902344746"><ele>259.6</ele><time>2026-04-12T10:34:10Z</time></trkpt><trkpt lat="43.21959575842023" lon="11.755115601898598"><ele>259.4</ele><time>2026-04-12T10:34:11Z</time></trkpt><trkpt lat="43.219694888382016" lon="11.755068705915127"><ele>259.2</ele><time>2026-04-12T10:34:12Z</time></trkpt><trkpt lat="43.21977805569174" lon="11.755025871062237"><ele>259.0</ele><time>2026-04-12T10:34:13Z</time></trkpt><trkpt lat="43.219858330087014" lon="11.754985288740896"><ele>259.0</ele><time>2026-04-12T10:34:14Z</time></trkpt><trkpt lat="43.21994340438599" lon="11.754944254025666"><ele>259.0</ele><time>2026-04-12T10:34:15Z</time></trkpt><trkpt lat="43.2200358445843" lon="11.754898727014732"><ele>259.0</ele><time>2026-04-12T10:34:16Z</time></trkpt><trkpt lat="43.220134696929684" lon="11.754855741854005"><ele>259.0</ele><time>2026-04-12T10:34:17Z</time></trkpt><trkpt lat="43.220236849102704" lon="11.754811153723685"><ele>259.0</ele><time>2026-04-12T10:34:18Z</time></trkpt><trkpt lat="43.220334943108895" lon="11.754770630416525"><ele>259.0</ele><time>2026-04-12T10:34:19Z</time></trkpt><trkpt lat="43.220422615395826" lon="11.754743608605207"><ele>259.0</ele><time>2026-04-12T10:34:20Z</time></trkpt><trkpt lat="43.22050424667057" lon="11.754725220558536"><ele>259.0</ele><time>2026-04-12T10:34:21Z</time></trkpt><trkpt lat="43.22057416476831" lon="11.75471742725778"><ele>259.0</ele><time>2026-04-12T10:34:22Z</time></trkpt><trkpt lat="43.22067606311777" lon="11.754727894663661"><ele>259.0</ele><time>2026-04-12T10:34:24Z</time></trkpt><trkpt lat="43.22074746812845" lon="11.754738993157611"><ele>259.0</ele><time>2026-04-12T10:34:30Z</time></trkpt><trkpt lat="43.22084237208011" lon="11.75475576005465"><ele>258.8</ele><time>2026-04-12T10:34:32Z</time></trkpt><trkpt lat="43.220955567369174" lon="11.754704537715616"><ele>258.59999999999997</ele><time>2026-04-12T10:34:34Z</time></trkpt><trkpt lat="43.22102084042781" lon="11.75465326456783"><ele>258.4</ele><time>2026-04-12T10:34:35Z</time></trkpt><trkpt lat="43.22104792537367" lon="11.754521653445504"><ele>258.2</ele><time>2026-04-12T10:34:36Z</time></trkpt><trkpt lat="43.2211374508823" lon="11.754433651666705"><ele>258.0</ele><time>2026-04-12T10:34:37Z</time></trkpt><trkpt lat="43.22123285178944" lon="11.754346167368158"><ele>258.0</ele><time>2026-04-12T10:34:38Z</time></trkpt><trkpt lat="43.221362171756034" lon="11.754275456970305"><ele>258.0</ele><time>2026-04-12T10:34:39Z</time></trkpt><trkpt lat="43.22151082988913" lon="11.754206453649314"><ele>258.0</ele><time>2026-04-12T10:34:40Z</time></trkpt><trkpt lat="43.221664181951176" lon="11.754136576185665"><ele>257.3333333333333</ele><time>2026-04-12T10:34:41Z</time></trkpt><trkpt lat="43.22181408516981" lon="11.754067485025137"><ele>256.66666666666663</ele><time>2026-04-12T10:34:42Z</time></trkpt><trkpt lat="43.22196018454347" lon="11.753994767857426"><ele>256.0</ele><time>2026-04-12T10:34:43Z</time></trkpt><trkpt lat="43.2221091006829" lon="11.753921507583668"><ele>256.0</ele><time>2026-04-12T10:34:44Z</time></trkpt><trkpt lat="43.2222608374754" lon="11.753849584418331"><ele>256.0</ele><time>2026-04-12T10:34:45Z</time></trkpt><trkpt lat="43.22241764701066" lon="11.753770644778937"><ele>256.0</ele><time>2026-04-12T10:34:46Z</time></trkpt><trkpt lat="43.22257496129458" lon="11.753693404589047"><ele>256.66666666666663</ele><time>2026-04-12T10:34:47Z</time></trkpt><trkpt lat="43.22273080589484" lon="11.753617024492572"><ele>257.3333333333333</ele><time>2026-04-12T10:34:48Z</time></trkpt><trkpt lat="43.222876907349175" lon="11.753547884331088"><ele>258.0</ele><time>2026-04-12T10:34:49Z</time></trkpt><trkpt lat="43.22300608342084" lon="11.753491723186448"><ele>258.0</ele><time>2026-04-12T10:34:50Z</time></trkpt><trkpt lat="43.223127491606796" lon="11.753454456052031"><ele>258.0</ele><time>2026-04-12T10:34:51Z</time></trkpt><trkpt lat="43.223245701008366" lon="11.753425152074833"><ele>258.0</ele><time>2026-04-12T10:34:52Z</time></trkpt><trkpt lat="43.22335798410776" lon="11.753409039723028"><ele>258.0</ele><time>2026-04-12T10:34:53Z</time></trkpt><trkpt lat="43.223459984025936" lon="11.753424207374664"><ele>258.0</ele><time>2026-04-12T10:34:54Z</time></trkpt><trkpt lat="43.22354803952402" lon="11.753448000912314"><ele>258.0</ele><time>2026-04-12T10:34:55Z</time></trkpt><trkpt lat="43.22362451947495" lon="11.7535421000938"><ele>258.0</ele><time>2026-04-12T10:34:56Z</time></trkpt><trkpt lat="43.223697265944" lon="11.753586726498282"><ele>258.0</ele><time>2026-04-12T10:34:57Z</time></trkpt><trkpt lat="43.223772638114546" lon="11.75356478899455"><ele>258.0</ele><time>2026-04-12T10:34:58Z</time></trkpt><trkpt lat="43.22383848929184" lon="11.753475378218354"><ele>258.0</ele><time>2026-04-12T10:34:59Z</time></trkpt><trkpt lat="43.22389712028899" lon="11.753344568868012"><ele>258.0</ele><time>2026-04-12T10:35:00.001Z</time></trkpt><trkpt lat="43.223964623067836" lon="11.75321144760565"><ele>258.0</ele><time>2026-04-12T10:35:01.001Z</time></trkpt><trkpt lat="43.22405746236806" lon="11.753083367216378"><ele>258.0</ele><time>2026-04-12T10:35:02.001Z</time></trkpt><trkpt lat="43.2241680402693" lon="11.752966752668208"><ele>258.0</ele><time>2026-04-12T10:35:03.001Z</time></trkpt><trkpt lat="43.22429700533622" lon="11.752866000437567"><ele>258.0</ele><time>2026-04-12T10:35:04.001Z</time></trkpt><trkpt lat="43.22444852120482" lon="11.752787528924479"><ele>258.0</ele><time>2026-04-12T10:35:05.001Z</time></trkpt><trkpt lat="43.22462014104611" lon="11.752714751317273"><ele>258.0</ele><time>2026-04-12T10:35:06.001Z</time></trkpt><trkpt lat="43.22480672818699" lon="11.75263313496743"><ele>258.3333333333333</ele><time>2026-04-12T10:35:07.001Z</time></trkpt><trkpt lat="43.22500002464566" lon="11.752542540146635"><ele>258.66666666666663</ele><time>2026-04-12T10:35:08.001Z</time></trkpt><trkpt lat="43.2251899780271" lon="11.752448827104486"><ele>259.0</ele><time>2026-04-12T10:35:09.001Z</time></trkpt><trkpt lat="43.22538000093769" lon="11.752356998096586"><ele>259.0</ele><time>2026-04-12T10:35:10.001Z</time></trkpt><trkpt lat="43.225562208938854" lon="11.752266437598138"><ele>259.0</ele><time>2026-04-12T10:35:11.001Z</time></trkpt><trkpt lat="43.22574159515719" lon="11.752180213844287"><ele>259.0</ele><time>2026-04-12T10:35:12.001Z</time></trkpt><trkpt lat="43.22592211098758" lon="11.752093503225144"><ele>259.0</ele><time>2026-04-12T10:35:13.001Z</time></trkpt><trkpt lat="43.22610443366983" lon="11.752005355032416"><ele>259.0</ele><time>2026-04-12T10:35:14.001Z</time></trkpt><trkpt lat="43.22628453322488" lon="11.751915337336424"><ele>259.0</ele><time>2026-04-12T10:35:15.001Z</time></trkpt><trkpt lat="43.22646530749648" lon="11.75182682400657"><ele>259.0</ele><time>2026-04-12T10:35:16.001Z</time></trkpt><trkpt lat="43.226644415250675" lon="11.751740194208923"><ele>259.0</ele><time>2026-04-12T10:35:17.001Z</time></trkpt><trkpt lat="43.22682605807689" lon="11.751655450788697"><ele>259.0</ele><time>2026-04-12T10:35:18.001Z</time></trkpt><trkpt lat="43.22700349905946" lon="11.751565627668901"><ele>259.0</ele><time>2026-04-12T10:35:19.001Z</time></trkpt><trkpt lat="43.227182791166925" lon="11.751475548148559"><ele>259.0</ele><time>2026-04-12T10:35:20.001Z</time></trkpt><trkpt lat="43.227358465563796" lon="11.751392629500444"><ele>259.0</ele><time>2026-04-12T10:35:21.001Z</time></trkpt><trkpt lat="43.22753357766937" lon="11.751313598145801"><ele>258.3333333333333</ele><time>2026-04-12T10:35:22.001Z</time></trkpt><trkpt lat="43.22770841413748" lon="11.751226041922722"><ele>257.6666666666667</ele><time>2026-04-12T10:35:23.001Z</time></trkpt><trkpt lat="43.22788328517805" lon="11.75114086488564"><ele>257.0</ele><time>2026-04-12T10:35:24.001Z</time></trkpt><trkpt lat="43.228060690244426" lon="11.75105286500104"><ele>257.0</ele><time>2026-04-12T10:35:25.001Z</time></trkpt><trkpt lat="43.22823078099883" lon="11.750967319724092"><ele>257.0</ele><time>2026-04-12T10:35:26.001Z</time></trkpt><trkpt lat="43.22840713401286" lon="11.750880392740221"><ele>257.0</ele><time>2026-04-12T10:35:27.001Z</time></trkpt><trkpt lat="43.228581042314" lon="11.750796005629027"><ele>257.0</ele><time>2026-04-12T10:35:28.001Z</time></trkpt><trkpt lat="43.22875952715276" lon="11.750712563138679"><ele>257.0</ele><time>2026-04-12T10:35:29.001Z</time></trkpt><trkpt lat="43.228931128683946" lon="11.75062889754668"><ele>257.0</ele><time>2026-04-12T10:35:30.001Z</time></trkpt><trkpt lat="43.22910702013181" lon="11.750545291828153"><ele>257.33333333333337</ele><time>2026-04-12T10:35:31.001Z</time></trkpt><trkpt lat="43.22927773509201" lon="11.750463610685527"><ele>257.6666666666667</ele><time>2026-04-12T10:35:32.001Z</time></trkpt><trkpt lat="43.22944928092233" lon="11.750380880725222"><ele>258.0</ele><time>2026-04-12T10:35:33.001Z</time></trkpt><trkpt lat="43.22960823133937" lon="11.750301688539544"><ele>258.0</ele><time>2026-04-12T10:35:34.001Z</time></trkpt><trkpt lat="43.22974575516742" lon="11.750228747796722"><ele>258.0</ele><time>2026-04-12T10:35:35.001Z</time></trkpt><trkpt lat="43.22987108130024" lon="11.75016629250641"><ele>258.0</ele><time>2026-04-12T10:35:36.001Z</time></trkpt><trkpt lat="43.22999182687946" lon="11.750104564734597"><ele>258.0</ele><time>2026-04-12T10:35:37.001Z</time></trkpt><trkpt lat="43.230107029944264" lon="11.750045423719495"><ele>258.5</ele><time>2026-04-12T10:35:38.001Z</time></trkpt><trkpt lat="43.230213408495445" lon="11.749988916456305"><ele>259.0</ele><time>2026-04-12T10:35:39.001Z</time></trkpt><trkpt lat="43.230321665148374" lon="11.74993269304327"><ele>259.5</ele><time>2026-04-12T10:35:40.001Z</time></trkpt><trkpt lat="43.23043544434875" lon="11.74987154300418"><ele>260.0</ele><time>2026-04-12T10:35:41.001Z</time></trkpt><trkpt lat="43.23055134798678" lon="11.749810310141383"><ele>260.25</ele><time>2026-04-12T10:35:42Z</time></trkpt><trkpt lat="43.230668438462864" lon="11.749744774320904"><ele>260.5</ele><time>2026-04-12T10:35:43Z</time></trkpt><trkpt lat="43.230788691714636" lon="11.749679830309235"><ele>260.75</ele><time>2026-04-12T10:35:44Z</time></trkpt><trkpt lat="43.23091079892029" lon="11.749616082075686"><ele>261.0</ele><time>2026-04-12T10:35:45Z</time></trkpt><trkpt lat="43.23103617035202" lon="11.749550170524431"><ele>261.0</ele><time>2026-04-12T10:35:46Z</time></trkpt><trkpt lat="43.23116341686735" lon="11.749485246299797"><ele>261.0</ele><time>2026-04-12T10:35:47Z</time></trkpt><trkpt lat="43.23129421067401" lon="11.749421583792975"><ele>261.0</ele><time>2026-04-12T10:35:48Z</time></trkpt><trkpt lat="43.23142360079906" lon="11.749354571933385"><ele>261.0</ele><time>2026-04-12T10:35:49Z</time></trkpt><trkpt lat="43.23154552415529" lon="11.749291011360254"><ele>260.8</ele><time>2026-04-12T10:35:50Z</time></trkpt><trkpt lat="43.23165628367129" lon="11.74923564760651"><ele>260.6</ele><time>2026-04-12T10:35:51Z</time></trkpt><trkpt lat="43.23175571122185" lon="11.749182536619903"><ele>260.4</ele><time>2026-04-12T10:35:52Z</time></trkpt><trkpt lat="43.2318356028086" lon="11.74912061243425"><ele>260.2</ele><time>2026-04-12T10:35:53Z</time></trkpt><trkpt lat="43.23189896425732" lon="11.749039222559402"><ele>260.0</ele><time>2026-04-12T10:35:54Z</time></trkpt><trkpt lat="43.23193381464159" lon="11.748945015632152"><ele>260.0</ele><time>2026-04-12T10:35:55Z</time></trkpt><trkpt lat="43.23195000165978" lon="11.748846336653397"><ele>260.0</ele><time>2026-04-12T10:35:56Z</time></trkpt><trkpt lat="43.23198357791323" lon="11.74871138911144"><ele>260.0</ele><time>2026-04-12T10:35:58Z</time></trkpt><trkpt lat="43.232033031499505" lon="11.748639635107512"><ele>260.0</ele><time>2026-04-12T10:36:00Z</time></trkpt><trkpt lat="43.23215076004738" lon="11.748612949787997"><ele>260.0</ele><time>2026-04-12T10:36:02Z</time></trkpt><trkpt lat="43.232231907037175" lon="11.748654000549656"><ele>260.4</ele><time>2026-04-12T10:36:03Z</time></trkpt><trkpt lat="43.23232742252032" lon="11.748696989266302"><ele>260.8</ele><time>2026-04-12T10:36:04Z</time></trkpt><trkpt lat="43.23243253341886" lon="11.748747616113016"><ele>261.2</ele><time>2026-04-12T10:36:05Z</time></trkpt><trkpt lat="43.232537992502074" lon="11.74879731716755"><ele>261.6</ele><time>2026-04-12T10:36:06Z</time></trkpt><trkpt lat="43.232629506595025" lon="11.74884346100796"><ele>262.0</ele><time>2026-04-12T10:36:07Z</time></trkpt><trkpt lat="43.23271039022472" lon="11.748883356272632"><ele>262.0</ele><time>2026-04-12T10:36:08Z</time></trkpt><trkpt lat="43.232778030837046" lon="11.748914407412"><ele>262.0</ele><time>2026-04-12T10:36:09Z</time></trkpt><trkpt lat="43.23286974189389" lon="11.74894646624101"><ele>262.0</ele><time>2026-04-12T10:36:11Z</time></trkpt><trkpt lat="43.23294001167979" lon="11.748810881772762"><ele>262.0</ele><time>2026-04-12T10:36:14Z</time></trkpt><trkpt lat="43.23292896792153" lon="11.748648842062865"><ele>262.0</ele><time>2026-04-12T10:36:16Z</time></trkpt><trkpt lat="43.23290309242438" lon="11.748531916105602"><ele>262.0</ele><time>2026-04-12T10:36:17Z</time></trkpt><trkpt lat="43.232849451986276" lon="11.748412874611914"><ele>262.0</ele><time>2026-04-12T10:36:18Z</time></trkpt><trkpt lat="43.2327793268645" lon="11.748290001788586"><ele>262.0</ele><time>2026-04-12T10:36:19Z</time></trkpt><trkpt lat="43.23269992563067" lon="11.748151491088342"><ele>262.0</ele><time>2026-04-12T10:36:20Z</time></trkpt><trkpt lat="43.232614016152645" lon="11.747998057693545"><ele>262.0</ele><time>2026-04-12T10:36:21Z</time></trkpt><trkpt lat="43.232519898075175" lon="11.747833829506437"><ele>262.0</ele><time>2026-04-12T10:36:22Z</time></trkpt><trkpt lat="43.232415423852785" lon="11.747656564367038"><ele>262.0</ele><time>2026-04-12T10:36:23Z</time></trkpt><trkpt lat="43.23231288709416" lon="11.747492094036492"><ele>262.25</ele><time>2026-04-12T10:36:24Z</time></trkpt><trkpt lat="43.23222342628328" lon="11.747346429643803"><ele>262.5</ele><time>2026-04-12T10:36:25Z</time></trkpt><trkpt lat="43.232142715505354" lon="11.747205813385191"><ele>262.75</ele><time>2026-04-12T10:36:26Z</time></trkpt><trkpt lat="43.23207244295398" lon="11.747066596327697"><ele>263.0</ele><time>2026-04-12T10:36:27Z</time></trkpt><trkpt lat="43.23201942684654" lon="11.74692877806822"><ele>262.75</ele><time>2026-04-12T10:36:28Z</time></trkpt><trkpt lat="43.23199411633023" lon="11.74678647446974"><ele>262.5</ele><time>2026-04-12T10:36:29Z</time></trkpt><trkpt lat="43.231980436430156" lon="11.746639820602832"><ele>262.25</ele><time>2026-04-12T10:36:30Z</time></trkpt><trkpt lat="43.2319803860203" lon="11.746477485781838"><ele>262.0</ele><time>2026-04-12T10:36:31Z</time></trkpt><trkpt lat="43.231979984010444" lon="11.746300555237516"><ele>262.0</ele><time>2026-04-12T10:36:32Z</time></trkpt><trkpt lat="43.23200914506045" lon="11.746116613684057"><ele>262.0</ele><time>2026-04-12T10:36:33Z</time></trkpt><trkpt lat="43.23204689218304" lon="11.745929943389957"><ele>262.0</ele><time>2026-04-12T10:36:34Z</time></trkpt><trkpt lat="43.2320852732593" lon="11.745734140083368"><ele>262.0</ele><time>2026-04-12T10:36:35Z</time></trkpt><trkpt lat="43.232118648412495" lon="11.745532878121331"><ele>261.66666666666663</ele><time>2026-04-12T10:36:36Z</time></trkpt><trkpt lat="43.232140439128344" lon="11.745319783100197"><ele>261.3333333333333</ele><time>2026-04-12T10:36:37Z</time></trkpt><trkpt lat="43.23216663454683" lon="11.7451033491159"><ele>261.0</ele><time>2026-04-12T10:36:38Z</time></trkpt><trkpt lat="43.23215813828609" lon="11.744875556954"><ele>261.0</ele><time>2026-04-12T10:36:39Z</time></trkpt><trkpt lat="43.23215171785185" lon="11.744646170703634"><ele>261.0</ele><time>2026-04-12T10:36:40Z</time></trkpt><trkpt lat="43.23215135138675" lon="11.74441211991298"><ele>261.0</ele><time>2026-04-12T10:36:41Z</time></trkpt><trkpt lat="43.23216837270767" lon="11.744170820479892"><ele>261.0</ele><time>2026-04-12T10:36:42Z</time></trkpt><trkpt lat="43.23218739974376" lon="11.743930253420814"><ele>261.0</ele><time>2026-04-12T10:36:43Z</time></trkpt><trkpt lat="43.232194001034394" lon="11.743676731136208"><ele>261.0</ele><time>2026-04-12T10:36:44Z</time></trkpt><trkpt lat="43.232220753244924" lon="11.74342485369013"><ele>261.0</ele><time>2026-04-12T10:36:45Z</time></trkpt><trkpt lat="43.23224511661507" lon="11.743187780059154"><ele>261.0</ele><time>2026-04-12T10:36:46Z</time></trkpt><trkpt lat="43.23226998173481" lon="11.742971527874952"><ele>261.0</ele><time>2026-04-12T10:36:47Z</time></trkpt><trkpt lat="43.23229484640716" lon="11.742772650190183"><ele>261.0</ele><time>2026-04-12T10:36:48Z</time></trkpt><trkpt lat="43.23234851457894" lon="11.742594323537901"><ele>261.0</ele><time>2026-04-12T10:36:49Z</time></trkpt><trkpt lat="43.232389720217796" lon="11.742429766689064"><ele>261.0</ele><time>2026-04-12T10:36:50Z</time></trkpt><trkpt lat="43.232440905078974" lon="11.742264224716392"><ele>261.0</ele><time>2026-04-12T10:36:51Z</time></trkpt><trkpt lat="43.23253646046945" lon="11.74211313239951"><ele>261.0</ele><time>2026-04-12T10:36:52Z</time></trkpt><trkpt lat="43.2326542938228" lon="11.741989661212768"><ele>261.0</ele><time>2026-04-12T10:36:53.001Z</time></trkpt><trkpt lat="43.23275888090505" lon="11.741821655389431"><ele>261.0</ele><time>2026-04-12T10:36:54.001Z</time></trkpt><trkpt lat="43.232838527746104" lon="11.741632705569046"><ele>261.0</ele><time>2026-04-12T10:36:55.001Z</time></trkpt><trkpt lat="43.2329461989398" lon="11.741448110361572"><ele>261.0</ele><time>2026-04-12T10:36:56.001Z</time></trkpt><trkpt lat="43.233032740895084" lon="11.741247855390347"><ele>261.0</ele><time>2026-04-12T10:36:57.001Z</time></trkpt><trkpt lat="43.233116128800546" lon="11.741043617318974"><ele>261.3333333333333</ele><time>2026-04-12T10:36:58.001Z</time></trkpt><trkpt lat="43.23319486783305" lon="11.740855018882506"><ele>261.66666666666663</ele><time>2026-04-12T10:36:59.001Z</time></trkpt><trkpt lat="43.23327511379615" lon="11.740672813190292"><ele>262.0</ele><time>2026-04-12T10:37:00.001Z</time></trkpt><trkpt lat="43.23336773206707" lon="11.74049951754846"><ele>262.0</ele><time>2026-04-12T10:37:01.001Z</time></trkpt><trkpt lat="43.233473008533004" lon="11.740337064588093"><ele>262.0</ele><time>2026-04-12T10:37:02.001Z</time></trkpt><trkpt lat="43.23358645359331" lon="11.740192255617563"><ele>262.0</ele><time>2026-04-12T10:37:03.001Z</time></trkpt><trkpt lat="43.23369409606396" lon="11.74004207670346"><ele>262.0</ele><time>2026-04-12T10:37:04.001Z</time></trkpt><trkpt lat="43.233802270137836" lon="11.73992029129655"><ele>262.0</ele><time>2026-04-12T10:37:05.001Z</time></trkpt><trkpt lat="43.23390024450941" lon="11.739794388089718"><ele>262.0</ele><time>2026-04-12T10:37:06.001Z</time></trkpt><trkpt lat="43.23398826595974" lon="11.739659872532753"><ele>262.0</ele><time>2026-04-12T10:37:07.001Z</time></trkpt><trkpt lat="43.23406111892561" lon="11.73950281387021"><ele>262.0</ele><time>2026-04-12T10:37:08.001Z</time></trkpt><trkpt lat="43.23411300779222" lon="11.73933148881513"><ele>262.0</ele><time>2026-04-12T10:37:09.001Z</time></trkpt><trkpt lat="43.234157872653455" lon="11.739155176721223"><ele>262.0</ele><time>2026-04-12T10:37:10.001Z</time></trkpt><trkpt lat="43.23418872769833" lon="11.738967459245258"><ele>262.0</ele><time>2026-04-12T10:37:11.001Z</time></trkpt><trkpt lat="43.23423394788975" lon="11.738779133684192"><ele>262.0</ele><time>2026-04-12T10:37:12.001Z</time></trkpt><trkpt lat="43.234265061301755" lon="11.738587568533921"><ele>262.0</ele><time>2026-04-12T10:37:13.001Z</time></trkpt><trkpt lat="43.23429300579122" lon="11.738416752360513"><ele>262.0</ele><time>2026-04-12T10:37:14.001Z</time></trkpt><trkpt lat="43.23432140183106" lon="11.738250770803889"><ele>262.0</ele><time>2026-04-12T10:37:15.001Z</time></trkpt><trkpt lat="43.23434727972772" lon="11.73807639586299"><ele>262.25</ele><time>2026-04-12T10:37:16.001Z</time></trkpt><trkpt lat="43.234360306014715" lon="11.73790242955533"><ele>262.5</ele><time>2026-04-12T10:37:17.001Z</time></trkpt><trkpt lat="43.23436275138236" lon="11.737727224910673"><ele>262.75</ele><time>2026-04-12T10:37:18.001Z</time></trkpt><trkpt lat="43.23434868873267" lon="11.737552330015552"><ele>263.0</ele><time>2026-04-12T10:37:19.001Z</time></trkpt><trkpt lat="43.23432152966597" lon="11.737383012240462"><ele>262.6</ele><time>2026-04-12T10:37:20.001Z</time></trkpt><trkpt lat="43.234292887688476" lon="11.737227030207643"><ele>262.20000000000005</ele><time>2026-04-12T10:37:21.001Z</time></trkpt><trkpt lat="43.23426387593969" lon="11.737081138716752"><ele>261.8</ele><time>2026-04-12T10:37:22.001Z</time></trkpt><trkpt lat="43.23422146279402" lon="11.736950055142193"><ele>261.40000000000003</ele><time>2026-04-12T10:37:23.001Z</time></trkpt><trkpt lat="43.23419487426801" lon="11.736813108272726"><ele>261.0</ele><time>2026-04-12T10:37:24.001Z</time></trkpt><trkpt lat="43.23416453676394" lon="11.736676318980821"><ele>261.0</ele><time>2026-04-12T10:37:25.001Z</time></trkpt><trkpt lat="43.23413689032182" lon="11.736535408072942"><ele>261.0</ele><time>2026-04-12T10:37:26.001Z</time></trkpt><trkpt lat="43.234109385985384" lon="11.73639182052328"><ele>261.0</ele><time>2026-04-12T10:37:27.001Z</time></trkpt><trkpt lat="43.234081368416255" lon="11.73624876915565"><ele>261.0</ele><time>2026-04-12T10:37:28.001Z</time></trkpt><trkpt lat="43.23405536806656" lon="11.736105691508545"><ele>261.0</ele><time>2026-04-12T10:37:29.001Z</time></trkpt><trkpt lat="43.234029624694536" lon="11.73596543646378"><ele>261.40000000000003</ele><time>2026-04-12T10:37:30.001Z</time></trkpt><trkpt lat="43.23400444799578" lon="11.735827643930445"><ele>261.8</ele><time>2026-04-12T10:37:31.001Z</time></trkpt><trkpt lat="43.23398074241509" lon="11.735691241530795"><ele>262.20000000000005</ele><time>2026-04-12T10:37:32.001Z</time></trkpt><trkpt lat="43.23396291353366" lon="11.735556951793644"><ele>262.6</ele><time>2026-04-12T10:37:33.001Z</time></trkpt><trkpt lat="43.23393999569563" lon="11.735428848601533"><ele>263.0</ele><time>2026-04-12T10:37:34.001Z</time></trkpt><trkpt lat="43.233921492496215" lon="11.735298225856004"><ele>263.1666666666667</ele><time>2026-04-12T10:37:35.001Z</time></trkpt><trkpt lat="43.23390636591933" lon="11.735163172198567"><ele>263.33333333333337</ele><time>2026-04-12T10:37:36.001Z</time></trkpt><trkpt lat="43.2339013339799" lon="11.735030859315307"><ele>263.5</ele><time>2026-04-12T10:37:37.001Z</time></trkpt><trkpt lat="43.233864181630864" lon="11.734920718229937"><ele>263.6666666666667</ele><time>2026-04-12T10:37:38.001Z</time></trkpt><trkpt lat="43.23383256984857" lon="11.73481407117887"><ele>263.8333333333333</ele><time>2026-04-12T10:37:39.001Z</time></trkpt><trkpt lat="43.23379842020756" lon="11.734722844216106"><ele>264.0</ele><time>2026-04-12T10:37:40.001Z</time></trkpt><trkpt lat="43.23376775894425" lon="11.734579700270235"><ele>264.0</ele><time>2026-04-12T10:37:42.001Z</time></trkpt><trkpt lat="43.23372852410386" lon="11.73441995769715"><ele>264.0</ele><time>2026-04-12T10:37:44.001Z</time></trkpt><trkpt lat="43.233710155882925" lon="11.734335421610364"><ele>264.0</ele><time>2026-04-12T10:37:45.001Z</time></trkpt><trkpt lat="43.23374652721978" lon="11.734152838463896"><ele>264.0</ele><time>2026-04-12T10:37:47.001Z</time></trkpt><trkpt lat="43.23380246723698" lon="11.734039050472997"><ele>264.0</ele><time>2026-04-12T10:37:48Z</time></trkpt><trkpt lat="43.23388737453135" lon="11.733904474583204"><ele>264.2</ele><time>2026-04-12T10:37:49Z</time></trkpt><trkpt lat="43.23394491922083" lon="11.733789623438458"><ele>264.4</ele><time>2026-04-12T10:37:50Z</time></trkpt><trkpt lat="43.2340061656387" lon="11.733669668850453"><ele>264.6</ele><time>2026-04-12T10:37:51Z</time></trkpt><trkpt lat="43.23404722161646" lon="11.733527924573396"><ele>264.8</ele><time>2026-04-12T10:37:52Z</time></trkpt><trkpt lat="43.23408592927888" lon="11.733376683120671"><ele>265.0</ele><time>2026-04-12T10:37:53Z</time></trkpt><trkpt lat="43.23409865787238" lon="11.7331999719832"><ele>265.0</ele><time>2026-04-12T10:37:54Z</time></trkpt><trkpt lat="43.23410702465883" lon="11.733006830324387"><ele>265.0</ele><time>2026-04-12T10:37:55Z</time></trkpt><trkpt lat="43.234108185939974" lon="11.732804133953566"><ele>265.0</ele><time>2026-04-12T10:37:56Z</time></trkpt><trkpt lat="43.23411842155761" lon="11.732607069578735"><ele>265.0</ele><time>2026-04-12T10:37:57Z</time></trkpt><trkpt lat="43.234138725649075" lon="11.732414782829416"><ele>265.25</ele><time>2026-04-12T10:37:58Z</time></trkpt><trkpt lat="43.23417168062747" lon="11.732226641077395"><ele>265.5</ele><time>2026-04-12T10:37:59Z</time></trkpt><trkpt lat="43.23422817332812" lon="11.732053089605031"><ele>265.75</ele><time>2026-04-12T10:38:00Z</time></trkpt><trkpt lat="43.234298541123856" lon="11.731875137318987"><ele>266.0</ele><time>2026-04-12T10:38:01Z</time></trkpt><trkpt lat="43.234354824897" lon="11.731701905087123"><ele>266.2</ele><time>2026-04-12T10:38:02Z</time></trkpt><trkpt lat="43.23441667076821" lon="11.731560872733484"><ele>266.40000000000003</ele><time>2026-04-12T10:38:03Z</time></trkpt><trkpt lat="43.234454554530345" lon="11.73143314776048"><ele>266.6</ele><time>2026-04-12T10:38:04Z</time></trkpt><trkpt lat="43.23446973279303" lon="11.731295345376656"><ele>266.8</ele><time>2026-04-12T10:38:05Z</time></trkpt><trkpt lat="43.234477051366035" lon="11.731146006970578"><ele>267.0</ele><time>2026-04-12T10:38:06Z</time></trkpt><trkpt lat="43.23444163265449" lon="11.730984402871998"><ele>267.6666666666667</ele><time>2026-04-12T10:38:07Z</time></trkpt><trkpt lat="43.23439224133809" lon="11.730800974937003"><ele>268.33333333333337</ele><time>2026-04-12T10:38:08Z</time></trkpt><trkpt lat="43.23432650413768" lon="11.730575851331512"><ele>269.0</ele><time>2026-04-12T10:38:09Z</time></trkpt><trkpt lat="43.23425593138417" lon="11.73034991632606"><ele>269.4</ele><time>2026-04-12T10:38:10Z</time></trkpt><trkpt lat="43.234205393420375" lon="11.730165478811474"><ele>269.79999999999995</ele><time>2026-04-12T10:38:11Z</time></trkpt><trkpt lat="43.23416196212771" lon="11.7300117753549"><ele>270.20000000000005</ele><time>2026-04-12T10:38:12Z</time></trkpt><trkpt lat="43.234123755487886" lon="11.729889793022"><ele>270.6</ele><time>2026-04-12T10:38:13Z</time></trkpt><trkpt lat="43.23409265109726" lon="11.729801786339072"><ele>271.0</ele><time>2026-04-12T10:38:14Z</time></trkpt><trkpt lat="43.23405581928298" lon="11.729729670039236"><ele>271.0</ele><time>2026-04-12T10:38:16Z</time></trkpt><trkpt lat="43.23414360196435" lon="11.729635215485578"><ele>271.0</ele><time>2026-04-12T10:38:19Z</time></trkpt><trkpt lat="43.23420845989477" lon="11.729574564449166"><ele>271.0</ele><time>2026-04-12T10:38:20Z</time></trkpt><trkpt lat="43.23429617844673" lon="11.72949024861393"><ele>271.0</ele><time>2026-04-12T10:38:21Z</time></trkpt><trkpt lat="43.23440125430973" lon="11.729382109732333"><ele>271.0</ele><time>2026-04-12T10:38:22Z</time></trkpt><trkpt lat="43.234517851899085" lon="11.72926404549518"><ele>271.25</ele><time>2026-04-12T10:38:23Z</time></trkpt><trkpt lat="43.23463319317736" lon="11.729132858472726"><ele>271.5</ele><time>2026-04-12T10:38:24Z</time></trkpt><trkpt lat="43.234763078130115" lon="11.729070005336695"><ele>271.75</ele><time>2026-04-12T10:38:25Z</time></trkpt><trkpt lat="43.234884473238054" lon="11.729013980422204"><ele>272.0</ele><time>2026-04-12T10:38:26Z</time></trkpt><trkpt lat="43.23501237334862" lon="11.72894922275197"><ele>271.5</ele><time>2026-04-12T10:38:27Z</time></trkpt><trkpt lat="43.23515350277522" lon="11.728915683968042"><ele>271.0</ele><time>2026-04-12T10:38:28Z</time></trkpt><trkpt lat="43.23529739136378" lon="11.7288846821889"><ele>270.5</ele><time>2026-04-12T10:38:29Z</time></trkpt><trkpt lat="43.235443956765664" lon="11.728857956206898"><ele>270.0</ele><time>2026-04-12T10:38:30Z</time></trkpt><trkpt lat="43.235588746577896" lon="11.728842416497764"><ele>269.3333333333333</ele><time>2026-04-12T10:38:31Z</time></trkpt><trkpt lat="43.23573731100654" lon="11.7288365036709"><ele>268.66666666666663</ele><time>2026-04-12T10:38:32Z</time></trkpt><trkpt lat="43.235889116223234" lon="11.728821034614635"><ele>268.0</ele><time>2026-04-12T10:38:33Z</time></trkpt><trkpt lat="43.236038405804536" lon="11.72878240615597"><ele>268.0</ele><time>2026-04-12T10:38:34Z</time></trkpt><trkpt lat="43.23617027669288" lon="11.728723145074497"><ele>268.0</ele><time>2026-04-12T10:38:35Z</time></trkpt><trkpt lat="43.236284682267154" lon="11.7286555261971"><ele>268.0</ele><time>2026-04-12T10:38:36Z</time></trkpt><trkpt lat="43.23637569919104" lon="11.728600256385409"><ele>268.0</ele><time>2026-04-12T10:38:37Z</time></trkpt><trkpt lat="43.23644310163115" lon="11.728556032085207"><ele>268.0</ele><time>2026-04-12T10:38:38Z</time></trkpt><trkpt lat="43.23650298557622" lon="11.728528601389385"><ele>268.0</ele><time>2026-04-12T10:38:41Z</time></trkpt><trkpt lat="43.23656241737929" lon="11.728455778741852"><ele>268.0</ele><time>2026-04-12T10:38:43Z</time></trkpt><trkpt lat="43.23660723446199" lon="11.728376133650132"><ele>268.0</ele><time>2026-04-12T10:38:44Z</time></trkpt><trkpt lat="43.23664973310488" lon="11.728287005814941"><ele>268.0</ele><time>2026-04-12T10:38:45Z</time></trkpt><trkpt lat="43.23669447394868" lon="11.728166882507125"><ele>268.0</ele><time>2026-04-12T10:38:46Z</time></trkpt><trkpt lat="43.23674231177528" lon="11.7280159501521"><ele>268.0</ele><time>2026-04-12T10:38:47Z</time></trkpt><trkpt lat="43.23677650486157" lon="11.727842582744891"><ele>268.0</ele><time>2026-04-12T10:38:48Z</time></trkpt><trkpt lat="43.23682808038557" lon="11.727666014294934"><ele>268.0</ele><time>2026-04-12T10:38:49Z</time></trkpt><trkpt lat="43.23687906549902" lon="11.727490556037463"><ele>268.0</ele><time>2026-04-12T10:38:50Z</time></trkpt><trkpt lat="43.23693057129524" lon="11.72732819759048"><ele>268.0</ele><time>2026-04-12T10:38:51Z</time></trkpt><trkpt lat="43.23700526454359" lon="11.727191648639566"><ele>268.0</ele><time>2026-04-12T10:38:52Z</time></trkpt><trkpt lat="43.23705839739625" lon="11.72704898742185"><ele>268.0</ele><time>2026-04-12T10:38:53Z</time></trkpt><trkpt lat="43.23713617016416" lon="11.726942059075059"><ele>268.0</ele><time>2026-04-12T10:38:54Z</time></trkpt><trkpt lat="43.2372199568583" lon="11.726842704337809"><ele>268.0</ele><time>2026-04-12T10:38:55Z</time></trkpt><trkpt lat="43.23732120714982" lon="11.726751163454002"><ele>268.0</ele><time>2026-04-12T10:38:56Z</time></trkpt><trkpt lat="43.237449530167254" lon="11.726693877558338"><ele>268.0</ele><time>2026-04-12T10:38:57Z</time></trkpt><trkpt lat="43.237584795592156" lon="11.726583236304712"><ele>268.0</ele><time>2026-04-12T10:38:58Z</time></trkpt><trkpt lat="43.237740239929465" lon="11.726488770781016"><ele>268.0</ele><time>2026-04-12T10:38:59Z</time></trkpt><trkpt lat="43.23789992768269" lon="11.726385313648947"><ele>268.0</ele><time>2026-04-12T10:39:00Z</time></trkpt><trkpt lat="43.23806323418026" lon="11.726284673924006"><ele>268.0</ele><time>2026-04-12T10:39:01Z</time></trkpt><trkpt lat="43.238225853684064" lon="11.726184885332142"><ele>267.66666666666663</ele><time>2026-04-12T10:39:02Z</time></trkpt><trkpt lat="43.23839150507522" lon="11.726078683234205"><ele>267.3333333333333</ele><time>2026-04-12T10:39:03Z</time></trkpt><trkpt lat="43.238556536208215" lon="11.725968097561914"><ele>267.0</ele><time>2026-04-12T10:39:04.001Z</time></trkpt><trkpt lat="43.23872245496425" lon="11.72585675449443"><ele>267.3333333333333</ele><time>2026-04-12T10:39:05.001Z</time></trkpt><trkpt lat="43.23888799492442" lon="11.725740469260238"><ele>267.66666666666663</ele><time>2026-04-12T10:39:06.001Z</time></trkpt><trkpt lat="43.23905388927545" lon="11.725626123492637"><ele>268.0</ele><time>2026-04-12T10:39:07.001Z</time></trkpt><trkpt lat="43.239226146415085" lon="11.725513071384603"><ele>268.0</ele><time>2026-04-12T10:39:08.001Z</time></trkpt><trkpt lat="43.23940247571728" lon="11.725399434878753"><ele>268.0</ele><time>2026-04-12T10:39:09.001Z</time></trkpt><trkpt lat="43.239587657445156" lon="11.725285306929097"><ele>268.0</ele><time>2026-04-12T10:39:10.001Z</time></trkpt><trkpt lat="43.23977132070224" lon="11.725167833914961"><ele>268.0</ele><time>2026-04-12T10:39:11.001Z</time></trkpt><trkpt lat="43.239953200776206" lon="11.725049426489276"><ele>268.0</ele><time>2026-04-12T10:39:12.001Z</time></trkpt><trkpt lat="43.24012223492947" lon="11.724933124094559"><ele>268.0</ele><time>2026-04-12T10:39:13.001Z</time></trkpt><trkpt lat="43.240285849835715" lon="11.724821953068075"><ele>268.0</ele><time>2026-04-12T10:39:14.001Z</time></trkpt><trkpt lat="43.240443507849506" lon="11.724706742187266"><ele>268.0</ele><time>2026-04-12T10:39:15.001Z</time></trkpt><trkpt lat="43.240598166235905" lon="11.724596844372265"><ele>268.0</ele><time>2026-04-12T10:39:16.001Z</time></trkpt><trkpt lat="43.240757096338285" lon="11.724488809100588"><ele>268.3333333333333</ele><time>2026-04-12T10:39:17.001Z</time></trkpt><trkpt lat="43.24090469905422" lon="11.724382905944973"><ele>268.6666666666667</ele><time>2026-04-12T10:39:18.001Z</time></trkpt><trkpt lat="43.24104196861571" lon="11.724286562848606"><ele>269.0</ele><time>2026-04-12T10:39:19.001Z</time></trkpt><trkpt lat="43.241171554999916" lon="11.724211046271433"><ele>269.0</ele><time>2026-04-12T10:39:20.001Z</time></trkpt><trkpt lat="43.24129348915471" lon="11.724167972663766"><ele>269.0</ele><time>2026-04-12T10:39:21.001Z</time></trkpt><trkpt lat="43.241407640004944" lon="11.72414507551104"><ele>269.0</ele><time>2026-04-12T10:39:22.001Z</time></trkpt><trkpt lat="43.241520395705955" lon="11.724099310089287"><ele>269.0</ele><time>2026-04-12T10:39:23.001Z</time></trkpt><trkpt lat="43.24163131047991" lon="11.724018874435886"><ele>269.0</ele><time>2026-04-12T10:39:24.001Z</time></trkpt><trkpt lat="43.241754798036" lon="11.723915787534505"><ele>269.0</ele><time>2026-04-12T10:39:25.001Z</time></trkpt><trkpt lat="43.24188745158063" lon="11.723815094835032"><ele>269.0</ele><time>2026-04-12T10:39:26.001Z</time></trkpt><trkpt lat="43.242017793339656" lon="11.723719491205213"><ele>269.0</ele><time>2026-04-12T10:39:27.001Z</time></trkpt><trkpt lat="43.24214923181395" lon="11.723609349307331"><ele>269.33333333333337</ele><time>2026-04-12T10:39:28.001Z</time></trkpt><trkpt lat="43.242283358605825" lon="11.723494810666015"><ele>269.6666666666667</ele><time>2026-04-12T10:39:29.001Z</time></trkpt><trkpt lat="43.24241950939595" lon="11.723373952250272"><ele>270.0</ele><time>2026-04-12T10:39:30.001Z</time></trkpt><trkpt lat="43.24257022648952" lon="11.723275092601376"><ele>270.0</ele><time>2026-04-12T10:39:31.001Z</time></trkpt><trkpt lat="43.24271427778218" lon="11.723192947111558"><ele>270.0</ele><time>2026-04-12T10:39:32.001Z</time></trkpt><trkpt lat="43.2428541441251" lon="11.723109941405493"><ele>270.0</ele><time>2026-04-12T10:39:33.001Z</time></trkpt><trkpt lat="43.24300130083964" lon="11.723010161258031"><ele>269.6666666666667</ele><time>2026-04-12T10:39:34.001Z</time></trkpt><trkpt lat="43.243143953790195" lon="11.722912647000094"><ele>269.33333333333337</ele><time>2026-04-12T10:39:35.001Z</time></trkpt><trkpt lat="43.24328771231811" lon="11.722813216555805"><ele>269.0</ele><time>2026-04-12T10:39:36.001Z</time></trkpt><trkpt lat="43.24342371717917" lon="11.722711731420727"><ele>269.5</ele><time>2026-04-12T10:39:37.001Z</time></trkpt><trkpt lat="43.24355275776793" lon="11.722608158451647"><ele>270.0</ele><time>2026-04-12T10:39:38.001Z</time></trkpt><trkpt lat="43.243666098439505" lon="11.722508122146042"><ele>270.5</ele><time>2026-04-12T10:39:39.001Z</time></trkpt><trkpt lat="43.24378011061666" lon="11.722407165758359"><ele>271.0</ele><time>2026-04-12T10:39:40.001Z</time></trkpt><trkpt lat="43.24389373559044" lon="11.722297830876391"><ele>271.5</ele><time>2026-04-12T10:39:41.001Z</time></trkpt><trkpt lat="43.244002490157584" lon="11.722187124964917"><ele>272.0</ele><time>2026-04-12T10:39:42.001Z</time></trkpt><trkpt lat="43.24410779479426" lon="11.722074308805231"><ele>272.5</ele><time>2026-04-12T10:39:43.001Z</time></trkpt><trkpt lat="43.24419930435139" lon="11.721972423482475"><ele>273.0</ele><time>2026-04-12T10:39:44.001Z</time></trkpt><trkpt lat="43.24427827823765" lon="11.721881342467388"><ele>273.0</ele><time>2026-04-12T10:39:45.001Z</time></trkpt><trkpt lat="43.24435635589212" lon="11.72181177589814"><ele>273.0</ele><time>2026-04-12T10:39:46.001Z</time></trkpt><trkpt lat="43.244445062600285" lon="11.721742785174607"><ele>273.0</ele><time>2026-04-12T10:39:47.001Z</time></trkpt><trkpt lat="43.244568111002565" lon="11.721653279794943"><ele>273.0</ele><time>2026-04-12T10:39:48.001Z</time></trkpt><trkpt lat="43.24470709145618" lon="11.721546050364669"><ele>273.0</ele><time>2026-04-12T10:39:49.001Z</time></trkpt><trkpt lat="43.2448370151971" lon="11.721439408832362"><ele>273.0</ele><time>2026-04-12T10:39:50.001Z</time></trkpt><trkpt lat="43.24497633910277" lon="11.721328314070767"><ele>273.0</ele><time>2026-04-12T10:39:51.001Z</time></trkpt><trkpt lat="43.24512308447349" lon="11.721218800691686"><ele>273.0</ele><time>2026-04-12T10:39:52.001Z</time></trkpt><trkpt lat="43.24526448852886" lon="11.721093304719266"><ele>273.0</ele><time>2026-04-12T10:39:53.001Z</time></trkpt><trkpt lat="43.24540891370697" lon="11.72096736436881"><ele>273.0</ele><time>2026-04-12T10:39:54Z</time></trkpt><trkpt lat="43.245546020500015" lon="11.720850274518996"><ele>272.75</ele><time>2026-04-12T10:39:55Z</time></trkpt><trkpt lat="43.24567898290793" lon="11.720737674583923"><ele>272.5</ele><time>2026-04-12T10:39:56Z</time></trkpt><trkpt lat="43.24580141385124" lon="11.720632803534267"><ele>272.25</ele><time>2026-04-12T10:39:57Z</time></trkpt><trkpt lat="43.2459195657515" lon="11.720528562819387"><ele>272.0</ele><time>2026-04-12T10:39:58Z</time></trkpt><trkpt lat="43.24604263190124" lon="11.720418852759543"><ele>272.0</ele><time>2026-04-12T10:39:59Z</time></trkpt><trkpt lat="43.24615676595568" lon="11.720322790694777"><ele>272.0</ele><time>2026-04-12T10:40:00Z</time></trkpt><trkpt lat="43.246262246238466" lon="11.720223909095113"><ele>272.0</ele><time>2026-04-12T10:40:01Z</time></trkpt><trkpt lat="43.24636370661035" lon="11.72013353341492"><ele>272.0</ele><time>2026-04-12T10:40:02Z</time></trkpt><trkpt lat="43.24645100005097" lon="11.720053168040588"><ele>272.6</ele><time>2026-04-12T10:40:03Z</time></trkpt><trkpt lat="43.24651988318671" lon="11.720000715274065"><ele>273.2</ele><time>2026-04-12T10:40:04Z</time></trkpt><trkpt lat="43.24661432157155" lon="11.719943505711113"><ele>273.8</ele><time>2026-04-12T10:40:06Z</time></trkpt><trkpt lat="43.246750841888726" lon="11.719949476873094"><ele>274.4</ele><time>2026-04-12T10:40:08Z</time></trkpt><trkpt lat="43.24685191754692" lon="11.71994686549411"><ele>275.0</ele><time>2026-04-12T10:40:09Z</time></trkpt><trkpt lat="43.246981876430105" lon="11.719974690521452"><ele>275.0</ele><time>2026-04-12T10:40:10Z</time></trkpt><trkpt lat="43.2470969473185" lon="11.720011221536192"><ele>275.0</ele><time>2026-04-12T10:40:11Z</time></trkpt><trkpt lat="43.247183209820065" lon="11.720021957270458"><ele>275.0</ele><time>2026-04-12T10:40:12Z</time></trkpt><trkpt lat="43.24726296717264" lon="11.71996728754125"><ele>275.0</ele><time>2026-04-12T10:40:14Z</time></trkpt><trkpt lat="43.247193332211296" lon="11.71973130517473"><ele>275.0</ele><time>2026-04-12T10:40:16Z</time></trkpt><trkpt lat="43.24712373345837" lon="11.71959846198781"><ele>275.0</ele><time>2026-04-12T10:40:17Z</time></trkpt><trkpt lat="43.247017191489164" lon="11.71939346591666"><ele>275.0</ele><time>2026-04-12T10:40:18Z</time></trkpt><trkpt lat="43.24691130149068" lon="11.719174491841327"><ele>275.2</ele><time>2026-04-12T10:40:19Z</time></trkpt><trkpt lat="43.24682170577239" lon="11.718980370554616"><ele>275.4</ele><time>2026-04-12T10:40:20Z</time></trkpt><trkpt lat="43.246779263503186" lon="11.71885451409419"><ele>275.6</ele><time>2026-04-12T10:40:21Z</time></trkpt><trkpt lat="43.246729537431" lon="11.718778390225356"><ele>275.8</ele><time>2026-04-12T10:40:22Z</time></trkpt><trkpt lat="43.246733377444926" lon="11.71865474306536"><ele>276.0</ele><time>2026-04-12T10:40:24Z</time></trkpt><trkpt lat="43.24683838456797" lon="11.71855499673967"><ele>276.6666666666667</ele><time>2026-04-12T10:40:26Z</time></trkpt><trkpt lat="43.24694438897402" lon="11.718481343043603"><ele>277.33333333333337</ele><time>2026-04-12T10:40:27Z</time></trkpt><trkpt lat="43.24709324790367" lon="11.718386556492558"><ele>278.0</ele><time>2026-04-12T10:40:28Z</time></trkpt><trkpt lat="43.24726995267237" lon="11.718267986228872"><ele>278.0</ele><time>2026-04-12T10:40:29Z</time></trkpt><trkpt lat="43.24747627782922" lon="11.718126894210164"><ele>278.0</ele><time>2026-04-12T10:40:30Z</time></trkpt><trkpt lat="43.24768046531355" lon="11.717981466052308"><ele>278.0</ele><time>2026-04-12T10:40:31Z</time></trkpt><trkpt lat="43.247849148858776" lon="11.7178474087023"><ele>278.0</ele><time>2026-04-12T10:40:32Z</time></trkpt><trkpt lat="43.247990961415866" lon="11.717703164553813"><ele>278.0</ele><time>2026-04-12T10:40:33Z</time></trkpt><trkpt lat="43.24812453811002" lon="11.717550635167667"><ele>277.33333333333337</ele><time>2026-04-12T10:40:34Z</time></trkpt><trkpt lat="43.24824975688753" lon="11.717393929828797"><ele>276.6666666666667</ele><time>2026-04-12T10:40:35Z</time></trkpt><trkpt lat="43.24835794118547" lon="11.717195047109195"><ele>276.0</ele><time>2026-04-12T10:40:36Z</time></trkpt><trkpt lat="43.24845976881117" lon="11.716942769894175"><ele>277.0</ele><time>2026-04-12T10:40:37Z</time></trkpt><trkpt lat="43.248559429268106" lon="11.716668663117966"><ele>278.0</ele><time>2026-04-12T10:40:38Z</time></trkpt><trkpt lat="43.24866378975969" lon="11.716399884905323"><ele>279.0</ele><time>2026-04-12T10:40:39Z</time></trkpt><trkpt lat="43.248777605478544" lon="11.716138661559235"><ele>279.3333333333333</ele><time>2026-04-12T10:40:40Z</time></trkpt><trkpt lat="43.24891882702871" lon="11.71590295548108"><ele>279.66666666666663</ele><time>2026-04-12T10:40:41Z</time></trkpt><trkpt lat="43.24906436448095" lon="11.715663503904052"><ele>280.0</ele><time>2026-04-12T10:40:42Z</time></trkpt><trkpt lat="43.24921433169159" lon="11.715431336226159"><ele>278.0</ele><time>2026-04-12T10:40:43Z</time></trkpt><trkpt lat="43.24937272918696" lon="11.71521360686473"><ele>276.0</ele><time>2026-04-12T10:40:44Z</time></trkpt><trkpt lat="43.249563134723225" lon="11.71501805848138"><ele>275.0</ele><time>2026-04-12T10:40:45Z</time></trkpt><trkpt lat="43.24980047935812" lon="11.714854272596904"><ele>274.0</ele><time>2026-04-12T10:40:46Z</time></trkpt><trkpt lat="43.25006977644209" lon="11.714673130943725"><ele>274.0</ele><time>2026-04-12T10:40:47Z</time></trkpt><trkpt lat="43.25035521482818" lon="11.714471625599673"><ele>274.0</ele><time>2026-04-12T10:40:48Z</time></trkpt><trkpt lat="43.25061056554345" lon="11.714301789465182"><ele>274.66666666666663</ele><time>2026-04-12T10:40:49Z</time></trkpt><trkpt lat="43.25081265748459" lon="11.714156263333853"><ele>275.3333333333333</ele><time>2026-04-12T10:40:50Z</time></trkpt><trkpt lat="43.2510067421706" lon="11.714026839846209"><ele>276.0</ele><time>2026-04-12T10:40:51Z</time></trkpt><trkpt lat="43.25119353305792" lon="11.713905249492903"><ele>276.0</ele><time>2026-04-12T10:40:52Z</time></trkpt><trkpt lat="43.25137253351329" lon="11.713787131818943"><ele>276.0</ele><time>2026-04-12T10:40:53Z</time></trkpt><trkpt lat="43.25153573756459" lon="11.713676643443721"><ele>276.0</ele><time>2026-04-12T10:40:54Z</time></trkpt><trkpt lat="43.25167567662112" lon="11.713568016066972"><ele>276.6666666666667</ele><time>2026-04-12T10:40:55Z</time></trkpt><trkpt lat="43.251802592508824" lon="11.71343632417875"><ele>277.33333333333337</ele><time>2026-04-12T10:40:56Z</time></trkpt><trkpt lat="43.251915161310876" lon="11.713253434572005"><ele>278.0</ele><time>2026-04-12T10:40:57Z</time></trkpt><trkpt lat="43.252013843374094" lon="11.713025257848615"><ele>278.0</ele><time>2026-04-12T10:40:58Z</time></trkpt><trkpt lat="43.252086408363" lon="11.7127483416811"><ele>278.0</ele><time>2026-04-12T10:40:59Z</time></trkpt><trkpt lat="43.25211807260727" lon="11.7124489819377"><ele>278.0</ele><time>2026-04-12T10:41:00Z</time></trkpt><trkpt lat="43.25212589797982" lon="11.712157745267653"><ele>278.6666666666667</ele><time>2026-04-12T10:41:01Z</time></trkpt><trkpt lat="43.25212563270343" lon="11.711880241387265"><ele>279.3333333333333</ele><time>2026-04-12T10:41:02Z</time></trkpt><trkpt lat="43.2521379462286" lon="11.711618078320639"><ele>280.0</ele><time>2026-04-12T10:41:03Z</time></trkpt><trkpt lat="43.25217350615083" lon="11.711357675828479"><ele>280.0</ele><time>2026-04-12T10:41:04Z</time></trkpt><trkpt lat="43.2522018336039" lon="11.7110898263776"><ele>280.0</ele><time>2026-04-12T10:41:05Z</time></trkpt><trkpt lat="43.25222317237893" lon="11.710818581421032"><ele>280.0</ele><time>2026-04-12T10:41:06Z</time></trkpt><trkpt lat="43.2522621422863" lon="11.710600078694776"><ele>278.6</ele><time>2026-04-12T10:41:07.001Z</time></trkpt><trkpt lat="43.25229609491263" lon="11.71045903451322"><ele>277.2</ele><time>2026-04-12T10:41:08.001Z</time></trkpt><trkpt lat="43.25232814276849" lon="11.71035493004893"><ele>275.8</ele><time>2026-04-12T10:41:09.001Z</time></trkpt><trkpt lat="43.2523810006787" lon="11.710278005631633"><ele>274.4</ele><time>2026-04-12T10:41:10.001Z</time></trkpt><trkpt lat="43.252462388925764" lon="11.710250295714324"><ele>273.0</ele><time>2026-04-12T10:41:11.001Z</time></trkpt><trkpt lat="43.25257328267379" lon="11.71028541380565"><ele>273.0</ele><time>2026-04-12T10:41:12.001Z</time></trkpt><trkpt lat="43.25266774862332" lon="11.710351764098776"><ele>273.0</ele><time>2026-04-12T10:41:13.001Z</time></trkpt><trkpt lat="43.252745031385025" lon="11.710427449002594"><ele>273.0</ele><time>2026-04-12T10:41:14.001Z</time></trkpt><trkpt lat="43.25278881607535" lon="11.710507979725703"><ele>273.0</ele><time>2026-04-12T10:41:15.001Z</time></trkpt><trkpt lat="43.25281001556136" lon="11.71061681001652"><ele>273.0</ele><time>2026-04-12T10:41:16.001Z</time></trkpt><trkpt lat="43.25282108570871" lon="11.71076921384476"><ele>273.0</ele><time>2026-04-12T10:41:17.001Z</time></trkpt><trkpt lat="43.2528301353403" lon="11.710959877298125"><ele>273.0</ele><time>2026-04-12T10:41:18.001Z</time></trkpt><trkpt lat="43.25286230795718" lon="11.711149031268429"><ele>273.0</ele><time>2026-04-12T10:41:19.001Z</time></trkpt><trkpt lat="43.25292963675465" lon="11.71129256234711"><ele>273.0</ele><time>2026-04-12T10:41:20.001Z</time></trkpt><trkpt lat="43.253023721926084" lon="11.711390171961009"><ele>272.25</ele><time>2026-04-12T10:41:21.001Z</time></trkpt><trkpt lat="43.25312561313818" lon="11.711442045387932"><ele>271.5</ele><time>2026-04-12T10:41:22.001Z</time></trkpt><trkpt lat="43.25324678359366" lon="11.711455543148164"><ele>270.75</ele><time>2026-04-12T10:41:23.001Z</time></trkpt><trkpt lat="43.25337925000296" lon="11.711427254628997"><ele>270.0</ele><time>2026-04-12T10:41:24.001Z</time></trkpt><trkpt lat="43.253482431592985" lon="11.711341663046188"><ele>270.0</ele><time>2026-04-12T10:41:25.001Z</time></trkpt><trkpt lat="43.25357137235825" lon="11.711227176637742"><ele>270.0</ele><time>2026-04-12T10:41:26.001Z</time></trkpt><trkpt lat="43.25366735860644" lon="11.71110271729895"><ele>270.0</ele><time>2026-04-12T10:41:27.001Z</time></trkpt><trkpt lat="43.253780268864546" lon="11.7110296967451"><ele>270.0</ele><time>2026-04-12T10:41:28.001Z</time></trkpt><trkpt lat="43.25388956911018" lon="11.71100820435529"><ele>270.2</ele><time>2026-04-12T10:41:29.001Z</time></trkpt><trkpt lat="43.254004321669605" lon="11.711025841159604"><ele>270.4</ele><time>2026-04-12T10:41:30.001Z</time></trkpt><trkpt lat="43.25410612556776" lon="11.711018120975202"><ele>270.6</ele><time>2026-04-12T10:41:31.001Z</time></trkpt><trkpt lat="43.254195957957826" lon="11.71094491213948"><ele>270.8</ele><time>2026-04-12T10:41:32.001Z</time></trkpt><trkpt lat="43.25426078457632" lon="11.710817473137881"><ele>271.0</ele><time>2026-04-12T10:41:33.001Z</time></trkpt><trkpt lat="43.25430069859263" lon="11.7106768751976"><ele>271.0</ele><time>2026-04-12T10:41:34.001Z</time></trkpt><trkpt lat="43.254309456779296" lon="11.710514973328864"><ele>271.0</ele><time>2026-04-12T10:41:35.001Z</time></trkpt><trkpt lat="43.25429726758043" lon="11.71033333752914"><ele>271.0</ele><time>2026-04-12T10:41:36.001Z</time></trkpt><trkpt lat="43.2542839748996" lon="11.710122548385936"><ele>271.0</ele><time>2026-04-12T10:41:37.001Z</time></trkpt><trkpt lat="43.25427091281459" lon="11.709887829137395"><ele>270.66666666666663</ele><time>2026-04-12T10:41:38.001Z</time></trkpt><trkpt lat="43.25426724085593" lon="11.709619878162759"><ele>270.3333333333333</ele><time>2026-04-12T10:41:39.001Z</time></trkpt><trkpt lat="43.25426675218108" lon="11.709339896271555"><ele>270.0</ele><time>2026-04-12T10:41:40.001Z</time></trkpt><trkpt lat="43.254262594512326" lon="11.709063749370754"><ele>270.0</ele><time>2026-04-12T10:41:41.001Z</time></trkpt><trkpt lat="43.254270099128846" lon="11.708807729129896"><ele>270.0</ele><time>2026-04-12T10:41:42.001Z</time></trkpt><trkpt lat="43.25429627466704" lon="11.708552396323734"><ele>270.0</ele><time>2026-04-12T10:41:43.001Z</time></trkpt><trkpt lat="43.25434371939016" lon="11.708295118787836"><ele>270.3333333333333</ele><time>2026-04-12T10:41:44.001Z</time></trkpt><trkpt lat="43.254395621927934" lon="11.708049161521048"><ele>270.66666666666663</ele><time>2026-04-12T10:41:45.001Z</time></trkpt><trkpt lat="43.254450936464806" lon="11.707817735650444"><ele>271.0</ele><time>2026-04-12T10:41:46.001Z</time></trkpt><trkpt lat="43.254505483915175" lon="11.707594484529299"><ele>272.0</ele><time>2026-04-12T10:41:47.001Z</time></trkpt><trkpt lat="43.25455793481867" lon="11.707369048017346"><ele>273.0</ele><time>2026-04-12T10:41:48.001Z</time></trkpt><trkpt lat="43.25460427173036" lon="11.707153487697317"><ele>274.0</ele><time>2026-04-12T10:41:49.001Z</time></trkpt><trkpt lat="43.254651665997194" lon="11.706946331185025"><ele>273.66666666666663</ele><time>2026-04-12T10:41:50.001Z</time></trkpt><trkpt lat="43.25469832328265" lon="11.706746457500836"><ele>273.3333333333333</ele><time>2026-04-12T10:41:51.001Z</time></trkpt><trkpt lat="43.25474880514277" lon="11.706544016234142"><ele>273.0</ele><time>2026-04-12T10:41:52.001Z</time></trkpt><trkpt lat="43.254802529579386" lon="11.706362076702616"><ele>273.0</ele><time>2026-04-12T10:41:53.001Z</time></trkpt><trkpt lat="43.254858499144326" lon="11.706195180710877"><ele>273.0</ele><time>2026-04-12T10:41:54.001Z</time></trkpt><trkpt lat="43.254916141900324" lon="11.706044539415265"><ele>273.0</ele><time>2026-04-12T10:41:55.001Z</time></trkpt><trkpt lat="43.2549851078888" lon="11.705903595114203"><ele>273.0</ele><time>2026-04-12T10:41:56.001Z</time></trkpt><trkpt lat="43.255072986414675" lon="11.70578438243361"><ele>273.6</ele><time>2026-04-12T10:41:57.001Z</time></trkpt><trkpt lat="43.25517752696083" lon="11.705702601734092"><ele>274.20000000000005</ele><time>2026-04-12T10:41:58.001Z</time></trkpt><trkpt lat="43.25526938496762" lon="11.70563448294095"><ele>274.8</ele><time>2026-04-12T10:41:59.001Z</time></trkpt><trkpt lat="43.255357104728816" lon="11.705594515841181"><ele>275.40000000000003</ele><time>2026-04-12T10:42:00Z</time></trkpt><trkpt lat="43.2554407420424" lon="11.705566933889338"><ele>276.0</ele><time>2026-04-12T10:42:01Z</time></trkpt><trkpt lat="43.255520437427364" lon="11.705561258285563"><ele>276.0</ele><time>2026-04-12T10:42:02Z</time></trkpt><trkpt lat="43.2555904453919" lon="11.705565368154334"><ele>276.0</ele><time>2026-04-12T10:42:03Z</time></trkpt><trkpt lat="43.255685476334286" lon="11.705589267819802"><ele>276.0</ele><time>2026-04-12T10:42:05Z</time></trkpt><trkpt lat="43.255765798662544" lon="11.705601797254195"><ele>276.0</ele><time>2026-04-12T10:42:11Z</time></trkpt><trkpt lat="43.25584561882442" lon="11.70560219956676"><ele>276.0</ele><time>2026-04-12T10:42:58Z</time></trkpt><trkpt lat="43.25592679219867" lon="11.705607508480893"><ele>276.0</ele><time>2026-04-12T10:42:59Z</time></trkpt><trkpt lat="43.25605175980639" lon="11.705624652645119"><ele>275.3333333333333</ele><time>2026-04-12T10:43:00Z</time></trkpt><trkpt lat="43.25622262724073" lon="11.705649925510667"><ele>274.66666666666663</ele><time>2026-04-12T10:43:01Z</time></trkpt><trkpt lat="43.25639584993857" lon="11.705676583193435"><ele>274.0</ele><time>2026-04-12T10:43:02Z</time></trkpt><trkpt lat="43.256534765263424" lon="11.705693887478475"><ele>274.0</ele><time>2026-04-12T10:43:03Z</time></trkpt><trkpt lat="43.25664189022733" lon="11.705710364425034"><ele>274.0</ele><time>2026-04-12T10:43:04Z</time></trkpt><trkpt lat="43.256727593048964" lon="11.705722302288594"><ele>274.0</ele><time>2026-04-12T10:43:05Z</time></trkpt><trkpt lat="43.25679585469156" lon="11.705732607582002"><ele>274.0</ele><time>2026-04-12T10:43:06.001Z</time></trkpt><trkpt lat="43.256918518202845" lon="11.705749288565448"><ele>274.0</ele><time>2026-04-12T10:43:08.001Z</time></trkpt><trkpt lat="43.25700245812901" lon="11.705780948463888"><ele>274.0</ele><time>2026-04-12T10:43:10.001Z</time></trkpt><trkpt lat="43.25713823963559" lon="11.705646310229726"><ele>274.0</ele><time>2026-04-12T10:43:14.001Z</time></trkpt><trkpt lat="43.25716019331265" lon="11.705496734015469"><ele>274.0</ele><time>2026-04-12T10:43:16.001Z</time></trkpt><trkpt lat="43.25730734027009" lon="11.705517457619186"><ele>274.0</ele><time>2026-04-12T10:43:21.001Z</time></trkpt><trkpt lat="43.25739255286277" lon="11.705604972472887"><ele>274.75</ele><time>2026-04-12T10:43:22.001Z</time></trkpt><trkpt lat="43.257501140672574" lon="11.705689801479824"><ele>275.5</ele><time>2026-04-12T10:43:23.001Z</time></trkpt><trkpt lat="43.257617912684175" lon="11.705769797502256"><ele>276.25</ele><time>2026-04-12T10:43:24.001Z</time></trkpt><trkpt lat="43.2577412458327" lon="11.705861118493603"><ele>277.0</ele><time>2026-04-12T10:43:25.001Z</time></trkpt><trkpt lat="43.257842254918764" lon="11.705938666937376"><ele>277.0</ele><time>2026-04-12T10:43:26.001Z</time></trkpt><trkpt lat="43.25793171207514" lon="11.705997585416938"><ele>277.0</ele><time>2026-04-12T10:43:27.001Z</time></trkpt><trkpt lat="43.258011425759015" lon="11.7060540942232"><ele>277.0</ele><time>2026-04-12T10:43:28.001Z</time></trkpt><trkpt lat="43.25807912400418" lon="11.706100493030519"><ele>277.0</ele><time>2026-04-12T10:43:29.001Z</time></trkpt><trkpt lat="43.258186109834924" lon="11.706143563129455"><ele>277.0</ele><time>2026-04-12T10:43:31.001Z</time></trkpt><trkpt lat="43.25825649197448" lon="11.706157563341296"><ele>277.0</ele><time>2026-04-12T10:43:33.001Z</time></trkpt><trkpt lat="43.25836687537843" lon="11.705964829716699"><ele>278.8</ele><time>2026-04-12T10:43:35.001Z</time></trkpt><trkpt lat="43.25845302294789" lon="11.705898994935206"><ele>280.6</ele><time>2026-04-12T10:43:37.001Z</time></trkpt><trkpt lat="43.25851195465358" lon="11.705847252657158"><ele>282.40000000000003</ele><time>2026-04-12T10:43:55.001Z</time></trkpt><trkpt lat="43.25843366325283" lon="11.705929753799992"><ele>284.2</ele><time>2026-04-12T10:44:09Z</time></trkpt><trkpt lat="43.25833916272177" lon="11.705995675426779"><ele>286.0</ele><time>2026-04-12T10:44:11Z</time></trkpt><trkpt lat="43.25826514410804" lon="11.70605421883019"><ele>284.2</ele><time>2026-04-12T10:44:13Z</time></trkpt><trkpt lat="43.25821298838337" lon="11.70611869231634"><ele>282.40000000000003</ele><time>2026-04-12T10:44:17Z</time></trkpt><trkpt lat="43.258111924423304" lon="11.706120737510993"><ele>280.6</ele><time>2026-04-12T10:44:56Z</time></trkpt><trkpt lat="43.257972242382664" lon="11.70601363944153"><ele>278.8</ele><time>2026-04-12T10:44:58Z</time></trkpt><trkpt lat="43.257894064361835" lon="11.705952138735197"><ele>277.0</ele><time>2026-04-12T10:44:59Z</time></trkpt><trkpt lat="43.257799957490974" lon="11.70588881059287"><ele>277.0</ele><time>2026-04-12T10:45:00Z</time></trkpt><trkpt lat="43.25770346177956" lon="11.705823011852758"><ele>277.0</ele><time>2026-04-12T10:45:01Z</time></trkpt><trkpt lat="43.25761173833675" lon="11.70575673593939"><ele>277.0</ele><time>2026-04-12T10:45:02Z</time></trkpt><trkpt lat="43.25752498295024" lon="11.705686827360053"><ele>277.0</ele><time>2026-04-12T10:45:03Z</time></trkpt><trkpt lat="43.257449317365854" lon="11.705624403910704"><ele>277.0</ele><time>2026-04-12T10:45:04Z</time></trkpt><trkpt lat="43.25738025611846" lon="11.705574374256612"><ele>277.0</ele><time>2026-04-12T10:45:05Z</time></trkpt><trkpt lat="43.25728624635535" lon="11.705497296174439"><ele>277.0</ele><time>2026-04-12T10:45:07Z</time></trkpt><trkpt lat="43.25723071633033" lon="11.70542828614655"><ele>277.0</ele><time>2026-04-12T10:45:09.001Z</time></trkpt><trkpt lat="43.25717846591024" lon="11.705376981226545"><ele>277.0</ele><time>2026-04-12T10:45:25.001Z</time></trkpt><trkpt lat="43.25714528322492" lon="11.705242019018256"><ele>277.0</ele><time>2026-04-12T10:45:27.001Z</time></trkpt><trkpt lat="43.25716144723254" lon="11.705128740456681"><ele>277.0</ele><time>2026-04-12T10:45:28.001Z</time></trkpt><trkpt lat="43.25716210397615" lon="11.704999368647371"><ele>276.5</ele><time>2026-04-12T10:45:29.001Z</time></trkpt><trkpt lat="43.25716150662049" lon="11.704823865672251"><ele>276.0</ele><time>2026-04-12T10:45:30.001Z</time></trkpt><trkpt lat="43.25716054639239" lon="11.70462313115869"><ele>275.5</ele><time>2026-04-12T10:45:31.001Z</time></trkpt><trkpt lat="43.257143653646395" lon="11.704418855896352"><ele>275.0</ele><time>2026-04-12T10:45:32.001Z</time></trkpt><trkpt lat="43.257159711902425" lon="11.704212069771055"><ele>275.0</ele><time>2026-04-12T10:45:33.001Z</time></trkpt><trkpt lat="43.257139918400064" lon="11.704013018099571"><ele>275.0</ele><time>2026-04-12T10:45:34.001Z</time></trkpt><trkpt lat="43.25713741374813" lon="11.703815393727597"><ele>275.0</ele><time>2026-04-12T10:45:35.001Z</time></trkpt><trkpt lat="43.25713430836353" lon="11.703614486477491"><ele>275.0</ele><time>2026-04-12T10:45:36.001Z</time></trkpt><trkpt lat="43.257134301521894" lon="11.70342298449922"><ele>275.0</ele><time>2026-04-12T10:45:37.001Z</time></trkpt><trkpt lat="43.257166988384554" lon="11.703230581001115"><ele>275.0</ele><time>2026-04-12T10:45:38.001Z</time></trkpt><trkpt lat="43.2571695601221" lon="11.703029391895337"><ele>275.0</ele><time>2026-04-12T10:45:39.001Z</time></trkpt><trkpt lat="43.25717217331175" lon="11.702824960087492"><ele>275.0</ele><time>2026-04-12T10:45:40.001Z</time></trkpt><trkpt lat="43.25716386130855" lon="11.702626672712817"><ele>275.0</ele><time>2026-04-12T10:45:41.001Z</time></trkpt><trkpt lat="43.25716426374514" lon="11.702437651317787"><ele>275.0</ele><time>2026-04-12T10:45:42.001Z</time></trkpt><trkpt lat="43.257165524945144" lon="11.702264092738504"><ele>275.0</ele><time>2026-04-12T10:45:43.001Z</time></trkpt><trkpt lat="43.25716708989762" lon="11.702100571354109"><ele>275.0</ele><time>2026-04-12T10:45:44.001Z</time></trkpt><trkpt lat="43.2571735226743" lon="11.701945670540344"><ele>275.2</ele><time>2026-04-12T10:45:45.001Z</time></trkpt><trkpt lat="43.257188591138096" lon="11.701803001708054"><ele>275.4</ele><time>2026-04-12T10:45:46.001Z</time></trkpt><trkpt lat="43.257187864665525" lon="11.701659163460075"><ele>275.6</ele><time>2026-04-12T10:45:47.001Z</time></trkpt><trkpt lat="43.257191156887046" lon="11.701527333830331"><ele>275.8</ele><time>2026-04-12T10:45:48.001Z</time></trkpt><trkpt lat="43.25719727513579" lon="11.701401159830798"><ele>276.0</ele><time>2026-04-12T10:45:49.001Z</time></trkpt><trkpt lat="43.25720585931708" lon="11.701281909646555"><ele>276.0</ele><time>2026-04-12T10:45:50.001Z</time></trkpt><trkpt lat="43.257211891166925" lon="11.70117482441466"><ele>276.0</ele><time>2026-04-12T10:45:51.001Z</time></trkpt><trkpt lat="43.25722061136758" lon="11.701070247325134"><ele>276.0</ele><time>2026-04-12T10:45:52.001Z</time></trkpt><trkpt lat="43.25722709506107" lon="11.700973728709721"><ele>276.0</ele><time>2026-04-12T10:45:53.001Z</time></trkpt><trkpt lat="43.257231531738356" lon="11.700883601307197"><ele>276.0</ele><time>2026-04-12T10:45:54.001Z</time></trkpt><trkpt lat="43.257235839208015" lon="11.700719383686872"><ele>276.0</ele><time>2026-04-12T10:45:56.001Z</time></trkpt><trkpt lat="43.25724727980219" lon="11.70058725302068"><ele>275.5</ele><time>2026-04-12T10:45:58.001Z</time></trkpt><trkpt lat="43.257248064200944" lon="11.700476963481854"><ele>275.0</ele><time>2026-04-12T10:46:20.999Z</time></trkpt><trkpt lat="43.2572644170636" lon="11.700353343293902"><ele>274.5</ele><time>2026-04-12T10:46:22.999Z</time></trkpt><trkpt lat="43.257222837224056" lon="11.700613339712817"><ele>274.0</ele><time>2026-04-12T10:46:30.999Z</time></trkpt><trkpt lat="43.25722124964356" lon="11.700814464804237"><ele>274.0</ele><time>2026-04-12T10:46:31.999Z</time></trkpt><trkpt lat="43.25721139038505" lon="11.701031099653731"><ele>274.0</ele><time>2026-04-12T10:46:32.999Z</time></trkpt><trkpt lat="43.25719279033909" lon="11.701282011911436"><ele>274.0</ele><time>2026-04-12T10:46:33.999Z</time></trkpt><trkpt lat="43.25717744598362" lon="11.70154776285094"><ele>274.3333333333333</ele><time>2026-04-12T10:46:34.999Z</time></trkpt><trkpt lat="43.25716903838523" lon="11.70183159419148"><ele>274.6666666666667</ele><time>2026-04-12T10:46:35.999Z</time></trkpt><trkpt lat="43.25716357268433" lon="11.702120104138135"><ele>275.0</ele><time>2026-04-12T10:46:36.999Z</time></trkpt><trkpt lat="43.25715852677166" lon="11.702395583975903"><ele>275.0</ele><time>2026-04-12T10:46:37.999Z</time></trkpt><trkpt lat="43.25714017499617" lon="11.702651571971977"><ele>275.0</ele><time>2026-04-12T10:46:38.999Z</time></trkpt><trkpt lat="43.25713779882754" lon="11.702908419243444"><ele>275.0</ele><time>2026-04-12T10:46:40Z</time></trkpt><trkpt lat="43.25714989298508" lon="11.703169250482862"><ele>275.0</ele><time>2026-04-12T10:46:41Z</time></trkpt><trkpt lat="43.25714326460583" lon="11.703423198500412"><ele>275.0</ele><time>2026-04-12T10:46:42Z</time></trkpt><trkpt lat="43.25713969792321" lon="11.703660858578568"><ele>275.0</ele><time>2026-04-12T10:46:43Z</time></trkpt><trkpt lat="43.25713910606245" lon="11.703880911795668"><ele>275.0</ele><time>2026-04-12T10:46:44Z</time></trkpt><trkpt lat="43.257141411925566" lon="11.70408792194425"><ele>275.0</ele><time>2026-04-12T10:46:45Z</time></trkpt><trkpt lat="43.25705552331717" lon="11.704297074347014"><ele>275.0</ele><time>2026-04-12T10:46:46Z</time></trkpt><trkpt lat="43.25714841535303" lon="11.70451139692864"><ele>274.75</ele><time>2026-04-12T10:46:47Z</time></trkpt><trkpt lat="43.25715121306611" lon="11.704719832440862"><ele>274.5</ele><time>2026-04-12T10:46:48Z</time></trkpt><trkpt lat="43.257155456124714" lon="11.704916295181361"><ele>274.25</ele><time>2026-04-12T10:46:49Z</time></trkpt><trkpt lat="43.257154752704956" lon="11.705092686948163"><ele>274.0</ele><time>2026-04-12T10:46:50Z</time></trkpt><trkpt lat="43.25714290016441" lon="11.70525040981583"><ele>274.0</ele><time>2026-04-12T10:46:51Z</time></trkpt><trkpt lat="43.25713310431732" lon="11.705375075894283"><ele>274.0</ele><time>2026-04-12T10:46:52Z</time></trkpt><trkpt lat="43.257121524655666" lon="11.705495237680482"><ele>274.0</ele><time>2026-04-12T10:46:53Z</time></trkpt><trkpt lat="43.25709980012008" lon="11.70561496815352"><ele>274.0</ele><time>2026-04-12T10:46:54Z</time></trkpt><trkpt lat="43.25707549109546" lon="11.705708378097226"><ele>274.0</ele><time>2026-04-12T10:46:55Z</time></trkpt><trkpt lat="43.25707388173837" lon="11.705900354654196"><ele>273.75</ele><time>2026-04-12T10:46:57Z</time></trkpt><trkpt lat="43.25708053456581" lon="11.706088196845899"><ele>273.5</ele><time>2026-04-12T10:46:58Z</time></trkpt><trkpt lat="43.25704975063116" lon="11.706279488299522"><ele>273.25</ele><time>2026-04-12T10:46:59Z</time></trkpt><trkpt lat="43.25703371802962" lon="11.706460060045128"><ele>273.0</ele><time>2026-04-12T10:47:00Z</time></trkpt><trkpt lat="43.25701535631207" lon="11.706667517260454"><ele>273.0</ele><time>2026-04-12T10:47:01Z</time></trkpt><trkpt lat="43.25699540656298" lon="11.706893792911965"><ele>273.0</ele><time>2026-04-12T10:47:02Z</time></trkpt><trkpt lat="43.25697583552939" lon="11.707115773000451"><ele>273.0</ele><time>2026-04-12T10:47:03Z</time></trkpt><trkpt lat="43.25697195925762" lon="11.707330860947788"><ele>273.0</ele><time>2026-04-12T10:47:04Z</time></trkpt><trkpt lat="43.256952512700934" lon="11.707527791047427"><ele>273.0</ele><time>2026-04-12T10:47:05Z</time></trkpt><trkpt lat="43.256934226908555" lon="11.707731166576217"><ele>273.0</ele><time>2026-04-12T10:47:06Z</time></trkpt><trkpt lat="43.2569237915385" lon="11.70793098466291"><ele>273.0</ele><time>2026-04-12T10:47:07Z</time></trkpt><trkpt lat="43.25693431462199" lon="11.708114270777736"><ele>273.0</ele><time>2026-04-12T10:47:08Z</time></trkpt><trkpt lat="43.25699801010223" lon="11.708301134509522"><ele>273.0</ele><time>2026-04-12T10:47:09Z</time></trkpt><trkpt lat="43.257092687194906" lon="11.708472668527442"><ele>273.0</ele><time>2026-04-12T10:47:10Z</time></trkpt><trkpt lat="43.2572437818586" lon="11.708602284710915"><ele>272.3333333333333</ele><time>2026-04-12T10:47:11Z</time></trkpt><trkpt lat="43.25738209289796" lon="11.708745805406565"><ele>271.66666666666663</ele><time>2026-04-12T10:47:12Z</time></trkpt><trkpt lat="43.257535669649705" lon="11.708915038209874"><ele>271.0</ele><time>2026-04-12T10:47:13Z</time></trkpt><trkpt lat="43.25768669345307" lon="11.709130868040651"><ele>271.0</ele><time>2026-04-12T10:47:14Z</time></trkpt><trkpt lat="43.257851266447446" lon="11.709339423541918"><ele>271.0</ele><time>2026-04-12T10:47:15Z</time></trkpt><trkpt lat="43.25802417015961" lon="11.709553837668613"><ele>269.5</ele><time>2026-04-12T10:47:16Z</time></trkpt><trkpt lat="43.25821200027038" lon="11.709751576243523"><ele>268.0</ele><time>2026-04-12T10:47:17Z</time></trkpt><trkpt lat="43.25838860468546" lon="11.709965327603738"><ele>268.0</ele><time>2026-04-12T10:47:18Z</time></trkpt><trkpt lat="43.25856518392886" lon="11.710176266125396"><ele>268.0</ele><time>2026-04-12T10:47:19Z</time></trkpt><trkpt lat="43.25873831625025" lon="11.710388781567847"><ele>268.0</ele><time>2026-04-12T10:47:20Z</time></trkpt><trkpt lat="43.2589096333495" lon="11.710599508095708"><ele>268.0</ele><time>2026-04-12T10:47:21Z</time></trkpt><trkpt lat="43.259078775015176" lon="11.710808926660642"><ele>268.0</ele><time>2026-04-12T10:47:22Z</time></trkpt><trkpt lat="43.25924806188283" lon="11.711020528152472"><ele>268.0</ele><time>2026-04-12T10:47:23Z</time></trkpt><trkpt lat="43.25941663239682" lon="11.71123201470546"><ele>268.0</ele><time>2026-04-12T10:47:24Z</time></trkpt><trkpt lat="43.25958456761584" lon="11.711440191144595"><ele>268.0</ele><time>2026-04-12T10:47:25Z</time></trkpt><trkpt lat="43.25975120917236" lon="11.711648912870666"><ele>268.0</ele><time>2026-04-12T10:47:26Z</time></trkpt><trkpt lat="43.259918978167605" lon="11.711857175926252"><ele>268.0</ele><time>2026-04-12T10:47:27Z</time></trkpt><trkpt lat="43.26008562445971" lon="11.712066970320821"><ele>268.0</ele><time>2026-04-12T10:47:28Z</time></trkpt><trkpt lat="43.260253191464415" lon="11.71227077501878"><ele>268.0</ele><time>2026-04-12T10:47:29Z</time></trkpt><trkpt lat="43.26042388381913" lon="11.712459952423728"><ele>268.0</ele><time>2026-04-12T10:47:30Z</time></trkpt><trkpt lat="43.26060268169741" lon="11.712619715056052"><ele>267.3333333333333</ele><time>2026-04-12T10:47:31Z</time></trkpt><trkpt lat="43.26078173905318" lon="11.712750604710603"><ele>266.6666666666667</ele><time>2026-04-12T10:47:32Z</time></trkpt><trkpt lat="43.26096884339203" lon="11.712869160708639"><ele>266.0</ele><time>2026-04-12T10:47:33Z</time></trkpt><trkpt lat="43.2611617767143" lon="11.712976111196518"><ele>266.0</ele><time>2026-04-12T10:47:34Z</time></trkpt><trkpt lat="43.2613571515867" lon="11.713084184251493"><ele>266.0</ele><time>2026-04-12T10:47:35Z</time></trkpt><trkpt lat="43.26155339701046" lon="11.713195895508406"><ele>266.0</ele><time>2026-04-12T10:47:36Z</time></trkpt><trkpt lat="43.26175061846251" lon="11.713304848137023"><ele>266.33333333333337</ele><time>2026-04-12T10:47:37Z</time></trkpt><trkpt lat="43.26192951628623" lon="11.713406713623897"><ele>266.6666666666667</ele><time>2026-04-12T10:47:38Z</time></trkpt><trkpt lat="43.26208654661751" lon="11.713498247941818"><ele>267.0</ele><time>2026-04-12T10:47:39Z</time></trkpt><trkpt lat="43.26221702615119" lon="11.713577315971119"><ele>267.2</ele><time>2026-04-12T10:47:40Z</time></trkpt><trkpt lat="43.26232079914508" lon="11.713635186849757"><ele>267.4</ele><time>2026-04-12T10:47:41Z</time></trkpt><trkpt lat="43.26240089810061" lon="11.713673498778814"><ele>267.6</ele><time>2026-04-12T10:47:42Z</time></trkpt><trkpt lat="43.26246457904591" lon="11.71370322317033"><ele>267.8</ele><time>2026-04-12T10:47:43Z</time></trkpt><trkpt lat="43.262523480458185" lon="11.713478343838817"><ele>268.0</ele><time>2026-04-12T10:47:47Z</time></trkpt><trkpt lat="43.26255543810799" lon="11.713377268994613"><ele>268.4</ele><time>2026-04-12T10:47:48Z</time></trkpt><trkpt lat="43.26263544696518" lon="11.713301340980733"><ele>268.8</ele><time>2026-04-12T10:47:49Z</time></trkpt><trkpt lat="43.26271244719336" lon="11.71323254158672"><ele>269.2</ele><time>2026-04-12T10:47:50Z</time></trkpt><trkpt lat="43.26279158963609" lon="11.713142907901384"><ele>269.6</ele><time>2026-04-12T10:47:51.001Z</time></trkpt><trkpt lat="43.26290071179387" lon="11.713083749673672"><ele>270.0</ele><time>2026-04-12T10:47:52.001Z</time></trkpt><trkpt lat="43.26302461665715" lon="11.71302966075185"><ele>270.0</ele><time>2026-04-12T10:47:53.001Z</time></trkpt><trkpt lat="43.26316050135941" lon="11.71297044594745"><ele>270.0</ele><time>2026-04-12T10:47:54.001Z</time></trkpt><trkpt lat="43.26329629954251" lon="11.712897907468644"><ele>270.0</ele><time>2026-04-12T10:47:55.001Z</time></trkpt><trkpt lat="43.26343107905485" lon="11.712815347176129"><ele>270.0</ele><time>2026-04-12T10:47:56.001Z</time></trkpt><trkpt lat="43.263567421404346" lon="11.712720239864082"><ele>271.0</ele><time>2026-04-12T10:47:57.001Z</time></trkpt><trkpt lat="43.2637089510204" lon="11.712619430758673"><ele>272.0</ele><time>2026-04-12T10:47:58.001Z</time></trkpt><trkpt lat="43.263849856770676" lon="11.712523054779332"><ele>273.0</ele><time>2026-04-12T10:47:59.001Z</time></trkpt><trkpt lat="43.263995955054746" lon="11.71242820676795"><ele>273.3333333333333</ele><time>2026-04-12T10:48:00.001Z</time></trkpt><trkpt lat="43.264141092292114" lon="11.712336392794693"><ele>273.66666666666663</ele><time>2026-04-12T10:48:01.001Z</time></trkpt><trkpt lat="43.26428575464785" lon="11.712236004089878"><ele>274.0</ele><time>2026-04-12T10:48:02.001Z</time></trkpt><trkpt lat="43.26443089227224" lon="11.712131415822544"><ele>274.0</ele><time>2026-04-12T10:48:03.001Z</time></trkpt><trkpt lat="43.26457092037626" lon="11.712023455607103"><ele>274.0</ele><time>2026-04-12T10:48:04.001Z</time></trkpt><trkpt lat="43.26470766021782" lon="11.711914153430577"><ele>274.0</ele><time>2026-04-12T10:48:05.001Z</time></trkpt><trkpt lat="43.26483928362672" lon="11.711812216594003"><ele>274.4</ele><time>2026-04-12T10:48:06.001Z</time></trkpt><trkpt lat="43.264953447745306" lon="11.711711621352205"><ele>274.79999999999995</ele><time>2026-04-12T10:48:07.001Z</time></trkpt><trkpt lat="43.26505642738045" lon="11.711633813132673"><ele>275.20000000000005</ele><time>2026-04-12T10:48:08.001Z</time></trkpt><trkpt lat="43.265137432419245" lon="11.711588132222507"><ele>275.6</ele><time>2026-04-12T10:48:09.001Z</time></trkpt><trkpt lat="43.26522024296499" lon="11.711558284242177"><ele>276.0</ele><time>2026-04-12T10:48:10.001Z</time></trkpt><trkpt lat="43.26531931571216" lon="11.711568576458959"><ele>276.0</ele><time>2026-04-12T10:48:11.001Z</time></trkpt><trkpt lat="43.26544426065488" lon="11.711547569300485"><ele>276.0</ele><time>2026-04-12T10:48:12.001Z</time></trkpt><trkpt lat="43.26557829733484" lon="11.711541948041475"><ele>276.0</ele><time>2026-04-12T10:48:13.001Z</time></trkpt><trkpt lat="43.26572536818913" lon="11.711537478196973"><ele>276.0</ele><time>2026-04-12T10:48:14.001Z</time></trkpt><trkpt lat="43.265893145000476" lon="11.711510618316991"><ele>275.6666666666667</ele><time>2026-04-12T10:48:15.001Z</time></trkpt><trkpt lat="43.26607540849873" lon="11.711483182625555"><ele>275.33333333333337</ele><time>2026-04-12T10:48:16.001Z</time></trkpt><trkpt lat="43.26626531124084" lon="11.711450597173696"><ele>275.0</ele><time>2026-04-12T10:48:17.001Z</time></trkpt><trkpt lat="43.266459634616226" lon="11.711429004481364"><ele>275.0</ele><time>2026-04-12T10:48:17.999Z</time></trkpt><trkpt lat="43.26665612393533" lon="11.711432944909843"><ele>275.0</ele><time>2026-04-12T10:48:18.999Z</time></trkpt><trkpt lat="43.2668499877566" lon="11.71140039856783"><ele>275.0</ele><time>2026-04-12T10:48:19.999Z</time></trkpt><trkpt lat="43.26703893045568" lon="11.711389912958268"><ele>275.0</ele><time>2026-04-12T10:48:20.999Z</time></trkpt><trkpt lat="43.26722637825709" lon="11.711387676303548"><ele>275.0</ele><time>2026-04-12T10:48:21.999Z</time></trkpt><trkpt lat="43.267404474032794" lon="11.711392076185714"><ele>275.0</ele><time>2026-04-12T10:48:22.999Z</time></trkpt><trkpt lat="43.267566359134676" lon="11.711403482254699"><ele>274.75</ele><time>2026-04-12T10:48:23.999Z</time></trkpt><trkpt lat="43.26771811346223" lon="11.71141701246336"><ele>274.5</ele><time>2026-04-12T10:48:24.999Z</time></trkpt><trkpt lat="43.26785361371446" lon="11.711424997138167"><ele>274.25</ele><time>2026-04-12T10:48:25.999Z</time></trkpt><trkpt lat="43.26797487083569" lon="11.711420397470151"><ele>274.0</ele><time>2026-04-12T10:48:26.999Z</time></trkpt><trkpt lat="43.268104717008605" lon="11.711395422435519"><ele>273.75</ele><time>2026-04-12T10:48:27.999Z</time></trkpt><trkpt lat="43.26823993797195" lon="11.71134341252647"><ele>273.5</ele><time>2026-04-12T10:48:28.999Z</time></trkpt><trkpt lat="43.268378259875384" lon="11.711275752630158"><ele>273.25</ele><time>2026-04-12T10:48:29.999Z</time></trkpt><trkpt lat="43.268510590269614" lon="11.711201978321297"><ele>273.0</ele><time>2026-04-12T10:48:30.999Z</time></trkpt><trkpt lat="43.2686409933236" lon="11.711114309763843"><ele>273.6666666666667</ele><time>2026-04-12T10:48:31.999Z</time></trkpt><trkpt lat="43.26876198538881" lon="11.710997757643986"><ele>274.33333333333337</ele><time>2026-04-12T10:48:32.999Z</time></trkpt><trkpt lat="43.268880227849216" lon="11.71086313419941"><ele>275.0</ele><time>2026-04-12T10:48:33.999Z</time></trkpt><trkpt lat="43.268997186242714" lon="11.71070321554501"><ele>275.0</ele><time>2026-04-12T10:48:34.999Z</time></trkpt><trkpt lat="43.26912150071885" lon="11.710544533124587"><ele>275.0</ele><time>2026-04-12T10:48:35.999Z</time></trkpt><trkpt lat="43.269249729369825" lon="11.710386596803833"><ele>275.0</ele><time>2026-04-12T10:48:36.999Z</time></trkpt><trkpt lat="43.26937705727576" lon="11.710231686203008"><ele>276.33333333333337</ele><time>2026-04-12T10:48:37.999Z</time></trkpt><trkpt lat="43.269502813861955" lon="11.710080856650304"><ele>277.6666666666667</ele><time>2026-04-12T10:48:38.999Z</time></trkpt><trkpt lat="43.26961617115078" lon="11.709943964568918"><ele>279.0</ele><time>2026-04-12T10:48:40Z</time></trkpt><trkpt lat="43.269722065976104" lon="11.709810709871451"><ele>278.5</ele><time>2026-04-12T10:48:41Z</time></trkpt><trkpt lat="43.26981736706071" lon="11.709684401838182"><ele>278.0</ele><time>2026-04-12T10:48:42Z</time></trkpt><trkpt lat="43.269902148414765" lon="11.709579227039681"><ele>277.5</ele><time>2026-04-12T10:48:43Z</time></trkpt><trkpt lat="43.26999156549457" lon="11.709502730782186"><ele>277.0</ele><time>2026-04-12T10:48:44Z</time></trkpt><trkpt lat="43.27009766041765" lon="11.70946744426045"><ele>277.0</ele><time>2026-04-12T10:48:45Z</time></trkpt><trkpt lat="43.270217336165494" lon="11.709461576324385"><ele>277.0</ele><time>2026-04-12T10:48:46Z</time></trkpt><trkpt lat="43.27033201536805" lon="11.70952471378103"><ele>277.0</ele><time>2026-04-12T10:48:47Z</time></trkpt><trkpt lat="43.27044860880983" lon="11.709566209876268"><ele>277.0</ele><time>2026-04-12T10:48:48Z</time></trkpt><trkpt lat="43.27055035294259" lon="11.70964973340341"><ele>277.2</ele><time>2026-04-12T10:48:49Z</time></trkpt><trkpt lat="43.27063647681243" lon="11.709711592261574"><ele>277.4</ele><time>2026-04-12T10:48:50Z</time></trkpt><trkpt lat="43.27072183764962" lon="11.709741853025399"><ele>277.6</ele><time>2026-04-12T10:48:51Z</time></trkpt><trkpt lat="43.27080273763972" lon="11.709735972896228"><ele>277.8</ele><time>2026-04-12T10:48:52Z</time></trkpt><trkpt lat="43.27089693056709" lon="11.709685489978247"><ele>278.0</ele><time>2026-04-12T10:48:53Z</time></trkpt><trkpt lat="43.27101114189051" lon="11.709621132311202"><ele>278.0</ele><time>2026-04-12T10:48:54Z</time></trkpt><trkpt lat="43.27114758450542" lon="11.709562236231987"><ele>278.0</ele><time>2026-04-12T10:48:55Z</time></trkpt><trkpt lat="43.27129370428146" lon="11.709540500356674"><ele>278.0</ele><time>2026-04-12T10:48:56Z</time></trkpt><trkpt lat="43.27144574547444" lon="11.709550645217346"><ele>278.0</ele><time>2026-04-12T10:48:57Z</time></trkpt><trkpt lat="43.27159047219938" lon="11.709568154545385"><ele>277.5</ele><time>2026-04-12T10:48:58Z</time></trkpt><trkpt lat="43.271729788094156" lon="11.70958433259913"><ele>277.0</ele><time>2026-04-12T10:48:59Z</time></trkpt><trkpt lat="43.27185579405863" lon="11.709599660106143"><ele>276.5</ele><time>2026-04-12T10:49:00Z</time></trkpt><trkpt lat="43.271965634556636" lon="11.709623878522136"><ele>276.0</ele><time>2026-04-12T10:49:01Z</time></trkpt><trkpt lat="43.27206177780528" lon="11.709658620995874"><ele>276.0</ele><time>2026-04-12T10:49:02Z</time></trkpt><trkpt lat="43.27213972646602" lon="11.709690813303256"><ele>276.0</ele><time>2026-04-12T10:49:03Z</time></trkpt><trkpt lat="43.27223045960805" lon="11.709730482247885"><ele>276.0</ele><time>2026-04-12T10:49:05Z</time></trkpt><trkpt lat="43.27230386943705" lon="11.709513060568712"><ele>276.0</ele><time>2026-04-12T10:49:24Z</time></trkpt><trkpt lat="43.272326131657465" lon="11.709401901494234"><ele>276.0</ele><time>2026-04-12T10:49:25Z</time></trkpt><trkpt lat="43.272347685175596" lon="11.709290760679826"><ele>276.5</ele><time>2026-04-12T10:49:26Z</time></trkpt><trkpt lat="43.27236333802477" lon="11.709179780081968"><ele>277.0</ele><time>2026-04-12T10:49:27Z</time></trkpt><trkpt lat="43.272384151229616" lon="11.709069611294883"><ele>277.5</ele><time>2026-04-12T10:49:28Z</time></trkpt><trkpt lat="43.27237306827444" lon="11.708956350715042"><ele>278.0</ele><time>2026-04-12T10:49:29Z</time></trkpt><trkpt lat="43.2723432135596" lon="11.708842612171345"><ele>278.5</ele><time>2026-04-12T10:49:30Z</time></trkpt><trkpt lat="43.27232256980708" lon="11.708724167992488"><ele>279.0</ele><time>2026-04-12T10:49:31Z</time></trkpt><trkpt lat="43.27230364575204" lon="11.70860005004141"><ele>279.8</ele><time>2026-04-12T10:49:32Z</time></trkpt><trkpt lat="43.27228780711534" lon="11.708460884249112"><ele>280.59999999999997</ele><time>2026-04-12T10:49:33Z</time></trkpt><trkpt lat="43.27225413967287" lon="11.70831784455598"><ele>281.4</ele><time>2026-04-12T10:49:34Z</time></trkpt><trkpt lat="43.27224078652253" lon="11.708168636466587"><ele>282.2</ele><time>2026-04-12T10:49:35Z</time></trkpt><trkpt lat="43.27221876143093" lon="11.708017143244527"><ele>283.0</ele><time>2026-04-12T10:49:36Z</time></trkpt><trkpt lat="43.27219045838289" lon="11.707858929011621"><ele>284.6</ele><time>2026-04-12T10:49:37Z</time></trkpt><trkpt lat="43.27215210715213" lon="11.707703411479308"><ele>286.20000000000005</ele><time>2026-04-12T10:49:38Z</time></trkpt><trkpt lat="43.2721225894491" lon="11.707556337090118"><ele>287.8</ele><time>2026-04-12T10:49:39Z</time></trkpt><trkpt lat="43.27209487470664" lon="11.707420670119998"><ele>289.40000000000003</ele><time>2026-04-12T10:49:40Z</time></trkpt><trkpt lat="43.27207317244689" lon="11.70730401661278"><ele>291.0</ele><time>2026-04-12T10:49:41Z</time></trkpt><trkpt lat="43.27206324442711" lon="11.707197831437476"><ele>291.0</ele><time>2026-04-12T10:49:42Z</time></trkpt><trkpt lat="43.27207578511126" lon="11.707108100074617"><ele>291.0</ele><time>2026-04-12T10:49:43Z</time></trkpt><trkpt lat="43.272118618573394" lon="11.707029935894395"><ele>291.0</ele><time>2026-04-12T10:49:44Z</time></trkpt><trkpt lat="43.272179301715" lon="11.706976320148271"><ele>291.0</ele><time>2026-04-12T10:49:45Z</time></trkpt><trkpt lat="43.27224287083898" lon="11.70692840450643"><ele>291.0</ele><time>2026-04-12T10:49:46Z</time></trkpt><trkpt lat="43.27230027683856" lon="11.70680002068341"><ele>291.0</ele><time>2026-04-12T10:49:48.001Z</time></trkpt><trkpt lat="43.27228578919785" lon="11.706622065868014"><ele>291.3333333333333</ele><time>2026-04-12T10:49:50.001Z</time></trkpt><trkpt lat="43.272266551965025" lon="11.70651832199531"><ele>291.6666666666667</ele><time>2026-04-12T10:49:51.001Z</time></trkpt><trkpt lat="43.272278002756586" lon="11.70639743613379"><ele>292.0</ele><time>2026-04-12T10:49:53.001Z</time></trkpt><trkpt lat="43.27232989314977" lon="11.706339491675092"><ele>292.33333333333337</ele><time>2026-04-12T10:49:54.001Z</time></trkpt><trkpt lat="43.272405482297835" lon="11.706284757370067"><ele>292.6666666666667</ele><time>2026-04-12T10:49:55.001Z</time></trkpt><trkpt lat="43.27248419282301" lon="11.706220074236803"><ele>293.0</ele><time>2026-04-12T10:49:56.001Z</time></trkpt><trkpt lat="43.27255915953766" lon="11.70614872197086"><ele>293.0</ele><time>2026-04-12T10:49:57.001Z</time></trkpt><trkpt lat="43.27262974142633" lon="11.70608113397171"><ele>293.0</ele><time>2026-04-12T10:49:58.001Z</time></trkpt><trkpt lat="43.272700263660056" lon="11.706017186849115"><ele>293.0</ele><time>2026-04-12T10:49:59.001Z</time></trkpt><trkpt lat="43.272774278511854" lon="11.705958125749868"><ele>293.0</ele><time>2026-04-12T10:50:00.001Z</time></trkpt><trkpt lat="43.2728563236783" lon="11.705897357973939"><ele>293.0</ele><time>2026-04-12T10:50:01.001Z</time></trkpt><trkpt lat="43.272934411537136" lon="11.705835788926134"><ele>293.0</ele><time>2026-04-12T10:50:02.001Z</time></trkpt><trkpt lat="43.27300715866558" lon="11.705765300947828"><ele>293.6666666666667</ele><time>2026-04-12T10:50:03.001Z</time></trkpt><trkpt lat="43.2730724189052" lon="11.705681134906857"><ele>294.33333333333337</ele><time>2026-04-12T10:50:04.001Z</time></trkpt><trkpt lat="43.27312711984762" lon="11.705586848807725"><ele>295.0</ele><time>2026-04-12T10:50:05.001Z</time></trkpt><trkpt lat="43.273175043107685" lon="11.705482651655194"><ele>295.6666666666667</ele><time>2026-04-12T10:50:06.001Z</time></trkpt><trkpt lat="43.2732231418586" lon="11.705381123104909"><ele>296.3333333333333</ele><time>2026-04-12T10:50:07.001Z</time></trkpt><trkpt lat="43.27327447347672" lon="11.705297919175974"><ele>297.0</ele><time>2026-04-12T10:50:08.001Z</time></trkpt><trkpt lat="43.27337904942017" lon="11.705253792106285"><ele>299.0</ele><time>2026-04-12T10:50:10.001Z</time></trkpt><trkpt lat="43.2734858650441" lon="11.705200828477082"><ele>301.0</ele><time>2026-04-12T10:50:12.001Z</time></trkpt><trkpt lat="43.27354891549086" lon="11.705179076716634"><ele>303.0</ele><time>2026-04-12T10:50:13.001Z</time></trkpt><trkpt lat="43.273611384843136" lon="11.705135375938362"><ele>305.0</ele><time>2026-04-12T10:50:14.001Z</time></trkpt><trkpt lat="43.2736785687893" lon="11.705090580032333"><ele>307.0</ele><time>2026-04-12T10:50:15.001Z</time></trkpt><trkpt lat="43.27374527110433" lon="11.705034851467678"><ele>309.0</ele><time>2026-04-12T10:50:16.001Z</time></trkpt><trkpt lat="43.27382653178709" lon="11.704995084283818"><ele>309.0</ele><time>2026-04-12T10:50:17.001Z</time></trkpt><trkpt lat="43.273873833711285" lon="11.70490769310145"><ele>309.0</ele><time>2026-04-12T10:50:18.001Z</time></trkpt><trkpt lat="43.273945450261714" lon="11.704773088645075"><ele>309.0</ele><time>2026-04-12T10:50:20.001Z</time></trkpt><trkpt lat="43.273975779307584" lon="11.70468302134225"><ele>309.0</ele><time>2026-04-12T10:50:21.001Z</time></trkpt><trkpt lat="43.273989423273534" lon="11.704588741680881"><ele>309.0</ele><time>2026-04-12T10:50:22.001Z</time></trkpt><trkpt lat="43.274008237604136" lon="11.704488334072753"><ele>309.0</ele><time>2026-04-12T10:50:24Z</time></trkpt><trkpt lat="43.27404056227383" lon="11.70437087979771"><ele>308.1666666666667</ele><time>2026-04-12T10:50:26Z</time></trkpt><trkpt lat="43.27410017494735" lon="11.704291411124194"><ele>307.3333333333333</ele><time>2026-04-12T10:50:54Z</time></trkpt><trkpt lat="43.27416396089696" lon="11.70418566294832"><ele>306.5</ele><time>2026-04-12T10:50:56Z</time></trkpt><trkpt lat="43.27424930825768" lon="11.704066217389895"><ele>305.66666666666663</ele><time>2026-04-12T10:50:58Z</time></trkpt><trkpt lat="43.274304504000725" lon="11.70401314207676"><ele>304.8333333333333</ele><time>2026-04-12T10:50:59Z</time></trkpt><trkpt lat="43.274371667735906" lon="11.703987585157865"><ele>304.0</ele><time>2026-04-12T10:51:00Z</time></trkpt><trkpt lat="43.27444507198015" lon="11.703982641433674"><ele>304.0</ele><time>2026-04-12T10:51:01Z</time></trkpt><trkpt lat="43.2745142047107" lon="11.703983265834689"><ele>304.0</ele><time>2026-04-12T10:51:02Z</time></trkpt><trkpt lat="43.274604608292265" lon="11.70399670408173"><ele>304.0</ele><time>2026-04-12T10:51:04Z</time></trkpt><trkpt lat="43.274473220634654" lon="11.703979166316048"><ele>304.0</ele><time>2026-04-12T10:51:23Z</time></trkpt><trkpt lat="43.27439852897679" lon="11.703990242235717"><ele>304.0</ele><time>2026-04-12T10:51:24Z</time></trkpt><trkpt lat="43.274336194651774" lon="11.704002960681741"><ele>304.0</ele><time>2026-04-12T10:51:25Z</time></trkpt><trkpt lat="43.2742693874271" lon="11.70402004177705"><ele>304.0</ele><time>2026-04-12T10:51:26Z</time></trkpt><trkpt lat="43.27420937927092" lon="11.70405244735896"><ele>304.0</ele><time>2026-04-12T10:51:27Z</time></trkpt><trkpt lat="43.274128873072236" lon="11.70416410071006"><ele>304.0</ele><time>2026-04-12T10:51:29Z</time></trkpt><trkpt lat="43.274072464705" lon="11.704270564905048"><ele>304.0</ele><time>2026-04-12T10:51:31Z</time></trkpt><trkpt lat="43.274006447829315" lon="11.70422375222296"><ele>304.0</ele><time>2026-04-12T10:51:34Z</time></trkpt><trkpt lat="43.27401360224794" lon="11.70412674916437"><ele>304.0</ele><time>2026-04-12T10:51:36Z</time></trkpt><trkpt lat="43.27400967865822" lon="11.703956457656744"><ele>304.0</ele><time>2026-04-12T10:51:38.001Z</time></trkpt><trkpt lat="43.274030261259384" lon="11.703856946090708"><ele>304.0</ele><time>2026-04-12T10:51:39.001Z</time></trkpt><trkpt lat="43.27404649615605" lon="11.703762850976865"><ele>304.0</ele><time>2026-04-12T10:51:40.001Z</time></trkpt><trkpt lat="43.27401922304278" lon="11.703583802044989"><ele>304.0</ele><time>2026-04-12T10:51:42.001Z</time></trkpt><trkpt lat="43.27398504388841" lon="11.703496222239906"><ele>304.0</ele><time>2026-04-12T10:51:43.001Z</time></trkpt><trkpt lat="43.27395665764537" lon="11.70341379122575"><ele>304.0</ele><time>2026-04-12T10:51:44.001Z</time></trkpt><trkpt lat="43.27392106216738" lon="11.703237982199088"><ele>306.8333333333333</ele><time>2026-04-12T10:51:46.001Z</time></trkpt><trkpt lat="43.27390867778298" lon="11.703143655358064"><ele>309.66666666666663</ele><time>2026-04-12T10:51:47.001Z</time></trkpt><trkpt lat="43.27390293666351" lon="11.703033570063562"><ele>312.5</ele><time>2026-04-12T10:51:48.001Z</time></trkpt><trkpt lat="43.273897564478986" lon="11.702937800208678"><ele>315.3333333333333</ele><time>2026-04-12T10:51:49.001Z</time></trkpt><trkpt lat="43.273944677216434" lon="11.702824902917724"><ele>318.1666666666667</ele><time>2026-04-12T10:51:51.001Z</time></trkpt><trkpt lat="43.27407026515212" lon="11.702799041001725"><ele>321.0</ele><time>2026-04-12T10:51:53.001Z</time></trkpt><trkpt lat="43.274182258167215" lon="11.702761767837469"><ele>321.0</ele><time>2026-04-12T10:51:55.001Z</time></trkpt><trkpt lat="43.27428857487446" lon="11.702755297245886"><ele>321.0</ele><time>2026-04-12T10:51:57.001Z</time></trkpt><trkpt lat="43.27435166263582" lon="11.702783410457068"><ele>321.0</ele><time>2026-04-12T10:51:58.001Z</time></trkpt><trkpt lat="43.274449819190785" lon="11.702823549296646"><ele>321.0</ele><time>2026-04-12T10:52:00.001Z</time></trkpt><trkpt lat="43.274508438041" lon="11.70279091869129"><ele>321.0</ele><time>2026-04-12T10:52:02.001Z</time></trkpt><trkpt lat="43.27449691135483" lon="11.702676043451234"><ele>321.0</ele><time>2026-04-12T10:52:05.001Z</time></trkpt><trkpt lat="43.2744640077288" lon="11.702568569072152"><ele>324.4</ele><time>2026-04-12T10:52:07.001Z</time></trkpt><trkpt lat="43.274405398166486" lon="11.702478065361412"><ele>327.8</ele><time>2026-04-12T10:52:09.001Z</time></trkpt><trkpt lat="43.274437537976105" lon="11.702555030580552"><ele>331.2</ele><time>2026-04-12T10:52:31Z</time></trkpt><trkpt lat="43.27450225166097" lon="11.70262762458391"><ele>334.59999999999997</ele><time>2026-04-12T10:52:34Z</time></trkpt><trkpt lat="43.27455019867491" lon="11.702701663201776"><ele>338.0</ele><time>2026-04-12T10:52:37Z</time></trkpt><trkpt lat="43.2742451860124" lon="11.702730567124283"><ele>339.4</ele><time>2026-04-12T10:52:47Z</time></trkpt><trkpt lat="43.27411143596226" lon="11.702765289991508"><ele>340.79999999999995</ele><time>2026-04-12T10:52:49Z</time></trkpt><trkpt lat="43.27404402112984" lon="11.702787218619495"><ele>342.2</ele><time>2026-04-12T10:52:50Z</time></trkpt><trkpt lat="43.27393533990206" lon="11.702822027840039"><ele>343.6</ele><time>2026-04-12T10:52:52Z</time></trkpt><trkpt lat="43.273900568610244" lon="11.702902250795411"><ele>345.0</ele><time>2026-04-12T10:52:54Z</time></trkpt><trkpt lat="43.27390269039461" lon="11.703065512199759"><ele>345.0</ele><time>2026-04-12T10:52:56Z</time></trkpt><trkpt lat="43.273916609312046" lon="11.703164787092629"><ele>345.0</ele><time>2026-04-12T10:52:57Z</time></trkpt><trkpt lat="43.27393735059773" lon="11.703263398125076"><ele>345.0</ele><time>2026-04-12T10:52:58Z</time></trkpt><trkpt lat="43.273949482529666" lon="11.703354816787815"><ele>345.0</ele><time>2026-04-12T10:52:59Z</time></trkpt><trkpt lat="43.2740032215255" lon="11.70349593287783"><ele>345.0</ele><time>2026-04-12T10:53:01Z</time></trkpt><trkpt lat="43.27404063747333" lon="11.70364881193156"><ele>345.0</ele><time>2026-04-12T10:53:03Z</time></trkpt><trkpt lat="43.274060011655536" lon="11.703735524353679"><ele>336.8</ele><time>2026-04-12T10:53:04Z</time></trkpt><trkpt lat="43.27405054692989" lon="11.703832308874247"><ele>328.6</ele><time>2026-04-12T10:53:05Z</time></trkpt><trkpt lat="43.27403394551021" lon="11.703947632614032"><ele>320.4</ele><time>2026-04-12T10:53:06Z</time></trkpt><trkpt lat="43.274018627705026" lon="11.704049430652285"><ele>312.2</ele><time>2026-04-12T10:53:07Z</time></trkpt><trkpt lat="43.274036133555335" lon="11.704214702777481"><ele>304.0</ele><time>2026-04-12T10:53:09Z</time></trkpt><trkpt lat="43.27403165629734" lon="11.704368411377096"><ele>304.8333333333333</ele><time>2026-04-12T10:53:11Z</time></trkpt><trkpt lat="43.27399033686783" lon="11.704507702086833"><ele>305.66666666666663</ele><time>2026-04-12T10:53:13Z</time></trkpt><trkpt lat="43.27397208317971" lon="11.704606478218892"><ele>306.5</ele><time>2026-04-12T10:53:14Z</time></trkpt><trkpt lat="43.27395628073971" lon="11.704695897590723"><ele>307.3333333333333</ele><time>2026-04-12T10:53:15Z</time></trkpt><trkpt lat="43.27391269784413" lon="11.70477715187567"><ele>308.1666666666667</ele><time>2026-04-12T10:53:16Z</time></trkpt><trkpt lat="43.273884710361195" lon="11.704855777767744"><ele>309.0</ele><time>2026-04-12T10:53:17Z</time></trkpt><trkpt lat="43.27381963280768" lon="11.704942941194913"><ele>309.00000000000006</ele><time>2026-04-12T10:53:19Z</time></trkpt><trkpt lat="43.27376756729108" lon="11.705012152937313"><ele>309.0</ele><time>2026-04-12T10:53:20Z</time></trkpt><trkpt lat="43.273700399290846" lon="11.705069523487248"><ele>309.0</ele><time>2026-04-12T10:53:21Z</time></trkpt><trkpt lat="43.27363850360292" lon="11.7051228515861"><ele>309.0</ele><time>2026-04-12T10:53:22Z</time></trkpt><trkpt lat="43.27357309664017" lon="11.705167522631319"><ele>309.0</ele><time>2026-04-12T10:53:23Z</time></trkpt><trkpt lat="43.273508477328996" lon="11.705171547586586"><ele>309.00000000000006</ele><time>2026-04-12T10:53:24Z</time></trkpt><trkpt lat="43.273438070416375" lon="11.705193136099272"><ele>309.0</ele><time>2026-04-12T10:53:25Z</time></trkpt><trkpt lat="43.27336686580822" lon="11.705215717758541"><ele>307.8</ele><time>2026-04-12T10:53:26Z</time></trkpt><trkpt lat="43.2732724253457" lon="11.705279104440194"><ele>306.59999999999997</ele><time>2026-04-12T10:53:28Z</time></trkpt><trkpt lat="43.27318213963146" lon="11.705404438417885"><ele>305.4</ele><time>2026-04-12T10:53:30.001Z</time></trkpt><trkpt lat="43.27313201341286" lon="11.705492725715352"><ele>304.2</ele><time>2026-04-12T10:53:31.001Z</time></trkpt><trkpt lat="43.27308358318738" lon="11.705586433472014"><ele>303.0</ele><time>2026-04-12T10:53:32.001Z</time></trkpt><trkpt lat="43.27302847940184" lon="11.705681731569342"><ele>303.0</ele><time>2026-04-12T10:53:33.001Z</time></trkpt><trkpt lat="43.27295838534124" lon="11.705764562145857"><ele>303.0</ele><time>2026-04-12T10:53:34.001Z</time></trkpt><trkpt lat="43.27287266885106" lon="11.705838236781892"><ele>303.0</ele><time>2026-04-12T10:53:35.001Z</time></trkpt><trkpt lat="43.272776914613985" lon="11.705914205605952"><ele>303.0</ele><time>2026-04-12T10:53:36.001Z</time></trkpt><trkpt lat="43.27267593915441" lon="11.705992968992733"><ele>303.0</ele><time>2026-04-12T10:53:37.001Z</time></trkpt><trkpt lat="43.27258252528551" lon="11.706068387432973"><ele>302.5</ele><time>2026-04-12T10:53:38.001Z</time></trkpt><trkpt lat="43.2724999109065" lon="11.706140817953823"><ele>302.0</ele><time>2026-04-12T10:53:39.001Z</time></trkpt><trkpt lat="43.272422348073334" lon="11.706214567142554"><ele>301.5</ele><time>2026-04-12T10:53:40.001Z</time></trkpt><trkpt lat="43.272348671207965" lon="11.706281457911095"><ele>301.0</ele><time>2026-04-12T10:53:41.001Z</time></trkpt><trkpt lat="43.272293354381596" lon="11.706327392509635"><ele>300.5</ele><time>2026-04-12T10:53:42.001Z</time></trkpt><trkpt lat="43.27222434116342" lon="11.706431733691586"><ele>300.0</ele><time>2026-04-12T10:53:44.001Z</time></trkpt><trkpt lat="43.27223076115379" lon="11.706589012928275"><ele>300.0</ele><time>2026-04-12T10:53:46.001Z</time></trkpt><trkpt lat="43.27225098303414" lon="11.706672228341942"><ele>300.0</ele><time>2026-04-12T10:53:47.001Z</time></trkpt><trkpt lat="43.272272831228186" lon="11.706770266877122"><ele>300.0</ele><time>2026-04-12T10:53:48.001Z</time></trkpt><trkpt lat="43.272244767784464" lon="11.70692217529175"><ele>300.0</ele><time>2026-04-12T10:53:50.001Z</time></trkpt><trkpt lat="43.27217646663152" lon="11.70694246225057"><ele>300.0</ele><time>2026-04-12T10:53:51.001Z</time></trkpt><trkpt lat="43.2721186774578" lon="11.707002059746616"><ele>300.0</ele><time>2026-04-12T10:53:52.001Z</time></trkpt><trkpt lat="43.27207277221603" lon="11.707081035948093"><ele>298.5</ele><time>2026-04-12T10:53:53.001Z</time></trkpt><trkpt lat="43.27204787765015" lon="11.707161051794673"><ele>297.0</ele><time>2026-04-12T10:53:54.001Z</time></trkpt><trkpt lat="43.2720552189439" lon="11.707259009221223"><ele>295.5</ele><time>2026-04-12T10:53:55.001Z</time></trkpt><trkpt lat="43.27207083778003" lon="11.70737637118051"><ele>294.0</ele><time>2026-04-12T10:53:56.001Z</time></trkpt><trkpt lat="43.272100066137156" lon="11.707496962444901"><ele>292.5</ele><time>2026-04-12T10:53:57.001Z</time></trkpt><trkpt lat="43.27212922089594" lon="11.707619302545686"><ele>291.0</ele><time>2026-04-12T10:53:58.001Z</time></trkpt><trkpt lat="43.2721583906714" lon="11.707765972485266"><ele>289.25</ele><time>2026-04-12T10:53:59.001Z</time></trkpt><trkpt lat="43.27219422292051" lon="11.707921436923725"><ele>287.5</ele><time>2026-04-12T10:54:00.001Z</time></trkpt><trkpt lat="43.2722155446265" lon="11.708077808630852"><ele>285.75</ele><time>2026-04-12T10:54:01.001Z</time></trkpt><trkpt lat="43.27222499202332" lon="11.708228644827962"><ele>284.0</ele><time>2026-04-12T10:54:02.001Z</time></trkpt><trkpt lat="43.27224525469827" lon="11.708385664765913"><ele>283.75</ele><time>2026-04-12T10:54:03.001Z</time></trkpt><trkpt lat="43.27227628767609" lon="11.708555815310275"><ele>283.5</ele><time>2026-04-12T10:54:04.001Z</time></trkpt><trkpt lat="43.272290927911335" lon="11.708730696254491"><ele>283.25</ele><time>2026-04-12T10:54:05.001Z</time></trkpt><trkpt lat="43.27231867615461" lon="11.708879684276877"><ele>283.0</ele><time>2026-04-12T10:54:06.001Z</time></trkpt><trkpt lat="43.27234478404477" lon="11.709005142611769"><ele>282.3333333333333</ele><time>2026-04-12T10:54:07.001Z</time></trkpt><trkpt lat="43.27236345624623" lon="11.709123536843936"><ele>281.66666666666663</ele><time>2026-04-12T10:54:08.001Z</time></trkpt><trkpt lat="43.27233748292405" lon="11.709240669362691"><ele>281.0</ele><time>2026-04-12T10:54:09.001Z</time></trkpt><trkpt lat="43.27231191320715" lon="11.709369270079845"><ele>280.3333333333333</ele><time>2026-04-12T10:54:10.001Z</time></trkpt><trkpt lat="43.27230616696095" lon="11.70948653120781"><ele>279.6666666666667</ele><time>2026-04-12T10:54:11.001Z</time></trkpt><trkpt lat="43.272286511062255" lon="11.709571410691277"><ele>279.0</ele><time>2026-04-12T10:54:12.001Z</time></trkpt><trkpt lat="43.272264286252664" lon="11.709679022103751"><ele>278.5</ele><time>2026-04-12T10:54:14.001Z</time></trkpt><trkpt lat="43.27236460100696" lon="11.709785369574744"><ele>278.0</ele><time>2026-04-12T10:54:19.001Z</time></trkpt><trkpt lat="43.2724716210383" lon="11.709829291232706"><ele>277.5</ele><time>2026-04-12T10:54:21.001Z</time></trkpt><trkpt lat="43.27258397677643" lon="11.709910443033163"><ele>277.0</ele><time>2026-04-12T10:54:23.001Z</time></trkpt><trkpt lat="43.272659237161236" lon="11.709964421904886"><ele>277.0</ele><time>2026-04-12T10:54:24.001Z</time></trkpt><trkpt lat="43.27273796634818" lon="11.71001758584523"><ele>277.0</ele><time>2026-04-12T10:54:25.001Z</time></trkpt><trkpt lat="43.27281753589802" lon="11.710104538626293"><ele>277.0</ele><time>2026-04-12T10:54:26.001Z</time></trkpt><trkpt lat="43.272904090322584" lon="11.710176315175591"><ele>277.0</ele><time>2026-04-12T10:54:27.001Z</time></trkpt><trkpt lat="43.272985349697876" lon="11.710244555008982"><ele>277.0</ele><time>2026-04-12T10:54:28.001Z</time></trkpt><trkpt lat="43.273066027100725" lon="11.710291152213069"><ele>276.8</ele><time>2026-04-12T10:54:29.001Z</time></trkpt><trkpt lat="43.27314204283079" lon="11.710354043501209"><ele>276.6</ele><time>2026-04-12T10:54:30.001Z</time></trkpt><trkpt lat="43.27321362481377" lon="11.710417389516195"><ele>276.40000000000003</ele><time>2026-04-12T10:54:31.001Z</time></trkpt><trkpt lat="43.27329684583443" lon="11.710487912314512"><ele>276.2</ele><time>2026-04-12T10:54:32.001Z</time></trkpt><trkpt lat="43.27338414334581" lon="11.710561801943934"><ele>276.0</ele><time>2026-04-12T10:54:33.001Z</time></trkpt><trkpt lat="43.273488139116616" lon="11.710646341418958"><ele>276.0</ele><time>2026-04-12T10:54:34.001Z</time></trkpt><trkpt lat="43.27359658122343" lon="11.710738364786824"><ele>276.0</ele><time>2026-04-12T10:54:35.001Z</time></trkpt><trkpt lat="43.27372113043246" lon="11.71084697160776"><ele>276.0</ele><time>2026-04-12T10:54:36.001Z</time></trkpt><trkpt lat="43.27385436781861" lon="11.710959267165025"><ele>276.0</ele><time>2026-04-12T10:54:37.001Z</time></trkpt><trkpt lat="43.27400776922837" lon="11.71109557291559"><ele>276.25</ele><time>2026-04-12T10:54:38.001Z</time></trkpt><trkpt lat="43.274151962175964" lon="11.711223281227216"><ele>276.5</ele><time>2026-04-12T10:54:39.001Z</time></trkpt><trkpt lat="43.27427560772623" lon="11.711331333955883"><ele>276.75</ele><time>2026-04-12T10:54:40.001Z</time></trkpt><trkpt lat="43.27437726200685" lon="11.711421060822415"><ele>277.0</ele><time>2026-04-12T10:54:41.001Z</time></trkpt><trkpt lat="43.274460094777595" lon="11.711487630007293"><ele>277.0</ele><time>2026-04-12T10:54:42.001Z</time></trkpt><trkpt lat="43.27453695333548" lon="11.711517117303156"><ele>277.0</ele><time>2026-04-12T10:54:43.001Z</time></trkpt><trkpt lat="43.27461670935889" lon="11.711511896552361"><ele>277.0</ele><time>2026-04-12T10:54:44.001Z</time></trkpt><trkpt lat="43.274701869652006" lon="11.711473941923556"><ele>277.0</ele><time>2026-04-12T10:54:45Z</time></trkpt><trkpt lat="43.274792647033095" lon="11.711412071474337"><ele>277.0</ele><time>2026-04-12T10:54:46Z</time></trkpt><trkpt lat="43.274893967301516" lon="11.711348791915245"><ele>277.75</ele><time>2026-04-12T10:54:47Z</time></trkpt><trkpt lat="43.2750103090802" lon="11.711285408130808"><ele>278.5</ele><time>2026-04-12T10:54:48Z</time></trkpt><trkpt lat="43.27514163708731" lon="11.7112240414795"><ele>279.25</ele><time>2026-04-12T10:54:49Z</time></trkpt><trkpt lat="43.2752747735581" lon="11.711163068096102"><ele>280.0</ele><time>2026-04-12T10:54:50Z</time></trkpt><trkpt lat="43.27539642816908" lon="11.71110670666295"><ele>280.0</ele><time>2026-04-12T10:54:51Z</time></trkpt><trkpt lat="43.27551469842244" lon="11.711052968907323"><ele>280.0</ele><time>2026-04-12T10:54:52Z</time></trkpt><trkpt lat="43.275634725325574" lon="11.71099925102225"><ele>280.0</ele><time>2026-04-12T10:54:53Z</time></trkpt><trkpt lat="43.27575540315073" lon="11.710949419920835"><ele>280.0</ele><time>2026-04-12T10:54:54Z</time></trkpt><trkpt lat="43.27587849727206" lon="11.710905606470815"><ele>281.0</ele><time>2026-04-12T10:54:55Z</time></trkpt><trkpt lat="43.27600223704856" lon="11.710857378731536"><ele>282.0</ele><time>2026-04-12T10:54:56Z</time></trkpt><trkpt lat="43.276122721142" lon="11.710805287851427"><ele>283.0</ele><time>2026-04-12T10:54:57Z</time></trkpt><trkpt lat="43.27623688196672" lon="11.710762141321888"><ele>284.0</ele><time>2026-04-12T10:54:58Z</time></trkpt><trkpt lat="43.276331530099455" lon="11.710731949293429"><ele>284.0</ele><time>2026-04-12T10:54:59Z</time></trkpt><trkpt lat="43.27640300556852" lon="11.710705863765947"><ele>284.0</ele><time>2026-04-12T10:55:00Z</time></trkpt><trkpt lat="43.27648228151829" lon="11.710678089918089"><ele>284.0</ele><time>2026-04-12T10:55:02Z</time></trkpt><trkpt lat="43.2765568830577" lon="11.710668054438477"><ele>284.0</ele><time>2026-04-12T10:55:04Z</time></trkpt><trkpt lat="43.276579460251966" lon="11.710540552266274"><ele>284.0</ele><time>2026-04-12T10:55:05Z</time></trkpt><trkpt lat="43.27662016312753" lon="11.71044366015869"><ele>284.0</ele><time>2026-04-12T10:55:06Z</time></trkpt><trkpt lat="43.27666583458751" lon="11.710304159333793"><ele>284.59999999999997</ele><time>2026-04-12T10:55:07Z</time></trkpt><trkpt lat="43.27670999361046" lon="11.710151714063134"><ele>285.2</ele><time>2026-04-12T10:55:08Z</time></trkpt><trkpt lat="43.27674353016608" lon="11.710014813724877"><ele>285.79999999999995</ele><time>2026-04-12T10:55:09Z</time></trkpt><trkpt lat="43.276772892089035" lon="11.70989434982482"><ele>286.4</ele><time>2026-04-12T10:55:10Z</time></trkpt><trkpt lat="43.27680480465135" lon="11.709778337611505"><ele>287.0</ele><time>2026-04-12T10:55:11Z</time></trkpt><trkpt lat="43.276833985014754" lon="11.709655597998438"><ele>287.0</ele><time>2026-04-12T10:55:12Z</time></trkpt><trkpt lat="43.27686481928022" lon="11.709518375180163"><ele>287.0</ele><time>2026-04-12T10:55:13Z</time></trkpt><trkpt lat="43.27689989521176" lon="11.709375140567007"><ele>287.0</ele><time>2026-04-12T10:55:14Z</time></trkpt><trkpt lat="43.27693295629186" lon="11.709221407089473"><ele>287.0</ele><time>2026-04-12T10:55:15Z</time></trkpt><trkpt lat="43.276965762969056" lon="11.709061625542793"><ele>286.25</ele><time>2026-04-12T10:55:16Z</time></trkpt><trkpt lat="43.27700189888179" lon="11.70889692060208"><ele>285.5</ele><time>2026-04-12T10:55:17Z</time></trkpt><trkpt lat="43.27707867793251" lon="11.708740847345373"><ele>284.75</ele><time>2026-04-12T10:55:18.001Z</time></trkpt><trkpt lat="43.27715708819489" lon="11.7085809701768"><ele>284.0</ele><time>2026-04-12T10:55:19.001Z</time></trkpt><trkpt lat="43.27725827126678" lon="11.708422205481236"><ele>286.6666666666667</ele><time>2026-04-12T10:55:20.001Z</time></trkpt><trkpt lat="43.27734623272879" lon="11.708238121066124"><ele>289.3333333333333</ele><time>2026-04-12T10:55:21.001Z</time></trkpt><trkpt lat="43.27743756471595" lon="11.708059250034704"><ele>292.0</ele><time>2026-04-12T10:55:22.001Z</time></trkpt><trkpt lat="43.277510487697384" lon="11.70785340772133"><ele>289.3333333333333</ele><time>2026-04-12T10:55:23.001Z</time></trkpt><trkpt lat="43.27756539784729" lon="11.707626786902392"><ele>286.6666666666667</ele><time>2026-04-12T10:55:24.001Z</time></trkpt><trkpt lat="43.27761281043629" lon="11.707392704518238"><ele>284.0</ele><time>2026-04-12T10:55:25.001Z</time></trkpt><trkpt lat="43.27765409183067" lon="11.707172047229118"><ele>284.0</ele><time>2026-04-12T10:55:26.001Z</time></trkpt><trkpt lat="43.27771648870966" lon="11.706986718294436"><ele>284.0</ele><time>2026-04-12T10:55:27.001Z</time></trkpt><trkpt lat="43.27779478556217" lon="11.70682166739432"><ele>284.0</ele><time>2026-04-12T10:55:28.001Z</time></trkpt><trkpt lat="43.277892105030915" lon="11.706665985224458"><ele>284.0</ele><time>2026-04-12T10:55:29.001Z</time></trkpt><trkpt lat="43.277995144619744" lon="11.706508358809527"><ele>284.0</ele><time>2026-04-12T10:55:30.001Z</time></trkpt><trkpt lat="43.27808698645427" lon="11.706324798757047"><ele>284.0</ele><time>2026-04-12T10:55:31.001Z</time></trkpt><trkpt lat="43.27814723095614" lon="11.706106656457392"><ele>284.0</ele><time>2026-04-12T10:55:32.001Z</time></trkpt><trkpt lat="43.27822576209484" lon="11.705889846903506"><ele>283.6666666666667</ele><time>2026-04-12T10:55:33.001Z</time></trkpt><trkpt lat="43.27825791318081" lon="11.705650109897078"><ele>283.3333333333333</ele><time>2026-04-12T10:55:34.001Z</time></trkpt><trkpt lat="43.27831145470768" lon="11.705420683440131"><ele>283.0</ele><time>2026-04-12T10:55:35.001Z</time></trkpt><trkpt lat="43.278384606788514" lon="11.705225094373617"><ele>282.5</ele><time>2026-04-12T10:55:36.001Z</time></trkpt><trkpt lat="43.27842979909161" lon="11.705033024981116"><ele>282.0</ele><time>2026-04-12T10:55:37.001Z</time></trkpt><trkpt lat="43.27848838218243" lon="11.704868467578239"><ele>281.5</ele><time>2026-04-12T10:55:38.001Z</time></trkpt><trkpt lat="43.278531050112015" lon="11.704696160127618"><ele>281.0</ele><time>2026-04-12T10:55:39.001Z</time></trkpt><trkpt lat="43.278581198846474" lon="11.704522993613981"><ele>281.25</ele><time>2026-04-12T10:55:40.001Z</time></trkpt><trkpt lat="43.27861254042715" lon="11.704354700195571"><ele>281.5</ele><time>2026-04-12T10:55:41.001Z</time></trkpt><trkpt lat="43.2786447267284" lon="11.704204227961544"><ele>281.75</ele><time>2026-04-12T10:55:42.001Z</time></trkpt><trkpt lat="43.27867752025273" lon="11.704064479924842"><ele>282.0</ele><time>2026-04-12T10:55:43.001Z</time></trkpt><trkpt lat="43.2787710414034" lon="11.703966203240752"><ele>282.0</ele><time>2026-04-12T10:55:44.001Z</time></trkpt><trkpt lat="43.27887273028225" lon="11.703856265931126"><ele>282.0</ele><time>2026-04-12T10:55:45.001Z</time></trkpt><trkpt lat="43.27897177058015" lon="11.70372376778744"><ele>282.0</ele><time>2026-04-12T10:55:46.001Z</time></trkpt><trkpt lat="43.27909732219367" lon="11.703624265080101"><ele>282.0</ele><time>2026-04-12T10:55:47.001Z</time></trkpt><trkpt lat="43.27922443484818" lon="11.703534929569496"><ele>282.25</ele><time>2026-04-12T10:55:48.001Z</time></trkpt><trkpt lat="43.279346548746034" lon="11.703467453444178"><ele>282.5</ele><time>2026-04-12T10:55:49.001Z</time></trkpt><trkpt lat="43.27946409747735" lon="11.703395115139108"><ele>282.75</ele><time>2026-04-12T10:55:50.001Z</time></trkpt><trkpt lat="43.27957095852129" lon="11.703294465581482"><ele>283.0</ele><time>2026-04-12T10:55:51.001Z</time></trkpt><trkpt lat="43.27966941058495" lon="11.703161145196674"><ele>283.0</ele><time>2026-04-12T10:55:52.001Z</time></trkpt><trkpt lat="43.2797652924776" lon="11.703007935370369"><ele>283.0</ele><time>2026-04-12T10:55:53.001Z</time></trkpt><trkpt lat="43.279852655344214" lon="11.702833487971096"><ele>283.0</ele><time>2026-04-12T10:55:54.001Z</time></trkpt><trkpt lat="43.27994329564055" lon="11.702639797891754"><ele>284.3333333333333</ele><time>2026-04-12T10:55:55.001Z</time></trkpt><trkpt lat="43.280038751490366" lon="11.702437338488544"><ele>285.6666666666667</ele><time>2026-04-12T10:55:56.001Z</time></trkpt><trkpt lat="43.28013851341903" lon="11.702226940170984"><ele>287.0</ele><time>2026-04-12T10:55:57.001Z</time></trkpt><trkpt lat="43.280236964248736" lon="11.70202795407671"><ele>286.33333333333337</ele><time>2026-04-12T10:55:58.001Z</time></trkpt><trkpt lat="43.280343606868996" lon="11.701832701524856"><ele>285.6666666666667</ele><time>2026-04-12T10:55:59.001Z</time></trkpt><trkpt lat="43.28046838400661" lon="11.701613196013913"><ele>285.0</ele><time>2026-04-12T10:56:00.001Z</time></trkpt><trkpt lat="43.280616269283094" lon="11.701355714287532"><ele>287.5</ele><time>2026-04-12T10:56:01.001Z</time></trkpt><trkpt lat="43.28078735672462" lon="11.701106817306773"><ele>290.0</ele><time>2026-04-12T10:56:02.001Z</time></trkpt><trkpt lat="43.28091554454535" lon="11.700865687275767"><ele>290.0</ele><time>2026-04-12T10:56:03.001Z</time></trkpt><trkpt lat="43.2810381837965" lon="11.700667278312432"><ele>290.0</ele><time>2026-04-12T10:56:04.001Z</time></trkpt><trkpt lat="43.28114557310913" lon="11.700490332328705"><ele>290.0</ele><time>2026-04-12T10:56:05.001Z</time></trkpt><trkpt lat="43.28125231997233" lon="11.70031884493124"><ele>289.6666666666667</ele><time>2026-04-12T10:56:06.001Z</time></trkpt><trkpt lat="43.2813447008586" lon="11.700145762772152"><ele>289.3333333333333</ele><time>2026-04-12T10:56:07.001Z</time></trkpt><trkpt lat="43.281418467421254" lon="11.699955710286918"><ele>289.0</ele><time>2026-04-12T10:56:08.001Z</time></trkpt><trkpt lat="43.28147828449392" lon="11.699736077317384"><ele>290.66666666666663</ele><time>2026-04-12T10:56:09.001Z</time></trkpt><trkpt lat="43.28154804586567" lon="11.69949348763349"><ele>292.3333333333333</ele><time>2026-04-12T10:56:10.001Z</time></trkpt><trkpt lat="43.28163762427909" lon="11.699295315412579"><ele>294.0</ele><time>2026-04-12T10:56:11.001Z</time></trkpt><trkpt lat="43.28170866280424" lon="11.69910892501139"><ele>294.0</ele><time>2026-04-12T10:56:12.001Z</time></trkpt><trkpt lat="43.28175799381303" lon="11.698903004923901"><ele>294.0</ele><time>2026-04-12T10:56:13.001Z</time></trkpt><trkpt lat="43.28180468903325" lon="11.698699279088311"><ele>294.0</ele><time>2026-04-12T10:56:14.001Z</time></trkpt><trkpt lat="43.28182878902085" lon="11.698504887627228"><ele>293.75</ele><time>2026-04-12T10:56:15.001Z</time></trkpt><trkpt lat="43.281843520778935" lon="11.698330939228445"><ele>293.5</ele><time>2026-04-12T10:56:16.001Z</time></trkpt><trkpt lat="43.28185444357664" lon="11.698160276478635"><ele>293.25</ele><time>2026-04-12T10:56:17.001Z</time></trkpt><trkpt lat="43.28184819795344" lon="11.698020396418347"><ele>293.0</ele><time>2026-04-12T10:56:18.001Z</time></trkpt><trkpt lat="43.281821988114224" lon="11.697883497412926"><ele>293.0</ele><time>2026-04-12T10:56:19.001Z</time></trkpt><trkpt lat="43.28177197577561" lon="11.697760204255633"><ele>293.0</ele><time>2026-04-12T10:56:20.001Z</time></trkpt><trkpt lat="43.28171255428588" lon="11.697636404770545"><ele>293.0</ele><time>2026-04-12T10:56:21.001Z</time></trkpt><trkpt lat="43.28169621602703" lon="11.6974948005159"><ele>293.0</ele><time>2026-04-12T10:56:22.001Z</time></trkpt><trkpt lat="43.28168864709051" lon="11.69733914105173"><ele>293.0</ele><time>2026-04-12T10:56:23.001Z</time></trkpt><trkpt lat="43.28170026874448" lon="11.697166232871526"><ele>293.25</ele><time>2026-04-12T10:56:24.001Z</time></trkpt><trkpt lat="43.28171913042789" lon="11.69699179115463"><ele>293.5</ele><time>2026-04-12T10:56:25.001Z</time></trkpt><trkpt lat="43.281748991856055" lon="11.696818499116437"><ele>293.75</ele><time>2026-04-12T10:56:26.001Z</time></trkpt><trkpt lat="43.281794314845506" lon="11.696639745768785"><ele>294.0</ele><time>2026-04-12T10:56:27.001Z</time></trkpt><trkpt lat="43.2818561496527" lon="11.696481943727608"><ele>293.6666666666667</ele><time>2026-04-12T10:56:28.001Z</time></trkpt><trkpt lat="43.28192324301776" lon="11.696298456783536"><ele>293.33333333333337</ele><time>2026-04-12T10:56:29.001Z</time></trkpt><trkpt lat="43.28201145412258" lon="11.696127072170409"><ele>293.0</ele><time>2026-04-12T10:56:30.001Z</time></trkpt><trkpt lat="43.28209778216183" lon="11.69594842489452"><ele>293.0</ele><time>2026-04-12T10:56:31.001Z</time></trkpt><trkpt lat="43.28217389281042" lon="11.695771741351189"><ele>293.0</ele><time>2026-04-12T10:56:32.001Z</time></trkpt><trkpt lat="43.282226416300944" lon="11.69559788427652"><ele>293.0</ele><time>2026-04-12T10:56:33.001Z</time></trkpt><trkpt lat="43.28226579132938" lon="11.695407713952472"><ele>293.0</ele><time>2026-04-12T10:56:34.001Z</time></trkpt><trkpt lat="43.28228916252683" lon="11.69521513055491"><ele>294.25</ele><time>2026-04-12T10:56:35.001Z</time></trkpt><trkpt lat="43.282307280353585" lon="11.695037341812741"><ele>295.5</ele><time>2026-04-12T10:56:36.001Z</time></trkpt><trkpt lat="43.28236001087957" lon="11.694886187025705"><ele>296.75</ele><time>2026-04-12T10:56:37.001Z</time></trkpt><trkpt lat="43.28241226109445" lon="11.694750931741957"><ele>298.0</ele><time>2026-04-12T10:56:38.001Z</time></trkpt><trkpt lat="43.2824655408109" lon="11.694603879929582"><ele>298.0</ele><time>2026-04-12T10:56:39.001Z</time></trkpt><trkpt lat="43.28249372954941" lon="11.694429618784993"><ele>298.0</ele><time>2026-04-12T10:56:40.001Z</time></trkpt><trkpt lat="43.28252810793203" lon="11.694237662435212"><ele>298.0</ele><time>2026-04-12T10:56:41.001Z</time></trkpt><trkpt lat="43.2825746116991" lon="11.694035879254285"><ele>298.0</ele><time>2026-04-12T10:56:42Z</time></trkpt><trkpt lat="43.282640247997676" lon="11.693831649773877"><ele>298.0</ele><time>2026-04-12T10:56:43Z</time></trkpt><trkpt lat="43.282725227897686" lon="11.693619950116087"><ele>298.0</ele><time>2026-04-12T10:56:44Z</time></trkpt><trkpt lat="43.28282751370459" lon="11.693375216202568"><ele>298.0</ele><time>2026-04-12T10:56:45Z</time></trkpt><trkpt lat="43.28291066987067" lon="11.693133883135785"><ele>300.0</ele><time>2026-04-12T10:56:46Z</time></trkpt><trkpt lat="43.28297913046424" lon="11.692908407707618"><ele>302.0</ele><time>2026-04-12T10:56:47Z</time></trkpt><trkpt lat="43.283050218701945" lon="11.692690168517125"><ele>304.0</ele><time>2026-04-12T10:56:48Z</time></trkpt><trkpt lat="43.28312156075136" lon="11.692493413743504"><ele>304.0</ele><time>2026-04-12T10:56:49Z</time></trkpt><trkpt lat="43.28318820322838" lon="11.692314157466512"><ele>304.0</ele><time>2026-04-12T10:56:50Z</time></trkpt><trkpt lat="43.28325714298235" lon="11.69213288630776"><ele>304.0</ele><time>2026-04-12T10:56:51Z</time></trkpt><trkpt lat="43.28332253593086" lon="11.691939181617325"><ele>304.5</ele><time>2026-04-12T10:56:52Z</time></trkpt><trkpt lat="43.283375156504235" lon="11.691740189586147"><ele>305.0</ele><time>2026-04-12T10:56:53Z</time></trkpt><trkpt lat="43.283429032005806" lon="11.691559785592206"><ele>305.5</ele><time>2026-04-12T10:56:54Z</time></trkpt><trkpt lat="43.28348879772943" lon="11.691392840164616"><ele>306.0</ele><time>2026-04-12T10:56:55Z</time></trkpt><trkpt lat="43.28356649972375" lon="11.691243168459659"><ele>306.0</ele><time>2026-04-12T10:56:56Z</time></trkpt><trkpt lat="43.283686473717054" lon="11.691136840823118"><ele>306.0</ele><time>2026-04-12T10:56:57Z</time></trkpt><trkpt lat="43.28381365618519" lon="11.691032325894295"><ele>306.0</ele><time>2026-04-12T10:56:58Z</time></trkpt><trkpt lat="43.28394792940935" lon="11.690916831677033"><ele>306.0</ele><time>2026-04-12T10:56:59Z</time></trkpt><trkpt lat="43.2840767224129" lon="11.690831458013133"><ele>305.75</ele><time>2026-04-12T10:57:00Z</time></trkpt><trkpt lat="43.28417616583184" lon="11.690750276061541"><ele>305.5</ele><time>2026-04-12T10:57:01Z</time></trkpt><trkpt lat="43.28425067989871" lon="11.690638547505777"><ele>305.25</ele><time>2026-04-12T10:57:02Z</time></trkpt><trkpt lat="43.284305206728455" lon="11.690473779277355"><ele>305.0</ele><time>2026-04-12T10:57:03Z</time></trkpt><trkpt lat="43.2843471576781" lon="11.690287661457937"><ele>306.25</ele><time>2026-04-12T10:57:04Z</time></trkpt><trkpt lat="43.284385786835166" lon="11.690091657730582"><ele>307.5</ele><time>2026-04-12T10:57:05Z</time></trkpt><trkpt lat="43.28443860008099" lon="11.689899971107073"><ele>308.75</ele><time>2026-04-12T10:57:06Z</time></trkpt><trkpt lat="43.284500642287945" lon="11.68971209951958"><ele>310.0</ele><time>2026-04-12T10:57:07Z</time></trkpt><trkpt lat="43.28454566612501" lon="11.689516966415253"><ele>312.3333333333333</ele><time>2026-04-12T10:57:08Z</time></trkpt><trkpt lat="43.284566390787454" lon="11.689300145862132"><ele>314.6666666666667</ele><time>2026-04-12T10:57:09Z</time></trkpt><trkpt lat="43.284577578227214" lon="11.689068869746356"><ele>317.0</ele><time>2026-04-12T10:57:10Z</time></trkpt><trkpt lat="43.28460524872016" lon="11.688833281039484"><ele>317.0</ele><time>2026-04-12T10:57:11Z</time></trkpt><trkpt lat="43.28465377830364" lon="11.68862436449162"><ele>317.0</ele><time>2026-04-12T10:57:12Z</time></trkpt><trkpt lat="43.28470352479971" lon="11.688422723300972"><ele>317.0</ele><time>2026-04-12T10:57:13Z</time></trkpt><trkpt lat="43.28474282585009" lon="11.688222139761447"><ele>317.6666666666667</ele><time>2026-04-12T10:57:14Z</time></trkpt><trkpt lat="43.28478081215091" lon="11.688012992957933"><ele>318.3333333333333</ele><time>2026-04-12T10:57:15Z</time></trkpt><trkpt lat="43.28484653349755" lon="11.687810483045665"><ele>319.0</ele><time>2026-04-12T10:57:16Z</time></trkpt><trkpt lat="43.284891627142706" lon="11.687600164756995"><ele>319.0</ele><time>2026-04-12T10:57:17Z</time></trkpt><trkpt lat="43.28491868034286" lon="11.687382112496856"><ele>319.0</ele><time>2026-04-12T10:57:18Z</time></trkpt><trkpt lat="43.28498410121036" lon="11.687176795142605"><ele>319.0</ele><time>2026-04-12T10:57:19Z</time></trkpt><trkpt lat="43.28503803619262" lon="11.686964415534181"><ele>319.3333333333333</ele><time>2026-04-12T10:57:20Z</time></trkpt><trkpt lat="43.28509389489091" lon="11.686748440522337"><ele>319.6666666666667</ele><time>2026-04-12T10:57:21Z</time></trkpt><trkpt lat="43.28515060249038" lon="11.686528024764895"><ele>320.0</ele><time>2026-04-12T10:57:22Z</time></trkpt><trkpt lat="43.285190190931395" lon="11.686294497766815"><ele>321.33333333333337</ele><time>2026-04-12T10:57:23Z</time></trkpt><trkpt lat="43.28524970684482" lon="11.686056694835642"><ele>322.6666666666667</ele><time>2026-04-12T10:57:24Z</time></trkpt><trkpt lat="43.28530488978846" lon="11.685802463991696"><ele>324.0</ele><time>2026-04-12T10:57:25Z</time></trkpt><trkpt lat="43.28534124536378" lon="11.68554613351308"><ele>324.0</ele><time>2026-04-12T10:57:26Z</time></trkpt><trkpt lat="43.28536592471323" lon="11.685270710056848"><ele>324.0</ele><time>2026-04-12T10:57:27Z</time></trkpt><trkpt lat="43.28540185206408" lon="11.684999050400508"><ele>324.0</ele><time>2026-04-12T10:57:28Z</time></trkpt><trkpt lat="43.285420458807224" lon="11.684736803258295"><ele>326.0</ele><time>2026-04-12T10:57:29Z</time></trkpt><trkpt lat="43.28540046119003" lon="11.684474720703511"><ele>328.0</ele><time>2026-04-12T10:57:30Z</time></trkpt><trkpt lat="43.28536706936293" lon="11.684206961069439"><ele>330.0</ele><time>2026-04-12T10:57:31Z</time></trkpt><trkpt lat="43.285320030240385" lon="11.683933045866"><ele>330.6666666666667</ele><time>2026-04-12T10:57:32Z</time></trkpt><trkpt lat="43.28528856027807" lon="11.683656813393107"><ele>331.33333333333337</ele><time>2026-04-12T10:57:33Z</time></trkpt><trkpt lat="43.28524915797224" lon="11.683401259753483"><ele>332.0</ele><time>2026-04-12T10:57:34Z</time></trkpt><trkpt lat="43.28522312233833" lon="11.68313626858657"><ele>334.0</ele><time>2026-04-12T10:57:35Z</time></trkpt><trkpt lat="43.28522264944983" lon="11.682870589036533"><ele>336.0</ele><time>2026-04-12T10:57:36Z</time></trkpt><trkpt lat="43.28522062933201" lon="11.682594040923027"><ele>338.0</ele><time>2026-04-12T10:57:37Z</time></trkpt><trkpt lat="43.285222612762205" lon="11.682321242398157"><ele>341.0</ele><time>2026-04-12T10:57:38Z</time></trkpt><trkpt lat="43.28522976253061" lon="11.682046889641736"><ele>344.0</ele><time>2026-04-12T10:57:39Z</time></trkpt><trkpt lat="43.28522440858576" lon="11.68178365985041"><ele>347.0</ele><time>2026-04-12T10:57:40Z</time></trkpt><trkpt lat="43.28523778809547" lon="11.681549235839446"><ele>348.33333333333337</ele><time>2026-04-12T10:57:41Z</time></trkpt><trkpt lat="43.285232629084405" lon="11.681321077248153"><ele>349.6666666666667</ele><time>2026-04-12T10:57:42Z</time></trkpt><trkpt lat="43.28520245502567" lon="11.681086873023238"><ele>351.0</ele><time>2026-04-12T10:57:43Z</time></trkpt><trkpt lat="43.28516075390826" lon="11.680853651805915"><ele>352.25</ele><time>2026-04-12T10:57:44Z</time></trkpt><trkpt lat="43.28513942599976" lon="11.680638354594942"><ele>353.5</ele><time>2026-04-12T10:57:45Z</time></trkpt><trkpt lat="43.285119455158764" lon="11.680442721343026"><ele>354.75</ele><time>2026-04-12T10:57:46Z</time></trkpt><trkpt lat="43.28511325514152" lon="11.680263350315371"><ele>356.0</ele><time>2026-04-12T10:57:47Z</time></trkpt><trkpt lat="43.28510166451653" lon="11.680112475644002"><ele>356.6</ele><time>2026-04-12T10:57:48Z</time></trkpt><trkpt lat="43.28510557859805" lon="11.67999212526598"><ele>357.20000000000005</ele><time>2026-04-12T10:57:49.001Z</time></trkpt><trkpt lat="43.28511740864898" lon="11.679877740390024"><ele>357.79999999999995</ele><time>2026-04-12T10:57:50.001Z</time></trkpt><trkpt lat="43.28515741451118" lon="11.679742333082041"><ele>358.4</ele><time>2026-04-12T10:57:51.001Z</time></trkpt><trkpt lat="43.28518050821703" lon="11.679561794992047"><ele>359.0</ele><time>2026-04-12T10:57:52.001Z</time></trkpt><trkpt lat="43.28522369126878" lon="11.679387138472627"><ele>357.79999999999995</ele><time>2026-04-12T10:57:53.001Z</time></trkpt><trkpt lat="43.28526327863006" lon="11.679228156591222"><ele>356.59999999999997</ele><time>2026-04-12T10:57:54.001Z</time></trkpt><trkpt lat="43.28530196768166" lon="11.679094420269502"><ele>355.4</ele><time>2026-04-12T10:57:55.001Z</time></trkpt><trkpt lat="43.28534443910217" lon="11.67897809249293"><ele>354.2</ele><time>2026-04-12T10:57:56.001Z</time></trkpt><trkpt lat="43.285385422125664" lon="11.678883285452413"><ele>353.0</ele><time>2026-04-12T10:57:57.001Z</time></trkpt><trkpt lat="43.28542958074359" lon="11.678814741937117"><ele>353.0</ele><time>2026-04-12T10:57:58.001Z</time></trkpt><trkpt lat="43.28548748891383" lon="11.67876903464987"><ele>353.0</ele><time>2026-04-12T10:58:00.001Z</time></trkpt><trkpt lat="43.28542947895108" lon="11.678587469591323"><ele>353.0</ele><time>2026-04-12T10:58:01.001Z</time></trkpt><trkpt lat="43.285395141253105" lon="11.678459254380396"><ele>353.0</ele><time>2026-04-12T10:58:02.001Z</time></trkpt><trkpt lat="43.285354124124105" lon="11.678311098788065"><ele>353.0</ele><time>2026-04-12T10:58:03.001Z</time></trkpt><trkpt lat="43.28530536276406" lon="11.67815878194002"><ele>351.25</ele><time>2026-04-12T10:58:04.001Z</time></trkpt><trkpt lat="43.28527690709227" lon="11.67799755385904"><ele>349.5</ele><time>2026-04-12T10:58:05.001Z</time></trkpt><trkpt lat="43.285220675986146" lon="11.67785153622537"><ele>347.75</ele><time>2026-04-12T10:58:06.001Z</time></trkpt><trkpt lat="43.28518318881001" lon="11.677708234072313"><ele>346.0</ele><time>2026-04-12T10:58:07.001Z</time></trkpt><trkpt lat="43.28515170474436" lon="11.677570954343384"><ele>345.4</ele><time>2026-04-12T10:58:08.001Z</time></trkpt><trkpt lat="43.28510983316579" lon="11.67745076720732"><ele>344.8</ele><time>2026-04-12T10:58:09.001Z</time></trkpt><trkpt lat="43.2850633404264" lon="11.677342490727789"><ele>344.2</ele><time>2026-04-12T10:58:10.001Z</time></trkpt><trkpt lat="43.28500915772593" lon="11.67723255391735"><ele>343.59999999999997</ele><time>2026-04-12T10:58:11.001Z</time></trkpt><trkpt lat="43.284945441827446" lon="11.677130437357254"><ele>343.0</ele><time>2026-04-12T10:58:12.001Z</time></trkpt><trkpt lat="43.28485762135436" lon="11.67706086430298"><ele>343.0</ele><time>2026-04-12T10:58:13.001Z</time></trkpt><trkpt lat="43.28478652306228" lon="11.676974144926522"><ele>343.0</ele><time>2026-04-12T10:58:14.001Z</time></trkpt><trkpt lat="43.284684232557304" lon="11.676952526317864"><ele>343.0</ele><time>2026-04-12T10:58:15.001Z</time></trkpt><trkpt lat="43.28458715608268" lon="11.676906877458634"><ele>343.0</ele><time>2026-04-12T10:58:16.001Z</time></trkpt><trkpt lat="43.28447087268281" lon="11.676919547725927"><ele>343.0</ele><time>2026-04-12T10:58:17.001Z</time></trkpt><trkpt lat="43.284358070152514" lon="11.676908863646139"><ele>344.59999999999997</ele><time>2026-04-12T10:58:18.001Z</time></trkpt><trkpt lat="43.28424968514388" lon="11.676912906170129"><ele>346.2</ele><time>2026-04-12T10:58:19.001Z</time></trkpt><trkpt lat="43.28414198892306" lon="11.676911015679204"><ele>347.8</ele><time>2026-04-12T10:58:20.001Z</time></trkpt><trkpt lat="43.284040170825996" lon="11.676869143568625"><ele>349.4</ele><time>2026-04-12T10:58:21.001Z</time></trkpt><trkpt lat="43.28393695584689" lon="11.676836894181694"><ele>351.0</ele><time>2026-04-12T10:58:22.001Z</time></trkpt><trkpt lat="43.28384417575522" lon="11.676770967992617"><ele>351.0</ele><time>2026-04-12T10:58:23.001Z</time></trkpt><trkpt lat="43.28375428292041" lon="11.676680953839869"><ele>351.0</ele><time>2026-04-12T10:58:24.001Z</time></trkpt><trkpt lat="43.28364751226084" lon="11.676576626644561"><ele>351.0</ele><time>2026-04-12T10:58:25.001Z</time></trkpt><trkpt lat="43.283550166856735" lon="11.67643623168745"><ele>351.0</ele><time>2026-04-12T10:58:26.001Z</time></trkpt><trkpt lat="43.28344390680147" lon="11.676278177150584"><ele>351.0</ele><time>2026-04-12T10:58:27.001Z</time></trkpt><trkpt lat="43.28332902542875" lon="11.676113574669866"><ele>351.0</ele><time>2026-04-12T10:58:28.001Z</time></trkpt><trkpt lat="43.28320796464102" lon="11.67594011669883"><ele>351.0</ele><time>2026-04-12T10:58:29.001Z</time></trkpt><trkpt lat="43.283088240111525" lon="11.675780367548303"><ele>351.75</ele><time>2026-04-12T10:58:30.001Z</time></trkpt><trkpt lat="43.282980666885955" lon="11.67564769040343"><ele>352.5</ele><time>2026-04-12T10:58:31.001Z</time></trkpt><trkpt lat="43.28288857947889" lon="11.675552973768445"><ele>353.25</ele><time>2026-04-12T10:58:32.001Z</time></trkpt><trkpt lat="43.28280874162973" lon="11.67547876308159"><ele>354.0</ele><time>2026-04-12T10:58:33.001Z</time></trkpt><trkpt lat="43.28271688243494" lon="11.675433142016226"><ele>354.0</ele><time>2026-04-12T10:58:34.001Z</time></trkpt><trkpt lat="43.28260761374575" lon="11.675405386291153"><ele>354.0</ele><time>2026-04-12T10:58:35.001Z</time></trkpt><trkpt lat="43.282483123049204" lon="11.675384537476013"><ele>354.0</ele><time>2026-04-12T10:58:36.001Z</time></trkpt><trkpt lat="43.28233994070652" lon="11.67534152834765"><ele>354.0</ele><time>2026-04-12T10:58:37.001Z</time></trkpt><trkpt lat="43.282193902785856" lon="11.675298665261534"><ele>361.6666666666667</ele><time>2026-04-12T10:58:38.001Z</time></trkpt><trkpt lat="43.28204341101881" lon="11.675256908024085"><ele>369.33333333333337</ele><time>2026-04-12T10:58:39.001Z</time></trkpt><trkpt lat="43.28188994324311" lon="11.675237393773417"><ele>377.0</ele><time>2026-04-12T10:58:40.001Z</time></trkpt><trkpt lat="43.28174069047202" lon="11.675173628490572"><ele>377.0</ele><time>2026-04-12T10:58:41.001Z</time></trkpt><trkpt lat="43.2815965262373" lon="11.675166262418271"><ele>377.0</ele><time>2026-04-12T10:58:42.001Z</time></trkpt><trkpt lat="43.28148377286258" lon="11.675114797261664"><ele>377.0</ele><time>2026-04-12T10:58:43.001Z</time></trkpt><trkpt lat="43.28138003768494" lon="11.675073248103"><ele>377.0</ele><time>2026-04-12T10:58:44.001Z</time></trkpt><trkpt lat="43.28128003679185" lon="11.674998190816238"><ele>377.5</ele><time>2026-04-12T10:58:45.001Z</time></trkpt><trkpt lat="43.28118041560656" lon="11.674889873567276"><ele>378.0</ele><time>2026-04-12T10:58:46.001Z</time></trkpt><trkpt lat="43.281076567994" lon="11.67474963038196"><ele>378.5</ele><time>2026-04-12T10:58:47.001Z</time></trkpt><trkpt lat="43.2809645093557" lon="11.674610433962913"><ele>379.0</ele><time>2026-04-12T10:58:48Z</time></trkpt><trkpt lat="43.28086313180728" lon="11.674432597712652"><ele>379.0</ele><time>2026-04-12T10:58:49Z</time></trkpt><trkpt lat="43.280771135603004" lon="11.674277203989972"><ele>379.0</ele><time>2026-04-12T10:58:50Z</time></trkpt><trkpt lat="43.280676912914316" lon="11.674118372511732"><ele>379.0</ele><time>2026-04-12T10:58:51Z</time></trkpt><trkpt lat="43.280574450906585" lon="11.673976939114542"><ele>379.0</ele><time>2026-04-12T10:58:52Z</time></trkpt><trkpt lat="43.28045756825753" lon="11.673842002807035"><ele>379.0</ele><time>2026-04-12T10:58:53Z</time></trkpt><trkpt lat="43.28034420885396" lon="11.673692135804208"><ele>379.0</ele><time>2026-04-12T10:58:54Z</time></trkpt><trkpt lat="43.280236872863114" lon="11.673545821722904"><ele>379.0</ele><time>2026-04-12T10:58:55Z</time></trkpt><trkpt lat="43.280110696253765" lon="11.673398817191668"><ele>379.0</ele><time>2026-04-12T10:58:56Z</time></trkpt><trkpt lat="43.27998190907438" lon="11.673264011388945"><ele>379.0</ele><time>2026-04-12T10:58:57Z</time></trkpt><trkpt lat="43.27988531258137" lon="11.673150704397836"><ele>379.0</ele><time>2026-04-12T10:58:58Z</time></trkpt><trkpt lat="43.279821078660206" lon="11.673057472902942"><ele>379.0</ele><time>2026-04-12T10:58:59Z</time></trkpt><trkpt lat="43.27977547008927" lon="11.672944820888423"><ele>380.3333333333333</ele><time>2026-04-12T10:59:00Z</time></trkpt><trkpt lat="43.27974967503316" lon="11.67282581508833"><ele>381.66666666666663</ele><time>2026-04-12T10:59:01Z</time></trkpt><trkpt lat="43.27975315729821" lon="11.672722457856505"><ele>383.0</ele><time>2026-04-12T10:59:02Z</time></trkpt><trkpt lat="43.27977542946441" lon="11.672630991930012"><ele>384.3333333333333</ele><time>2026-04-12T10:59:03Z</time></trkpt><trkpt lat="43.279825181613575" lon="11.672541717211077"><ele>385.6666666666667</ele><time>2026-04-12T10:59:04Z</time></trkpt><trkpt lat="43.279875768010356" lon="11.672434220866313"><ele>387.0</ele><time>2026-04-12T10:59:05Z</time></trkpt><trkpt lat="43.279911552132525" lon="11.672319968907404"><ele>387.0</ele><time>2026-04-12T10:59:06Z</time></trkpt><trkpt lat="43.27991016966344" lon="11.672199473307266"><ele>387.0</ele><time>2026-04-12T10:59:07Z</time></trkpt><trkpt lat="43.27988448428673" lon="11.67207533673592"><ele>387.0</ele><time>2026-04-12T10:59:08Z</time></trkpt><trkpt lat="43.27985497887807" lon="11.671941379419872"><ele>387.0</ele><time>2026-04-12T10:59:09Z</time></trkpt><trkpt lat="43.27977199587571" lon="11.671857366496969"><ele>387.0</ele><time>2026-04-12T10:59:10Z</time></trkpt><trkpt lat="43.27970456385343" lon="11.671768002061723"><ele>385.0</ele><time>2026-04-12T10:59:11Z</time></trkpt><trkpt lat="43.27959552953106" lon="11.671720795802747"><ele>383.0</ele><time>2026-04-12T10:59:12Z</time></trkpt><trkpt lat="43.27949045040669" lon="11.671694546931555"><ele>381.0</ele><time>2026-04-12T10:59:13Z</time></trkpt><trkpt lat="43.27939940446091" lon="11.67163932695887"><ele>379.0</ele><time>2026-04-12T10:59:14Z</time></trkpt><trkpt lat="43.27931705435722" lon="11.67156012887535"><ele>377.0</ele><time>2026-04-12T10:59:15Z</time></trkpt><trkpt lat="43.27923443983404" lon="11.671445172996169"><ele>377.0</ele><time>2026-04-12T10:59:16Z</time></trkpt><trkpt lat="43.27918547945845" lon="11.671261575778592"><ele>377.0</ele><time>2026-04-12T10:59:17Z</time></trkpt><trkpt lat="43.2791094105168" lon="11.671053086997334"><ele>377.0</ele><time>2026-04-12T10:59:18Z</time></trkpt><trkpt lat="43.27902606959382" lon="11.670814833129436"><ele>382.0</ele><time>2026-04-12T10:59:19Z</time></trkpt><trkpt lat="43.27893561696819" lon="11.670595514007553"><ele>387.0</ele><time>2026-04-12T10:59:20Z</time></trkpt><trkpt lat="43.27884367962962" lon="11.670432097681104"><ele>392.0</ele><time>2026-04-12T10:59:21Z</time></trkpt><trkpt lat="43.27874495274339" lon="11.670285927621189"><ele>389.25</ele><time>2026-04-12T10:59:22Z</time></trkpt><trkpt lat="43.27864506578704" lon="11.670157239414154"><ele>386.5</ele><time>2026-04-12T10:59:23Z</time></trkpt><trkpt lat="43.278541491113415" lon="11.670054913485576"><ele>383.75</ele><time>2026-04-12T10:59:24Z</time></trkpt><trkpt lat="43.278461523656254" lon="11.669957133326424"><ele>381.0</ele><time>2026-04-12T10:59:25Z</time></trkpt><trkpt lat="43.27839359639412" lon="11.669835152446048"><ele>381.0</ele><time>2026-04-12T10:59:26Z</time></trkpt><trkpt lat="43.27832482293483" lon="11.66970574905145"><ele>381.0</ele><time>2026-04-12T10:59:27Z</time></trkpt><trkpt lat="43.278310815473624" lon="11.669580309293423"><ele>381.0</ele><time>2026-04-12T10:59:28Z</time></trkpt><trkpt lat="43.27831044810466" lon="11.669491226044913"><ele>381.0</ele><time>2026-04-12T10:59:29Z</time></trkpt><trkpt lat="43.278331183646976" lon="11.66933791343089"><ele>381.0</ele><time>2026-04-12T10:59:31Z</time></trkpt><trkpt lat="43.278400011315036" lon="11.669241871480919"><ele>381.3333333333333</ele><time>2026-04-12T10:59:32Z</time></trkpt><trkpt lat="43.278485196083814" lon="11.669158815280767"><ele>381.6666666666667</ele><time>2026-04-12T10:59:33Z</time></trkpt><trkpt lat="43.278550975669006" lon="11.669075184137677"><ele>382.0</ele><time>2026-04-12T10:59:34Z</time></trkpt><trkpt lat="43.278592987278884" lon="11.669003912351972"><ele>382.33333333333337</ele><time>2026-04-12T10:59:35Z</time></trkpt><trkpt lat="43.278626738282" lon="11.668901640023073"><ele>382.6666666666667</ele><time>2026-04-12T10:59:36Z</time></trkpt><trkpt lat="43.278610501216754" lon="11.668762337451724"><ele>383.0</ele><time>2026-04-12T10:59:37Z</time></trkpt><trkpt lat="43.278530771767414" lon="11.668630674642225"><ele>381.25</ele><time>2026-04-12T10:59:38Z</time></trkpt><trkpt lat="43.27846758425532" lon="11.668499883009254"><ele>379.5</ele><time>2026-04-12T10:59:39Z</time></trkpt><trkpt lat="43.278386834779546" lon="11.668336653290787"><ele>377.75</ele><time>2026-04-12T10:59:40Z</time></trkpt><trkpt lat="43.27830188111468" lon="11.6681688439756"><ele>376.0</ele><time>2026-04-12T10:59:41Z</time></trkpt><trkpt lat="43.27822016999372" lon="11.668007239427945"><ele>376.0</ele><time>2026-04-12T10:59:42Z</time></trkpt><trkpt lat="43.27814354631114" lon="11.667853541716013"><ele>376.0</ele><time>2026-04-12T10:59:43Z</time></trkpt><trkpt lat="43.27807813085038" lon="11.667719407927445"><ele>376.0</ele><time>2026-04-12T10:59:44Z</time></trkpt><trkpt lat="43.2780155458368" lon="11.667594553528474"><ele>376.0</ele><time>2026-04-12T10:59:45Z</time></trkpt><trkpt lat="43.277938071903534" lon="11.667469428748896"><ele>372.5</ele><time>2026-04-12T10:59:46Z</time></trkpt><trkpt lat="43.27785047583871" lon="11.667340307769036"><ele>369.0</ele><time>2026-04-12T10:59:47Z</time></trkpt><trkpt lat="43.277748656724974" lon="11.667240522878897"><ele>365.5</ele><time>2026-04-12T10:59:48Z</time></trkpt><trkpt lat="43.27766755876962" lon="11.667149477477057"><ele>362.0</ele><time>2026-04-12T10:59:49Z</time></trkpt><trkpt lat="43.27759770062315" lon="11.66704717444465"><ele>360.40000000000003</ele><time>2026-04-12T10:59:50Z</time></trkpt><trkpt lat="43.2775466554307" lon="11.666939568519528"><ele>358.8</ele><time>2026-04-12T10:59:51Z</time></trkpt><trkpt lat="43.27751206333944" lon="11.666815497282816"><ele>357.2</ele><time>2026-04-12T10:59:52Z</time></trkpt><trkpt lat="43.27750620756076" lon="11.666678980243603"><ele>355.6</ele><time>2026-04-12T10:59:53Z</time></trkpt><trkpt lat="43.277485415136475" lon="11.666518948164365"><ele>354.0</ele><time>2026-04-12T10:59:54Z</time></trkpt><trkpt lat="43.27750747736365" lon="11.66633805610383"><ele>354.0</ele><time>2026-04-12T10:59:55Z</time></trkpt><trkpt lat="43.277519852477695" lon="11.666145596634848"><ele>354.0</ele><time>2026-04-12T10:59:56Z</time></trkpt><trkpt lat="43.277541955503686" lon="11.665959573254247"><ele>354.0</ele><time>2026-04-12T10:59:57Z</time></trkpt><trkpt lat="43.277560773383314" lon="11.66577608956855"><ele>354.0</ele><time>2026-04-12T10:59:58Z</time></trkpt><trkpt lat="43.27757661268422" lon="11.665595449875633"><ele>351.5</ele><time>2026-04-12T10:59:59Z</time></trkpt><trkpt lat="43.277585798417704" lon="11.665418011265583"><ele>349.0</ele><time>2026-04-12T11:00:00Z</time></trkpt><trkpt lat="43.27757860950895" lon="11.66525320798998"><ele>346.5</ele><time>2026-04-12T11:00:01Z</time></trkpt><trkpt lat="43.27755776124875" lon="11.66509983251228"><ele>344.0</ele><time>2026-04-12T11:00:02Z</time></trkpt><trkpt lat="43.277524711309454" lon="11.664953753301782"><ele>343.0</ele><time>2026-04-12T11:00:03Z</time></trkpt><trkpt lat="43.27751146950656" lon="11.66480758945525"><ele>342.0</ele><time>2026-04-12T11:00:04Z</time></trkpt><trkpt lat="43.27746562561251" lon="11.66468554609011"><ele>341.0</ele><time>2026-04-12T11:00:05Z</time></trkpt><trkpt lat="43.27743565646143" lon="11.66457201541997"><ele>340.0</ele><time>2026-04-12T11:00:06Z</time></trkpt><trkpt lat="43.2774049797621" lon="11.664469640718911"><ele>339.0</ele><time>2026-04-12T11:00:07Z</time></trkpt><trkpt lat="43.277371361008036" lon="11.664383184721693"><ele>338.0</ele><time>2026-04-12T11:00:08Z</time></trkpt><trkpt lat="43.27735045655015" lon="11.664296099459968"><ele>336.79999999999995</ele><time>2026-04-12T11:00:09Z</time></trkpt><trkpt lat="43.27729139133261" lon="11.664184822796585"><ele>335.6</ele><time>2026-04-12T11:00:11.001Z</time></trkpt><trkpt lat="43.27722843883717" lon="11.66410585274183"><ele>334.4</ele><time>2026-04-12T11:00:13.001Z</time></trkpt><trkpt lat="43.277140567630056" lon="11.664031137220137"><ele>333.20000000000005</ele><time>2026-04-12T11:00:15.001Z</time></trkpt><trkpt lat="43.27703578002021" lon="11.663991807199181"><ele>332.0</ele><time>2026-04-12T11:00:17.001Z</time></trkpt><trkpt lat="43.27693396637415" lon="11.663961042242459"><ele>332.0</ele><time>2026-04-12T11:00:19.001Z</time></trkpt><trkpt lat="43.27680477466678" lon="11.663935737314272"><ele>332.0</ele><time>2026-04-12T11:00:21.001Z</time></trkpt><trkpt lat="43.27672593429707" lon="11.663924081006202"><ele>332.0</ele><time>2026-04-12T11:00:22.001Z</time></trkpt><trkpt lat="43.27662922232449" lon="11.663909782452606"><ele>332.0</ele><time>2026-04-12T11:00:23.001Z</time></trkpt><trkpt lat="43.27652142392977" lon="11.663896474674173"><ele>332.0</ele><time>2026-04-12T11:00:24.001Z</time></trkpt><trkpt lat="43.276424120091455" lon="11.663884876389773"><ele>332.40000000000003</ele><time>2026-04-12T11:00:25.001Z</time></trkpt><trkpt lat="43.27633605752277" lon="11.663874379642484"><ele>332.8</ele><time>2026-04-12T11:00:26.001Z</time></trkpt><trkpt lat="43.27625938214741" lon="11.66386085081698"><ele>333.2</ele><time>2026-04-12T11:00:27.001Z</time></trkpt><trkpt lat="43.27617009278636" lon="11.663826167084595"><ele>333.6</ele><time>2026-04-12T11:00:29.001Z</time></trkpt><trkpt lat="43.27621654944268" lon="11.663675209906271"><ele>334.0</ele><time>2026-04-12T11:00:32.001Z</time></trkpt><trkpt lat="43.276208233930085" lon="11.663563178455387"><ele>334.2</ele><time>2026-04-12T11:00:33.001Z</time></trkpt><trkpt lat="43.27623017960741" lon="11.663436511613305"><ele>334.4</ele><time>2026-04-12T11:00:34.001Z</time></trkpt><trkpt lat="43.27623429560641" lon="11.663295643624124"><ele>334.6</ele><time>2026-04-12T11:00:35.001Z</time></trkpt><trkpt lat="43.276223986481895" lon="11.663131872021047"><ele>334.8</ele><time>2026-04-12T11:00:36.001Z</time></trkpt><trkpt lat="43.276238325445476" lon="11.6629629104992"><ele>335.0</ele><time>2026-04-12T11:00:37.001Z</time></trkpt><trkpt lat="43.276245108125416" lon="11.662776765087118"><ele>334.0</ele><time>2026-04-12T11:00:38.001Z</time></trkpt><trkpt lat="43.27625336299199" lon="11.662577298577716"><ele>333.0</ele><time>2026-04-12T11:00:39.001Z</time></trkpt><trkpt lat="43.27626070860605" lon="11.66238968949187"><ele>332.0</ele><time>2026-04-12T11:00:40.001Z</time></trkpt><trkpt lat="43.27626801560004" lon="11.662214886240202"><ele>331.0</ele><time>2026-04-12T11:00:41.001Z</time></trkpt><trkpt lat="43.27627523760152" lon="11.662042750727188"><ele>330.20000000000005</ele><time>2026-04-12T11:00:42.001Z</time></trkpt><trkpt lat="43.27628029528217" lon="11.661886384946808"><ele>329.40000000000003</ele><time>2026-04-12T11:00:43.001Z</time></trkpt><trkpt lat="43.27628449415727" lon="11.66173611533223"><ele>328.6</ele><time>2026-04-12T11:00:44.001Z</time></trkpt><trkpt lat="43.276301565645554" lon="11.66160924389203"><ele>327.8</ele><time>2026-04-12T11:00:45.001Z</time></trkpt><trkpt lat="43.27634558103445" lon="11.661493239166907"><ele>327.0</ele><time>2026-04-12T11:00:46.001Z</time></trkpt><trkpt lat="43.27641331365661" lon="11.661393775843447"><ele>325.25</ele><time>2026-04-12T11:00:47.001Z</time></trkpt><trkpt lat="43.27650793737705" lon="11.66131328104133"><ele>323.5</ele><time>2026-04-12T11:00:48.001Z</time></trkpt><trkpt lat="43.27662327515478" lon="11.661250746743427"><ele>321.75</ele><time>2026-04-12T11:00:49.001Z</time></trkpt><trkpt lat="43.27674957445357" lon="11.661183591634003"><ele>320.0</ele><time>2026-04-12T11:00:50.001Z</time></trkpt><trkpt lat="43.2768608840148" lon="11.661105904909734"><ele>319.6</ele><time>2026-04-12T11:00:51.001Z</time></trkpt><trkpt lat="43.27694832239557" lon="11.661031236490125"><ele>319.2</ele><time>2026-04-12T11:00:52.001Z</time></trkpt><trkpt lat="43.27701788831712" lon="11.660938926112765"><ele>318.8</ele><time>2026-04-12T11:00:53.001Z</time></trkpt><trkpt lat="43.27708176938397" lon="11.660822217893857"><ele>318.4</ele><time>2026-04-12T11:00:54Z</time></trkpt><trkpt lat="43.27713561145798" lon="11.660676705528637"><ele>318.0</ele><time>2026-04-12T11:00:55Z</time></trkpt><trkpt lat="43.27719152473643" lon="11.660510188121547"><ele>318.0</ele><time>2026-04-12T11:00:56Z</time></trkpt><trkpt lat="43.27725707009642" lon="11.660330551394779"><ele>318.0</ele><time>2026-04-12T11:00:57Z</time></trkpt><trkpt lat="43.277330386871824" lon="11.660130945453464"><ele>318.0</ele><time>2026-04-12T11:00:58Z</time></trkpt><trkpt lat="43.27739774527504" lon="11.659936450516208"><ele>318.0</ele><time>2026-04-12T11:00:59Z</time></trkpt><trkpt lat="43.27746596929461" lon="11.659728285304887"><ele>318.0</ele><time>2026-04-12T11:01:00Z</time></trkpt><trkpt lat="43.27752450553" lon="11.659540088890983"><ele>318.0</ele><time>2026-04-12T11:01:01Z</time></trkpt><trkpt lat="43.27757835615764" lon="11.659358762553499"><ele>318.0</ele><time>2026-04-12T11:01:02Z</time></trkpt><trkpt lat="43.27762793233053" lon="11.659168851868818"><ele>318.0</ele><time>2026-04-12T11:01:03Z</time></trkpt><trkpt lat="43.277671695075725" lon="11.658975398116239"><ele>318.0</ele><time>2026-04-12T11:01:04Z</time></trkpt><trkpt lat="43.27771550464661" lon="11.658760255205841"><ele>317.3333333333333</ele><time>2026-04-12T11:01:05Z</time></trkpt><trkpt lat="43.27776073303894" lon="11.658556575619697"><ele>316.66666666666663</ele><time>2026-04-12T11:01:06Z</time></trkpt><trkpt lat="43.2778100047489" lon="11.658353651328607"><ele>316.0</ele><time>2026-04-12T11:01:07Z</time></trkpt><trkpt lat="43.27785604386599" lon="11.658167772025218"><ele>316.0</ele><time>2026-04-12T11:01:08Z</time></trkpt><trkpt lat="43.2778967661541" lon="11.65799281831999"><ele>316.0</ele><time>2026-04-12T11:01:09Z</time></trkpt><trkpt lat="43.27792807874366" lon="11.657820478013042"><ele>316.0</ele><time>2026-04-12T11:01:10Z</time></trkpt><trkpt lat="43.27794669328307" lon="11.657646066635206"><ele>316.0</ele><time>2026-04-12T11:01:11Z</time></trkpt><trkpt lat="43.27794760499021" lon="11.657465667618988"><ele>315.66666666666663</ele><time>2026-04-12T11:01:12Z</time></trkpt><trkpt lat="43.277926412356344" lon="11.657267286340852"><ele>315.3333333333333</ele><time>2026-04-12T11:01:13Z</time></trkpt><trkpt lat="43.2778990743796" lon="11.65705291062076"><ele>315.0</ele><time>2026-04-12T11:01:14Z</time></trkpt><trkpt lat="43.27787790840025" lon="11.656826392337777"><ele>314.6666666666667</ele><time>2026-04-12T11:01:15Z</time></trkpt><trkpt lat="43.277863435201176" lon="11.656592311938306"><ele>314.33333333333337</ele><time>2026-04-12T11:01:16Z</time></trkpt><trkpt lat="43.27784615346687" lon="11.656344128195675"><ele>314.0</ele><time>2026-04-12T11:01:17Z</time></trkpt><trkpt lat="43.27782469587255" lon="11.656092946636466"><ele>313.75</ele><time>2026-04-12T11:01:18Z</time></trkpt><trkpt lat="43.277807035047296" lon="11.655863812576197"><ele>313.5</ele><time>2026-04-12T11:01:19Z</time></trkpt><trkpt lat="43.277793232702244" lon="11.655665626280674"><ele>313.25</ele><time>2026-04-12T11:01:20Z</time></trkpt><trkpt lat="43.27778111340314" lon="11.655495680351196"><ele>313.0</ele><time>2026-04-12T11:01:21Z</time></trkpt><trkpt lat="43.277771806868856" lon="11.65533960267711"><ele>313.25</ele><time>2026-04-12T11:01:22Z</time></trkpt><trkpt lat="43.27777372953838" lon="11.6551883495957"><ele>313.5</ele><time>2026-04-12T11:01:23Z</time></trkpt><trkpt lat="43.27779514997418" lon="11.655019614119379"><ele>313.75</ele><time>2026-04-12T11:01:24Z</time></trkpt><trkpt lat="43.277826578642596" lon="11.654837321185227"><ele>314.0</ele><time>2026-04-12T11:01:25Z</time></trkpt><trkpt lat="43.27785708825112" lon="11.654672910975433"><ele>314.0</ele><time>2026-04-12T11:01:26Z</time></trkpt><trkpt lat="43.27789039179744" lon="11.654511088358921"><ele>314.0</ele><time>2026-04-12T11:01:27Z</time></trkpt><trkpt lat="43.27794007653336" lon="11.654335907793072"><ele>314.0</ele><time>2026-04-12T11:01:28Z</time></trkpt><trkpt lat="43.2780018397785" lon="11.654149273354053"><ele>314.0</ele><time>2026-04-12T11:01:29Z</time></trkpt><trkpt lat="43.27805845326046" lon="11.65394927803452"><ele>314.0</ele><time>2026-04-12T11:01:30Z</time></trkpt><trkpt lat="43.27811489827472" lon="11.653744442999031"><ele>314.0</ele><time>2026-04-12T11:01:31Z</time></trkpt><trkpt lat="43.278178895140435" lon="11.653538813095267"><ele>314.0</ele><time>2026-04-12T11:01:32Z</time></trkpt><trkpt lat="43.27824441324787" lon="11.65333265516371"><ele>314.0</ele><time>2026-04-12T11:01:33Z</time></trkpt><trkpt lat="43.2783064045925" lon="11.653127021005913"><ele>314.0</ele><time>2026-04-12T11:01:34Z</time></trkpt><trkpt lat="43.27835448237806" lon="11.65292392764312"><ele>314.0</ele><time>2026-04-12T11:01:35Z</time></trkpt><trkpt lat="43.27838857984343" lon="11.652711554027023"><ele>313.0</ele><time>2026-04-12T11:01:36Z</time></trkpt><trkpt lat="43.27841471508125" lon="11.652488359295901"><ele>312.0</ele><time>2026-04-12T11:01:37Z</time></trkpt><trkpt lat="43.27845465063821" lon="11.652259877552925"><ele>311.0</ele><time>2026-04-12T11:01:38Z</time></trkpt><trkpt lat="43.27850358506298" lon="11.652050737015827"><ele>310.0</ele><time>2026-04-12T11:01:39Z</time></trkpt><trkpt lat="43.278542293462195" lon="11.65184834333296"><ele>309.0</ele><time>2026-04-12T11:01:40Z</time></trkpt><trkpt lat="43.2785664538805" lon="11.651642790267287"><ele>308.0</ele><time>2026-04-12T11:01:41Z</time></trkpt><trkpt lat="43.278580969615206" lon="11.651468000362916"><ele>307.0</ele><time>2026-04-12T11:01:42Z</time></trkpt><trkpt lat="43.2786093860638" lon="11.651317932280914"><ele>307.0</ele><time>2026-04-12T11:01:43Z</time></trkpt><trkpt lat="43.27865395298006" lon="11.651169642958614"><ele>307.0</ele><time>2026-04-12T11:01:44Z</time></trkpt><trkpt lat="43.27872255808975" lon="11.651012622885245"><ele>307.0</ele><time>2026-04-12T11:01:45Z</time></trkpt><trkpt lat="43.27880240162029" lon="11.650847650268409"><ele>307.0</ele><time>2026-04-12T11:01:46Z</time></trkpt><trkpt lat="43.278880177782206" lon="11.650660258328546"><ele>307.3333333333333</ele><time>2026-04-12T11:01:47Z</time></trkpt><trkpt lat="43.278958006652445" lon="11.650453350919948"><ele>307.6666666666667</ele><time>2026-04-12T11:01:48Z</time></trkpt><trkpt lat="43.27903380269744" lon="11.650235391548895"><ele>308.0</ele><time>2026-04-12T11:01:49Z</time></trkpt><trkpt lat="43.279108499740516" lon="11.650024549223417"><ele>308.0</ele><time>2026-04-12T11:01:50Z</time></trkpt><trkpt lat="43.27918078695557" lon="11.649827316780726"><ele>308.0</ele><time>2026-04-12T11:01:51Z</time></trkpt><trkpt lat="43.279256836922904" lon="11.649631794003415"><ele>308.0</ele><time>2026-04-12T11:01:52Z</time></trkpt><trkpt lat="43.27932792429176" lon="11.649443519992289"><ele>307.6666666666667</ele><time>2026-04-12T11:01:53Z</time></trkpt><trkpt lat="43.279405567476424" lon="11.649264617863686"><ele>307.3333333333333</ele><time>2026-04-12T11:01:54Z</time></trkpt><trkpt lat="43.279494458950595" lon="11.649094585774721"><ele>307.0</ele><time>2026-04-12T11:01:55Z</time></trkpt><trkpt lat="43.279586233155904" lon="11.648930388055314"><ele>307.0</ele><time>2026-04-12T11:01:56Z</time></trkpt><trkpt lat="43.27968207156304" lon="11.648770884166066"><ele>307.0</ele><time>2026-04-12T11:01:57Z</time></trkpt><trkpt lat="43.2797961383088" lon="11.648616308574555"><ele>307.0</ele><time>2026-04-12T11:01:58Z</time></trkpt><trkpt lat="43.2799334687376" lon="11.648475970966281"><ele>307.66666666666663</ele><time>2026-04-12T11:01:59Z</time></trkpt><trkpt lat="43.28008558673199" lon="11.64834415166693"><ele>308.3333333333333</ele><time>2026-04-12T11:02:00Z</time></trkpt><trkpt lat="43.28023256507825" lon="11.648202680214997"><ele>309.0</ele><time>2026-04-12T11:02:01Z</time></trkpt><trkpt lat="43.28037080457495" lon="11.648042435894325"><ele>309.0</ele><time>2026-04-12T11:02:02Z</time></trkpt><trkpt lat="43.28051162932945" lon="11.647871993533657"><ele>309.0</ele><time>2026-04-12T11:02:03Z</time></trkpt><trkpt lat="43.28065640302149" lon="11.64769999874945"><ele>309.0</ele><time>2026-04-12T11:02:04Z</time></trkpt><trkpt lat="43.28080194421423" lon="11.647525777613994"><ele>309.0</ele><time>2026-04-12T11:02:05Z</time></trkpt><trkpt lat="43.28093837116766" lon="11.647354419706192"><ele>309.0</ele><time>2026-04-12T11:02:06Z</time></trkpt><trkpt lat="43.281061771041045" lon="11.647187768990934"><ele>309.0</ele><time>2026-04-12T11:02:07Z</time></trkpt><trkpt lat="43.28117759951476" lon="11.64701521850673"><ele>309.0</ele><time>2026-04-12T11:02:08Z</time></trkpt><trkpt lat="43.28128373658723" lon="11.64683791784692"><ele>309.0</ele><time>2026-04-12T11:02:09Z</time></trkpt><trkpt lat="43.281373520361576" lon="11.646668040504847"><ele>309.0</ele><time>2026-04-12T11:02:10Z</time></trkpt><trkpt lat="43.2814576277193" lon="11.646511269719246"><ele>309.0</ele><time>2026-04-12T11:02:11Z</time></trkpt><trkpt lat="43.28153769389444" lon="11.646379488986494"><ele>309.0</ele><time>2026-04-12T11:02:12.001Z</time></trkpt><trkpt lat="43.28162638240643" lon="11.646263378056082"><ele>309.0</ele><time>2026-04-12T11:02:13.001Z</time></trkpt><trkpt lat="43.281740885283696" lon="11.64617710256689"><ele>309.0</ele><time>2026-04-12T11:02:14.001Z</time></trkpt><trkpt lat="43.281872796483604" lon="11.646109305889143"><ele>309.0</ele><time>2026-04-12T11:02:15.001Z</time></trkpt><trkpt lat="43.28200815266203" lon="11.646060066692456"><ele>309.0</ele><time>2026-04-12T11:02:16.001Z</time></trkpt><trkpt lat="43.2821303653216" lon="11.646005248813152"><ele>309.0</ele><time>2026-04-12T11:02:17.001Z</time></trkpt><trkpt lat="43.28223438785459" lon="11.645918688348477"><ele>309.0</ele><time>2026-04-12T11:02:18.001Z</time></trkpt><trkpt lat="43.28233750153905" lon="11.645824492485161"><ele>309.75</ele><time>2026-04-12T11:02:19.001Z</time></trkpt><trkpt lat="43.28243174489991" lon="11.645708008546018"><ele>310.5</ele><time>2026-04-12T11:02:20.001Z</time></trkpt><trkpt lat="43.282503761240775" lon="11.645570647199072"><ele>311.25</ele><time>2026-04-12T11:02:21.001Z</time></trkpt><trkpt lat="43.282565709395875" lon="11.645406407991205"><ele>312.0</ele><time>2026-04-12T11:02:22.001Z</time></trkpt><trkpt lat="43.28262566325023" lon="11.645237929202407"><ele>312.0</ele><time>2026-04-12T11:02:23.001Z</time></trkpt><trkpt lat="43.28268396290771" lon="11.645063242382593"><ele>312.0</ele><time>2026-04-12T11:02:24.001Z</time></trkpt><trkpt lat="43.28273563595448" lon="11.64488654061703"><ele>312.0</ele><time>2026-04-12T11:02:25.001Z</time></trkpt><trkpt lat="43.28276885453365" lon="11.644706712971045"><ele>312.0</ele><time>2026-04-12T11:02:26.001Z</time></trkpt><trkpt lat="43.28278549190272" lon="11.644521993653726"><ele>311.75</ele><time>2026-04-12T11:02:27.001Z</time></trkpt><trkpt lat="43.28279926152386" lon="11.644334274786928"><ele>311.5</ele><time>2026-04-12T11:02:28.001Z</time></trkpt><trkpt lat="43.28281581083081" lon="11.644167113864485"><ele>311.25</ele><time>2026-04-12T11:02:29.001Z</time></trkpt><trkpt lat="43.28284743910279" lon="11.644009539735576"><ele>311.0</ele><time>2026-04-12T11:02:30.001Z</time></trkpt><trkpt lat="43.2829011119371" lon="11.643865274132535"><ele>311.0</ele><time>2026-04-12T11:02:31.001Z</time></trkpt><trkpt lat="43.282969419367724" lon="11.643727034840758"><ele>311.0</ele><time>2026-04-12T11:02:32.001Z</time></trkpt><trkpt lat="43.28305226449181" lon="11.643593044248599"><ele>311.0</ele><time>2026-04-12T11:02:33.001Z</time></trkpt><trkpt lat="43.283146572442185" lon="11.643451408490348"><ele>311.0</ele><time>2026-04-12T11:02:34.001Z</time></trkpt><trkpt lat="43.283240949914884" lon="11.643292665644617"><ele>311.6666666666667</ele><time>2026-04-12T11:02:35.001Z</time></trkpt><trkpt lat="43.283321207064" lon="11.643110938031967"><ele>312.3333333333333</ele><time>2026-04-12T11:02:36.001Z</time></trkpt><trkpt lat="43.28338785203817" lon="11.642913745213212"><ele>313.0</ele><time>2026-04-12T11:02:37.001Z</time></trkpt><trkpt lat="43.283460150249326" lon="11.642715883626996"><ele>313.0</ele><time>2026-04-12T11:02:38.001Z</time></trkpt><trkpt lat="43.2835476156509" lon="11.642525846508168"><ele>313.0</ele><time>2026-04-12T11:02:39.001Z</time></trkpt><trkpt lat="43.28363882756741" lon="11.642362035015745"><ele>313.0</ele><time>2026-04-12T11:02:40.001Z</time></trkpt><trkpt lat="43.28372673653158" lon="11.642222556541347"><ele>313.0</ele><time>2026-04-12T11:02:41.001Z</time></trkpt><trkpt lat="43.283807976559984" lon="11.642090144629677"><ele>313.0</ele><time>2026-04-12T11:02:42.001Z</time></trkpt><trkpt lat="43.28389141345192" lon="11.64194826567853"><ele>313.0</ele><time>2026-04-12T11:02:43.001Z</time></trkpt><trkpt lat="43.28397293852959" lon="11.641784576791713"><ele>313.0</ele><time>2026-04-12T11:02:44.001Z</time></trkpt><trkpt lat="43.28404978142337" lon="11.641637230907747"><ele>313.0</ele><time>2026-04-12T11:02:45.001Z</time></trkpt><trkpt lat="43.2841185369657" lon="11.641505511846667"><ele>313.0</ele><time>2026-04-12T11:02:46.001Z</time></trkpt><trkpt lat="43.284197767636606" lon="11.641392689271047"><ele>313.0</ele><time>2026-04-12T11:02:47.001Z</time></trkpt><trkpt lat="43.28429384963968" lon="11.64129078791947"><ele>313.0</ele><time>2026-04-12T11:02:48.001Z</time></trkpt><trkpt lat="43.28440131544092" lon="11.641199805028926"><ele>313.0</ele><time>2026-04-12T11:02:49.001Z</time></trkpt><trkpt lat="43.284514623287215" lon="11.641111534816766"><ele>313.25</ele><time>2026-04-12T11:02:50.001Z</time></trkpt><trkpt lat="43.28462405720344" lon="11.64102782356227"><ele>313.5</ele><time>2026-04-12T11:02:51.001Z</time></trkpt><trkpt lat="43.28472224566825" lon="11.640953382879452"><ele>313.75</ele><time>2026-04-12T11:02:52.001Z</time></trkpt><trkpt lat="43.284811873780534" lon="11.640872955304102"><ele>314.0</ele><time>2026-04-12T11:02:53.001Z</time></trkpt><trkpt lat="43.284897836478926" lon="11.640781332384151"><ele>314.59999999999997</ele><time>2026-04-12T11:02:54.001Z</time></trkpt><trkpt lat="43.28497775245901" lon="11.640695442004112"><ele>315.2</ele><time>2026-04-12T11:02:55.001Z</time></trkpt><trkpt lat="43.285052659583755" lon="11.640622355307114"><ele>315.79999999999995</ele><time>2026-04-12T11:02:56.001Z</time></trkpt><trkpt lat="43.28512614983576" lon="11.640553874058053"><ele>316.4</ele><time>2026-04-12T11:02:57.001Z</time></trkpt><trkpt lat="43.28520382163345" lon="11.640490222037904"><ele>317.0</ele><time>2026-04-12T11:02:58.001Z</time></trkpt><trkpt lat="43.28527878875441" lon="11.640429504655065"><ele>317.0</ele><time>2026-04-12T11:02:59.001Z</time></trkpt><trkpt lat="43.2853680201384" lon="11.640364028723594"><ele>317.0</ele><time>2026-04-12T11:03:00Z</time></trkpt><trkpt lat="43.28546461331556" lon="11.64029275245974"><ele>317.0</ele><time>2026-04-12T11:03:01Z</time></trkpt><trkpt lat="43.285563448765394" lon="11.640220116820874"><ele>317.0</ele><time>2026-04-12T11:03:02Z</time></trkpt><trkpt lat="43.285660527487344" lon="11.640147265404867"><ele>317.0</ele><time>2026-04-12T11:03:03Z</time></trkpt><trkpt lat="43.28576337899973" lon="11.640082352528296"><ele>317.25</ele><time>2026-04-12T11:03:04Z</time></trkpt><trkpt lat="43.285873351529915" lon="11.640016560074063"><ele>317.5</ele><time>2026-04-12T11:03:05Z</time></trkpt><trkpt lat="43.2859906062089" lon="11.63994982680888"><ele>317.75</ele><time>2026-04-12T11:03:06Z</time></trkpt><trkpt lat="43.286116201616835" lon="11.639870155763703"><ele>318.0</ele><time>2026-04-12T11:03:07Z</time></trkpt><trkpt lat="43.286236652147366" lon="11.639779140323721"><ele>318.0</ele><time>2026-04-12T11:03:08Z</time></trkpt><trkpt lat="43.286354035053876" lon="11.639665533934307"><ele>318.0</ele><time>2026-04-12T11:03:09Z</time></trkpt><trkpt lat="43.28646965063967" lon="11.639542462465833"><ele>318.0</ele><time>2026-04-12T11:03:10Z</time></trkpt><trkpt lat="43.286584699262264" lon="11.639426259989236"><ele>318.0</ele><time>2026-04-12T11:03:11Z</time></trkpt><trkpt lat="43.28669488970844" lon="11.63932434495495"><ele>319.2</ele><time>2026-04-12T11:03:12Z</time></trkpt><trkpt lat="43.28679538693318" lon="11.639234104798422"><ele>320.4</ele><time>2026-04-12T11:03:13Z</time></trkpt><trkpt lat="43.28689319014654" lon="11.639150841764284"><ele>321.59999999999997</ele><time>2026-04-12T11:03:14Z</time></trkpt><trkpt lat="43.2869925611541" lon="11.639079909520337"><ele>322.8</ele><time>2026-04-12T11:03:15Z</time></trkpt><trkpt lat="43.28708692685296" lon="11.639030672392986"><ele>324.0</ele><time>2026-04-12T11:03:16Z</time></trkpt><trkpt lat="43.28717594937389" lon="11.63899299611233"><ele>324.0</ele><time>2026-04-12T11:03:17Z</time></trkpt><trkpt lat="43.28723985534172" lon="11.638945260093466"><ele>324.0</ele><time>2026-04-12T11:03:18Z</time></trkpt><trkpt lat="43.287288548647744" lon="11.63887803209675"><ele>324.0</ele><time>2026-04-12T11:03:19Z</time></trkpt><trkpt lat="43.28731289849488" lon="11.638773522451856"><ele>324.0</ele><time>2026-04-12T11:03:20Z</time></trkpt><trkpt lat="43.28733504864195" lon="11.638647668447296"><ele>324.0</ele><time>2026-04-12T11:03:21Z</time></trkpt><trkpt lat="43.28734784023638" lon="11.638495364882996"><ele>324.0</ele><time>2026-04-12T11:03:22Z</time></trkpt><trkpt lat="43.28736295105741" lon="11.638332855788498"><ele>323.8333333333333</ele><time>2026-04-12T11:03:23Z</time></trkpt><trkpt lat="43.28738042760195" lon="11.638179232030849"><ele>323.6666666666667</ele><time>2026-04-12T11:03:24Z</time></trkpt><trkpt lat="43.2873971392764" lon="11.638055426495061"><ele>323.5</ele><time>2026-04-12T11:03:25Z</time></trkpt><trkpt lat="43.287423164412" lon="11.637964243219912"><ele>323.33333333333337</ele><time>2026-04-12T11:03:26Z</time></trkpt><trkpt lat="43.28747193042485" lon="11.637894257805844"><ele>323.1666666666667</ele><time>2026-04-12T11:03:27Z</time></trkpt><trkpt lat="43.28754318197792" lon="11.637839752936477"><ele>323.0</ele><time>2026-04-12T11:03:28Z</time></trkpt><trkpt lat="43.287634082746074" lon="11.637790197365302"><ele>322.5</ele><time>2026-04-12T11:03:29Z</time></trkpt><trkpt lat="43.28772889517524" lon="11.637734428406914"><ele>322.0</ele><time>2026-04-12T11:03:30Z</time></trkpt><trkpt lat="43.28783394883516" lon="11.637663836238394"><ele>321.5</ele><time>2026-04-12T11:03:31Z</time></trkpt><trkpt lat="43.28794415179904" lon="11.637583744151057"><ele>321.0</ele><time>2026-04-12T11:03:32Z</time></trkpt><trkpt lat="43.288067416434224" lon="11.637498326079688"><ele>321.25</ele><time>2026-04-12T11:03:33Z</time></trkpt><trkpt lat="43.288190257648985" lon="11.637398618471478"><ele>321.5</ele><time>2026-04-12T11:03:34Z</time></trkpt><trkpt lat="43.28831908402496" lon="11.637294951106476"><ele>321.75</ele><time>2026-04-12T11:03:35Z</time></trkpt><trkpt lat="43.28843812270935" lon="11.637194931203982"><ele>322.0</ele><time>2026-04-12T11:03:36Z</time></trkpt><trkpt lat="43.288542830330954" lon="11.63711177773533"><ele>322.0</ele><time>2026-04-12T11:03:37Z</time></trkpt><trkpt lat="43.28864081892673" lon="11.63704831613051"><ele>322.0</ele><time>2026-04-12T11:03:38Z</time></trkpt><trkpt lat="43.2887521644237" lon="11.637006206549923"><ele>322.0</ele><time>2026-04-12T11:03:39Z</time></trkpt><trkpt lat="43.28887564507413" lon="11.636995123134135"><ele>322.0</ele><time>2026-04-12T11:03:40Z</time></trkpt><trkpt lat="43.28900316482342" lon="11.636994080351965"><ele>322.20000000000005</ele><time>2026-04-12T11:03:41Z</time></trkpt><trkpt lat="43.289121599349556" lon="11.637004213975038"><ele>322.4</ele><time>2026-04-12T11:03:42Z</time></trkpt><trkpt lat="43.28923573011219" lon="11.637017253577119"><ele>322.6</ele><time>2026-04-12T11:03:43Z</time></trkpt><trkpt lat="43.289340692220584" lon="11.637014308612583"><ele>322.79999999999995</ele><time>2026-04-12T11:03:44Z</time></trkpt><trkpt lat="43.28942356386843" lon="11.637000817440168"><ele>323.0</ele><time>2026-04-12T11:03:45Z</time></trkpt><trkpt lat="43.28948766619369" lon="11.636963428362439"><ele>323.0</ele><time>2026-04-12T11:03:46Z</time></trkpt><trkpt lat="43.28953615420965" lon="11.636895770343084"><ele>323.0</ele><time>2026-04-12T11:03:47Z</time></trkpt><trkpt lat="43.28960397739572" lon="11.636823124203016"><ele>323.0</ele><time>2026-04-12T11:03:48Z</time></trkpt><trkpt lat="43.28962991961851" lon="11.636671038496509"><ele>323.0</ele><time>2026-04-12T11:03:49Z</time></trkpt><trkpt lat="43.28966641200406" lon="11.636510694467644"><ele>323.0</ele><time>2026-04-12T11:03:50Z</time></trkpt><trkpt lat="43.28969772873958" lon="11.6363285375183"><ele>323.0</ele><time>2026-04-12T11:03:51Z</time></trkpt><trkpt lat="43.289731791478516" lon="11.636141462199161"><ele>323.0</ele><time>2026-04-12T11:03:52Z</time></trkpt><trkpt lat="43.28978389699701" lon="11.63599248614715"><ele>323.0</ele><time>2026-04-12T11:03:53Z</time></trkpt><trkpt lat="43.28984942576586" lon="11.635853169448614"><ele>323.0</ele><time>2026-04-12T11:03:54Z</time></trkpt><trkpt lat="43.28991980625676" lon="11.635714526862241"><ele>323.25</ele><time>2026-04-12T11:03:55Z</time></trkpt><trkpt lat="43.28998791728101" lon="11.635570970658259"><ele>323.5</ele><time>2026-04-12T11:03:56Z</time></trkpt><trkpt lat="43.290053086596636" lon="11.635422653130501"><ele>323.75</ele><time>2026-04-12T11:03:57Z</time></trkpt><trkpt lat="43.290121600743575" lon="11.63527683847704"><ele>324.0</ele><time>2026-04-12T11:03:58Z</time></trkpt><trkpt lat="43.29019266512377" lon="11.635129628378536"><ele>323.25</ele><time>2026-04-12T11:03:59Z</time></trkpt><trkpt lat="43.29026150769378" lon="11.634978606831044"><ele>322.5</ele><time>2026-04-12T11:04:00Z</time></trkpt><trkpt lat="43.290332182247205" lon="11.634825801193081"><ele>321.75</ele><time>2026-04-12T11:04:01Z</time></trkpt><trkpt lat="43.290405239618" lon="11.634674493408621"><ele>321.0</ele><time>2026-04-12T11:04:02Z</time></trkpt><trkpt lat="43.290479559809135" lon="11.634524887437776"><ele>320.75</ele><time>2026-04-12T11:04:03Z</time></trkpt><trkpt lat="43.29055925354546" lon="11.634377318979558"><ele>320.5</ele><time>2026-04-12T11:04:04Z</time></trkpt><trkpt lat="43.29064240453206" lon="11.634229250332238"><ele>320.25</ele><time>2026-04-12T11:04:05Z</time></trkpt><trkpt lat="43.29072254962728" lon="11.63407017109033"><ele>320.0</ele><time>2026-04-12T11:04:06.001Z</time></trkpt><trkpt lat="43.29079268760826" lon="11.633888344889362"><ele>320.0</ele><time>2026-04-12T11:04:07.001Z</time></trkpt><trkpt lat="43.29085403942335" lon="11.633693764962404"><ele>320.0</ele><time>2026-04-12T11:04:08.001Z</time></trkpt><trkpt lat="43.29090755353145" lon="11.633482864229128"><ele>320.0</ele><time>2026-04-12T11:04:09.001Z</time></trkpt><trkpt lat="43.290959089483074" lon="11.63326696326366"><ele>320.0</ele><time>2026-04-12T11:04:10.001Z</time></trkpt><trkpt lat="43.29101849311016" lon="11.633040987581966"><ele>320.0</ele><time>2026-04-12T11:04:11.001Z</time></trkpt><trkpt lat="43.29107670740149" lon="11.63282427848891"><ele>320.0</ele><time>2026-04-12T11:04:12.001Z</time></trkpt><trkpt lat="43.29113537156968" lon="11.632591589067903"><ele>320.0</ele><time>2026-04-12T11:04:13.001Z</time></trkpt><trkpt lat="43.29119087511906" lon="11.632364517214226"><ele>320.0</ele><time>2026-04-12T11:04:14.001Z</time></trkpt><trkpt lat="43.29125021729053" lon="11.63213246374169"><ele>320.0</ele><time>2026-04-12T11:04:15.001Z</time></trkpt><trkpt lat="43.291308295799396" lon="11.631918756279743"><ele>320.0</ele><time>2026-04-12T11:04:16.001Z</time></trkpt><trkpt lat="43.29135864620053" lon="11.631722945922574"><ele>320.0</ele><time>2026-04-12T11:04:17.001Z</time></trkpt><trkpt lat="43.291406936109524" lon="11.631538815284516"><ele>320.0</ele><time>2026-04-12T11:04:18.001Z</time></trkpt><trkpt lat="43.29144768739679" lon="11.631360359581706"><ele>320.0</ele><time>2026-04-12T11:04:19.001Z</time></trkpt><trkpt lat="43.291472418630754" lon="11.631184230714236"><ele>320.25</ele><time>2026-04-12T11:04:20.001Z</time></trkpt><trkpt lat="43.29149910551569" lon="11.630998680491619"><ele>320.5</ele><time>2026-04-12T11:04:21.001Z</time></trkpt><trkpt lat="43.291486897107724" lon="11.630805459716589"><ele>320.75</ele><time>2026-04-12T11:04:22.001Z</time></trkpt><trkpt lat="43.29143707728419" lon="11.63061483589496"><ele>321.0</ele><time>2026-04-12T11:04:23.001Z</time></trkpt><trkpt lat="43.291407693310674" lon="11.630422555279083"><ele>320.75</ele><time>2026-04-12T11:04:24.001Z</time></trkpt><trkpt lat="43.29138648270457" lon="11.630220941002875"><ele>320.5</ele><time>2026-04-12T11:04:25.001Z</time></trkpt><trkpt lat="43.29137435672092" lon="11.630015054912826"><ele>320.25</ele><time>2026-04-12T11:04:26.001Z</time></trkpt><trkpt lat="43.291371598927434" lon="11.629809810668569"><ele>320.0</ele><time>2026-04-12T11:04:27.001Z</time></trkpt><trkpt lat="43.29138058622474" lon="11.629622193936575"><ele>319.75</ele><time>2026-04-12T11:04:28.001Z</time></trkpt><trkpt lat="43.29139690214151" lon="11.629443280559991"><ele>319.5</ele><time>2026-04-12T11:04:29.001Z</time></trkpt><trkpt lat="43.29142046788472" lon="11.629276252364262"><ele>319.25</ele><time>2026-04-12T11:04:30.001Z</time></trkpt><trkpt lat="43.29145224084152" lon="11.629128553373118"><ele>319.0</ele><time>2026-04-12T11:04:31.001Z</time></trkpt><trkpt lat="43.29148747575476" lon="11.628999274160497"><ele>319.79999999999995</ele><time>2026-04-12T11:04:32.001Z</time></trkpt><trkpt lat="43.2915310459328" lon="11.628890528356225"><ele>320.59999999999997</ele><time>2026-04-12T11:04:33.001Z</time></trkpt><trkpt lat="43.29157784105366" lon="11.628793262343823"><ele>321.4</ele><time>2026-04-12T11:04:34.001Z</time></trkpt><trkpt lat="43.29163364772112" lon="11.628700265614585"><ele>322.2</ele><time>2026-04-12T11:04:35.001Z</time></trkpt><trkpt lat="43.291681153603896" lon="11.628586037308379"><ele>323.0</ele><time>2026-04-12T11:04:36.001Z</time></trkpt><trkpt lat="43.2917285770722" lon="11.628445769578091"><ele>323.0</ele><time>2026-04-12T11:04:37.001Z</time></trkpt><trkpt lat="43.29170883999563" lon="11.628262536689512"><ele>323.0</ele><time>2026-04-12T11:04:38.001Z</time></trkpt><trkpt lat="43.291681987068245" lon="11.62806423387542"><ele>323.0</ele><time>2026-04-12T11:04:39.001Z</time></trkpt><trkpt lat="43.29163912162623" lon="11.627860785635239"><ele>323.0</ele><time>2026-04-12T11:04:40.001Z</time></trkpt><trkpt lat="43.29158307275189" lon="11.627635873044971"><ele>323.0</ele><time>2026-04-12T11:04:41.001Z</time></trkpt><trkpt lat="43.291546719911096" lon="11.627385349064424"><ele>323.0</ele><time>2026-04-12T11:04:42.001Z</time></trkpt><trkpt lat="43.291478577609006" lon="11.627128352996122"><ele>323.0</ele><time>2026-04-12T11:04:43.001Z</time></trkpt><trkpt lat="43.29142361367803" lon="11.626861171929688"><ele>323.0</ele><time>2026-04-12T11:04:44.001Z</time></trkpt><trkpt lat="43.291381478926674" lon="11.626580773367596"><ele>323.0</ele><time>2026-04-12T11:04:45.001Z</time></trkpt><trkpt lat="43.29132369844159" lon="11.626300124630182"><ele>323.0</ele><time>2026-04-12T11:04:46.001Z</time></trkpt><trkpt lat="43.29126529353143" lon="11.626016902714577"><ele>322.0</ele><time>2026-04-12T11:04:47.001Z</time></trkpt><trkpt lat="43.291191189000784" lon="11.625734476669766"><ele>321.0</ele><time>2026-04-12T11:04:48.001Z</time></trkpt><trkpt lat="43.29113381183726" lon="11.625443968148133"><ele>320.0</ele><time>2026-04-12T11:04:49.001Z</time></trkpt><trkpt lat="43.29107466850224" lon="11.62514756679176"><ele>320.0</ele><time>2026-04-12T11:04:50.001Z</time></trkpt><trkpt lat="43.291017139902145" lon="11.624863480091847"><ele>320.0</ele><time>2026-04-12T11:04:51.001Z</time></trkpt><trkpt lat="43.29096549737052" lon="11.624610033570791"><ele>320.0</ele><time>2026-04-12T11:04:52.001Z</time></trkpt><trkpt lat="43.290924803975784" lon="11.624415625211896"><ele>320.0</ele><time>2026-04-12T11:04:53.001Z</time></trkpt><trkpt lat="43.290900227049306" lon="11.624244816204085"><ele>320.0</ele><time>2026-04-12T11:04:54.001Z</time></trkpt><trkpt lat="43.290892302480906" lon="11.624071791767744"><ele>320.0</ele><time>2026-04-12T11:04:55.001Z</time></trkpt><trkpt lat="43.29093349224324" lon="11.623893174241582"><ele>320.0</ele><time>2026-04-12T11:04:56.001Z</time></trkpt><trkpt lat="43.290974562280425" lon="11.623676064851608"><ele>319.6666666666667</ele><time>2026-04-12T11:04:57.001Z</time></trkpt><trkpt lat="43.29098365493478" lon="11.623426702328414"><ele>319.3333333333333</ele><time>2026-04-12T11:04:58.001Z</time></trkpt><trkpt lat="43.29099836114521" lon="11.623171144031822"><ele>319.0</ele><time>2026-04-12T11:04:59.001Z</time></trkpt><trkpt lat="43.29100103956241" lon="11.622908662265507"><ele>318.66666666666663</ele><time>2026-04-12T11:05:00.001Z</time></trkpt><trkpt lat="43.29100523252548" lon="11.622669459588398"><ele>318.3333333333333</ele><time>2026-04-12T11:05:01.001Z</time></trkpt><trkpt lat="43.29100924721282" lon="11.622443100011456"><ele>318.0</ele><time>2026-04-12T11:05:02.001Z</time></trkpt><trkpt lat="43.291014783084805" lon="11.622229933934449"><ele>318.0</ele><time>2026-04-12T11:05:03.001Z</time></trkpt><trkpt lat="43.29103687435347" lon="11.622012462360814"><ele>318.0</ele><time>2026-04-12T11:05:04.001Z</time></trkpt><trkpt lat="43.291046030618666" lon="11.621788310066004"><ele>318.0</ele><time>2026-04-12T11:05:05.001Z</time></trkpt><trkpt lat="43.29104542092129" lon="11.621565724642458"><ele>318.6666666666667</ele><time>2026-04-12T11:05:06Z</time></trkpt><trkpt lat="43.29102650324864" lon="11.621340760110382"><ele>319.33333333333337</ele><time>2026-04-12T11:05:07Z</time></trkpt><trkpt lat="43.2910092680182" lon="11.6211085241181"><ele>320.0</ele><time>2026-04-12T11:05:08Z</time></trkpt><trkpt lat="43.2909905216754" lon="11.620863489351548"><ele>320.33333333333337</ele><time>2026-04-12T11:05:09Z</time></trkpt><trkpt lat="43.29097305554109" lon="11.620616739187355"><ele>320.6666666666667</ele><time>2026-04-12T11:05:10Z</time></trkpt><trkpt lat="43.29096667069511" lon="11.620371048004836"><ele>321.0</ele><time>2026-04-12T11:05:11Z</time></trkpt><trkpt lat="43.29096852093477" lon="11.620134696535795"><ele>321.0</ele><time>2026-04-12T11:05:12Z</time></trkpt><trkpt lat="43.29099282759601" lon="11.619890919638097"><ele>321.0</ele><time>2026-04-12T11:05:13Z</time></trkpt><trkpt lat="43.29103410635534" lon="11.619641596256367"><ele>321.0</ele><time>2026-04-12T11:05:14Z</time></trkpt><trkpt lat="43.291084157027456" lon="11.61941008251637"><ele>319.6666666666667</ele><time>2026-04-12T11:05:15Z</time></trkpt><trkpt lat="43.29113830874527" lon="11.619199983863854"><ele>318.33333333333337</ele><time>2026-04-12T11:05:16Z</time></trkpt><trkpt lat="43.29120570730808" lon="11.619009789183012"><ele>317.0</ele><time>2026-04-12T11:05:17Z</time></trkpt><trkpt lat="43.29128484463681" lon="11.618815629319482"><ele>317.5</ele><time>2026-04-12T11:05:18Z</time></trkpt><trkpt lat="43.29136485154658" lon="11.618625681228217"><ele>318.0</ele><time>2026-04-12T11:05:19Z</time></trkpt><trkpt lat="43.29144146648917" lon="11.618453355799128"><ele>318.5</ele><time>2026-04-12T11:05:20Z</time></trkpt><trkpt lat="43.29150804194028" lon="11.618306735018756"><ele>319.0</ele><time>2026-04-12T11:05:21Z</time></trkpt><trkpt lat="43.29156176878904" lon="11.618189395862206"><ele>319.0</ele><time>2026-04-12T11:05:22Z</time></trkpt><trkpt lat="43.291614519454996" lon="11.618055602274648"><ele>319.0</ele><time>2026-04-12T11:05:23Z</time></trkpt><trkpt lat="43.29164165120214" lon="11.617881068732007"><ele>319.0</ele><time>2026-04-12T11:05:24Z</time></trkpt><trkpt lat="43.29162340629588" lon="11.617684809907526"><ele>319.0</ele><time>2026-04-12T11:05:25Z</time></trkpt><trkpt lat="43.291569236873514" lon="11.617511971176777"><ele>317.66666666666663</ele><time>2026-04-12T11:05:26Z</time></trkpt><trkpt lat="43.29152074100452" lon="11.617329078093334"><ele>316.3333333333333</ele><time>2026-04-12T11:05:27Z</time></trkpt><trkpt lat="43.291445841631344" lon="11.617105949830087"><ele>315.0</ele><time>2026-04-12T11:05:28Z</time></trkpt><trkpt lat="43.291373378848256" lon="11.616843879114624"><ele>314.6666666666667</ele><time>2026-04-12T11:05:29Z</time></trkpt><trkpt lat="43.2912968146996" lon="11.616578759921168"><ele>314.33333333333337</ele><time>2026-04-12T11:05:30Z</time></trkpt><trkpt lat="43.291222114387786" lon="11.616324502205279"><ele>314.0</ele><time>2026-04-12T11:05:31Z</time></trkpt><trkpt lat="43.291165717152744" lon="11.616038960234665"><ele>314.0</ele><time>2026-04-12T11:05:32Z</time></trkpt><trkpt lat="43.29113078191457" lon="11.615736939622993"><ele>314.0</ele><time>2026-04-12T11:05:33Z</time></trkpt><trkpt lat="43.29107847676646" lon="11.61544494015176"><ele>314.0</ele><time>2026-04-12T11:05:34Z</time></trkpt><trkpt lat="43.29101419586409" lon="11.615179410709311"><ele>313.33333333333337</ele><time>2026-04-12T11:05:35Z</time></trkpt><trkpt lat="43.2909689618044" lon="11.614930745174588"><ele>312.6666666666667</ele><time>2026-04-12T11:05:36Z</time></trkpt><trkpt lat="43.29092649919556" lon="11.614696981670098"><ele>312.0</ele><time>2026-04-12T11:05:37Z</time></trkpt><trkpt lat="43.29088584340242" lon="11.61448194013228"><ele>312.0</ele><time>2026-04-12T11:05:38Z</time></trkpt><trkpt lat="43.29085035172891" lon="11.614282042566975"><ele>312.0</ele><time>2026-04-12T11:05:39Z</time></trkpt><trkpt lat="43.29081854499521" lon="11.614099475408375"><ele>312.0</ele><time>2026-04-12T11:05:40Z</time></trkpt><trkpt lat="43.29078808109289" lon="11.613932283051142"><ele>312.0</ele><time>2026-04-12T11:05:41Z</time></trkpt><trkpt lat="43.290792491425634" lon="11.613765946289504"><ele>312.25</ele><time>2026-04-12T11:05:42Z</time></trkpt><trkpt lat="43.290783657507895" lon="11.61358648614696"><ele>312.5</ele><time>2026-04-12T11:05:43Z</time></trkpt><trkpt lat="43.29080214094607" lon="11.613389264483358"><ele>312.75</ele><time>2026-04-12T11:05:44Z</time></trkpt><trkpt lat="43.29082057499776" lon="11.613186025480227"><ele>313.0</ele><time>2026-04-12T11:05:45Z</time></trkpt><trkpt lat="43.290835464796686" lon="11.613001377568246"><ele>313.0</ele><time>2026-04-12T11:05:46Z</time></trkpt><trkpt lat="43.29086270605517" lon="11.612825398387736"><ele>313.0</ele><time>2026-04-12T11:05:47Z</time></trkpt><trkpt lat="43.29092644701369" lon="11.612674517587546"><ele>313.0</ele><time>2026-04-12T11:05:48Z</time></trkpt><trkpt lat="43.29098675284959" lon="11.612523199572774"><ele>313.0</ele><time>2026-04-12T11:05:49Z</time></trkpt><trkpt lat="43.29105243496739" lon="11.612359674089992"><ele>313.0</ele><time>2026-04-12T11:05:50Z</time></trkpt><trkpt lat="43.29113799935973" lon="11.612211049930186"><ele>313.0</ele><time>2026-04-12T11:05:51Z</time></trkpt><trkpt lat="43.29123069245475" lon="11.612060416305633"><ele>313.0</ele><time>2026-04-12T11:05:52Z</time></trkpt><trkpt lat="43.291335042981416" lon="11.611956827296504"><ele>313.0</ele><time>2026-04-12T11:05:53Z</time></trkpt><trkpt lat="43.291423751015934" lon="11.611866239472395"><ele>315.2</ele><time>2026-04-12T11:05:54Z</time></trkpt><trkpt lat="43.29150729580206" lon="11.61179057803967"><ele>317.4</ele><time>2026-04-12T11:05:55Z</time></trkpt><trkpt lat="43.29158349827731" lon="11.611708430273518"><ele>319.59999999999997</ele><time>2026-04-12T11:05:56Z</time></trkpt><trkpt lat="43.29164086536766" lon="11.611576738368063"><ele>321.8</ele><time>2026-04-12T11:05:57Z</time></trkpt><trkpt lat="43.29172192742387" lon="11.611463601935817"><ele>324.0</ele><time>2026-04-12T11:05:58Z</time></trkpt><trkpt lat="43.29179134904697" lon="11.61132605646996"><ele>324.0</ele><time>2026-04-12T11:05:59Z</time></trkpt><trkpt lat="43.291845397135226" lon="11.611161816588117"><ele>324.0</ele><time>2026-04-12T11:06:00Z</time></trkpt><trkpt lat="43.291918220564" lon="11.610999836454928"><ele>324.0</ele><time>2026-04-12T11:06:01Z</time></trkpt><trkpt lat="43.29198913829481" lon="11.610827460606677"><ele>324.0</ele><time>2026-04-12T11:06:02Z</time></trkpt><trkpt lat="43.292094962749864" lon="11.610673727766782"><ele>321.0</ele><time>2026-04-12T11:06:03Z</time></trkpt><trkpt lat="43.29221007885902" lon="11.610501150821097"><ele>318.0</ele><time>2026-04-12T11:06:04Z</time></trkpt><trkpt lat="43.29232905681399" lon="11.610343902354971"><ele>315.0</ele><time>2026-04-12T11:06:05Z</time></trkpt><trkpt lat="43.292437060588355" lon="11.610179216598956"><ele>315.0</ele><time>2026-04-12T11:06:06Z</time></trkpt><trkpt lat="43.292539859443764" lon="11.610048741622517"><ele>315.0</ele><time>2026-04-12T11:06:07Z</time></trkpt><trkpt lat="43.292632870348065" lon="11.609930510173054"><ele>315.0</ele><time>2026-04-12T11:06:08Z</time></trkpt><trkpt lat="43.292714034615805" lon="11.609825444823713"><ele>315.0</ele><time>2026-04-12T11:06:09Z</time></trkpt><trkpt lat="43.292784794485094" lon="11.60973640146162"><ele>315.0</ele><time>2026-04-12T11:06:10Z</time></trkpt><trkpt lat="43.29284713685462" lon="11.609672560760782"><ele>315.0</ele><time>2026-04-12T11:06:11Z</time></trkpt><trkpt lat="43.2929054418553" lon="11.609627506335318"><ele>315.0</ele><time>2026-04-12T11:06:12Z</time></trkpt><trkpt lat="43.29294411286432" lon="11.609547808141178"><ele>315.0</ele><time>2026-04-12T11:06:13Z</time></trkpt><trkpt lat="43.29308825790422" lon="11.609609808834335"><ele>315.0</ele><time>2026-04-12T11:06:14Z</time></trkpt><trkpt lat="43.29319338644526" lon="11.609557395337097"><ele>314.0</ele><time>2026-04-12T11:06:15Z</time></trkpt><trkpt lat="43.29328180955895" lon="11.60945383860499"><ele>313.0</ele><time>2026-04-12T11:06:16Z</time></trkpt><trkpt lat="43.293348809371146" lon="11.609273584080103"><ele>312.0</ele><time>2026-04-12T11:06:17Z</time></trkpt><trkpt lat="43.29341175622562" lon="11.609044454434185"><ele>311.0</ele><time>2026-04-12T11:06:18Z</time></trkpt><trkpt lat="43.29347894151672" lon="11.608789329973593"><ele>310.0</ele><time>2026-04-12T11:06:19Z</time></trkpt><trkpt lat="43.29355090611109" lon="11.608527950926588"><ele>309.0</ele><time>2026-04-12T11:06:20Z</time></trkpt><trkpt lat="43.29367152143685" lon="11.608291934445095"><ele>308.0</ele><time>2026-04-12T11:06:21Z</time></trkpt><trkpt lat="43.293817816761894" lon="11.608005123019963"><ele>307.0</ele><time>2026-04-12T11:06:22Z</time></trkpt><trkpt lat="43.293985679949216" lon="11.607726588800418"><ele>306.0</ele><time>2026-04-12T11:06:23Z</time></trkpt><trkpt lat="43.29413891633996" lon="11.607465286689887"><ele>306.0</ele><time>2026-04-12T11:06:24Z</time></trkpt><trkpt lat="43.294282714956516" lon="11.607224058779925"><ele>306.0</ele><time>2026-04-12T11:06:25Z</time></trkpt><trkpt lat="43.2944151071419" lon="11.607007647095704"><ele>306.0</ele><time>2026-04-12T11:06:26Z</time></trkpt><trkpt lat="43.294532309669414" lon="11.606809790156875"><ele>305.5</ele><time>2026-04-12T11:06:27Z</time></trkpt><trkpt lat="43.294639980944034" lon="11.606629702275018"><ele>305.0</ele><time>2026-04-12T11:06:28.001Z</time></trkpt><trkpt lat="43.29475399551561" lon="11.606512389782933"><ele>304.5</ele><time>2026-04-12T11:06:29.001Z</time></trkpt><trkpt lat="43.29486835184269" lon="11.606444819295552"><ele>304.0</ele><time>2026-04-12T11:06:30.001Z</time></trkpt><trkpt lat="43.29499887535362" lon="11.606413156700105"><ele>304.0</ele><time>2026-04-12T11:06:31.001Z</time></trkpt><trkpt lat="43.29512772572034" lon="11.606483503740044"><ele>304.0</ele><time>2026-04-12T11:06:32.001Z</time></trkpt><trkpt lat="43.29524670363523" lon="11.606583863952343"><ele>304.0</ele><time>2026-04-12T11:06:33.001Z</time></trkpt><trkpt lat="43.2953519641958" lon="11.606709584412043"><ele>304.0</ele><time>2026-04-12T11:06:34.001Z</time></trkpt><trkpt lat="43.295441740840815" lon="11.606816818834314"><ele>304.0</ele><time>2026-04-12T11:06:35.001Z</time></trkpt><trkpt lat="43.29555153341923" lon="11.60688449247122"><ele>304.0</ele><time>2026-04-12T11:06:36.001Z</time></trkpt><trkpt lat="43.29567198106883" lon="11.606919698364052"><ele>304.0</ele><time>2026-04-12T11:06:37.001Z</time></trkpt><trkpt lat="43.29578982962906" lon="11.606897739664113"><ele>304.0</ele><time>2026-04-12T11:06:38.001Z</time></trkpt><trkpt lat="43.29591475764453" lon="11.60681935102078"><ele>303.66666666666663</ele><time>2026-04-12T11:06:39.001Z</time></trkpt><trkpt lat="43.29603794623704" lon="11.606704648546648"><ele>303.3333333333333</ele><time>2026-04-12T11:06:40.001Z</time></trkpt><trkpt lat="43.2961706765761" lon="11.606554342521552"><ele>303.0</ele><time>2026-04-12T11:06:41.001Z</time></trkpt><trkpt lat="43.29632080106272" lon="11.60639372115018"><ele>302.6666666666667</ele><time>2026-04-12T11:06:42.001Z</time></trkpt><trkpt lat="43.29647969419456" lon="11.606218140084412"><ele>302.33333333333337</ele><time>2026-04-12T11:06:43.001Z</time></trkpt><trkpt lat="43.29664862062682" lon="11.6060388109125"><ele>302.0</ele><time>2026-04-12T11:06:44.001Z</time></trkpt><trkpt lat="43.29682465207912" lon="11.605856026419215"><ele>301.0</ele><time>2026-04-12T11:06:45.001Z</time></trkpt><trkpt lat="43.29700074798423" lon="11.605665906795899"><ele>300.0</ele><time>2026-04-12T11:06:46.001Z</time></trkpt><trkpt lat="43.29717118161006" lon="11.605457857140214"><ele>298.5</ele><time>2026-04-12T11:06:47.001Z</time></trkpt><trkpt lat="43.29733311251908" lon="11.605235327563832"><ele>297.0</ele><time>2026-04-12T11:06:48.001Z</time></trkpt><trkpt lat="43.29750124987675" lon="11.605013896657438"><ele>297.0</ele><time>2026-04-12T11:06:49.001Z</time></trkpt><trkpt lat="43.29768051969235" lon="11.604812849344226"><ele>297.0</ele><time>2026-04-12T11:06:50.001Z</time></trkpt><trkpt lat="43.297866023865474" lon="11.604616762719816"><ele>297.0</ele><time>2026-04-12T11:06:51.001Z</time></trkpt><trkpt lat="43.298051286258364" lon="11.604420382068811"><ele>297.0</ele><time>2026-04-12T11:06:52.001Z</time></trkpt><trkpt lat="43.2982274735382" lon="11.604234403487622"><ele>297.3333333333333</ele><time>2026-04-12T11:06:53.001Z</time></trkpt><trkpt lat="43.298378510794976" lon="11.604072509144116"><ele>297.66666666666663</ele><time>2026-04-12T11:06:54.001Z</time></trkpt><trkpt lat="43.29850110177439" lon="11.603935666507098"><ele>298.0</ele><time>2026-04-12T11:06:55.001Z</time></trkpt><trkpt lat="43.29859411079541" lon="11.603781879453742"><ele>296.66666666666663</ele><time>2026-04-12T11:06:56.001Z</time></trkpt><trkpt lat="43.2986581314946" lon="11.603569264595867"><ele>295.3333333333333</ele><time>2026-04-12T11:06:57.001Z</time></trkpt><trkpt lat="43.29870613610094" lon="11.603308738595535"><ele>294.0</ele><time>2026-04-12T11:06:58.001Z</time></trkpt><trkpt lat="43.29877052931145" lon="11.603093729048794"><ele>294.0</ele><time>2026-04-12T11:06:59.001Z</time></trkpt><trkpt lat="43.29886188711916" lon="11.602911973614665"><ele>294.0</ele><time>2026-04-12T11:07:00.001Z</time></trkpt><trkpt lat="43.299000189687526" lon="11.602740175830844"><ele>294.0</ele><time>2026-04-12T11:07:01.001Z</time></trkpt><trkpt lat="43.29917605578775" lon="11.602564471409194"><ele>293.6666666666667</ele><time>2026-04-12T11:07:02.001Z</time></trkpt><trkpt lat="43.299357465286704" lon="11.602389070754556"><ele>293.33333333333337</ele><time>2026-04-12T11:07:03.001Z</time></trkpt><trkpt lat="43.29954863578826" lon="11.602229459627441"><ele>293.0</ele><time>2026-04-12T11:07:04.001Z</time></trkpt><trkpt lat="43.29974341389777" lon="11.602088181322031"><ele>293.0</ele><time>2026-04-12T11:07:05.001Z</time></trkpt><trkpt lat="43.29993887429027" lon="11.601951284460082"><ele>293.0</ele><time>2026-04-12T11:07:06.001Z</time></trkpt><trkpt lat="43.30014243561507" lon="11.601807873231685"><ele>293.0</ele><time>2026-04-12T11:07:07.001Z</time></trkpt><trkpt lat="43.30035017750176" lon="11.601674651223929"><ele>293.0</ele><time>2026-04-12T11:07:08.001Z</time></trkpt><trkpt lat="43.30053729899298" lon="11.601563729807781"><ele>293.0</ele><time>2026-04-12T11:07:09.001Z</time></trkpt><trkpt lat="43.30070621111468" lon="11.601471717386431"><ele>293.0</ele><time>2026-04-12T11:07:10.001Z</time></trkpt><trkpt lat="43.3008636561129" lon="11.601396472203811"><ele>293.0</ele><time>2026-04-12T11:07:11.001Z</time></trkpt><trkpt lat="43.30100802452037" lon="11.60134433120779"><ele>293.0</ele><time>2026-04-12T11:07:12Z</time></trkpt><trkpt lat="43.30112829096341" lon="11.601322959375794"><ele>293.0</ele><time>2026-04-12T11:07:13Z</time></trkpt><trkpt lat="43.30124188674779" lon="11.601326363893847"><ele>293.0</ele><time>2026-04-12T11:07:14Z</time></trkpt><trkpt lat="43.30135992300884" lon="11.60133622007799"><ele>293.25</ele><time>2026-04-12T11:07:15Z</time></trkpt><trkpt lat="43.30148790629402" lon="11.601342715485755"><ele>293.5</ele><time>2026-04-12T11:07:16Z</time></trkpt><trkpt lat="43.301623542421964" lon="11.601335100647018"><ele>293.75</ele><time>2026-04-12T11:07:17Z</time></trkpt><trkpt lat="43.30176237648922" lon="11.601302079619689"><ele>294.0</ele><time>2026-04-12T11:07:18Z</time></trkpt><trkpt lat="43.30189462605198" lon="11.601246063159723"><ele>294.0</ele><time>2026-04-12T11:07:19Z</time></trkpt><trkpt lat="43.30201905599201" lon="11.601177286176007"><ele>294.0</ele><time>2026-04-12T11:07:20Z</time></trkpt><trkpt lat="43.30214656489504" lon="11.601109812411421"><ele>294.0</ele><time>2026-04-12T11:07:21Z</time></trkpt><trkpt lat="43.30228447628023" lon="11.601080312594691"><ele>294.0</ele><time>2026-04-12T11:07:22Z</time></trkpt><trkpt lat="43.30241916708544" lon="11.601015128655522"><ele>293.5</ele><time>2026-04-12T11:07:23Z</time></trkpt><trkpt lat="43.302558845874444" lon="11.60098107052488"><ele>293.0</ele><time>2026-04-12T11:07:24Z</time></trkpt><trkpt lat="43.302694713392064" lon="11.600958358764537"><ele>292.5</ele><time>2026-04-12T11:07:25Z</time></trkpt><trkpt lat="43.302834872408" lon="11.600941749157963"><ele>292.0</ele><time>2026-04-12T11:07:26Z</time></trkpt><trkpt lat="43.30297279437024" lon="11.600921063220209"><ele>292.25</ele><time>2026-04-12T11:07:27Z</time></trkpt><trkpt lat="43.30311227523502" lon="11.600890790428389"><ele>292.5</ele><time>2026-04-12T11:07:28Z</time></trkpt><trkpt lat="43.30324784138069" lon="11.60085512320735"><ele>292.75</ele><time>2026-04-12T11:07:29Z</time></trkpt><trkpt lat="43.303374748119445" lon="11.600818017121343"><ele>293.0</ele><time>2026-04-12T11:07:30Z</time></trkpt><trkpt lat="43.30348206851611" lon="11.600784502320867"><ele>293.0</ele><time>2026-04-12T11:07:31Z</time></trkpt><trkpt lat="43.30357298134242" lon="11.600742487887054"><ele>293.0</ele><time>2026-04-12T11:07:32Z</time></trkpt><trkpt lat="43.303658023161496" lon="11.600675879233279"><ele>293.0</ele><time>2026-04-12T11:07:33Z</time></trkpt><trkpt lat="43.30373123298175" lon="11.600578524408743"><ele>293.0</ele><time>2026-04-12T11:07:34Z</time></trkpt><trkpt lat="43.30380224448782" lon="11.60045977379511"><ele>293.0</ele><time>2026-04-12T11:07:35Z</time></trkpt><trkpt lat="43.303861464102724" lon="11.600334084834962"><ele>292.0</ele><time>2026-04-12T11:07:36Z</time></trkpt><trkpt lat="43.30393445127197" lon="11.600235554912427"><ele>291.0</ele><time>2026-04-12T11:07:37Z</time></trkpt><trkpt lat="43.304014561689634" lon="11.600136496167877"><ele>290.0</ele><time>2026-04-12T11:07:38Z</time></trkpt><trkpt lat="43.304090935808574" lon="11.600042228883687"><ele>289.0</ele><time>2026-04-12T11:07:39Z</time></trkpt><trkpt lat="43.304150406117586" lon="11.599932721606903"><ele>288.0</ele><time>2026-04-12T11:07:40Z</time></trkpt><trkpt lat="43.30421389558269" lon="11.599851746714847"><ele>288.0</ele><time>2026-04-12T11:07:41Z</time></trkpt><trkpt lat="43.30426862080153" lon="11.599782533947675"><ele>288.0</ele><time>2026-04-12T11:07:42Z</time></trkpt><trkpt lat="43.30431986034451" lon="11.599730988045124"><ele>288.0</ele><time>2026-04-12T11:07:43Z</time></trkpt><trkpt lat="43.30443374319034" lon="11.59967995763106"><ele>288.0</ele><time>2026-04-12T11:07:45Z</time></trkpt><trkpt lat="43.30455705033716" lon="11.599681271669727"><ele>288.0</ele><time>2026-04-12T11:07:47Z</time></trkpt><trkpt lat="43.304619501412716" lon="11.59969574361659"><ele>288.0</ele><time>2026-04-12T11:07:48Z</time></trkpt><trkpt lat="43.304702722184125" lon="11.599717433563677"><ele>288.0</ele><time>2026-04-12T11:07:49Z</time></trkpt><trkpt lat="43.304803180520224" lon="11.59975462329775"><ele>288.0</ele><time>2026-04-12T11:07:50Z</time></trkpt><trkpt lat="43.30491165663807" lon="11.599796082453187"><ele>288.0</ele><time>2026-04-12T11:07:51Z</time></trkpt><trkpt lat="43.305025088109254" lon="11.599846510178892"><ele>288.0</ele><time>2026-04-12T11:07:52Z</time></trkpt><trkpt lat="43.305145796098145" lon="11.599899810310959"><ele>288.0</ele><time>2026-04-12T11:07:53Z</time></trkpt><trkpt lat="43.30527226931063" lon="11.59994652704576"><ele>288.0</ele><time>2026-04-12T11:07:54Z</time></trkpt><trkpt lat="43.30540272660105" lon="11.599982921904628"><ele>288.0</ele><time>2026-04-12T11:07:55Z</time></trkpt><trkpt lat="43.30553489498187" lon="11.600021839798508"><ele>288.0</ele><time>2026-04-12T11:07:56Z</time></trkpt><trkpt lat="43.30566952235948" lon="11.600085309810616"><ele>287.75</ele><time>2026-04-12T11:07:57Z</time></trkpt><trkpt lat="43.30580206248574" lon="11.600134076300108"><ele>287.5</ele><time>2026-04-12T11:07:58Z</time></trkpt><trkpt lat="43.30591688429892" lon="11.600180110289578"><ele>287.25</ele><time>2026-04-12T11:07:59Z</time></trkpt><trkpt lat="43.30604981755188" lon="11.600211042386205"><ele>287.0</ele><time>2026-04-12T11:08:00Z</time></trkpt><trkpt lat="43.3061518892168" lon="11.60025860637844"><ele>287.0</ele><time>2026-04-12T11:08:01Z</time></trkpt><trkpt lat="43.30624018128939" lon="11.600317378076097"><ele>287.0</ele><time>2026-04-12T11:08:02Z</time></trkpt><trkpt lat="43.30630709369039" lon="11.600389711621757"><ele>287.0</ele><time>2026-04-12T11:08:03Z</time></trkpt><trkpt lat="43.30637618119127" lon="11.600474847201616"><ele>287.0</ele><time>2026-04-12T11:08:04Z</time></trkpt><trkpt lat="43.30644203897619" lon="11.600579650975833"><ele>287.0</ele><time>2026-04-12T11:08:05Z</time></trkpt><trkpt lat="43.30651127785465" lon="11.600697267722891"><ele>286.5</ele><time>2026-04-12T11:08:06Z</time></trkpt><trkpt lat="43.306589073612386" lon="11.600809509308444"><ele>286.0</ele><time>2026-04-12T11:08:07Z</time></trkpt><trkpt lat="43.30667225061625" lon="11.600921410096374"><ele>285.5</ele><time>2026-04-12T11:08:08Z</time></trkpt><trkpt lat="43.3067569040993" lon="11.601031307784492"><ele>285.0</ele><time>2026-04-12T11:08:09Z</time></trkpt><trkpt lat="43.30683369847263" lon="11.601146190876419"><ele>286.2</ele><time>2026-04-12T11:08:10Z</time></trkpt><trkpt lat="43.30691072723132" lon="11.601254687356885"><ele>287.4</ele><time>2026-04-12T11:08:11Z</time></trkpt><trkpt lat="43.30700077920237" lon="11.60133328685016"><ele>288.6</ele><time>2026-04-12T11:08:12Z</time></trkpt><trkpt lat="43.3071014557498" lon="11.60138734176827"><ele>289.8</ele><time>2026-04-12T11:08:13Z</time></trkpt><trkpt lat="43.30720862995735" lon="11.60144251716271"><ele>291.0</ele><time>2026-04-12T11:08:14Z</time></trkpt><trkpt lat="43.30731879417434" lon="11.601490672498809"><ele>287.75</ele><time>2026-04-12T11:08:15Z</time></trkpt><trkpt lat="43.30743724053082" lon="11.601533293869569"><ele>284.5</ele><time>2026-04-12T11:08:16Z</time></trkpt><trkpt lat="43.30755045334574" lon="11.601593509033025"><ele>281.25</ele><time>2026-04-12T11:08:17Z</time></trkpt><trkpt lat="43.307661338975514" lon="11.601665457189027"><ele>278.0</ele><time>2026-04-12T11:08:18Z</time></trkpt><trkpt lat="43.307760960019664" lon="11.601724236053576"><ele>278.0</ele><time>2026-04-12T11:08:19Z</time></trkpt><trkpt lat="43.30785634972425" lon="11.601774476079374"><ele>278.0</ele><time>2026-04-12T11:08:20Z</time></trkpt><trkpt lat="43.307938275479714" lon="11.60179789436547"><ele>278.0</ele><time>2026-04-12T11:08:21Z</time></trkpt><trkpt lat="43.308024131653" lon="11.601785006079478"><ele>278.0</ele><time>2026-04-12T11:08:22Z</time></trkpt><trkpt lat="43.30811585312963" lon="11.601736277547529"><ele>278.0</ele><time>2026-04-12T11:08:23Z</time></trkpt><trkpt lat="43.30821259934588" lon="11.601666065524455"><ele>276.8</ele><time>2026-04-12T11:08:24Z</time></trkpt><trkpt lat="43.30832320098541" lon="11.601622758581966"><ele>275.6</ele><time>2026-04-12T11:08:25Z</time></trkpt><trkpt lat="43.30842236764578" lon="11.601559744333882"><ele>274.4</ele><time>2026-04-12T11:08:26Z</time></trkpt><trkpt lat="43.30849955128227" lon="11.601520550737265"><ele>273.2</ele><time>2026-04-12T11:08:27Z</time></trkpt><trkpt lat="43.308558297880595" lon="11.601462393909506"><ele>272.0</ele><time>2026-04-12T11:08:28Z</time></trkpt><trkpt lat="43.30860794944475" lon="11.601376654860422"><ele>272.0</ele><time>2026-04-12T11:08:29Z</time></trkpt><trkpt lat="43.308644456904226" lon="11.601265626861858"><ele>272.0</ele><time>2026-04-12T11:08:30Z</time></trkpt><trkpt lat="43.30867008911853" lon="11.601143686295321"><ele>272.0</ele><time>2026-04-12T11:08:31Z</time></trkpt><trkpt lat="43.30869724698662" lon="11.601010510308054"><ele>272.0</ele><time>2026-04-12T11:08:32Z</time></trkpt><trkpt lat="43.30872437091187" lon="11.60087576317632"><ele>272.0</ele><time>2026-04-12T11:08:33Z</time></trkpt><trkpt lat="43.30875057547294" lon="11.600751430903209"><ele>272.0</ele><time>2026-04-12T11:08:34Z</time></trkpt><trkpt lat="43.30879089122963" lon="11.60064651328826"><ele>272.0</ele><time>2026-04-12T11:08:35Z</time></trkpt><trkpt lat="43.308803699266385" lon="11.600524925442866"><ele>272.0</ele><time>2026-04-12T11:08:36Z</time></trkpt><trkpt lat="43.30884159539704" lon="11.600403923138682"><ele>272.0</ele><time>2026-04-12T11:08:37Z</time></trkpt><trkpt lat="43.308876545871314" lon="11.600281383705253"><ele>272.0</ele><time>2026-04-12T11:08:38.001Z</time></trkpt><trkpt lat="43.308928415428795" lon="11.600178343814074"><ele>272.33333333333337</ele><time>2026-04-12T11:08:39.001Z</time></trkpt><trkpt lat="43.308946898780704" lon="11.600066685810376"><ele>272.6666666666667</ele><time>2026-04-12T11:08:40.001Z</time></trkpt><trkpt lat="43.308993642490975" lon="11.599986586355296"><ele>273.0</ele><time>2026-04-12T11:08:41.001Z</time></trkpt><trkpt lat="43.30905222764575" lon="11.59993283607232"><ele>273.3333333333333</ele><time>2026-04-12T11:08:42.001Z</time></trkpt><trkpt lat="43.30912740363955" lon="11.599948015911272"><ele>273.66666666666663</ele><time>2026-04-12T11:08:43.001Z</time></trkpt><trkpt lat="43.30919900069195" lon="11.599915897903752"><ele>274.0</ele><time>2026-04-12T11:08:44.001Z</time></trkpt><trkpt lat="43.30926873034334" lon="11.59991006460069"><ele>274.0</ele><time>2026-04-12T11:08:45.001Z</time></trkpt><trkpt lat="43.309332740377954" lon="11.599877942948423"><ele>274.0</ele><time>2026-04-12T11:08:46.001Z</time></trkpt><trkpt lat="43.30938534752836" lon="11.599820670928953"><ele>274.0</ele><time>2026-04-12T11:08:47.001Z</time></trkpt><trkpt lat="43.30943392139488" lon="11.599710120720529"><ele>274.0</ele><time>2026-04-12T11:08:49.001Z</time></trkpt><trkpt lat="43.30947023329408" lon="11.599637472090311"><ele>274.0</ele><time>2026-04-12T11:08:51.001Z</time></trkpt><trkpt lat="43.3095730238925" lon="11.599571894354707"><ele>274.0</ele><time>2026-04-12T11:08:53.001Z</time></trkpt><trkpt lat="43.309690346665754" lon="11.599622801143862"><ele>273.8333333333333</ele><time>2026-04-12T11:08:55.001Z</time></trkpt><trkpt lat="43.30980074531032" lon="11.59954894684848"><ele>273.66666666666663</ele><time>2026-04-12T11:08:57.001Z</time></trkpt><trkpt lat="43.30983340326505" lon="11.59946595719592"><ele>273.5</ele><time>2026-04-12T11:08:58.001Z</time></trkpt><trkpt lat="43.30984157337095" lon="11.599371144048721"><ele>273.3333333333333</ele><time>2026-04-12T11:08:59.001Z</time></trkpt><trkpt lat="43.309873843164404" lon="11.599289937758535"><ele>273.1666666666667</ele><time>2026-04-12T11:09:00.001Z</time></trkpt><trkpt lat="43.30993329474599" lon="11.599218727454726"><ele>273.0</ele><time>2026-04-12T11:09:01.001Z</time></trkpt><trkpt lat="43.309984152679625" lon="11.599144368917463"><ele>274.3333333333333</ele><time>2026-04-12T11:09:02.001Z</time></trkpt><trkpt lat="43.31004053748693" lon="11.59906924746273"><ele>275.6666666666667</ele><time>2026-04-12T11:09:03.001Z</time></trkpt><trkpt lat="43.310105828908405" lon="11.598988404519176"><ele>277.0</ele><time>2026-04-12T11:09:04.001Z</time></trkpt><trkpt lat="43.310171933087766" lon="11.59892079051987"><ele>278.33333333333337</ele><time>2026-04-12T11:09:05.001Z</time></trkpt><trkpt lat="43.310231359049006" lon="11.598854336979686"><ele>279.6666666666667</ele><time>2026-04-12T11:09:06.001Z</time></trkpt><trkpt lat="43.310270905355345" lon="11.5987534656313"><ele>281.0</ele><time>2026-04-12T11:09:07.001Z</time></trkpt><trkpt lat="43.310329094321254" lon="11.598644654972425"><ele>281.0</ele><time>2026-04-12T11:09:08.001Z</time></trkpt><trkpt lat="43.31036565549089" lon="11.598505470911968"><ele>281.0</ele><time>2026-04-12T11:09:09.001Z</time></trkpt><trkpt lat="43.31038624273522" lon="11.598357570969894"><ele>281.0</ele><time>2026-04-12T11:09:10.001Z</time></trkpt><trkpt lat="43.31038596648143" lon="11.598215378410272"><ele>281.0</ele><time>2026-04-12T11:09:11.001Z</time></trkpt><trkpt lat="43.31035305540715" lon="11.598074972835581"><ele>281.0</ele><time>2026-04-12T11:09:12.001Z</time></trkpt><trkpt lat="43.31034210713093" lon="11.59792209211328"><ele>281.0</ele><time>2026-04-12T11:09:13.001Z</time></trkpt><trkpt lat="43.31031161465898" lon="11.597778014874828"><ele>281.0</ele><time>2026-04-12T11:09:14.001Z</time></trkpt><trkpt lat="43.31027590889769" lon="11.597639085178491"><ele>281.0</ele><time>2026-04-12T11:09:15.001Z</time></trkpt><trkpt lat="43.31022505284706" lon="11.597516947961871"><ele>281.0</ele><time>2026-04-12T11:09:16.001Z</time></trkpt><trkpt lat="43.310174539299815" lon="11.597420262915872"><ele>281.0</ele><time>2026-04-12T11:09:17.001Z</time></trkpt><trkpt lat="43.31012955539368" lon="11.597335201040266"><ele>281.0</ele><time>2026-04-12T11:09:17.999Z</time></trkpt><trkpt lat="43.31009312774419" lon="11.597255265241607"><ele>281.0</ele><time>2026-04-12T11:09:18.999Z</time></trkpt><trkpt lat="43.31006016453307" lon="11.597138696831822"><ele>281.0</ele><time>2026-04-12T11:09:21.999Z</time></trkpt><trkpt lat="43.310131783192425" lon="11.597028869723118"><ele>281.0</ele><time>2026-04-12T11:09:25Z</time></trkpt><trkpt lat="43.31020752226913" lon="11.596926063566427"><ele>281.0</ele><time>2026-04-12T11:09:26.999Z</time></trkpt><trkpt lat="43.310269840392515" lon="11.596882241597985"><ele>281.0</ele><time>2026-04-12T11:09:27.999Z</time></trkpt><trkpt lat="43.31031308973768" lon="11.596816570559696"><ele>280.1666666666667</ele><time>2026-04-12T11:09:28.999Z</time></trkpt><trkpt lat="43.3103577310839" lon="11.596734438005587"><ele>279.33333333333337</ele><time>2026-04-12T11:09:29.999Z</time></trkpt><trkpt lat="43.310386449867984" lon="11.596634771830546"><ele>278.5</ele><time>2026-04-12T11:09:30.999Z</time></trkpt><trkpt lat="43.310399630179525" lon="11.596526895281029"><ele>277.6666666666667</ele><time>2026-04-12T11:09:31.999Z</time></trkpt><trkpt lat="43.31040135112979" lon="11.596413579359073"><ele>276.8333333333333</ele><time>2026-04-12T11:09:32.999Z</time></trkpt><trkpt lat="43.31038434629913" lon="11.596275788823966"><ele>276.0</ele><time>2026-04-12T11:09:33.999Z</time></trkpt><trkpt lat="43.310361018481096" lon="11.596141925766885"><ele>275.0</ele><time>2026-04-12T11:09:34.999Z</time></trkpt><trkpt lat="43.31033805861555" lon="11.596006519981046"><ele>274.0</ele><time>2026-04-12T11:09:35.999Z</time></trkpt><trkpt lat="43.31031296214428" lon="11.595858513690603"><ele>273.0</ele><time>2026-04-12T11:09:36.999Z</time></trkpt><trkpt lat="43.31028575527303" lon="11.595698061198654"><ele>272.0</ele><time>2026-04-12T11:09:37.999Z</time></trkpt><trkpt lat="43.31025869612282" lon="11.595533002501131"><ele>272.0</ele><time>2026-04-12T11:09:38.999Z</time></trkpt><trkpt lat="43.31023383484653" lon="11.595363494782315"><ele>272.0</ele><time>2026-04-12T11:09:39.999Z</time></trkpt><trkpt lat="43.31021109282982" lon="11.595201468356473"><ele>272.0</ele><time>2026-04-12T11:09:40.999Z</time></trkpt><trkpt lat="43.310192105955544" lon="11.595066195079921"><ele>272.0</ele><time>2026-04-12T11:09:41.999Z</time></trkpt><trkpt lat="43.31015946382344" lon="11.594966787593865"><ele>272.0</ele><time>2026-04-12T11:09:42.999Z</time></trkpt><trkpt lat="43.31014005402171" lon="11.594868037667837"><ele>270.6</ele><time>2026-04-12T11:09:43.999Z</time></trkpt><trkpt lat="43.31011610090437" lon="11.594760927863279"><ele>269.2</ele><time>2026-04-12T11:09:44.999Z</time></trkpt><trkpt lat="43.31004894446793" lon="11.59465833448709"><ele>267.8</ele><time>2026-04-12T11:09:45.999Z</time></trkpt><trkpt lat="43.30997122207915" lon="11.594564404309141"><ele>266.4</ele><time>2026-04-12T11:09:46.999Z</time></trkpt><trkpt lat="43.30989140499651" lon="11.594469413324354"><ele>265.0</ele><time>2026-04-12T11:09:47.999Z</time></trkpt><trkpt lat="43.309809331184" lon="11.594373732578795"><ele>264.8</ele><time>2026-04-12T11:09:48.999Z</time></trkpt><trkpt lat="43.3097258680223" lon="11.594271999101306"><ele>264.6</ele><time>2026-04-12T11:09:50Z</time></trkpt><trkpt lat="43.30965036535656" lon="11.59417166538007"><ele>264.4</ele><time>2026-04-12T11:09:51Z</time></trkpt><trkpt lat="43.309592106486896" lon="11.594063723280481"><ele>264.2</ele><time>2026-04-12T11:09:52Z</time></trkpt><trkpt lat="43.30956702850315" lon="11.593945320414605"><ele>264.0</ele><time>2026-04-12T11:09:53Z</time></trkpt><trkpt lat="43.30954249138977" lon="11.593817609318503"><ele>264.0</ele><time>2026-04-12T11:09:54Z</time></trkpt><trkpt lat="43.309513100390205" lon="11.593693520225921"><ele>264.0</ele><time>2026-04-12T11:09:55Z</time></trkpt><trkpt lat="43.309479325902906" lon="11.593590964460514"><ele>264.0</ele><time>2026-04-12T11:09:56Z</time></trkpt><trkpt lat="43.30942735432721" lon="11.593484994137652"><ele>264.0</ele><time>2026-04-12T11:09:57Z</time></trkpt><trkpt lat="43.30938969056214" lon="11.593371237796163"><ele>264.0</ele><time>2026-04-12T11:09:58Z</time></trkpt><trkpt lat="43.30933936069671" lon="11.593267254309513"><ele>262.8333333333333</ele><time>2026-04-12T11:09:59Z</time></trkpt><trkpt lat="43.3092887369012" lon="11.593169318698887"><ele>261.6666666666667</ele><time>2026-04-12T11:10:00Z</time></trkpt><trkpt lat="43.309241392081496" lon="11.593081769612974"><ele>260.5</ele><time>2026-04-12T11:10:01Z</time></trkpt><trkpt lat="43.309179235493055" lon="11.592996783202103"><ele>259.33333333333337</ele><time>2026-04-12T11:10:02Z</time></trkpt><trkpt lat="43.30910756788878" lon="11.59292925322451"><ele>258.1666666666667</ele><time>2026-04-12T11:10:03Z</time></trkpt><trkpt lat="43.30901637464688" lon="11.592889385350597"><ele>257.0</ele><time>2026-04-12T11:10:04Z</time></trkpt><trkpt lat="43.308918433887335" lon="11.592838145534767"><ele>255.25</ele><time>2026-04-12T11:10:05Z</time></trkpt><trkpt lat="43.308812278073546" lon="11.59278834654396"><ele>253.5</ele><time>2026-04-12T11:10:06Z</time></trkpt><trkpt lat="43.30870718981576" lon="11.592714051090223"><ele>251.75</ele><time>2026-04-12T11:10:07Z</time></trkpt><trkpt lat="43.308600279806136" lon="11.592625778138537"><ele>250.0</ele><time>2026-04-12T11:10:08Z</time></trkpt><trkpt lat="43.308486715056034" lon="11.592536881318473"><ele>250.0</ele><time>2026-04-12T11:10:09Z</time></trkpt><trkpt lat="43.308371539013926" lon="11.592451488996161"><ele>250.0</ele><time>2026-04-12T11:10:10Z</time></trkpt><trkpt lat="43.30824730351209" lon="11.592366804036656"><ele>250.0</ele><time>2026-04-12T11:10:11Z</time></trkpt><trkpt lat="43.3081258932826" lon="11.592291559782566"><ele>250.0</ele><time>2026-04-12T11:10:12Z</time></trkpt><trkpt lat="43.308004750793856" lon="11.592218933228995"><ele>251.0</ele><time>2026-04-12T11:10:13Z</time></trkpt><trkpt lat="43.30790028897976" lon="11.592150984424574"><ele>252.0</ele><time>2026-04-12T11:10:14Z</time></trkpt><trkpt lat="43.307806203891886" lon="11.59206253881849"><ele>253.0</ele><time>2026-04-12T11:10:15Z</time></trkpt><trkpt lat="43.30771412205434" lon="11.591957912771752"><ele>254.0</ele><time>2026-04-12T11:10:16Z</time></trkpt><trkpt lat="43.30761792897324" lon="11.591835735843805"><ele>252.0</ele><time>2026-04-12T11:10:17Z</time></trkpt><trkpt lat="43.30753096302216" lon="11.591711795206766"><ele>250.0</ele><time>2026-04-12T11:10:18Z</time></trkpt><trkpt lat="43.307460707632565" lon="11.591586618364293"><ele>248.0</ele><time>2026-04-12T11:10:19Z</time></trkpt><trkpt lat="43.30739408929129" lon="11.591453333842233"><ele>246.0</ele><time>2026-04-12T11:10:20Z</time></trkpt><trkpt lat="43.307320981374524" lon="11.591329973902289"><ele>246.0</ele><time>2026-04-12T11:10:21Z</time></trkpt><trkpt lat="43.30727704078075" lon="11.591196223966632"><ele>246.00000000000003</ele><time>2026-04-12T11:10:22Z</time></trkpt><trkpt lat="43.307228183659454" lon="11.591077029322946"><ele>246.00000000000003</ele><time>2026-04-12T11:10:23Z</time></trkpt><trkpt lat="43.30718114392787" lon="11.590946520638312"><ele>246.0</ele><time>2026-04-12T11:10:24Z</time></trkpt><trkpt lat="43.30713423568036" lon="11.590807706251711"><ele>246.0</ele><time>2026-04-12T11:10:25Z</time></trkpt><trkpt lat="43.30708833705769" lon="11.59067658549806"><ele>245.5</ele><time>2026-04-12T11:10:26Z</time></trkpt><trkpt lat="43.30703456783936" lon="11.590566888635053"><ele>245.0</ele><time>2026-04-12T11:10:27Z</time></trkpt><trkpt lat="43.3069806280243" lon="11.590458589328335"><ele>244.5</ele><time>2026-04-12T11:10:28Z</time></trkpt><trkpt lat="43.30691868961048" lon="11.59038087969403"><ele>244.0</ele><time>2026-04-12T11:10:29Z</time></trkpt><trkpt lat="43.30687637726381" lon="11.590286891595909"><ele>243.5</ele><time>2026-04-12T11:10:30Z</time></trkpt><trkpt lat="43.30682904234558" lon="11.590203822768608"><ele>243.0</ele><time>2026-04-12T11:10:31Z</time></trkpt><trkpt lat="43.306790803790875" lon="11.590122583589576"><ele>241.66666666666666</ele><time>2026-04-12T11:10:32Z</time></trkpt><trkpt lat="43.30673896765392" lon="11.590005359924337"><ele>240.33333333333331</ele><time>2026-04-12T11:10:34Z</time></trkpt><trkpt lat="43.30669230359878" lon="11.589878215280926"><ele>239.0</ele><time>2026-04-12T11:10:36Z</time></trkpt><trkpt lat="43.306717999890154" lon="11.589798789324753"><ele>237.66666666666666</ele><time>2026-04-12T11:10:37Z</time></trkpt><trkpt lat="43.306785559429855" lon="11.589757092279413"><ele>236.33333333333331</ele><time>2026-04-12T11:10:38Z</time></trkpt><trkpt lat="43.306836555612364" lon="11.589673263233244"><ele>235.0</ele><time>2026-04-12T11:10:39Z</time></trkpt><trkpt lat="43.30690747038015" lon="11.589603878349791"><ele>234.99999999999997</ele><time>2026-04-12T11:10:40Z</time></trkpt><trkpt lat="43.30697043032497" lon="11.589518797485145"><ele>235.0</ele><time>2026-04-12T11:10:41Z</time></trkpt><trkpt lat="43.307019286959424" lon="11.589435513903716"><ele>235.0</ele><time>2026-04-12T11:10:42Z</time></trkpt><trkpt lat="43.30707319285534" lon="11.589365125900864"><ele>235.0</ele><time>2026-04-12T11:10:43Z</time></trkpt><trkpt lat="43.30712589309755" lon="11.58928120317299"><ele>234.99999999999997</ele><time>2026-04-12T11:10:44Z</time></trkpt><trkpt lat="43.30717727756435" lon="11.589196540295404"><ele>235.0</ele><time>2026-04-12T11:10:45Z</time></trkpt><trkpt lat="43.30720906895076" lon="11.58904030175105"><ele>234.33333333333331</ele><time>2026-04-12T11:10:47Z</time></trkpt><trkpt lat="43.30715032592957" lon="11.588892891189884"><ele>233.66666666666666</ele><time>2026-04-12T11:10:49Z</time></trkpt><trkpt lat="43.307103000416504" lon="11.588815722657973"><ele>233.0</ele><time>2026-04-12T11:10:50Z</time></trkpt><trkpt lat="43.30703633308482" lon="11.588758612741277"><ele>232.33333333333331</ele><time>2026-04-12T11:10:51Z</time></trkpt><trkpt lat="43.306988227328794" lon="11.58870148772622"><ele>231.66666666666666</ele><time>2026-04-12T11:10:52Z</time></trkpt><trkpt lat="43.30693886869" lon="11.588605685370187"><ele>231.0</ele><time>2026-04-12T11:10:54Z</time></trkpt><trkpt lat="43.30698428442456" lon="11.588484797389565"><ele>229.83333333333334</ele><time>2026-04-12T11:10:56Z</time></trkpt><trkpt lat="43.307045780083826" lon="11.588422840743878"><ele>228.66666666666669</ele><time>2026-04-12T11:10:57Z</time></trkpt><trkpt lat="43.30711232315184" lon="11.588374258789257"><ele>227.5</ele><time>2026-04-12T11:10:58Z</time></trkpt><trkpt lat="43.307191318977125" lon="11.588321998602746"><ele>226.33333333333334</ele><time>2026-04-12T11:10:59Z</time></trkpt><trkpt lat="43.307275552873904" lon="11.588272868662855"><ele>225.16666666666669</ele><time>2026-04-12T11:11:00Z</time></trkpt><trkpt lat="43.30736691084873" lon="11.588213920937408"><ele>224.0</ele><time>2026-04-12T11:11:01Z</time></trkpt><trkpt lat="43.30745846521305" lon="11.588156848428241"><ele>223.16666666666669</ele><time>2026-04-12T11:11:02.001Z</time></trkpt><trkpt lat="43.30754584955672" lon="11.588095607260112"><ele>222.33333333333334</ele><time>2026-04-12T11:11:03.001Z</time></trkpt><trkpt lat="43.30762792741689" lon="11.588038734598465"><ele>221.5</ele><time>2026-04-12T11:11:04.001Z</time></trkpt><trkpt lat="43.30770072985264" lon="11.587996530205464"><ele>220.66666666666669</ele><time>2026-04-12T11:11:05.001Z</time></trkpt><trkpt lat="43.307762584608675" lon="11.587949821791618"><ele>219.83333333333334</ele><time>2026-04-12T11:11:06.001Z</time></trkpt><trkpt lat="43.307815797269" lon="11.587901751188229"><ele>219.0</ele><time>2026-04-12T11:11:07.001Z</time></trkpt><trkpt lat="43.30787859981115" lon="11.587779918634174"><ele>218.2</ele><time>2026-04-12T11:11:09.001Z</time></trkpt><trkpt lat="43.30788821881472" lon="11.587631715128653"><ele>217.39999999999998</ele><time>2026-04-12T11:11:11.001Z</time></trkpt><trkpt lat="43.307832342265506" lon="11.587547466339453"><ele>216.6</ele><time>2026-04-12T11:11:12.001Z</time></trkpt><trkpt lat="43.30780448546932" lon="11.587458680597567"><ele>215.8</ele><time>2026-04-12T11:11:13.001Z</time></trkpt><trkpt lat="43.30774108655299" lon="11.587316693991353"><ele>215.0</ele><time>2026-04-12T11:11:15.001Z</time></trkpt><trkpt lat="43.30778543547014" lon="11.587220333143277"><ele>215.0</ele><time>2026-04-12T11:11:18.001Z</time></trkpt><trkpt lat="43.307828651010105" lon="11.587137549849986"><ele>215.0</ele><time>2026-04-12T11:11:19.001Z</time></trkpt><trkpt lat="43.3078932372185" lon="11.587060017549788"><ele>215.0</ele><time>2026-04-12T11:11:20.001Z</time></trkpt><trkpt lat="43.30796515941243" lon="11.586967035864125"><ele>215.0</ele><time>2026-04-12T11:11:21.001Z</time></trkpt><trkpt lat="43.308048369052536" lon="11.586863773336653"><ele>215.0</ele><time>2026-04-12T11:11:22.001Z</time></trkpt><trkpt lat="43.308142549003406" lon="11.586744282483277"><ele>215.0</ele><time>2026-04-12T11:11:22.999Z</time></trkpt><trkpt lat="43.30825787800539" lon="11.586592863829626"><ele>215.0</ele><time>2026-04-12T11:11:23.999Z</time></trkpt><trkpt lat="43.30838204713449" lon="11.586431632794747"><ele>215.0</ele><time>2026-04-12T11:11:24.999Z</time></trkpt><trkpt lat="43.30852396683287" lon="11.586249975126387"><ele>215.33333333333334</ele><time>2026-04-12T11:11:25.999Z</time></trkpt><trkpt lat="43.30866167199171" lon="11.586064124918385"><ele>215.66666666666669</ele><time>2026-04-12T11:11:26.999Z</time></trkpt><trkpt lat="43.30880930419908" lon="11.585874771709891"><ele>216.0</ele><time>2026-04-12T11:11:27.999Z</time></trkpt><trkpt lat="43.30896379957505" lon="11.585680033892718"><ele>217.0</ele><time>2026-04-12T11:11:28.999Z</time></trkpt><trkpt lat="43.30911143808018" lon="11.58549399464836"><ele>218.0</ele><time>2026-04-12T11:11:29.999Z</time></trkpt><trkpt lat="43.30925457049221" lon="11.585324552681827"><ele>219.0</ele><time>2026-04-12T11:11:30.999Z</time></trkpt><trkpt lat="43.30938665203659" lon="11.585155886653892"><ele>220.0</ele><time>2026-04-12T11:11:31.999Z</time></trkpt><trkpt lat="43.30949721221201" lon="11.584977878260831"><ele>221.0</ele><time>2026-04-12T11:11:32.999Z</time></trkpt><trkpt lat="43.30959509608474" lon="11.584766484537843"><ele>222.0</ele><time>2026-04-12T11:11:33.999Z</time></trkpt><trkpt lat="43.30968506702318" lon="11.584526455930682"><ele>222.66666666666669</ele><time>2026-04-12T11:11:34.999Z</time></trkpt><trkpt lat="43.30977539085306" lon="11.58427536829174"><ele>223.33333333333334</ele><time>2026-04-12T11:11:35.999Z</time></trkpt><trkpt lat="43.30986150727797" lon="11.584033203008092"><ele>224.0</ele><time>2026-04-12T11:11:36.999Z</time></trkpt><trkpt lat="43.309933217511116" lon="11.58382072324547"><ele>222.33333333333334</ele><time>2026-04-12T11:11:37.999Z</time></trkpt><trkpt lat="43.309991780481056" lon="11.583625226869675"><ele>220.66666666666669</ele><time>2026-04-12T11:11:38.999Z</time></trkpt><trkpt lat="43.31004186710266" lon="11.583423607035739"><ele>219.0</ele><time>2026-04-12T11:11:39.999Z</time></trkpt><trkpt lat="43.31009559750007" lon="11.583213658216287"><ele>219.0</ele><time>2026-04-12T11:11:40.999Z</time></trkpt><trkpt lat="43.31016146955214" lon="11.58299365077505"><ele>219.0</ele><time>2026-04-12T11:11:41.999Z</time></trkpt><trkpt lat="43.310239604719385" lon="11.582754250591641"><ele>219.0</ele><time>2026-04-12T11:11:42.999Z</time></trkpt><trkpt lat="43.310324876705344" lon="11.582507949481798"><ele>217.66666666666669</ele><time>2026-04-12T11:11:43.999Z</time></trkpt><trkpt lat="43.31041296612516" lon="11.582252460820234"><ele>216.33333333333334</ele><time>2026-04-12T11:11:44.999Z</time></trkpt><trkpt lat="43.310492253525304" lon="11.582009049183904"><ele>215.0</ele><time>2026-04-12T11:11:45.999Z</time></trkpt><trkpt lat="43.310563234304595" lon="11.581795599014727"><ele>215.25</ele><time>2026-04-12T11:11:46.999Z</time></trkpt><trkpt lat="43.31062325751924" lon="11.581612133012822"><ele>215.5</ele><time>2026-04-12T11:11:47.999Z</time></trkpt><trkpt lat="43.31067522297347" lon="11.581452087409025"><ele>215.75</ele><time>2026-04-12T11:11:48.999Z</time></trkpt><trkpt lat="43.31071587801154" lon="11.581324783681108"><ele>216.0</ele><time>2026-04-12T11:11:49.999Z</time></trkpt><trkpt lat="43.3107497900768" lon="11.581232325798982"><ele>214.60000000000002</ele><time>2026-04-12T11:11:50.999Z</time></trkpt><trkpt lat="43.3107760329345" lon="11.581150674474689"><ele>213.20000000000002</ele><time>2026-04-12T11:11:51.999Z</time></trkpt><trkpt lat="43.31080268941668" lon="11.581067754274004"><ele>211.8</ele><time>2026-04-12T11:11:52.999Z</time></trkpt><trkpt lat="43.31073815740187" lon="11.580909895944577"><ele>210.39999999999998</ele><time>2026-04-12T11:11:53.999Z</time></trkpt><trkpt lat="43.31077259573065" lon="11.580789400367884"><ele>209.0</ele><time>2026-04-12T11:11:54.999Z</time></trkpt><trkpt lat="43.310815122306245" lon="11.580665079616724"><ele>209.0</ele><time>2026-04-12T11:11:56Z</time></trkpt><trkpt lat="43.31087132489533" lon="11.580537428480948"><ele>209.0</ele><time>2026-04-12T11:11:57Z</time></trkpt><trkpt lat="43.310926479486916" lon="11.58041763844351"><ele>209.0</ele><time>2026-04-12T11:11:58Z</time></trkpt><trkpt lat="43.31099021290077" lon="11.580314883477287"><ele>209.0</ele><time>2026-04-12T11:11:59Z</time></trkpt><trkpt lat="43.311072541502924" lon="11.580233036802817"><ele>209.0</ele><time>2026-04-12T11:12:00Z</time></trkpt><trkpt lat="43.31117369930806" lon="11.580163059191909"><ele>208.6</ele><time>2026-04-12T11:12:01Z</time></trkpt><trkpt lat="43.311279481130455" lon="11.580107728265615"><ele>208.2</ele><time>2026-04-12T11:12:02Z</time></trkpt><trkpt lat="43.31138336539439" lon="11.580073189060275"><ele>207.79999999999998</ele><time>2026-04-12T11:12:03Z</time></trkpt><trkpt lat="43.31148647019222" lon="11.5800557748645"><ele>207.39999999999998</ele><time>2026-04-12T11:12:04Z</time></trkpt><trkpt lat="43.311585548652594" lon="11.580054629478944"><ele>207.0</ele><time>2026-04-12T11:12:05Z</time></trkpt><trkpt lat="43.311679595547886" lon="11.580055264756403"><ele>207.0</ele><time>2026-04-12T11:12:06Z</time></trkpt><trkpt lat="43.31175569102825" lon="11.58004059327904"><ele>207.0</ele><time>2026-04-12T11:12:07Z</time></trkpt><trkpt lat="43.31182947489306" lon="11.580010540703771"><ele>207.0</ele><time>2026-04-12T11:12:08Z</time></trkpt><trkpt lat="43.31189960711011" lon="11.579949300363683"><ele>207.0</ele><time>2026-04-12T11:12:09Z</time></trkpt><trkpt lat="43.311982108526145" lon="11.579872256993637"><ele>207.0</ele><time>2026-04-12T11:12:10Z</time></trkpt><trkpt lat="43.312070278750014" lon="11.579770982554676"><ele>207.0</ele><time>2026-04-12T11:12:11Z</time></trkpt><trkpt lat="43.312159006322" lon="11.579651098441808"><ele>207.0</ele><time>2026-04-12T11:12:12Z</time></trkpt><trkpt lat="43.312261138193286" lon="11.57953843592379"><ele>207.0</ele><time>2026-04-12T11:12:13Z</time></trkpt><trkpt lat="43.3123613227851" lon="11.579408723132742"><ele>207.0</ele><time>2026-04-12T11:12:14Z</time></trkpt><trkpt lat="43.3124744014881" lon="11.579291728099717"><ele>206.66666666666669</ele><time>2026-04-12T11:12:15Z</time></trkpt><trkpt lat="43.312577075899505" lon="11.579153026280018"><ele>206.33333333333334</ele><time>2026-04-12T11:12:16Z</time></trkpt><trkpt lat="43.312696393411684" lon="11.579012069973865"><ele>206.0</ele><time>2026-04-12T11:12:17Z</time></trkpt><trkpt lat="43.312811498121384" lon="11.57887395467808"><ele>206.0</ele><time>2026-04-12T11:12:18Z</time></trkpt><trkpt lat="43.31292764800205" lon="11.578736047312555"><ele>206.0</ele><time>2026-04-12T11:12:19Z</time></trkpt><trkpt lat="43.31303829609079" lon="11.578600984503879"><ele>206.0</ele><time>2026-04-12T11:12:20Z</time></trkpt><trkpt lat="43.3131316188472" lon="11.578487010022263"><ele>206.0</ele><time>2026-04-12T11:12:21Z</time></trkpt><trkpt lat="43.313199655796424" lon="11.578390974299127"><ele>205.0</ele><time>2026-04-12T11:12:22Z</time></trkpt><trkpt lat="43.31327977649947" lon="11.578312802724284"><ele>204.0</ele><time>2026-04-12T11:12:23Z</time></trkpt><trkpt lat="43.31337054755105" lon="11.578191850218081"><ele>203.0</ele><time>2026-04-12T11:12:24Z</time></trkpt><trkpt lat="43.31345479632805" lon="11.578049475998938"><ele>202.0</ele><time>2026-04-12T11:12:25Z</time></trkpt><trkpt lat="43.31356220330062" lon="11.577904665744292"><ele>201.33333333333331</ele><time>2026-04-12T11:12:26Z</time></trkpt><trkpt lat="43.313672087460866" lon="11.577753225670016"><ele>200.66666666666669</ele><time>2026-04-12T11:12:27Z</time></trkpt><trkpt lat="43.31378423123049" lon="11.577594190524193"><ele>200.0</ele><time>2026-04-12T11:12:28Z</time></trkpt><trkpt lat="43.313897930810256" lon="11.577433606206146"><ele>200.0</ele><time>2026-04-12T11:12:29Z</time></trkpt><trkpt lat="43.31401032664791" lon="11.577273892859033"><ele>200.0</ele><time>2026-04-12T11:12:30Z</time></trkpt><trkpt lat="43.31410648574122" lon="11.577122227000519"><ele>200.0</ele><time>2026-04-12T11:12:31Z</time></trkpt><trkpt lat="43.31419584079789" lon="11.57698760713537"><ele>200.0</ele><time>2026-04-12T11:12:32Z</time></trkpt><trkpt lat="43.31429033386452" lon="11.576851079521669"><ele>200.0</ele><time>2026-04-12T11:12:33Z</time></trkpt><trkpt lat="43.314400072637234" lon="11.57669480428807"><ele>200.0</ele><time>2026-04-12T11:12:34Z</time></trkpt><trkpt lat="43.3144735364827" lon="11.57658983930962"><ele>200.0</ele><time>2026-04-12T11:12:35Z</time></trkpt><trkpt lat="43.314543403788505" lon="11.576467448000672"><ele>200.0</ele><time>2026-04-12T11:12:36Z</time></trkpt><trkpt lat="43.314613706150645" lon="11.576390965846313"><ele>200.00000000000003</ele><time>2026-04-12T11:12:37Z</time></trkpt><trkpt lat="43.314658480676314" lon="11.576329856395573"><ele>200.0</ele><time>2026-04-12T11:12:38Z</time></trkpt><trkpt lat="43.31471094337406" lon="11.576271830494695"><ele>200.0</ele><time>2026-04-12T11:12:41Z</time></trkpt><trkpt lat="43.31478906235676" lon="11.57638942486788"><ele>200.0</ele><time>2026-04-12T11:12:43Z</time></trkpt><trkpt lat="43.3148414586416" lon="11.576472759140406"><ele>200.00000000000003</ele><time>2026-04-12T11:12:44Z</time></trkpt><trkpt lat="43.314909737500216" lon="11.576556661132711"><ele>200.0</ele><time>2026-04-12T11:12:45Z</time></trkpt><trkpt lat="43.31499190490282" lon="11.576651427984133"><ele>200.4</ele><time>2026-04-12T11:12:46Z</time></trkpt><trkpt lat="43.31505450480187" lon="11.57674832840566"><ele>200.8</ele><time>2026-04-12T11:12:47Z</time></trkpt><trkpt lat="43.315106604050676" lon="11.576815795910612"><ele>201.2</ele><time>2026-04-12T11:12:50Z</time></trkpt><trkpt lat="43.3152318659979" lon="11.576718988274065"><ele>201.6</ele><time>2026-04-12T11:12:52Z</time></trkpt><trkpt lat="43.31529205750934" lon="11.576633189814741"><ele>202.0</ele><time>2026-04-12T11:12:53Z</time></trkpt><trkpt lat="43.31535631118472" lon="11.576525172013689"><ele>202.0</ele><time>2026-04-12T11:12:54Z</time></trkpt><trkpt lat="43.3154402893456" lon="11.576406829068212"><ele>202.0</ele><time>2026-04-12T11:12:55Z</time></trkpt><trkpt lat="43.31554356204963" lon="11.576271182738886"><ele>202.0</ele><time>2026-04-12T11:12:56Z</time></trkpt><trkpt lat="43.315672246769275" lon="11.5761122628304"><ele>202.0</ele><time>2026-04-12T11:12:57Z</time></trkpt><trkpt lat="43.31581732362897" lon="11.575941647746696"><ele>202.5</ele><time>2026-04-12T11:12:58Z</time></trkpt><trkpt lat="43.315991723007464" lon="11.57574230314883"><ele>203.0</ele><time>2026-04-12T11:12:59.001Z</time></trkpt><trkpt lat="43.31617609603761" lon="11.575521945404613"><ele>204.0</ele><time>2026-04-12T11:13:00.001Z</time></trkpt><trkpt lat="43.31636283771166" lon="11.575289455257652"><ele>205.0</ele><time>2026-04-12T11:13:01.001Z</time></trkpt><trkpt lat="43.316543677081874" lon="11.575061201612352"><ele>206.66666666666666</ele><time>2026-04-12T11:13:02.001Z</time></trkpt><trkpt lat="43.316712342287154" lon="11.57485052700513"><ele>208.33333333333331</ele><time>2026-04-12T11:13:03.001Z</time></trkpt><trkpt lat="43.31687049900126" lon="11.57465780575072"><ele>210.0</ele><time>2026-04-12T11:13:04.001Z</time></trkpt><trkpt lat="43.31701374131026" lon="11.574484953341216"><ele>210.0</ele><time>2026-04-12T11:13:05.001Z</time></trkpt><trkpt lat="43.31714458907094" lon="11.574328017398392"><ele>210.0</ele><time>2026-04-12T11:13:06.001Z</time></trkpt><trkpt lat="43.317260614918546" lon="11.574186115058641"><ele>210.0</ele><time>2026-04-12T11:13:07.001Z</time></trkpt><trkpt lat="43.31735484360895" lon="11.574067770640704"><ele>209.66666666666669</ele><time>2026-04-12T11:13:08.001Z</time></trkpt><trkpt lat="43.31745465495332" lon="11.573938865798981"><ele>209.33333333333334</ele><time>2026-04-12T11:13:09.001Z</time></trkpt><trkpt lat="43.3175660726689" lon="11.573794013454268"><ele>209.0</ele><time>2026-04-12T11:13:10.001Z</time></trkpt><trkpt lat="43.317686664828486" lon="11.573634536015602"><ele>209.0</ele><time>2026-04-12T11:13:11.001Z</time></trkpt><trkpt lat="43.31782345877539" lon="11.573491386508227"><ele>209.0</ele><time>2026-04-12T11:13:12.001Z</time></trkpt><trkpt lat="43.31794711591269" lon="11.573335450375213"><ele>209.0</ele><time>2026-04-12T11:13:13.001Z</time></trkpt><trkpt lat="43.31805959102185" lon="11.573165935714309"><ele>209.33333333333334</ele><time>2026-04-12T11:13:14.001Z</time></trkpt><trkpt lat="43.31817651346167" lon="11.573014286036086"><ele>209.66666666666669</ele><time>2026-04-12T11:13:15.001Z</time></trkpt><trkpt lat="43.318293117691105" lon="11.572866549397206"><ele>210.0</ele><time>2026-04-12T11:13:16.001Z</time></trkpt><trkpt lat="43.318414214571156" lon="11.572743937747171"><ele>209.0</ele><time>2026-04-12T11:13:17.001Z</time></trkpt><trkpt lat="43.31852341206381" lon="11.572613299002152"><ele>208.0</ele><time>2026-04-12T11:13:18.001Z</time></trkpt><trkpt lat="43.318674849498635" lon="11.572589760647505"><ele>207.0</ele><time>2026-04-12T11:13:19.001Z</time></trkpt><trkpt lat="43.31882280740203" lon="11.572528951738525"><ele>206.5</ele><time>2026-04-12T11:13:20.001Z</time></trkpt><trkpt lat="43.31896658250454" lon="11.572453790627"><ele>206.0</ele><time>2026-04-12T11:13:21.001Z</time></trkpt><trkpt lat="43.319105561788994" lon="11.572395056334333"><ele>205.5</ele><time>2026-04-12T11:13:22.001Z</time></trkpt><trkpt lat="43.319236975517455" lon="11.572315475117025"><ele>205.0</ele><time>2026-04-12T11:13:23.001Z</time></trkpt><trkpt lat="43.3193549627317" lon="11.57219945731397"><ele>205.0</ele><time>2026-04-12T11:13:24.001Z</time></trkpt><trkpt lat="43.319480713014386" lon="11.572065117069377"><ele>205.0</ele><time>2026-04-12T11:13:25.001Z</time></trkpt><trkpt lat="43.31960516965579" lon="11.571904549904364"><ele>205.0</ele><time>2026-04-12T11:13:26.001Z</time></trkpt><trkpt lat="43.319737221398334" lon="11.571730931154919"><ele>205.33333333333331</ele><time>2026-04-12T11:13:27.001Z</time></trkpt><trkpt lat="43.31986454686514" lon="11.571533776879463"><ele>205.66666666666669</ele><time>2026-04-12T11:13:28.001Z</time></trkpt><trkpt lat="43.32001169040321" lon="11.571354731748372"><ele>206.0</ele><time>2026-04-12T11:13:28.999Z</time></trkpt><trkpt lat="43.32015754370091" lon="11.571165998769487"><ele>206.0</ele><time>2026-04-12T11:13:29.999Z</time></trkpt><trkpt lat="43.32030114706681" lon="11.570967751191347"><ele>206.0</ele><time>2026-04-12T11:13:30.999Z</time></trkpt><trkpt lat="43.32044735754515" lon="11.570775749526973"><ele>206.0</ele><time>2026-04-12T11:13:31.999Z</time></trkpt><trkpt lat="43.32059978461423" lon="11.57060469135684"><ele>206.0</ele><time>2026-04-12T11:13:32.999Z</time></trkpt><trkpt lat="43.320747645963564" lon="11.570416520928788"><ele>206.0</ele><time>2026-04-12T11:13:33.999Z</time></trkpt><trkpt lat="43.320899196391096" lon="11.570223655671814"><ele>206.0</ele><time>2026-04-12T11:13:34.999Z</time></trkpt><trkpt lat="43.32104536001201" lon="11.57001177788256"><ele>206.0</ele><time>2026-04-12T11:13:35.999Z</time></trkpt><trkpt lat="43.321193301345204" lon="11.569828470862273"><ele>206.0</ele><time>2026-04-12T11:13:36.999Z</time></trkpt><trkpt lat="43.321329480658164" lon="11.569673437413007"><ele>206.0</ele><time>2026-04-12T11:13:37.999Z</time></trkpt><trkpt lat="43.32146931889554" lon="11.569588006298929"><ele>206.0</ele><time>2026-04-12T11:13:38.999Z</time></trkpt><trkpt lat="43.32160460335604" lon="11.56955900244132"><ele>206.0</ele><time>2026-04-12T11:13:39.999Z</time></trkpt><trkpt lat="43.321755377066346" lon="11.569524127228686"><ele>206.0</ele><time>2026-04-12T11:13:40.999Z</time></trkpt><trkpt lat="43.321916639319305" lon="11.569478336820097"><ele>206.0</ele><time>2026-04-12T11:13:41.999Z</time></trkpt><trkpt lat="43.32207192519142" lon="11.569444080035291"><ele>206.0</ele><time>2026-04-12T11:13:42.999Z</time></trkpt><trkpt lat="43.32221487166718" lon="11.569411756034922"><ele>206.0</ele><time>2026-04-12T11:13:43.999Z</time></trkpt><trkpt lat="43.32236047720242" lon="11.56937648785793"><ele>206.25</ele><time>2026-04-12T11:13:44.999Z</time></trkpt><trkpt lat="43.32250762397079" lon="11.56934875149233"><ele>206.5</ele><time>2026-04-12T11:13:45.999Z</time></trkpt><trkpt lat="43.32265767011504" lon="11.569320219316117"><ele>206.75</ele><time>2026-04-12T11:13:46.999Z</time></trkpt><trkpt lat="43.32279957860535" lon="11.569293807262854"><ele>207.0</ele><time>2026-04-12T11:13:47.999Z</time></trkpt><trkpt lat="43.32294001606328" lon="11.569263662313473"><ele>208.0</ele><time>2026-04-12T11:13:48.999Z</time></trkpt><trkpt lat="43.32307201585175" lon="11.569231356814292"><ele>209.0</ele><time>2026-04-12T11:13:49.999Z</time></trkpt><trkpt lat="43.32319691999003" lon="11.56919307250645"><ele>210.0</ele><time>2026-04-12T11:13:50.999Z</time></trkpt><trkpt lat="43.32332954413449" lon="11.569147137502402"><ele>211.0</ele><time>2026-04-12T11:13:52Z</time></trkpt><trkpt lat="43.32343761878189" lon="11.569057584224723"><ele>211.0</ele><time>2026-04-12T11:13:53Z</time></trkpt><trkpt lat="43.323556896744996" lon="11.568954819600044"><ele>211.0</ele><time>2026-04-12T11:13:54Z</time></trkpt><trkpt lat="43.323676803199035" lon="11.568845026030163"><ele>211.0</ele><time>2026-04-12T11:13:55Z</time></trkpt><trkpt lat="43.32380870374762" lon="11.568743148186098"><ele>211.0</ele><time>2026-04-12T11:13:56Z</time></trkpt><trkpt lat="43.32393702235922" lon="11.568638899249686"><ele>211.0</ele><time>2026-04-12T11:13:57Z</time></trkpt><trkpt lat="43.324064883557654" lon="11.568539650279167"><ele>211.0</ele><time>2026-04-12T11:13:58Z</time></trkpt><trkpt lat="43.32418678195824" lon="11.56844441747105"><ele>211.0</ele><time>2026-04-12T11:13:59Z</time></trkpt><trkpt lat="43.3243047049695" lon="11.568347364360024"><ele>211.0</ele><time>2026-04-12T11:14:00Z</time></trkpt><trkpt lat="43.32441684458204" lon="11.568243838246165"><ele>211.0</ele><time>2026-04-12T11:14:01Z</time></trkpt><trkpt lat="43.32451437786113" lon="11.568124878218512"><ele>211.0</ele><time>2026-04-12T11:14:02Z</time></trkpt><trkpt lat="43.32459798199577" lon="11.567970364816711"><ele>211.0</ele><time>2026-04-12T11:14:03Z</time></trkpt><trkpt lat="43.324663459180535" lon="11.567786391614957"><ele>211.0</ele><time>2026-04-12T11:14:04Z</time></trkpt><trkpt lat="43.32471966620358" lon="11.56759301766489"><ele>213.66666666666666</ele><time>2026-04-12T11:14:05Z</time></trkpt><trkpt lat="43.32476826439347" lon="11.567386462567235"><ele>216.33333333333331</ele><time>2026-04-12T11:14:06Z</time></trkpt><trkpt lat="43.32486099179261" lon="11.567155141321713"><ele>219.0</ele><time>2026-04-12T11:14:07Z</time></trkpt><trkpt lat="43.32494958580353" lon="11.566881916481274"><ele>220.33333333333331</ele><time>2026-04-12T11:14:08Z</time></trkpt><trkpt lat="43.32502242604802" lon="11.566608372621488"><ele>221.66666666666666</ele><time>2026-04-12T11:14:09Z</time></trkpt><trkpt lat="43.325102376749534" lon="11.566355885567313"><ele>223.0</ele><time>2026-04-12T11:14:10Z</time></trkpt><trkpt lat="43.32514517444298" lon="11.56607757940166"><ele>223.33333333333331</ele><time>2026-04-12T11:14:11Z</time></trkpt><trkpt lat="43.32515410352735" lon="11.565773651953446"><ele>223.66666666666669</ele><time>2026-04-12T11:14:12Z</time></trkpt><trkpt lat="43.32516396731674" lon="11.565499735876388"><ele>224.0</ele><time>2026-04-12T11:14:13Z</time></trkpt><trkpt lat="43.325180488531956" lon="11.56526296359852"><ele>223.33333333333334</ele><time>2026-04-12T11:14:14Z</time></trkpt><trkpt lat="43.32520673574408" lon="11.56504846592425"><ele>222.66666666666669</ele><time>2026-04-12T11:14:15Z</time></trkpt><trkpt lat="43.32525764571934" lon="11.564820945055471"><ele>222.0</ele><time>2026-04-12T11:14:16Z</time></trkpt><trkpt lat="43.3253580555862" lon="11.564607325220702"><ele>221.0</ele><time>2026-04-12T11:14:17Z</time></trkpt><trkpt lat="43.32547215455577" lon="11.56436560273246"><ele>220.0</ele><time>2026-04-12T11:14:18Z</time></trkpt><trkpt lat="43.32560422126557" lon="11.564156268906496"><ele>219.0</ele><time>2026-04-12T11:14:19Z</time></trkpt><trkpt lat="43.32573294057332" lon="11.56397617352801"><ele>219.0</ele><time>2026-04-12T11:14:20Z</time></trkpt><trkpt lat="43.32584714566424" lon="11.563833929832334"><ele>219.0</ele><time>2026-04-12T11:14:21Z</time></trkpt><trkpt lat="43.32597704788282" lon="11.563748622116885"><ele>219.0</ele><time>2026-04-12T11:14:22Z</time></trkpt><trkpt lat="43.32612591732735" lon="11.563682591080811"><ele>219.0</ele><time>2026-04-12T11:14:23Z</time></trkpt><trkpt lat="43.326300298519456" lon="11.563620694105184"><ele>219.0</ele><time>2026-04-12T11:14:24Z</time></trkpt><trkpt lat="43.3264897349602" lon="11.563544880165576"><ele>219.0</ele><time>2026-04-12T11:14:25Z</time></trkpt><trkpt lat="43.3266878667474" lon="11.563485365713142"><ele>219.0</ele><time>2026-04-12T11:14:26Z</time></trkpt><trkpt lat="43.32688981348926" lon="11.563424369732255"><ele>219.0</ele><time>2026-04-12T11:14:27Z</time></trkpt><trkpt lat="43.32708398081998" lon="11.563364264929286"><ele>219.0</ele><time>2026-04-12T11:14:28Z</time></trkpt><trkpt lat="43.32725852358844" lon="11.563313806622585"><ele>219.75</ele><time>2026-04-12T11:14:29Z</time></trkpt><trkpt lat="43.3274061806296" lon="11.563266163034628"><ele>220.5</ele><time>2026-04-12T11:14:30Z</time></trkpt><trkpt lat="43.32752587244572" lon="11.563216755888348"><ele>221.25</ele><time>2026-04-12T11:14:31Z</time></trkpt><trkpt lat="43.327634623658184" lon="11.563152856073097"><ele>222.0</ele><time>2026-04-12T11:14:32Z</time></trkpt><trkpt lat="43.32771475300512" lon="11.563062072560799"><ele>222.0</ele><time>2026-04-12T11:14:33Z</time></trkpt><trkpt lat="43.32776540878263" lon="11.56297257036834"><ele>222.0</ele><time>2026-04-12T11:14:34Z</time></trkpt><trkpt lat="43.32781228599461" lon="11.562894840930483"><ele>222.0</ele><time>2026-04-12T11:14:36Z</time></trkpt><trkpt lat="43.32780128135193" lon="11.562779362978358"><ele>222.0</ele><time>2026-04-12T11:14:38Z</time></trkpt><trkpt lat="43.32774450382675" lon="11.562611699857362"><ele>222.0</ele><time>2026-04-12T11:14:39Z</time></trkpt><trkpt lat="43.32768554572233" lon="11.562423642678699"><ele>221.0</ele><time>2026-04-12T11:14:40Z</time></trkpt><trkpt lat="43.32764710212178" lon="11.562228594768062"><ele>220.0</ele><time>2026-04-12T11:14:41Z</time></trkpt><trkpt lat="43.32759318356658" lon="11.562054162591265"><ele>219.0</ele><time>2026-04-12T11:14:42Z</time></trkpt><trkpt lat="43.327583096412" lon="11.561849284017645"><ele>218.0</ele><time>2026-04-12T11:14:43Z</time></trkpt><trkpt lat="43.327600072941614" lon="11.561630167521262"><ele>217.0</ele><time>2026-04-12T11:14:44Z</time></trkpt><trkpt lat="43.32763691113383" lon="11.561404640542447"><ele>216.0</ele><time>2026-04-12T11:14:45Z</time></trkpt><trkpt lat="43.327687242944755" lon="11.56117656049204"><ele>215.0</ele><time>2026-04-12T11:14:46Z</time></trkpt><trkpt lat="43.32774719874529" lon="11.56094301272601"><ele>214.0</ele><time>2026-04-12T11:14:47Z</time></trkpt><trkpt lat="43.32780597740503" lon="11.5606937705109"><ele>213.0</ele><time>2026-04-12T11:14:48Z</time></trkpt><trkpt lat="43.32786293020616" lon="11.560438477326464"><ele>212.0</ele><time>2026-04-12T11:14:49Z</time></trkpt><trkpt lat="43.32791653077146" lon="11.560169954762802"><ele>211.66666666666669</ele><time>2026-04-12T11:14:50Z</time></trkpt><trkpt lat="43.32796468996797" lon="11.559894736413689"><ele>211.33333333333331</ele><time>2026-04-12T11:14:51Z</time></trkpt><trkpt lat="43.32800200784013" lon="11.55961157133072"><ele>211.0</ele><time>2026-04-12T11:14:52.001Z</time></trkpt><trkpt lat="43.328033542107" lon="11.55932413769684"><ele>212.0</ele><time>2026-04-12T11:14:53.001Z</time></trkpt><trkpt lat="43.32806296430666" lon="11.559035303781446"><ele>213.0</ele><time>2026-04-12T11:14:54.001Z</time></trkpt><trkpt lat="43.328097919797194" lon="11.55874440612002"><ele>214.0</ele><time>2026-04-12T11:14:55.001Z</time></trkpt><trkpt lat="43.32814093961261" lon="11.55845383513942"><ele>214.33333333333331</ele><time>2026-04-12T11:14:56.001Z</time></trkpt><trkpt lat="43.328190630511465" lon="11.558169201143066"><ele>214.66666666666669</ele><time>2026-04-12T11:14:57.001Z</time></trkpt><trkpt lat="43.32824036195309" lon="11.557897037812523"><ele>215.0</ele><time>2026-04-12T11:14:58.001Z</time></trkpt><trkpt lat="43.32829106007192" lon="11.557630696773062"><ele>215.33333333333334</ele><time>2026-04-12T11:14:59.001Z</time></trkpt><trkpt lat="43.328341206812304" lon="11.557384898055433"><ele>215.66666666666669</ele><time>2026-04-12T11:15:00.001Z</time></trkpt><trkpt lat="43.328403188619994" lon="11.557149727129731"><ele>216.0</ele><time>2026-04-12T11:15:01.001Z</time></trkpt><trkpt lat="43.32848598300226" lon="11.556916164409488"><ele>216.0</ele><time>2026-04-12T11:15:02.001Z</time></trkpt><trkpt lat="43.32858322376036" lon="11.55668095635019"><ele>216.0</ele><time>2026-04-12T11:15:03.001Z</time></trkpt><trkpt lat="43.32869275630336" lon="11.556441824047683"><ele>216.0</ele><time>2026-04-12T11:15:04.001Z</time></trkpt><trkpt lat="43.328820192719796" lon="11.556214364934238"><ele>218.66666666666669</ele><time>2026-04-12T11:15:05.001Z</time></trkpt><trkpt lat="43.32893751443505" lon="11.555976377593955"><ele>221.33333333333334</ele><time>2026-04-12T11:15:06.001Z</time></trkpt><trkpt lat="43.32904498204698" lon="11.555728266547014"><ele>224.0</ele><time>2026-04-12T11:15:07.001Z</time></trkpt><trkpt lat="43.329156176227656" lon="11.555491415717354"><ele>223.33333333333334</ele><time>2026-04-12T11:15:08.001Z</time></trkpt><trkpt lat="43.32925585170681" lon="11.555258186190517"><ele>222.66666666666669</ele><time>2026-04-12T11:15:09.001Z</time></trkpt><trkpt lat="43.329348961708725" lon="11.555036329134765"><ele>222.0</ele><time>2026-04-12T11:15:10.001Z</time></trkpt><trkpt lat="43.32944169030868" lon="11.55482376956253"><ele>222.0</ele><time>2026-04-12T11:15:11.001Z</time></trkpt><trkpt lat="43.32954103346856" lon="11.554613878195173"><ele>222.0</ele><time>2026-04-12T11:15:12.001Z</time></trkpt><trkpt lat="43.32964171098905" lon="11.554413948053652"><ele>222.0</ele><time>2026-04-12T11:15:13.001Z</time></trkpt><trkpt lat="43.32974423500695" lon="11.554234811328485"><ele>221.75</ele><time>2026-04-12T11:15:14.001Z</time></trkpt><trkpt lat="43.329838143518614" lon="11.554068758941812"><ele>221.5</ele><time>2026-04-12T11:15:15.001Z</time></trkpt><trkpt lat="43.329925432966725" lon="11.553912198824648"><ele>221.25</ele><time>2026-04-12T11:15:16.001Z</time></trkpt><trkpt lat="43.33000397849496" lon="11.553761112868072"><ele>221.0</ele><time>2026-04-12T11:15:17.001Z</time></trkpt><trkpt lat="43.33007601285436" lon="11.553609399274494"><ele>221.0</ele><time>2026-04-12T11:15:18.001Z</time></trkpt><trkpt lat="43.33014279854958" lon="11.55345559943953"><ele>221.0</ele><time>2026-04-12T11:15:19.001Z</time></trkpt><trkpt lat="43.33020312511026" lon="11.553307063897861"><ele>221.0</ele><time>2026-04-12T11:15:20.001Z</time></trkpt><trkpt lat="43.330253039343496" lon="11.553179773993126"><ele>221.0</ele><time>2026-04-12T11:15:21.001Z</time></trkpt><trkpt lat="43.33029650640622" lon="11.553068705906712"><ele>221.00000000000003</ele><time>2026-04-12T11:15:22.001Z</time></trkpt><trkpt lat="43.33032955253696" lon="11.552978309128896"><ele>221.0</ele><time>2026-04-12T11:15:23.001Z</time></trkpt><trkpt lat="43.33037665441748" lon="11.552867065255453"><ele>221.0</ele><time>2026-04-12T11:15:25.001Z</time></trkpt><trkpt lat="43.330461827467055" lon="11.55281942959415"><ele>221.0</ele><time>2026-04-12T11:15:28.001Z</time></trkpt><trkpt lat="43.33053175172738" lon="11.55286442078922"><ele>221.00000000000003</ele><time>2026-04-12T11:15:30.001Z</time></trkpt><trkpt lat="43.330594184987106" lon="11.552917814159317"><ele>221.0</ele><time>2026-04-12T11:15:44.999Z</time></trkpt><trkpt lat="43.330685095088576" lon="11.552952286257991"><ele>221.8</ele><time>2026-04-12T11:15:46.999Z</time></trkpt><trkpt lat="43.33066099303316" lon="11.552864365047764"><ele>222.60000000000002</ele><time>2026-04-12T11:15:54Z</time></trkpt><trkpt lat="43.3305610792805" lon="11.552820649132862"><ele>223.4</ele><time>2026-04-12T11:15:56Z</time></trkpt><trkpt lat="43.33048442162906" lon="11.552740101406975"><ele>224.2</ele><time>2026-04-12T11:15:58Z</time></trkpt><trkpt lat="43.330418187144815" lon="11.55263928442409"><ele>225.0</ele><time>2026-04-12T11:16:00Z</time></trkpt><trkpt lat="43.33037866066582" lon="11.552538455591444"><ele>225.0</ele><time>2026-04-12T11:16:02Z</time></trkpt><trkpt lat="43.33036502689787" lon="11.552422350475473"><ele>225.0</ele><time>2026-04-12T11:16:05Z</time></trkpt></trkseg><trkseg><trkpt lat="43.330466074731" lon="11.552496037982356"><ele>225.0</ele><time>2026-04-12T11:34:50.19Z</time></trkpt><trkpt lat="43.3303695406187" lon="11.5524077388566"><ele>225.0</ele><time>2026-04-12T11:34:57.185Z</time></trkpt><trkpt lat="43.33029476639135" lon="11.552369649911851"><ele>225.0</ele><time>2026-04-12T11:35:54Z</time></trkpt><trkpt lat="43.33029636643881" lon="11.552471685523605"><ele>225.0</ele><time>2026-04-12T11:35:56.001Z</time></trkpt><trkpt lat="43.330327334430756" lon="11.552556079782324"><ele>225.0</ele><time>2026-04-12T11:35:57.001Z</time></trkpt><trkpt lat="43.33036393891405" lon="11.552649959248388"><ele>225.0</ele><time>2026-04-12T11:35:58.001Z</time></trkpt><trkpt lat="43.33041334830045" lon="11.552746710024866"><ele>225.0</ele><time>2026-04-12T11:35:59.001Z</time></trkpt><trkpt lat="43.33048882019846" lon="11.552823840399356"><ele>225.0</ele><time>2026-04-12T11:36:00.001Z</time></trkpt><trkpt lat="43.33059233123991" lon="11.552904744996344"><ele>225.0</ele><time>2026-04-12T11:36:01.001Z</time></trkpt><trkpt lat="43.33070600328559" lon="11.55297402231061"><ele>225.0</ele><time>2026-04-12T11:36:02.001Z</time></trkpt><trkpt lat="43.3308176162743" lon="11.553046075891954"><ele>225.25</ele><time>2026-04-12T11:36:03.001Z</time></trkpt><trkpt lat="43.33093414935098" lon="11.55311814448874"><ele>225.5</ele><time>2026-04-12T11:36:04.001Z</time></trkpt><trkpt lat="43.33104638026963" lon="11.553195202729329"><ele>225.75</ele><time>2026-04-12T11:36:05.001Z</time></trkpt><trkpt lat="43.33115444195352" lon="11.5532761194749"><ele>226.0</ele><time>2026-04-12T11:36:06.001Z</time></trkpt><trkpt lat="43.331261695753376" lon="11.553352159754745"><ele>226.0</ele><time>2026-04-12T11:36:07.001Z</time></trkpt><trkpt lat="43.33137341381276" lon="11.553432435103002"><ele>226.0</ele><time>2026-04-12T11:36:08.001Z</time></trkpt><trkpt lat="43.331493364470035" lon="11.553509652304768"><ele>226.0</ele><time>2026-04-12T11:36:09.001Z</time></trkpt><trkpt lat="43.331615886102576" lon="11.553623404501117"><ele>226.0</ele><time>2026-04-12T11:36:10.001Z</time></trkpt><trkpt lat="43.33176166378345" lon="11.553704628615208"><ele>225.66666666666666</ele><time>2026-04-12T11:36:11.001Z</time></trkpt><trkpt lat="43.33190505764911" lon="11.553809890181043"><ele>225.33333333333331</ele><time>2026-04-12T11:36:12.001Z</time></trkpt><trkpt lat="43.33206541873146" lon="11.553923141259927"><ele>225.0</ele><time>2026-04-12T11:36:13.001Z</time></trkpt><trkpt lat="43.33225068010917" lon="11.554059679037122"><ele>226.0</ele><time>2026-04-12T11:36:14.001Z</time></trkpt><trkpt lat="43.33246587359092" lon="11.554218249621032"><ele>227.0</ele><time>2026-04-12T11:36:15.001Z</time></trkpt><trkpt lat="43.33270611232569" lon="11.554387006000962"><ele>227.0</ele><time>2026-04-12T11:36:16.001Z</time></trkpt><trkpt lat="43.33290183169376" lon="11.554529974603561"><ele>227.0</ele><time>2026-04-12T11:36:17.001Z</time></trkpt><trkpt lat="43.33307641714134" lon="11.554656790818576"><ele>227.0</ele><time>2026-04-12T11:36:18.001Z</time></trkpt><trkpt lat="43.3332499731651" lon="11.55477051858907"><ele>228.0</ele><time>2026-04-12T11:36:19.001Z</time></trkpt><trkpt lat="43.33342721754271" lon="11.554890026054546"><ele>229.0</ele><time>2026-04-12T11:36:20.001Z</time></trkpt><trkpt lat="43.3335914678038" lon="11.554989973124842"><ele>230.0</ele><time>2026-04-12T11:36:21.001Z</time></trkpt><trkpt lat="43.333745352525504" lon="11.555078489732953"><ele>231.0</ele><time>2026-04-12T11:36:22.001Z</time></trkpt><trkpt lat="43.333914493209946" lon="11.555159909588482"><ele>232.0</ele><time>2026-04-12T11:36:23.001Z</time></trkpt><trkpt lat="43.33409511487872" lon="11.555245521428056"><ele>233.0</ele><time>2026-04-12T11:36:24.001Z</time></trkpt><trkpt lat="43.33428009018068" lon="11.555338722755058"><ele>230.66666666666669</ele><time>2026-04-12T11:36:25.001Z</time></trkpt><trkpt lat="43.33446596692599" lon="11.555435238771162"><ele>228.33333333333331</ele><time>2026-04-12T11:36:26.001Z</time></trkpt><trkpt lat="43.33462060987272" lon="11.555522397520383"><ele>226.0</ele><time>2026-04-12T11:36:27.001Z</time></trkpt><trkpt lat="43.334761507028965" lon="11.55559431650821"><ele>226.0</ele><time>2026-04-12T11:36:28.001Z</time></trkpt><trkpt lat="43.334887686158076" lon="11.55565891798845"><ele>226.0</ele><time>2026-04-12T11:36:29.001Z</time></trkpt><trkpt lat="43.33500282929637" lon="11.555720476016623"><ele>226.0</ele><time>2026-04-12T11:36:30.001Z</time></trkpt><trkpt lat="43.33510440041769" lon="11.555769329727442"><ele>226.0</ele><time>2026-04-12T11:36:31.001Z</time></trkpt><trkpt lat="43.33519832203925" lon="11.5558391869437"><ele>226.0</ele><time>2026-04-12T11:36:32.001Z</time></trkpt><trkpt lat="43.3353086406543" lon="11.555875633427576"><ele>226.0</ele><time>2026-04-12T11:36:33.001Z</time></trkpt><trkpt lat="43.33542971170719" lon="11.555939907548414"><ele>226.0</ele><time>2026-04-12T11:36:34.001Z</time></trkpt><trkpt lat="43.33556538618247" lon="11.556031505384556"><ele>226.0</ele><time>2026-04-12T11:36:35.001Z</time></trkpt><trkpt lat="43.33572342312187" lon="11.556114336639883"><ele>225.33333333333331</ele><time>2026-04-12T11:36:36.001Z</time></trkpt><trkpt lat="43.335900892769125" lon="11.556185346693672"><ele>224.66666666666669</ele><time>2026-04-12T11:36:37.001Z</time></trkpt><trkpt lat="43.33608694121564" lon="11.556286927032806"><ele>224.0</ele><time>2026-04-12T11:36:38.001Z</time></trkpt><trkpt lat="43.33628790078792" lon="11.556397732200102"><ele>225.0</ele><time>2026-04-12T11:36:39.001Z</time></trkpt><trkpt lat="43.33649646380646" lon="11.556510551688499"><ele>226.0</ele><time>2026-04-12T11:36:40.001Z</time></trkpt><trkpt lat="43.33671182785123" lon="11.556619816849866"><ele>226.0</ele><time>2026-04-12T11:36:41.001Z</time></trkpt><trkpt lat="43.33693256617013" lon="11.556731049065643"><ele>226.0</ele><time>2026-04-12T11:36:42.001Z</time></trkpt><trkpt lat="43.33715296485217" lon="11.556866090854529"><ele>226.0</ele><time>2026-04-12T11:36:43.001Z</time></trkpt><trkpt lat="43.33739268199813" lon="11.556945584910775"><ele>226.0</ele><time>2026-04-12T11:36:44.001Z</time></trkpt><trkpt lat="43.33763382748615" lon="11.5570394490197"><ele>262.0</ele><time>2026-04-12T11:36:45.001Z</time></trkpt><trkpt lat="43.343494416664115" lon="11.556259772032266"><ele>262.0</ele><time>2026-04-12T11:37:46Z</time></trkpt><trkpt lat="43.34354877620824" lon="11.556308785397855"><ele>262.0</ele><time>2026-04-12T11:37:47Z</time></trkpt><trkpt lat="43.34360940373834" lon="11.556356532882019"><ele>262.0</ele><time>2026-04-12T11:37:48Z</time></trkpt><trkpt lat="43.3436725256661" lon="11.55640545875719"><ele>262.0</ele><time>2026-04-12T11:37:49Z</time></trkpt><trkpt lat="43.34373394843118" lon="11.556448979519914"><ele>262.0</ele><time>2026-04-12T11:37:50Z</time></trkpt><trkpt lat="43.34378096037917" lon="11.556515828720904"><ele>262.0</ele><time>2026-04-12T11:37:51Z</time></trkpt><trkpt lat="43.34379332522574" lon="11.556608952515951"><ele>262.0</ele><time>2026-04-12T11:37:52Z</time></trkpt><trkpt lat="43.343775378693294" lon="11.55670560158857"><ele>262.0</ele><time>2026-04-12T11:37:53Z</time></trkpt><trkpt lat="43.34376776507013" lon="11.556797360020798"><ele>262.0</ele><time>2026-04-12T11:37:54Z</time></trkpt><trkpt lat="43.3438384141529" lon="11.556896525190547"><ele>262.0</ele><time>2026-04-12T11:37:56Z</time></trkpt><trkpt lat="43.34393513803743" lon="11.55685874541657"><ele>262.0</ele><time>2026-04-12T11:37:58Z</time></trkpt><trkpt lat="43.34399949387791" lon="11.556732462417306"><ele>262.0</ele><time>2026-04-12T11:38:00Z</time></trkpt><trkpt lat="43.344046792354135" lon="11.556646629496058"><ele>263.6</ele><time>2026-04-12T11:38:01Z</time></trkpt><trkpt lat="43.3441144897281" lon="11.556557712411688"><ele>265.2</ele><time>2026-04-12T11:38:02Z</time></trkpt><trkpt lat="43.344137565500255" lon="11.556420172577718"><ele>266.8</ele><time>2026-04-12T11:38:03Z</time></trkpt><trkpt lat="43.34416758676218" lon="11.556282680496027"><ele>268.4</ele><time>2026-04-12T11:38:04Z</time></trkpt><trkpt lat="43.34421769574739" lon="11.556143836600086"><ele>270.0</ele><time>2026-04-12T11:38:05Z</time></trkpt><trkpt lat="43.344302055902084" lon="11.55601896768764"><ele>270.0</ele><time>2026-04-12T11:38:06Z</time></trkpt><trkpt lat="43.34437079809171" lon="11.555868421826652"><ele>270.0</ele><time>2026-04-12T11:38:07Z</time></trkpt><trkpt lat="43.34444998529423" lon="11.55574792302071"><ele>270.0</ele><time>2026-04-12T11:38:08Z</time></trkpt><trkpt lat="43.3445201646932" lon="11.555660349639762"><ele>270.0</ele><time>2026-04-12T11:38:09Z</time></trkpt><trkpt lat="43.3446125124384" lon="11.555608133505546"><ele>270.0</ele><time>2026-04-12T11:38:10Z</time></trkpt><trkpt lat="43.34470650126478" lon="11.555574956689115"><ele>269.8</ele><time>2026-04-12T11:38:11Z</time></trkpt><trkpt lat="43.34480988561032" lon="11.555527786402259"><ele>269.6</ele><time>2026-04-12T11:38:12Z</time></trkpt><trkpt lat="43.344913862454405" lon="11.55546592933372"><ele>269.4</ele><time>2026-04-12T11:38:13Z</time></trkpt><trkpt lat="43.345020621866524" lon="11.5554165179352"><ele>269.2</ele><time>2026-04-12T11:38:14Z</time></trkpt><trkpt lat="43.34512679113621" lon="11.555365950166015"><ele>269.0</ele><time>2026-04-12T11:38:15Z</time></trkpt><trkpt lat="43.34523142150922" lon="11.555312450812297"><ele>269.0</ele><time>2026-04-12T11:38:16Z</time></trkpt><trkpt lat="43.34532943051066" lon="11.555263899797481"><ele>269.0</ele><time>2026-04-12T11:38:17Z</time></trkpt><trkpt lat="43.345426441524225" lon="11.555218001134408"><ele>269.0</ele><time>2026-04-12T11:38:18Z</time></trkpt><trkpt lat="43.34551923736543" lon="11.555169500574085"><ele>269.0</ele><time>2026-04-12T11:38:19Z</time></trkpt><trkpt lat="43.345613158801086" lon="11.555117521017003"><ele>269.0</ele><time>2026-04-12T11:38:20Z</time></trkpt><trkpt lat="43.345700089393524" lon="11.555070052111883"><ele>270.33333333333337</ele><time>2026-04-12T11:38:21Z</time></trkpt><trkpt lat="43.345779435564175" lon="11.555020195098816"><ele>271.6666666666667</ele><time>2026-04-12T11:38:22Z</time></trkpt><trkpt lat="43.345842407545945" lon="11.554951617765973"><ele>273.0</ele><time>2026-04-12T11:38:23Z</time></trkpt><trkpt lat="43.34588689956624" lon="11.5548674710685"><ele>274.3333333333333</ele><time>2026-04-12T11:38:24Z</time></trkpt><trkpt lat="43.3459210688008" lon="11.554766562780472"><ele>275.66666666666663</ele><time>2026-04-12T11:38:25Z</time></trkpt><trkpt lat="43.34594475013194" lon="11.554652209807285"><ele>277.0</ele><time>2026-04-12T11:38:26Z</time></trkpt><trkpt lat="43.34596566879664" lon="11.554519362882171"><ele>277.4</ele><time>2026-04-12T11:38:27Z</time></trkpt><trkpt lat="43.3459817448164" lon="11.55438071027187"><ele>277.79999999999995</ele><time>2026-04-12T11:38:28Z</time></trkpt><trkpt lat="43.345997672200674" lon="11.554233719368689"><ele>278.2</ele><time>2026-04-12T11:38:29Z</time></trkpt><trkpt lat="43.346014862618524" lon="11.554081254529962"><ele>278.59999999999997</ele><time>2026-04-12T11:38:30Z</time></trkpt><trkpt lat="43.34603605422022" lon="11.553926823244078"><ele>279.0</ele><time>2026-04-12T11:38:31Z</time></trkpt><trkpt lat="43.346056751219216" lon="11.553773603539423"><ele>279.75</ele><time>2026-04-12T11:38:32Z</time></trkpt><trkpt lat="43.34607482890702" lon="11.553624980964885"><ele>280.5</ele><time>2026-04-12T11:38:33Z</time></trkpt><trkpt lat="43.346095345015975" lon="11.553469612610135"><ele>281.25</ele><time>2026-04-12T11:38:34Z</time></trkpt><trkpt lat="43.34611112395015" lon="11.553315848125587"><ele>282.0</ele><time>2026-04-12T11:38:35Z</time></trkpt><trkpt lat="43.34613046560207" lon="11.553142227431698"><ele>282.0</ele><time>2026-04-12T11:38:36Z</time></trkpt><trkpt lat="43.346150823776" lon="11.55297232191845"><ele>282.0</ele><time>2026-04-12T11:38:37Z</time></trkpt><trkpt lat="43.34617138904976" lon="11.552797293542412"><ele>282.0</ele><time>2026-04-12T11:38:38.001Z</time></trkpt><trkpt lat="43.34619405540521" lon="11.55262074279665"><ele>282.0</ele><time>2026-04-12T11:38:39.001Z</time></trkpt><trkpt lat="43.34621752673764" lon="11.55244248641521"><ele>282.0</ele><time>2026-04-12T11:38:40.001Z</time></trkpt><trkpt lat="43.346240751115495" lon="11.552268252949268"><ele>282.0</ele><time>2026-04-12T11:38:41.001Z</time></trkpt><trkpt lat="43.34626032184674" lon="11.552105989832793"><ele>282.0</ele><time>2026-04-12T11:38:42.001Z</time></trkpt><trkpt lat="43.34627904146743" lon="11.551960694259648"><ele>282.0</ele><time>2026-04-12T11:38:43.001Z</time></trkpt><trkpt lat="43.34629815624462" lon="11.551831352016896"><ele>282.5</ele><time>2026-04-12T11:38:44.001Z</time></trkpt><trkpt lat="43.3463163109639" lon="11.551710227337525"><ele>283.0</ele><time>2026-04-12T11:38:45.001Z</time></trkpt><trkpt lat="43.350189995368105" lon="11.547044594647558"><ele>292.2</ele><time>2026-04-12T11:39:46Z</time></trkpt><trkpt lat="43.350243072809235" lon="11.546922026666982"><ele>301.4</ele><time>2026-04-12T11:39:47Z</time></trkpt><trkpt lat="43.35028972003251" lon="11.546800002599767"><ele>310.59999999999997</ele><time>2026-04-12T11:39:48Z</time></trkpt><trkpt lat="43.35033343646221" lon="11.546675901949556"><ele>319.8</ele><time>2026-04-12T11:39:49Z</time></trkpt><trkpt lat="43.350376877585916" lon="11.5465456300992"><ele>329.0</ele><time>2026-04-12T11:39:50Z</time></trkpt><trkpt lat="43.350419219108666" lon="11.546415929086411"><ele>329.0</ele><time>2026-04-12T11:39:51Z</time></trkpt><trkpt lat="43.35046210255848" lon="11.546284568007241"><ele>329.0</ele><time>2026-04-12T11:39:52Z</time></trkpt><trkpt lat="43.35050608500082" lon="11.546149840468681"><ele>329.0</ele><time>2026-04-12T11:39:53Z</time></trkpt><trkpt lat="43.35055235880638" lon="11.546012550195256"><ele>329.0</ele><time>2026-04-12T11:39:54Z</time></trkpt><trkpt lat="43.35059799893142" lon="11.54587934336459"><ele>329.0</ele><time>2026-04-12T11:39:55Z</time></trkpt><trkpt lat="43.35063932204946" lon="11.545758736296595"><ele>331.0</ele><time>2026-04-12T11:39:56Z</time></trkpt><trkpt lat="43.35068142865006" lon="11.545635842746329"><ele>333.0</ele><time>2026-04-12T11:39:57Z</time></trkpt><trkpt lat="43.35072273743883" lon="11.545515277402874"><ele>335.0</ele><time>2026-04-12T11:39:58Z</time></trkpt><trkpt lat="43.35076321017037" lon="11.54539731238829"><ele>337.0</ele><time>2026-04-12T11:39:59Z</time></trkpt><trkpt lat="43.350804589933524" lon="11.545276987526716"><ele>339.0</ele><time>2026-04-12T11:40:00Z</time></trkpt><trkpt lat="43.35084697367381" lon="11.545158197067325"><ele>340.5</ele><time>2026-04-12T11:40:01Z</time></trkpt><trkpt lat="43.35088731319679" lon="11.545045136033409"><ele>342.0</ele><time>2026-04-12T11:40:02Z</time></trkpt><trkpt lat="43.350927449902855" lon="11.544930639016385"><ele>343.5</ele><time>2026-04-12T11:40:03Z</time></trkpt><trkpt lat="43.350965029563554" lon="11.544822001605116"><ele>345.0</ele><time>2026-04-12T11:40:04Z</time></trkpt><trkpt lat="43.351002313295844" lon="11.544714219550304"><ele>346.5</ele><time>2026-04-12T11:40:05Z</time></trkpt><trkpt lat="43.351042685571734" lon="11.544608012799738"><ele>348.0</ele><time>2026-04-12T11:40:06Z</time></trkpt><trkpt lat="43.351079608844344" lon="11.544521411834948"><ele>348.6666666666667</ele><time>2026-04-12T11:40:07Z</time></trkpt><trkpt lat="43.35112161423128" lon="11.5444449206388"><ele>349.3333333333333</ele><time>2026-04-12T11:40:08Z</time></trkpt><trkpt lat="43.35116770941537" lon="11.544375320076579"><ele>350.0</ele><time>2026-04-12T11:40:09Z</time></trkpt><trkpt lat="43.35122392882448" lon="11.544319911425726"><ele>350.66666666666663</ele><time>2026-04-12T11:40:10Z</time></trkpt><trkpt lat="43.35127930718318" lon="11.544255810419937"><ele>351.3333333333333</ele><time>2026-04-12T11:40:11Z</time></trkpt><trkpt lat="43.35135974015671" lon="11.544216236724564"><ele>352.0</ele><time>2026-04-12T11:40:12Z</time></trkpt><trkpt lat="43.351435503338074" lon="11.54414800642025"><ele>352.8333333333333</ele><time>2026-04-12T11:40:13Z</time></trkpt><trkpt lat="43.351498991498744" lon="11.544056856792128"><ele>353.66666666666663</ele><time>2026-04-12T11:40:14Z</time></trkpt><trkpt lat="43.35156690004815" lon="11.543982515439176"><ele>354.5</ele><time>2026-04-12T11:40:15Z</time></trkpt><trkpt lat="43.35163026055668" lon="11.543913096928431"><ele>355.3333333333333</ele><time>2026-04-12T11:40:16Z</time></trkpt><trkpt lat="43.35168757993774" lon="11.543821437588145"><ele>356.1666666666667</ele><time>2026-04-12T11:40:17Z</time></trkpt><trkpt lat="43.35174991739153" lon="11.543724070620751"><ele>357.0</ele><time>2026-04-12T11:40:18Z</time></trkpt><trkpt lat="43.35181232332152" lon="11.543603418218298"><ele>357.25</ele><time>2026-04-12T11:40:19Z</time></trkpt><trkpt lat="43.351874543070515" lon="11.5434733565632"><ele>357.5</ele><time>2026-04-12T11:40:20Z</time></trkpt><trkpt lat="43.35193491485855" lon="11.543338239206147"><ele>357.75</ele><time>2026-04-12T11:40:21Z</time></trkpt><trkpt lat="43.35199661527991" lon="11.543192476888663"><ele>358.0</ele><time>2026-04-12T11:40:22Z</time></trkpt><trkpt lat="43.35206041574829" lon="11.54303176926432"><ele>357.5</ele><time>2026-04-12T11:40:23Z</time></trkpt><trkpt lat="43.35210982970929" lon="11.542858377525478"><ele>357.0</ele><time>2026-04-12T11:40:24Z</time></trkpt><trkpt lat="43.35217424961549" lon="11.542688578502213"><ele>356.5</ele><time>2026-04-12T11:40:25Z</time></trkpt><trkpt lat="43.35222711129332" lon="11.54249344633661"><ele>356.0</ele><time>2026-04-12T11:40:26Z</time></trkpt><trkpt lat="43.35227841143552" lon="11.542300566934621"><ele>356.0</ele><time>2026-04-12T11:40:27Z</time></trkpt><trkpt lat="43.35234901775388" lon="11.542151360663349"><ele>356.0</ele><time>2026-04-12T11:40:28Z</time></trkpt><trkpt lat="43.352403616516355" lon="11.542033035276411"><ele>356.0</ele><time>2026-04-12T11:40:29Z</time></trkpt><trkpt lat="43.35247567350284" lon="11.541917477099643"><ele>356.0</ele><time>2026-04-12T11:40:30Z</time></trkpt><trkpt lat="43.35256709542155" lon="11.541814835276789"><ele>357.0</ele><time>2026-04-12T11:40:31Z</time></trkpt><trkpt lat="43.3526790882157" lon="11.54171775205061"><ele>358.0</ele><time>2026-04-12T11:40:32Z</time></trkpt><trkpt lat="43.35279021011428" lon="11.54161605494938"><ele>359.0</ele><time>2026-04-12T11:40:33Z</time></trkpt><trkpt lat="43.35290099663671" lon="11.541499440359821"><ele>360.0</ele><time>2026-04-12T11:40:34Z</time></trkpt><trkpt lat="43.3530285301335" lon="11.541409822800318"><ele>360.0</ele><time>2026-04-12T11:40:35Z</time></trkpt><trkpt lat="43.3531475412583" lon="11.54132250037161"><ele>360.0</ele><time>2026-04-12T11:40:36Z</time></trkpt><trkpt lat="43.35325689078749" lon="11.541249103174154"><ele>360.0</ele><time>2026-04-12T11:40:37Z</time></trkpt><trkpt lat="43.35335364296968" lon="11.54114897867679"><ele>360.0</ele><time>2026-04-12T11:40:38Z</time></trkpt><trkpt lat="43.35344630253026" lon="11.541031160868247"><ele>360.5</ele><time>2026-04-12T11:40:39Z</time></trkpt><trkpt lat="43.35355180086102" lon="11.54092365818839"><ele>361.0</ele><time>2026-04-12T11:40:40.001Z</time></trkpt><trkpt lat="43.35364290845959" lon="11.54080977370844"><ele>361.5</ele><time>2026-04-12T11:40:41.001Z</time></trkpt><trkpt lat="43.35372784526753" lon="11.540683373476828"><ele>362.0</ele><time>2026-04-12T11:40:42.001Z</time></trkpt><trkpt lat="43.35382308077852" lon="11.540564289570202"><ele>362.0</ele><time>2026-04-12T11:40:43.001Z</time></trkpt><trkpt lat="43.3539132665633" lon="11.540436041786958"><ele>362.0</ele><time>2026-04-12T11:40:44.001Z</time></trkpt><trkpt lat="43.35399992065686" lon="11.540307866831325"><ele>362.0</ele><time>2026-04-12T11:40:45.001Z</time></trkpt><trkpt lat="43.358972411309175" lon="11.537540438727296"><ele>363.0</ele><time>2026-04-12T11:41:46Z</time></trkpt><trkpt lat="43.35908052966852" lon="11.537664041569771"><ele>364.0</ele><time>2026-04-12T11:41:47Z</time></trkpt><trkpt lat="43.35918043994319" lon="11.53779846988736"><ele>365.0</ele><time>2026-04-12T11:41:48Z</time></trkpt><trkpt lat="43.35927522065001" lon="11.537940140254369"><ele>366.0</ele><time>2026-04-12T11:41:49Z</time></trkpt><trkpt lat="43.35936285831199" lon="11.538077313567037"><ele>366.75</ele><time>2026-04-12T11:41:50Z</time></trkpt><trkpt lat="43.359456113933646" lon="11.5382013848948"><ele>367.5</ele><time>2026-04-12T11:41:51Z</time></trkpt><trkpt lat="43.359552713874386" lon="11.538315074611724"><ele>368.25</ele><time>2026-04-12T11:41:52Z</time></trkpt><trkpt lat="43.359647630746174" lon="11.53841627956754"><ele>369.0</ele><time>2026-04-12T11:41:53Z</time></trkpt><trkpt lat="43.359744419194406" lon="11.538486073714777"><ele>369.25</ele><time>2026-04-12T11:41:54Z</time></trkpt><trkpt lat="43.35985066252814" lon="11.538542416792676"><ele>369.5</ele><time>2026-04-12T11:41:55Z</time></trkpt><trkpt lat="43.3599691291682" lon="11.538569167229959"><ele>369.75</ele><time>2026-04-12T11:41:56Z</time></trkpt><trkpt lat="43.36009289779001" lon="11.538596958443687"><ele>370.0</ele><time>2026-04-12T11:41:57Z</time></trkpt><trkpt lat="43.36020704712377" lon="11.538637918845223"><ele>370.0</ele><time>2026-04-12T11:41:58Z</time></trkpt><trkpt lat="43.360314929692066" lon="11.538664537838596"><ele>370.0</ele><time>2026-04-12T11:41:59Z</time></trkpt><trkpt lat="43.36041069810772" lon="11.538665692578292"><ele>370.0</ele><time>2026-04-12T11:42:00Z</time></trkpt><trkpt lat="43.36050277463077" lon="11.53866967693608"><ele>370.0</ele><time>2026-04-12T11:42:01Z</time></trkpt><trkpt lat="43.360599895539366" lon="11.538670149366219"><ele>370.0</ele><time>2026-04-12T11:42:02Z</time></trkpt><trkpt lat="43.36070880445211" lon="11.53865156097982"><ele>371.0</ele><time>2026-04-12T11:42:03Z</time></trkpt><trkpt lat="43.36082352906478" lon="11.538622724294955"><ele>372.0</ele><time>2026-04-12T11:42:04Z</time></trkpt><trkpt lat="43.36094916185899" lon="11.538582182947298"><ele>373.0</ele><time>2026-04-12T11:42:05Z</time></trkpt><trkpt lat="43.36107682420019" lon="11.538509251269003"><ele>374.0</ele><time>2026-04-12T11:42:06Z</time></trkpt><trkpt lat="43.3611964092491" lon="11.538443553449552"><ele>374.0</ele><time>2026-04-12T11:42:07Z</time></trkpt><trkpt lat="43.36130895353492" lon="11.538348174773025"><ele>374.0</ele><time>2026-04-12T11:42:08Z</time></trkpt><trkpt lat="43.36143494926687" lon="11.538265155747789"><ele>374.0</ele><time>2026-04-12T11:42:09Z</time></trkpt><trkpt lat="43.361551878542784" lon="11.53815856262408"><ele>374.0</ele><time>2026-04-12T11:42:10Z</time></trkpt><trkpt lat="43.361656661560964" lon="11.538050722033072"><ele>374.5</ele><time>2026-04-12T11:42:11Z</time></trkpt><trkpt lat="43.361758688148214" lon="11.537962902469422"><ele>375.0</ele><time>2026-04-12T11:42:12Z</time></trkpt><trkpt lat="43.36186556718849" lon="11.537894623489303"><ele>375.5</ele><time>2026-04-12T11:42:13Z</time></trkpt><trkpt lat="43.361987458974696" lon="11.537831291668587"><ele>376.0</ele><time>2026-04-12T11:42:14Z</time></trkpt><trkpt lat="43.36212643988397" lon="11.537766938913173"><ele>375.75</ele><time>2026-04-12T11:42:15Z</time></trkpt><trkpt lat="43.362261436409206" lon="11.537693719324249"><ele>375.5</ele><time>2026-04-12T11:42:16Z</time></trkpt><trkpt lat="43.36240247486431" lon="11.537633240543851"><ele>375.25</ele><time>2026-04-12T11:42:17Z</time></trkpt><trkpt lat="43.36254979463506" lon="11.537574615000537"><ele>375.0</ele><time>2026-04-12T11:42:18Z</time></trkpt><trkpt lat="43.362696078548446" lon="11.53751940424893"><ele>375.0</ele><time>2026-04-12T11:42:19Z</time></trkpt><trkpt lat="43.36283072288715" lon="11.537469728547435"><ele>375.0</ele><time>2026-04-12T11:42:20Z</time></trkpt><trkpt lat="43.362948856207424" lon="11.5374234637772"><ele>375.0</ele><time>2026-04-12T11:42:21Z</time></trkpt><trkpt lat="43.36305483027404" lon="11.53736704837538"><ele>375.0</ele><time>2026-04-12T11:42:22Z</time></trkpt><trkpt lat="43.36315269729573" lon="11.537270031991744"><ele>375.25</ele><time>2026-04-12T11:42:23Z</time></trkpt><trkpt lat="43.363239500899624" lon="11.537140626986757"><ele>375.5</ele><time>2026-04-12T11:42:24Z</time></trkpt><trkpt lat="43.36331266830928" lon="11.536982386537609"><ele>375.75</ele><time>2026-04-12T11:42:25Z</time></trkpt><trkpt lat="43.3633720432241" lon="11.53680054903548"><ele>376.0</ele><time>2026-04-12T11:42:26Z</time></trkpt><trkpt lat="43.3634346827966" lon="11.536615217432683"><ele>376.0</ele><time>2026-04-12T11:42:27Z</time></trkpt><trkpt lat="43.36348668601013" lon="11.536416887291182"><ele>376.0</ele><time>2026-04-12T11:42:28Z</time></trkpt><trkpt lat="43.363528273897714" lon="11.536249310240853"><ele>376.0</ele><time>2026-04-12T11:42:29Z</time></trkpt><trkpt lat="43.36357325398202" lon="11.536126246682437"><ele>376.0</ele><time>2026-04-12T11:42:30Z</time></trkpt><trkpt lat="43.363633127663476" lon="11.536031002665444"><ele>376.25</ele><time>2026-04-12T11:42:31Z</time></trkpt><trkpt lat="43.363720812364136" lon="11.53593556283278"><ele>376.5</ele><time>2026-04-12T11:42:32Z</time></trkpt><trkpt lat="43.36383529889239" lon="11.535815415245327"><ele>376.75</ele><time>2026-04-12T11:42:33Z</time></trkpt><trkpt lat="43.363954257361506" lon="11.535705431630335"><ele>377.0</ele><time>2026-04-12T11:42:34Z</time></trkpt><trkpt lat="43.36406378082722" lon="11.53560387064391"><ele>377.0</ele><time>2026-04-12T11:42:35Z</time></trkpt><trkpt lat="43.36415012470563" lon="11.535499448550286"><ele>377.0</ele><time>2026-04-12T11:42:36Z</time></trkpt><trkpt lat="43.36424775979337" lon="11.535411801272346"><ele>377.0</ele><time>2026-04-12T11:42:37Z</time></trkpt><trkpt lat="43.364327224317506" lon="11.535305166370742"><ele>377.0</ele><time>2026-04-12T11:42:38Z</time></trkpt><trkpt lat="43.364386738283144" lon="11.535168520479886"><ele>377.0</ele><time>2026-04-12T11:42:39Z</time></trkpt><trkpt lat="43.364441210477274" lon="11.535022018855766"><ele>377.0</ele><time>2026-04-12T11:42:40Z</time></trkpt><trkpt lat="43.3645060394057" lon="11.534915073131224"><ele>377.0</ele><time>2026-04-12T11:42:41Z</time></trkpt><trkpt lat="43.364547587949716" lon="11.534820946298728"><ele>377.0</ele><time>2026-04-12T11:42:42Z</time></trkpt><trkpt lat="43.36464164266628" lon="11.534818237507139"><ele>377.0</ele><time>2026-04-12T11:42:43Z</time></trkpt><trkpt lat="43.3646827015031" lon="11.534750114024392"><ele>355.0</ele><time>2026-04-12T11:42:44Z</time></trkpt><trkpt lat="43.36589673938971" lon="11.529032422661142"><ele>355.0</ele><time>2026-04-12T11:43:46Z</time></trkpt><trkpt lat="43.365923716686225" lon="11.528889263189477"><ele>355.0</ele><time>2026-04-12T11:44:14.001Z</time></trkpt><trkpt lat="43.36595153421957" lon="11.528774711852243"><ele>355.0</ele><time>2026-04-12T11:44:15.001Z</time></trkpt><trkpt lat="43.36598507408573" lon="11.528623251459887"><ele>355.0</ele><time>2026-04-12T11:44:16.001Z</time></trkpt><trkpt lat="43.36604337964383" lon="11.528451330205113"><ele>355.0</ele><time>2026-04-12T11:44:17.001Z</time></trkpt><trkpt lat="43.36609037736101" lon="11.528275149026571"><ele>354.8</ele><time>2026-04-12T11:44:18.001Z</time></trkpt><trkpt lat="43.36613581046664" lon="11.5281201554261"><ele>354.6</ele><time>2026-04-12T11:44:19.001Z</time></trkpt><trkpt lat="43.36618416934044" lon="11.52799632616649"><ele>354.4</ele><time>2026-04-12T11:44:20.001Z</time></trkpt><trkpt lat="43.36622869100769" lon="11.52791060808875"><ele>354.2</ele><time>2026-04-12T11:44:21.001Z</time></trkpt><trkpt lat="43.36629380633922" lon="11.527847555143058"><ele>354.0</ele><time>2026-04-12T11:44:22.001Z</time></trkpt><trkpt lat="43.36639658454702" lon="11.527744580687306"><ele>353.1666666666667</ele><time>2026-04-12T11:44:23.001Z</time></trkpt><trkpt lat="43.366484472705054" lon="11.527607190867162"><ele>352.3333333333333</ele><time>2026-04-12T11:44:24.001Z</time></trkpt><trkpt lat="43.366539850882646" lon="11.527507382194486"><ele>351.5</ele><time>2026-04-12T11:44:25.001Z</time></trkpt><trkpt lat="43.3665746946047" lon="11.527399925124397"><ele>350.66666666666663</ele><time>2026-04-12T11:44:26.001Z</time></trkpt><trkpt lat="43.36662378515135" lon="11.527330188247786"><ele>349.8333333333333</ele><time>2026-04-12T11:44:27.001Z</time></trkpt><trkpt lat="43.366668578785394" lon="11.527268711923993"><ele>349.0</ele><time>2026-04-12T11:44:28.001Z</time></trkpt><trkpt lat="43.36673024612166" lon="11.52718227542096"><ele>349.0</ele><time>2026-04-12T11:44:29.001Z</time></trkpt><trkpt lat="43.366800560876165" lon="11.527074428570035"><ele>349.0</ele><time>2026-04-12T11:44:30.001Z</time></trkpt><trkpt lat="43.36683204057443" lon="11.526911847613759"><ele>349.0</ele><time>2026-04-12T11:44:31.001Z</time></trkpt><trkpt lat="43.36689529780609" lon="11.526757090719808"><ele>349.0</ele><time>2026-04-12T11:44:32.001Z</time></trkpt><trkpt lat="43.366971053391794" lon="11.52658286642291"><ele>349.5</ele><time>2026-04-12T11:44:33.001Z</time></trkpt><trkpt lat="43.3670434426572" lon="11.526419441388317"><ele>350.0</ele><time>2026-04-12T11:44:34.001Z</time></trkpt><trkpt lat="43.3671095844994" lon="11.526275903637844"><ele>350.5</ele><time>2026-04-12T11:44:35.001Z</time></trkpt><trkpt lat="43.367197496034954" lon="11.526159475890674"><ele>351.0</ele><time>2026-04-12T11:44:36.001Z</time></trkpt><trkpt lat="43.367290751572725" lon="11.526045249905454"><ele>352.75</ele><time>2026-04-12T11:44:37.001Z</time></trkpt><trkpt lat="43.36738435015085" lon="11.525913262333184"><ele>354.5</ele><time>2026-04-12T11:44:38.001Z</time></trkpt><trkpt lat="43.36749838288107" lon="11.52579955353858"><ele>356.25</ele><time>2026-04-12T11:44:39.001Z</time></trkpt><trkpt lat="43.36762140495353" lon="11.525671675231163"><ele>358.0</ele><time>2026-04-12T11:44:40.001Z</time></trkpt><trkpt lat="43.36773492593687" lon="11.525543266339925"><ele>358.0</ele><time>2026-04-12T11:44:41.001Z</time></trkpt><trkpt lat="43.36785409553526" lon="11.525416834188023"><ele>358.0</ele><time>2026-04-12T11:44:42.001Z</time></trkpt><trkpt lat="43.36797043832658" lon="11.525293955443065"><ele>358.0</ele><time>2026-04-12T11:44:43.001Z</time></trkpt><trkpt lat="43.368077802364596" lon="11.525166552320027"><ele>358.0</ele><time>2026-04-12T11:44:44.001Z</time></trkpt><trkpt lat="43.36817872079628" lon="11.525056654791666"><ele>444.0</ele><time>2026-04-12T11:44:45.001Z</time></trkpt><trkpt lat="43.37626395505234" lon="11.52104304487881"><ele>444.75</ele><time>2026-04-12T11:45:46Z</time></trkpt><trkpt lat="43.376376915978724" lon="11.52102927213176"><ele>445.5</ele><time>2026-04-12T11:45:47Z</time></trkpt><trkpt lat="43.37649674753375" lon="11.521016901734484"><ele>446.25</ele><time>2026-04-12T11:45:48Z</time></trkpt><trkpt lat="43.37662453417883" lon="11.521019609167956"><ele>447.0</ele><time>2026-04-12T11:45:49Z</time></trkpt><trkpt lat="43.37676702210357" lon="11.521026886937833"><ele>447.0</ele><time>2026-04-12T11:45:50Z</time></trkpt><trkpt lat="43.3769196465646" lon="11.52102674410673"><ele>447.0</ele><time>2026-04-12T11:45:51Z</time></trkpt><trkpt lat="43.37707633120107" lon="11.521059280875074"><ele>447.0</ele><time>2026-04-12T11:45:52Z</time></trkpt><trkpt lat="43.3772460928671" lon="11.521083606225238"><ele>447.66666666666663</ele><time>2026-04-12T11:45:53Z</time></trkpt><trkpt lat="43.37740907694425" lon="11.521114835470796"><ele>448.3333333333333</ele><time>2026-04-12T11:45:54Z</time></trkpt><trkpt lat="43.37755861029636" lon="11.521132019738515"><ele>449.0</ele><time>2026-04-12T11:45:55Z</time></trkpt><trkpt lat="43.377699962517994" lon="11.521188192125576"><ele>448.0</ele><time>2026-04-12T11:45:56Z</time></trkpt><trkpt lat="43.377838515836565" lon="11.52124356769042"><ele>447.0</ele><time>2026-04-12T11:45:57Z</time></trkpt><trkpt lat="43.377979042736975" lon="11.521301656974778"><ele>446.0</ele><time>2026-04-12T11:45:58Z</time></trkpt><trkpt lat="43.37813159834394" lon="11.521367372950708"><ele>446.0</ele><time>2026-04-12T11:45:59Z</time></trkpt><trkpt lat="43.378283659511105" lon="11.521444032839156"><ele>446.0</ele><time>2026-04-12T11:46:00Z</time></trkpt><trkpt lat="43.378424290284514" lon="11.521512965882865"><ele>446.0</ele><time>2026-04-12T11:46:01Z</time></trkpt><trkpt lat="43.37854466605334" lon="11.521569329898611"><ele>446.0</ele><time>2026-04-12T11:46:02Z</time></trkpt><trkpt lat="43.37865447263161" lon="11.521615185497335"><ele>445.99999999999994</ele><time>2026-04-12T11:46:03Z</time></trkpt><trkpt lat="43.37875040344111" lon="11.521665551662547"><ele>446.0</ele><time>2026-04-12T11:46:04Z</time></trkpt><trkpt lat="43.37883584406707" lon="11.521710961296439"><ele>446.0</ele><time>2026-04-12T11:46:05.001Z</time></trkpt><trkpt lat="43.37891565426932" lon="11.521757103149586"><ele>446.0</ele><time>2026-04-12T11:46:06.001Z</time></trkpt><trkpt lat="43.37898511149413" lon="11.52179881384693"><ele>445.99999999999994</ele><time>2026-04-12T11:46:07.001Z</time></trkpt><trkpt lat="43.379045892409465" lon="11.521829248336728"><ele>446.0</ele><time>2026-04-12T11:46:08.001Z</time></trkpt><trkpt lat="43.379142610477665" lon="11.521769216420946"><ele>445.0</ele><time>2026-04-12T11:46:10.001Z</time></trkpt><trkpt lat="43.37919329656696" lon="11.52171585505972"><ele>444.0</ele><time>2026-04-12T11:46:11.001Z</time></trkpt><trkpt lat="43.37919085703335" lon="11.521600238950704"><ele>443.0</ele><time>2026-04-12T11:46:12.001Z</time></trkpt><trkpt lat="43.3792257157585" lon="11.521481674471808"><ele>442.0</ele><time>2026-04-12T11:46:13.001Z</time></trkpt><trkpt lat="43.37924835493076" lon="11.521319599781075"><ele>441.0</ele><time>2026-04-12T11:46:14.001Z</time></trkpt><trkpt lat="43.37927322429035" lon="11.521134968520053"><ele>439.33333333333337</ele><time>2026-04-12T11:46:15.001Z</time></trkpt><trkpt lat="43.37930723094175" lon="11.520931464423105"><ele>437.6666666666667</ele><time>2026-04-12T11:46:16.001Z</time></trkpt><trkpt lat="43.37934409201753" lon="11.520726815594672"><ele>436.0</ele><time>2026-04-12T11:46:17.001Z</time></trkpt><trkpt lat="43.37938023912033" lon="11.520526130325544"><ele>434.75</ele><time>2026-04-12T11:46:18.001Z</time></trkpt><trkpt lat="43.37941356357929" lon="11.520332033491261"><ele>433.5</ele><time>2026-04-12T11:46:19.001Z</time></trkpt><trkpt lat="43.37944576253312" lon="11.520132218316528"><ele>432.25</ele><time>2026-04-12T11:46:20.001Z</time></trkpt><trkpt lat="43.37947802771081" lon="11.519929201512051"><ele>431.0</ele><time>2026-04-12T11:46:21.001Z</time></trkpt><trkpt lat="43.379511936644185" lon="11.51971504389266"><ele>428.66666666666663</ele><time>2026-04-12T11:46:22.001Z</time></trkpt><trkpt lat="43.37954521698589" lon="11.519504856130137"><ele>426.33333333333337</ele><time>2026-04-12T11:46:23.001Z</time></trkpt><trkpt lat="43.37957850242606" lon="11.519294636249121"><ele>424.0</ele><time>2026-04-12T11:46:24.001Z</time></trkpt><trkpt lat="43.37961262231461" lon="11.519079146199697"><ele>424.0</ele><time>2026-04-12T11:46:25.001Z</time></trkpt><trkpt lat="43.37964441378912" lon="11.518878361938095"><ele>424.0</ele><time>2026-04-12T11:46:26.001Z</time></trkpt><trkpt lat="43.37967828877938" lon="11.51866441857555"><ele>424.0</ele><time>2026-04-12T11:46:27.001Z</time></trkpt><trkpt lat="43.3797119919207" lon="11.518451560628863"><ele>422.6666666666667</ele><time>2026-04-12T11:46:28.001Z</time></trkpt><trkpt lat="43.379745353231435" lon="11.518243248411986"><ele>421.33333333333337</ele><time>2026-04-12T11:46:29.001Z</time></trkpt><trkpt lat="43.379779668151365" lon="11.518029401115424"><ele>420.0</ele><time>2026-04-12T11:46:30.001Z</time></trkpt><trkpt lat="43.37981369206812" lon="11.517817367543813"><ele>419.33333333333337</ele><time>2026-04-12T11:46:31.001Z</time></trkpt><trkpt lat="43.379848449048424" lon="11.51760234166536"><ele>418.6666666666667</ele><time>2026-04-12T11:46:32.001Z</time></trkpt><trkpt lat="43.379869469826176" lon="11.517383479636102"><ele>418.0</ele><time>2026-04-12T11:46:33.001Z</time></trkpt><trkpt lat="43.37990568963842" lon="11.517162025018227"><ele>417.33333333333337</ele><time>2026-04-12T11:46:34.001Z</time></trkpt><trkpt lat="43.37995545325146" lon="11.51694658444824"><ele>416.66666666666663</ele><time>2026-04-12T11:46:35.001Z</time></trkpt><trkpt lat="43.37997697756087" lon="11.516717148125169"><ele>416.0</ele><time>2026-04-12T11:46:36.001Z</time></trkpt><trkpt lat="43.38002864545786" lon="11.516499264295696"><ele>416.0</ele><time>2026-04-12T11:46:37.001Z</time></trkpt><trkpt lat="43.380064277034954" lon="11.51628134267329"><ele>416.0</ele><time>2026-04-12T11:46:38.001Z</time></trkpt><trkpt lat="43.380100521007016" lon="11.516059675775056"><ele>416.0</ele><time>2026-04-12T11:46:39.001Z</time></trkpt><trkpt lat="43.38013669748656" lon="11.51583842145761"><ele>415.0</ele><time>2026-04-12T11:46:40.001Z</time></trkpt><trkpt lat="43.38017225792951" lon="11.51561682322297"><ele>414.0</ele><time>2026-04-12T11:46:41.001Z</time></trkpt><trkpt lat="43.38020878926654" lon="11.515388109695913"><ele>413.0</ele><time>2026-04-12T11:46:42.001Z</time></trkpt><trkpt lat="43.380246010123955" lon="11.515155080133637"><ele>411.3333333333333</ele><time>2026-04-12T11:46:43.001Z</time></trkpt><trkpt lat="43.380283238259025" lon="11.514926747578924"><ele>409.66666666666663</ele><time>2026-04-12T11:46:44.001Z</time></trkpt><trkpt lat="43.38032171453021" lon="11.514691525757437"><ele>408.0</ele><time>2026-04-12T11:46:45.001Z</time></trkpt><trkpt lat="43.38110910227841" lon="11.510920370203777"><ele>408.0</ele><time>2026-04-12T11:47:46Z</time></trkpt><trkpt lat="43.38105964441685" lon="11.51086622091264"><ele>408.0</ele><time>2026-04-12T11:47:57Z</time></trkpt><trkpt lat="43.38118076163585" lon="11.510857868260612"><ele>408.0</ele><time>2026-04-12T11:48:00Z</time></trkpt><trkpt lat="43.38125111686968" lon="11.510852639517404"><ele>408.0</ele><time>2026-04-12T11:48:01Z</time></trkpt><trkpt lat="43.381333354395345" lon="11.510839520649256"><ele>408.0</ele><time>2026-04-12T11:48:02Z</time></trkpt><trkpt lat="43.38143467931326" lon="11.510822021261802"><ele>408.0</ele><time>2026-04-12T11:48:03Z</time></trkpt><trkpt lat="43.381536313005746" lon="11.510807698452194"><ele>408.59999999999997</ele><time>2026-04-12T11:48:04Z</time></trkpt><trkpt lat="43.38165256244575" lon="11.510788506206785"><ele>409.2</ele><time>2026-04-12T11:48:05Z</time></trkpt><trkpt lat="43.38176189861013" lon="11.510776217065493"><ele>409.8</ele><time>2026-04-12T11:48:06.001Z</time></trkpt><trkpt lat="43.38186978214319" lon="11.510758292236458"><ele>410.4</ele><time>2026-04-12T11:48:07.001Z</time></trkpt><trkpt lat="43.38196523027317" lon="11.510750456570978"><ele>411.0</ele><time>2026-04-12T11:48:08.001Z</time></trkpt><trkpt lat="43.382051385218105" lon="11.5107280957716"><ele>411.0</ele><time>2026-04-12T11:48:09.001Z</time></trkpt><trkpt lat="43.382132267058154" lon="11.510714361624652"><ele>411.0</ele><time>2026-04-12T11:48:10.001Z</time></trkpt><trkpt lat="43.382208423874054" lon="11.51069987478566"><ele>411.0</ele><time>2026-04-12T11:48:11.001Z</time></trkpt><trkpt lat="43.3822897230263" lon="11.510685578625807"><ele>411.0</ele><time>2026-04-12T11:48:12.001Z</time></trkpt><trkpt lat="43.38237423487783" lon="11.51067097344161"><ele>411.0</ele><time>2026-04-12T11:48:13.001Z</time></trkpt><trkpt lat="43.382455321182526" lon="11.510650088673588"><ele>411.0</ele><time>2026-04-12T11:48:14.001Z</time></trkpt><trkpt lat="43.38253993704519" lon="11.510639816957353"><ele>411.1666666666667</ele><time>2026-04-12T11:48:15.001Z</time></trkpt><trkpt lat="43.3826241883351" lon="11.510628593783478"><ele>411.33333333333337</ele><time>2026-04-12T11:48:16.001Z</time></trkpt><trkpt lat="43.382711339995815" lon="11.51061414472268"><ele>411.5</ele><time>2026-04-12T11:48:17.001Z</time></trkpt><trkpt lat="43.38279691352546" lon="11.510604105342336"><ele>411.6666666666667</ele><time>2026-04-12T11:48:18.001Z</time></trkpt><trkpt lat="43.382882054511946" lon="11.51059119734925"><ele>411.83333333333337</ele><time>2026-04-12T11:48:19.001Z</time></trkpt><trkpt lat="43.38297118942711" lon="11.510573875950437"><ele>412.0</ele><time>2026-04-12T11:48:20.001Z</time></trkpt><trkpt lat="43.38306261892093" lon="11.510562548900433"><ele>412.8</ele><time>2026-04-12T11:48:21.001Z</time></trkpt><trkpt lat="43.383157510599695" lon="11.510544493664291"><ele>413.6</ele><time>2026-04-12T11:48:22.001Z</time></trkpt><trkpt lat="43.383254809038" lon="11.510523544056532"><ele>414.40000000000003</ele><time>2026-04-12T11:48:23.001Z</time></trkpt><trkpt lat="43.38335637407861" lon="11.510509521947865"><ele>415.20000000000005</ele><time>2026-04-12T11:48:24.001Z</time></trkpt><trkpt lat="43.383454533151294" lon="11.510494532641408"><ele>416.0</ele><time>2026-04-12T11:48:25.001Z</time></trkpt><trkpt lat="43.383553270640796" lon="11.510481507865292"><ele>416.0</ele><time>2026-04-12T11:48:26.001Z</time></trkpt><trkpt lat="43.38365161496736" lon="11.510466873352868"><ele>416.0</ele><time>2026-04-12T11:48:27.001Z</time></trkpt><trkpt lat="43.38375348425806" lon="11.510449113130344"><ele>416.0</ele><time>2026-04-12T11:48:28.001Z</time></trkpt><trkpt lat="43.383855772928364" lon="11.510428097822222"><ele>416.0</ele><time>2026-04-12T11:48:29.001Z</time></trkpt><trkpt lat="43.38396092348577" lon="11.510409933567392"><ele>416.0</ele><time>2026-04-12T11:48:30.001Z</time></trkpt><trkpt lat="43.3840685216818" lon="11.510391989346282"><ele>417.4</ele><time>2026-04-12T11:48:31.001Z</time></trkpt><trkpt lat="43.384173586293414" lon="11.510378004668057"><ele>418.8</ele><time>2026-04-12T11:48:32.001Z</time></trkpt><trkpt lat="43.38427524502382" lon="11.510367687582942"><ele>420.2</ele><time>2026-04-12T11:48:33.001Z</time></trkpt><trkpt lat="43.38436494678611" lon="11.510356136894046"><ele>421.59999999999997</ele><time>2026-04-12T11:48:34.001Z</time></trkpt><trkpt lat="43.38446122864783" lon="11.510344785521614"><ele>423.0</ele><time>2026-04-12T11:48:35.001Z</time></trkpt><trkpt lat="43.38454757752856" lon="11.5103295363381"><ele>423.0</ele><time>2026-04-12T11:48:36.001Z</time></trkpt><trkpt lat="43.38463275705943" lon="11.510309799736302"><ele>423.0</ele><time>2026-04-12T11:48:37.001Z</time></trkpt><trkpt lat="43.38472360076681" lon="11.510305663462335"><ele>423.0</ele><time>2026-04-12T11:48:38.001Z</time></trkpt><trkpt lat="43.384806866966706" lon="11.510289030828488"><ele>423.0</ele><time>2026-04-12T11:48:39.001Z</time></trkpt><trkpt lat="43.384872842035975" lon="11.51027700467735"><ele>423.0</ele><time>2026-04-12T11:48:40.001Z</time></trkpt><trkpt lat="43.38496888820084" lon="11.510254530196098"><ele>423.0</ele><time>2026-04-12T11:48:42.001Z</time></trkpt><trkpt lat="43.385033066388154" lon="11.510274563685972"><ele>424.75</ele><time>2026-04-12T11:48:44.001Z</time></trkpt><trkpt lat="43.38517161000384" lon="11.51004352748459"><ele>426.5</ele><time>2026-04-12T11:49:45.999Z</time></trkpt><trkpt lat="43.38507771105852" lon="11.51011514962947"><ele>428.25</ele><time>2026-04-12T11:49:47.999Z</time></trkpt><trkpt lat="43.38502989462518" lon="11.51019059709921"><ele>430.0</ele><time>2026-04-12T11:49:48.999Z</time></trkpt><trkpt lat="43.38497218066367" lon="11.5102656924899"><ele>430.0</ele><time>2026-04-12T11:49:49.999Z</time></trkpt><trkpt lat="43.3848988403937" lon="11.51029514229582"><ele>430.0</ele><time>2026-04-12T11:49:50.999Z</time></trkpt><trkpt lat="43.38479182671538" lon="11.510260006608911"><ele>430.0</ele><time>2026-04-12T11:49:51.999Z</time></trkpt><trkpt lat="43.38466057745333" lon="11.51030115170398"><ele>430.0</ele><time>2026-04-12T11:49:52.999Z</time></trkpt><trkpt lat="43.38452472017617" lon="11.510317363681422"><ele>427.6666666666667</ele><time>2026-04-12T11:49:53.999Z</time></trkpt><trkpt lat="43.38437980399119" lon="11.510339313650434"><ele>425.33333333333337</ele><time>2026-04-12T11:49:54.999Z</time></trkpt><trkpt lat="43.38422094472379" lon="11.510335223972602"><ele>423.0</ele><time>2026-04-12T11:49:55.999Z</time></trkpt><trkpt lat="43.3840455721129" lon="11.510358711806377"><ele>423.0</ele><time>2026-04-12T11:49:56.999Z</time></trkpt><trkpt lat="43.38385610623564" lon="11.510392556403712"><ele>423.0</ele><time>2026-04-12T11:49:57.999Z</time></trkpt><trkpt lat="43.38365780449973" lon="11.510430105128426"><ele>423.0</ele><time>2026-04-12T11:49:58.999Z</time></trkpt><trkpt lat="43.383448460761436" lon="11.510465156809673"><ele>420.66666666666663</ele><time>2026-04-12T11:49:59.999Z</time></trkpt><trkpt lat="43.38325183748474" lon="11.51049660983007"><ele>418.3333333333333</ele><time>2026-04-12T11:50:00.999Z</time></trkpt><trkpt lat="43.383072590019715" lon="11.510525282034257"><ele>416.0</ele><time>2026-04-12T11:50:02Z</time></trkpt><trkpt lat="43.382897029814195" lon="11.51055336567711"><ele>414.66666666666663</ele><time>2026-04-12T11:50:03Z</time></trkpt><trkpt lat="43.38273087396745" lon="11.510579956263598"><ele>413.33333333333337</ele><time>2026-04-12T11:50:04Z</time></trkpt><trkpt lat="43.38255753106566" lon="11.510607709326168"><ele>412.0</ele><time>2026-04-12T11:50:05Z</time></trkpt><trkpt lat="43.382399941725495" lon="11.510632940162195"><ele>412.0</ele><time>2026-04-12T11:50:06Z</time></trkpt><trkpt lat="43.382232371901324" lon="11.510660441068186"><ele>412.0</ele><time>2026-04-12T11:50:07Z</time></trkpt><trkpt lat="43.38207819678588" lon="11.51068995312742"><ele>412.0</ele><time>2026-04-12T11:50:08Z</time></trkpt><trkpt lat="43.38192988447075" lon="11.510719545026813"><ele>411.75</ele><time>2026-04-12T11:50:09Z</time></trkpt><trkpt lat="43.38178488233694" lon="11.510766034398872"><ele>411.5</ele><time>2026-04-12T11:50:10Z</time></trkpt><trkpt lat="43.381637469768236" lon="11.510781493649846"><ele>411.25</ele><time>2026-04-12T11:50:11Z</time></trkpt><trkpt lat="43.381497038816235" lon="11.51080750372802"><ele>411.0</ele><time>2026-04-12T11:50:12Z</time></trkpt><trkpt lat="43.38136442021514" lon="11.51079981337796"><ele>410.4</ele><time>2026-04-12T11:50:13Z</time></trkpt><trkpt lat="43.381260539052306" lon="11.510808892935485"><ele>409.8</ele><time>2026-04-12T11:50:14Z</time></trkpt><trkpt lat="43.381187199801964" lon="11.510813308006941"><ele>409.2</ele><time>2026-04-12T11:50:15Z</time></trkpt><trkpt lat="43.381111323463685" lon="11.51081113598283"><ele>408.59999999999997</ele><time>2026-04-12T11:50:17Z</time></trkpt><trkpt lat="43.38123590970253" lon="11.510746037180372"><ele>408.0</ele><time>2026-04-12T11:50:24Z</time></trkpt><trkpt lat="43.381292395305934" lon="11.51068405541221"><ele>408.0</ele><time>2026-04-12T11:50:25Z</time></trkpt><trkpt lat="43.38134725515766" lon="11.510626003645957"><ele>408.0</ele><time>2026-04-12T11:50:26Z</time></trkpt><trkpt lat="43.38141106140413" lon="11.510560758563598"><ele>408.0</ele><time>2026-04-12T11:50:27Z</time></trkpt><trkpt lat="43.38149683818572" lon="11.510502156680012"><ele>408.0</ele><time>2026-04-12T11:50:29Z</time></trkpt><trkpt lat="43.38157952181385" lon="11.510457781083892"><ele>408.0</ele><time>2026-04-12T11:50:31Z</time></trkpt><trkpt lat="43.38190080870965" lon="11.510912357870573"><ele>408.5</ele><time>2026-04-12T11:50:34Z</time></trkpt><trkpt lat="43.38197698596977" lon="11.510879413357323"><ele>409.0</ele><time>2026-04-12T11:50:36Z</time></trkpt><trkpt lat="43.382026920949606" lon="11.51081965016426"><ele>409.5</ele><time>2026-04-12T11:50:37Z</time></trkpt><trkpt lat="43.382084788278824" lon="11.510780734360807"><ele>410.0</ele><time>2026-04-12T11:50:38Z</time></trkpt><trkpt lat="43.38218304909751" lon="11.51077423613146"><ele>410.5</ele><time>2026-04-12T11:50:40Z</time></trkpt><trkpt lat="43.382269384480445" lon="11.510803366026623"><ele>411.0</ele><time>2026-04-12T11:50:42Z</time></trkpt><trkpt lat="43.38230387414155" lon="11.510904804017198"><ele>409.0</ele><time>2026-04-12T11:50:45Z</time></trkpt><trkpt lat="43.380923546341485" lon="11.511456730683562"><ele>409.0</ele><time>2026-04-12T11:51:45.999Z</time></trkpt><trkpt lat="43.381003861903366" lon="11.511564093249198"><ele>409.0</ele><time>2026-04-12T11:51:46.999Z</time></trkpt><trkpt lat="43.381097043908674" lon="11.511720505489203"><ele>409.0</ele><time>2026-04-12T11:51:47.999Z</time></trkpt><trkpt lat="43.38119116495787" lon="11.511880305150541"><ele>409.0</ele><time>2026-04-12T11:51:48.999Z</time></trkpt><trkpt lat="43.381269129209144" lon="11.512034602094818"><ele>409.0</ele><time>2026-04-12T11:51:49.999Z</time></trkpt><trkpt lat="43.38134572212283" lon="11.512169038985778"><ele>409.0</ele><time>2026-04-12T11:51:50.999Z</time></trkpt><trkpt lat="43.38142731003543" lon="11.512313078176282"><ele>409.0</ele><time>2026-04-12T11:51:51.999Z</time></trkpt><trkpt lat="43.38151867092182" lon="11.512452518069859"><ele>409.0</ele><time>2026-04-12T11:51:52.999Z</time></trkpt><trkpt lat="43.38160249958426" lon="11.512591416361035"><ele>408.5</ele><time>2026-04-12T11:51:53.999Z</time></trkpt><trkpt lat="43.38169273789327" lon="11.512732694679363"><ele>408.0</ele><time>2026-04-12T11:51:54.999Z</time></trkpt><trkpt lat="43.38177134368731" lon="11.512875703344541"><ele>407.5</ele><time>2026-04-12T11:51:55.999Z</time></trkpt><trkpt lat="43.381858738844514" lon="11.513032762415225"><ele>407.0</ele><time>2026-04-12T11:51:56.999Z</time></trkpt><trkpt lat="43.381921359904375" lon="11.513207316148506"><ele>407.0</ele><time>2026-04-12T11:51:57.999Z</time></trkpt><trkpt lat="43.38201505916511" lon="11.51338269716349"><ele>407.0</ele><time>2026-04-12T11:51:58.999Z</time></trkpt><trkpt lat="43.382092188334106" lon="11.513571295178291"><ele>407.0</ele><time>2026-04-12T11:51:59.999Z</time></trkpt><trkpt lat="43.38216605477345" lon="11.513753616217176"><ele>404.5</ele><time>2026-04-12T11:52:00.999Z</time></trkpt><trkpt lat="43.382238785688926" lon="11.513923016153035"><ele>402.0</ele><time>2026-04-12T11:52:01.999Z</time></trkpt><trkpt lat="43.38230746245018" lon="11.514090796874754"><ele>399.5</ele><time>2026-04-12T11:52:02.999Z</time></trkpt><trkpt lat="43.38236663596914" lon="11.51424591477159"><ele>397.0</ele><time>2026-04-12T11:52:03.999Z</time></trkpt><trkpt lat="43.382419487079794" lon="11.514398834754315"><ele>397.0</ele><time>2026-04-12T11:52:04.999Z</time></trkpt><trkpt lat="43.38245742185491" lon="11.5145426199286"><ele>397.0</ele><time>2026-04-12T11:52:05.999Z</time></trkpt><trkpt lat="43.38249770345769" lon="11.51468530963037"><ele>397.0</ele><time>2026-04-12T11:52:06.999Z</time></trkpt><trkpt lat="43.38255293383883" lon="11.51481494515551"><ele>397.0</ele><time>2026-04-12T11:52:07.999Z</time></trkpt><trkpt lat="43.38262365230911" lon="11.514940480612676"><ele>397.0</ele><time>2026-04-12T11:52:08.999Z</time></trkpt><trkpt lat="43.38270582576585" lon="11.515049469861836"><ele>397.20000000000005</ele><time>2026-04-12T11:52:09.999Z</time></trkpt><trkpt lat="43.38279170717879" lon="11.515148463139495"><ele>397.4</ele><time>2026-04-12T11:52:10.999Z</time></trkpt><trkpt lat="43.38286905569742" lon="11.515246485244367"><ele>397.6</ele><time>2026-04-12T11:52:11.999Z</time></trkpt><trkpt lat="43.38294668414594" lon="11.515371173920666"><ele>397.79999999999995</ele><time>2026-04-12T11:52:12.999Z</time></trkpt><trkpt lat="43.38298461757887" lon="11.515504173599918"><ele>398.0</ele><time>2026-04-12T11:52:14Z</time></trkpt><trkpt lat="43.38302453308125" lon="11.515632890281061"><ele>393.5</ele><time>2026-04-12T11:52:15Z</time></trkpt><trkpt lat="43.38306214955692" lon="11.515770780934085"><ele>389.0</ele><time>2026-04-12T11:52:16Z</time></trkpt><trkpt lat="43.383099699005975" lon="11.515920894443742"><ele>384.5</ele><time>2026-04-12T11:52:17Z</time></trkpt><trkpt lat="43.38313455723186" lon="11.516071683453966"><ele>380.0</ele><time>2026-04-12T11:52:18Z</time></trkpt><trkpt lat="43.38316286719568" lon="11.516230766696731"><ele>379.0</ele><time>2026-04-12T11:52:19Z</time></trkpt><trkpt lat="43.383179966766484" lon="11.51637353948997"><ele>378.0</ele><time>2026-04-12T11:52:20Z</time></trkpt><trkpt lat="43.38318427063475" lon="11.51649815198374"><ele>377.0</ele><time>2026-04-12T11:52:21Z</time></trkpt><trkpt lat="43.38316548588381" lon="11.516598795251996"><ele>376.0</ele><time>2026-04-12T11:52:22Z</time></trkpt><trkpt lat="43.38315869096681" lon="11.516727636308584"><ele>375.0</ele><time>2026-04-12T11:52:23Z</time></trkpt><trkpt lat="43.383147135004556" lon="11.516832146123901"><ele>374.0</ele><time>2026-04-12T11:52:24Z</time></trkpt><trkpt lat="43.38315652984417" lon="11.516924865271104"><ele>374.0</ele><time>2026-04-12T11:52:25Z</time></trkpt><trkpt lat="43.38320064092757" lon="11.517026161693968"><ele>374.0</ele><time>2026-04-12T11:52:26Z</time></trkpt><trkpt lat="43.383249240283845" lon="11.517149967855769"><ele>374.0</ele><time>2026-04-12T11:52:27Z</time></trkpt><trkpt lat="43.38330943053021" lon="11.517276778936049"><ele>374.0</ele><time>2026-04-12T11:52:28Z</time></trkpt><trkpt lat="43.383370255533244" lon="11.517428371477191"><ele>374.0</ele><time>2026-04-12T11:52:29Z</time></trkpt><trkpt lat="43.383414163451505" lon="11.517628153754215"><ele>374.0</ele><time>2026-04-12T11:52:30Z</time></trkpt><trkpt lat="43.38347998509203" lon="11.5178268081137"><ele>374.0</ele><time>2026-04-12T11:52:31Z</time></trkpt><trkpt lat="43.38352827121866" lon="11.518037363270052"><ele>374.0</ele><time>2026-04-12T11:52:32Z</time></trkpt><trkpt lat="43.38357410409321" lon="11.518222909019066"><ele>376.25</ele><time>2026-04-12T11:52:33Z</time></trkpt><trkpt lat="43.38361776344455" lon="11.518395587349882"><ele>378.5</ele><time>2026-04-12T11:52:34Z</time></trkpt><trkpt lat="43.38366038003356" lon="11.518563304613302"><ele>380.75</ele><time>2026-04-12T11:52:35Z</time></trkpt><trkpt lat="43.38371263767647" lon="11.518728329095364"><ele>383.0</ele><time>2026-04-12T11:52:36Z</time></trkpt><trkpt lat="43.38374528943527" lon="11.51889493153868"><ele>383.0</ele><time>2026-04-12T11:52:37Z</time></trkpt><trkpt lat="43.383773294702294" lon="11.519049110782692"><ele>383.0</ele><time>2026-04-12T11:52:38Z</time></trkpt><trkpt lat="43.38378508438589" lon="11.519199457231206"><ele>383.0</ele><time>2026-04-12T11:52:39Z</time></trkpt><trkpt lat="43.38379992451512" lon="11.519314606817282"><ele>383.0</ele><time>2026-04-12T11:52:40Z</time></trkpt><trkpt lat="43.38383027361316" lon="11.51942147333786"><ele>383.0</ele><time>2026-04-12T11:52:41Z</time></trkpt><trkpt lat="43.38386050261521" lon="11.519512459296207"><ele>375.33333333333337</ele><time>2026-04-12T11:52:42Z</time></trkpt><trkpt lat="43.38397678693611" lon="11.519642262451594"><ele>367.6666666666667</ele><time>2026-04-12T11:52:44Z</time></trkpt><trkpt lat="43.38404946798128" lon="11.519718118171946"><ele>360.0</ele><time>2026-04-12T11:52:45Z</time></trkpt><trkpt lat="43.387604891713075" lon="11.529195633393034"><ele>351.0</ele><time>2026-04-12T11:53:46.001Z</time></trkpt><trkpt lat="43.387625368548186" lon="11.529396331120934"><ele>342.0</ele><time>2026-04-12T11:53:47.002Z</time></trkpt><trkpt lat="43.387623649097264" lon="11.529580361477334"><ele>333.0</ele><time>2026-04-12T11:53:48.002Z</time></trkpt><trkpt lat="43.38758969602261" lon="11.529772781787079"><ele>324.0</ele><time>2026-04-12T11:53:48.999Z</time></trkpt><trkpt lat="43.38755016688043" lon="11.529973934351144"><ele>322.25</ele><time>2026-04-12T11:53:49.999Z</time></trkpt><trkpt lat="43.38750895804931" lon="11.530157654168214"><ele>320.5</ele><time>2026-04-12T11:53:51Z</time></trkpt><trkpt lat="43.38746104222545" lon="11.530338489005898"><ele>318.75</ele><time>2026-04-12T11:53:52Z</time></trkpt><trkpt lat="43.38739014026732" lon="11.53051159695501"><ele>317.0</ele><time>2026-04-12T11:53:53Z</time></trkpt><trkpt lat="43.387316274752024" lon="11.530651123305514"><ele>316.2</ele><time>2026-04-12T11:53:54Z</time></trkpt><trkpt lat="43.387260810182234" lon="11.530763326647765"><ele>315.4</ele><time>2026-04-12T11:53:55Z</time></trkpt><trkpt lat="43.38721798532003" lon="11.530877263267755"><ele>314.6</ele><time>2026-04-12T11:53:56Z</time></trkpt><trkpt lat="43.387179711936156" lon="11.531004879188124"><ele>313.8</ele><time>2026-04-12T11:53:57Z</time></trkpt><trkpt lat="43.38715589839948" lon="11.53113933979635"><ele>313.0</ele><time>2026-04-12T11:53:58Z</time></trkpt><trkpt lat="43.38714576180489" lon="11.53127805133916"><ele>309.66666666666663</ele><time>2026-04-12T11:53:59Z</time></trkpt><trkpt lat="43.387151515607194" lon="11.531438531253267"><ele>306.3333333333333</ele><time>2026-04-12T11:54:00Z</time></trkpt><trkpt lat="43.387182103838136" lon="11.531662590166166"><ele>303.0</ele><time>2026-04-12T11:54:01Z</time></trkpt><trkpt lat="43.38723259691663" lon="11.531904212950245"><ele>301.0</ele><time>2026-04-12T11:54:02Z</time></trkpt><trkpt lat="43.38728894869996" lon="11.532171592500012"><ele>299.0</ele><time>2026-04-12T11:54:03Z</time></trkpt><trkpt lat="43.38732913076629" lon="11.532458236273305"><ele>297.0</ele><time>2026-04-12T11:54:04Z</time></trkpt><trkpt lat="43.387366318293964" lon="11.532697577634561"><ele>297.25</ele><time>2026-04-12T11:54:05Z</time></trkpt><trkpt lat="43.387401330158944" lon="11.53289505471427"><ele>297.5</ele><time>2026-04-12T11:54:06Z</time></trkpt><trkpt lat="43.387434380992374" lon="11.53306840731688"><ele>297.75</ele><time>2026-04-12T11:54:07Z</time></trkpt><trkpt lat="43.38746525269549" lon="11.533212457205114"><ele>298.0</ele><time>2026-04-12T11:54:08Z</time></trkpt><trkpt lat="43.38749255141432" lon="11.533324913653345"><ele>298.0</ele><time>2026-04-12T11:54:09Z</time></trkpt><trkpt lat="43.38753313363783" lon="11.53341068265709"><ele>298.0</ele><time>2026-04-12T11:54:10Z</time></trkpt><trkpt lat="43.387594343413774" lon="11.533457280649541"><ele>298.0</ele><time>2026-04-12T11:54:11Z</time></trkpt><trkpt lat="43.38767919098838" lon="11.533464161093182"><ele>298.0</ele><time>2026-04-12T11:54:12Z</time></trkpt><trkpt lat="43.38778056662287" lon="11.533428589966071"><ele>298.0</ele><time>2026-04-12T11:54:13Z</time></trkpt><trkpt lat="43.387903678377675" lon="11.533361190001099"><ele>299.0</ele><time>2026-04-12T11:54:14Z</time></trkpt><trkpt lat="43.38806490080608" lon="11.533276101393923"><ele>300.0</ele><time>2026-04-12T11:54:15Z</time></trkpt><trkpt lat="43.38824954273427" lon="11.533213461662505"><ele>301.0</ele><time>2026-04-12T11:54:16Z</time></trkpt><trkpt lat="43.38843091667592" lon="11.533187856421497"><ele>301.0</ele><time>2026-04-12T11:54:17Z</time></trkpt><trkpt lat="43.38860696836326" lon="11.53318785981258"><ele>301.0</ele><time>2026-04-12T11:54:18Z</time></trkpt><trkpt lat="43.388781367677474" lon="11.53320709567294"><ele>301.0</ele><time>2026-04-12T11:54:19Z</time></trkpt><trkpt lat="43.388991428355716" lon="11.533240801098147"><ele>303.3333333333333</ele><time>2026-04-12T11:54:20Z</time></trkpt><trkpt lat="43.38920977223606" lon="11.53328066937562"><ele>305.6666666666667</ele><time>2026-04-12T11:54:21Z</time></trkpt><trkpt lat="43.389405418929606" lon="11.533303513797778"><ele>308.0</ele><time>2026-04-12T11:54:22Z</time></trkpt><trkpt lat="43.389557981687865" lon="11.533328408809533"><ele>308.0</ele><time>2026-04-12T11:54:23Z</time></trkpt><trkpt lat="43.389688121198894" lon="11.533365515923238"><ele>308.0</ele><time>2026-04-12T11:54:24Z</time></trkpt><trkpt lat="43.38979852030047" lon="11.53344431896897"><ele>308.0</ele><time>2026-04-12T11:54:25Z</time></trkpt><trkpt lat="43.389914314093375" lon="11.533543239252385"><ele>308.0</ele><time>2026-04-12T11:54:26Z</time></trkpt><trkpt lat="43.390023517640444" lon="11.533631527761694"><ele>308.0</ele><time>2026-04-12T11:54:27Z</time></trkpt><trkpt lat="43.39010622624257" lon="11.533717493311478"><ele>308.0</ele><time>2026-04-12T11:54:28Z</time></trkpt><trkpt lat="43.3901527869387" lon="11.53380240466083"><ele>308.0</ele><time>2026-04-12T11:54:29Z</time></trkpt><trkpt lat="43.39014528763897" lon="11.53391438059421"><ele>308.0</ele><time>2026-04-12T11:54:31Z</time></trkpt><trkpt lat="43.390028557386735" lon="11.533967746951287"><ele>308.0</ele><time>2026-04-12T11:54:33Z</time></trkpt><trkpt lat="43.389938442343954" lon="11.533970433729758"><ele>310.75</ele><time>2026-04-12T11:54:34.001Z</time></trkpt><trkpt lat="43.3898225205061" lon="11.533996756269449"><ele>313.5</ele><time>2026-04-12T11:54:35.001Z</time></trkpt><trkpt lat="43.38969933092538" lon="11.534040460292317"><ele>316.25</ele><time>2026-04-12T11:54:36.001Z</time></trkpt><trkpt lat="43.38957667769125" lon="11.534088337770633"><ele>319.0</ele><time>2026-04-12T11:54:37.001Z</time></trkpt><trkpt lat="43.38949494246448" lon="11.534116820792699"><ele>319.0</ele><time>2026-04-12T11:54:38.001Z</time></trkpt><trkpt lat="43.38943539143193" lon="11.534165598454349"><ele>319.0</ele><time>2026-04-12T11:54:39.001Z</time></trkpt><trkpt lat="43.389393704705526" lon="11.534238564292432"><ele>319.0</ele><time>2026-04-12T11:54:40.001Z</time></trkpt><trkpt lat="43.38937422151448" lon="11.534341468394334"><ele>319.0</ele><time>2026-04-12T11:54:41.001Z</time></trkpt><trkpt lat="43.389371420252154" lon="11.534450102168739"><ele>319.0</ele><time>2026-04-12T11:54:42.001Z</time></trkpt><trkpt lat="43.38939901503425" lon="11.534574620795789"><ele>319.0</ele><time>2026-04-12T11:54:43.001Z</time></trkpt><trkpt lat="43.38944084910372" lon="11.534710875764324"><ele>324.5</ele><time>2026-04-12T11:54:44.001Z</time></trkpt><trkpt lat="43.38949665601042" lon="11.53487935681421"><ele>330.0</ele><time>2026-04-12T11:54:45.001Z</time></trkpt><trkpt lat="43.39376082533822" lon="11.541155849040942"><ele>348.5</ele><time>2026-04-12T11:55:46.002Z</time></trkpt><trkpt lat="43.3938407404625" lon="11.541295556618234"><ele>367.0</ele><time>2026-04-12T11:55:47.002Z</time></trkpt><trkpt lat="43.393905702430786" lon="11.541429722876615"><ele>385.5</ele><time>2026-04-12T11:55:48.002Z</time></trkpt><trkpt lat="43.39399950464105" lon="11.541558927544987"><ele>404.0</ele><time>2026-04-12T11:55:49.002Z</time></trkpt><trkpt lat="43.39411235219992" lon="11.541694061562955"><ele>404.0</ele><time>2026-04-12T11:55:50.002Z</time></trkpt><trkpt lat="43.39423665534835" lon="11.541836088058574"><ele>404.0</ele><time>2026-04-12T11:55:51.002Z</time></trkpt><trkpt lat="43.3943369012273" lon="11.541962220912566"><ele>404.0</ele><time>2026-04-12T11:55:52.002Z</time></trkpt><trkpt lat="43.39440352366727" lon="11.542128045465768"><ele>404.0</ele><time>2026-04-12T11:55:53.002Z</time></trkpt><trkpt lat="43.394480348979194" lon="11.542267828700298"><ele>403.5</ele><time>2026-04-12T11:55:54.002Z</time></trkpt><trkpt lat="43.39456289139424" lon="11.542427093806246"><ele>403.0</ele><time>2026-04-12T11:55:55.001Z</time></trkpt><trkpt lat="43.394643520407406" lon="11.54257644066874"><ele>402.5</ele><time>2026-04-12T11:55:56.001Z</time></trkpt><trkpt lat="43.394711230458256" lon="11.542711989326918"><ele>402.0</ele><time>2026-04-12T11:55:57.001Z</time></trkpt><trkpt lat="43.39476250470966" lon="11.542817727049956"><ele>404.0</ele><time>2026-04-12T11:55:58.001Z</time></trkpt><trkpt lat="43.39480626445793" lon="11.542881402680955"><ele>406.0</ele><time>2026-04-12T11:55:59.001Z</time></trkpt><trkpt lat="43.3948743617376" lon="11.542946321284937"><ele>408.0</ele><time>2026-04-12T11:56:00.001Z</time></trkpt><trkpt lat="43.394980285627504" lon="11.54302365884581"><ele>410.0</ele><time>2026-04-12T11:56:01.001Z</time></trkpt><trkpt lat="43.395118864987644" lon="11.543117466319405"><ele>412.0</ele><time>2026-04-12T11:56:02.001Z</time></trkpt><trkpt lat="43.39526733884135" lon="11.543220691011761"><ele>412.0</ele><time>2026-04-12T11:56:03.001Z</time></trkpt><trkpt lat="43.395406663348595" lon="11.543329377854983"><ele>412.0</ele><time>2026-04-12T11:56:04.001Z</time></trkpt><trkpt lat="43.395546887916936" lon="11.543434999115625"><ele>412.0</ele><time>2026-04-12T11:56:05.001Z</time></trkpt><trkpt lat="43.39567620732128" lon="11.54353289858018"><ele>412.8</ele><time>2026-04-12T11:56:06.001Z</time></trkpt><trkpt lat="43.39579573738565" lon="11.543624615589758"><ele>413.6</ele><time>2026-04-12T11:56:07.001Z</time></trkpt><trkpt lat="43.39590262295856" lon="11.543719308453472"><ele>414.40000000000003</ele><time>2026-04-12T11:56:08.001Z</time></trkpt><trkpt lat="43.395975874191684" lon="11.543801163328943"><ele>415.20000000000005</ele><time>2026-04-12T11:56:09.001Z</time></trkpt><trkpt lat="43.39603768093876" lon="11.543874055543395"><ele>416.0</ele><time>2026-04-12T11:56:10.001Z</time></trkpt><trkpt lat="43.39609534252016" lon="11.543943685969003"><ele>415.99999999999994</ele><time>2026-04-12T11:56:11.001Z</time></trkpt><trkpt lat="43.39615427397439" lon="11.544015944135042"><ele>416.0</ele><time>2026-04-12T11:56:12.001Z</time></trkpt><trkpt lat="43.39620923141598" lon="11.544090504728713"><ele>416.0</ele><time>2026-04-12T11:56:13.001Z</time></trkpt><trkpt lat="43.39626027468546" lon="11.544151319985758"><ele>416.0</ele><time>2026-04-12T11:56:14.001Z</time></trkpt><trkpt lat="43.39624397112289" lon="11.544267392420617"><ele>415.99999999999994</ele><time>2026-04-12T11:56:15.001Z</time></trkpt><trkpt lat="43.39638358590323" lon="11.544257755914549"><ele>416.0</ele><time>2026-04-12T11:56:17.001Z</time></trkpt><trkpt lat="43.396458212811375" lon="11.54430799350177"><ele>417.66666666666663</ele><time>2026-04-12T11:56:18.001Z</time></trkpt><trkpt lat="43.396593473904936" lon="11.544351311892196"><ele>419.33333333333337</ele><time>2026-04-12T11:56:19.001Z</time></trkpt><trkpt lat="43.39674129417335" lon="11.544483894490515"><ele>421.0</ele><time>2026-04-12T11:56:20.001Z</time></trkpt><trkpt lat="43.39692193844411" lon="11.544623574286058"><ele>421.0</ele><time>2026-04-12T11:56:21.001Z</time></trkpt><trkpt lat="43.397142499370595" lon="11.544768735949537"><ele>421.0</ele><time>2026-04-12T11:56:22.001Z</time></trkpt><trkpt lat="43.39734509052508" lon="11.54491897324798"><ele>424.0</ele><time>2026-04-12T11:56:23.001Z</time></trkpt><trkpt lat="43.39757657054361" lon="11.545079715765862"><ele>427.0</ele><time>2026-04-12T11:56:24.001Z</time></trkpt><trkpt lat="43.39779845016271" lon="11.545232524825117"><ele>427.0</ele><time>2026-04-12T11:56:25.001Z</time></trkpt><trkpt lat="43.39798064093608" lon="11.545358278758817"><ele>427.0</ele><time>2026-04-12T11:56:26.001Z</time></trkpt><trkpt lat="43.398135276266935" lon="11.545475086245375"><ele>427.0</ele><time>2026-04-12T11:56:27.001Z</time></trkpt><trkpt lat="43.398273031020615" lon="11.545580157835364"><ele>428.75</ele><time>2026-04-12T11:56:28.001Z</time></trkpt><trkpt lat="43.39839121880158" lon="11.545666386379816"><ele>430.5</ele><time>2026-04-12T11:56:29.001Z</time></trkpt><trkpt lat="43.39850949307465" lon="11.54571962495804"><ele>432.25</ele><time>2026-04-12T11:56:30.001Z</time></trkpt><trkpt lat="43.39864505822494" lon="11.545735854792614"><ele>434.0</ele><time>2026-04-12T11:56:31.001Z</time></trkpt><trkpt lat="43.39882138483151" lon="11.545712010108444"><ele>435.66666666666663</ele><time>2026-04-12T11:56:32.001Z</time></trkpt><trkpt lat="43.39902313046862" lon="11.545689214093107"><ele>437.33333333333337</ele><time>2026-04-12T11:56:33.001Z</time></trkpt><trkpt lat="43.39920949680152" lon="11.545680641017599"><ele>439.0</ele><time>2026-04-12T11:56:34.001Z</time></trkpt><trkpt lat="43.39937875021243" lon="11.545703833014818"><ele>439.0</ele><time>2026-04-12T11:56:35.001Z</time></trkpt><trkpt lat="43.39956619468143" lon="11.545737845273589"><ele>439.0</ele><time>2026-04-12T11:56:36.001Z</time></trkpt><trkpt lat="43.399766925986256" lon="11.545781356756512"><ele>439.0</ele><time>2026-04-12T11:56:37.001Z</time></trkpt><trkpt lat="43.39996456585335" lon="11.545820271121803"><ele>440.33333333333337</ele><time>2026-04-12T11:56:38.001Z</time></trkpt><trkpt lat="43.400131019141874" lon="11.545853671559998"><ele>441.66666666666663</ele><time>2026-04-12T11:56:39.001Z</time></trkpt><trkpt lat="43.400285988571376" lon="11.545873700086918"><ele>443.0</ele><time>2026-04-12T11:56:40.001Z</time></trkpt><trkpt lat="43.40044842930397" lon="11.545858653202353"><ele>442.66666666666663</ele><time>2026-04-12T11:56:41.001Z</time></trkpt><trkpt lat="43.400620251304204" lon="11.545822777182677"><ele>442.33333333333337</ele><time>2026-04-12T11:56:42.001Z</time></trkpt><trkpt lat="43.40078986791832" lon="11.545775553417386"><ele>442.0</ele><time>2026-04-12T11:56:43.001Z</time></trkpt><trkpt lat="43.400932863435195" lon="11.545746057919612"><ele>442.0</ele><time>2026-04-12T11:56:44.001Z</time></trkpt><trkpt lat="43.401062176239485" lon="11.545784969299646"><ele>442.0</ele><time>2026-04-12T11:56:45.001Z</time></trkpt><trkpt lat="43.40437860859511" lon="11.543920884513572"><ele>451.5</ele><time>2026-04-12T11:57:47.002Z</time></trkpt><trkpt lat="43.404225927249215" lon="11.54380152615661"><ele>461.0</ele><time>2026-04-12T11:58:14.001Z</time></trkpt><trkpt lat="43.40415095487385" lon="11.543741562074857"><ele>470.5</ele><time>2026-04-12T11:58:15.001Z</time></trkpt><trkpt lat="43.404060659888756" lon="11.543669342826075"><ele>480.0</ele><time>2026-04-12T11:58:16.001Z</time></trkpt><trkpt lat="43.4039745556758" lon="11.543601254357666"><ele>480.0</ele><time>2026-04-12T11:58:17.001Z</time></trkpt><trkpt lat="43.403887515034604" lon="11.543533352296128"><ele>480.0</ele><time>2026-04-12T11:58:18.001Z</time></trkpt><trkpt lat="43.40380548339383" lon="11.543469357866979"><ele>480.0</ele><time>2026-04-12T11:58:19.001Z</time></trkpt><trkpt lat="43.403715728495214" lon="11.543401013149943"><ele>480.0</ele><time>2026-04-12T11:58:20.001Z</time></trkpt><trkpt lat="43.40363482157026" lon="11.543327839167997"><ele>480.0</ele><time>2026-04-12T11:58:21.001Z</time></trkpt><trkpt lat="43.40356294165318" lon="11.543240616389983"><ele>477.2</ele><time>2026-04-12T11:58:22.001Z</time></trkpt><trkpt lat="43.40349018309105" lon="11.54313545299161"><ele>474.4</ele><time>2026-04-12T11:58:23.001Z</time></trkpt><trkpt lat="43.40341247511963" lon="11.543030393162551"><ele>471.6</ele><time>2026-04-12T11:58:24.001Z</time></trkpt><trkpt lat="43.40332727054834" lon="11.5429350267714"><ele>468.8</ele><time>2026-04-12T11:58:25.001Z</time></trkpt><trkpt lat="43.40323861583245" lon="11.542824515779841"><ele>466.0</ele><time>2026-04-12T11:58:26.001Z</time></trkpt><trkpt lat="43.40315368795606" lon="11.54271200291583"><ele>466.0</ele><time>2026-04-12T11:58:27.001Z</time></trkpt><trkpt lat="43.40306310411945" lon="11.542598905251339"><ele>466.0</ele><time>2026-04-12T11:58:28.001Z</time></trkpt><trkpt lat="43.402977168152" lon="11.542471412192903"><ele>466.0</ele><time>2026-04-12T11:58:29.001Z</time></trkpt><trkpt lat="43.40287760458063" lon="11.542381258478182"><ele>466.0</ele><time>2026-04-12T11:58:30.001Z</time></trkpt><trkpt lat="43.40279231681852" lon="11.542276759138332"><ele>466.0</ele><time>2026-04-12T11:58:31.001Z</time></trkpt><trkpt lat="43.40270056730736" lon="11.542159511075337"><ele>466.0</ele><time>2026-04-12T11:58:32.001Z</time></trkpt><trkpt lat="43.40261080563255" lon="11.542050043436168"><ele>466.0</ele><time>2026-04-12T11:58:33.001Z</time></trkpt><trkpt lat="43.40251827296439" lon="11.54193624605928"><ele>466.0</ele><time>2026-04-12T11:58:34.001Z</time></trkpt><trkpt lat="43.40239838796974" lon="11.541815616861616"><ele>466.0</ele><time>2026-04-12T11:58:35.001Z</time></trkpt><trkpt lat="43.402295976254884" lon="11.541698380802012"><ele>466.0</ele><time>2026-04-12T11:58:36.001Z</time></trkpt><trkpt lat="43.402206260435186" lon="11.541583284461392"><ele>466.0</ele><time>2026-04-12T11:58:37.001Z</time></trkpt><trkpt lat="43.4021180090208" lon="11.54148989269745"><ele>466.0</ele><time>2026-04-12T11:58:38.001Z</time></trkpt><trkpt lat="43.40204465263377" lon="11.541396010931335"><ele>465.1666666666667</ele><time>2026-04-12T11:58:39.001Z</time></trkpt><trkpt lat="43.40196961488611" lon="11.541303886872214"><ele>464.33333333333337</ele><time>2026-04-12T11:58:40.001Z</time></trkpt><trkpt lat="43.40189369235792" lon="11.541221102763242"><ele>463.5</ele><time>2026-04-12T11:58:41.001Z</time></trkpt><trkpt lat="43.40183198258213" lon="11.541144507398121"><ele>462.66666666666663</ele><time>2026-04-12T11:58:42.001Z</time></trkpt><trkpt lat="43.401765178077376" lon="11.541071161086414"><ele>461.8333333333333</ele><time>2026-04-12T11:58:43.001Z</time></trkpt><trkpt lat="43.40171769428556" lon="11.540998900251173"><ele>461.0</ele><time>2026-04-12T11:58:44.001Z</time></trkpt><trkpt lat="43.40193267838309" lon="11.53611158621883"><ele>450.99999999999994</ele><time>2026-04-12T11:59:46.002Z</time></trkpt><trkpt lat="43.402000673589946" lon="11.536045294932094"><ele>441.0</ele><time>2026-04-12T11:59:47.002Z</time></trkpt><trkpt lat="43.402039525180705" lon="11.535955958216817"><ele>431.0</ele><time>2026-04-12T11:59:48.002Z</time></trkpt><trkpt lat="43.402066143029685" lon="11.535839279051741"><ele>421.0</ele><time>2026-04-12T11:59:49.002Z</time></trkpt><trkpt lat="43.402090739729196" lon="11.535708515971358"><ele>410.99999999999994</ele><time>2026-04-12T11:59:50.002Z</time></trkpt><trkpt lat="43.402134339532154" lon="11.535584280617806"><ele>401.0</ele><time>2026-04-12T11:59:51.002Z</time></trkpt><trkpt lat="43.40220323646215" lon="11.535489093927195"><ele>401.0</ele><time>2026-04-12T11:59:52.002Z</time></trkpt><trkpt lat="43.402294063541625" lon="11.535405937966091"><ele>401.0</ele><time>2026-04-12T11:59:53.002Z</time></trkpt><trkpt lat="43.40239830097479" lon="11.535317103073053"><ele>401.0</ele><time>2026-04-12T11:59:54.002Z</time></trkpt><trkpt lat="43.40249795350855" lon="11.535235769028096"><ele>401.0</ele><time>2026-04-12T11:59:55.002Z</time></trkpt><trkpt lat="43.40258456038049" lon="11.535178355290338"><ele>401.0</ele><time>2026-04-12T11:59:56.002Z</time></trkpt><trkpt lat="43.402665835562495" lon="11.535157271324879"><ele>401.0</ele><time>2026-04-12T11:59:57.002Z</time></trkpt><trkpt lat="43.40275310806687" lon="11.535176454031735"><ele>401.0</ele><time>2026-04-12T11:59:58.002Z</time></trkpt><trkpt lat="43.40281999300984" lon="11.53523508235532"><ele>401.0</ele><time>2026-04-12T11:59:59.002Z</time></trkpt><trkpt lat="43.40288090884432" lon="11.535333071919647"><ele>401.0</ele><time>2026-04-12T12:00:00.002Z</time></trkpt><trkpt lat="43.40293296534417" lon="11.535451387049816"><ele>401.0</ele><time>2026-04-12T12:00:01.002Z</time></trkpt><trkpt lat="43.40297761638887" lon="11.53559486200725"><ele>395.25</ele><time>2026-04-12T12:00:02.002Z</time></trkpt><trkpt lat="43.40300954440273" lon="11.535754137167476"><ele>389.5</ele><time>2026-04-12T12:00:03.002Z</time></trkpt><trkpt lat="43.40304451445432" lon="11.535901889444537"><ele>383.75</ele><time>2026-04-12T12:00:04.002Z</time></trkpt><trkpt lat="43.40310162655707" lon="11.536027029278348"><ele>378.0</ele><time>2026-04-12T12:00:05.002Z</time></trkpt><trkpt lat="43.403183931639674" lon="11.536146070146653"><ele>381.0</ele><time>2026-04-12T12:00:06.002Z</time></trkpt><trkpt lat="43.40327746176405" lon="11.536271644481726"><ele>384.0</ele><time>2026-04-12T12:00:07.001Z</time></trkpt><trkpt lat="43.40336594095924" lon="11.536405916130972"><ele>387.0</ele><time>2026-04-12T12:00:08.001Z</time></trkpt><trkpt lat="43.403432467458494" lon="11.536538598066784"><ele>390.0</ele><time>2026-04-12T12:00:09.001Z</time></trkpt><trkpt lat="43.403482859847294" lon="11.53668904356476"><ele>390.0</ele><time>2026-04-12T12:00:10.001Z</time></trkpt><trkpt lat="43.4035267221373" lon="11.5368604552972"><ele>390.0</ele><time>2026-04-12T12:00:11.001Z</time></trkpt><trkpt lat="43.40356641190143" lon="11.537033422734382"><ele>390.0</ele><time>2026-04-12T12:00:12.001Z</time></trkpt><trkpt lat="43.403599284661425" lon="11.537169955517372"><ele>390.0</ele><time>2026-04-12T12:00:13Z</time></trkpt><trkpt lat="43.403633786749644" lon="11.537270888032369"><ele>390.0</ele><time>2026-04-12T12:00:14Z</time></trkpt><trkpt lat="43.40367246976177" lon="11.53734169557315"><ele>391.4</ele><time>2026-04-12T12:00:15Z</time></trkpt><trkpt lat="43.403795959926825" lon="11.537396798748759"><ele>392.8</ele><time>2026-04-12T12:00:17Z</time></trkpt><trkpt lat="43.403865940210345" lon="11.537371422026045"><ele>394.20000000000005</ele><time>2026-04-12T12:00:18Z</time></trkpt><trkpt lat="43.40394829434785" lon="11.537309505924107"><ele>395.6</ele><time>2026-04-12T12:00:19Z</time></trkpt><trkpt lat="43.404038963156516" lon="11.537236709276115"><ele>397.0</ele><time>2026-04-12T12:00:20Z</time></trkpt><trkpt lat="43.404138716112236" lon="11.537149845941402"><ele>394.33333333333337</ele><time>2026-04-12T12:00:21Z</time></trkpt><trkpt lat="43.40423421842639" lon="11.537065538503166"><ele>391.6666666666667</ele><time>2026-04-12T12:00:22Z</time></trkpt><trkpt lat="43.40431330833422" lon="11.536996815933259"><ele>389.0</ele><time>2026-04-12T12:00:23Z</time></trkpt><trkpt lat="43.4043745093288" lon="11.536927015911314"><ele>386.33333333333337</ele><time>2026-04-12T12:00:24Z</time></trkpt><trkpt lat="43.404415734201066" lon="11.536838005396397"><ele>383.6666666666667</ele><time>2026-04-12T12:00:25Z</time></trkpt><trkpt lat="43.40445160604837" lon="11.536732221611858"><ele>381.0</ele><time>2026-04-12T12:00:26Z</time></trkpt><trkpt lat="43.40446705268784" lon="11.536611328049919"><ele>378.25</ele><time>2026-04-12T12:00:27Z</time></trkpt><trkpt lat="43.404458332589385" lon="11.536485109368858"><ele>375.5</ele><time>2026-04-12T12:00:28Z</time></trkpt><trkpt lat="43.40443265935001" lon="11.536338088739496"><ele>372.75</ele><time>2026-04-12T12:00:29Z</time></trkpt><trkpt lat="43.404409481355614" lon="11.53616738512079"><ele>370.0</ele><time>2026-04-12T12:00:30Z</time></trkpt><trkpt lat="43.404431521743604" lon="11.536002024592989"><ele>368.25</ele><time>2026-04-12T12:00:31Z</time></trkpt><trkpt lat="43.40443664992968" lon="11.535816280014535"><ele>366.5</ele><time>2026-04-12T12:00:32Z</time></trkpt><trkpt lat="43.40445276911107" lon="11.535642733254775"><ele>364.75</ele><time>2026-04-12T12:00:33Z</time></trkpt><trkpt lat="43.404462837817036" lon="11.535490204008308"><ele>363.0</ele><time>2026-04-12T12:00:34Z</time></trkpt><trkpt lat="43.404478870250784" lon="11.53535546629768"><ele>361.2</ele><time>2026-04-12T12:00:35Z</time></trkpt><trkpt lat="43.404506543331564" lon="11.535242286191805"><ele>359.4</ele><time>2026-04-12T12:00:36.001Z</time></trkpt><trkpt lat="43.40455938767115" lon="11.535138347104217"><ele>357.59999999999997</ele><time>2026-04-12T12:00:37.001Z</time></trkpt><trkpt lat="43.40464036730356" lon="11.535036724765932"><ele>355.79999999999995</ele><time>2026-04-12T12:00:38.001Z</time></trkpt><trkpt lat="43.40473545743173" lon="11.53493555178404"><ele>354.0</ele><time>2026-04-12T12:00:39.001Z</time></trkpt><trkpt lat="43.40479960453331" lon="11.534862787627489"><ele>353.79999999999995</ele><time>2026-04-12T12:00:40.001Z</time></trkpt><trkpt lat="43.404852286249195" lon="11.534814446454421"><ele>353.59999999999997</ele><time>2026-04-12T12:00:41.001Z</time></trkpt><trkpt lat="43.40492007508288" lon="11.534789822805726"><ele>353.4</ele><time>2026-04-12T12:00:42.001Z</time></trkpt><trkpt lat="43.4050132592945" lon="11.534822246281982"><ele>353.2</ele><time>2026-04-12T12:00:43.001Z</time></trkpt><trkpt lat="43.40512955217843" lon="11.534870989134754"><ele>353.0</ele><time>2026-04-12T12:00:44.001Z</time></trkpt><trkpt lat="43.4052780968028" lon="11.534901827151996"><ele>328.0</ele><time>2026-04-12T12:00:45.001Z</time></trkpt><trkpt lat="43.40877508243415" lon="11.533378360075604"><ele>329.0</ele><time>2026-04-12T12:01:48.002Z</time></trkpt><trkpt lat="43.40884865807398" lon="11.533377895191975"><ele>330.0</ele><time>2026-04-12T12:01:53.002Z</time></trkpt><trkpt lat="43.40897756038619" lon="11.533429744714718"><ele>331.0</ele><time>2026-04-12T12:01:55.002Z</time></trkpt><trkpt lat="43.40906287071288" lon="11.533481281724598"><ele>332.0</ele><time>2026-04-12T12:01:56.002Z</time></trkpt><trkpt lat="43.40915260564948" lon="11.533550690656106"><ele>333.0</ele><time>2026-04-12T12:01:57.002Z</time></trkpt><trkpt lat="43.40925275705404" lon="11.533633632988046"><ele>333.0</ele><time>2026-04-12T12:01:58.002Z</time></trkpt><trkpt lat="43.409343093518686" lon="11.533707587960508"><ele>333.0</ele><time>2026-04-12T12:01:59.002Z</time></trkpt><trkpt lat="43.409429009069235" lon="11.533770258846255"><ele>333.0</ele><time>2026-04-12T12:02:00.002Z</time></trkpt><trkpt lat="43.40950548306017" lon="11.533800645130933"><ele>333.0</ele><time>2026-04-12T12:02:01.002Z</time></trkpt><trkpt lat="43.40958414732421" lon="11.533809418545317"><ele>333.0</ele><time>2026-04-12T12:02:02.002Z</time></trkpt><trkpt lat="43.40967007929691" lon="11.533784872008555"><ele>333.0</ele><time>2026-04-12T12:02:03.002Z</time></trkpt><trkpt lat="43.40975471094871" lon="11.533725931530627"><ele>335.5</ele><time>2026-04-12T12:02:04.002Z</time></trkpt><trkpt lat="43.40984713105898" lon="11.533629267536524"><ele>338.0</ele><time>2026-04-12T12:02:05.002Z</time></trkpt><trkpt lat="43.40995690243416" lon="11.533522966676077"><ele>340.5</ele><time>2026-04-12T12:02:06.002Z</time></trkpt><trkpt lat="43.410085140256705" lon="11.53344894899512"><ele>343.0</ele><time>2026-04-12T12:02:07.002Z</time></trkpt><trkpt lat="43.4102197198891" lon="11.53344003347748"><ele>343.0</ele><time>2026-04-12T12:02:08.002Z</time></trkpt><trkpt lat="43.41033963433648" lon="11.533416134431791"><ele>343.0</ele><time>2026-04-12T12:02:09.002Z</time></trkpt><trkpt lat="43.410464976837524" lon="11.533433715929073"><ele>343.0</ele><time>2026-04-12T12:02:10.002Z</time></trkpt><trkpt lat="43.41058034970158" lon="11.533451974179306"><ele>343.0</ele><time>2026-04-12T12:02:11.002Z</time></trkpt><trkpt lat="43.41068052813809" lon="11.533486206492526"><ele>341.5</ele><time>2026-04-12T12:02:12.002Z</time></trkpt><trkpt lat="43.41076897523557" lon="11.533549025251745"><ele>340.0</ele><time>2026-04-12T12:02:13Z</time></trkpt><trkpt lat="43.410855951947006" lon="11.533640022541759"><ele>338.5</ele><time>2026-04-12T12:02:14Z</time></trkpt><trkpt lat="43.4109319135935" lon="11.533760984540748"><ele>337.0</ele><time>2026-04-12T12:02:15Z</time></trkpt><trkpt lat="43.41103377431389" lon="11.53389578026582"><ele>337.0</ele><time>2026-04-12T12:02:16Z</time></trkpt><trkpt lat="43.41111949980996" lon="11.534028841904897"><ele>337.0</ele><time>2026-04-12T12:02:17Z</time></trkpt><trkpt lat="43.411200883556205" lon="11.534168397689246"><ele>337.0</ele><time>2026-04-12T12:02:18Z</time></trkpt><trkpt lat="43.41126574563063" lon="11.534332854681322"><ele>337.0</ele><time>2026-04-12T12:02:19Z</time></trkpt><trkpt lat="43.41131088896935" lon="11.534521053425822"><ele>338.5</ele><time>2026-04-12T12:02:20Z</time></trkpt><trkpt lat="43.41136011673706" lon="11.534713862829236"><ele>340.0</ele><time>2026-04-12T12:02:21Z</time></trkpt><trkpt lat="43.41140817253501" lon="11.534882019840166"><ele>341.5</ele><time>2026-04-12T12:02:22Z</time></trkpt><trkpt lat="43.41147526555328" lon="11.535048022420586"><ele>343.0</ele><time>2026-04-12T12:02:23Z</time></trkpt><trkpt lat="43.41156204680137" lon="11.5352088577916"><ele>343.0</ele><time>2026-04-12T12:02:24Z</time></trkpt><trkpt lat="43.411663544677545" lon="11.535373630774593"><ele>343.0</ele><time>2026-04-12T12:02:25Z</time></trkpt><trkpt lat="43.411750335039926" lon="11.535532108010372"><ele>343.0</ele><time>2026-04-12T12:02:26Z</time></trkpt><trkpt lat="43.41182563498564" lon="11.535674481597951"><ele>343.0</ele><time>2026-04-12T12:02:27Z</time></trkpt><trkpt lat="43.41189353755713" lon="11.53579970197553"><ele>342.25</ele><time>2026-04-12T12:02:28Z</time></trkpt><trkpt lat="43.411947747438326" lon="11.535921191445127"><ele>341.5</ele><time>2026-04-12T12:02:29Z</time></trkpt><trkpt lat="43.41200068453459" lon="11.536026831522165"><ele>340.75</ele><time>2026-04-12T12:02:30Z</time></trkpt><trkpt lat="43.4121794472667" lon="11.536011442428052"><ele>340.0</ele><time>2026-04-12T12:02:31Z</time></trkpt><trkpt lat="43.41230189655165" lon="11.536045131606379"><ele>339.5</ele><time>2026-04-12T12:02:32Z</time></trkpt><trkpt lat="43.41242404461517" lon="11.536092391815775"><ele>339.0</ele><time>2026-04-12T12:02:33Z</time></trkpt><trkpt lat="43.412551581788044" lon="11.536151495137412"><ele>338.5</ele><time>2026-04-12T12:02:34Z</time></trkpt><trkpt lat="43.412670018141" lon="11.536213560390955"><ele>338.0</ele><time>2026-04-12T12:02:35Z</time></trkpt><trkpt lat="43.41277434117236" lon="11.536291760778953"><ele>338.0</ele><time>2026-04-12T12:02:36Z</time></trkpt><trkpt lat="43.412875459530525" lon="11.53637161972544"><ele>338.0</ele><time>2026-04-12T12:02:37Z</time></trkpt><trkpt lat="43.412982198994236" lon="11.536434792878302"><ele>338.0</ele><time>2026-04-12T12:02:38Z</time></trkpt><trkpt lat="43.4130705913518" lon="11.536477681838617"><ele>338.0</ele><time>2026-04-12T12:02:39Z</time></trkpt><trkpt lat="43.413164373216894" lon="11.536499914792268"><ele>338.0</ele><time>2026-04-12T12:02:40Z</time></trkpt><trkpt lat="43.41325762814677" lon="11.536503816714472"><ele>340.75</ele><time>2026-04-12T12:02:41Z</time></trkpt><trkpt lat="43.4133561356612" lon="11.536489186253874"><ele>343.5</ele><time>2026-04-12T12:02:42Z</time></trkpt><trkpt lat="43.413467087988096" lon="11.536450404247672"><ele>346.25</ele><time>2026-04-12T12:02:43Z</time></trkpt><trkpt lat="43.41358635301483" lon="11.536416273707447"><ele>349.0</ele><time>2026-04-12T12:02:44Z</time></trkpt><trkpt lat="43.41370273895709" lon="11.536399873456807"><ele>424.0</ele><time>2026-04-12T12:02:45Z</time></trkpt><trkpt lat="43.417387378814865" lon="11.53533393201841"><ele>424.0</ele><time>2026-04-12T12:03:46.002Z</time></trkpt><trkpt lat="43.41745668647469" lon="11.535374797435763"><ele>424.0</ele><time>2026-04-12T12:03:47.002Z</time></trkpt><trkpt lat="43.417553876180364" lon="11.53542804935416"><ele>424.0</ele><time>2026-04-12T12:03:49.002Z</time></trkpt><trkpt lat="43.41766842089329" lon="11.535400231304939"><ele>424.0</ele><time>2026-04-12T12:03:51.002Z</time></trkpt><trkpt lat="43.417732557789876" lon="11.535343083835306"><ele>424.0</ele><time>2026-04-12T12:03:52.002Z</time></trkpt><trkpt lat="43.41778625157526" lon="11.535259130565072"><ele>424.0</ele><time>2026-04-12T12:03:53.002Z</time></trkpt><trkpt lat="43.417832342603454" lon="11.535154713790602"><ele>424.0</ele><time>2026-04-12T12:03:54.002Z</time></trkpt><trkpt lat="43.417875255326976" lon="11.535028817261148"><ele>424.0</ele><time>2026-04-12T12:03:55.002Z</time></trkpt><trkpt lat="43.41793046130774" lon="11.534892606196959"><ele>424.0</ele><time>2026-04-12T12:03:56.002Z</time></trkpt><trkpt lat="43.41799893469141" lon="11.53475083562463"><ele>424.0</ele><time>2026-04-12T12:03:57.002Z</time></trkpt><trkpt lat="43.41807548057076" lon="11.534619032796993"><ele>429.6</ele><time>2026-04-12T12:03:58.002Z</time></trkpt><trkpt lat="43.418154627694165" lon="11.534515978291477"><ele>435.2</ele><time>2026-04-12T12:03:59.002Z</time></trkpt><trkpt lat="43.4182316832309" lon="11.534442830740481"><ele>440.80000000000007</ele><time>2026-04-12T12:04:00.002Z</time></trkpt><trkpt lat="43.418314160860895" lon="11.534391016246643"><ele>446.40000000000003</ele><time>2026-04-12T12:04:01.002Z</time></trkpt><trkpt lat="43.418411647136494" lon="11.534368743317696"><ele>452.0</ele><time>2026-04-12T12:04:02.002Z</time></trkpt><trkpt lat="43.41851178536132" lon="11.534364462293327"><ele>452.0</ele><time>2026-04-12T12:04:03.002Z</time></trkpt><trkpt lat="43.41862566716483" lon="11.534354892566993"><ele>452.0</ele><time>2026-04-12T12:04:04.002Z</time></trkpt><trkpt lat="43.418738283864954" lon="11.53434662506329"><ele>452.0</ele><time>2026-04-12T12:04:05.002Z</time></trkpt><trkpt lat="43.41885629063783" lon="11.534339186554922"><ele>452.0</ele><time>2026-04-12T12:04:06.002Z</time></trkpt><trkpt lat="43.41897949373428" lon="11.534336642175393"><ele>452.5</ele><time>2026-04-12T12:04:07.002Z</time></trkpt><trkpt lat="43.41912411271853" lon="11.534328959615394"><ele>453.0</ele><time>2026-04-12T12:04:08.002Z</time></trkpt><trkpt lat="43.41927626073659" lon="11.534312404066418"><ele>453.5</ele><time>2026-04-12T12:04:09.002Z</time></trkpt><trkpt lat="43.41941779066392" lon="11.534299394798213"><ele>454.0</ele><time>2026-04-12T12:04:10.002Z</time></trkpt><trkpt lat="43.41953467960159" lon="11.534292675172273"><ele>454.0</ele><time>2026-04-12T12:04:11.002Z</time></trkpt><trkpt lat="43.419644421323554" lon="11.53428399060877"><ele>454.0</ele><time>2026-04-12T12:04:12.002Z</time></trkpt><trkpt lat="43.41975690424718" lon="11.534263976947265"><ele>454.0</ele><time>2026-04-12T12:04:13.002Z</time></trkpt><trkpt lat="43.41986600163993" lon="11.534213249360027"><ele>454.0</ele><time>2026-04-12T12:04:14.002Z</time></trkpt><trkpt lat="43.41996876251136" lon="11.534145517623005"><ele>455.0</ele><time>2026-04-12T12:04:15.002Z</time></trkpt><trkpt lat="43.42006300311554" lon="11.534047958720643"><ele>456.0</ele><time>2026-04-12T12:04:16.002Z</time></trkpt><trkpt lat="43.42016323339382" lon="11.53392713096775"><ele>457.0</ele><time>2026-04-12T12:04:17.002Z</time></trkpt><trkpt lat="43.42026763785095" lon="11.533800131011754"><ele>458.0</ele><time>2026-04-12T12:04:18.002Z</time></trkpt><trkpt lat="43.42037351645075" lon="11.533692940257746"><ele>460.2</ele><time>2026-04-12T12:04:19Z</time></trkpt><trkpt lat="43.42046727760142" lon="11.53362250542278"><ele>462.4</ele><time>2026-04-12T12:04:20Z</time></trkpt><trkpt lat="43.420559687277915" lon="11.533584209446984"><ele>464.59999999999997</ele><time>2026-04-12T12:04:21Z</time></trkpt><trkpt lat="43.420661172389714" lon="11.533582002817461"><ele>466.79999999999995</ele><time>2026-04-12T12:04:22Z</time></trkpt><trkpt lat="43.42077383615996" lon="11.533590792945093"><ele>469.0</ele><time>2026-04-12T12:04:23Z</time></trkpt><trkpt lat="43.420906253500064" lon="11.533601064427307"><ele>472.0</ele><time>2026-04-12T12:04:24Z</time></trkpt><trkpt lat="43.421068168602005" lon="11.533599511885479"><ele>475.0</ele><time>2026-04-12T12:04:25Z</time></trkpt><trkpt lat="43.42122948521598" lon="11.5335833202868"><ele>478.0</ele><time>2026-04-12T12:04:26Z</time></trkpt><trkpt lat="43.42138830245795" lon="11.533564446262094"><ele>482.33333333333337</ele><time>2026-04-12T12:04:27Z</time></trkpt><trkpt lat="43.42156053279039" lon="11.533537948510837"><ele>486.66666666666663</ele><time>2026-04-12T12:04:28Z</time></trkpt><trkpt lat="43.42173742851081" lon="11.533509588459259"><ele>491.0</ele><time>2026-04-12T12:04:29Z</time></trkpt><trkpt lat="43.42189913435501" lon="11.533488238005821"><ele>491.0</ele><time>2026-04-12T12:04:30Z</time></trkpt><trkpt lat="43.42204387605617" lon="11.53347833179279"><ele>491.0</ele><time>2026-04-12T12:04:31Z</time></trkpt><trkpt lat="43.42218475024302" lon="11.53348820242189"><ele>491.0</ele><time>2026-04-12T12:04:32Z</time></trkpt><trkpt lat="43.42232142009205" lon="11.533505900846741"><ele>491.0</ele><time>2026-04-12T12:04:33Z</time></trkpt><trkpt lat="43.42245293943078" lon="11.53352281240498"><ele>493.0</ele><time>2026-04-12T12:04:34Z</time></trkpt><trkpt lat="43.42256499359711" lon="11.533525504289988"><ele>495.0</ele><time>2026-04-12T12:04:35Z</time></trkpt><trkpt lat="43.42266348622168" lon="11.533511150861262"><ele>497.0</ele><time>2026-04-12T12:04:36Z</time></trkpt><trkpt lat="43.42276389743258" lon="11.533475803605759"><ele>499.0</ele><time>2026-04-12T12:04:37Z</time></trkpt><trkpt lat="43.42287154196022" lon="11.533425866845564"><ele>501.0</ele><time>2026-04-12T12:04:38Z</time></trkpt><trkpt lat="43.42298790113795" lon="11.533376024879036"><ele>502.75</ele><time>2026-04-12T12:04:39Z</time></trkpt><trkpt lat="43.42311300622304" lon="11.533346454416648"><ele>504.5</ele><time>2026-04-12T12:04:40Z</time></trkpt><trkpt lat="43.42323513058834" lon="11.533342586197303"><ele>506.25</ele><time>2026-04-12T12:04:41Z</time></trkpt><trkpt lat="43.42335336639905" lon="11.533350955167029"><ele>508.0</ele><time>2026-04-12T12:04:42Z</time></trkpt><trkpt lat="43.42345480592513" lon="11.533349054359439"><ele>508.0</ele><time>2026-04-12T12:04:43Z</time></trkpt><trkpt lat="43.42353151681287" lon="11.53333040358046"><ele>508.0</ele><time>2026-04-12T12:04:44Z</time></trkpt><trkpt lat="43.42358176523672" lon="11.533273929766988"><ele>508.0</ele><time>2026-04-12T12:04:45Z</time></trkpt><trkpt lat="43.427112630665356" lon="11.528411971060272"><ele>515.1666666666667</ele><time>2026-04-12T12:05:46.001Z</time></trkpt><trkpt lat="43.427131872102656" lon="11.528281381897916"><ele>522.3333333333334</ele><time>2026-04-12T12:05:47.001Z</time></trkpt><trkpt lat="43.42718450432089" lon="11.528185419827171"><ele>529.5</ele><time>2026-04-12T12:05:48.001Z</time></trkpt><trkpt lat="43.427247509760825" lon="11.528123379346189"><ele>536.6666666666666</ele><time>2026-04-12T12:05:49.001Z</time></trkpt><trkpt lat="43.427325141492766" lon="11.528097812279945"><ele>543.8333333333333</ele><time>2026-04-12T12:05:50.001Z</time></trkpt><trkpt lat="43.42740951387887" lon="11.528131680184826"><ele>551.0</ele><time>2026-04-12T12:05:51.001Z</time></trkpt><trkpt lat="43.427516586941195" lon="11.528138128071838"><ele>559.6666666666666</ele><time>2026-04-12T12:05:52.001Z</time></trkpt><trkpt lat="43.42766004811425" lon="11.528182017471552"><ele>568.3333333333334</ele><time>2026-04-12T12:05:53.002Z</time></trkpt><trkpt lat="43.42782573126851" lon="11.52822473200408"><ele>577.0</ele><time>2026-04-12T12:05:54.002Z</time></trkpt><trkpt lat="43.42796014399644" lon="11.528241849407316"><ele>578.3333333333334</ele><time>2026-04-12T12:05:55.002Z</time></trkpt><trkpt lat="43.42804680236142" lon="11.528228498156855"><ele>579.6666666666667</ele><time>2026-04-12T12:05:56.002Z</time></trkpt><trkpt lat="43.428106738770786" lon="11.528188729415568"><ele>581.0</ele><time>2026-04-12T12:05:57.002Z</time></trkpt><trkpt lat="43.42817048295534" lon="11.52814485186459"><ele>582.3333333333334</ele><time>2026-04-12T12:05:58.002Z</time></trkpt><trkpt lat="43.42819738597193" lon="11.528022804630362"><ele>583.6666666666666</ele><time>2026-04-12T12:05:59.002Z</time></trkpt><trkpt lat="43.42816267496073" lon="11.527883209570449"><ele>585.0</ele><time>2026-04-12T12:06:00.002Z</time></trkpt><trkpt lat="43.42814894765686" lon="11.527742654822713"><ele>585.0</ele><time>2026-04-12T12:06:01.002Z</time></trkpt><trkpt lat="43.42815707883021" lon="11.527639868951862"><ele>585.0</ele><time>2026-04-12T12:06:02.002Z</time></trkpt><trkpt lat="43.428208612851165" lon="11.527574390137065"><ele>585.0</ele><time>2026-04-12T12:06:03.002Z</time></trkpt><trkpt lat="43.42827513175284" lon="11.527533940379397"><ele>585.0</ele><time>2026-04-12T12:06:04.002Z</time></trkpt><trkpt lat="43.42836325064495" lon="11.527534314021509"><ele>585.0</ele><time>2026-04-12T12:06:05.002Z</time></trkpt><trkpt lat="43.42846562799859" lon="11.527505287014433"><ele>585.0</ele><time>2026-04-12T12:06:06.002Z</time></trkpt><trkpt lat="43.428602483809044" lon="11.527510233692206"><ele>585.0</ele><time>2026-04-12T12:06:07.002Z</time></trkpt><trkpt lat="43.428766566483446" lon="11.527524059321676"><ele>585.0</ele><time>2026-04-12T12:06:08.002Z</time></trkpt><trkpt lat="43.428930917328344" lon="11.52754416554013"><ele>585.0</ele><time>2026-04-12T12:06:09.002Z</time></trkpt><trkpt lat="43.42905172744172" lon="11.527549086200667"><ele>588.4</ele><time>2026-04-12T12:06:10.002Z</time></trkpt><trkpt lat="43.429147735028714" lon="11.527525445590078"><ele>591.8</ele><time>2026-04-12T12:06:11.002Z</time></trkpt><trkpt lat="43.42923238337489" lon="11.52746206114479"><ele>595.2</ele><time>2026-04-12T12:06:12.002Z</time></trkpt><trkpt lat="43.42930063054507" lon="11.527358989930157"><ele>598.6</ele><time>2026-04-12T12:06:13.002Z</time></trkpt><trkpt lat="43.429358696720556" lon="11.527227570813615"><ele>602.0</ele><time>2026-04-12T12:06:14.002Z</time></trkpt><trkpt lat="43.429421238739835" lon="11.527073529496361"><ele>598.6666666666666</ele><time>2026-04-12T12:06:15.002Z</time></trkpt><trkpt lat="43.429485402670124" lon="11.52690285690664"><ele>595.3333333333334</ele><time>2026-04-12T12:06:16.002Z</time></trkpt><trkpt lat="43.42955545470519" lon="11.526715529340658"><ele>592.0</ele><time>2026-04-12T12:06:17.002Z</time></trkpt><trkpt lat="43.429579265446996" lon="11.526478250863056"><ele>592.0</ele><time>2026-04-12T12:06:18.002Z</time></trkpt><trkpt lat="43.42960713211498" lon="11.52627117597182"><ele>592.0</ele><time>2026-04-12T12:06:19.002Z</time></trkpt><trkpt lat="43.42961850111795" lon="11.526113914548246"><ele>592.0</ele><time>2026-04-12T12:06:20.002Z</time></trkpt><trkpt lat="43.42959915380482" lon="11.525963368076173"><ele>592.0</ele><time>2026-04-12T12:06:21.002Z</time></trkpt><trkpt lat="43.42956284785023" lon="11.525788094274457"><ele>592.25</ele><time>2026-04-12T12:06:22.002Z</time></trkpt><trkpt lat="43.429508686332184" lon="11.525599489457266"><ele>592.5</ele><time>2026-04-12T12:06:23.002Z</time></trkpt><trkpt lat="43.42946468494896" lon="11.525414471033605"><ele>592.75</ele><time>2026-04-12T12:06:24.002Z</time></trkpt><trkpt lat="43.42947787950307" lon="11.525228343369044"><ele>593.0</ele><time>2026-04-12T12:06:24.999Z</time></trkpt><trkpt lat="43.42947865917609" lon="11.52503204587191"><ele>596.0</ele><time>2026-04-12T12:06:25.999Z</time></trkpt><trkpt lat="43.4294369864236" lon="11.524866642415105"><ele>599.0</ele><time>2026-04-12T12:06:26.999Z</time></trkpt><trkpt lat="43.42935603686723" lon="11.524720744813711"><ele>602.0</ele><time>2026-04-12T12:06:27.999Z</time></trkpt><trkpt lat="43.42926090449504" lon="11.524627115462103"><ele>605.0</ele><time>2026-04-12T12:06:28.999Z</time></trkpt><trkpt lat="43.429216212602064" lon="11.524503114870651"><ele>605.4</ele><time>2026-04-12T12:06:29.999Z</time></trkpt><trkpt lat="43.429214773980334" lon="11.524391848245678"><ele>605.8</ele><time>2026-04-12T12:06:30.999Z</time></trkpt><trkpt lat="43.42925042928758" lon="11.524291790892905"><ele>606.2</ele><time>2026-04-12T12:06:31.999Z</time></trkpt><trkpt lat="43.42931016115043" lon="11.524195846650487"><ele>606.6</ele><time>2026-04-12T12:06:32.999Z</time></trkpt><trkpt lat="43.42939473456639" lon="11.524084462510617"><ele>607.0</ele><time>2026-04-12T12:06:33.999Z</time></trkpt><trkpt lat="43.42950064263692" lon="11.523957312186347"><ele>607.0</ele><time>2026-04-12T12:06:34.999Z</time></trkpt><trkpt lat="43.42960145099407" lon="11.523812172033098"><ele>607.0</ele><time>2026-04-12T12:06:35.999Z</time></trkpt><trkpt lat="43.42967406938077" lon="11.52364770788687"><ele>607.0</ele><time>2026-04-12T12:06:36.999Z</time></trkpt><trkpt lat="43.42971488149916" lon="11.523471260116246"><ele>607.0</ele><time>2026-04-12T12:06:37.999Z</time></trkpt><trkpt lat="43.429743220566" lon="11.523296418042422"><ele>610.4</ele><time>2026-04-12T12:06:38.999Z</time></trkpt><trkpt lat="43.42980542640432" lon="11.523165372128375"><ele>613.8000000000001</ele><time>2026-04-12T12:06:39.999Z</time></trkpt><trkpt lat="43.42985826311684" lon="11.523055902978394"><ele>617.2</ele><time>2026-04-12T12:06:40.999Z</time></trkpt><trkpt lat="43.42991875280448" lon="11.522985956768471"><ele>620.6</ele><time>2026-04-12T12:06:41.999Z</time></trkpt><trkpt lat="43.430003104523486" lon="11.522943190926181"><ele>624.0</ele><time>2026-04-12T12:06:43Z</time></trkpt><trkpt lat="43.43009830785935" lon="11.52289780382"><ele>614.5</ele><time>2026-04-12T12:06:44Z</time></trkpt><trkpt lat="43.43020832033803" lon="11.522836545694942"><ele>605.0</ele><time>2026-04-12T12:06:45Z</time></trkpt><trkpt lat="43.43223985015689" lon="11.514705873561898"><ele>615.5</ele><time>2026-04-12T12:07:46.001Z</time></trkpt><trkpt lat="43.43237401990908" lon="11.514803726123953"><ele>626.0</ele><time>2026-04-12T12:07:47.001Z</time></trkpt><trkpt lat="43.43251417372893" lon="11.51490988764381"><ele>636.5</ele><time>2026-04-12T12:07:48.001Z</time></trkpt><trkpt lat="43.4326191047299" lon="11.514993720914518"><ele>647.0</ele><time>2026-04-12T12:07:49.001Z</time></trkpt><trkpt lat="43.432712573025576" lon="11.515041104976607"><ele>647.0</ele><time>2026-04-12T12:07:50.001Z</time></trkpt><trkpt lat="43.43279325552356" lon="11.515051550752814"><ele>647.0</ele><time>2026-04-12T12:07:51.001Z</time></trkpt><trkpt lat="43.432863463631215" lon="11.515040010127683"><ele>647.0</ele><time>2026-04-12T12:07:52.001Z</time></trkpt><trkpt lat="43.43292387227141" lon="11.514987481991731"><ele>647.0</ele><time>2026-04-12T12:07:53.001Z</time></trkpt><trkpt lat="43.43298039988432" lon="11.514916561003123"><ele>647.0</ele><time>2026-04-12T12:07:54.001Z</time></trkpt><trkpt lat="43.43302437323292" lon="11.514816692354263"><ele>647.0</ele><time>2026-04-12T12:07:55.001Z</time></trkpt><trkpt lat="43.433045336611684" lon="11.514702442613741"><ele>646.25</ele><time>2026-04-12T12:07:56.001Z</time></trkpt><trkpt lat="43.433059325671024" lon="11.5145535404341"><ele>645.5</ele><time>2026-04-12T12:07:57.001Z</time></trkpt><trkpt lat="43.43306921016724" lon="11.51438441152807"><ele>644.75</ele><time>2026-04-12T12:07:58.001Z</time></trkpt><trkpt lat="43.43305450724986" lon="11.51420212194242"><ele>644.0</ele><time>2026-04-12T12:07:59.001Z</time></trkpt><trkpt lat="43.43306044978934" lon="11.514016774658272"><ele>644.0</ele><time>2026-04-12T12:08:00.001Z</time></trkpt><trkpt lat="43.433065158949944" lon="11.513817308650818"><ele>644.0</ele><time>2026-04-12T12:08:01.001Z</time></trkpt><trkpt lat="43.43308715238444" lon="11.513603793892162"><ele>644.0</ele><time>2026-04-12T12:08:02.001Z</time></trkpt><trkpt lat="43.433126009530675" lon="11.513371261218303"><ele>646.75</ele><time>2026-04-12T12:08:03.001Z</time></trkpt><trkpt lat="43.433156602337604" lon="11.5131409104975"><ele>649.5</ele><time>2026-04-12T12:08:04.001Z</time></trkpt><trkpt lat="43.43318188471399" lon="11.512962262872165"><ele>652.25</ele><time>2026-04-12T12:08:05.001Z</time></trkpt><trkpt lat="43.43322394871771" lon="11.512814179850336"><ele>655.0</ele><time>2026-04-12T12:08:06.001Z</time></trkpt><trkpt lat="43.43328318384203" lon="11.51265193941022"><ele>660.25</ele><time>2026-04-12T12:08:07.001Z</time></trkpt><trkpt lat="43.43335348380847" lon="11.512458155306255"><ele>665.5</ele><time>2026-04-12T12:08:08.001Z</time></trkpt><trkpt lat="43.43338793291457" lon="11.512287180211523"><ele>670.75</ele><time>2026-04-12T12:08:09.001Z</time></trkpt><trkpt lat="43.43336649670621" lon="11.512122029388209"><ele>676.0</ele><time>2026-04-12T12:08:10.001Z</time></trkpt><trkpt lat="43.43339650861978" lon="11.512002804022273"><ele>679.75</ele><time>2026-04-12T12:08:11.001Z</time></trkpt><trkpt lat="43.43345115096283" lon="11.511900636592486"><ele>683.5</ele><time>2026-04-12T12:08:12.001Z</time></trkpt><trkpt lat="43.43352757291279" lon="11.51179055359363"><ele>687.25</ele><time>2026-04-12T12:08:13.001Z</time></trkpt><trkpt lat="43.433612869194896" lon="11.511633553245874"><ele>691.0</ele><time>2026-04-12T12:08:14.001Z</time></trkpt><trkpt lat="43.433682360387124" lon="11.511436606783814"><ele>691.0</ele><time>2026-04-12T12:08:15.001Z</time></trkpt><trkpt lat="43.43374484942111" lon="11.511277560672548"><ele>691.0</ele><time>2026-04-12T12:08:16.001Z</time></trkpt><trkpt lat="43.433793075891536" lon="11.51113891634343"><ele>691.0</ele><time>2026-04-12T12:08:17.001Z</time></trkpt><trkpt lat="43.43384519073902" lon="11.510983857636973"><ele>691.0</ele><time>2026-04-12T12:08:18.001Z</time></trkpt><trkpt lat="43.43391221349076" lon="11.510818400573982"><ele>691.0</ele><time>2026-04-12T12:08:19.001Z</time></trkpt><trkpt lat="43.43399355904156" lon="11.510661404857311"><ele>691.0</ele><time>2026-04-12T12:08:20.002Z</time></trkpt><trkpt lat="43.43409208284574" lon="11.510496686903869"><ele>691.0</ele><time>2026-04-12T12:08:21.002Z</time></trkpt><trkpt lat="43.4341975959313" lon="11.510322442679565"><ele>688.3333333333334</ele><time>2026-04-12T12:08:22.002Z</time></trkpt><trkpt lat="43.434309351716834" lon="11.510153713138465"><ele>685.6666666666666</ele><time>2026-04-12T12:08:23.002Z</time></trkpt><trkpt lat="43.43443347984812" lon="11.50998529655677"><ele>683.0</ele><time>2026-04-12T12:08:24.002Z</time></trkpt><trkpt lat="43.43457372258738" lon="11.509834258356722"><ele>684.6666666666666</ele><time>2026-04-12T12:08:25.002Z</time></trkpt><trkpt lat="43.434728121347014" lon="11.509707856694085"><ele>686.3333333333334</ele><time>2026-04-12T12:08:26.002Z</time></trkpt><trkpt lat="43.434894516407745" lon="11.509593619191586"><ele>688.0</ele><time>2026-04-12T12:08:27.002Z</time></trkpt><trkpt lat="43.43506886608109" lon="11.509493981836581"><ele>688.0</ele><time>2026-04-12T12:08:28.002Z</time></trkpt><trkpt lat="43.43522929036376" lon="11.509422780900872"><ele>688.0</ele><time>2026-04-12T12:08:29.002Z</time></trkpt><trkpt lat="43.435366268160756" lon="11.509363168982247"><ele>688.0</ele><time>2026-04-12T12:08:30.002Z</time></trkpt><trkpt lat="43.435487512468676" lon="11.509312661103268"><ele>688.0</ele><time>2026-04-12T12:08:31Z</time></trkpt><trkpt lat="43.435603511643244" lon="11.509252920254914"><ele>687.8</ele><time>2026-04-12T12:08:32Z</time></trkpt><trkpt lat="43.43570082129014" lon="11.509178539275354"><ele>687.5999999999999</ele><time>2026-04-12T12:08:33Z</time></trkpt><trkpt lat="43.435780813214116" lon="11.509103073174206"><ele>687.4000000000001</ele><time>2026-04-12T12:08:34Z</time></trkpt><trkpt lat="43.43585177527519" lon="11.508998389544344"><ele>687.2</ele><time>2026-04-12T12:08:35Z</time></trkpt><trkpt lat="43.43591847526618" lon="11.508851241708632"><ele>687.0</ele><time>2026-04-12T12:08:36Z</time></trkpt><trkpt lat="43.43598602522334" lon="11.508665334478852"><ele>687.0</ele><time>2026-04-12T12:08:37Z</time></trkpt><trkpt lat="43.43605894078591" lon="11.508452652676263"><ele>687.0</ele><time>2026-04-12T12:08:38Z</time></trkpt><trkpt lat="43.43614172996233" lon="11.50821648477023"><ele>687.0</ele><time>2026-04-12T12:08:39Z</time></trkpt><trkpt lat="43.436239525417854" lon="11.507970102040114"><ele>683.3333333333334</ele><time>2026-04-12T12:08:40Z</time></trkpt><trkpt lat="43.43635013619559" lon="11.507720829541732"><ele>679.6666666666667</ele><time>2026-04-12T12:08:41Z</time></trkpt><trkpt lat="43.43644500904212" lon="11.507491347505802"><ele>676.0</ele><time>2026-04-12T12:08:42Z</time></trkpt><trkpt lat="43.43653030461426" lon="11.50728503135827"><ele>676.0</ele><time>2026-04-12T12:08:43Z</time></trkpt><trkpt lat="43.436602989481386" lon="11.507097036040921"><ele>676.0</ele><time>2026-04-12T12:08:44Z</time></trkpt><trkpt lat="43.436651271132554" lon="11.506924155696671"><ele>676.0</ele><time>2026-04-12T12:08:45Z</time></trkpt><trkpt lat="43.43845477292504" lon="11.50309309500558"><ele>684.25</ele><time>2026-04-12T12:09:46.001Z</time></trkpt><trkpt lat="43.43855434533881" lon="11.503100726998872"><ele>692.5</ele><time>2026-04-12T12:09:47.001Z</time></trkpt><trkpt lat="43.43866827424748" lon="11.50305358228616"><ele>700.75</ele><time>2026-04-12T12:09:48.001Z</time></trkpt><trkpt lat="43.43879796843231" lon="11.502970483115499"><ele>709.0</ele><time>2026-04-12T12:09:49.001Z</time></trkpt><trkpt lat="43.43893700232028" lon="11.502902300607753"><ele>711.75</ele><time>2026-04-12T12:09:50.001Z</time></trkpt><trkpt lat="43.43907415143383" lon="11.502869491513392"><ele>714.5</ele><time>2026-04-12T12:09:51.001Z</time></trkpt><trkpt lat="43.43921386450791" lon="11.502851034729217"><ele>717.25</ele><time>2026-04-12T12:09:52.001Z</time></trkpt><trkpt lat="43.43934803864611" lon="11.50284536484317"><ele>720.0</ele><time>2026-04-12T12:09:53.001Z</time></trkpt><trkpt lat="43.43944242084026" lon="11.502885775684089"><ele>722.2</ele><time>2026-04-12T12:09:54.001Z</time></trkpt><trkpt lat="43.439503119460454" lon="11.502969891978855"><ele>724.4</ele><time>2026-04-12T12:09:55.001Z</time></trkpt><trkpt lat="43.43952592241798" lon="11.503106211400702"><ele>726.5999999999999</ele><time>2026-04-12T12:09:56.001Z</time></trkpt><trkpt lat="43.43950212283029" lon="11.50326128208439"><ele>728.8</ele><time>2026-04-12T12:09:57.001Z</time></trkpt><trkpt lat="43.43945687771215" lon="11.503412857502994"><ele>731.0</ele><time>2026-04-12T12:09:58.001Z</time></trkpt><trkpt lat="43.43943440485378" lon="11.50357315430311"><ele>731.0</ele><time>2026-04-12T12:09:59.001Z</time></trkpt><trkpt lat="43.43941216484116" lon="11.503766058308676"><ele>731.0</ele><time>2026-04-12T12:10:00.001Z</time></trkpt><trkpt lat="43.43942094241749" lon="11.503981202833254"><ele>731.0</ele><time>2026-04-12T12:10:01.001Z</time></trkpt><trkpt lat="43.43944690446078" lon="11.504174891278877"><ele>731.0</ele><time>2026-04-12T12:10:02.001Z</time></trkpt><trkpt lat="43.43949545541884" lon="11.504339070811534"><ele>731.0</ele><time>2026-04-12T12:10:03.001Z</time></trkpt><trkpt lat="43.43957823413512" lon="11.504475592713472"><ele>731.0</ele><time>2026-04-12T12:10:04.001Z</time></trkpt><trkpt lat="43.439692327076294" lon="11.504583772284429"><ele>731.0</ele><time>2026-04-12T12:10:05.001Z</time></trkpt><trkpt lat="43.439835029572016" lon="11.504695726044803"><ele>731.0</ele><time>2026-04-12T12:10:06.002Z</time></trkpt><trkpt lat="43.439972345356594" lon="11.50480962689291"><ele>737.6666666666666</ele><time>2026-04-12T12:10:07.002Z</time></trkpt><trkpt lat="43.44011448774943" lon="11.504929011285"><ele>744.3333333333334</ele><time>2026-04-12T12:10:08.002Z</time></trkpt><trkpt lat="43.44025568990578" lon="11.505036306200319"><ele>751.0</ele><time>2026-04-12T12:10:09.002Z</time></trkpt><trkpt lat="43.44039376738784" lon="11.505145736566952"><ele>749.0</ele><time>2026-04-12T12:10:10.002Z</time></trkpt><trkpt lat="43.4405207734548" lon="11.505291318892592"><ele>747.0</ele><time>2026-04-12T12:10:11.002Z</time></trkpt><trkpt lat="43.44063612357363" lon="11.505455746976244"><ele>745.0</ele><time>2026-04-12T12:10:12.002Z</time></trkpt><trkpt lat="43.4407540962164" lon="11.505620304785944"><ele>750.0</ele><time>2026-04-12T12:10:13.002Z</time></trkpt><trkpt lat="43.44087980131212" lon="11.505783047294928"><ele>755.0</ele><time>2026-04-12T12:10:14.002Z</time></trkpt><trkpt lat="43.44099622009453" lon="11.505938162356516"><ele>760.0</ele><time>2026-04-12T12:10:15.002Z</time></trkpt><trkpt lat="43.44110188181957" lon="11.50608046923612"><ele>760.0</ele><time>2026-04-12T12:10:16.002Z</time></trkpt><trkpt lat="43.441206766136816" lon="11.506233714761988"><ele>760.0</ele><time>2026-04-12T12:10:17.002Z</time></trkpt><trkpt lat="43.44128104204393" lon="11.506418613111007"><ele>760.0</ele><time>2026-04-12T12:10:18.002Z</time></trkpt><trkpt lat="43.44132500771738" lon="11.50661890599622"><ele>762.75</ele><time>2026-04-12T12:10:19.002Z</time></trkpt><trkpt lat="43.44139590266207" lon="11.506812344744006"><ele>765.5</ele><time>2026-04-12T12:10:20.002Z</time></trkpt><trkpt lat="43.4414438808199" lon="11.507005718471104"><ele>768.25</ele><time>2026-04-12T12:10:21.002Z</time></trkpt><trkpt lat="43.441521488004156" lon="11.507169390255253"><ele>771.0</ele><time>2026-04-12T12:10:22.002Z</time></trkpt><trkpt lat="43.44162473961206" lon="11.50730828866275"><ele>771.0</ele><time>2026-04-12T12:10:23.002Z</time></trkpt><trkpt lat="43.44175078171354" lon="11.507421302480099"><ele>771.0</ele><time>2026-04-12T12:10:24.002Z</time></trkpt><trkpt lat="43.441885161006994" lon="11.507500941696595"><ele>771.0</ele><time>2026-04-12T12:10:25.002Z</time></trkpt><trkpt lat="43.44200729802774" lon="11.507531331033732"><ele>771.0</ele><time>2026-04-12T12:10:26.002Z</time></trkpt><trkpt lat="43.442119706497195" lon="11.507531871852605"><ele>775.5</ele><time>2026-04-12T12:10:27.002Z</time></trkpt><trkpt lat="43.44224123218256" lon="11.507497874219817"><ele>780.0</ele><time>2026-04-12T12:10:28.002Z</time></trkpt><trkpt lat="43.44236037856002" lon="11.507459499069116"><ele>784.5</ele><time>2026-04-12T12:10:29.002Z</time></trkpt><trkpt lat="43.4424852585039" lon="11.50742915135721"><ele>789.0</ele><time>2026-04-12T12:10:30.002Z</time></trkpt><trkpt lat="43.442599119249145" lon="11.507406981381687"><ele>789.0</ele><time>2026-04-12T12:10:31.002Z</time></trkpt><trkpt lat="43.44269382233617" lon="11.507393756800067"><ele>789.0</ele><time>2026-04-12T12:10:32.002Z</time></trkpt><trkpt lat="43.44275946825053" lon="11.507386780157706"><ele>789.0</ele><time>2026-04-12T12:10:33.002Z</time></trkpt><trkpt lat="43.44283282620849" lon="11.507379605472531"><ele>789.0</ele><time>2026-04-12T12:10:36.002Z</time></trkpt><trkpt lat="43.44282793336899" lon="11.507123218176195"><ele>789.0</ele><time>2026-04-12T12:10:40.001Z</time></trkpt><trkpt lat="43.44280676947028" lon="11.507018608717024"><ele>790.4000000000001</ele><time>2026-04-12T12:10:41.001Z</time></trkpt><trkpt lat="43.442806326912404" lon="11.506897174974348"><ele>791.8</ele><time>2026-04-12T12:10:42.001Z</time></trkpt><trkpt lat="43.44280254942807" lon="11.506774198604148"><ele>793.2</ele><time>2026-04-12T12:10:43.001Z</time></trkpt><trkpt lat="43.442807488496804" lon="11.506651285390257"><ele>794.5999999999999</ele><time>2026-04-12T12:10:44.001Z</time></trkpt><trkpt lat="43.442822704124055" lon="11.506522926782134"><ele>796.0</ele><time>2026-04-12T12:10:45.001Z</time></trkpt><trkpt lat="43.44907057436609" lon="11.50264250155916"><ele>787.5999999999999</ele><time>2026-04-12T12:11:46.001Z</time></trkpt><trkpt lat="43.4491620223421" lon="11.502595320023229"><ele>779.2</ele><time>2026-04-12T12:11:47.001Z</time></trkpt><trkpt lat="43.4492572839951" lon="11.502547148121542"><ele>770.8</ele><time>2026-04-12T12:11:49.001Z</time></trkpt><trkpt lat="43.449332404689194" lon="11.502530616179413"><ele>762.4000000000001</ele><time>2026-04-12T12:11:51.001Z</time></trkpt><trkpt lat="43.44947651821674" lon="11.502487801928485"><ele>754.0</ele><time>2026-04-12T12:11:53.001Z</time></trkpt><trkpt lat="43.44957201983241" lon="11.502450449109196"><ele>756.2</ele><time>2026-04-12T12:11:54.001Z</time></trkpt><trkpt lat="43.44966539542814" lon="11.502422323440268"><ele>758.4000000000001</ele><time>2026-04-12T12:11:55.002Z</time></trkpt><trkpt lat="43.44976365533661" lon="11.5024102080226"><ele>760.6</ele><time>2026-04-12T12:11:56.002Z</time></trkpt><trkpt lat="43.449867510731615" lon="11.502420272169257"><ele>762.8</ele><time>2026-04-12T12:11:57.002Z</time></trkpt><trkpt lat="43.44997250407372" lon="11.502453726904381"><ele>765.0</ele><time>2026-04-12T12:11:58.002Z</time></trkpt><trkpt lat="43.450078831618626" lon="11.502490032469387"><ele>765.0</ele><time>2026-04-12T12:11:59.002Z</time></trkpt><trkpt lat="43.450180554614256" lon="11.502517901819893"><ele>765.0</ele><time>2026-04-12T12:12:00.002Z</time></trkpt><trkpt lat="43.45026623606754" lon="11.502533237148313"><ele>765.0</ele><time>2026-04-12T12:12:01.002Z</time></trkpt><trkpt lat="43.45034069077089" lon="11.502535948439602"><ele>765.0</ele><time>2026-04-12T12:12:02.002Z</time></trkpt><trkpt lat="43.450410255515806" lon="11.502538295846255"><ele>765.0</ele><time>2026-04-12T12:12:03.002Z</time></trkpt><trkpt lat="43.45047150027916" lon="11.502570156826332"><ele>765.0</ele><time>2026-04-12T12:12:04.002Z</time></trkpt><trkpt lat="43.45055141807146" lon="11.502468177838043"><ele>766.0</ele><time>2026-04-12T12:12:05.002Z</time></trkpt><trkpt lat="43.450625641868676" lon="11.502411039561128"><ele>767.0</ele><time>2026-04-12T12:12:06.002Z</time></trkpt><trkpt lat="43.45070688395607" lon="11.502336345186015"><ele>768.0</ele><time>2026-04-12T12:12:07.002Z</time></trkpt><trkpt lat="43.45078820679508" lon="11.502249651961732"><ele>769.0</ele><time>2026-04-12T12:12:08.002Z</time></trkpt><trkpt lat="43.450879974245254" lon="11.502147658955575"><ele>770.0</ele><time>2026-04-12T12:12:09.002Z</time></trkpt><trkpt lat="43.45097740101452" lon="11.502039894854832"><ele>772.0</ele><time>2026-04-12T12:12:10.002Z</time></trkpt><trkpt lat="43.451086161332086" lon="11.501933456422487"><ele>774.0</ele><time>2026-04-12T12:12:11.002Z</time></trkpt><trkpt lat="43.45120472362011" lon="11.501842198538757"><ele>776.0</ele><time>2026-04-12T12:12:12.002Z</time></trkpt><trkpt lat="43.45130886457075" lon="11.501744785017857"><ele>778.0</ele><time>2026-04-12T12:12:13.002Z</time></trkpt><trkpt lat="43.451407550098295" lon="11.501672921500882"><ele>779.25</ele><time>2026-04-12T12:12:14.002Z</time></trkpt><trkpt lat="43.45152591212917" lon="11.5016710424889"><ele>780.5</ele><time>2026-04-12T12:12:15.002Z</time></trkpt><trkpt lat="43.45163606477494" lon="11.50162814157094"><ele>781.75</ele><time>2026-04-12T12:12:16.002Z</time></trkpt><trkpt lat="43.45173615105879" lon="11.501573014899952"><ele>783.0</ele><time>2026-04-12T12:12:17.002Z</time></trkpt><trkpt lat="43.45183990172691" lon="11.501487467023114"><ele>783.0</ele><time>2026-04-12T12:12:18.002Z</time></trkpt><trkpt lat="43.45193700133985" lon="11.501376251124947"><ele>783.0</ele><time>2026-04-12T12:12:19.002Z</time></trkpt><trkpt lat="43.45203597072545" lon="11.501243428716563"><ele>783.0</ele><time>2026-04-12T12:12:20.002Z</time></trkpt><trkpt lat="43.45214820329487" lon="11.501143366603223"><ele>783.0</ele><time>2026-04-12T12:12:21.002Z</time></trkpt><trkpt lat="43.45225320512221" lon="11.501084313823807"><ele>786.25</ele><time>2026-04-12T12:12:22.002Z</time></trkpt><trkpt lat="43.452367956630304" lon="11.501065043362484"><ele>789.5</ele><time>2026-04-12T12:12:23.002Z</time></trkpt><trkpt lat="43.452485111411846" lon="11.501047019631176"><ele>792.75</ele><time>2026-04-12T12:12:24.002Z</time></trkpt><trkpt lat="43.452615574350375" lon="11.501053233807498"><ele>796.0</ele><time>2026-04-12T12:12:25.002Z</time></trkpt><trkpt lat="43.452755095245685" lon="11.501060979286505"><ele>796.0</ele><time>2026-04-12T12:12:26.002Z</time></trkpt><trkpt lat="43.45289142575754" lon="11.501109402280326"><ele>796.0</ele><time>2026-04-12T12:12:27.002Z</time></trkpt><trkpt lat="43.45302287142231" lon="11.501191594911761"><ele>796.0</ele><time>2026-04-12T12:12:28.002Z</time></trkpt><trkpt lat="43.45315371311139" lon="11.501273760190491"><ele>796.0</ele><time>2026-04-12T12:12:29.002Z</time></trkpt><trkpt lat="43.45327022720649" lon="11.5013604767855"><ele>794.8</ele><time>2026-04-12T12:12:30.002Z</time></trkpt><trkpt lat="43.453372220191355" lon="11.501394361682"><ele>793.5999999999999</ele><time>2026-04-12T12:12:31.002Z</time></trkpt><trkpt lat="43.453449946919974" lon="11.501416212790419"><ele>792.4</ele><time>2026-04-12T12:12:32.002Z</time></trkpt><trkpt lat="43.45352036342786" lon="11.501393800805992"><ele>791.2</ele><time>2026-04-12T12:12:33.002Z</time></trkpt><trkpt lat="43.453617336584465" lon="11.501328492182218"><ele>790.0</ele><time>2026-04-12T12:12:34.002Z</time></trkpt><trkpt lat="43.45373844107435" lon="11.501233999017936"><ele>790.5</ele><time>2026-04-12T12:12:35.002Z</time></trkpt><trkpt lat="43.45386789961734" lon="11.501124736737445"><ele>791.0</ele><time>2026-04-12T12:12:36.002Z</time></trkpt><trkpt lat="43.454009269434465" lon="11.501063987266727"><ele>791.5</ele><time>2026-04-12T12:12:37.002Z</time></trkpt><trkpt lat="43.45414641187189" lon="11.50101324108659"><ele>792.0</ele><time>2026-04-12T12:12:38.002Z</time></trkpt><trkpt lat="43.45430011031777" lon="11.500963643022915"><ele>792.0</ele><time>2026-04-12T12:12:39.002Z</time></trkpt><trkpt lat="43.45443748128215" lon="11.500904810527954"><ele>792.0</ele><time>2026-04-12T12:12:40.002Z</time></trkpt><trkpt lat="43.454571915346854" lon="11.50084807789837"><ele>792.0</ele><time>2026-04-12T12:12:41.002Z</time></trkpt><trkpt lat="43.454682563045445" lon="11.500789661035029"><ele>792.0</ele><time>2026-04-12T12:12:42.002Z</time></trkpt><trkpt lat="43.45478700618214" lon="11.500775252941352"><ele>792.0</ele><time>2026-04-12T12:12:43.001Z</time></trkpt><trkpt lat="43.454875874217905" lon="11.500757122269109"><ele>792.0</ele><time>2026-04-12T12:12:44.001Z</time></trkpt><trkpt lat="43.4549484803183" lon="11.500764754084125"><ele>792.0</ele><time>2026-04-12T12:12:45.001Z</time></trkpt><trkpt lat="43.458719720071876" lon="11.50092826678266"><ele>782.3333333333334</ele><time>2026-04-12T12:13:56.001Z</time></trkpt><trkpt lat="43.458802130097325" lon="11.50098433662239"><ele>772.6666666666667</ele><time>2026-04-12T12:14:05.002Z</time></trkpt><trkpt lat="43.458880391532524" lon="11.501019087571368"><ele>763.0</ele><time>2026-04-12T12:14:06.002Z</time></trkpt><trkpt lat="43.45929427594091" lon="11.501024488766896"><ele>763.0</ele><time>2026-04-12T12:14:09.002Z</time></trkpt><trkpt lat="43.45936895467398" lon="11.501005991632676"><ele>763.0</ele><time>2026-04-12T12:14:10.002Z</time></trkpt><trkpt lat="43.45946890845994" lon="11.500865546913914"><ele>763.0</ele><time>2026-04-12T12:14:11.002Z</time></trkpt><trkpt lat="43.459586868221216" lon="11.500808940284065"><ele>763.0</ele><time>2026-04-12T12:14:13.002Z</time></trkpt><trkpt lat="43.45971882629445" lon="11.5007487527056"><ele>761.6666666666667</ele><time>2026-04-12T12:14:15.002Z</time></trkpt><trkpt lat="43.4597917656919" lon="11.500721707117929"><ele>760.3333333333334</ele><time>2026-04-12T12:14:16.002Z</time></trkpt><trkpt lat="43.45987277524304" lon="11.500708381512807"><ele>759.0</ele><time>2026-04-12T12:14:17.002Z</time></trkpt><trkpt lat="43.45994635760311" lon="11.500709457175569"><ele>757.6666666666666</ele><time>2026-04-12T12:14:18.002Z</time></trkpt><trkpt lat="43.46003439787375" lon="11.500743509873228"><ele>756.3333333333333</ele><time>2026-04-12T12:14:21.002Z</time></trkpt><trkpt lat="43.46013598500934" lon="11.500847126127013"><ele>755.0</ele><time>2026-04-12T12:14:23.002Z</time></trkpt><trkpt lat="43.46020059376935" lon="11.500932934919692"><ele>755.0</ele><time>2026-04-12T12:14:24.002Z</time></trkpt><trkpt lat="43.460270239007826" lon="11.501017852483944"><ele>755.0</ele><time>2026-04-12T12:14:25.002Z</time></trkpt><trkpt lat="43.46033688651418" lon="11.50110424985878"><ele>755.0</ele><time>2026-04-12T12:14:26.002Z</time></trkpt><trkpt lat="43.460391752918724" lon="11.5011841229842"><ele>755.0</ele><time>2026-04-12T12:14:27.002Z</time></trkpt><trkpt lat="43.46047970518765" lon="11.501244013278493"><ele>755.0</ele><time>2026-04-12T12:14:29.002Z</time></trkpt><trkpt lat="43.46056740113775" lon="11.501195961339977"><ele>756.6666666666666</ele><time>2026-04-12T12:14:32.002Z</time></trkpt><trkpt lat="43.460602227860974" lon="11.50108730358942"><ele>758.3333333333333</ele><time>2026-04-12T12:14:34.002Z</time></trkpt><trkpt lat="43.46064338768521" lon="11.50101075546663"><ele>760.0</ele><time>2026-04-12T12:14:35.002Z</time></trkpt><trkpt lat="43.46066483087199" lon="11.500927111300498"><ele>761.6666666666666</ele><time>2026-04-12T12:14:36.002Z</time></trkpt><trkpt lat="43.46068706846565" lon="11.500831701801884"><ele>763.3333333333334</ele><time>2026-04-12T12:14:37.002Z</time></trkpt><trkpt lat="43.460726825982555" lon="11.500710589279874"><ele>765.0</ele><time>2026-04-12T12:14:39.002Z</time></trkpt><trkpt lat="43.46077628448908" lon="11.500594712669725"><ele>765.0</ele><time>2026-04-12T12:14:41.002Z</time></trkpt><trkpt lat="43.46083508621296" lon="11.50046774440418"><ele>765.0</ele><time>2026-04-12T12:14:43.002Z</time></trkpt><trkpt lat="43.46088139301317" lon="11.500383443017792"><ele>765.0</ele><time>2026-04-12T12:14:44.002Z</time></trkpt><trkpt lat="43.46093198561944" lon="11.50032434634799"><ele>765.0</ele><time>2026-04-12T12:14:45.002Z</time></trkpt><trkpt lat="43.46552961626724" lon="11.498139398190698"><ele>767.8</ele><time>2026-04-12T12:15:46.001Z</time></trkpt><trkpt lat="43.465626337022876" lon="11.498202256984541"><ele>770.6</ele><time>2026-04-12T12:15:47.001Z</time></trkpt><trkpt lat="43.46571389792413" lon="11.498266341543363"><ele>773.4000000000001</ele><time>2026-04-12T12:15:48.001Z</time></trkpt><trkpt lat="43.46578980757479" lon="11.49831638805346"><ele>776.2</ele><time>2026-04-12T12:15:49.001Z</time></trkpt><trkpt lat="43.46587658580966" lon="11.498353861588607"><ele>779.0</ele><time>2026-04-12T12:15:50.001Z</time></trkpt><trkpt lat="43.46596889887721" lon="11.49837986027001"><ele>779.0000000000001</ele><time>2026-04-12T12:15:51.001Z</time></trkpt><trkpt lat="43.466057401945584" lon="11.498408734806999"><ele>779.0</ele><time>2026-04-12T12:15:52.001Z</time></trkpt><trkpt lat="43.46614680243509" lon="11.498421593820705"><ele>779.0</ele><time>2026-04-12T12:15:53.001Z</time></trkpt><trkpt lat="43.46623057423383" lon="11.498415728734232"><ele>779.0</ele><time>2026-04-12T12:15:54.001Z</time></trkpt><trkpt lat="43.46632480023996" lon="11.498391641261092"><ele>779.0000000000001</ele><time>2026-04-12T12:15:55.001Z</time></trkpt><trkpt lat="43.46640744645901" lon="11.498368517675889"><ele>779.0</ele><time>2026-04-12T12:15:56.001Z</time></trkpt><trkpt lat="43.46649051521816" lon="11.498358708172729"><ele>779.3333333333334</ele><time>2026-04-12T12:15:57.001Z</time></trkpt><trkpt lat="43.46656834040219" lon="11.498351942812723"><ele>779.6666666666667</ele><time>2026-04-12T12:15:58.001Z</time></trkpt><trkpt lat="43.46664158752946" lon="11.498355561722668"><ele>780.0</ele><time>2026-04-12T12:15:59.001Z</time></trkpt><trkpt lat="43.46673267464573" lon="11.498338811048304"><ele>780.3333333333333</ele><time>2026-04-12T12:16:00.001Z</time></trkpt><trkpt lat="43.466827818311664" lon="11.498316644518104"><ele>780.6666666666666</ele><time>2026-04-12T12:16:01.001Z</time></trkpt><trkpt lat="43.46692778592597" lon="11.498283825910544"><ele>781.0</ele><time>2026-04-12T12:16:02.001Z</time></trkpt><trkpt lat="43.46701065750233" lon="11.498269604439283"><ele>780.9999999999999</ele><time>2026-04-12T12:16:03.001Z</time></trkpt><trkpt lat="43.4670886854179" lon="11.498259474967108"><ele>781.0</ele><time>2026-04-12T12:16:04.001Z</time></trkpt><trkpt lat="43.46716668631416" lon="11.49823553255001"><ele>781.0</ele><time>2026-04-12T12:16:05.001Z</time></trkpt><trkpt lat="43.46723575821772" lon="11.498232569959937"><ele>781.0</ele><time>2026-04-12T12:16:06.001Z</time></trkpt><trkpt lat="43.467312861198494" lon="11.498216660903307"><ele>780.9999999999999</ele><time>2026-04-12T12:16:07.001Z</time></trkpt><trkpt lat="43.46738618296868" lon="11.498191865257603"><ele>781.0</ele><time>2026-04-12T12:16:08.001Z</time></trkpt><trkpt lat="43.46746523702721" lon="11.498183481769047"><ele>779.6666666666666</ele><time>2026-04-12T12:16:09.001Z</time></trkpt><trkpt lat="43.467546602470414" lon="11.498196112587467"><ele>778.3333333333333</ele><time>2026-04-12T12:16:10.001Z</time></trkpt><trkpt lat="43.46762480637537" lon="11.498191672508352"><ele>777.0</ele><time>2026-04-12T12:16:11.001Z</time></trkpt><trkpt lat="43.467692261539945" lon="11.498172257983327"><ele>775.6666666666667</ele><time>2026-04-12T12:16:12.001Z</time></trkpt><trkpt lat="43.46775480028465" lon="11.498149322644041"><ele>774.3333333333334</ele><time>2026-04-12T12:16:13.001Z</time></trkpt><trkpt lat="43.46785711176194" lon="11.498098955887981"><ele>773.0</ele><time>2026-04-12T12:16:15.001Z</time></trkpt><trkpt lat="43.46794223317708" lon="11.498066407951372"><ele>770.1666666666667</ele><time>2026-04-12T12:16:17.001Z</time></trkpt><trkpt lat="43.468034431477214" lon="11.498012644714589"><ele>767.3333333333334</ele><time>2026-04-12T12:16:19.001Z</time></trkpt><trkpt lat="43.46808437274256" lon="11.497943817318193"><ele>764.5</ele><time>2026-04-12T12:16:20.001Z</time></trkpt><trkpt lat="43.46813291870163" lon="11.497867750226316"><ele>761.6666666666667</ele><time>2026-04-12T12:16:21.001Z</time></trkpt><trkpt lat="43.46819048120553" lon="11.497727636335442"><ele>758.8333333333334</ele><time>2026-04-12T12:16:23.002Z</time></trkpt><trkpt lat="43.46819853137383" lon="11.497636716341065"><ele>756.0</ele><time>2026-04-12T12:16:24.002Z</time></trkpt><trkpt lat="43.46819940051512" lon="11.497526664596158"><ele>755.4</ele><time>2026-04-12T12:16:25.002Z</time></trkpt><trkpt lat="43.46820039601017" lon="11.497426946190059"><ele>754.8</ele><time>2026-04-12T12:16:26.002Z</time></trkpt><trkpt lat="43.46820379764686" lon="11.497267144216545"><ele>754.1999999999999</ele><time>2026-04-12T12:16:28.002Z</time></trkpt><trkpt lat="43.46820441184238" lon="11.497095589572298"><ele>753.5999999999999</ele><time>2026-04-12T12:16:30.002Z</time></trkpt><trkpt lat="43.46813639763287" lon="11.496965690679954"><ele>753.0</ele><time>2026-04-12T12:16:32.002Z</time></trkpt><trkpt lat="43.46809754606528" lon="11.49687794091639"><ele>750.5999999999999</ele><time>2026-04-12T12:16:33.002Z</time></trkpt><trkpt lat="43.46806495738713" lon="11.496756419096798"><ele>748.1999999999999</ele><time>2026-04-12T12:16:34.002Z</time></trkpt><trkpt lat="43.46802851533324" lon="11.496614093092628"><ele>745.8</ele><time>2026-04-12T12:16:35.002Z</time></trkpt><trkpt lat="43.468007239372405" lon="11.496506493251598"><ele>743.4</ele><time>2026-04-12T12:16:36.002Z</time></trkpt><trkpt lat="43.46800224623119" lon="11.496382763022122"><ele>741.0</ele><time>2026-04-12T12:16:37.002Z</time></trkpt><trkpt lat="43.468025966102225" lon="11.496255880031264"><ele>740.5999999999999</ele><time>2026-04-12T12:16:38.002Z</time></trkpt><trkpt lat="43.468045267446264" lon="11.496115091839073"><ele>740.2</ele><time>2026-04-12T12:16:39.002Z</time></trkpt><trkpt lat="43.468066118922934" lon="11.495965234849951"><ele>739.8</ele><time>2026-04-12T12:16:40.002Z</time></trkpt><trkpt lat="43.468084010569925" lon="11.49585043913415"><ele>739.4000000000001</ele><time>2026-04-12T12:16:41.002Z</time></trkpt><trkpt lat="43.468097927413474" lon="11.495737936205757"><ele>739.0</ele><time>2026-04-12T12:16:42.002Z</time></trkpt><trkpt lat="43.46810159930167" lon="11.495640411003675"><ele>739.0</ele><time>2026-04-12T12:16:43.002Z</time></trkpt><trkpt lat="43.46809926381812" lon="11.495548393467113"><ele>739.0</ele><time>2026-04-12T12:16:44.002Z</time></trkpt><trkpt lat="43.47062860548147" lon="11.494999708471862"><ele>729.6</ele><time>2026-04-12T12:17:46.001Z</time></trkpt><trkpt lat="43.47073332811702" lon="11.494974103353632"><ele>720.2</ele><time>2026-04-12T12:17:47.001Z</time></trkpt><trkpt lat="43.47084358464743" lon="11.494947139232947"><ele>710.8000000000001</ele><time>2026-04-12T12:17:48.001Z</time></trkpt><trkpt lat="43.47094698457617" lon="11.494908009033022"><ele>701.4000000000001</ele><time>2026-04-12T12:17:49.001Z</time></trkpt><trkpt lat="43.471037616352476" lon="11.494836691033282"><ele>692.0</ele><time>2026-04-12T12:17:50.001Z</time></trkpt><trkpt lat="43.47112599888302" lon="11.494739502714227"><ele>692.0</ele><time>2026-04-12T12:17:51.001Z</time></trkpt><trkpt lat="43.47121446995208" lon="11.49464200187385"><ele>692.0</ele><time>2026-04-12T12:17:52.001Z</time></trkpt><trkpt lat="43.47128823149367" lon="11.494546991448727"><ele>692.0</ele><time>2026-04-12T12:17:53.001Z</time></trkpt><trkpt lat="43.47135367634139" lon="11.494456833112421"><ele>692.0</ele><time>2026-04-12T12:17:54.001Z</time></trkpt><trkpt lat="43.47142368636038" lon="11.494393020443392"><ele>692.0</ele><time>2026-04-12T12:17:55.001Z</time></trkpt><trkpt lat="43.47149520882441" lon="11.494322152056215"><ele>690.75</ele><time>2026-04-12T12:17:56.001Z</time></trkpt><trkpt lat="43.4715787848304" lon="11.494238735692146"><ele>689.5</ele><time>2026-04-12T12:17:57.001Z</time></trkpt><trkpt lat="43.47168481517723" lon="11.494178055659052"><ele>688.25</ele><time>2026-04-12T12:17:58.001Z</time></trkpt><trkpt lat="43.47179463423113" lon="11.494115368506016"><ele>687.0</ele><time>2026-04-12T12:17:59.001Z</time></trkpt><trkpt lat="43.47191564931742" lon="11.49404688285278"><ele>687.0</ele><time>2026-04-12T12:18:00.001Z</time></trkpt><trkpt lat="43.472027574751664" lon="11.494001735898822"><ele>687.0</ele><time>2026-04-12T12:18:01.001Z</time></trkpt><trkpt lat="43.472142431260345" lon="11.493952696713107"><ele>687.0</ele><time>2026-04-12T12:18:02.001Z</time></trkpt><trkpt lat="43.47224061568445" lon="11.493887843320703"><ele>687.0</ele><time>2026-04-12T12:18:03.001Z</time></trkpt><trkpt lat="43.472324256989474" lon="11.493806423710472"><ele>687.0</ele><time>2026-04-12T12:18:04.001Z</time></trkpt><trkpt lat="43.47238673546722" lon="11.49371044076284"><ele>686.4000000000001</ele><time>2026-04-12T12:18:05.001Z</time></trkpt><trkpt lat="43.47242801986337" lon="11.493590312883502"><ele>685.8000000000001</ele><time>2026-04-12T12:18:06.001Z</time></trkpt><trkpt lat="43.47248227777109" lon="11.493453478673823"><ele>685.2</ele><time>2026-04-12T12:18:07.001Z</time></trkpt><trkpt lat="43.47252809480645" lon="11.493307518179103"><ele>684.6</ele><time>2026-04-12T12:18:08.001Z</time></trkpt><trkpt lat="43.472568059974705" lon="11.493160053561683"><ele>684.0</ele><time>2026-04-12T12:18:09.001Z</time></trkpt><trkpt lat="43.472613057725276" lon="11.493002953054283"><ele>684.0</ele><time>2026-04-12T12:18:10.001Z</time></trkpt><trkpt lat="43.472677146443885" lon="11.492875036120022"><ele>684.0</ele><time>2026-04-12T12:18:11.001Z</time></trkpt><trkpt lat="43.472742422670606" lon="11.4927474004716"><ele>684.0</ele><time>2026-04-12T12:18:12.001Z</time></trkpt><trkpt lat="43.472818963918854" lon="11.49263888859956"><ele>684.0</ele><time>2026-04-12T12:18:13.001Z</time></trkpt><trkpt lat="43.472898474911304" lon="11.492532995093685"><ele>684.0</ele><time>2026-04-12T12:18:14.001Z</time></trkpt><trkpt lat="43.47297885724367" lon="11.4924156041229"><ele>684.2</ele><time>2026-04-12T12:18:15.001Z</time></trkpt><trkpt lat="43.473069561761534" lon="11.492339902280133"><ele>684.4000000000001</ele><time>2026-04-12T12:18:16.001Z</time></trkpt><trkpt lat="43.4731528378641" lon="11.492286541656386"><ele>684.6</ele><time>2026-04-12T12:18:17.001Z</time></trkpt><trkpt lat="43.47323046845448" lon="11.492265678680655"><ele>684.8</ele><time>2026-04-12T12:18:18.001Z</time></trkpt><trkpt lat="43.473319172970754" lon="11.492206306081616"><ele>685.0</ele><time>2026-04-12T12:18:19.001Z</time></trkpt><trkpt lat="43.47341375460218" lon="11.492192722870598"><ele>685.0</ele><time>2026-04-12T12:18:20.001Z</time></trkpt><trkpt lat="43.47351145193264" lon="11.492178585757943"><ele>685.0</ele><time>2026-04-12T12:18:21.001Z</time></trkpt><trkpt lat="43.47360442409461" lon="11.492152290338623"><ele>685.0</ele><time>2026-04-12T12:18:22.001Z</time></trkpt><trkpt lat="43.473685688417405" lon="11.492117613610402"><ele>685.0</ele><time>2026-04-12T12:18:23.001Z</time></trkpt><trkpt lat="43.47376092947258" lon="11.492060563505694"><ele>685.0</ele><time>2026-04-12T12:18:24.001Z</time></trkpt><trkpt lat="43.4738305128723" lon="11.491993948221086"><ele>685.0</ele><time>2026-04-12T12:18:25.001Z</time></trkpt><trkpt lat="43.473905770793266" lon="11.491894066510142"><ele>684.2</ele><time>2026-04-12T12:18:26.001Z</time></trkpt><trkpt lat="43.47397286711963" lon="11.491770933441423"><ele>683.4</ele><time>2026-04-12T12:18:27.001Z</time></trkpt><trkpt lat="43.474038462041456" lon="11.491635318125537"><ele>682.5999999999999</ele><time>2026-04-12T12:18:28.001Z</time></trkpt><trkpt lat="43.47409197594945" lon="11.49150109474778"><ele>681.8</ele><time>2026-04-12T12:18:29.001Z</time></trkpt><trkpt lat="43.474141628688905" lon="11.491380925017268"><ele>681.0</ele><time>2026-04-12T12:18:30.001Z</time></trkpt><trkpt lat="43.47418772871274" lon="11.491279448866312"><ele>680.3333333333334</ele><time>2026-04-12T12:18:31.001Z</time></trkpt><trkpt lat="43.47423114487895" lon="11.49117918565488"><ele>679.6666666666666</ele><time>2026-04-12T12:18:32.001Z</time></trkpt><trkpt lat="43.47427754854108" lon="11.491089791878576"><ele>679.0</ele><time>2026-04-12T12:18:33.001Z</time></trkpt><trkpt lat="43.474354257680034" lon="11.491032024396157"><ele>678.3333333333333</ele><time>2026-04-12T12:18:34.001Z</time></trkpt><trkpt lat="43.4744338531795" lon="11.490979918559932"><ele>677.6666666666666</ele><time>2026-04-12T12:18:35.001Z</time></trkpt><trkpt lat="43.47452545699876" lon="11.490920949830596"><ele>677.0</ele><time>2026-04-12T12:18:36.001Z</time></trkpt><trkpt lat="43.47463346618283" lon="11.490841592531872"><ele>675.6</ele><time>2026-04-12T12:18:37.001Z</time></trkpt><trkpt lat="43.47475231781798" lon="11.49079054246665"><ele>674.2</ele><time>2026-04-12T12:18:38.001Z</time></trkpt><trkpt lat="43.47485409367888" lon="11.49073606333025"><ele>672.8</ele><time>2026-04-12T12:18:39.001Z</time></trkpt><trkpt lat="43.47495239717664" lon="11.49067621390682"><ele>671.4</ele><time>2026-04-12T12:18:40.002Z</time></trkpt><trkpt lat="43.47504822104367" lon="11.490618359306595"><ele>670.0</ele><time>2026-04-12T12:18:41.002Z</time></trkpt><trkpt lat="43.475137442160886" lon="11.490576219459955"><ele>670.0</ele><time>2026-04-12T12:18:42.002Z</time></trkpt><trkpt lat="43.4752182354012" lon="11.490543212027568"><ele>670.0</ele><time>2026-04-12T12:18:43.002Z</time></trkpt><trkpt lat="43.47528438114167" lon="11.49047659102824"><ele>670.0</ele><time>2026-04-12T12:18:44.002Z</time></trkpt><trkpt lat="43.47534660002615" lon="11.490402102594395"><ele>670.0</ele><time>2026-04-12T12:18:45.002Z</time></trkpt><trkpt lat="43.477083836607825" lon="11.484465593768215"><ele>662.0</ele><time>2026-04-12T12:19:46.001Z</time></trkpt><trkpt lat="43.47721580126546" lon="11.48451217828362"><ele>654.0</ele><time>2026-04-12T12:19:47.001Z</time></trkpt><trkpt lat="43.47735299209033" lon="11.484545791588912"><ele>646.0</ele><time>2026-04-12T12:19:48.001Z</time></trkpt><trkpt lat="43.47747738034313" lon="11.484556969787759"><ele>638.0</ele><time>2026-04-12T12:19:49.001Z</time></trkpt><trkpt lat="43.4775839810174" lon="11.48454972153586"><ele>638.0</ele><time>2026-04-12T12:19:50.001Z</time></trkpt><trkpt lat="43.47767766871292" lon="11.484511483473499"><ele>638.0</ele><time>2026-04-12T12:19:51.001Z</time></trkpt><trkpt lat="43.477767387681276" lon="11.484431484777655"><ele>638.0</ele><time>2026-04-12T12:19:52.001Z</time></trkpt><trkpt lat="43.47785550289308" lon="11.484319936389815"><ele>638.0</ele><time>2026-04-12T12:19:53.001Z</time></trkpt><trkpt lat="43.47793734587501" lon="11.484181040620696"><ele>637.75</ele><time>2026-04-12T12:19:54.001Z</time></trkpt><trkpt lat="43.47801150711765" lon="11.48406122991986"><ele>637.5</ele><time>2026-04-12T12:19:55.001Z</time></trkpt><trkpt lat="43.47809716841675" lon="11.483929965803503"><ele>637.25</ele><time>2026-04-12T12:19:56.001Z</time></trkpt><trkpt lat="43.478189389516054" lon="11.483801277648784"><ele>637.0</ele><time>2026-04-12T12:19:57.001Z</time></trkpt><trkpt lat="43.47827408911616" lon="11.483670003918872"><ele>635.75</ele><time>2026-04-12T12:19:58.001Z</time></trkpt><trkpt lat="43.478367515566624" lon="11.48352996600819"><ele>634.5</ele><time>2026-04-12T12:19:59.001Z</time></trkpt><trkpt lat="43.47841209828088" lon="11.483382586271448"><ele>633.25</ele><time>2026-04-12T12:20:00.001Z</time></trkpt><trkpt lat="43.47845709419096" lon="11.483250104812845"><ele>632.0</ele><time>2026-04-12T12:20:01.001Z</time></trkpt><trkpt lat="43.47848220995179" lon="11.483076285938035"><ele>630.75</ele><time>2026-04-12T12:20:02.001Z</time></trkpt><trkpt lat="43.4784988973463" lon="11.482886396417555"><ele>629.5</ele><time>2026-04-12T12:20:03.001Z</time></trkpt><trkpt lat="43.478506671513315" lon="11.482698410166758"><ele>628.25</ele><time>2026-04-12T12:20:04.001Z</time></trkpt><trkpt lat="43.478519951767424" lon="11.482536086169514"><ele>627.0</ele><time>2026-04-12T12:20:05.001Z</time></trkpt><trkpt lat="43.47856064987899" lon="11.482382281233837"><ele>627.0</ele><time>2026-04-12T12:20:06.001Z</time></trkpt><trkpt lat="43.478590014226974" lon="11.482240232107952"><ele>627.0</ele><time>2026-04-12T12:20:07.001Z</time></trkpt><trkpt lat="43.478605563651314" lon="11.482096427994053"><ele>627.0</ele><time>2026-04-12T12:20:08.001Z</time></trkpt><trkpt lat="43.47863349054654" lon="11.48197650070108"><ele>627.0</ele><time>2026-04-12T12:20:09.001Z</time></trkpt><trkpt lat="43.478665018966986" lon="11.481878707327587"><ele>627.0</ele><time>2026-04-12T12:20:10.001Z</time></trkpt><trkpt lat="43.478689801536305" lon="11.48179395450397"><ele>627.0</ele><time>2026-04-12T12:20:11.001Z</time></trkpt><trkpt lat="43.47870205053222" lon="11.481609004168515"><ele>626.8000000000001</ele><time>2026-04-12T12:20:13.001Z</time></trkpt><trkpt lat="43.478667282397524" lon="11.481504172875923"><ele>626.6</ele><time>2026-04-12T12:20:14.001Z</time></trkpt><trkpt lat="43.47863332867415" lon="11.481390930886356"><ele>626.4000000000001</ele><time>2026-04-12T12:20:15.001Z</time></trkpt><trkpt lat="43.478581918524405" lon="11.481290371727757"><ele>626.2</ele><time>2026-04-12T12:20:16.001Z</time></trkpt><trkpt lat="43.47852854415953" lon="11.48116607055568"><ele>626.0</ele><time>2026-04-12T12:20:17.001Z</time></trkpt><trkpt lat="43.478497719710205" lon="11.481031899602378"><ele>625.6</ele><time>2026-04-12T12:20:18.001Z</time></trkpt><trkpt lat="43.47849524057657" lon="11.480903072129715"><ele>625.2</ele><time>2026-04-12T12:20:19.001Z</time></trkpt><trkpt lat="43.4785090172953" lon="11.480768857898134"><ele>624.8</ele><time>2026-04-12T12:20:20.001Z</time></trkpt><trkpt lat="43.47854773923788" lon="11.480618530297562"><ele>624.4</ele><time>2026-04-12T12:20:21.001Z</time></trkpt><trkpt lat="43.47861758373866" lon="11.480449372410416"><ele>624.0</ele><time>2026-04-12T12:20:22.001Z</time></trkpt><trkpt lat="43.478684613459045" lon="11.480255324053077"><ele>623.75</ele><time>2026-04-12T12:20:23.001Z</time></trkpt><trkpt lat="43.478738024603345" lon="11.480043735477457"><ele>623.5</ele><time>2026-04-12T12:20:24.001Z</time></trkpt><trkpt lat="43.47876751608021" lon="11.479845290931108"><ele>623.25</ele><time>2026-04-12T12:20:25.001Z</time></trkpt><trkpt lat="43.478788916683285" lon="11.47968828107236"><ele>623.0</ele><time>2026-04-12T12:20:26.001Z</time></trkpt><trkpt lat="43.4788177521893" lon="11.479578915775015"><ele>623.0</ele><time>2026-04-12T12:20:27.001Z</time></trkpt><trkpt lat="43.4788693445506" lon="11.479480158823227"><ele>623.0</ele><time>2026-04-12T12:20:28.001Z</time></trkpt><trkpt lat="43.478938945500985" lon="11.479369023263505"><ele>623.0</ele><time>2026-04-12T12:20:29.001Z</time></trkpt><trkpt lat="43.479022324064644" lon="11.479263900706231"><ele>623.0</ele><time>2026-04-12T12:20:30.001Z</time></trkpt><trkpt lat="43.479119814911655" lon="11.479148235832431"><ele>623.0</ele><time>2026-04-12T12:20:31.001Z</time></trkpt><trkpt lat="43.47920958649374" lon="11.479046897666521"><ele>623.0</ele><time>2026-04-12T12:20:32.001Z</time></trkpt><trkpt lat="43.47929736629186" lon="11.478932156047907"><ele>623.0</ele><time>2026-04-12T12:20:33.001Z</time></trkpt><trkpt lat="43.479392583799516" lon="11.47880571839638"><ele>623.0</ele><time>2026-04-12T12:20:34.001Z</time></trkpt><trkpt lat="43.479489967424286" lon="11.478655320638392"><ele>623.0</ele><time>2026-04-12T12:20:35.001Z</time></trkpt><trkpt lat="43.47957299092538" lon="11.478518998346484"><ele>620.75</ele><time>2026-04-12T12:20:36.001Z</time></trkpt><trkpt lat="43.47964329939762" lon="11.478372239491323"><ele>618.5</ele><time>2026-04-12T12:20:37.001Z</time></trkpt><trkpt lat="43.479709489764204" lon="11.478225239973419"><ele>616.25</ele><time>2026-04-12T12:20:38.001Z</time></trkpt><trkpt lat="43.47976375482734" lon="11.478086050583789"><ele>614.0</ele><time>2026-04-12T12:20:39.001Z</time></trkpt><trkpt lat="43.47980860835076" lon="11.477970890799794"><ele>613.6</ele><time>2026-04-12T12:20:40.001Z</time></trkpt><trkpt lat="43.479843942903585" lon="11.477847573408491"><ele>613.2</ele><time>2026-04-12T12:20:41.001Z</time></trkpt><trkpt lat="43.47987522500879" lon="11.477718040594542"><ele>612.8000000000001</ele><time>2026-04-12T12:20:42.001Z</time></trkpt><trkpt lat="43.47989054875005" lon="11.477580578323868"><ele>612.4</ele><time>2026-04-12T12:20:43.001Z</time></trkpt><trkpt lat="43.47988315914911" lon="11.477433847573261"><ele>612.0</ele><time>2026-04-12T12:20:44.001Z</time></trkpt><trkpt lat="43.47985752919296" lon="11.477303183868187"><ele>617.0</ele><time>2026-04-12T12:20:45.001Z</time></trkpt><trkpt lat="43.48176245089319" lon="11.475979687251682"><ele>617.0</ele><time>2026-04-12T12:21:46.001Z</time></trkpt><trkpt lat="43.48168724421045" lon="11.47585601429327"><ele>617.0</ele><time>2026-04-12T12:21:48.001Z</time></trkpt><trkpt lat="43.48164138819484" lon="11.475780837068001"><ele>617.0</ele><time>2026-04-12T12:21:49.001Z</time></trkpt><trkpt lat="43.48161525379539" lon="11.475677914519686"><ele>617.0</ele><time>2026-04-12T12:21:50.001Z</time></trkpt><trkpt lat="43.481575193700294" lon="11.475559493764132"><ele>617.0</ele><time>2026-04-12T12:21:51.001Z</time></trkpt><trkpt lat="43.481519316034436" lon="11.475391928137936"><ele>618.6</ele><time>2026-04-12T12:21:52.001Z</time></trkpt><trkpt lat="43.48147689552801" lon="11.475211954522365"><ele>620.2</ele><time>2026-04-12T12:21:53.001Z</time></trkpt><trkpt lat="43.48146439056481" lon="11.475085682113777"><ele>621.8</ele><time>2026-04-12T12:21:54.001Z</time></trkpt><trkpt lat="43.481473523259474" lon="11.474972455303124"><ele>623.4</ele><time>2026-04-12T12:21:55.001Z</time></trkpt><trkpt lat="43.48150925134517" lon="11.474859271402163"><ele>625.0</ele><time>2026-04-12T12:21:56.001Z</time></trkpt><trkpt lat="43.4815523607783" lon="11.474748045249138"><ele>625.0</ele><time>2026-04-12T12:21:57.001Z</time></trkpt><trkpt lat="43.48163981735897" lon="11.474646284885067"><ele>625.0</ele><time>2026-04-12T12:21:58.001Z</time></trkpt><trkpt lat="43.48174018494003" lon="11.474577273288066"><ele>625.0</ele><time>2026-04-12T12:21:59.001Z</time></trkpt><trkpt lat="43.481859290671714" lon="11.474510178600843"><ele>625.0</ele><time>2026-04-12T12:22:00.001Z</time></trkpt><trkpt lat="43.48198003916277" lon="11.47444623038722"><ele>624.6</ele><time>2026-04-12T12:22:01.001Z</time></trkpt><trkpt lat="43.48208220640652" lon="11.474383657105129"><ele>624.2</ele><time>2026-04-12T12:22:02.001Z</time></trkpt><trkpt lat="43.482137698548804" lon="11.474297107960815"><ele>623.8</ele><time>2026-04-12T12:22:03.001Z</time></trkpt><trkpt lat="43.48219133041749" lon="11.474201710717336"><ele>623.4</ele><time>2026-04-12T12:22:04.001Z</time></trkpt><trkpt lat="43.482214248938604" lon="11.47411219843079"><ele>623.0</ele><time>2026-04-12T12:22:05.001Z</time></trkpt><trkpt lat="43.482174165740865" lon="11.473936286081786"><ele>623.0</ele><time>2026-04-12T12:22:07.001Z</time></trkpt><trkpt lat="43.48211692792442" lon="11.473817515463644"><ele>623.0</ele><time>2026-04-12T12:22:08.001Z</time></trkpt><trkpt lat="43.48207899016741" lon="11.473657814688941"><ele>623.0</ele><time>2026-04-12T12:22:09.001Z</time></trkpt><trkpt lat="43.48203134972317" lon="11.473525083560236"><ele>623.0</ele><time>2026-04-12T12:22:10.001Z</time></trkpt><trkpt lat="43.48198838815618" lon="11.473400042709354"><ele>623.0</ele><time>2026-04-12T12:22:11.001Z</time></trkpt><trkpt lat="43.4819449470184" lon="11.473249564299369"><ele>626.75</ele><time>2026-04-12T12:22:12.001Z</time></trkpt><trkpt lat="43.48191804711732" lon="11.473104799222522"><ele>630.5</ele><time>2026-04-12T12:22:13.001Z</time></trkpt><trkpt lat="43.481860623847815" lon="11.472973206120392"><ele>634.25</ele><time>2026-04-12T12:22:14.001Z</time></trkpt><trkpt lat="43.481776758711476" lon="11.472854446750725"><ele>638.0</ele><time>2026-04-12T12:22:15.001Z</time></trkpt><trkpt lat="43.4816617178638" lon="11.472735165163186"><ele>638.0</ele><time>2026-04-12T12:22:16.001Z</time></trkpt><trkpt lat="43.481567136955455" lon="11.472615387361241"><ele>638.0</ele><time>2026-04-12T12:22:17.001Z</time></trkpt><trkpt lat="43.48151724180133" lon="11.472503555834798"><ele>638.0</ele><time>2026-04-12T12:22:18.001Z</time></trkpt><trkpt lat="43.48151486928489" lon="11.472375741668063"><ele>638.0</ele><time>2026-04-12T12:22:19.001Z</time></trkpt><trkpt lat="43.48153199560001" lon="11.472257214225083"><ele>638.0</ele><time>2026-04-12T12:22:20.001Z</time></trkpt><trkpt lat="43.48156911860895" lon="11.472146781261076"><ele>637.75</ele><time>2026-04-12T12:22:21.001Z</time></trkpt><trkpt lat="43.48161722351137" lon="11.472015690121687"><ele>637.5</ele><time>2026-04-12T12:22:22.001Z</time></trkpt><trkpt lat="43.48169772150689" lon="11.471889615951328"><ele>637.25</ele><time>2026-04-12T12:22:23.001Z</time></trkpt><trkpt lat="43.48177345661545" lon="11.471760190964307"><ele>637.0</ele><time>2026-04-12T12:22:24.001Z</time></trkpt><trkpt lat="43.481826740343465" lon="11.47161763971335"><ele>637.0</ele><time>2026-04-12T12:22:25.001Z</time></trkpt><trkpt lat="43.48186124158289" lon="11.471457649049869"><ele>637.0</ele><time>2026-04-12T12:22:26.001Z</time></trkpt><trkpt lat="43.48189528590186" lon="11.471305022559314"><ele>637.0</ele><time>2026-04-12T12:22:27.001Z</time></trkpt><trkpt lat="43.48192328870968" lon="11.471139855247205"><ele>637.0</ele><time>2026-04-12T12:22:28.001Z</time></trkpt><trkpt lat="43.48195520363752" lon="11.471010823760588"><ele>636.25</ele><time>2026-04-12T12:22:29.001Z</time></trkpt><trkpt lat="43.482023001371225" lon="11.470884358816305"><ele>635.5</ele><time>2026-04-12T12:22:30.001Z</time></trkpt><trkpt lat="43.4821093729589" lon="11.47077695792818"><ele>634.75</ele><time>2026-04-12T12:22:31.001Z</time></trkpt><trkpt lat="43.48221263528579" lon="11.470670802179125"><ele>634.0</ele><time>2026-04-12T12:22:32.001Z</time></trkpt><trkpt lat="43.482323124687404" lon="11.470549974704642"><ele>634.0</ele><time>2026-04-12T12:22:33.001Z</time></trkpt><trkpt lat="43.48242213516607" lon="11.470479086023321"><ele>634.0</ele><time>2026-04-12T12:22:34.001Z</time></trkpt><trkpt lat="43.482529355867875" lon="11.470417447644543"><ele>634.0</ele><time>2026-04-12T12:22:35.001Z</time></trkpt><trkpt lat="43.4826378342415" lon="11.470341088868826"><ele>634.0</ele><time>2026-04-12T12:22:36.001Z</time></trkpt><trkpt lat="43.48276016747482" lon="11.470276608857265"><ele>633.25</ele><time>2026-04-12T12:22:37.001Z</time></trkpt><trkpt lat="43.48289397289188" lon="11.470216000336741"><ele>632.5</ele><time>2026-04-12T12:22:38.001Z</time></trkpt><trkpt lat="43.48301148467296" lon="11.470189897407806"><ele>631.75</ele><time>2026-04-12T12:22:39.001Z</time></trkpt><trkpt lat="43.483114676088725" lon="11.470168512683975"><ele>631.0</ele><time>2026-04-12T12:22:40.001Z</time></trkpt><trkpt lat="43.48322374025873" lon="11.470150343275856"><ele>632.75</ele><time>2026-04-12T12:22:41.001Z</time></trkpt><trkpt lat="43.48334403068268" lon="11.470172799486598"><ele>634.5</ele><time>2026-04-12T12:22:42.001Z</time></trkpt><trkpt lat="43.48347416718786" lon="11.47018326316569"><ele>636.25</ele><time>2026-04-12T12:22:43.001Z</time></trkpt><trkpt lat="43.483608133415714" lon="11.470179838813502"><ele>638.0</ele><time>2026-04-12T12:22:44.001Z</time></trkpt><trkpt lat="43.48374856113976" lon="11.470165923520604"><ele>645.0</ele><time>2026-04-12T12:22:45.001Z</time></trkpt><trkpt lat="43.484903601171396" lon="11.463579608162492"><ele>645.0</ele><time>2026-04-12T12:23:46Z</time></trkpt><trkpt lat="43.484913713774695" lon="11.463453121923028"><ele>645.0</ele><time>2026-04-12T12:23:47Z</time></trkpt><trkpt lat="43.484942592283105" lon="11.463347318160341"><ele>645.0</ele><time>2026-04-12T12:23:48Z</time></trkpt><trkpt lat="43.48498385567846" lon="11.463241277863654"><ele>645.0</ele><time>2026-04-12T12:23:49Z</time></trkpt><trkpt lat="43.48504086064914" lon="11.463141117155198"><ele>645.0</ele><time>2026-04-12T12:23:50Z</time></trkpt><trkpt lat="43.48510726216602" lon="11.463040547645768"><ele>646.4</ele><time>2026-04-12T12:23:51Z</time></trkpt><trkpt lat="43.485161239380176" lon="11.462915766913556"><ele>647.8</ele><time>2026-04-12T12:23:52Z</time></trkpt><trkpt lat="43.48521352747135" lon="11.462803336567857"><ele>649.2</ele><time>2026-04-12T12:23:53.001Z</time></trkpt><trkpt lat="43.48525937367772" lon="11.462718433584957"><ele>650.6</ele><time>2026-04-12T12:23:54.001Z</time></trkpt><trkpt lat="43.48532821069679" lon="11.462574227499356"><ele>652.0</ele><time>2026-04-12T12:23:56.001Z</time></trkpt><trkpt lat="43.48534811912173" lon="11.462403301613126"><ele>652.0</ele><time>2026-04-12T12:23:58.001Z</time></trkpt><trkpt lat="43.485345454448876" lon="11.462278632677794"><ele>652.0</ele><time>2026-04-12T12:23:59.001Z</time></trkpt><trkpt lat="43.485311643554425" lon="11.462148608903203"><ele>652.0</ele><time>2026-04-12T12:24:00.001Z</time></trkpt><trkpt lat="43.485255194965475" lon="11.46203220414335"><ele>652.0</ele><time>2026-04-12T12:24:01.001Z</time></trkpt><trkpt lat="43.485208037896356" lon="11.461893245689323"><ele>652.0</ele><time>2026-04-12T12:24:02.001Z</time></trkpt><trkpt lat="43.48515832123254" lon="11.461769478627852"><ele>649.5</ele><time>2026-04-12T12:24:03.001Z</time></trkpt><trkpt lat="43.48511027742633" lon="11.461651172208477"><ele>647.0</ele><time>2026-04-12T12:24:04.001Z</time></trkpt><trkpt lat="43.48502858916553" lon="11.461520011311817"><ele>644.5</ele><time>2026-04-12T12:24:05.001Z</time></trkpt><trkpt lat="43.484944930177164" lon="11.461394442914104"><ele>642.0</ele><time>2026-04-12T12:24:06.001Z</time></trkpt><trkpt lat="43.48486240636715" lon="11.461284556009021"><ele>641.6</ele><time>2026-04-12T12:24:07.001Z</time></trkpt><trkpt lat="43.48478355464322" lon="11.461190864517476"><ele>641.2</ele><time>2026-04-12T12:24:08.001Z</time></trkpt><trkpt lat="43.484700122276635" lon="11.461105371291731"><ele>640.8</ele><time>2026-04-12T12:24:09.001Z</time></trkpt><trkpt lat="43.48460108585098" lon="11.461016511284523"><ele>640.4</ele><time>2026-04-12T12:24:10.001Z</time></trkpt><trkpt lat="43.48451122383543" lon="11.460952143556504"><ele>640.0</ele><time>2026-04-12T12:24:11.001Z</time></trkpt><trkpt lat="43.484413477875236" lon="11.460893674516276"><ele>640.0</ele><time>2026-04-12T12:24:12.001Z</time></trkpt><trkpt lat="43.484310057434534" lon="11.460843094940712"><ele>640.0</ele><time>2026-04-12T12:24:13.001Z</time></trkpt><trkpt lat="43.48420017630521" lon="11.460782880238192"><ele>640.0</ele><time>2026-04-12T12:24:14.001Z</time></trkpt><trkpt lat="43.48407309906238" lon="11.460725919872106"><ele>640.0</ele><time>2026-04-12T12:24:15.001Z</time></trkpt><trkpt lat="43.48394376758007" lon="11.460664817741456"><ele>640.0</ele><time>2026-04-12T12:24:16.001Z</time></trkpt><trkpt lat="43.48381321507486" lon="11.460609017527602"><ele>640.0</ele><time>2026-04-12T12:24:17.001Z</time></trkpt><trkpt lat="43.483681351345595" lon="11.460538694864791"><ele>640.0</ele><time>2026-04-12T12:24:18.001Z</time></trkpt><trkpt lat="43.48353862007376" lon="11.460446066198054"><ele>640.0</ele><time>2026-04-12T12:24:19.001Z</time></trkpt><trkpt lat="43.48339222709114" lon="11.460362213308796"><ele>640.25</ele><time>2026-04-12T12:24:20.001Z</time></trkpt><trkpt lat="43.48324343320641" lon="11.460276359220016"><ele>640.5</ele><time>2026-04-12T12:24:21.001Z</time></trkpt><trkpt lat="43.48310393325848" lon="11.460195867716367"><ele>640.75</ele><time>2026-04-12T12:24:22.001Z</time></trkpt><trkpt lat="43.482980535744474" lon="11.460122594271741"><ele>641.0</ele><time>2026-04-12T12:24:23.001Z</time></trkpt><trkpt lat="43.48286952040965" lon="11.46004917816603"><ele>641.0</ele><time>2026-04-12T12:24:24.001Z</time></trkpt><trkpt lat="43.48275984266702" lon="11.459968547426966"><ele>641.0</ele><time>2026-04-12T12:24:25.001Z</time></trkpt><trkpt lat="43.48266769201358" lon="11.459893191197173"><ele>641.0</ele><time>2026-04-12T12:24:26.001Z</time></trkpt><trkpt lat="43.48259761672226" lon="11.459832804267966"><ele>641.0</ele><time>2026-04-12T12:24:27.001Z</time></trkpt><trkpt lat="43.482532523017454" lon="11.459767458906189"><ele>641.0</ele><time>2026-04-12T12:24:28.001Z</time></trkpt><trkpt lat="43.482466701961584" lon="11.459699738656344"><ele>640.0</ele><time>2026-04-12T12:24:29.001Z</time></trkpt><trkpt lat="43.48241293063805" lon="11.459608644069636"><ele>639.0</ele><time>2026-04-12T12:24:30.001Z</time></trkpt><trkpt lat="43.482370260338755" lon="11.459519929804296"><ele>638.0</ele><time>2026-04-12T12:24:31.001Z</time></trkpt><trkpt lat="43.48233014931883" lon="11.459394378894224"><ele>637.0</ele><time>2026-04-12T12:24:32.001Z</time></trkpt><trkpt lat="43.48234914968723" lon="11.4592508074074"><ele>636.0</ele><time>2026-04-12T12:24:33.001Z</time></trkpt><trkpt lat="43.482377967733534" lon="11.459125288597768"><ele>636.0</ele><time>2026-04-12T12:24:34.001Z</time></trkpt><trkpt lat="43.48239235125447" lon="11.458994189143258"><ele>636.0</ele><time>2026-04-12T12:24:35.001Z</time></trkpt><trkpt lat="43.48241284016526" lon="11.458868058881016"><ele>636.0</ele><time>2026-04-12T12:24:36.001Z</time></trkpt><trkpt lat="43.48240673024371" lon="11.458751229977954"><ele>636.0</ele><time>2026-04-12T12:24:37.001Z</time></trkpt><trkpt lat="43.4823765872192" lon="11.458668453139603"><ele>636.0</ele><time>2026-04-12T12:24:38.001Z</time></trkpt><trkpt lat="43.48234965974672" lon="11.458588347399793"><ele>636.0</ele><time>2026-04-12T12:24:39.001Z</time></trkpt><trkpt lat="43.482291305777544" lon="11.458512914261151"><ele>636.5</ele><time>2026-04-12T12:24:40.001Z</time></trkpt><trkpt lat="43.482218167171844" lon="11.458423805658628"><ele>637.0</ele><time>2026-04-12T12:24:41.001Z</time></trkpt><trkpt lat="43.48216053087583" lon="11.4583279966375"><ele>637.5</ele><time>2026-04-12T12:24:42.001Z</time></trkpt><trkpt lat="43.48211949522639" lon="11.458238923631239"><ele>638.0</ele><time>2026-04-12T12:24:43.001Z</time></trkpt><trkpt lat="43.48210301094478" lon="11.45813676363527"><ele>638.5</ele><time>2026-04-12T12:24:44.001Z</time></trkpt><trkpt lat="43.48209702513834" lon="11.458003242374916"><ele>639.0</ele><time>2026-04-12T12:24:45.001Z</time></trkpt><trkpt lat="43.48092149040247" lon="11.451957906777452"><ele>640.3333333333334</ele><time>2026-04-12T12:25:46Z</time></trkpt><trkpt lat="43.48105973857535" lon="11.451945034644766"><ele>641.6666666666667</ele><time>2026-04-12T12:25:47Z</time></trkpt><trkpt lat="43.48122180914618" lon="11.45191382411383"><ele>643.0</ele><time>2026-04-12T12:25:48Z</time></trkpt><trkpt lat="43.48140998989752" lon="11.451858578319753"><ele>643.0</ele><time>2026-04-12T12:25:49Z</time></trkpt><trkpt lat="43.48161799592665" lon="11.451767277757517"><ele>643.0</ele><time>2026-04-12T12:25:50Z</time></trkpt><trkpt lat="43.48181742765234" lon="11.451661462532"><ele>643.0</ele><time>2026-04-12T12:25:51Z</time></trkpt><trkpt lat="43.4820065718019" lon="11.451546932858786"><ele>642.6666666666667</ele><time>2026-04-12T12:25:52Z</time></trkpt><trkpt lat="43.48219233741136" lon="11.45141144668309"><ele>642.3333333333334</ele><time>2026-04-12T12:25:53Z</time></trkpt><trkpt lat="43.48237435516425" lon="11.451261388505735"><ele>642.0</ele><time>2026-04-12T12:25:54Z</time></trkpt><trkpt lat="43.48255248622765" lon="11.451125962731691"><ele>642.0</ele><time>2026-04-12T12:25:55Z</time></trkpt><trkpt lat="43.48271312316262" lon="11.451004618505829"><ele>642.0</ele><time>2026-04-12T12:25:56Z</time></trkpt><trkpt lat="43.4828432212022" lon="11.450908291581696"><ele>642.0</ele><time>2026-04-12T12:25:57Z</time></trkpt><trkpt lat="43.48297363351857" lon="11.450816949372793"><ele>644.75</ele><time>2026-04-12T12:25:58Z</time></trkpt><trkpt lat="43.483081676301694" lon="11.450731371823702"><ele>647.5</ele><time>2026-04-12T12:25:59Z</time></trkpt><trkpt lat="43.48319971432388" lon="11.450681219174351"><ele>650.25</ele><time>2026-04-12T12:26:00Z</time></trkpt><trkpt lat="43.483332246154596" lon="11.450652540648145"><ele>653.0</ele><time>2026-04-12T12:26:01Z</time></trkpt><trkpt lat="43.48347817993566" lon="11.450637738639758"><ele>653.0</ele><time>2026-04-12T12:26:02Z</time></trkpt><trkpt lat="43.483639289262086" lon="11.450639227798142"><ele>653.0</ele><time>2026-04-12T12:26:03Z</time></trkpt><trkpt lat="43.48379010293617" lon="11.450642197995744"><ele>653.0</ele><time>2026-04-12T12:26:04Z</time></trkpt><trkpt lat="43.48393928028843" lon="11.450650400954592"><ele>651.0</ele><time>2026-04-12T12:26:05Z</time></trkpt><trkpt lat="43.484080041466584" lon="11.450667402170822"><ele>649.0</ele><time>2026-04-12T12:26:06Z</time></trkpt><trkpt lat="43.48424054294393" lon="11.450716043761686"><ele>647.0</ele><time>2026-04-12T12:26:07Z</time></trkpt><trkpt lat="43.484412307603534" lon="11.450783284780966"><ele>647.0</ele><time>2026-04-12T12:26:08Z</time></trkpt><trkpt lat="43.48459077428067" lon="11.450855101703178"><ele>647.0</ele><time>2026-04-12T12:26:09Z</time></trkpt><trkpt lat="43.48477511430689" lon="11.450927992638485"><ele>647.0</ele><time>2026-04-12T12:26:10Z</time></trkpt><trkpt lat="43.48495266279033" lon="11.450990191584996"><ele>643.0</ele><time>2026-04-12T12:26:11Z</time></trkpt><trkpt lat="43.485125557732374" lon="11.451037728709691"><ele>639.0</ele><time>2026-04-12T12:26:12Z</time></trkpt><trkpt lat="43.48529751784417" lon="11.451077032396716"><ele>635.0</ele><time>2026-04-12T12:26:13Z</time></trkpt><trkpt lat="43.48546661758497" lon="11.45110330734782"><ele>631.3333333333333</ele><time>2026-04-12T12:26:14.001Z</time></trkpt><trkpt lat="43.48563856930615" lon="11.451125302075052"><ele>627.6666666666666</ele><time>2026-04-12T12:26:15.001Z</time></trkpt><trkpt lat="43.48579841236145" lon="11.4511432768973"><ele>624.0</ele><time>2026-04-12T12:26:16.001Z</time></trkpt><trkpt lat="43.48595330556453" lon="11.45117166757147"><ele>624.0</ele><time>2026-04-12T12:26:17.001Z</time></trkpt><trkpt lat="43.48610712711771" lon="11.451212282879567"><ele>624.0</ele><time>2026-04-12T12:26:18.001Z</time></trkpt><trkpt lat="43.48626536173911" lon="11.45125614120159"><ele>624.0</ele><time>2026-04-12T12:26:19.001Z</time></trkpt><trkpt lat="43.48642280663961" lon="11.45128337894351"><ele>620.6666666666666</ele><time>2026-04-12T12:26:20.001Z</time></trkpt><trkpt lat="43.48657786156175" lon="11.451303919355986"><ele>617.3333333333333</ele><time>2026-04-12T12:26:21.001Z</time></trkpt><trkpt lat="43.48673699636495" lon="11.451326164281584"><ele>614.0</ele><time>2026-04-12T12:26:22.001Z</time></trkpt><trkpt lat="43.48688788129589" lon="11.451362597691283"><ele>614.0</ele><time>2026-04-12T12:26:23.001Z</time></trkpt><trkpt lat="43.48704674024838" lon="11.45142786843961"><ele>614.0</ele><time>2026-04-12T12:26:24.001Z</time></trkpt><trkpt lat="43.4871992112479" lon="11.451505668116239"><ele>614.0</ele><time>2026-04-12T12:26:25.001Z</time></trkpt><trkpt lat="43.4873490434346" lon="11.451582556540114"><ele>613.75</ele><time>2026-04-12T12:26:26.001Z</time></trkpt><trkpt lat="43.487484720812716" lon="11.451645981595428"><ele>613.5</ele><time>2026-04-12T12:26:27.001Z</time></trkpt><trkpt lat="43.48761250468998" lon="11.451704223753715"><ele>613.25</ele><time>2026-04-12T12:26:28.001Z</time></trkpt><trkpt lat="43.48773537104805" lon="11.451757826031669"><ele>613.0</ele><time>2026-04-12T12:26:29.001Z</time></trkpt><trkpt lat="43.4878577398103" lon="11.45180110327504"><ele>611.75</ele><time>2026-04-12T12:26:30.001Z</time></trkpt><trkpt lat="43.487981991276044" lon="11.451820748457619"><ele>610.5</ele><time>2026-04-12T12:26:31.001Z</time></trkpt><trkpt lat="43.48810029990413" lon="11.451822896984659"><ele>609.25</ele><time>2026-04-12T12:26:32.001Z</time></trkpt><trkpt lat="43.48820528364904" lon="11.451799318375606"><ele>608.0</ele><time>2026-04-12T12:26:33.001Z</time></trkpt><trkpt lat="43.488302677296254" lon="11.451729215445239"><ele>608.0</ele><time>2026-04-12T12:26:34.001Z</time></trkpt><trkpt lat="43.48838239209896" lon="11.451617422031328"><ele>608.0</ele><time>2026-04-12T12:26:35.001Z</time></trkpt><trkpt lat="43.488450103001874" lon="11.451493535524317"><ele>608.0</ele><time>2026-04-12T12:26:36.001Z</time></trkpt><trkpt lat="43.48854048671718" lon="11.451402902149946"><ele>608.0</ele><time>2026-04-12T12:26:37.001Z</time></trkpt><trkpt lat="43.488620208654915" lon="11.451289897467618"><ele>607.75</ele><time>2026-04-12T12:26:38.001Z</time></trkpt><trkpt lat="43.48872392109013" lon="11.451207080425052"><ele>607.5</ele><time>2026-04-12T12:26:39.001Z</time></trkpt><trkpt lat="43.48883057828751" lon="11.4511376258694"><ele>607.25</ele><time>2026-04-12T12:26:40.001Z</time></trkpt><trkpt lat="43.48893514625232" lon="11.45107511433461"><ele>607.0</ele><time>2026-04-12T12:26:41.001Z</time></trkpt><trkpt lat="43.48903306863148" lon="11.451029410917405"><ele>603.5</ele><time>2026-04-12T12:26:42.001Z</time></trkpt><trkpt lat="43.489125726968105" lon="11.450992018726453"><ele>600.0</ele><time>2026-04-12T12:26:43.001Z</time></trkpt><trkpt lat="43.48920911588236" lon="11.450963695926074"><ele>596.5</ele><time>2026-04-12T12:26:44.001Z</time></trkpt><trkpt lat="43.489282345731034" lon="11.45094320355822"><ele>593.0</ele><time>2026-04-12T12:26:45.001Z</time></trkpt><trkpt lat="43.48823843623628" lon="11.446433145987621"><ele>611.3333333333333</ele><time>2026-04-12T12:27:46Z</time></trkpt><trkpt lat="43.48817000237221" lon="11.446213154168378"><ele>629.6666666666666</ele><time>2026-04-12T12:27:47Z</time></trkpt><trkpt lat="43.488087233992836" lon="11.446034627773097"><ele>648.0</ele><time>2026-04-12T12:27:48Z</time></trkpt><trkpt lat="43.48799120929185" lon="11.445891793452907"><ele>648.0</ele><time>2026-04-12T12:27:49Z</time></trkpt><trkpt lat="43.48795164330704" lon="11.445713436567306"><ele>648.0</ele><time>2026-04-12T12:27:50Z</time></trkpt><trkpt lat="43.48792296832923" lon="11.445482948179574"><ele>648.0</ele><time>2026-04-12T12:27:51Z</time></trkpt><trkpt lat="43.48788917969751" lon="11.445217794313498"><ele>646.6666666666666</ele><time>2026-04-12T12:27:52Z</time></trkpt><trkpt lat="43.48786537725157" lon="11.444995824111297"><ele>645.3333333333333</ele><time>2026-04-12T12:27:53Z</time></trkpt><trkpt lat="43.487910829148476" lon="11.444795427693682"><ele>644.0</ele><time>2026-04-12T12:27:54Z</time></trkpt><trkpt lat="43.487950689001956" lon="11.444590164475208"><ele>644.0</ele><time>2026-04-12T12:27:55Z</time></trkpt><trkpt lat="43.488023473845324" lon="11.444410575793862"><ele>644.0</ele><time>2026-04-12T12:27:56Z</time></trkpt><trkpt lat="43.488105365295034" lon="11.444291169230935"><ele>644.0</ele><time>2026-04-12T12:27:57Z</time></trkpt><trkpt lat="43.488222531796" lon="11.444217255773511"><ele>644.0</ele><time>2026-04-12T12:27:58Z</time></trkpt><trkpt lat="43.48838612129693" lon="11.444212236026369"><ele>644.0</ele><time>2026-04-12T12:27:59Z</time></trkpt><trkpt lat="43.48856586099387" lon="11.444255471295307"><ele>644.0</ele><time>2026-04-12T12:28:00Z</time></trkpt><trkpt lat="43.488750102272164" lon="11.444309781988725"><ele>644.0</ele><time>2026-04-12T12:28:01Z</time></trkpt><trkpt lat="43.4888705867595" lon="11.444305962782348"><ele>643.25</ele><time>2026-04-12T12:28:02Z</time></trkpt><trkpt lat="43.48893374979023" lon="11.44425664119316"><ele>642.5</ele><time>2026-04-12T12:28:03Z</time></trkpt><trkpt lat="43.48900386724572" lon="11.444124454862331"><ele>641.75</ele><time>2026-04-12T12:28:04Z</time></trkpt><trkpt lat="43.48905228389487" lon="11.443919728928385"><ele>641.0</ele><time>2026-04-12T12:28:05Z</time></trkpt><trkpt lat="43.48914620649387" lon="11.443756134161879"><ele>641.0</ele><time>2026-04-12T12:28:06Z</time></trkpt><trkpt lat="43.489292610091574" lon="11.443598279353434"><ele>641.0</ele><time>2026-04-12T12:28:07Z</time></trkpt><trkpt lat="43.4894601153803" lon="11.443444604299774"><ele>641.0</ele><time>2026-04-12T12:28:08Z</time></trkpt><trkpt lat="43.489597341991775" lon="11.443333110347778"><ele>648.0</ele><time>2026-04-12T12:28:09Z</time></trkpt><trkpt lat="43.48972793706445" lon="11.443281315293957"><ele>655.0</ele><time>2026-04-12T12:28:10Z</time></trkpt><trkpt lat="43.48987797930559" lon="11.443240636076068"><ele>662.0</ele><time>2026-04-12T12:28:11Z</time></trkpt><trkpt lat="43.49007436554556" lon="11.443252971465053"><ele>662.0</ele><time>2026-04-12T12:28:12Z</time></trkpt><trkpt lat="43.490256175288316" lon="11.443229841934588"><ele>662.0</ele><time>2026-04-12T12:28:13Z</time></trkpt><trkpt lat="43.49044902619727" lon="11.44312756918847"><ele>662.0</ele><time>2026-04-12T12:28:14Z</time></trkpt><trkpt lat="43.490631166222705" lon="11.443030167991106"><ele>666.0</ele><time>2026-04-12T12:28:15Z</time></trkpt><trkpt lat="43.49078544258069" lon="11.443013456859617"><ele>670.0</ele><time>2026-04-12T12:28:16Z</time></trkpt><trkpt lat="43.49096619686429" lon="11.44303781284725"><ele>674.0</ele><time>2026-04-12T12:28:17Z</time></trkpt><trkpt lat="43.49116037997162" lon="11.44304233509542"><ele>674.25</ele><time>2026-04-12T12:28:18Z</time></trkpt><trkpt lat="43.4912850329999" lon="11.443078011633142"><ele>674.5</ele><time>2026-04-12T12:28:19Z</time></trkpt><trkpt lat="43.49140731107768" lon="11.44317361552544"><ele>674.75</ele><time>2026-04-12T12:28:20Z</time></trkpt><trkpt lat="43.49151906919124" lon="11.443355488400588"><ele>675.0</ele><time>2026-04-12T12:28:21Z</time></trkpt><trkpt lat="43.49166011774565" lon="11.443538660061643"><ele>675.0</ele><time>2026-04-12T12:28:22Z</time></trkpt><trkpt lat="43.491789629121136" lon="11.443739909898554"><ele>675.0</ele><time>2026-04-12T12:28:23Z</time></trkpt><trkpt lat="43.49189319760505" lon="11.443900321405907"><ele>675.0</ele><time>2026-04-12T12:28:24Z</time></trkpt><trkpt lat="43.491986820819854" lon="11.443993938686432"><ele>680.25</ele><time>2026-04-12T12:28:25.001Z</time></trkpt><trkpt lat="43.49208254003308" lon="11.444043635085144"><ele>685.5</ele><time>2026-04-12T12:28:26.001Z</time></trkpt><trkpt lat="43.492178096604725" lon="11.444052727958747"><ele>690.75</ele><time>2026-04-12T12:28:27.001Z</time></trkpt><trkpt lat="43.492274392794975" lon="11.443963892133217"><ele>696.0</ele><time>2026-04-12T12:28:28.001Z</time></trkpt><trkpt lat="43.4923710022331" lon="11.443797839260245"><ele>693.0</ele><time>2026-04-12T12:28:29.001Z</time></trkpt><trkpt lat="43.49244547580841" lon="11.443577053274192"><ele>690.0</ele><time>2026-04-12T12:28:30.001Z</time></trkpt><trkpt lat="43.49250173325132" lon="11.443292720508621"><ele>687.0</ele><time>2026-04-12T12:28:31.001Z</time></trkpt><trkpt lat="43.49255575139312" lon="11.443041919529685"><ele>683.6666666666666</ele><time>2026-04-12T12:28:32.001Z</time></trkpt><trkpt lat="43.492618057457975" lon="11.442818973652049"><ele>680.3333333333333</ele><time>2026-04-12T12:28:33.001Z</time></trkpt><trkpt lat="43.492686325774066" lon="11.442632197309674"><ele>677.0</ele><time>2026-04-12T12:28:34.001Z</time></trkpt><trkpt lat="43.4927882507678" lon="11.442472132570376"><ele>677.0</ele><time>2026-04-12T12:28:35.001Z</time></trkpt><trkpt lat="43.4929177687109" lon="11.442327361382853"><ele>677.0</ele><time>2026-04-12T12:28:36.001Z</time></trkpt><trkpt lat="43.49306722667523" lon="11.442219684712953"><ele>677.0</ele><time>2026-04-12T12:28:37.001Z</time></trkpt><trkpt lat="43.493204748776535" lon="11.442132171160369"><ele>677.3333333333333</ele><time>2026-04-12T12:28:38.001Z</time></trkpt><trkpt lat="43.49335351832045" lon="11.442134084625309"><ele>677.6666666666666</ele><time>2026-04-12T12:28:39.001Z</time></trkpt><trkpt lat="43.49352934204785" lon="11.442105232950725"><ele>678.0</ele><time>2026-04-12T12:28:40.001Z</time></trkpt><trkpt lat="43.493708744877985" lon="11.442106885733288"><ele>681.75</ele><time>2026-04-12T12:28:41.001Z</time></trkpt><trkpt lat="43.49385883323485" lon="11.442092863888616"><ele>685.5</ele><time>2026-04-12T12:28:42.001Z</time></trkpt><trkpt lat="43.49400588610092" lon="11.442117796348963"><ele>689.25</ele><time>2026-04-12T12:28:43.001Z</time></trkpt><trkpt lat="43.49411975658794" lon="11.442108333883985"><ele>693.0</ele><time>2026-04-12T12:28:44.001Z</time></trkpt><trkpt lat="43.494218434491025" lon="11.442077205143747"><ele>640.0</ele><time>2026-04-12T12:28:45.001Z</time></trkpt><trkpt lat="43.49508330634745" lon="11.432414441267872"><ele>640.0</ele><time>2026-04-12T12:29:46Z</time></trkpt><trkpt lat="43.49508502867375" lon="11.432236275958791"><ele>640.0</ele><time>2026-04-12T12:29:47Z</time></trkpt><trkpt lat="43.49505830785495" lon="11.432050200230686"><ele>640.0</ele><time>2026-04-12T12:29:48Z</time></trkpt><trkpt lat="43.49499126415952" lon="11.431851784203621"><ele>640.0</ele><time>2026-04-12T12:29:49Z</time></trkpt><trkpt lat="43.49491579983906" lon="11.431632543042895"><ele>638.0</ele><time>2026-04-12T12:29:50Z</time></trkpt><trkpt lat="43.49485598295935" lon="11.431407643814165"><ele>636.0</ele><time>2026-04-12T12:29:51Z</time></trkpt><trkpt lat="43.49482189106234" lon="11.431159189537315"><ele>634.0</ele><time>2026-04-12T12:29:52Z</time></trkpt><trkpt lat="43.4947699261603" lon="11.430906002701853"><ele>632.6666666666667</ele><time>2026-04-12T12:29:53Z</time></trkpt><trkpt lat="43.49471748667264" lon="11.43064935913956"><ele>631.3333333333334</ele><time>2026-04-12T12:29:54Z</time></trkpt><trkpt lat="43.49464297556685" lon="11.430399597683428"><ele>630.0</ele><time>2026-04-12T12:29:55Z</time></trkpt><trkpt lat="43.494571675018754" lon="11.430174575917876"><ele>630.0</ele><time>2026-04-12T12:29:56Z</time></trkpt><trkpt lat="43.49451377815072" lon="11.429986346513733"><ele>630.0</ele><time>2026-04-12T12:29:57Z</time></trkpt><trkpt lat="43.494466776405616" lon="11.429852392740843"><ele>630.0</ele><time>2026-04-12T12:29:58Z</time></trkpt><trkpt lat="43.49440427913493" lon="11.42975452274947"><ele>630.0</ele><time>2026-04-12T12:29:59Z</time></trkpt><trkpt lat="43.49431347899002" lon="11.429691014208423"><ele>630.0</ele><time>2026-04-12T12:30:00Z</time></trkpt><trkpt lat="43.49419332989959" lon="11.429760655905799"><ele>630.0</ele><time>2026-04-12T12:30:01Z</time></trkpt><trkpt lat="43.49407492885435" lon="11.429848276031"><ele>630.0</ele><time>2026-04-12T12:30:02Z</time></trkpt><trkpt lat="43.49395123176782" lon="11.429941986624863"><ele>630.0</ele><time>2026-04-12T12:30:03Z</time></trkpt><trkpt lat="43.493847466378085" lon="11.42997290362559"><ele>628.5</ele><time>2026-04-12T12:30:04Z</time></trkpt><trkpt lat="43.49375175236124" lon="11.429953326315498"><ele>627.0</ele><time>2026-04-12T12:30:05Z</time></trkpt><trkpt lat="43.49367157887043" lon="11.429846632496037"><ele>625.5</ele><time>2026-04-12T12:30:06Z</time></trkpt><trkpt lat="43.49362423358464" lon="11.429674786148341"><ele>624.0</ele><time>2026-04-12T12:30:07Z</time></trkpt><trkpt lat="43.49353561362376" lon="11.429545498105153"><ele>624.0</ele><time>2026-04-12T12:30:08Z</time></trkpt><trkpt lat="43.49345079810955" lon="11.42943780865374"><ele>624.0</ele><time>2026-04-12T12:30:09Z</time></trkpt><trkpt lat="43.493331400291986" lon="11.429402115304018"><ele>624.0</ele><time>2026-04-12T12:30:10Z</time></trkpt><trkpt lat="43.49322457959795" lon="11.429353733323783"><ele>624.0</ele><time>2026-04-12T12:30:11Z</time></trkpt><trkpt lat="43.49314566462399" lon="11.429274250788731"><ele>624.0</ele><time>2026-04-12T12:30:12Z</time></trkpt><trkpt lat="43.49312622855838" lon="11.429155217944226"><ele>624.0</ele><time>2026-04-12T12:30:13Z</time></trkpt><trkpt lat="43.49316888056111" lon="11.42903995318763"><ele>624.0</ele><time>2026-04-12T12:30:14Z</time></trkpt><trkpt lat="43.49326777165356" lon="11.428963610938071"><ele>624.0</ele><time>2026-04-12T12:30:15Z</time></trkpt><trkpt lat="43.493362411311416" lon="11.428874025816675"><ele>624.0</ele><time>2026-04-12T12:30:16Z</time></trkpt><trkpt lat="43.49342525936027" lon="11.428710197170046"><ele>625.0</ele><time>2026-04-12T12:30:17Z</time></trkpt><trkpt lat="43.49345681444353" lon="11.428502633913714"><ele>626.0</ele><time>2026-04-12T12:30:18Z</time></trkpt><trkpt lat="43.49351408530461" lon="11.428281845829169"><ele>627.0</ele><time>2026-04-12T12:30:19Z</time></trkpt><trkpt lat="43.493626937555035" lon="11.42812161158237"><ele>626.75</ele><time>2026-04-12T12:30:20Z</time></trkpt><trkpt lat="43.49372879013137" lon="11.427965648508474"><ele>626.5</ele><time>2026-04-12T12:30:21Z</time></trkpt><trkpt lat="43.49380067283552" lon="11.42776657201273"><ele>626.25</ele><time>2026-04-12T12:30:22Z</time></trkpt><trkpt lat="43.493836019862876" lon="11.427596395197842"><ele>626.0</ele><time>2026-04-12T12:30:23Z</time></trkpt><trkpt lat="43.49382526731118" lon="11.427457821067694"><ele>626.0</ele><time>2026-04-12T12:30:24Z</time></trkpt><trkpt lat="43.49375874069425" lon="11.427347519189764"><ele>626.0</ele><time>2026-04-12T12:30:25Z</time></trkpt><trkpt lat="43.49365193352658" lon="11.427269094875767"><ele>626.0</ele><time>2026-04-12T12:30:26Z</time></trkpt><trkpt lat="43.49353995091864" lon="11.427190857527114"><ele>626.0</ele><time>2026-04-12T12:30:27Z</time></trkpt><trkpt lat="43.49347705803709" lon="11.427067911298174"><ele>622.5</ele><time>2026-04-12T12:30:28Z</time></trkpt><trkpt lat="43.493460893351944" lon="11.426894134762545"><ele>619.0</ele><time>2026-04-12T12:30:29Z</time></trkpt><trkpt lat="43.493479201390095" lon="11.42670219411185"><ele>615.5</ele><time>2026-04-12T12:30:30.001Z</time></trkpt><trkpt lat="43.49347747857027" lon="11.426536070186545"><ele>612.0</ele><time>2026-04-12T12:30:31.001Z</time></trkpt><trkpt lat="43.493414611815886" lon="11.426385167562836"><ele>609.5</ele><time>2026-04-12T12:30:32.001Z</time></trkpt><trkpt lat="43.49330924691124" lon="11.426258005905863"><ele>607.0</ele><time>2026-04-12T12:30:33.001Z</time></trkpt><trkpt lat="43.49318397089221" lon="11.426159070639581"><ele>604.5</ele><time>2026-04-12T12:30:34.001Z</time></trkpt><trkpt lat="43.49309874761659" lon="11.426111710084303"><ele>602.0</ele><time>2026-04-12T12:30:35.001Z</time></trkpt><trkpt lat="43.4930306942509" lon="11.426071844791503"><ele>602.0</ele><time>2026-04-12T12:30:36.001Z</time></trkpt><trkpt lat="43.493013838516305" lon="11.425983295781197"><ele>602.0</ele><time>2026-04-12T12:30:37.001Z</time></trkpt><trkpt lat="43.493040380116526" lon="11.42584156963993"><ele>602.0</ele><time>2026-04-12T12:30:38.001Z</time></trkpt><trkpt lat="43.493109575079785" lon="11.425673109114742"><ele>602.0</ele><time>2026-04-12T12:30:39.001Z</time></trkpt><trkpt lat="43.49311269310184" lon="11.425477446892847"><ele>602.3333333333333</ele><time>2026-04-12T12:30:40.001Z</time></trkpt><trkpt lat="43.49316563500424" lon="11.425247129560184"><ele>602.6666666666666</ele><time>2026-04-12T12:30:41.001Z</time></trkpt><trkpt lat="43.493166199772" lon="11.425002871736826"><ele>603.0</ele><time>2026-04-12T12:30:42.001Z</time></trkpt><trkpt lat="43.49314962809636" lon="11.424769672332912"><ele>602.3333333333334</ele><time>2026-04-12T12:30:43.001Z</time></trkpt><trkpt lat="43.493073999941515" lon="11.424493770136623"><ele>601.6666666666667</ele><time>2026-04-12T12:30:44.001Z</time></trkpt><trkpt lat="43.4929972406409" lon="11.424231287256898"><ele>601.0</ele><time>2026-04-12T12:30:45.001Z</time></trkpt><trkpt lat="43.490298124667135" lon="11.421431900576868"><ele>594.4</ele><time>2026-04-12T12:31:46Z</time></trkpt><trkpt lat="43.49019418878984" lon="11.421465789806033"><ele>587.8</ele><time>2026-04-12T12:31:47Z</time></trkpt><trkpt lat="43.49009285944605" lon="11.421498690304123"><ele>581.1999999999999</ele><time>2026-04-12T12:31:48Z</time></trkpt><trkpt lat="43.48999146472497" lon="11.42153982679715"><ele>574.6</ele><time>2026-04-12T12:31:49Z</time></trkpt><trkpt lat="43.489890839251416" lon="11.42157395448634"><ele>568.0</ele><time>2026-04-12T12:31:50Z</time></trkpt><trkpt lat="43.489778421257945" lon="11.421609707024873"><ele>568.0</ele><time>2026-04-12T12:31:51Z</time></trkpt><trkpt lat="43.48966841571238" lon="11.421660354725079"><ele>568.0</ele><time>2026-04-12T12:31:52Z</time></trkpt><trkpt lat="43.48955915556555" lon="11.421720551147782"><ele>568.0</ele><time>2026-04-12T12:31:53Z</time></trkpt><trkpt lat="43.4894550160371" lon="11.421785510109423"><ele>568.0</ele><time>2026-04-12T12:31:54Z</time></trkpt><trkpt lat="43.48934518371074" lon="11.421832030151245"><ele>564.8</ele><time>2026-04-12T12:31:55Z</time></trkpt><trkpt lat="43.489249287146095" lon="11.421880122707325"><ele>561.5999999999999</ele><time>2026-04-12T12:31:56Z</time></trkpt><trkpt lat="43.48914955946298" lon="11.42188064019038"><ele>558.4000000000001</ele><time>2026-04-12T12:31:57Z</time></trkpt><trkpt lat="43.48904156548428" lon="11.421883850994597"><ele>555.2</ele><time>2026-04-12T12:31:58Z</time></trkpt><trkpt lat="43.488941181583186" lon="11.421886511922452"><ele>552.0</ele><time>2026-04-12T12:31:59Z</time></trkpt><trkpt lat="43.48884040483178" lon="11.42192332927761"><ele>553.2</ele><time>2026-04-12T12:32:00Z</time></trkpt><trkpt lat="43.48874191483864" lon="11.42195127367877"><ele>554.4000000000001</ele><time>2026-04-12T12:32:01Z</time></trkpt><trkpt lat="43.48864490185257" lon="11.421995259306804"><ele>555.5999999999999</ele><time>2026-04-12T12:32:02Z</time></trkpt><trkpt lat="43.48854941633081" lon="11.422050722302078"><ele>556.8</ele><time>2026-04-12T12:32:03Z</time></trkpt><trkpt lat="43.4884632583601" lon="11.422110623989807"><ele>558.0</ele><time>2026-04-12T12:32:04Z</time></trkpt><trkpt lat="43.488393445054705" lon="11.42218129926046"><ele>558.0</ele><time>2026-04-12T12:32:05Z</time></trkpt><trkpt lat="43.48834364140926" lon="11.422281533651232"><ele>558.0</ele><time>2026-04-12T12:32:06Z</time></trkpt><trkpt lat="43.488307636410404" lon="11.422416564336114"><ele>558.0</ele><time>2026-04-12T12:32:07Z</time></trkpt><trkpt lat="43.488279341997675" lon="11.42256934444755"><ele>558.0</ele><time>2026-04-12T12:32:08Z</time></trkpt><trkpt lat="43.48825691746034" lon="11.422689830720671"><ele>558.0</ele><time>2026-04-12T12:32:09Z</time></trkpt><trkpt lat="43.48818311442295" lon="11.422805949379383"><ele>558.0</ele><time>2026-04-12T12:32:11Z</time></trkpt><trkpt lat="43.48811854688578" lon="11.422817947338395"><ele>558.0</ele><time>2026-04-12T12:32:12Z</time></trkpt><trkpt lat="43.48804833563729" lon="11.422766420286377"><ele>558.0</ele><time>2026-04-12T12:32:13Z</time></trkpt><trkpt lat="43.48798336837765" lon="11.422698494366072"><ele>558.0</ele><time>2026-04-12T12:32:14Z</time></trkpt><trkpt lat="43.487905855626785" lon="11.42263164203978"><ele>558.0</ele><time>2026-04-12T12:32:15Z</time></trkpt><trkpt lat="43.48781321554161" lon="11.422568715379656"><ele>558.0</ele><time>2026-04-12T12:32:16Z</time></trkpt><trkpt lat="43.48772436668184" lon="11.42248274264845"><ele>557.0</ele><time>2026-04-12T12:32:17Z</time></trkpt><trkpt lat="43.48763834598109" lon="11.422377138164512"><ele>556.0</ele><time>2026-04-12T12:32:18Z</time></trkpt><trkpt lat="43.487532418195535" lon="11.422277413334111"><ele>555.0</ele><time>2026-04-12T12:32:19Z</time></trkpt><trkpt lat="43.48743713361866" lon="11.422188247203438"><ele>554.0</ele><time>2026-04-12T12:32:20Z</time></trkpt><trkpt lat="43.4873442465738" lon="11.42209780145346"><ele>551.8</ele><time>2026-04-12T12:32:21Z</time></trkpt><trkpt lat="43.487253158688105" lon="11.422000328450746"><ele>549.5999999999999</ele><time>2026-04-12T12:32:22Z</time></trkpt><trkpt lat="43.487185229648524" lon="11.421906249960303"><ele>547.4</ele><time>2026-04-12T12:32:23Z</time></trkpt><trkpt lat="43.48712967963634" lon="11.421812858955384"><ele>545.1999999999999</ele><time>2026-04-12T12:32:24Z</time></trkpt><trkpt lat="43.487080757209895" lon="11.421717816546499"><ele>543.0</ele><time>2026-04-12T12:32:25Z</time></trkpt><trkpt lat="43.48702380733087" lon="11.421612695897812"><ele>543.0</ele><time>2026-04-12T12:32:26Z</time></trkpt><trkpt lat="43.48696097573649" lon="11.421496718543558"><ele>543.0</ele><time>2026-04-12T12:32:27Z</time></trkpt><trkpt lat="43.486893126997934" lon="11.42136927671622"><ele>543.0</ele><time>2026-04-12T12:32:28Z</time></trkpt><trkpt lat="43.486817647237345" lon="11.42122561049082"><ele>543.0</ele><time>2026-04-12T12:32:29Z</time></trkpt><trkpt lat="43.486739624459965" lon="11.421080767876452"><ele>542.75</ele><time>2026-04-12T12:32:30Z</time></trkpt><trkpt lat="43.48665783562658" lon="11.420933621955925"><ele>542.5</ele><time>2026-04-12T12:32:31Z</time></trkpt><trkpt lat="43.48657310398838" lon="11.420794939968847"><ele>542.25</ele><time>2026-04-12T12:32:32Z</time></trkpt><trkpt lat="43.486477649579584" lon="11.420680414682963"><ele>542.0</ele><time>2026-04-12T12:32:33Z</time></trkpt><trkpt lat="43.486382531847276" lon="11.420565985198996"><ele>543.25</ele><time>2026-04-12T12:32:34.001Z</time></trkpt><trkpt lat="43.48628123426947" lon="11.42046552087622"><ele>544.5</ele><time>2026-04-12T12:32:35.001Z</time></trkpt><trkpt lat="43.486180829211335" lon="11.420360465450425"><ele>545.75</ele><time>2026-04-12T12:32:36.001Z</time></trkpt><trkpt lat="43.48605982148787" lon="11.420276389032033"><ele>547.0</ele><time>2026-04-12T12:32:37.001Z</time></trkpt><trkpt lat="43.48593193670463" lon="11.420198971623163"><ele>547.0</ele><time>2026-04-12T12:32:38.001Z</time></trkpt><trkpt lat="43.485801855205644" lon="11.420118797455897"><ele>547.0</ele><time>2026-04-12T12:32:39.001Z</time></trkpt><trkpt lat="43.485664127469" lon="11.420036971790417"><ele>547.0</ele><time>2026-04-12T12:32:40.001Z</time></trkpt><trkpt lat="43.48552430032913" lon="11.41995890785507"><ele>547.0</ele><time>2026-04-12T12:32:41.001Z</time></trkpt><trkpt lat="43.48538455583337" lon="11.419881441645009"><ele>546.75</ele><time>2026-04-12T12:32:42.001Z</time></trkpt><trkpt lat="43.48523921950111" lon="11.419799437926445"><ele>546.5</ele><time>2026-04-12T12:32:43.001Z</time></trkpt><trkpt lat="43.48509857137331" lon="11.419718061861373"><ele>546.25</ele><time>2026-04-12T12:32:44.001Z</time></trkpt><trkpt lat="43.484978385615975" lon="11.419647376935693"><ele>546.0</ele><time>2026-04-12T12:32:45.001Z</time></trkpt><trkpt lat="43.48186106298771" lon="11.413597576459285"><ele>554.75</ele><time>2026-04-12T12:33:46Z</time></trkpt><trkpt lat="43.48182147249809" lon="11.41344275905337"><ele>563.5</ele><time>2026-04-12T12:33:47Z</time></trkpt><trkpt lat="43.48179148143825" lon="11.413279268663244"><ele>572.25</ele><time>2026-04-12T12:33:48Z</time></trkpt><trkpt lat="43.48176053475809" lon="11.413103778699643"><ele>581.0</ele><time>2026-04-12T12:33:49Z</time></trkpt><trkpt lat="43.481734835002506" lon="11.412929990869486"><ele>582.25</ele><time>2026-04-12T12:33:50Z</time></trkpt><trkpt lat="43.4817045318677" lon="11.412758835695463"><ele>583.5</ele><time>2026-04-12T12:33:51Z</time></trkpt><trkpt lat="43.48167573278044" lon="11.412586241754243"><ele>584.75</ele><time>2026-04-12T12:33:52Z</time></trkpt><trkpt lat="43.48166286636314" lon="11.412433305326806"><ele>586.0</ele><time>2026-04-12T12:33:53Z</time></trkpt><trkpt lat="43.481646339605234" lon="11.412289756552562"><ele>586.0</ele><time>2026-04-12T12:33:54Z</time></trkpt><trkpt lat="43.48164484565315" lon="11.412174739273052"><ele>586.0</ele><time>2026-04-12T12:33:55Z</time></trkpt><trkpt lat="43.48164304502968" lon="11.41206603212362"><ele>586.0</ele><time>2026-04-12T12:33:56Z</time></trkpt><trkpt lat="43.48162822371731" lon="11.411939905143333"><ele>586.0</ele><time>2026-04-12T12:33:57Z</time></trkpt><trkpt lat="43.48159664271683" lon="11.411810940978127"><ele>586.0</ele><time>2026-04-12T12:33:58Z</time></trkpt><trkpt lat="43.4815642309342" lon="11.41166062842459"><ele>585.4</ele><time>2026-04-12T12:33:59Z</time></trkpt><trkpt lat="43.481506921393674" lon="11.411520525160643"><ele>584.8</ele><time>2026-04-12T12:34:00Z</time></trkpt><trkpt lat="43.48145550492532" lon="11.41138192329001"><ele>584.1999999999999</ele><time>2026-04-12T12:34:01Z</time></trkpt><trkpt lat="43.481417961357415" lon="11.411249134516916"><ele>583.6</ele><time>2026-04-12T12:34:02Z</time></trkpt><trkpt lat="43.48139450522845" lon="11.411108197613007"><ele>583.0</ele><time>2026-04-12T12:34:03Z</time></trkpt><trkpt lat="43.48137549078599" lon="11.41095254880296"><ele>583.0</ele><time>2026-04-12T12:34:04Z</time></trkpt><trkpt lat="43.48136072445738" lon="11.410789134486748"><ele>583.0</ele><time>2026-04-12T12:34:05Z</time></trkpt><trkpt lat="43.481353419632285" lon="11.410634271070952"><ele>583.0</ele><time>2026-04-12T12:34:06Z</time></trkpt><trkpt lat="43.48134285026918" lon="11.410481249321448"><ele>583.0</ele><time>2026-04-12T12:34:07Z</time></trkpt><trkpt lat="43.48136249257357" lon="11.410318182124326"><ele>583.0</ele><time>2026-04-12T12:34:08Z</time></trkpt><trkpt lat="43.48138466823202" lon="11.41015871337937"><ele>583.0</ele><time>2026-04-12T12:34:09Z</time></trkpt><trkpt lat="43.481408874631875" lon="11.409986148366569"><ele>583.0</ele><time>2026-04-12T12:34:10Z</time></trkpt><trkpt lat="43.481449678490065" lon="11.409820652512447"><ele>583.0</ele><time>2026-04-12T12:34:11Z</time></trkpt><trkpt lat="43.481497386237805" lon="11.409657766156318"><ele>583.25</ele><time>2026-04-12T12:34:12Z</time></trkpt><trkpt lat="43.48154985735238" lon="11.409486560978703"><ele>583.5</ele><time>2026-04-12T12:34:13Z</time></trkpt><trkpt lat="43.48159843409525" lon="11.409329174509857"><ele>583.75</ele><time>2026-04-12T12:34:14Z</time></trkpt><trkpt lat="43.48164165508876" lon="11.409171454380528"><ele>584.0</ele><time>2026-04-12T12:34:15Z</time></trkpt><trkpt lat="43.481684931910635" lon="11.409031730906733"><ele>584.0</ele><time>2026-04-12T12:34:16Z</time></trkpt><trkpt lat="43.48172500574923" lon="11.40890767337848"><ele>584.0</ele><time>2026-04-12T12:34:17.001Z</time></trkpt><trkpt lat="43.48176896865266" lon="11.408788567968221"><ele>584.0</ele><time>2026-04-12T12:34:18.001Z</time></trkpt><trkpt lat="43.48182125145765" lon="11.408651899872854"><ele>584.0</ele><time>2026-04-12T12:34:19.001Z</time></trkpt><trkpt lat="43.48185963218696" lon="11.408554701876392"><ele>584.0</ele><time>2026-04-12T12:34:20.001Z</time></trkpt><trkpt lat="43.48190983254364" lon="11.408444487563292"><ele>582.8571428571429</ele><time>2026-04-12T12:34:21.001Z</time></trkpt><trkpt lat="43.48196138562087" lon="11.408359053929908"><ele>581.7142857142858</ele><time>2026-04-12T12:34:22.001Z</time></trkpt><trkpt lat="43.48200694528385" lon="11.408295482777984"><ele>580.5714285714287</ele><time>2026-04-12T12:34:23.001Z</time></trkpt><trkpt lat="43.48204854446305" lon="11.408225865988983"><ele>579.4285714285714</ele><time>2026-04-12T12:34:24.001Z</time></trkpt><trkpt lat="43.48210332858127" lon="11.408172772156306"><ele>578.2857142857143</ele><time>2026-04-12T12:34:25.001Z</time></trkpt><trkpt lat="43.48215964830192" lon="11.40811009926742"><ele>577.1428571428572</ele><time>2026-04-12T12:34:26.001Z</time></trkpt><trkpt lat="43.482203912311036" lon="11.408025433352714"><ele>576.0</ele><time>2026-04-12T12:34:27.001Z</time></trkpt><trkpt lat="43.48223741171793" lon="11.407934626828599"><ele>574.5</ele><time>2026-04-12T12:34:28.001Z</time></trkpt><trkpt lat="43.48228168912372" lon="11.407835637200405"><ele>573.0</ele><time>2026-04-12T12:34:29.001Z</time></trkpt><trkpt lat="43.48232544619834" lon="11.40775227435022"><ele>571.5</ele><time>2026-04-12T12:34:30.001Z</time></trkpt><trkpt lat="43.48236178693898" lon="11.407646868439572"><ele>570.0</ele><time>2026-04-12T12:34:31.001Z</time></trkpt><trkpt lat="43.48240055610581" lon="11.407528547057309"><ele>568.5</ele><time>2026-04-12T12:34:32.001Z</time></trkpt><trkpt lat="43.48243280098728" lon="11.407388004445103"><ele>567.0</ele><time>2026-04-12T12:34:33.001Z</time></trkpt><trkpt lat="43.482468161640085" lon="11.407261101749732"><ele>566.5</ele><time>2026-04-12T12:34:34.001Z</time></trkpt><trkpt lat="43.4824978726939" lon="11.407153702452655"><ele>566.0</ele><time>2026-04-12T12:34:35.001Z</time></trkpt><trkpt lat="43.482537823655576" lon="11.407057750857708"><ele>565.5</ele><time>2026-04-12T12:34:36.001Z</time></trkpt><trkpt lat="43.48259750086748" lon="11.40700143496498"><ele>565.0</ele><time>2026-04-12T12:34:37.001Z</time></trkpt><trkpt lat="43.48265636101319" lon="11.406952463121875"><ele>564.5</ele><time>2026-04-12T12:34:38.001Z</time></trkpt><trkpt lat="43.4827088738051" lon="11.40688728111316"><ele>564.0</ele><time>2026-04-12T12:34:39.001Z</time></trkpt><trkpt lat="43.48279291533418" lon="11.406787167398399"><ele>564.0</ele><time>2026-04-12T12:34:41.001Z</time></trkpt><trkpt lat="43.48281258059543" lon="11.406652326781359"><ele>564.0</ele><time>2026-04-12T12:34:43.001Z</time></trkpt><trkpt lat="43.48279657825084" lon="11.406561847159589"><ele>564.0</ele><time>2026-04-12T12:34:44.001Z</time></trkpt><trkpt lat="43.482777059391296" lon="11.406437182279538"><ele>564.0</ele><time>2026-04-12T12:34:45.001Z</time></trkpt><trkpt lat="43.48261599681094" lon="11.403020313636171"><ele>547.25</ele><time>2026-04-12T12:35:46.002Z</time></trkpt><trkpt lat="43.482731995468434" lon="11.40298974223902"><ele>530.5</ele><time>2026-04-12T12:35:47.002Z</time></trkpt><trkpt lat="43.482851794941865" lon="11.402960083108505"><ele>513.75</ele><time>2026-04-12T12:35:48.001Z</time></trkpt><trkpt lat="43.48296262849376" lon="11.402936565704513"><ele>497.0</ele><time>2026-04-12T12:35:49.001Z</time></trkpt><trkpt lat="43.48307119724382" lon="11.402904425725357"><ele>496.20000000000005</ele><time>2026-04-12T12:35:50.001Z</time></trkpt><trkpt lat="43.48317394038796" lon="11.402874304883031"><ele>495.40000000000003</ele><time>2026-04-12T12:35:51.001Z</time></trkpt><trkpt lat="43.48327523090223" lon="11.402844155948799"><ele>494.59999999999997</ele><time>2026-04-12T12:35:52.001Z</time></trkpt><trkpt lat="43.483372048631296" lon="11.402825298483165"><ele>493.79999999999995</ele><time>2026-04-12T12:35:53.001Z</time></trkpt><trkpt lat="43.48346487678932" lon="11.402822943374971"><ele>493.0</ele><time>2026-04-12T12:35:54.001Z</time></trkpt><trkpt lat="43.483545699901796" lon="11.402831361199215"><ele>493.00000000000006</ele><time>2026-04-12T12:35:55.001Z</time></trkpt><trkpt lat="43.48361905526452" lon="11.402866765676968"><ele>493.0</ele><time>2026-04-12T12:35:56.001Z</time></trkpt><trkpt lat="43.483677349082186" lon="11.402912031314996"><ele>493.0</ele><time>2026-04-12T12:35:57.001Z</time></trkpt><trkpt lat="43.48373206425034" lon="11.4029938680857"><ele>493.0</ele><time>2026-04-12T12:35:58.001Z</time></trkpt><trkpt lat="43.48377631573434" lon="11.403098975353124"><ele>493.00000000000006</ele><time>2026-04-12T12:35:59.001Z</time></trkpt><trkpt lat="43.48382893445549" lon="11.403235339779984"><ele>493.0</ele><time>2026-04-12T12:36:00.001Z</time></trkpt><trkpt lat="43.48391335670303" lon="11.4033735476205"><ele>492.0</ele><time>2026-04-12T12:36:01.001Z</time></trkpt><trkpt lat="43.48400307461012" lon="11.403506565664689"><ele>491.0</ele><time>2026-04-12T12:36:02.001Z</time></trkpt><trkpt lat="43.4840917565851" lon="11.403632464056848"><ele>490.0</ele><time>2026-04-12T12:36:03.001Z</time></trkpt><trkpt lat="43.48416940781742" lon="11.403760922112252"><ele>489.0</ele><time>2026-04-12T12:36:04.001Z</time></trkpt><trkpt lat="43.48423628214278" lon="11.40387605549218"><ele>490.3333333333333</ele><time>2026-04-12T12:36:05.001Z</time></trkpt><trkpt lat="43.484280877678" lon="11.403964817742317"><ele>491.66666666666663</ele><time>2026-04-12T12:36:06.001Z</time></trkpt><trkpt lat="43.484288974591294" lon="11.404072217121563"><ele>493.0</ele><time>2026-04-12T12:36:07.001Z</time></trkpt><trkpt lat="43.484301045574" lon="11.404170347079843"><ele>494.3333333333333</ele><time>2026-04-12T12:36:08.001Z</time></trkpt><trkpt lat="43.48432063361024" lon="11.40429252514575"><ele>495.66666666666663</ele><time>2026-04-12T12:36:09.001Z</time></trkpt><trkpt lat="43.48436009842673" lon="11.404418409082313"><ele>497.0</ele><time>2026-04-12T12:36:10.001Z</time></trkpt><trkpt lat="43.484429186034376" lon="11.404511392856152"><ele>497.0</ele><time>2026-04-12T12:36:11.001Z</time></trkpt><trkpt lat="43.48450588588915" lon="11.40459635756349"><ele>497.0</ele><time>2026-04-12T12:36:12.001Z</time></trkpt><trkpt lat="43.48459089466256" lon="11.404693254685013"><ele>497.0</ele><time>2026-04-12T12:36:13.001Z</time></trkpt><trkpt lat="43.48469253536539" lon="11.404809952849233"><ele>497.0</ele><time>2026-04-12T12:36:14.001Z</time></trkpt><trkpt lat="43.48476169825881" lon="11.404953646834956"><ele>494.16666666666663</ele><time>2026-04-12T12:36:15.001Z</time></trkpt><trkpt lat="43.48482929742629" lon="11.405091827090057"><ele>491.3333333333333</ele><time>2026-04-12T12:36:16.001Z</time></trkpt><trkpt lat="43.48488561281127" lon="11.405206498253905"><ele>488.5</ele><time>2026-04-12T12:36:17.001Z</time></trkpt><trkpt lat="43.48493172286386" lon="11.405280197351267"><ele>485.66666666666663</ele><time>2026-04-12T12:36:18.001Z</time></trkpt><trkpt lat="43.48496398478793" lon="11.405372462810854"><ele>482.8333333333333</ele><time>2026-04-12T12:36:19.001Z</time></trkpt><trkpt lat="43.48497462617053" lon="11.405485835812403"><ele>480.0</ele><time>2026-04-12T12:36:20.001Z</time></trkpt><trkpt lat="43.484975358708375" lon="11.40561677860938"><ele>480.0</ele><time>2026-04-12T12:36:21.001Z</time></trkpt><trkpt lat="43.48496023459619" lon="11.405761937824872"><ele>480.0</ele><time>2026-04-12T12:36:22.001Z</time></trkpt><trkpt lat="43.48495211557408" lon="11.405899970512795"><ele>480.0</ele><time>2026-04-12T12:36:23.001Z</time></trkpt><trkpt lat="43.48497344509762" lon="11.406030410470631"><ele>480.0</ele><time>2026-04-12T12:36:24.001Z</time></trkpt><trkpt lat="43.48502920653412" lon="11.406141940625963"><ele>480.0</ele><time>2026-04-12T12:36:25.001Z</time></trkpt><trkpt lat="43.48510855084124" lon="11.406256479052274"><ele>481.0</ele><time>2026-04-12T12:36:26.001Z</time></trkpt><trkpt lat="43.485188983591044" lon="11.40638211745941"><ele>482.0</ele><time>2026-04-12T12:36:27.001Z</time></trkpt><trkpt lat="43.485222844161925" lon="11.406515127813133"><ele>483.0</ele><time>2026-04-12T12:36:28.001Z</time></trkpt><trkpt lat="43.485257424354614" lon="11.406628843627267"><ele>484.0</ele><time>2026-04-12T12:36:29.001Z</time></trkpt><trkpt lat="43.48525139500828" lon="11.406761389711024"><ele>485.0</ele><time>2026-04-12T12:36:30.001Z</time></trkpt><trkpt lat="43.48525071912062" lon="11.40690340975496"><ele>484.99999999999994</ele><time>2026-04-12T12:36:31.001Z</time></trkpt><trkpt lat="43.485267709442354" lon="11.407009344932963"><ele>485.0</ele><time>2026-04-12T12:36:32.001Z</time></trkpt><trkpt lat="43.48531476240568" lon="11.407077932766336"><ele>485.0</ele><time>2026-04-12T12:36:33.001Z</time></trkpt><trkpt lat="43.485386312413254" lon="11.407109458298562"><ele>485.0</ele><time>2026-04-12T12:36:34.001Z</time></trkpt><trkpt lat="43.48547427019326" lon="11.407097255882446"><ele>484.99999999999994</ele><time>2026-04-12T12:36:35.001Z</time></trkpt><trkpt lat="43.48555687268603" lon="11.4071291308301"><ele>485.0</ele><time>2026-04-12T12:36:36.001Z</time></trkpt><trkpt lat="43.485623357379176" lon="11.407153505680617"><ele>483.2</ele><time>2026-04-12T12:36:37.001Z</time></trkpt><trkpt lat="43.48571068542267" lon="11.407271131684958"><ele>481.4</ele><time>2026-04-12T12:36:39.001Z</time></trkpt><trkpt lat="43.48574225162725" lon="11.407400784235337"><ele>479.6</ele><time>2026-04-12T12:36:40.001Z</time></trkpt><trkpt lat="43.48573507079549" lon="11.407543226460428"><ele>477.8</ele><time>2026-04-12T12:36:41.001Z</time></trkpt><trkpt lat="43.48576703088708" lon="11.407669568747776"><ele>476.0</ele><time>2026-04-12T12:36:42.001Z</time></trkpt><trkpt lat="43.48586396182255" lon="11.407782404206637"><ele>476.0</ele><time>2026-04-12T12:36:43.001Z</time></trkpt><trkpt lat="43.485961008892" lon="11.407905383818271"><ele>476.0</ele><time>2026-04-12T12:36:44.001Z</time></trkpt><trkpt lat="43.48602501848767" lon="11.408048065743891"><ele>476.0</ele><time>2026-04-12T12:36:45.001Z</time></trkpt><trkpt lat="43.487198648192454" lon="11.401425738972806"><ele>483.25</ele><time>2026-04-12T12:37:46.001Z</time></trkpt><trkpt lat="43.48725949466732" lon="11.401262976365379"><ele>490.5</ele><time>2026-04-12T12:37:47.001Z</time></trkpt><trkpt lat="43.48731628661336" lon="11.401101634661483"><ele>497.75</ele><time>2026-04-12T12:37:48.001Z</time></trkpt><trkpt lat="43.48736488812345" lon="11.400931424768888"><ele>505.0</ele><time>2026-04-12T12:37:49.001Z</time></trkpt><trkpt lat="43.48740579937461" lon="11.400770345490091"><ele>505.0</ele><time>2026-04-12T12:37:50.001Z</time></trkpt><trkpt lat="43.4874129240386" lon="11.400603487270095"><ele>505.0</ele><time>2026-04-12T12:37:51.001Z</time></trkpt><trkpt lat="43.48740748473419" lon="11.400418993380764"><ele>505.0</ele><time>2026-04-12T12:37:52.001Z</time></trkpt><trkpt lat="43.4873981738026" lon="11.400219352908335"><ele>505.0</ele><time>2026-04-12T12:37:53.002Z</time></trkpt><trkpt lat="43.48740121118261" lon="11.400062281646933"><ele>505.33333333333337</ele><time>2026-04-12T12:37:54.001Z</time></trkpt><trkpt lat="43.48742484732305" lon="11.399942877084905"><ele>505.6666666666667</ele><time>2026-04-12T12:37:55.001Z</time></trkpt><trkpt lat="43.487420720081786" lon="11.39984116113661"><ele>506.0</ele><time>2026-04-12T12:37:56.001Z</time></trkpt><trkpt lat="43.48743430537131" lon="11.399741705634213"><ele>506.33333333333337</ele><time>2026-04-12T12:37:58.001Z</time></trkpt><trkpt lat="43.48740441352321" lon="11.399617255573771"><ele>506.6666666666667</ele><time>2026-04-12T12:38:25.001Z</time></trkpt><trkpt lat="43.48736760734435" lon="11.399524190177951"><ele>507.0</ele><time>2026-04-12T12:38:26.001Z</time></trkpt><trkpt lat="43.48732092567715" lon="11.399433063315177"><ele>507.0</ele><time>2026-04-12T12:38:27.001Z</time></trkpt><trkpt lat="43.48725695800248" lon="11.39934786948038"><ele>507.0</ele><time>2026-04-12T12:38:28.001Z</time></trkpt><trkpt lat="43.48720004357597" lon="11.399227376022186"><ele>507.0</ele><time>2026-04-12T12:38:29.001Z</time></trkpt><trkpt lat="43.48713811822565" lon="11.399147175896122"><ele>507.0</ele><time>2026-04-12T12:38:30.001Z</time></trkpt><trkpt lat="43.487084496094056" lon="11.399052152198001"><ele>507.0</ele><time>2026-04-12T12:38:31.001Z</time></trkpt><trkpt lat="43.48704298874921" lon="11.398955020772224"><ele>507.0</ele><time>2026-04-12T12:38:32.001Z</time></trkpt><trkpt lat="43.48700497449172" lon="11.39885329474544"><ele>506.8</ele><time>2026-04-12T12:38:33.001Z</time></trkpt><trkpt lat="43.48698455000431" lon="11.398707614021005"><ele>506.6</ele><time>2026-04-12T12:38:35.001Z</time></trkpt><trkpt lat="43.48698332642506" lon="11.398550932109822"><ele>506.40000000000003</ele><time>2026-04-12T12:38:37.001Z</time></trkpt><trkpt lat="43.486974173808946" lon="11.39844450798697"><ele>506.20000000000005</ele><time>2026-04-12T12:38:39.001Z</time></trkpt><trkpt lat="43.48696245417638" lon="11.39830869043807"><ele>506.0</ele><time>2026-04-12T12:38:41.001Z</time></trkpt><trkpt lat="43.486953574134695" lon="11.39820578076647"><ele>506.0</ele><time>2026-04-12T12:38:42.001Z</time></trkpt><trkpt lat="43.48694075265052" lon="11.398068363403487"><ele>506.0</ele><time>2026-04-12T12:38:43.001Z</time></trkpt><trkpt lat="43.48692214752362" lon="11.397911858476315"><ele>506.0</ele><time>2026-04-12T12:38:44.001Z</time></trkpt><trkpt lat="43.48688798420109" lon="11.397783969832425"><ele>506.0</ele><time>2026-04-12T12:38:45.001Z</time></trkpt><trkpt lat="43.48329992583774" lon="11.391431423413117"><ele>505.75</ele><time>2026-04-12T12:39:46.001Z</time></trkpt><trkpt lat="43.483198318772615" lon="11.391352978644981"><ele>505.5</ele><time>2026-04-12T12:39:47.001Z</time></trkpt><trkpt lat="43.48307973398357" lon="11.391267265783117"><ele>505.25</ele><time>2026-04-12T12:39:48.001Z</time></trkpt><trkpt lat="43.48295417127172" lon="11.391169511988032"><ele>505.0</ele><time>2026-04-12T12:39:49.001Z</time></trkpt><trkpt lat="43.48282582000473" lon="11.391045845740488"><ele>505.0</ele><time>2026-04-12T12:39:50.001Z</time></trkpt><trkpt lat="43.48268371935385" lon="11.390921076198723"><ele>505.0</ele><time>2026-04-12T12:39:51.001Z</time></trkpt><trkpt lat="43.482586393089534" lon="11.3908428280734"><ele>505.0</ele><time>2026-04-12T12:39:52.001Z</time></trkpt><trkpt lat="43.482518664318526" lon="11.390765712969065"><ele>505.0</ele><time>2026-04-12T12:39:53.001Z</time></trkpt><trkpt lat="43.48246686307695" lon="11.390672725253197"><ele>505.0</ele><time>2026-04-12T12:39:54.001Z</time></trkpt><trkpt lat="43.48241217718435" lon="11.390555681379565"><ele>505.0</ele><time>2026-04-12T12:39:55.001Z</time></trkpt><trkpt lat="43.48234779747368" lon="11.39043258513461"><ele>505.0</ele><time>2026-04-12T12:39:56.001Z</time></trkpt><trkpt lat="43.48227857775186" lon="11.390299921938677"><ele>505.0</ele><time>2026-04-12T12:39:57.001Z</time></trkpt><trkpt lat="43.482229556958735" lon="11.390171483478031"><ele>505.0</ele><time>2026-04-12T12:39:58.001Z</time></trkpt><trkpt lat="43.482176776818186" lon="11.390070610568646"><ele>504.75</ele><time>2026-04-12T12:39:59.001Z</time></trkpt><trkpt lat="43.4821087503805" lon="11.38999531111237"><ele>504.5</ele><time>2026-04-12T12:40:00Z</time></trkpt><trkpt lat="43.48201641554665" lon="11.389903775135368"><ele>504.25</ele><time>2026-04-12T12:40:01Z</time></trkpt><trkpt lat="43.48191687912993" lon="11.38979103800705"><ele>504.0</ele><time>2026-04-12T12:40:02Z</time></trkpt><trkpt lat="43.48180786309102" lon="11.3896608453329"><ele>503.5</ele><time>2026-04-12T12:40:03Z</time></trkpt><trkpt lat="43.48170391130136" lon="11.389546867414795"><ele>503.0</ele><time>2026-04-12T12:40:04Z</time></trkpt><trkpt lat="43.48160795590852" lon="11.3894306985701"><ele>502.5</ele><time>2026-04-12T12:40:05Z</time></trkpt><trkpt lat="43.48152088128174" lon="11.389328732252933"><ele>502.0</ele><time>2026-04-12T12:40:06Z</time></trkpt><trkpt lat="43.48143179117544" lon="11.389239961454415"><ele>502.00000000000006</ele><time>2026-04-12T12:40:07Z</time></trkpt><trkpt lat="43.481361889549895" lon="11.389161997538183"><ele>502.0</ele><time>2026-04-12T12:40:08Z</time></trkpt><trkpt lat="43.481304609803054" lon="11.38907977313182"><ele>502.0</ele><time>2026-04-12T12:40:09Z</time></trkpt><trkpt lat="43.4812457404874" lon="11.389011376605499"><ele>502.0</ele><time>2026-04-12T12:40:10Z</time></trkpt><trkpt lat="43.48117066794104" lon="11.388984611871683"><ele>502.00000000000006</ele><time>2026-04-12T12:40:11Z</time></trkpt><trkpt lat="43.48107869552905" lon="11.388994567845916"><ele>502.0</ele><time>2026-04-12T12:40:12Z</time></trkpt><trkpt lat="43.480984460028914" lon="11.38899631727314"><ele>502.0</ele><time>2026-04-12T12:40:13Z</time></trkpt><trkpt lat="43.48091922421889" lon="11.388968778604623"><ele>502.00000000000006</ele><time>2026-04-12T12:40:14Z</time></trkpt><trkpt lat="43.480836067552104" lon="11.388861507020502"><ele>502.00000000000006</ele><time>2026-04-12T12:40:16Z</time></trkpt><trkpt lat="43.480770899633214" lon="11.388769941268393"><ele>502.0</ele><time>2026-04-12T12:40:18Z</time></trkpt><trkpt lat="43.480718991609706" lon="11.38868195061801"><ele>502.0</ele><time>2026-04-12T12:40:33Z</time></trkpt><trkpt lat="43.48384257979345" lon="11.391889678342341"><ele>501.99999999999994</ele><time>2026-04-12T12:41:46.001Z</time></trkpt><trkpt lat="43.48384257979345" lon="11.391889678342341"><ele>502.0</ele><time>2026-04-12T12:41:46.001Z</time></trkpt><trkpt lat="43.48386861860434" lon="11.391995857200616"><ele>501.99999999999994</ele><time>2026-04-12T12:42:18Z</time></trkpt><trkpt lat="43.48387727871717" lon="11.39211172477937"><ele>501.99999999999994</ele><time>2026-04-12T12:42:19Z</time></trkpt><trkpt lat="43.483898597995136" lon="11.392226543633697"><ele>502.0</ele><time>2026-04-12T12:42:20Z</time></trkpt><trkpt lat="43.483933401104096" lon="11.392331536482118"><ele>501.99999999999994</ele><time>2026-04-12T12:42:21Z</time></trkpt><trkpt lat="43.483972840735454" lon="11.39242485786951"><ele>501.99999999999994</ele><time>2026-04-12T12:42:22Z</time></trkpt><trkpt lat="43.484020093708686" lon="11.392513782849331"><ele>503.6</ele><time>2026-04-12T12:42:23Z</time></trkpt><trkpt lat="43.48406436686437" lon="11.392616355048915"><ele>505.20000000000005</ele><time>2026-04-12T12:42:24Z</time></trkpt><trkpt lat="43.484130644622695" lon="11.392722036245262"><ele>506.8</ele><time>2026-04-12T12:42:25Z</time></trkpt><trkpt lat="43.48420043519587" lon="11.392812927834495"><ele>508.4</ele><time>2026-04-12T12:42:26Z</time></trkpt><trkpt lat="43.48426122147773" lon="11.39290901127603"><ele>510.0</ele><time>2026-04-12T12:42:27Z</time></trkpt><trkpt lat="43.48431740821907" lon="11.393001713455968"><ele>510.1666666666667</ele><time>2026-04-12T12:42:28Z</time></trkpt><trkpt lat="43.48436659856711" lon="11.393080775397365"><ele>510.33333333333337</ele><time>2026-04-12T12:42:29Z</time></trkpt><trkpt lat="43.484420829436004" lon="11.39313444766451"><ele>510.5</ele><time>2026-04-12T12:42:30Z</time></trkpt><trkpt lat="43.484498934142586" lon="11.393164045279711"><ele>510.6666666666667</ele><time>2026-04-12T12:42:31Z</time></trkpt><trkpt lat="43.484585817900054" lon="11.393221927720075"><ele>510.83333333333337</ele><time>2026-04-12T12:42:32Z</time></trkpt><trkpt lat="43.484684954842265" lon="11.39326027877703"><ele>511.0</ele><time>2026-04-12T12:42:33Z</time></trkpt><trkpt lat="43.48479963916082" lon="11.393270383284076"><ele>511.6</ele><time>2026-04-12T12:42:34Z</time></trkpt><trkpt lat="43.48491145585155" lon="11.393293455156877"><ele>512.2</ele><time>2026-04-12T12:42:35Z</time></trkpt><trkpt lat="43.48500896058887" lon="11.39331890231093"><ele>512.8</ele><time>2026-04-12T12:42:36Z</time></trkpt><trkpt lat="43.48507209504894" lon="11.393367287898743"><ele>513.4</ele><time>2026-04-12T12:42:37Z</time></trkpt><trkpt lat="43.4851691960346" lon="11.393435670112204"><ele>514.0</ele><time>2026-04-12T12:42:39Z</time></trkpt><trkpt lat="43.48520764766502" lon="11.393509551206911"><ele>514.0</ele><time>2026-04-12T12:42:40Z</time></trkpt><trkpt lat="43.48525868731977" lon="11.393593213391576"><ele>514.0</ele><time>2026-04-12T12:42:41Z</time></trkpt><trkpt lat="43.48529929640767" lon="11.393682151878078"><ele>514.0</ele><time>2026-04-12T12:42:42Z</time></trkpt><trkpt lat="43.48531631454065" lon="11.393789729258216"><ele>514.0</ele><time>2026-04-12T12:42:43Z</time></trkpt><trkpt lat="43.48535697271364" lon="11.393899802615046"><ele>514.0</ele><time>2026-04-12T12:42:44Z</time></trkpt><trkpt lat="43.485369549842545" lon="11.394044438335191"><ele>514.0</ele><time>2026-04-12T12:42:45Z</time></trkpt><trkpt lat="43.486427140150624" lon="11.396236621861522"><ele>513.0</ele><time>2026-04-12T12:43:46.001Z</time></trkpt><trkpt lat="43.486373254492555" lon="11.396130693399549"><ele>512.0</ele><time>2026-04-12T12:43:47.001Z</time></trkpt><trkpt lat="43.48631372859635" lon="11.396026870240313"><ele>511.0</ele><time>2026-04-12T12:43:48.001Z</time></trkpt><trkpt lat="43.48626012467613" lon="11.395908212182452"><ele>510.0</ele><time>2026-04-12T12:43:49.001Z</time></trkpt><trkpt lat="43.48617060077542" lon="11.39582561084237"><ele>509.0</ele><time>2026-04-12T12:43:50.001Z</time></trkpt><trkpt lat="43.486092616183356" lon="11.395729610914012"><ele>509.0</ele><time>2026-04-12T12:43:51.001Z</time></trkpt><trkpt lat="43.48600722107142" lon="11.39564271086854"><ele>509.0</ele><time>2026-04-12T12:43:52.001Z</time></trkpt><trkpt lat="43.485919348732416" lon="11.395561208730562"><ele>509.0</ele><time>2026-04-12T12:43:53.001Z</time></trkpt><trkpt lat="43.485849397465806" lon="11.39545209087771"><ele>509.0</ele><time>2026-04-12T12:43:54.001Z</time></trkpt><trkpt lat="43.485795412968855" lon="11.395344910940457"><ele>509.0</ele><time>2026-04-12T12:43:55.001Z</time></trkpt><trkpt lat="43.48573796031781" lon="11.3952365827798"><ele>508.5</ele><time>2026-04-12T12:43:56.001Z</time></trkpt><trkpt lat="43.48568111503573" lon="11.395125437080527"><ele>508.0</ele><time>2026-04-12T12:43:57.001Z</time></trkpt><trkpt lat="43.48562376512222" lon="11.395007028057513"><ele>507.5</ele><time>2026-04-12T12:43:58.001Z</time></trkpt><trkpt lat="43.48555499030517" lon="11.394851951135553"><ele>507.0</ele><time>2026-04-12T12:43:59.001Z</time></trkpt><trkpt lat="43.48548894377312" lon="11.394681879575106"><ele>508.0</ele><time>2026-04-12T12:44:00.001Z</time></trkpt><trkpt lat="43.48544043582438" lon="11.394537862596453"><ele>509.00000000000006</ele><time>2026-04-12T12:44:01.001Z</time></trkpt><trkpt lat="43.48541741946327" lon="11.394411571740045"><ele>510.00000000000006</ele><time>2026-04-12T12:44:02.001Z</time></trkpt><trkpt lat="43.4854060685299" lon="11.394286539792043"><ele>511.0</ele><time>2026-04-12T12:44:03.001Z</time></trkpt><trkpt lat="43.48538003814491" lon="11.394157167945108"><ele>512.0</ele><time>2026-04-12T12:44:04.001Z</time></trkpt><trkpt lat="43.48537592054707" lon="11.394018597606808"><ele>512.0</ele><time>2026-04-12T12:44:05.001Z</time></trkpt><trkpt lat="43.48535985815347" lon="11.393878785307312"><ele>512.0</ele><time>2026-04-12T12:44:06.001Z</time></trkpt><trkpt lat="43.485333299658315" lon="11.393754830524287"><ele>512.0</ele><time>2026-04-12T12:44:07.001Z</time></trkpt><trkpt lat="43.48530240365045" lon="11.393640809204209"><ele>512.0</ele><time>2026-04-12T12:44:08.001Z</time></trkpt><trkpt lat="43.48525567808459" lon="11.393539611644881"><ele>512.0</ele><time>2026-04-12T12:44:09.001Z</time></trkpt><trkpt lat="43.48519781850627" lon="11.393451829237854"><ele>512.4</ele><time>2026-04-12T12:44:10.001Z</time></trkpt><trkpt lat="43.48514118408887" lon="11.393383099980381"><ele>512.8000000000001</ele><time>2026-04-12T12:44:11.001Z</time></trkpt><trkpt lat="43.48503222574398" lon="11.393310301772816"><ele>513.2</ele><time>2026-04-12T12:44:12.999Z</time></trkpt><trkpt lat="43.48496000981788" lon="11.393288480366436"><ele>513.6</ele><time>2026-04-12T12:44:14Z</time></trkpt><trkpt lat="43.48487075435302" lon="11.393279023393898"><ele>514.0</ele><time>2026-04-12T12:44:14.999Z</time></trkpt><trkpt lat="43.48477808982509" lon="11.39324155260426"><ele>514.0</ele><time>2026-04-12T12:44:15.999Z</time></trkpt><trkpt lat="43.48468805314588" lon="11.393214216058308"><ele>514.0</ele><time>2026-04-12T12:44:16.999Z</time></trkpt><trkpt lat="43.48459699340837" lon="11.393179104052575"><ele>514.0</ele><time>2026-04-12T12:44:17.999Z</time></trkpt><trkpt lat="43.484512163828164" lon="11.39313883251155"><ele>514.0</ele><time>2026-04-12T12:44:18.999Z</time></trkpt><trkpt lat="43.4844453364918" lon="11.393100656689839"><ele>514.0</ele><time>2026-04-12T12:44:20Z</time></trkpt><trkpt lat="43.48435385213591" lon="11.393013793748578"><ele>513.2</ele><time>2026-04-12T12:44:22Z</time></trkpt><trkpt lat="43.48427531711749" lon="11.392890215653134"><ele>512.4</ele><time>2026-04-12T12:44:24Z</time></trkpt><trkpt lat="43.484197770008045" lon="11.392758116123233"><ele>511.6</ele><time>2026-04-12T12:44:26Z</time></trkpt><trkpt lat="43.484153227639936" lon="11.392690187333931"><ele>510.8</ele><time>2026-04-12T12:44:27Z</time></trkpt><trkpt lat="43.484109406372724" lon="11.392624342906759"><ele>510.0</ele><time>2026-04-12T12:44:28Z</time></trkpt><trkpt lat="43.48402993342248" lon="11.392488982037886"><ele>510.0</ele><time>2026-04-12T12:44:30Z</time></trkpt><trkpt lat="43.48399837483512" lon="11.392405282388438"><ele>510.0</ele><time>2026-04-12T12:44:31Z</time></trkpt><trkpt lat="43.48395689364045" lon="11.392269764338554"><ele>510.0</ele><time>2026-04-12T12:44:33Z</time></trkpt><trkpt lat="43.483897974111464" lon="11.392147516688764"><ele>510.0</ele><time>2026-04-12T12:44:35Z</time></trkpt><trkpt lat="43.483855025625196" lon="11.392013311979916"><ele>510.0</ele><time>2026-04-12T12:44:37Z</time></trkpt><trkpt lat="43.480575261611484" lon="11.388417999641456"><ele>509.2</ele><time>2026-04-12T12:45:46.001Z</time></trkpt><trkpt lat="43.480500733737216" lon="11.388297272371995"><ele>508.4</ele><time>2026-04-12T12:45:47.001Z</time></trkpt><trkpt lat="43.48042729692227" lon="11.388183800830735"><ele>507.6</ele><time>2026-04-12T12:45:48.001Z</time></trkpt><trkpt lat="43.48037266460375" lon="11.388085429444269"><ele>506.8</ele><time>2026-04-12T12:45:49.001Z</time></trkpt><trkpt lat="43.480332267495626" lon="11.387979483194796"><ele>506.0</ele><time>2026-04-12T12:45:50.001Z</time></trkpt><trkpt lat="43.4803136151705" lon="11.387881458477262"><ele>508.20000000000005</ele><time>2026-04-12T12:45:51.001Z</time></trkpt><trkpt lat="43.48032410657311" lon="11.387783482482737"><ele>510.40000000000003</ele><time>2026-04-12T12:45:52.001Z</time></trkpt><trkpt lat="43.480353890746144" lon="11.38766820842162"><ele>512.6</ele><time>2026-04-12T12:45:53.001Z</time></trkpt><trkpt lat="43.48038595859933" lon="11.387540751200005"><ele>514.8000000000001</ele><time>2026-04-12T12:45:54.001Z</time></trkpt><trkpt lat="43.480403871663476" lon="11.387400100706996"><ele>517.0</ele><time>2026-04-12T12:45:55.001Z</time></trkpt><trkpt lat="43.48039376612307" lon="11.387263661750728"><ele>516.8333333333334</ele><time>2026-04-12T12:45:56.001Z</time></trkpt><trkpt lat="43.48036517555091" lon="11.387132867985354"><ele>516.6666666666667</ele><time>2026-04-12T12:45:57.001Z</time></trkpt><trkpt lat="43.48033235889597" lon="11.38702638289132"><ele>516.5</ele><time>2026-04-12T12:45:58.001Z</time></trkpt><trkpt lat="43.4802998846916" lon="11.38693024630056"><ele>516.3333333333334</ele><time>2026-04-12T12:45:59.001Z</time></trkpt><trkpt lat="43.480265347086274" lon="11.386849049123656"><ele>516.1666666666666</ele><time>2026-04-12T12:46:00.001Z</time></trkpt><trkpt lat="43.48020400325763" lon="11.386788603056294"><ele>516.0</ele><time>2026-04-12T12:46:01.001Z</time></trkpt><trkpt lat="43.480105121050286" lon="11.38671451238218"><ele>516.0</ele><time>2026-04-12T12:46:02.001Z</time></trkpt><trkpt lat="43.48001501242727" lon="11.386645893310934"><ele>516.0</ele><time>2026-04-12T12:46:03.001Z</time></trkpt><trkpt lat="43.479946136809815" lon="11.38657546986905"><ele>516.0</ele><time>2026-04-12T12:46:04.001Z</time></trkpt><trkpt lat="43.4798674409079" lon="11.38649543774274"><ele>516.0</ele><time>2026-04-12T12:46:05.001Z</time></trkpt><trkpt lat="43.47977476416468" lon="11.386386762354277"><ele>516.0</ele><time>2026-04-12T12:46:06.001Z</time></trkpt><trkpt lat="43.47967811328634" lon="11.386278782595701"><ele>515.6</ele><time>2026-04-12T12:46:07.001Z</time></trkpt><trkpt lat="43.479593224550726" lon="11.386204152252994"><ele>515.2</ele><time>2026-04-12T12:46:08.001Z</time></trkpt><trkpt lat="43.47951676140976" lon="11.386126612123244"><ele>514.8</ele><time>2026-04-12T12:46:09.001Z</time></trkpt><trkpt lat="43.47944915036827" lon="11.386040143988804"><ele>514.4</ele><time>2026-04-12T12:46:10.001Z</time></trkpt><trkpt lat="43.47938951988911" lon="11.38592702600426"><ele>514.0</ele><time>2026-04-12T12:46:11.001Z</time></trkpt><trkpt lat="43.4793360463848" lon="11.385788760933718"><ele>514.0</ele><time>2026-04-12T12:46:12.001Z</time></trkpt><trkpt lat="43.4792962933236" lon="11.385640835232767"><ele>514.0</ele><time>2026-04-12T12:46:13.001Z</time></trkpt><trkpt lat="43.47926869045498" lon="11.385489711279465"><ele>514.0</ele><time>2026-04-12T12:46:14.001Z</time></trkpt><trkpt lat="43.47924295704666" lon="11.385360793313476"><ele>514.0</ele><time>2026-04-12T12:46:15.001Z</time></trkpt><trkpt lat="43.479211590630634" lon="11.385274955499954"><ele>514.0</ele><time>2026-04-12T12:46:16.001Z</time></trkpt><trkpt lat="43.479105732019825" lon="11.385182961447835"><ele>513.6666666666667</ele><time>2026-04-12T12:46:17.999Z</time></trkpt><trkpt lat="43.47904189083221" lon="11.3851773021266"><ele>513.3333333333334</ele><time>2026-04-12T12:46:18.999Z</time></trkpt><trkpt lat="43.478956043072564" lon="11.38518373089986"><ele>513.0</ele><time>2026-04-12T12:46:19.999Z</time></trkpt><trkpt lat="43.47887987980784" lon="11.385197450013521"><ele>512.6666666666666</ele><time>2026-04-12T12:46:20.999Z</time></trkpt><trkpt lat="43.478800157017695" lon="11.38520601855424"><ele>512.3333333333333</ele><time>2026-04-12T12:46:21.999Z</time></trkpt><trkpt lat="43.47872059743057" lon="11.385213878115325"><ele>512.0</ele><time>2026-04-12T12:46:22.999Z</time></trkpt><trkpt lat="43.478632133636324" lon="11.385251439780774"><ele>513.6666666666666</ele><time>2026-04-12T12:46:23.999Z</time></trkpt><trkpt lat="43.47853756981022" lon="11.385277956397442"><ele>515.3333333333333</ele><time>2026-04-12T12:46:24.999Z</time></trkpt><trkpt lat="43.478432667407986" lon="11.385289219255064"><ele>517.0</ele><time>2026-04-12T12:46:25.999Z</time></trkpt><trkpt lat="43.47833782631131" lon="11.385295306283064"><ele>518.6666666666666</ele><time>2026-04-12T12:46:26.999Z</time></trkpt><trkpt lat="43.47825952756655" lon="11.385295450710837"><ele>520.3333333333334</ele><time>2026-04-12T12:46:27.999Z</time></trkpt><trkpt lat="43.47819072550718" lon="11.385286309042842"><ele>522.0</ele><time>2026-04-12T12:46:28.999Z</time></trkpt><trkpt lat="43.47808166517728" lon="11.385250494715855"><ele>522.0</ele><time>2026-04-12T12:46:30.999Z</time></trkpt><trkpt lat="43.47798592101787" lon="11.385203710650913"><ele>522.0</ele><time>2026-04-12T12:46:32.999Z</time></trkpt><trkpt lat="43.47791924582978" lon="11.385169618860502"><ele>522.0</ele><time>2026-04-12T12:46:33.999Z</time></trkpt><trkpt lat="43.47783790033297" lon="11.385113014110988"><ele>522.0</ele><time>2026-04-12T12:46:34.999Z</time></trkpt><trkpt lat="43.477733353648034" lon="11.385049580988875"><ele>522.0</ele><time>2026-04-12T12:46:36Z</time></trkpt><trkpt lat="43.477608548626876" lon="11.384983157147895"><ele>522.2</ele><time>2026-04-12T12:46:37Z</time></trkpt><trkpt lat="43.47750586984635" lon="11.384930753939251"><ele>522.4000000000001</ele><time>2026-04-12T12:46:38Z</time></trkpt><trkpt lat="43.477423593439276" lon="11.384902104378446"><ele>522.5999999999999</ele><time>2026-04-12T12:46:39Z</time></trkpt><trkpt lat="43.477314375213446" lon="11.384908461546052"><ele>522.8</ele><time>2026-04-12T12:46:40Z</time></trkpt><trkpt lat="43.47718573910116" lon="11.384943251462163"><ele>523.0</ele><time>2026-04-12T12:46:41Z</time></trkpt><trkpt lat="43.47703442299945" lon="11.384975995588963"><ele>521.6666666666667</ele><time>2026-04-12T12:46:42Z</time></trkpt><trkpt lat="43.476895882589005" lon="11.38496796420016"><ele>520.3333333333334</ele><time>2026-04-12T12:46:43Z</time></trkpt><trkpt lat="43.476740271031005" lon="11.384953868452135"><ele>519.0</ele><time>2026-04-12T12:46:44Z</time></trkpt><trkpt lat="43.4765637287026" lon="11.384949923685058"><ele>475.0</ele><time>2026-04-12T12:46:45Z</time></trkpt><trkpt lat="43.47204615975895" lon="11.380390007272958"><ele>475.0</ele><time>2026-04-12T12:47:46.001Z</time></trkpt><trkpt lat="43.47201722558535" lon="11.380263951060725"><ele>475.0</ele><time>2026-04-12T12:47:47.001Z</time></trkpt><trkpt lat="43.471978812074994" lon="11.380133759176726"><ele>475.0</ele><time>2026-04-12T12:47:48.001Z</time></trkpt><trkpt lat="43.471924495572054" lon="11.379997738741652"><ele>475.0</ele><time>2026-04-12T12:47:49.001Z</time></trkpt><trkpt lat="43.47188952571776" lon="11.379846717054102"><ele>475.0</ele><time>2026-04-12T12:47:50.001Z</time></trkpt><trkpt lat="43.47184561879125" lon="11.37971154886798"><ele>473.2</ele><time>2026-04-12T12:47:51.001Z</time></trkpt><trkpt lat="43.4718043436205" lon="11.379584483322288"><ele>471.4</ele><time>2026-04-12T12:47:52.001Z</time></trkpt><trkpt lat="43.47175321214404" lon="11.379472827159915"><ele>469.6</ele><time>2026-04-12T12:47:53.001Z</time></trkpt><trkpt lat="43.47172333739124" lon="11.379353399025794"><ele>467.8</ele><time>2026-04-12T12:47:54.001Z</time></trkpt><trkpt lat="43.47170765708941" lon="11.379243433959541"><ele>466.0</ele><time>2026-04-12T12:47:55.001Z</time></trkpt><trkpt lat="43.4716752765588" lon="11.379136537498399"><ele>466.0</ele><time>2026-04-12T12:47:56.001Z</time></trkpt><trkpt lat="43.47167364394814" lon="11.379000042914328"><ele>466.0</ele><time>2026-04-12T12:47:57.001Z</time></trkpt><trkpt lat="43.47168984689279" lon="11.378840183746842"><ele>466.0</ele><time>2026-04-12T12:47:58.001Z</time></trkpt><trkpt lat="43.47170759863708" lon="11.378677343123254"><ele>466.0</ele><time>2026-04-12T12:47:59.001Z</time></trkpt><trkpt lat="43.47172342355049" lon="11.3785343284045"><ele>466.0</ele><time>2026-04-12T12:48:00.001Z</time></trkpt><trkpt lat="43.471735390317754" lon="11.37840999680186"><ele>464.50000000000006</ele><time>2026-04-12T12:48:01.001Z</time></trkpt><trkpt lat="43.47174443536217" lon="11.37828983962123"><ele>463.0</ele><time>2026-04-12T12:48:02.001Z</time></trkpt><trkpt lat="43.47175096347321" lon="11.378182042004205"><ele>461.5</ele><time>2026-04-12T12:48:03.001Z</time></trkpt><trkpt lat="43.4717191742749" lon="11.378064999251702"><ele>460.0</ele><time>2026-04-12T12:48:04.001Z</time></trkpt><trkpt lat="43.47167368619844" lon="11.377960062067547"><ele>458.50000000000006</ele><time>2026-04-12T12:48:05.001Z</time></trkpt><trkpt lat="43.47162015562413" lon="11.377868185854227"><ele>457.0</ele><time>2026-04-12T12:48:06.001Z</time></trkpt><trkpt lat="43.47154672322849" lon="11.37778618101956"><ele>454.8</ele><time>2026-04-12T12:48:07.001Z</time></trkpt><trkpt lat="43.47145313749813" lon="11.377720246168206"><ele>452.6</ele><time>2026-04-12T12:48:08.001Z</time></trkpt><trkpt lat="43.47137926359048" lon="11.377641859308035"><ele>450.40000000000003</ele><time>2026-04-12T12:48:09.001Z</time></trkpt><trkpt lat="43.47130856688474" lon="11.37757101262381"><ele>448.20000000000005</ele><time>2026-04-12T12:48:10.001Z</time></trkpt><trkpt lat="43.47124762478241" lon="11.37749183093983"><ele>446.0</ele><time>2026-04-12T12:48:11.001Z</time></trkpt><trkpt lat="43.471177842963975" lon="11.377437310391796"><ele>445.8333333333333</ele><time>2026-04-12T12:48:12.001Z</time></trkpt><trkpt lat="43.47109839561927" lon="11.3773919029478"><ele>445.66666666666663</ele><time>2026-04-12T12:48:13.001Z</time></trkpt><trkpt lat="43.47102228505069" lon="11.377354752477963"><ele>445.5</ele><time>2026-04-12T12:48:14.001Z</time></trkpt><trkpt lat="43.47094487351526" lon="11.377332462036122"><ele>445.33333333333337</ele><time>2026-04-12T12:48:15.001Z</time></trkpt><trkpt lat="43.47087668437302" lon="11.377268912166643"><ele>445.1666666666667</ele><time>2026-04-12T12:48:16.001Z</time></trkpt><trkpt lat="43.470811321421536" lon="11.377219304639167"><ele>445.0</ele><time>2026-04-12T12:48:17.001Z</time></trkpt><trkpt lat="43.47072763214941" lon="11.377181650445614"><ele>442.83333333333337</ele><time>2026-04-12T12:48:18.001Z</time></trkpt><trkpt lat="43.47065981396415" lon="11.377140366794123"><ele>440.6666666666667</ele><time>2026-04-12T12:48:19.001Z</time></trkpt><trkpt lat="43.4705911712325" lon="11.377086897835257"><ele>438.5</ele><time>2026-04-12T12:48:20.001Z</time></trkpt><trkpt lat="43.47051240801745" lon="11.377056442505163"><ele>436.33333333333337</ele><time>2026-04-12T12:48:21.001Z</time></trkpt><trkpt lat="43.470422501891214" lon="11.377040205431648"><ele>434.1666666666667</ele><time>2026-04-12T12:48:22.001Z</time></trkpt><trkpt lat="43.4703397344735" lon="11.377013667450425"><ele>432.0</ele><time>2026-04-12T12:48:23.001Z</time></trkpt><trkpt lat="43.470258475567434" lon="11.376985134327914"><ele>431.5</ele><time>2026-04-12T12:48:24Z</time></trkpt><trkpt lat="43.470182667867114" lon="11.37694714246595"><ele>431.0</ele><time>2026-04-12T12:48:25Z</time></trkpt><trkpt lat="43.470107709625424" lon="11.376934998898465"><ele>430.5</ele><time>2026-04-12T12:48:26Z</time></trkpt><trkpt lat="43.47003993242608" lon="11.376911322612186"><ele>430.0</ele><time>2026-04-12T12:48:27Z</time></trkpt><trkpt lat="43.46994641276624" lon="11.376853359571987"><ele>429.5</ele><time>2026-04-12T12:48:29Z</time></trkpt><trkpt lat="43.4698818517959" lon="11.376820897326398"><ele>429.0</ele><time>2026-04-12T12:48:31Z</time></trkpt><trkpt lat="43.46980925948444" lon="11.376785768302195"><ele>429.0</ele><time>2026-04-12T12:48:33Z</time></trkpt><trkpt lat="43.46975196197852" lon="11.376745618707108"><ele>429.0</ele><time>2026-04-12T12:48:34Z</time></trkpt><trkpt lat="43.469688875754194" lon="11.376695458999531"><ele>429.0</ele><time>2026-04-12T12:48:35Z</time></trkpt><trkpt lat="43.469617210870574" lon="11.376633726751889"><ele>429.0</ele><time>2026-04-12T12:48:36Z</time></trkpt><trkpt lat="43.46953447176086" lon="11.3765839874545"><ele>429.0</ele><time>2026-04-12T12:48:37Z</time></trkpt><trkpt lat="43.4694750913929" lon="11.376510137611106"><ele>429.0</ele><time>2026-04-12T12:48:38Z</time></trkpt><trkpt lat="43.46940211133161" lon="11.376473541834233"><ele>427.4</ele><time>2026-04-12T12:48:39Z</time></trkpt><trkpt lat="43.46934726082646" lon="11.37642505109178"><ele>425.79999999999995</ele><time>2026-04-12T12:48:40Z</time></trkpt><trkpt lat="43.469236133541564" lon="11.376370978432597"><ele>424.20000000000005</ele><time>2026-04-12T12:48:42Z</time></trkpt><trkpt lat="43.469165840259464" lon="11.376374747587061"><ele>422.6</ele><time>2026-04-12T12:48:43Z</time></trkpt><trkpt lat="43.46905386203368" lon="11.376462269296026"><ele>421.0</ele><time>2026-04-12T12:48:45Z</time></trkpt><trkpt lat="43.47061103883535" lon="11.374296187581178"><ele>412.33333333333337</ele><time>2026-04-12T12:49:46.001Z</time></trkpt><trkpt lat="43.47077322449367" lon="11.374299294929132"><ele>403.66666666666663</ele><time>2026-04-12T12:49:47.001Z</time></trkpt><trkpt lat="43.47092870279958" lon="11.374281139980333"><ele>395.0</ele><time>2026-04-12T12:49:48.001Z</time></trkpt><trkpt lat="43.47108355100827" lon="11.374248878971283"><ele>395.0</ele><time>2026-04-12T12:49:49.001Z</time></trkpt><trkpt lat="43.471238940446796" lon="11.37420905362467"><ele>395.0</ele><time>2026-04-12T12:49:50.001Z</time></trkpt><trkpt lat="43.47139872840215" lon="11.374162876144604"><ele>395.0</ele><time>2026-04-12T12:49:51.001Z</time></trkpt><trkpt lat="43.47155750574118" lon="11.374111672063899"><ele>395.66666666666663</ele><time>2026-04-12T12:49:52.001Z</time></trkpt><trkpt lat="43.47171759944457" lon="11.374059695561973"><ele>396.33333333333337</ele><time>2026-04-12T12:49:53.001Z</time></trkpt><trkpt lat="43.47186987193978" lon="11.374014277551863"><ele>397.0</ele><time>2026-04-12T12:49:54.001Z</time></trkpt><trkpt lat="43.47202115647749" lon="11.37397714045906"><ele>398.5</ele><time>2026-04-12T12:49:55.001Z</time></trkpt><trkpt lat="43.4721737793276" lon="11.373947840780904"><ele>400.0</ele><time>2026-04-12T12:49:56.001Z</time></trkpt><trkpt lat="43.47231459316552" lon="11.373932491443643"><ele>401.5</ele><time>2026-04-12T12:49:57.001Z</time></trkpt><trkpt lat="43.4724612355682" lon="11.373948388020057"><ele>403.0</ele><time>2026-04-12T12:49:58.001Z</time></trkpt><trkpt lat="43.472596427408085" lon="11.374031830785972"><ele>403.0</ele><time>2026-04-12T12:49:59.001Z</time></trkpt><trkpt lat="43.47274146188507" lon="11.374120197320375"><ele>403.0</ele><time>2026-04-12T12:50:00.001Z</time></trkpt><trkpt lat="43.472882704322245" lon="11.37420733274557"><ele>403.0</ele><time>2026-04-12T12:50:01.001Z</time></trkpt><trkpt lat="43.473026920241516" lon="11.374274528518738"><ele>405.75</ele><time>2026-04-12T12:50:02.001Z</time></trkpt><trkpt lat="43.47316535034769" lon="11.374352384933417"><ele>408.5</ele><time>2026-04-12T12:50:03.001Z</time></trkpt><trkpt lat="43.47329588619441" lon="11.374416292103428"><ele>411.25</ele><time>2026-04-12T12:50:04.001Z</time></trkpt><trkpt lat="43.47342484160156" lon="11.374442520523392"><ele>414.0</ele><time>2026-04-12T12:50:05.001Z</time></trkpt><trkpt lat="43.473562518433035" lon="11.374435039252218"><ele>414.0</ele><time>2026-04-12T12:50:06.001Z</time></trkpt><trkpt lat="43.47369141811413" lon="11.374374079590215"><ele>414.0</ele><time>2026-04-12T12:50:07.001Z</time></trkpt><trkpt lat="43.473799362351215" lon="11.374260165369801"><ele>414.0</ele><time>2026-04-12T12:50:08.001Z</time></trkpt><trkpt lat="43.473877424653004" lon="11.37411627170223"><ele>414.0</ele><time>2026-04-12T12:50:09.001Z</time></trkpt><trkpt lat="43.47393941136416" lon="11.373963410296025"><ele>417.0</ele><time>2026-04-12T12:50:10.001Z</time></trkpt><trkpt lat="43.47399293060532" lon="11.373830252801017"><ele>420.0</ele><time>2026-04-12T12:50:11.001Z</time></trkpt><trkpt lat="43.47407011967698" lon="11.373749905222011"><ele>423.0</ele><time>2026-04-12T12:50:12.001Z</time></trkpt><trkpt lat="43.47414322646711" lon="11.373672308347471"><ele>426.0</ele><time>2026-04-12T12:50:13.001Z</time></trkpt><trkpt lat="43.47423193543256" lon="11.37360463687056"><ele>429.0</ele><time>2026-04-12T12:50:14.001Z</time></trkpt><trkpt lat="43.474328563025146" lon="11.373561261446346"><ele>429.0</ele><time>2026-04-12T12:50:15.001Z</time></trkpt><trkpt lat="43.474438448511755" lon="11.373559658740513"><ele>429.0</ele><time>2026-04-12T12:50:16.001Z</time></trkpt><trkpt lat="43.47454806796542" lon="11.37363598110211"><ele>429.0</ele><time>2026-04-12T12:50:17.001Z</time></trkpt><trkpt lat="43.47464746771915" lon="11.373772272752417"><ele>429.0</ele><time>2026-04-12T12:50:18.001Z</time></trkpt><trkpt lat="43.47476784227947" lon="11.373882387860627"><ele>426.0</ele><time>2026-04-12T12:50:19.001Z</time></trkpt><trkpt lat="43.47486627487132" lon="11.373975562259812"><ele>423.0</ele><time>2026-04-12T12:50:20.001Z</time></trkpt><trkpt lat="43.475005057156864" lon="11.373990935665534"><ele>420.0</ele><time>2026-04-12T12:50:21.001Z</time></trkpt><trkpt lat="43.475191805412884" lon="11.37392517331245"><ele>420.0</ele><time>2026-04-12T12:50:22.001Z</time></trkpt><trkpt lat="43.475375502290106" lon="11.37388960600443"><ele>420.0</ele><time>2026-04-12T12:50:23.001Z</time></trkpt><trkpt lat="43.475577065331485" lon="11.373864347158214"><ele>420.0</ele><time>2026-04-12T12:50:24.001Z</time></trkpt><trkpt lat="43.47577469296296" lon="11.373833979964187"><ele>426.66666666666663</ele><time>2026-04-12T12:50:25.001Z</time></trkpt><trkpt lat="43.475956347643866" lon="11.373811562543704"><ele>433.3333333333333</ele><time>2026-04-12T12:50:26.001Z</time></trkpt><trkpt lat="43.476109789401065" lon="11.373794920046016"><ele>440.0</ele><time>2026-04-12T12:50:27.001Z</time></trkpt><trkpt lat="43.47624152979648" lon="11.373782333339111"><ele>438.8</ele><time>2026-04-12T12:50:28.001Z</time></trkpt><trkpt lat="43.476352346675675" lon="11.373770325219052"><ele>437.6</ele><time>2026-04-12T12:50:29.001Z</time></trkpt><trkpt lat="43.47643795907448" lon="11.373737413287287"><ele>436.4</ele><time>2026-04-12T12:50:30Z</time></trkpt><trkpt lat="43.47648648661178" lon="11.373680950802855"><ele>435.2</ele><time>2026-04-12T12:50:31Z</time></trkpt><trkpt lat="43.47653541983664" lon="11.37351737325177"><ele>434.0</ele><time>2026-04-12T12:50:33Z</time></trkpt><trkpt lat="43.476555907548175" lon="11.373397215287321"><ele>434.0</ele><time>2026-04-12T12:50:34Z</time></trkpt><trkpt lat="43.47657202907083" lon="11.373255854274138"><ele>434.0</ele><time>2026-04-12T12:50:35Z</time></trkpt><trkpt lat="43.476609768955406" lon="11.373088581350126"><ele>434.0</ele><time>2026-04-12T12:50:36Z</time></trkpt><trkpt lat="43.47663670470009" lon="11.372877812377284"><ele>434.0</ele><time>2026-04-12T12:50:37Z</time></trkpt><trkpt lat="43.4766678305194" lon="11.372634256407"><ele>438.0</ele><time>2026-04-12T12:50:38Z</time></trkpt><trkpt lat="43.476683884931944" lon="11.37237225385777"><ele>442.0</ele><time>2026-04-12T12:50:39Z</time></trkpt><trkpt lat="43.47672957621552" lon="11.372165732459063"><ele>446.0</ele><time>2026-04-12T12:50:40Z</time></trkpt><trkpt lat="43.47676605321803" lon="11.372008659027916"><ele>448.25</ele><time>2026-04-12T12:50:41Z</time></trkpt><trkpt lat="43.47682984377835" lon="11.371899480600643"><ele>450.5</ele><time>2026-04-12T12:50:42Z</time></trkpt><trkpt lat="43.47693393986655" lon="11.371840496725891"><ele>452.75</ele><time>2026-04-12T12:50:43Z</time></trkpt><trkpt lat="43.477070160981405" lon="11.371819632540072"><ele>455.0</ele><time>2026-04-12T12:50:44Z</time></trkpt><trkpt lat="43.47723372533379" lon="11.371878310765442"><ele>493.0</ele><time>2026-04-12T12:50:45Z</time></trkpt><trkpt lat="43.48321532330305" lon="11.36645808722129"><ele>493.0</ele><time>2026-04-12T12:51:46.001Z</time></trkpt><trkpt lat="43.48331517147223" lon="11.366370327338533"><ele>493.0</ele><time>2026-04-12T12:51:47.001Z</time></trkpt><trkpt lat="43.483409494623935" lon="11.366265027318038"><ele>493.0</ele><time>2026-04-12T12:51:48.001Z</time></trkpt><trkpt lat="43.483498775984444" lon="11.366146290434408"><ele>493.0</ele><time>2026-04-12T12:51:49.001Z</time></trkpt><trkpt lat="43.483585504800544" lon="11.366017760436717"><ele>494.59999999999997</ele><time>2026-04-12T12:51:50.001Z</time></trkpt><trkpt lat="43.483667933861526" lon="11.36588561652179"><ele>496.19999999999993</ele><time>2026-04-12T12:51:51.001Z</time></trkpt><trkpt lat="43.48374615343617" lon="11.365762394316347"><ele>497.8</ele><time>2026-04-12T12:51:52.001Z</time></trkpt><trkpt lat="43.4838156534246" lon="11.365665233362808"><ele>499.4</ele><time>2026-04-12T12:51:53.001Z</time></trkpt><trkpt lat="43.483878913942895" lon="11.365599454028034"><ele>501.0</ele><time>2026-04-12T12:51:54.001Z</time></trkpt><trkpt lat="43.483968768083905" lon="11.365541827062815"><ele>501.0</ele><time>2026-04-12T12:51:56.001Z</time></trkpt><trkpt lat="43.48403094966134" lon="11.365520675924829"><ele>501.0</ele><time>2026-04-12T12:51:58.001Z</time></trkpt><trkpt lat="43.48415052627931" lon="11.365537566843374"><ele>501.0</ele><time>2026-04-12T12:52:00.001Z</time></trkpt><trkpt lat="43.48421001207227" lon="11.36560960246911"><ele>501.0</ele><time>2026-04-12T12:52:01.001Z</time></trkpt><trkpt lat="43.484284831650506" lon="11.36566224231409"><ele>501.0</ele><time>2026-04-12T12:52:02.001Z</time></trkpt><trkpt lat="43.484346185230464" lon="11.365752153028675"><ele>501.0</ele><time>2026-04-12T12:52:03.001Z</time></trkpt><trkpt lat="43.48439443025607" lon="11.365841595495489"><ele>501.0</ele><time>2026-04-12T12:52:04.001Z</time></trkpt><trkpt lat="43.484416204645186" lon="11.36593926190366"><ele>501.0</ele><time>2026-04-12T12:52:05.001Z</time></trkpt><trkpt lat="43.484411810214496" lon="11.366043795410965"><ele>501.0</ele><time>2026-04-12T12:52:06.001Z</time></trkpt><trkpt lat="43.48438988994246" lon="11.366155991980113"><ele>501.0</ele><time>2026-04-12T12:52:07.001Z</time></trkpt><trkpt lat="43.48436580196591" lon="11.366274509064537"><ele>501.0</ele><time>2026-04-12T12:52:08.001Z</time></trkpt><trkpt lat="43.48434984731291" lon="11.366384571385568"><ele>501.0</ele><time>2026-04-12T12:52:09.001Z</time></trkpt><trkpt lat="43.48433409721751" lon="11.366513077808234"><ele>499.8</ele><time>2026-04-12T12:52:10.001Z</time></trkpt><trkpt lat="43.48432732530731" lon="11.366651955166072"><ele>498.6</ele><time>2026-04-12T12:52:11.001Z</time></trkpt><trkpt lat="43.48433583922207" lon="11.366781656250762"><ele>497.4</ele><time>2026-04-12T12:52:12.001Z</time></trkpt><trkpt lat="43.48435981373952" lon="11.366880785891727"><ele>496.2</ele><time>2026-04-12T12:52:13.001Z</time></trkpt><trkpt lat="43.48440146840922" lon="11.366959860239536"><ele>495.0</ele><time>2026-04-12T12:52:15.001Z</time></trkpt><trkpt lat="43.484487639066806" lon="11.366768224514615"><ele>495.0</ele><time>2026-04-12T12:52:18.001Z</time></trkpt><trkpt lat="43.484505481546464" lon="11.36667201131404"><ele>495.0</ele><time>2026-04-12T12:52:19.001Z</time></trkpt><trkpt lat="43.48455089793823" lon="11.366587773406966"><ele>495.0</ele><time>2026-04-12T12:52:20.001Z</time></trkpt><trkpt lat="43.4846358162702" lon="11.366566493497384"><ele>495.0</ele><time>2026-04-12T12:52:21.001Z</time></trkpt><trkpt lat="43.48473313094129" lon="11.36648600116394"><ele>495.0</ele><time>2026-04-12T12:52:22.001Z</time></trkpt><trkpt lat="43.484843788911654" lon="11.366401382787645"><ele>495.25</ele><time>2026-04-12T12:52:23.001Z</time></trkpt><trkpt lat="43.48496357256664" lon="11.366302922556503"><ele>495.5</ele><time>2026-04-12T12:52:24.001Z</time></trkpt><trkpt lat="43.48507922051266" lon="11.366184914184327"><ele>495.75</ele><time>2026-04-12T12:52:25.001Z</time></trkpt><trkpt lat="43.485194458882305" lon="11.36606958808265"><ele>496.0</ele><time>2026-04-12T12:52:26.001Z</time></trkpt><trkpt lat="43.48530726466326" lon="11.365949011365082"><ele>496.0</ele><time>2026-04-12T12:52:27.001Z</time></trkpt><trkpt lat="43.48541357866839" lon="11.365833627761987"><ele>496.0</ele><time>2026-04-12T12:52:28.001Z</time></trkpt><trkpt lat="43.485510397386584" lon="11.365738510467637"><ele>496.0</ele><time>2026-04-12T12:52:29.001Z</time></trkpt><trkpt lat="43.48559886281268" lon="11.365654474099715"><ele>496.0</ele><time>2026-04-12T12:52:30.001Z</time></trkpt><trkpt lat="43.485691211503365" lon="11.365582587285653"><ele>493.75</ele><time>2026-04-12T12:52:31.001Z</time></trkpt><trkpt lat="43.485792482389584" lon="11.365511797843473"><ele>491.5</ele><time>2026-04-12T12:52:32.001Z</time></trkpt><trkpt lat="43.485893641750344" lon="11.36543094099228"><ele>489.25</ele><time>2026-04-12T12:52:33.001Z</time></trkpt><trkpt lat="43.48598390541369" lon="11.365338298592434"><ele>487.0</ele><time>2026-04-12T12:52:34.001Z</time></trkpt><trkpt lat="43.48606456720406" lon="11.365207588807088"><ele>487.0</ele><time>2026-04-12T12:52:35.001Z</time></trkpt><trkpt lat="43.48613825617861" lon="11.365042846174434"><ele>487.0</ele><time>2026-04-12T12:52:36Z</time></trkpt><trkpt lat="43.48623004580107" lon="11.364896746254988"><ele>487.0</ele><time>2026-04-12T12:52:37Z</time></trkpt><trkpt lat="43.48630440383948" lon="11.364740851908124"><ele>487.0</ele><time>2026-04-12T12:52:38Z</time></trkpt><trkpt lat="43.48639856219454" lon="11.364627869132574"><ele>481.75</ele><time>2026-04-12T12:52:39Z</time></trkpt><trkpt lat="43.486492127974614" lon="11.364518394068282"><ele>476.5</ele><time>2026-04-12T12:52:40Z</time></trkpt><trkpt lat="43.486571862978764" lon="11.364372640390693"><ele>471.25</ele><time>2026-04-12T12:52:41Z</time></trkpt><trkpt lat="43.486648325318924" lon="11.364208389743252"><ele>466.0</ele><time>2026-04-12T12:52:42Z</time></trkpt><trkpt lat="43.48674513674284" lon="11.364057094326347"><ele>466.0</ele><time>2026-04-12T12:52:43Z</time></trkpt><trkpt lat="43.48687303868748" lon="11.363918058369727"><ele>466.0</ele><time>2026-04-12T12:52:44Z</time></trkpt><trkpt lat="43.4870164492805" lon="11.363783046693523"><ele>466.0</ele><time>2026-04-12T12:52:45Z</time></trkpt><trkpt lat="43.490043696401486" lon="11.355599125108695"><ele>437.75</ele><time>2026-04-12T12:53:46.001Z</time></trkpt><trkpt lat="43.49015888505403" lon="11.35555845884943"><ele>409.5</ele><time>2026-04-12T12:53:47.001Z</time></trkpt><trkpt lat="43.49028550129682" lon="11.355497516068853"><ele>381.25</ele><time>2026-04-12T12:53:48.001Z</time></trkpt><trkpt lat="43.49042893230418" lon="11.355414344827986"><ele>353.0</ele><time>2026-04-12T12:53:49.001Z</time></trkpt><trkpt lat="43.49057703119481" lon="11.355310718602638"><ele>350.0</ele><time>2026-04-12T12:53:50.001Z</time></trkpt><trkpt lat="43.490707324000425" lon="11.355211174829936"><ele>347.0</ele><time>2026-04-12T12:53:51.001Z</time></trkpt><trkpt lat="43.49082354053377" lon="11.355094947492866"><ele>344.0</ele><time>2026-04-12T12:53:52.001Z</time></trkpt><trkpt lat="43.490914666320165" lon="11.354955137904474"><ele>341.0</ele><time>2026-04-12T12:53:53.001Z</time></trkpt><trkpt lat="43.49097582597596" lon="11.354817428441287"><ele>339.8</ele><time>2026-04-12T12:53:54.001Z</time></trkpt><trkpt lat="43.49101229815416" lon="11.35470449115374"><ele>338.6</ele><time>2026-04-12T12:53:55.001Z</time></trkpt><trkpt lat="43.491040924590344" lon="11.354616489232985"><ele>337.4</ele><time>2026-04-12T12:53:57.001Z</time></trkpt><trkpt lat="43.49108672433962" lon="11.354521768150573"><ele>336.2</ele><time>2026-04-12T12:54:00.001Z</time></trkpt><trkpt lat="43.49096169939547" lon="11.354422766034467"><ele>335.0</ele><time>2026-04-12T12:54:01.001Z</time></trkpt><trkpt lat="43.490923770185354" lon="11.354300187323261"><ele>335.0</ele><time>2026-04-12T12:54:03.001Z</time></trkpt><trkpt lat="43.49093788128728" lon="11.354132587397674"><ele>335.0</ele><time>2026-04-12T12:54:05.001Z</time></trkpt><trkpt lat="43.49097740884542" lon="11.354043224797685"><ele>335.0</ele><time>2026-04-12T12:54:06.001Z</time></trkpt><trkpt lat="43.4910055834048" lon="11.35393758384116"><ele>335.0</ele><time>2026-04-12T12:54:07.001Z</time></trkpt><trkpt lat="43.491029621082156" lon="11.353792123898673"><ele>335.0</ele><time>2026-04-12T12:54:08.001Z</time></trkpt><trkpt lat="43.491059781194416" lon="11.353633903936641"><ele>334.6</ele><time>2026-04-12T12:54:09.001Z</time></trkpt><trkpt lat="43.491098005637575" lon="11.353464235960475"><ele>334.2</ele><time>2026-04-12T12:54:10.001Z</time></trkpt><trkpt lat="43.4911357804" lon="11.35329401767199"><ele>333.79999999999995</ele><time>2026-04-12T12:54:11.001Z</time></trkpt><trkpt lat="43.491185536546354" lon="11.353161795604667"><ele>333.4</ele><time>2026-04-12T12:54:12.001Z</time></trkpt><trkpt lat="43.49121604324593" lon="11.353058294150149"><ele>333.0</ele><time>2026-04-12T12:54:13.001Z</time></trkpt><trkpt lat="43.49126334361382" lon="11.352935263169131"><ele>332.0</ele><time>2026-04-12T12:54:15.001Z</time></trkpt><trkpt lat="43.49132430561603" lon="11.352860997441704"><ele>331.0</ele><time>2026-04-12T12:54:18.001Z</time></trkpt><trkpt lat="43.491388297391204" lon="11.352841982710766"><ele>330.0</ele><time>2026-04-12T12:54:45Z</time></trkpt><trkpt lat="43.49147160316889" lon="11.352824895390112"><ele>329.0</ele><time>2026-04-12T12:54:47Z</time></trkpt><trkpt lat="43.49157429979769" lon="11.35273580742609"><ele>328.0</ele><time>2026-04-12T12:54:49Z</time></trkpt><trkpt lat="43.49160752635073" lon="11.352655512667754"><ele>327.0</ele><time>2026-04-12T12:54:50Z</time></trkpt><trkpt lat="43.49166625716799" lon="11.352608554902808"><ele>327.0</ele><time>2026-04-12T12:54:51Z</time></trkpt><trkpt lat="43.491714366034465" lon="11.352542801564475"><ele>327.0</ele><time>2026-04-12T12:54:52Z</time></trkpt><trkpt lat="43.49176452139842" lon="11.35247367766384"><ele>327.0</ele><time>2026-04-12T12:54:53Z</time></trkpt><trkpt lat="43.49181594175123" lon="11.352402810399989"><ele>327.0</ele><time>2026-04-12T12:54:54Z</time></trkpt><trkpt lat="43.491867114603004" lon="11.35233228420086"><ele>327.0</ele><time>2026-04-12T12:54:55Z</time></trkpt><trkpt lat="43.491922049234475" lon="11.352258723200995"><ele>327.0</ele><time>2026-04-12T12:54:56Z</time></trkpt><trkpt lat="43.4919629408023" lon="11.35217820948555"><ele>327.0</ele><time>2026-04-12T12:54:57Z</time></trkpt><trkpt lat="43.49204702161073" lon="11.352132963628872"><ele>327.0</ele><time>2026-04-12T12:54:59Z</time></trkpt><trkpt lat="43.49212646624091" lon="11.352183699881156"><ele>327.0</ele><time>2026-04-12T12:55:02Z</time></trkpt><trkpt lat="43.49216969022407" lon="11.352298980825326"><ele>327.0</ele><time>2026-04-12T12:55:04Z</time></trkpt><trkpt lat="43.492217505682696" lon="11.352435450324418"><ele>327.0</ele><time>2026-04-12T12:55:06Z</time></trkpt><trkpt lat="43.492278843665325" lon="11.352580720559006"><ele>327.0</ele><time>2026-04-12T12:55:08Z</time></trkpt><trkpt lat="43.49231560465878" lon="11.352653969106996"><ele>327.3333333333333</ele><time>2026-04-12T12:55:09Z</time></trkpt><trkpt lat="43.49241303562561" lon="11.352740322474512"><ele>327.6666666666667</ele><time>2026-04-12T12:55:11Z</time></trkpt><trkpt lat="43.49251981927789" lon="11.352767400296024"><ele>328.0</ele><time>2026-04-12T12:55:13Z</time></trkpt><trkpt lat="43.49258891180951" lon="11.352738476825907"><ele>328.33333333333337</ele><time>2026-04-12T12:55:14Z</time></trkpt><trkpt lat="43.49265359740361" lon="11.352697204070664"><ele>328.6666666666667</ele><time>2026-04-12T12:55:15Z</time></trkpt><trkpt lat="43.492727104964686" lon="11.35270598774027"><ele>329.0</ele><time>2026-04-12T12:55:16Z</time></trkpt><trkpt lat="43.49280466124634" lon="11.352720512518655"><ele>329.0</ele><time>2026-04-12T12:55:17Z</time></trkpt><trkpt lat="43.492886496051796" lon="11.352748169025343"><ele>329.0</ele><time>2026-04-12T12:55:18Z</time></trkpt><trkpt lat="43.49296828849176" lon="11.35275079718487"><ele>329.0</ele><time>2026-04-12T12:55:19Z</time></trkpt><trkpt lat="43.49304112776339" lon="11.352777161637194"><ele>329.0</ele><time>2026-04-12T12:55:20Z</time></trkpt><trkpt lat="43.49311786564206" lon="11.352798872058852"><ele>329.0</ele><time>2026-04-12T12:55:21Z</time></trkpt><trkpt lat="43.493205050462315" lon="11.352830378458195"><ele>329.0</ele><time>2026-04-12T12:55:22Z</time></trkpt><trkpt lat="43.49329479915404" lon="11.3528803232063"><ele>331.25</ele><time>2026-04-12T12:55:23Z</time></trkpt><trkpt lat="43.493376544836785" lon="11.352948303392367"><ele>333.5</ele><time>2026-04-12T12:55:24Z</time></trkpt><trkpt lat="43.49344462248026" lon="11.353007195812511"><ele>335.75</ele><time>2026-04-12T12:55:25Z</time></trkpt><trkpt lat="43.493519505458416" lon="11.353093971743911"><ele>338.0</ele><time>2026-04-12T12:55:27Z</time></trkpt><trkpt lat="43.49640264992762" lon="11.352711882553592"><ele>349.0</ele><time>2026-04-12T12:56:46.001Z</time></trkpt><trkpt lat="43.496476000948576" lon="11.352726756145547"><ele>360.0</ele><time>2026-04-12T12:56:47.001Z</time></trkpt><trkpt lat="43.49654425761064" lon="11.352743717744701"><ele>371.0</ele><time>2026-04-12T12:56:48Z</time></trkpt><trkpt lat="43.49661871185233" lon="11.352743440962733"><ele>382.0</ele><time>2026-04-12T12:56:49Z</time></trkpt><trkpt lat="43.4967042340894" lon="11.352764839187074"><ele>392.99999999999994</ele><time>2026-04-12T12:56:50Z</time></trkpt><trkpt lat="43.496794635416705" lon="11.352759551599735"><ele>404.0</ele><time>2026-04-12T12:56:51Z</time></trkpt><trkpt lat="43.49688515432611" lon="11.352746134588887"><ele>404.0</ele><time>2026-04-12T12:56:52Z</time></trkpt><trkpt lat="43.496981290503456" lon="11.35272445926219"><ele>404.0</ele><time>2026-04-12T12:56:53Z</time></trkpt><trkpt lat="43.497068695052725" lon="11.35266796372658"><ele>404.0</ele><time>2026-04-12T12:56:54Z</time></trkpt><trkpt lat="43.497154442946226" lon="11.3526292155783"><ele>404.0</ele><time>2026-04-12T12:56:55Z</time></trkpt><trkpt lat="43.49723740596988" lon="11.352567443077106"><ele>404.0</ele><time>2026-04-12T12:56:56Z</time></trkpt><trkpt lat="43.49731953480561" lon="11.352479890685771"><ele>405.0</ele><time>2026-04-12T12:56:57Z</time></trkpt><trkpt lat="43.49740981512924" lon="11.352398633761974"><ele>406.0</ele><time>2026-04-12T12:56:58Z</time></trkpt><trkpt lat="43.497503412902205" lon="11.35231689424997"><ele>407.0</ele><time>2026-04-12T12:56:59Z</time></trkpt><trkpt lat="43.497592444831966" lon="11.352240294211468"><ele>408.0</ele><time>2026-04-12T12:57:00Z</time></trkpt><trkpt lat="43.49769437762748" lon="11.352195875550898"><ele>409.0</ele><time>2026-04-12T12:57:01Z</time></trkpt><trkpt lat="43.4978063068023" lon="11.352161282490274"><ele>411.0</ele><time>2026-04-12T12:57:02Z</time></trkpt><trkpt lat="43.49792032621174" lon="11.352130322572977"><ele>413.0</ele><time>2026-04-12T12:57:03Z</time></trkpt><trkpt lat="43.49802783538951" lon="11.35209094440146"><ele>415.0</ele><time>2026-04-12T12:57:04Z</time></trkpt><trkpt lat="43.4981327229364" lon="11.352029313261479"><ele>417.0</ele><time>2026-04-12T12:57:05Z</time></trkpt><trkpt lat="43.498242318593725" lon="11.351967848291737"><ele>417.0</ele><time>2026-04-12T12:57:06Z</time></trkpt><trkpt lat="43.49834318329891" lon="11.351913822798181"><ele>417.0</ele><time>2026-04-12T12:57:07Z</time></trkpt><trkpt lat="43.49844648713509" lon="11.351893702096461"><ele>417.0</ele><time>2026-04-12T12:57:08Z</time></trkpt><trkpt lat="43.498546290945775" lon="11.351860138102694"><ele>417.0</ele><time>2026-04-12T12:57:09Z</time></trkpt><trkpt lat="43.49864575274186" lon="11.351833592820904"><ele>417.0</ele><time>2026-04-12T12:57:10Z</time></trkpt><trkpt lat="43.4987443153253" lon="11.351826039294496"><ele>416.6</ele><time>2026-04-12T12:57:11Z</time></trkpt><trkpt lat="43.49884214012003" lon="11.351815730695952"><ele>416.20000000000005</ele><time>2026-04-12T12:57:12Z</time></trkpt><trkpt lat="43.49894192075642" lon="11.351852116173736"><ele>415.8</ele><time>2026-04-12T12:57:13Z</time></trkpt><trkpt lat="43.49904310683217" lon="11.351908165974871"><ele>415.4</ele><time>2026-04-12T12:57:14Z</time></trkpt><trkpt lat="43.499144028032056" lon="11.351980642746144"><ele>415.0</ele><time>2026-04-12T12:57:15Z</time></trkpt><trkpt lat="43.499244311703066" lon="11.352059408993073"><ele>415.0</ele><time>2026-04-12T12:57:16Z</time></trkpt><trkpt lat="43.49934641996851" lon="11.352154839693215"><ele>415.0</ele><time>2026-04-12T12:57:17Z</time></trkpt><trkpt lat="43.49945225979142" lon="11.352228145708402"><ele>415.0</ele><time>2026-04-12T12:57:18Z</time></trkpt><trkpt lat="43.499546946813375" lon="11.352307443755638"><ele>415.0</ele><time>2026-04-12T12:57:19Z</time></trkpt><trkpt lat="43.49964834523646" lon="11.352375271899303"><ele>416.75</ele><time>2026-04-12T12:57:20Z</time></trkpt><trkpt lat="43.4997698243009" lon="11.352419700092074"><ele>418.5</ele><time>2026-04-12T12:57:21Z</time></trkpt><trkpt lat="43.49989062254668" lon="11.35246735386883"><ele>420.25</ele><time>2026-04-12T12:57:22Z</time></trkpt><trkpt lat="43.50001195749148" lon="11.352523962512512"><ele>422.0</ele><time>2026-04-12T12:57:23Z</time></trkpt><trkpt lat="43.500133774840634" lon="11.352576517558981"><ele>422.0</ele><time>2026-04-12T12:57:24Z</time></trkpt><trkpt lat="43.50025509805382" lon="11.3526316804369"><ele>422.0</ele><time>2026-04-12T12:57:25Z</time></trkpt><trkpt lat="43.5003793159471" lon="11.352688159472205"><ele>422.0</ele><time>2026-04-12T12:57:26Z</time></trkpt><trkpt lat="43.50050008440091" lon="11.352721958841967"><ele>422.0</ele><time>2026-04-12T12:57:27Z</time></trkpt><trkpt lat="43.50060784149669" lon="11.352786874883378"><ele>422.3333333333333</ele><time>2026-04-12T12:57:28Z</time></trkpt><trkpt lat="43.50071613166156" lon="11.352810990214975"><ele>422.66666666666663</ele><time>2026-04-12T12:57:29Z</time></trkpt><trkpt lat="43.50081031299502" lon="11.352840726916996"><ele>423.0</ele><time>2026-04-12T12:57:30Z</time></trkpt><trkpt lat="43.5008983631802" lon="11.35287241308109"><ele>423.33333333333337</ele><time>2026-04-12T12:57:31Z</time></trkpt><trkpt lat="43.50097539334738" lon="11.35287963525362"><ele>423.6666666666667</ele><time>2026-04-12T12:57:32Z</time></trkpt><trkpt lat="43.50103425587963" lon="11.352914657453683"><ele>424.0</ele><time>2026-04-12T12:57:33Z</time></trkpt><trkpt lat="43.501148842810125" lon="11.352921775906632"><ele>424.00000000000006</ele><time>2026-04-12T12:57:35Z</time></trkpt><trkpt lat="43.50125056481151" lon="11.352843362120762"><ele>424.0</ele><time>2026-04-12T12:57:37Z</time></trkpt><trkpt lat="43.501320046038465" lon="11.352831640436017"><ele>424.0</ele><time>2026-04-12T12:57:38Z</time></trkpt><trkpt lat="43.501378614699796" lon="11.352780436412369"><ele>424.0</ele><time>2026-04-12T12:57:39Z</time></trkpt><trkpt lat="43.50144725931306" lon="11.352753442065195"><ele>424.00000000000006</ele><time>2026-04-12T12:57:40Z</time></trkpt><trkpt lat="43.501513639828936" lon="11.352732411529683"><ele>424.0</ele><time>2026-04-12T12:57:41Z</time></trkpt><trkpt lat="43.50160954197016" lon="11.35278209920525"><ele>424.0</ele><time>2026-04-12T12:57:43Z</time></trkpt><trkpt lat="43.50167975451183" lon="11.352929923391502"><ele>424.0</ele><time>2026-04-12T12:57:45Z</time></trkpt><trkpt lat="43.50461913728775" lon="11.350937594442613"><ele>427.6</ele><time>2026-04-12T12:58:47.001Z</time></trkpt><trkpt lat="43.50465817386445" lon="11.3507779837885"><ele>431.2</ele><time>2026-04-12T12:59:02Z</time></trkpt><trkpt lat="43.504732335189075" lon="11.350658315178519"><ele>434.80000000000007</ele><time>2026-04-12T12:59:04Z</time></trkpt><trkpt lat="43.50479168127588" lon="11.35060014551144"><ele>438.40000000000003</ele><time>2026-04-12T12:59:05Z</time></trkpt><trkpt lat="43.50486721937914" lon="11.350568749569593"><ele>442.0</ele><time>2026-04-12T12:59:06Z</time></trkpt><trkpt lat="43.50496300612941" lon="11.350520940715555"><ele>442.0</ele><time>2026-04-12T12:59:07Z</time></trkpt><trkpt lat="43.505049213473946" lon="11.350494186722097"><ele>442.00000000000006</ele><time>2026-04-12T12:59:08Z</time></trkpt><trkpt lat="43.50513009828322" lon="11.350495294544801"><ele>442.00000000000006</ele><time>2026-04-12T12:59:09Z</time></trkpt><trkpt lat="43.50524324619073" lon="11.35049661000857"><ele>442.0</ele><time>2026-04-12T12:59:10Z</time></trkpt><trkpt lat="43.50534510350844" lon="11.350513460112502"><ele>442.0</ele><time>2026-04-12T12:59:11Z</time></trkpt><trkpt lat="43.50544061752904" lon="11.350552977267643"><ele>442.8</ele><time>2026-04-12T12:59:12Z</time></trkpt><trkpt lat="43.50553639121508" lon="11.350594129440442"><ele>443.6</ele><time>2026-04-12T12:59:13Z</time></trkpt><trkpt lat="43.505628496832436" lon="11.35063832489245"><ele>444.40000000000003</ele><time>2026-04-12T12:59:14Z</time></trkpt><trkpt lat="43.505707966189426" lon="11.350702870916491"><ele>445.20000000000005</ele><time>2026-04-12T12:59:15Z</time></trkpt><trkpt lat="43.505785014620244" lon="11.35079741372136"><ele>446.0</ele><time>2026-04-12T12:59:16Z</time></trkpt><trkpt lat="43.50585075455383" lon="11.35089203465577"><ele>445.99999999999994</ele><time>2026-04-12T12:59:17Z</time></trkpt><trkpt lat="43.50589991794871" lon="11.350984385330776"><ele>446.0</ele><time>2026-04-12T12:59:18Z</time></trkpt><trkpt lat="43.505952078799275" lon="11.351057259381479"><ele>446.0</ele><time>2026-04-12T12:59:19Z</time></trkpt><trkpt lat="43.50601751449979" lon="11.351091660178506"><ele>446.0</ele><time>2026-04-12T12:59:20Z</time></trkpt><trkpt lat="43.506101052415204" lon="11.351097766240743"><ele>445.99999999999994</ele><time>2026-04-12T12:59:21Z</time></trkpt><trkpt lat="43.50618122664844" lon="11.351066288713627"><ele>446.0</ele><time>2026-04-12T12:59:22Z</time></trkpt><trkpt lat="43.5062625627283" lon="11.351018950973458"><ele>446.20000000000005</ele><time>2026-04-12T12:59:23Z</time></trkpt><trkpt lat="43.506340186574114" lon="11.35095158137403"><ele>446.40000000000003</ele><time>2026-04-12T12:59:24Z</time></trkpt><trkpt lat="43.50642827305318" lon="11.350885738781738"><ele>446.6</ele><time>2026-04-12T12:59:25Z</time></trkpt><trkpt lat="43.50651863244248" lon="11.350850124417828"><ele>446.8</ele><time>2026-04-12T12:59:26Z</time></trkpt><trkpt lat="43.50661036503015" lon="11.350825429244898"><ele>447.0</ele><time>2026-04-12T12:59:27Z</time></trkpt><trkpt lat="43.50670149421177" lon="11.350817898652782"><ele>447.0</ele><time>2026-04-12T12:59:28Z</time></trkpt><trkpt lat="43.50678310551146" lon="11.35081634041727"><ele>447.00000000000006</ele><time>2026-04-12T12:59:29Z</time></trkpt><trkpt lat="43.50686216693596" lon="11.350854181302513"><ele>447.00000000000006</ele><time>2026-04-12T12:59:30Z</time></trkpt><trkpt lat="43.50695337064241" lon="11.35091267112586"><ele>447.0</ele><time>2026-04-12T12:59:31Z</time></trkpt><trkpt lat="43.507044963135186" lon="11.350947399430881"><ele>447.0</ele><time>2026-04-12T12:59:32Z</time></trkpt><trkpt lat="43.507136737118984" lon="11.350958473025278"><ele>447.8333333333333</ele><time>2026-04-12T12:59:33Z</time></trkpt><trkpt lat="43.50722481618524" lon="11.35096988145244"><ele>448.66666666666663</ele><time>2026-04-12T12:59:34Z</time></trkpt><trkpt lat="43.50730990160806" lon="11.3509931579742"><ele>449.5</ele><time>2026-04-12T12:59:35Z</time></trkpt><trkpt lat="43.507390130699996" lon="11.351034554019616"><ele>450.3333333333333</ele><time>2026-04-12T12:59:36Z</time></trkpt><trkpt lat="43.50747089012489" lon="11.35106405158562"><ele>451.16666666666663</ele><time>2026-04-12T12:59:37Z</time></trkpt><trkpt lat="43.50754641622342" lon="11.35108181651441"><ele>452.0</ele><time>2026-04-12T12:59:38Z</time></trkpt><trkpt lat="43.507627032357846" lon="11.351094491726803"><ele>452.0</ele><time>2026-04-12T12:59:39Z</time></trkpt><trkpt lat="43.507702984246" lon="11.351011847455073"><ele>452.00000000000006</ele><time>2026-04-12T12:59:41Z</time></trkpt><trkpt lat="43.50771602921646" lon="11.3509260202429"><ele>452.00000000000006</ele><time>2026-04-12T12:59:42Z</time></trkpt><trkpt lat="43.50771129049001" lon="11.350825702080511"><ele>452.0</ele><time>2026-04-12T12:59:43Z</time></trkpt><trkpt lat="43.50777727192336" lon="11.350685673784508"><ele>452.0</ele><time>2026-04-12T12:59:45Z</time></trkpt><trkpt lat="43.509535179588234" lon="11.348768457805765"><ele>452.16666666666663</ele><time>2026-04-12T13:00:46.001Z</time></trkpt><trkpt lat="43.50948415386836" lon="11.348846892413468"><ele>452.3333333333333</ele><time>2026-04-12T13:00:47.001Z</time></trkpt><trkpt lat="43.509433891823065" lon="11.348936630024127"><ele>452.5</ele><time>2026-04-12T13:00:48.001Z</time></trkpt><trkpt lat="43.5093948274105" lon="11.349034810996338"><ele>452.66666666666663</ele><time>2026-04-12T13:00:49.001Z</time></trkpt><trkpt lat="43.50935753814199" lon="11.34913140778106"><ele>452.8333333333333</ele><time>2026-04-12T13:00:50.001Z</time></trkpt><trkpt lat="43.509308125111936" lon="11.349230902943523"><ele>453.0</ele><time>2026-04-12T13:00:51.001Z</time></trkpt><trkpt lat="43.50925827803928" lon="11.349322217097441"><ele>454.5</ele><time>2026-04-12T13:00:52.001Z</time></trkpt><trkpt lat="43.50919578106817" lon="11.349410069122342"><ele>456.0</ele><time>2026-04-12T13:00:53.001Z</time></trkpt><trkpt lat="43.50913499775587" lon="11.349469871061254"><ele>457.5</ele><time>2026-04-12T13:00:54.001Z</time></trkpt><trkpt lat="43.50906467529662" lon="11.349515227930887"><ele>459.0</ele><time>2026-04-12T13:00:55.001Z</time></trkpt><trkpt lat="43.508995416770894" lon="11.34955836262976"><ele>460.5</ele><time>2026-04-12T13:00:56.001Z</time></trkpt><trkpt lat="43.50894243307699" lon="11.349611706780717"><ele>462.0</ele><time>2026-04-12T13:00:57.001Z</time></trkpt><trkpt lat="43.50889809480112" lon="11.349756563531209"><ele>461.0</ele><time>2026-04-12T13:00:59.001Z</time></trkpt><trkpt lat="43.508899629489406" lon="11.34985586740361"><ele>460.0</ele><time>2026-04-12T13:01:00Z</time></trkpt><trkpt lat="43.508893148674176" lon="11.349960370326524"><ele>459.0</ele><time>2026-04-12T13:01:01Z</time></trkpt><trkpt lat="43.508870918456715" lon="11.350045302889908"><ele>458.0</ele><time>2026-04-12T13:01:02Z</time></trkpt><trkpt lat="43.508824197557374" lon="11.35011290608508"><ele>457.0</ele><time>2026-04-12T13:01:03Z</time></trkpt><trkpt lat="43.5087561436669" lon="11.350152781628521"><ele>456.0</ele><time>2026-04-12T13:01:04Z</time></trkpt><trkpt lat="43.508676428535544" lon="11.350164563230793"><ele>455.0</ele><time>2026-04-12T13:01:05Z</time></trkpt><trkpt lat="43.508597544399144" lon="11.35016013505031"><ele>455.0</ele><time>2026-04-12T13:01:06Z</time></trkpt><trkpt lat="43.50852179040197" lon="11.350164884722407"><ele>455.0</ele><time>2026-04-12T13:01:07Z</time></trkpt><trkpt lat="43.5084496249294" lon="11.350201877719925"><ele>455.0</ele><time>2026-04-12T13:01:08Z</time></trkpt><trkpt lat="43.5083824623541" lon="11.350249002089289"><ele>455.0</ele><time>2026-04-12T13:01:09Z</time></trkpt><trkpt lat="43.5083248527478" lon="11.350296104079806"><ele>455.0</ele><time>2026-04-12T13:01:10Z</time></trkpt><trkpt lat="43.50826497700685" lon="11.350342782040144"><ele>455.0</ele><time>2026-04-12T13:01:11Z</time></trkpt><trkpt lat="43.50820223836333" lon="11.350391136848327"><ele>455.0</ele><time>2026-04-12T13:01:12Z</time></trkpt><trkpt lat="43.508131685736345" lon="11.350447904228957"><ele>454.99999999999994</ele><time>2026-04-12T13:01:13Z</time></trkpt><trkpt lat="43.508063056093974" lon="11.350506056795643"><ele>455.0</ele><time>2026-04-12T13:01:14Z</time></trkpt><trkpt lat="43.50800024758196" lon="11.350561976896854"><ele>455.0</ele><time>2026-04-12T13:01:15Z</time></trkpt><trkpt lat="43.50792979591125" lon="11.350604283338262"><ele>455.0</ele><time>2026-04-12T13:01:16Z</time></trkpt><trkpt lat="43.507870714969876" lon="11.35063622551528"><ele>454.99999999999994</ele><time>2026-04-12T13:01:17Z</time></trkpt><trkpt lat="43.50779114672481" lon="11.350676919075712"><ele>455.0</ele><time>2026-04-12T13:01:19Z</time></trkpt><trkpt lat="43.50773407141985" lon="11.350749453836668"><ele>454.4</ele><time>2026-04-12T13:01:21Z</time></trkpt><trkpt lat="43.50770007586449" lon="11.350847237283112"><ele>453.8</ele><time>2026-04-12T13:01:23Z</time></trkpt><trkpt lat="43.50769086485403" lon="11.350977471151191"><ele>453.20000000000005</ele><time>2026-04-12T13:01:25Z</time></trkpt><trkpt lat="43.50763607160779" lon="11.35109960041285"><ele>452.6</ele><time>2026-04-12T13:01:27Z</time></trkpt><trkpt lat="43.50752163575048" lon="11.351085624233177"><ele>452.0</ele><time>2026-04-12T13:01:29Z</time></trkpt><trkpt lat="43.50745788714685" lon="11.351052622910371"><ele>451.99999999999994</ele><time>2026-04-12T13:01:30Z</time></trkpt><trkpt lat="43.50739243199633" lon="11.351029191302729"><ele>452.0</ele><time>2026-04-12T13:01:31Z</time></trkpt><trkpt lat="43.507321865346874" lon="11.351008129465294"><ele>452.0</ele><time>2026-04-12T13:01:32Z</time></trkpt><trkpt lat="43.50719188189093" lon="11.35097220845888"><ele>452.0</ele><time>2026-04-12T13:01:34Z</time></trkpt><trkpt lat="43.5071193709826" lon="11.350948447052751"><ele>451.99999999999994</ele><time>2026-04-12T13:01:35Z</time></trkpt><trkpt lat="43.507051342064415" lon="11.350950604875518"><ele>452.0</ele><time>2026-04-12T13:01:36Z</time></trkpt><trkpt lat="43.506983184722834" lon="11.350940604708736"><ele>451.16666666666663</ele><time>2026-04-12T13:01:37Z</time></trkpt><trkpt lat="43.50690974452853" lon="11.350918614296761"><ele>450.3333333333333</ele><time>2026-04-12T13:01:38Z</time></trkpt><trkpt lat="43.50683536474785" lon="11.35087675378852"><ele>449.5</ele><time>2026-04-12T13:01:39Z</time></trkpt><trkpt lat="43.50675865739815" lon="11.350823691224187"><ele>448.66666666666663</ele><time>2026-04-12T13:01:40Z</time></trkpt><trkpt lat="43.50669068974344" lon="11.350804941429905"><ele>447.8333333333333</ele><time>2026-04-12T13:01:41Z</time></trkpt><trkpt lat="43.50661623093892" lon="11.350823566366053"><ele>447.0</ele><time>2026-04-12T13:01:42Z</time></trkpt><trkpt lat="43.506549014186874" lon="11.350859992018012"><ele>447.0</ele><time>2026-04-12T13:01:43Z</time></trkpt><trkpt lat="43.50646582200829" lon="11.350889049392483"><ele>447.0</ele><time>2026-04-12T13:01:44Z</time></trkpt><trkpt lat="43.50637976168126" lon="11.350914781898842"><ele>447.0</ele><time>2026-04-12T13:01:45Z</time></trkpt><trkpt lat="43.50688445223882" lon="11.352708133760038"><ele>453.1666666666667</ele><time>2026-04-12T13:02:46.001Z</time></trkpt><trkpt lat="43.50694756376984" lon="11.352804980825185"><ele>459.33333333333337</ele><time>2026-04-12T13:02:47.001Z</time></trkpt><trkpt lat="43.5070185590133" lon="11.352897214451097"><ele>465.5</ele><time>2026-04-12T13:02:48.001Z</time></trkpt><trkpt lat="43.507093667031974" lon="11.35294942750664"><ele>471.6666666666667</ele><time>2026-04-12T13:02:49.001Z</time></trkpt><trkpt lat="43.50716861629012" lon="11.352972263588907"><ele>477.83333333333337</ele><time>2026-04-12T13:02:50.001Z</time></trkpt><trkpt lat="43.50725398847241" lon="11.352995252355527"><ele>484.0</ele><time>2026-04-12T13:02:51.001Z</time></trkpt><trkpt lat="43.507339455643866" lon="11.353013597240068"><ele>486.0</ele><time>2026-04-12T13:02:52.001Z</time></trkpt><trkpt lat="43.50742498530324" lon="11.353066560927806"><ele>488.0</ele><time>2026-04-12T13:02:53.001Z</time></trkpt><trkpt lat="43.50750351090107" lon="11.353144897553543"><ele>490.0</ele><time>2026-04-12T13:02:54.001Z</time></trkpt><trkpt lat="43.507584015974174" lon="11.353205380772467"><ele>492.0</ele><time>2026-04-12T13:02:55.001Z</time></trkpt><trkpt lat="43.50767988667019" lon="11.353237637382751"><ele>494.0</ele><time>2026-04-12T13:02:56.001Z</time></trkpt><trkpt lat="43.50778734204146" lon="11.35325090452457"><ele>494.0</ele><time>2026-04-12T13:02:57.001Z</time></trkpt><trkpt lat="43.50789930259828" lon="11.353271926509498"><ele>494.0</ele><time>2026-04-12T13:02:58.001Z</time></trkpt><trkpt lat="43.50801214343112" lon="11.353279442455603"><ele>494.0</ele><time>2026-04-12T13:02:59.001Z</time></trkpt><trkpt lat="43.50812904580024" lon="11.353267323629629"><ele>494.0</ele><time>2026-04-12T13:03:00.001Z</time></trkpt><trkpt lat="43.50823465243896" lon="11.353254360587519"><ele>494.0</ele><time>2026-04-12T13:03:01.001Z</time></trkpt><trkpt lat="43.50833248098275" lon="11.353247493942936"><ele>494.79999999999995</ele><time>2026-04-12T13:03:02.001Z</time></trkpt><trkpt lat="43.50842346941502" lon="11.353232124619607"><ele>495.59999999999997</ele><time>2026-04-12T13:03:03.001Z</time></trkpt><trkpt lat="43.508516243440226" lon="11.353204000025777"><ele>496.4</ele><time>2026-04-12T13:03:04.001Z</time></trkpt><trkpt lat="43.50859524127147" lon="11.353213602522134"><ele>497.2</ele><time>2026-04-12T13:03:05.001Z</time></trkpt><trkpt lat="43.50868941199541" lon="11.35326376254794"><ele>498.0</ele><time>2026-04-12T13:03:06Z</time></trkpt><trkpt lat="43.5087817629337" lon="11.353307857205847"><ele>500.0</ele><time>2026-04-12T13:03:07Z</time></trkpt><trkpt lat="43.508872197038556" lon="11.353348573575726"><ele>502.0</ele><time>2026-04-12T13:03:08Z</time></trkpt><trkpt lat="43.50894474815928" lon="11.353389009799079"><ele>504.0</ele><time>2026-04-12T13:03:09Z</time></trkpt><trkpt lat="43.50903558710484" lon="11.353492907403638"><ele>506.0</ele><time>2026-04-12T13:03:11Z</time></trkpt><trkpt lat="43.50907041927647" lon="11.353573040851629"><ele>508.0</ele><time>2026-04-12T13:03:12Z</time></trkpt><trkpt lat="43.50910687107691" lon="11.35364833667664"><ele>510.0</ele><time>2026-04-12T13:03:13Z</time></trkpt><trkpt lat="43.50920609443671" lon="11.353722476805036"><ele>510.0</ele><time>2026-04-12T13:03:15Z</time></trkpt><trkpt lat="43.5093111853004" lon="11.353694725497"><ele>510.0</ele><time>2026-04-12T13:03:17Z</time></trkpt><trkpt lat="43.509377842006664" lon="11.353671872999339"><ele>510.0</ele><time>2026-04-12T13:03:18Z</time></trkpt><trkpt lat="43.509451520360166" lon="11.3536062387946"><ele>510.0</ele><time>2026-04-12T13:03:19Z</time></trkpt><trkpt lat="43.50953263316933" lon="11.353587692090453"><ele>510.0</ele><time>2026-04-12T13:03:20Z</time></trkpt><trkpt lat="43.509625908423786" lon="11.353573847175802"><ele>510.0</ele><time>2026-04-12T13:03:21Z</time></trkpt><trkpt lat="43.509718996379675" lon="11.353566772131568"><ele>512.5</ele><time>2026-04-12T13:03:22Z</time></trkpt><trkpt lat="43.509822432927784" lon="11.353593087721272"><ele>515.0</ele><time>2026-04-12T13:03:23Z</time></trkpt><trkpt lat="43.50992457323437" lon="11.353597196998773"><ele>517.5</ele><time>2026-04-12T13:03:24Z</time></trkpt><trkpt lat="43.51001159317477" lon="11.353578915310655"><ele>520.0</ele><time>2026-04-12T13:03:25Z</time></trkpt><trkpt lat="43.510087208669965" lon="11.35354493362175"><ele>522.5</ele><time>2026-04-12T13:03:26Z</time></trkpt><trkpt lat="43.51014735703818" lon="11.353490161312152"><ele>525.0</ele><time>2026-04-12T13:03:27Z</time></trkpt><trkpt lat="43.51020970343289" lon="11.353421616374083"><ele>525.0</ele><time>2026-04-12T13:03:28Z</time></trkpt><trkpt lat="43.51029030509002" lon="11.353320649341626"><ele>525.0</ele><time>2026-04-12T13:03:29Z</time></trkpt><trkpt lat="43.51036900184591" lon="11.35323523666583"><ele>525.0</ele><time>2026-04-12T13:03:30Z</time></trkpt><trkpt lat="43.510437364158214" lon="11.353167430571155"><ele>525.0</ele><time>2026-04-12T13:03:31Z</time></trkpt><trkpt lat="43.51049796578703" lon="11.353125573021815"><ele>525.0</ele><time>2026-04-12T13:03:32Z</time></trkpt><trkpt lat="43.510625275234226" lon="11.35315415057752"><ele>526.6</ele><time>2026-04-12T13:03:34Z</time></trkpt><trkpt lat="43.510700838186466" lon="11.353221251967412"><ele>528.2</ele><time>2026-04-12T13:03:35Z</time></trkpt><trkpt lat="43.51078842094906" lon="11.35330089789291"><ele>529.8</ele><time>2026-04-12T13:03:36Z</time></trkpt><trkpt lat="43.51089208772554" lon="11.35335929959909"><ele>531.4</ele><time>2026-04-12T13:03:37Z</time></trkpt><trkpt lat="43.51099368867247" lon="11.353442593379457"><ele>533.0</ele><time>2026-04-12T13:03:38Z</time></trkpt><trkpt lat="43.51111255415872" lon="11.353519351295148"><ele>533.0</ele><time>2026-04-12T13:03:39Z</time></trkpt><trkpt lat="43.511225000293095" lon="11.353595304305239"><ele>533.0</ele><time>2026-04-12T13:03:40Z</time></trkpt><trkpt lat="43.51133459176851" lon="11.353673931191105"><ele>533.0</ele><time>2026-04-12T13:03:41Z</time></trkpt><trkpt lat="43.5114340618728" lon="11.353747078680668"><ele>533.0</ele><time>2026-04-12T13:03:42Z</time></trkpt><trkpt lat="43.51153492342653" lon="11.353824787069474"><ele>534.3333333333333</ele><time>2026-04-12T13:03:43Z</time></trkpt><trkpt lat="43.511630282372366" lon="11.35389483787054"><ele>535.6666666666666</ele><time>2026-04-12T13:03:44Z</time></trkpt><trkpt lat="43.5117163803432" lon="11.353957965205023"><ele>537.0</ele><time>2026-04-12T13:03:45Z</time></trkpt><trkpt lat="43.51703289538539" lon="11.352515795009156"><ele>542.8333333333334</ele><time>2026-04-12T13:04:46.001Z</time></trkpt><trkpt lat="43.517053134546295" lon="11.352391806636208"><ele>548.6666666666666</ele><time>2026-04-12T13:04:47.001Z</time></trkpt><trkpt lat="43.517056221197386" lon="11.352280690585403"><ele>554.5</ele><time>2026-04-12T13:04:48.001Z</time></trkpt><trkpt lat="43.517090053755375" lon="11.352188426334946"><ele>560.3333333333333</ele><time>2026-04-12T13:04:49.001Z</time></trkpt><trkpt lat="43.51713631262736" lon="11.3521168541406"><ele>566.1666666666666</ele><time>2026-04-12T13:04:50.001Z</time></trkpt><trkpt lat="43.51719505975195" lon="11.352081296214603"><ele>572.0</ele><time>2026-04-12T13:04:51.001Z</time></trkpt><trkpt lat="43.517312040340265" lon="11.352115469016836"><ele>574.1666666666666</ele><time>2026-04-12T13:04:53.001Z</time></trkpt><trkpt lat="43.51738984294086" lon="11.352121395897068"><ele>576.3333333333333</ele><time>2026-04-12T13:04:54.001Z</time></trkpt><trkpt lat="43.51746439398779" lon="11.352150290430194"><ele>578.5</ele><time>2026-04-12T13:04:55.001Z</time></trkpt><trkpt lat="43.51754498629989" lon="11.35212839217893"><ele>580.6666666666666</ele><time>2026-04-12T13:04:56.001Z</time></trkpt><trkpt lat="43.51763324093374" lon="11.352104404988943"><ele>582.8333333333334</ele><time>2026-04-12T13:04:57.001Z</time></trkpt><trkpt lat="43.51773190882443" lon="11.352082105428414"><ele>585.0</ele><time>2026-04-12T13:04:58.001Z</time></trkpt><trkpt lat="43.517836832105644" lon="11.35205564501719"><ele>589.25</ele><time>2026-04-12T13:04:59.001Z</time></trkpt><trkpt lat="43.517947589343166" lon="11.352028492046177"><ele>593.5</ele><time>2026-04-12T13:05:00.001Z</time></trkpt><trkpt lat="43.51806996606075" lon="11.352049177374193"><ele>597.75</ele><time>2026-04-12T13:05:01.001Z</time></trkpt><trkpt lat="43.518204816268906" lon="11.35203205109487"><ele>602.0</ele><time>2026-04-12T13:05:02.001Z</time></trkpt><trkpt lat="43.51833179802227" lon="11.352005961782167"><ele>602.0</ele><time>2026-04-12T13:05:03.001Z</time></trkpt><trkpt lat="43.518466968041885" lon="11.351953861520563"><ele>602.0</ele><time>2026-04-12T13:05:04.001Z</time></trkpt><trkpt lat="43.518602972972246" lon="11.351918606971253"><ele>602.0</ele><time>2026-04-12T13:05:05.001Z</time></trkpt><trkpt lat="43.518739457171414" lon="11.351909120202343"><ele>602.0</ele><time>2026-04-12T13:05:06.001Z</time></trkpt><trkpt lat="43.518864378439005" lon="11.351959082990305"><ele>605.5</ele><time>2026-04-12T13:05:07.001Z</time></trkpt><trkpt lat="43.518997080830836" lon="11.351967894200971"><ele>609.0</ele><time>2026-04-12T13:05:08.001Z</time></trkpt><trkpt lat="43.51912761246226" lon="11.351973675510893"><ele>612.5</ele><time>2026-04-12T13:05:09.001Z</time></trkpt><trkpt lat="43.5192652112486" lon="11.351977696441176"><ele>616.0</ele><time>2026-04-12T13:05:10.001Z</time></trkpt><trkpt lat="43.51941110024764" lon="11.351983618652303"><ele>616.0</ele><time>2026-04-12T13:05:11.001Z</time></trkpt><trkpt lat="43.51955483073367" lon="11.351982531197924"><ele>616.0</ele><time>2026-04-12T13:05:12Z</time></trkpt><trkpt lat="43.51968434865723" lon="11.351989722693498"><ele>616.0</ele><time>2026-04-12T13:05:13Z</time></trkpt><trkpt lat="43.519802901506246" lon="11.35202381720342"><ele>616.0</ele><time>2026-04-12T13:05:14Z</time></trkpt><trkpt lat="43.51992171831275" lon="11.352082948506911"><ele>616.0</ele><time>2026-04-12T13:05:15Z</time></trkpt><trkpt lat="43.52003282277627" lon="11.35217483379379"><ele>616.0</ele><time>2026-04-12T13:05:16Z</time></trkpt><trkpt lat="43.520133910399615" lon="11.352278442084087"><ele>616.0</ele><time>2026-04-12T13:05:17Z</time></trkpt><trkpt lat="43.52021417447618" lon="11.352399182130737"><ele>616.0</ele><time>2026-04-12T13:05:18Z</time></trkpt><trkpt lat="43.520293114400786" lon="11.352528393526834"><ele>616.0</ele><time>2026-04-12T13:05:19Z</time></trkpt><trkpt lat="43.520358341265265" lon="11.352647791622271"><ele>616.0</ele><time>2026-04-12T13:05:20Z</time></trkpt><trkpt lat="43.52042049785413" lon="11.352739884839572"><ele>616.0</ele><time>2026-04-12T13:05:21Z</time></trkpt><trkpt lat="43.52048665811275" lon="11.3528098133279"><ele>616.0</ele><time>2026-04-12T13:05:22Z</time></trkpt><trkpt lat="43.520558956433234" lon="11.352838513984093"><ele>616.0</ele><time>2026-04-12T13:05:23Z</time></trkpt><trkpt lat="43.520662598587805" lon="11.352845891073208"><ele>616.75</ele><time>2026-04-12T13:05:24Z</time></trkpt><trkpt lat="43.52078860502333" lon="11.352852666942074"><ele>617.5</ele><time>2026-04-12T13:05:25Z</time></trkpt><trkpt lat="43.52093247652592" lon="11.352879666851749"><ele>618.25</ele><time>2026-04-12T13:05:26Z</time></trkpt><trkpt lat="43.52106306867857" lon="11.352943727465306"><ele>619.0</ele><time>2026-04-12T13:05:27Z</time></trkpt><trkpt lat="43.5211963668983" lon="11.353021554796195"><ele>619.25</ele><time>2026-04-12T13:05:28Z</time></trkpt><trkpt lat="43.52130959164048" lon="11.353104488203456"><ele>619.5</ele><time>2026-04-12T13:05:29Z</time></trkpt><trkpt lat="43.52144154149329" lon="11.353219969541048"><ele>619.75</ele><time>2026-04-12T13:05:30Z</time></trkpt><trkpt lat="43.52156289976918" lon="11.353308343960622"><ele>620.0</ele><time>2026-04-12T13:05:31Z</time></trkpt><trkpt lat="43.52167829055469" lon="11.353422908236213"><ele>620.0</ele><time>2026-04-12T13:05:32Z</time></trkpt><trkpt lat="43.521779988337016" lon="11.35353825314928"><ele>620.0</ele><time>2026-04-12T13:05:33Z</time></trkpt><trkpt lat="43.521880404715915" lon="11.353620343674839"><ele>620.0</ele><time>2026-04-12T13:05:34Z</time></trkpt><trkpt lat="43.5219616651572" lon="11.353697227956353"><ele>620.0</ele><time>2026-04-12T13:05:35Z</time></trkpt><trkpt lat="43.522021867946734" lon="11.353762933170733"><ele>620.0</ele><time>2026-04-12T13:05:36Z</time></trkpt><trkpt lat="43.52209593948335" lon="11.353879359269195"><ele>622.2</ele><time>2026-04-12T13:05:38Z</time></trkpt><trkpt lat="43.52219061548692" lon="11.353877348839141"><ele>624.4</ele><time>2026-04-12T13:05:39Z</time></trkpt><trkpt lat="43.52227935572925" lon="11.353898272517181"><ele>626.6</ele><time>2026-04-12T13:05:40Z</time></trkpt><trkpt lat="43.52236531908994" lon="11.353977150620995"><ele>628.8</ele><time>2026-04-12T13:05:41Z</time></trkpt><trkpt lat="43.52247567972618" lon="11.354027160919738"><ele>631.0</ele><time>2026-04-12T13:05:42Z</time></trkpt><trkpt lat="43.52257310578187" lon="11.35409375119105"><ele>631.0</ele><time>2026-04-12T13:05:43Z</time></trkpt><trkpt lat="43.52270014299427" lon="11.354107969602717"><ele>631.0</ele><time>2026-04-12T13:05:44Z</time></trkpt><trkpt lat="43.52282670357036" lon="11.354096980921813"><ele>631.0</ele><time>2026-04-12T13:05:45Z</time></trkpt><trkpt lat="43.5294845400609" lon="11.355455653010793"><ele>637.0</ele><time>2026-04-12T13:06:46.001Z</time></trkpt><trkpt lat="43.52962197243204" lon="11.355487072174174"><ele>643.0</ele><time>2026-04-12T13:06:47.001Z</time></trkpt><trkpt lat="43.52973382900601" lon="11.355521033897153"><ele>649.0</ele><time>2026-04-12T13:06:48.001Z</time></trkpt><trkpt lat="43.52983513523305" lon="11.355556629503674"><ele>655.0</ele><time>2026-04-12T13:06:49.001Z</time></trkpt><trkpt lat="43.5299339306276" lon="11.355603118354008"><ele>656.8</ele><time>2026-04-12T13:06:50.001Z</time></trkpt><trkpt lat="43.53003651218239" lon="11.355665910286586"><ele>658.6</ele><time>2026-04-12T13:06:51.001Z</time></trkpt><trkpt lat="43.530138776552086" lon="11.35573446958272"><ele>660.4000000000001</ele><time>2026-04-12T13:06:52.001Z</time></trkpt><trkpt lat="43.5302295251051" lon="11.355797921257546"><ele>662.2</ele><time>2026-04-12T13:06:53.001Z</time></trkpt><trkpt lat="43.530321792068946" lon="11.355846419736931"><ele>664.0</ele><time>2026-04-12T13:06:54.001Z</time></trkpt><trkpt lat="43.53040151367517" lon="11.355877065071002"><ele>664.0</ele><time>2026-04-12T13:06:55.001Z</time></trkpt><trkpt lat="43.53047247951252" lon="11.355884387142961"><ele>664.0</ele><time>2026-04-12T13:06:56.001Z</time></trkpt><trkpt lat="43.53054162264124" lon="11.355926574320359"><ele>664.0</ele><time>2026-04-12T13:06:57.001Z</time></trkpt><trkpt lat="43.53060583217632" lon="11.355946018051139"><ele>664.0</ele><time>2026-04-12T13:06:58.001Z</time></trkpt><trkpt lat="43.53069545883217" lon="11.355836440994443"><ele>664.0</ele><time>2026-04-12T13:06:59.001Z</time></trkpt><trkpt lat="43.53076630323405" lon="11.355773747001367"><ele>664.0</ele><time>2026-04-12T13:07:00.001Z</time></trkpt><trkpt lat="43.53084257961759" lon="11.355673327662734"><ele>664.0</ele><time>2026-04-12T13:07:01.001Z</time></trkpt><trkpt lat="43.53091954151043" lon="11.355543824166226"><ele>664.0</ele><time>2026-04-12T13:07:02.001Z</time></trkpt><trkpt lat="43.530997911174474" lon="11.35538593367227"><ele>664.0</ele><time>2026-04-12T13:07:03.001Z</time></trkpt><trkpt lat="43.53106371075345" lon="11.35520833508683"><ele>664.0</ele><time>2026-04-12T13:07:04.001Z</time></trkpt><trkpt lat="43.53113374820118" lon="11.35502349658297"><ele>663.3333333333334</ele><time>2026-04-12T13:07:05.001Z</time></trkpt><trkpt lat="43.531201875242225" lon="11.354812866767743"><ele>662.6666666666666</ele><time>2026-04-12T13:07:06.001Z</time></trkpt><trkpt lat="43.53125963080658" lon="11.354592317093942"><ele>662.0</ele><time>2026-04-12T13:07:07.001Z</time></trkpt><trkpt lat="43.53131787059395" lon="11.354376583393835"><ele>662.0</ele><time>2026-04-12T13:07:08.001Z</time></trkpt><trkpt lat="43.531366784978786" lon="11.354188445880652"><ele>662.0</ele><time>2026-04-12T13:07:09.001Z</time></trkpt><trkpt lat="43.53141739794728" lon="11.354012246029217"><ele>662.0</ele><time>2026-04-12T13:07:10.001Z</time></trkpt><trkpt lat="43.53144218974732" lon="11.353806312052086"><ele>662.0</ele><time>2026-04-12T13:07:11.001Z</time></trkpt><trkpt lat="43.53147238459968" lon="11.353595288727236"><ele>663.0</ele><time>2026-04-12T13:07:12.001Z</time></trkpt><trkpt lat="43.531513197029504" lon="11.353364605359111"><ele>664.0</ele><time>2026-04-12T13:07:13.001Z</time></trkpt><trkpt lat="43.53153808252982" lon="11.353137466052777"><ele>665.0</ele><time>2026-04-12T13:07:14.002Z</time></trkpt><trkpt lat="43.53156430783212" lon="11.352911253746724"><ele>666.0</ele><time>2026-04-12T13:07:15.002Z</time></trkpt><trkpt lat="43.53158897916492" lon="11.352695683080324"><ele>667.0</ele><time>2026-04-12T13:07:16.002Z</time></trkpt><trkpt lat="43.531600375928676" lon="11.352450863789027"><ele>668.0</ele><time>2026-04-12T13:07:17.002Z</time></trkpt><trkpt lat="43.531629343464736" lon="11.352220074774914"><ele>667.6666666666666</ele><time>2026-04-12T13:07:18Z</time></trkpt><trkpt lat="43.531655143567285" lon="11.35198784815514"><ele>667.3333333333334</ele><time>2026-04-12T13:07:19Z</time></trkpt><trkpt lat="43.53168224880543" lon="11.351746192444043"><ele>667.0</ele><time>2026-04-12T13:07:20Z</time></trkpt><trkpt lat="43.531729451285656" lon="11.351528607860999"><ele>665.75</ele><time>2026-04-12T13:07:21Z</time></trkpt><trkpt lat="43.531756606115486" lon="11.351320935621724"><ele>664.5</ele><time>2026-04-12T13:07:22Z</time></trkpt><trkpt lat="43.53176767744414" lon="11.35113248205838"><ele>663.25</ele><time>2026-04-12T13:07:23Z</time></trkpt><trkpt lat="43.53176019592398" lon="11.350961698033828"><ele>662.0</ele><time>2026-04-12T13:07:24Z</time></trkpt><trkpt lat="43.531769781444396" lon="11.350805330504471"><ele>662.0</ele><time>2026-04-12T13:07:25Z</time></trkpt><trkpt lat="43.53180013646478" lon="11.350660299771022"><ele>662.0</ele><time>2026-04-12T13:07:26Z</time></trkpt><trkpt lat="43.5318565300833" lon="11.350510401285534"><ele>662.0</ele><time>2026-04-12T13:07:27Z</time></trkpt><trkpt lat="43.531915022197026" lon="11.350366704370787"><ele>662.0</ele><time>2026-04-12T13:07:28Z</time></trkpt><trkpt lat="43.53198552358909" lon="11.350241400485764"><ele>663.0</ele><time>2026-04-12T13:07:29Z</time></trkpt><trkpt lat="43.5320654826272" lon="11.35011289805307"><ele>664.0</ele><time>2026-04-12T13:07:30Z</time></trkpt><trkpt lat="43.53214972062195" lon="11.35001295605805"><ele>665.0</ele><time>2026-04-12T13:07:31Z</time></trkpt><trkpt lat="43.53224423656759" lon="11.349932656044253"><ele>666.0</ele><time>2026-04-12T13:07:32Z</time></trkpt><trkpt lat="43.53236152615023" lon="11.349839638861978"><ele>666.0</ele><time>2026-04-12T13:07:33Z</time></trkpt><trkpt lat="43.53249690388407" lon="11.349745191757169"><ele>666.0</ele><time>2026-04-12T13:07:34Z</time></trkpt><trkpt lat="43.53264579076622" lon="11.349622280548799"><ele>666.0</ele><time>2026-04-12T13:07:35Z</time></trkpt><trkpt lat="43.53279720793483" lon="11.34949155160071"><ele>663.6666666666666</ele><time>2026-04-12T13:07:36Z</time></trkpt><trkpt lat="43.53294596446267" lon="11.349358887173207"><ele>661.3333333333333</ele><time>2026-04-12T13:07:37Z</time></trkpt><trkpt lat="43.5331032046747" lon="11.349225228827162"><ele>659.0</ele><time>2026-04-12T13:07:38Z</time></trkpt><trkpt lat="43.53326158214162" lon="11.34909791430044"><ele>659.0</ele><time>2026-04-12T13:07:39Z</time></trkpt><trkpt lat="43.533421995541" lon="11.348968643373428"><ele>659.0</ele><time>2026-04-12T13:07:40Z</time></trkpt><trkpt lat="43.53357865495198" lon="11.348834532915387"><ele>659.0</ele><time>2026-04-12T13:07:41Z</time></trkpt><trkpt lat="43.5337487325036" lon="11.348689631867616"><ele>656.6666666666666</ele><time>2026-04-12T13:07:42Z</time></trkpt><trkpt lat="43.53392760315305" lon="11.348540870943923"><ele>654.3333333333334</ele><time>2026-04-12T13:07:43Z</time></trkpt><trkpt lat="43.53410559330716" lon="11.348396036422518"><ele>652.0</ele><time>2026-04-12T13:07:44Z</time></trkpt><trkpt lat="43.534279348988264" lon="11.348253195019831"><ele>605.0</ele><time>2026-04-12T13:07:45Z</time></trkpt><trkpt lat="43.53556444325458" lon="11.340389647114453"><ele>605.0</ele><time>2026-04-12T13:08:46.001Z</time></trkpt><trkpt lat="43.53545457638167" lon="11.340300760661385"><ele>605.0</ele><time>2026-04-12T13:08:47.001Z</time></trkpt><trkpt lat="43.535354484895166" lon="11.340214942213183"><ele>605.0</ele><time>2026-04-12T13:08:48.001Z</time></trkpt><trkpt lat="43.53525144503029" lon="11.340139909294962"><ele>605.0</ele><time>2026-04-12T13:08:49.001Z</time></trkpt><trkpt lat="43.53516545802582" lon="11.340035525883414"><ele>599.75</ele><time>2026-04-12T13:08:50.001Z</time></trkpt><trkpt lat="43.53509386698368" lon="11.339915245765484"><ele>594.5</ele><time>2026-04-12T13:08:51.001Z</time></trkpt><trkpt lat="43.535030230888964" lon="11.339780535797782"><ele>589.25</ele><time>2026-04-12T13:08:52.001Z</time></trkpt><trkpt lat="43.53496649977384" lon="11.339632838695811"><ele>584.0</ele><time>2026-04-12T13:08:53.001Z</time></trkpt><trkpt lat="43.53489777478786" lon="11.33947714905593"><ele>584.0</ele><time>2026-04-12T13:08:54.001Z</time></trkpt><trkpt lat="43.53483232576056" lon="11.339324783462363"><ele>584.0</ele><time>2026-04-12T13:08:55.001Z</time></trkpt><trkpt lat="43.53477029863067" lon="11.339172312819175"><ele>584.0</ele><time>2026-04-12T13:08:56.001Z</time></trkpt><trkpt lat="43.53470500525375" lon="11.339028574211289"><ele>584.0</ele><time>2026-04-12T13:08:57.001Z</time></trkpt><trkpt lat="43.53463174108141" lon="11.338891678593207"><ele>583.0</ele><time>2026-04-12T13:08:58.001Z</time></trkpt><trkpt lat="43.53456700459332" lon="11.338762013216474"><ele>582.0</ele><time>2026-04-12T13:08:59.001Z</time></trkpt><trkpt lat="43.534505973450855" lon="11.338639070702945"><ele>581.0</ele><time>2026-04-12T13:09:00.001Z</time></trkpt><trkpt lat="43.5344494497349" lon="11.338514892601971"><ele>580.0</ele><time>2026-04-12T13:09:01.001Z</time></trkpt><trkpt lat="43.534403205388216" lon="11.338401539677138"><ele>579.0</ele><time>2026-04-12T13:09:02.001Z</time></trkpt><trkpt lat="43.53436039095486" lon="11.338303171740693"><ele>575.1666666666666</ele><time>2026-04-12T13:09:03.001Z</time></trkpt><trkpt lat="43.534331424330986" lon="11.338219881583866"><ele>571.3333333333334</ele><time>2026-04-12T13:09:04.001Z</time></trkpt><trkpt lat="43.534301432629675" lon="11.33806794803038"><ele>567.5</ele><time>2026-04-12T13:09:06.001Z</time></trkpt><trkpt lat="43.534318714317195" lon="11.337970976647423"><ele>563.6666666666667</ele><time>2026-04-12T13:09:07.001Z</time></trkpt><trkpt lat="43.534363080408774" lon="11.337877757944854"><ele>559.8333333333334</ele><time>2026-04-12T13:09:08.001Z</time></trkpt><trkpt lat="43.53443920556081" lon="11.337791523018128"><ele>556.0</ele><time>2026-04-12T13:09:09.001Z</time></trkpt><trkpt lat="43.53454994023488" lon="11.337740369415997"><ele>556.75</ele><time>2026-04-12T13:09:10.001Z</time></trkpt><trkpt lat="43.534651874445416" lon="11.337636325855877"><ele>557.5</ele><time>2026-04-12T13:09:11.001Z</time></trkpt><trkpt lat="43.53476237603633" lon="11.337537506351683"><ele>558.25</ele><time>2026-04-12T13:09:12.001Z</time></trkpt><trkpt lat="43.534874597101755" lon="11.337410911321717"><ele>559.0</ele><time>2026-04-12T13:09:13.001Z</time></trkpt><trkpt lat="43.53499274025962" lon="11.337315498300578"><ele>559.0</ele><time>2026-04-12T13:09:14.001Z</time></trkpt><trkpt lat="43.535113453630906" lon="11.337240401939628"><ele>559.0</ele><time>2026-04-12T13:09:15.001Z</time></trkpt><trkpt lat="43.535229509271325" lon="11.337126956622521"><ele>559.0</ele><time>2026-04-12T13:09:16.001Z</time></trkpt><trkpt lat="43.53533375846282" lon="11.337031732267867"><ele>559.0</ele><time>2026-04-12T13:09:17.001Z</time></trkpt><trkpt lat="43.53544540513204" lon="11.336970812609454"><ele>556.2</ele><time>2026-04-12T13:09:18.001Z</time></trkpt><trkpt lat="43.53552936070008" lon="11.336878268852837"><ele>553.4</ele><time>2026-04-12T13:09:19.001Z</time></trkpt><trkpt lat="43.535614936169445" lon="11.336798616475084"><ele>550.6</ele><time>2026-04-12T13:09:20.002Z</time></trkpt><trkpt lat="43.53567950924629" lon="11.33671898766665"><ele>547.8</ele><time>2026-04-12T13:09:21.002Z</time></trkpt><trkpt lat="43.53572482563822" lon="11.336629130441745"><ele>545.0</ele><time>2026-04-12T13:09:22.002Z</time></trkpt><trkpt lat="43.5357444227802" lon="11.336524413494969"><ele>545.0</ele><time>2026-04-12T13:09:23.002Z</time></trkpt><trkpt lat="43.5357457022226" lon="11.336407635659738"><ele>545.0</ele><time>2026-04-12T13:09:24Z</time></trkpt><trkpt lat="43.53574101589259" lon="11.33629418694078"><ele>545.0</ele><time>2026-04-12T13:09:25Z</time></trkpt><trkpt lat="43.53575898769664" lon="11.336186101828057"><ele>545.0</ele><time>2026-04-12T13:09:26Z</time></trkpt><trkpt lat="43.53580633729853" lon="11.3361070787896"><ele>545.0</ele><time>2026-04-12T13:09:27Z</time></trkpt><trkpt lat="43.535875498168075" lon="11.336039165680146"><ele>545.0</ele><time>2026-04-12T13:09:28Z</time></trkpt><trkpt lat="43.535950281659886" lon="11.336020532303413"><ele>541.8</ele><time>2026-04-12T13:09:29Z</time></trkpt><trkpt lat="43.536026440474814" lon="11.336033240441354"><ele>538.6</ele><time>2026-04-12T13:09:30Z</time></trkpt><trkpt lat="43.53611529632444" lon="11.336065392570731"><ele>535.4</ele><time>2026-04-12T13:09:31Z</time></trkpt><trkpt lat="43.53622074088997" lon="11.33610220302157"><ele>532.2</ele><time>2026-04-12T13:09:32Z</time></trkpt><trkpt lat="43.53632507426347" lon="11.336104392496836"><ele>529.0</ele><time>2026-04-12T13:09:33Z</time></trkpt><trkpt lat="43.53643842324996" lon="11.336056089819511"><ele>528.75</ele><time>2026-04-12T13:09:34Z</time></trkpt><trkpt lat="43.53656387811348" lon="11.335989326959123"><ele>528.5</ele><time>2026-04-12T13:09:35Z</time></trkpt><trkpt lat="43.53669327829177" lon="11.33592700657971"><ele>528.25</ele><time>2026-04-12T13:09:36Z</time></trkpt><trkpt lat="43.536811439811245" lon="11.33586492929614"><ele>528.0</ele><time>2026-04-12T13:09:37Z</time></trkpt><trkpt lat="43.5369067508762" lon="11.33580919015437"><ele>528.0</ele><time>2026-04-12T13:09:38Z</time></trkpt><trkpt lat="43.53697911468492" lon="11.33574550269957"><ele>528.0</ele><time>2026-04-12T13:09:39Z</time></trkpt><trkpt lat="43.53704306640034" lon="11.335651367850184"><ele>528.0</ele><time>2026-04-12T13:09:40Z</time></trkpt><trkpt lat="43.53709003483259" lon="11.335533148349528"><ele>528.0</ele><time>2026-04-12T13:09:41Z</time></trkpt><trkpt lat="43.537138126517576" lon="11.335390715703754"><ele>528.0</ele><time>2026-04-12T13:09:42Z</time></trkpt><trkpt lat="43.53718265352386" lon="11.335249188069719"><ele>524.0</ele><time>2026-04-12T13:09:43Z</time></trkpt><trkpt lat="43.53722025967296" lon="11.33509752050483"><ele>520.0</ele><time>2026-04-12T13:09:44Z</time></trkpt><trkpt lat="43.53725874547421" lon="11.33494664419712"><ele>516.0</ele><time>2026-04-12T13:09:45Z</time></trkpt><trkpt lat="43.53876908889776" lon="11.325406160621649"><ele>513.6666666666666</ele><time>2026-04-12T13:10:46.001Z</time></trkpt><trkpt lat="43.53883626959564" lon="11.32521337237077"><ele>511.3333333333333</ele><time>2026-04-12T13:10:47.001Z</time></trkpt><trkpt lat="43.53890545203124" lon="11.325012596870359"><ele>509.0</ele><time>2026-04-12T13:10:48.001Z</time></trkpt><trkpt lat="43.53897604472075" lon="11.324793070657444"><ele>507.66666666666663</ele><time>2026-04-12T13:10:49.001Z</time></trkpt><trkpt lat="43.539054713780324" lon="11.324539904415662"><ele>506.33333333333337</ele><time>2026-04-12T13:10:50.001Z</time></trkpt><trkpt lat="43.539136708345296" lon="11.324311750324668"><ele>505.0</ele><time>2026-04-12T13:10:51.001Z</time></trkpt><trkpt lat="43.53922329641686" lon="11.324147114490236"><ele>505.0</ele><time>2026-04-12T13:10:52.001Z</time></trkpt><trkpt lat="43.5393202610275" lon="11.32396039510458"><ele>505.0</ele><time>2026-04-12T13:10:53.001Z</time></trkpt><trkpt lat="43.53939623305171" lon="11.323758580425823"><ele>505.0</ele><time>2026-04-12T13:10:54.001Z</time></trkpt><trkpt lat="43.53948535851483" lon="11.323569867051981"><ele>504.0</ele><time>2026-04-12T13:10:55.001Z</time></trkpt><trkpt lat="43.53956971599366" lon="11.323391070630016"><ele>503.0</ele><time>2026-04-12T13:10:56.001Z</time></trkpt><trkpt lat="43.53964734533135" lon="11.323237647271908"><ele>502.0</ele><time>2026-04-12T13:10:57.001Z</time></trkpt><trkpt lat="43.53972002599077" lon="11.323109528849436"><ele>501.0</ele><time>2026-04-12T13:10:58.001Z</time></trkpt><trkpt lat="43.539799180238184" lon="11.322994844466962"><ele>503.6</ele><time>2026-04-12T13:10:59.001Z</time></trkpt><trkpt lat="43.53988940238052" lon="11.322891388149833"><ele>506.20000000000005</ele><time>2026-04-12T13:11:00.001Z</time></trkpt><trkpt lat="43.539978019529904" lon="11.322811203935357"><ele>508.79999999999995</ele><time>2026-04-12T13:11:01.001Z</time></trkpt><trkpt lat="43.54005609250307" lon="11.322741746286114"><ele>511.4</ele><time>2026-04-12T13:11:02.001Z</time></trkpt><trkpt lat="43.540124667646204" lon="11.322670409580395"><ele>514.0</ele><time>2026-04-12T13:11:03.001Z</time></trkpt><trkpt lat="43.54018338271952" lon="11.322575561753114"><ele>514.0</ele><time>2026-04-12T13:11:04.001Z</time></trkpt><trkpt lat="43.54022841005556" lon="11.322447941274246"><ele>514.0</ele><time>2026-04-12T13:11:05.001Z</time></trkpt><trkpt lat="43.5402653171248" lon="11.322291421224287"><ele>514.0</ele><time>2026-04-12T13:11:06.001Z</time></trkpt><trkpt lat="43.54030434043937" lon="11.322099788082104"><ele>514.0</ele><time>2026-04-12T13:11:07.001Z</time></trkpt><trkpt lat="43.54036394585104" lon="11.321929439150404"><ele>511.75</ele><time>2026-04-12T13:11:08.001Z</time></trkpt><trkpt lat="43.540436585722695" lon="11.321786643204417"><ele>509.5</ele><time>2026-04-12T13:11:09.001Z</time></trkpt><trkpt lat="43.54049748421889" lon="11.321620975011069"><ele>507.25</ele><time>2026-04-12T13:11:10.001Z</time></trkpt><trkpt lat="43.540583650599345" lon="11.32147693999545"><ele>505.0</ele><time>2026-04-12T13:11:11.001Z</time></trkpt><trkpt lat="43.540658062084404" lon="11.321303108985918"><ele>505.0</ele><time>2026-04-12T13:11:12.001Z</time></trkpt><trkpt lat="43.5407136285462" lon="11.321126886322858"><ele>505.0</ele><time>2026-04-12T13:11:13.001Z</time></trkpt><trkpt lat="43.5407835296303" lon="11.320959351858173"><ele>505.0</ele><time>2026-04-12T13:11:14.001Z</time></trkpt><trkpt lat="43.54084804943991" lon="11.320809016073389"><ele>505.0</ele><time>2026-04-12T13:11:15.001Z</time></trkpt><trkpt lat="43.54091667785165" lon="11.320678636985"><ele>503.75</ele><time>2026-04-12T13:11:16.001Z</time></trkpt><trkpt lat="43.54098016963715" lon="11.320539225955613"><ele>502.5</ele><time>2026-04-12T13:11:17.001Z</time></trkpt><trkpt lat="43.54104535227165" lon="11.320420225604208"><ele>501.25</ele><time>2026-04-12T13:11:18.002Z</time></trkpt><trkpt lat="43.541142713718806" lon="11.320332748562668"><ele>500.0</ele><time>2026-04-12T13:11:19.002Z</time></trkpt><trkpt lat="43.54123686023219" lon="11.320201869368834"><ele>498.75</ele><time>2026-04-12T13:11:20.002Z</time></trkpt><trkpt lat="43.54135236072974" lon="11.320094754780602"><ele>497.5</ele><time>2026-04-12T13:11:21.002Z</time></trkpt><trkpt lat="43.541467248386255" lon="11.31998105817092"><ele>496.25</ele><time>2026-04-12T13:11:22.002Z</time></trkpt><trkpt lat="43.541586114236594" lon="11.319856111761975"><ele>495.0</ele><time>2026-04-12T13:11:23.002Z</time></trkpt><trkpt lat="43.541705021712026" lon="11.319730260874357"><ele>494.5</ele><time>2026-04-12T13:11:24.002Z</time></trkpt><trkpt lat="43.541830440995255" lon="11.319606745005588"><ele>494.0</ele><time>2026-04-12T13:11:25.002Z</time></trkpt><trkpt lat="43.541943117526024" lon="11.319507640345718"><ele>493.5</ele><time>2026-04-12T13:11:26.002Z</time></trkpt><trkpt lat="43.54204765969577" lon="11.31938063694058"><ele>493.0</ele><time>2026-04-12T13:11:27.002Z</time></trkpt><trkpt lat="43.54215089749535" lon="11.319269060779236"><ele>492.4</ele><time>2026-04-12T13:11:28.002Z</time></trkpt><trkpt lat="43.542249312605136" lon="11.31915923827007"><ele>491.79999999999995</ele><time>2026-04-12T13:11:29.002Z</time></trkpt><trkpt lat="43.54233918179206" lon="11.319062689769686"><ele>491.2</ele><time>2026-04-12T13:11:30Z</time></trkpt><trkpt lat="43.54242115669208" lon="11.318981695685375"><ele>490.6</ele><time>2026-04-12T13:11:31Z</time></trkpt><trkpt lat="43.54250495415158" lon="11.31889748075034"><ele>490.0</ele><time>2026-04-12T13:11:32Z</time></trkpt><trkpt lat="43.54259264277122" lon="11.318805472947503"><ele>489.5</ele><time>2026-04-12T13:11:33Z</time></trkpt><trkpt lat="43.54267960912499" lon="11.318708833006948"><ele>489.0</ele><time>2026-04-12T13:11:34Z</time></trkpt><trkpt lat="43.542769145205895" lon="11.31861365989671"><ele>488.5</ele><time>2026-04-12T13:11:35Z</time></trkpt><trkpt lat="43.54286621822749" lon="11.318528434369162"><ele>488.0</ele><time>2026-04-12T13:11:36Z</time></trkpt><trkpt lat="43.54296179423367" lon="11.318425642682401"><ele>488.0</ele><time>2026-04-12T13:11:37Z</time></trkpt><trkpt lat="43.54304829027529" lon="11.318313450386169"><ele>487.99999999999994</ele><time>2026-04-12T13:11:38Z</time></trkpt><trkpt lat="43.54311864011769" lon="11.318199650544932"><ele>487.99999999999994</ele><time>2026-04-12T13:11:39Z</time></trkpt><trkpt lat="43.54316816717171" lon="11.31807323803975"><ele>488.0</ele><time>2026-04-12T13:11:40Z</time></trkpt><trkpt lat="43.54322254501027" lon="11.317977379345754"><ele>488.0</ele><time>2026-04-12T13:11:41Z</time></trkpt><trkpt lat="43.543264390221154" lon="11.317901228521436"><ele>488.66666666666663</ele><time>2026-04-12T13:11:42Z</time></trkpt><trkpt lat="43.54327640036887" lon="11.3177815616548"><ele>489.33333333333337</ele><time>2026-04-12T13:11:44Z</time></trkpt><trkpt lat="43.54320778723085" lon="11.317729431634417"><ele>490.0</ele><time>2026-04-12T13:11:45Z</time></trkpt><trkpt lat="43.54077554762639" lon="11.315803855749191"><ele>479.8</ele><time>2026-04-12T13:12:46.001Z</time></trkpt><trkpt lat="43.540889926292685" lon="11.315748480194777"><ele>469.6</ele><time>2026-04-12T13:12:47.001Z</time></trkpt><trkpt lat="43.5410017134224" lon="11.315699249383103"><ele>459.4</ele><time>2026-04-12T13:12:48.001Z</time></trkpt><trkpt lat="43.54111006604511" lon="11.31569091584281"><ele>449.2</ele><time>2026-04-12T13:12:49.001Z</time></trkpt><trkpt lat="43.54120758735384" lon="11.315694461351256"><ele>439.0</ele><time>2026-04-12T13:12:50.001Z</time></trkpt><trkpt lat="43.54130544789593" lon="11.315714204471051"><ele>439.00000000000006</ele><time>2026-04-12T13:12:51.001Z</time></trkpt><trkpt lat="43.541405291540386" lon="11.315745952878022"><ele>439.0</ele><time>2026-04-12T13:12:52.001Z</time></trkpt><trkpt lat="43.5414949661429" lon="11.315783100523667"><ele>439.0</ele><time>2026-04-12T13:12:53.001Z</time></trkpt><trkpt lat="43.54157555777102" lon="11.315814237389727"><ele>439.0</ele><time>2026-04-12T13:12:54.001Z</time></trkpt><trkpt lat="43.541648612907494" lon="11.31582908690591"><ele>439.00000000000006</ele><time>2026-04-12T13:12:55.001Z</time></trkpt><trkpt lat="43.54172517137322" lon="11.315836887342961"><ele>439.0</ele><time>2026-04-12T13:12:56.001Z</time></trkpt><trkpt lat="43.5418151561311" lon="11.315830623594438"><ele>439.0</ele><time>2026-04-12T13:12:57.001Z</time></trkpt><trkpt lat="43.54191294339714" lon="11.315802031856775"><ele>439.0</ele><time>2026-04-12T13:12:58.001Z</time></trkpt><trkpt lat="43.542013223669365" lon="11.315760093964697"><ele>439.0</ele><time>2026-04-12T13:12:59.001Z</time></trkpt><trkpt lat="43.54211611558519" lon="11.315706060214238"><ele>439.0</ele><time>2026-04-12T13:13:00.001Z</time></trkpt><trkpt lat="43.542212543571594" lon="11.315665372980469"><ele>439.0</ele><time>2026-04-12T13:13:01.001Z</time></trkpt><trkpt lat="43.542308364895035" lon="11.315623244966874"><ele>438.2</ele><time>2026-04-12T13:13:02.001Z</time></trkpt><trkpt lat="43.54240034037726" lon="11.3155828321643"><ele>437.4</ele><time>2026-04-12T13:13:03.001Z</time></trkpt><trkpt lat="43.542493984637424" lon="11.315536009406882"><ele>436.6</ele><time>2026-04-12T13:13:04.001Z</time></trkpt><trkpt lat="43.54258982298697" lon="11.315495792712857"><ele>435.8</ele><time>2026-04-12T13:13:05.001Z</time></trkpt><trkpt lat="43.54268659665292" lon="11.31545355722864"><ele>435.0</ele><time>2026-04-12T13:13:06.001Z</time></trkpt><trkpt lat="43.542784025150155" lon="11.315407156884863"><ele>435.0</ele><time>2026-04-12T13:13:07.001Z</time></trkpt><trkpt lat="43.54288004931579" lon="11.315359648186485"><ele>435.0</ele><time>2026-04-12T13:13:08.001Z</time></trkpt><trkpt lat="43.54297622216798" lon="11.31531303860332"><ele>435.0</ele><time>2026-04-12T13:13:09.001Z</time></trkpt><trkpt lat="43.543071721744234" lon="11.31526519675327"><ele>435.0</ele><time>2026-04-12T13:13:10.001Z</time></trkpt><trkpt lat="43.54316706973157" lon="11.315212205935474"><ele>435.0</ele><time>2026-04-12T13:13:11.001Z</time></trkpt><trkpt lat="43.54326055176259" lon="11.315154705577973"><ele>437.8</ele><time>2026-04-12T13:13:12.001Z</time></trkpt><trkpt lat="43.543355327507" lon="11.31508780692242"><ele>440.6</ele><time>2026-04-12T13:13:13.001Z</time></trkpt><trkpt lat="43.543451065541866" lon="11.315014213047531"><ele>443.4</ele><time>2026-04-12T13:13:14.001Z</time></trkpt><trkpt lat="43.543545155117464" lon="11.31492979476427"><ele>446.2</ele><time>2026-04-12T13:13:15.001Z</time></trkpt><trkpt lat="43.54363142740782" lon="11.314841261567118"><ele>449.0</ele><time>2026-04-12T13:13:16.001Z</time></trkpt><trkpt lat="43.54370559009813" lon="11.314762585914623"><ele>449.99999999999994</ele><time>2026-04-12T13:13:17.001Z</time></trkpt><trkpt lat="43.54377594082659" lon="11.31469159249867"><ele>451.0</ele><time>2026-04-12T13:13:18.001Z</time></trkpt><trkpt lat="43.5438493421214" lon="11.314600103452191"><ele>452.0</ele><time>2026-04-12T13:13:19.001Z</time></trkpt><trkpt lat="43.54390528719506" lon="11.314493201099491"><ele>453.0</ele><time>2026-04-12T13:13:20.001Z</time></trkpt><trkpt lat="43.54394383442091" lon="11.31439004868088"><ele>453.99999999999994</ele><time>2026-04-12T13:13:21.001Z</time></trkpt><trkpt lat="43.54397348073948" lon="11.31428561513538"><ele>455.0</ele><time>2026-04-12T13:13:22.001Z</time></trkpt><trkpt lat="43.543992191446996" lon="11.314185980535553"><ele>454.99999999999994</ele><time>2026-04-12T13:13:23.001Z</time></trkpt><trkpt lat="43.54400121026631" lon="11.314097069428563"><ele>455.0</ele><time>2026-04-12T13:13:24.001Z</time></trkpt><trkpt lat="43.54399739517058" lon="11.314006057857487"><ele>455.0</ele><time>2026-04-12T13:13:25.001Z</time></trkpt><trkpt lat="43.54398050435591" lon="11.313904852849033"><ele>455.0</ele><time>2026-04-12T13:13:26.001Z</time></trkpt><trkpt lat="43.54395497765896" lon="11.313804863713248"><ele>454.99999999999994</ele><time>2026-04-12T13:13:27.002Z</time></trkpt><trkpt lat="43.543922329691206" lon="11.31369489544237"><ele>455.0</ele><time>2026-04-12T13:13:28.002Z</time></trkpt><trkpt lat="43.54388499550183" lon="11.313580859837282"><ele>454.66666666666663</ele><time>2026-04-12T13:13:29.002Z</time></trkpt><trkpt lat="43.54385176038299" lon="11.31347270752053"><ele>454.3333333333333</ele><time>2026-04-12T13:13:30.002Z</time></trkpt><trkpt lat="43.54382268108485" lon="11.31337035498771"><ele>454.0</ele><time>2026-04-12T13:13:31.002Z</time></trkpt><trkpt lat="43.54380085195331" lon="11.313284170264554"><ele>453.66666666666663</ele><time>2026-04-12T13:13:32.002Z</time></trkpt><trkpt lat="43.54378184925424" lon="11.31312046177073"><ele>453.3333333333333</ele><time>2026-04-12T13:13:34.002Z</time></trkpt><trkpt lat="43.54380289639854" lon="11.313032933435363"><ele>453.0</ele><time>2026-04-12T13:13:35.002Z</time></trkpt><trkpt lat="43.54384886788446" lon="11.312947106548616"><ele>452.0</ele><time>2026-04-12T13:13:36Z</time></trkpt><trkpt lat="43.54391571109167" lon="11.312864316413918"><ele>450.99999999999994</ele><time>2026-04-12T13:13:37Z</time></trkpt><trkpt lat="43.54399398147474" lon="11.31278332746755"><ele>449.99999999999994</ele><time>2026-04-12T13:13:38Z</time></trkpt><trkpt lat="43.54407230984165" lon="11.312707044451823"><ele>449.0</ele><time>2026-04-12T13:13:39Z</time></trkpt><trkpt lat="43.54415635761665" lon="11.312626604441283"><ele>448.0</ele><time>2026-04-12T13:13:40Z</time></trkpt><trkpt lat="43.544243069929784" lon="11.312539599983257"><ele>448.0</ele><time>2026-04-12T13:13:41Z</time></trkpt><trkpt lat="43.54432848665926" lon="11.31245433681581"><ele>447.99999999999994</ele><time>2026-04-12T13:13:42Z</time></trkpt><trkpt lat="43.54441101535148" lon="11.312373373365277"><ele>447.99999999999994</ele><time>2026-04-12T13:13:43Z</time></trkpt><trkpt lat="43.544496977094354" lon="11.312286815507461"><ele>448.0</ele><time>2026-04-12T13:13:44Z</time></trkpt><trkpt lat="43.54458189969105" lon="11.312201867052364"><ele>448.0</ele><time>2026-04-12T13:13:45Z</time></trkpt><trkpt lat="43.547278713499324" lon="11.306579570495254"><ele>450.4</ele><time>2026-04-12T13:14:46.001Z</time></trkpt><trkpt lat="43.54735402665927" lon="11.306520980260348"><ele>452.79999999999995</ele><time>2026-04-12T13:14:47.001Z</time></trkpt><trkpt lat="43.54744362802035" lon="11.30648337276646"><ele>455.2</ele><time>2026-04-12T13:14:48.001Z</time></trkpt><trkpt lat="43.54753046878068" lon="11.306443057203484"><ele>457.6</ele><time>2026-04-12T13:14:49.001Z</time></trkpt><trkpt lat="43.54762352308646" lon="11.30641748028932"><ele>460.0</ele><time>2026-04-12T13:14:50.001Z</time></trkpt><trkpt lat="43.54771394174714" lon="11.306380423158144"><ele>460.00000000000006</ele><time>2026-04-12T13:14:51.001Z</time></trkpt><trkpt lat="43.547802763415945" lon="11.306381908275903"><ele>460.0</ele><time>2026-04-12T13:14:52.001Z</time></trkpt><trkpt lat="43.54787539770107" lon="11.30642730239783"><ele>460.0</ele><time>2026-04-12T13:14:53.001Z</time></trkpt><trkpt lat="43.54793782097541" lon="11.306474621868832"><ele>460.0</ele><time>2026-04-12T13:14:54.001Z</time></trkpt><trkpt lat="43.548002396727675" lon="11.306497819742564"><ele>460.00000000000006</ele><time>2026-04-12T13:14:55.001Z</time></trkpt><trkpt lat="43.54809751096995" lon="11.306580850032566"><ele>460.0</ele><time>2026-04-12T13:14:57.001Z</time></trkpt><trkpt lat="43.54821057743132" lon="11.30663429608886"><ele>461.83333333333337</ele><time>2026-04-12T13:14:59.001Z</time></trkpt><trkpt lat="43.548274927410255" lon="11.306635650316363"><ele>463.6666666666667</ele><time>2026-04-12T13:15:00.001Z</time></trkpt><trkpt lat="43.54834146063162" lon="11.306616210595276"><ele>465.5</ele><time>2026-04-12T13:15:01.001Z</time></trkpt><trkpt lat="43.54840456640081" lon="11.306565833780127"><ele>467.33333333333337</ele><time>2026-04-12T13:15:02.001Z</time></trkpt><trkpt lat="43.54845792955094" lon="11.30650059240161"><ele>469.1666666666667</ele><time>2026-04-12T13:15:03.001Z</time></trkpt><trkpt lat="43.54853225344006" lon="11.30637469998827"><ele>471.0</ele><time>2026-04-12T13:15:05.001Z</time></trkpt><trkpt lat="43.548615138908154" lon="11.306293138068185"><ele>471.0</ele><time>2026-04-12T13:15:07.001Z</time></trkpt><trkpt lat="43.54855983600751" lon="11.30615221096469"><ele>471.0</ele><time>2026-04-12T13:15:08.001Z</time></trkpt><trkpt lat="43.54852358534063" lon="11.306065609069577"><ele>471.0</ele><time>2026-04-12T13:15:09.001Z</time></trkpt><trkpt lat="43.54848059787616" lon="11.305933364517404"><ele>471.0</ele><time>2026-04-12T13:15:10.001Z</time></trkpt><trkpt lat="43.54845537811248" lon="11.305795483293414"><ele>471.0</ele><time>2026-04-12T13:15:11.001Z</time></trkpt><trkpt lat="43.548387438372366" lon="11.305637994296886"><ele>471.5</ele><time>2026-04-12T13:15:12.001Z</time></trkpt><trkpt lat="43.54832461476365" lon="11.305483724464557"><ele>472.0</ele><time>2026-04-12T13:15:13.001Z</time></trkpt><trkpt lat="43.548252032527714" lon="11.305319581571975"><ele>472.5</ele><time>2026-04-12T13:15:14.001Z</time></trkpt><trkpt lat="43.54818964269327" lon="11.305147131458048"><ele>473.0</ele><time>2026-04-12T13:15:15.001Z</time></trkpt><trkpt lat="43.54812891077353" lon="11.304984266844397"><ele>473.0</ele><time>2026-04-12T13:15:16.001Z</time></trkpt><trkpt lat="43.548091267509875" lon="11.304814973502266"><ele>473.0</ele><time>2026-04-12T13:15:17.001Z</time></trkpt><trkpt lat="43.54803195885812" lon="11.304665913297757"><ele>473.0</ele><time>2026-04-12T13:15:18.001Z</time></trkpt><trkpt lat="43.548010922241694" lon="11.304507712245542"><ele>473.0</ele><time>2026-04-12T13:15:19.001Z</time></trkpt><trkpt lat="43.54796495586939" lon="11.304347418053169"><ele>473.25</ele><time>2026-04-12T13:15:20.001Z</time></trkpt><trkpt lat="43.547951099937876" lon="11.304174296533633"><ele>473.5</ele><time>2026-04-12T13:15:21.001Z</time></trkpt><trkpt lat="43.54794876273568" lon="11.30401797574619"><ele>473.75</ele><time>2026-04-12T13:15:22.001Z</time></trkpt><trkpt lat="43.54795722858875" lon="11.303865483123726"><ele>474.0</ele><time>2026-04-12T13:15:23.001Z</time></trkpt><trkpt lat="43.547967687996156" lon="11.303713123729885"><ele>473.6</ele><time>2026-04-12T13:15:24.001Z</time></trkpt><trkpt lat="43.54798612075967" lon="11.303560308846762"><ele>473.2</ele><time>2026-04-12T13:15:25.001Z</time></trkpt><trkpt lat="43.54801252069564" lon="11.303422736731632"><ele>472.80000000000007</ele><time>2026-04-12T13:15:26.001Z</time></trkpt><trkpt lat="43.54805698546598" lon="11.303291380010522"><ele>472.40000000000003</ele><time>2026-04-12T13:15:27.001Z</time></trkpt><trkpt lat="43.548095864794426" lon="11.303152444241375"><ele>472.0</ele><time>2026-04-12T13:15:28.001Z</time></trkpt><trkpt lat="43.54815213670111" lon="11.30299529038653"><ele>469.75</ele><time>2026-04-12T13:15:29.001Z</time></trkpt><trkpt lat="43.54821913218746" lon="11.302834608403913"><ele>467.5</ele><time>2026-04-12T13:15:30.001Z</time></trkpt><trkpt lat="43.548287337936124" lon="11.302676444048911"><ele>465.25</ele><time>2026-04-12T13:15:31.001Z</time></trkpt><trkpt lat="43.54835340687421" lon="11.302512182140168"><ele>463.0</ele><time>2026-04-12T13:15:32.001Z</time></trkpt><trkpt lat="43.548438715929386" lon="11.302351920396521"><ele>461.5</ele><time>2026-04-12T13:15:33.001Z</time></trkpt><trkpt lat="43.54851799785012" lon="11.30220525743512"><ele>460.0</ele><time>2026-04-12T13:15:34.001Z</time></trkpt><trkpt lat="43.54860103354765" lon="11.302072438537872"><ele>458.5</ele><time>2026-04-12T13:15:35.001Z</time></trkpt><trkpt lat="43.54863157104754" lon="11.301931629126821"><ele>457.0</ele><time>2026-04-12T13:15:36.001Z</time></trkpt><trkpt lat="43.548659550788344" lon="11.301791764994888"><ele>457.0</ele><time>2026-04-12T13:15:37.001Z</time></trkpt><trkpt lat="43.548697273554154" lon="11.301666412856031"><ele>457.00000000000006</ele><time>2026-04-12T13:15:38.001Z</time></trkpt><trkpt lat="43.548698925086455" lon="11.301545689422163"><ele>457.00000000000006</ele><time>2026-04-12T13:15:39.001Z</time></trkpt><trkpt lat="43.54875892524375" lon="11.301449382989334"><ele>457.0</ele><time>2026-04-12T13:15:40.001Z</time></trkpt><trkpt lat="43.548814382539426" lon="11.301324152867007"><ele>457.0</ele><time>2026-04-12T13:15:41.001Z</time></trkpt><trkpt lat="43.54887910992803" lon="11.30118329970337"><ele>457.5</ele><time>2026-04-12T13:15:42Z</time></trkpt><trkpt lat="43.548951219687616" lon="11.301029242557927"><ele>458.0</ele><time>2026-04-12T13:15:43Z</time></trkpt><trkpt lat="43.549022466047866" lon="11.300854844962425"><ele>458.5</ele><time>2026-04-12T13:15:44Z</time></trkpt><trkpt lat="43.54911289394823" lon="11.300685639730236"><ele>459.0</ele><time>2026-04-12T13:15:45Z</time></trkpt><trkpt lat="43.553754906893914" lon="11.294203483620867"><ele>452.2</ele><time>2026-04-12T13:16:46.001Z</time></trkpt><trkpt lat="43.55382573545909" lon="11.294087134633493"><ele>445.4</ele><time>2026-04-12T13:16:47.001Z</time></trkpt><trkpt lat="43.55388835324551" lon="11.293976250833843"><ele>438.6</ele><time>2026-04-12T13:16:48.001Z</time></trkpt><trkpt lat="43.55393835867171" lon="11.293859236422543"><ele>431.8</ele><time>2026-04-12T13:16:49.001Z</time></trkpt><trkpt lat="43.553968754497006" lon="11.293737743774996"><ele>425.0</ele><time>2026-04-12T13:16:50.001Z</time></trkpt><trkpt lat="43.55400049212528" lon="11.293631980689078"><ele>424.49999999999994</ele><time>2026-04-12T13:16:51.001Z</time></trkpt><trkpt lat="43.55403775355485" lon="11.293510412486809"><ele>424.0</ele><time>2026-04-12T13:16:53.001Z</time></trkpt><trkpt lat="43.55410459305032" lon="11.29344698796757"><ele>423.5</ele><time>2026-04-12T13:17:39.001Z</time></trkpt><trkpt lat="43.55416291424799" lon="11.293405121673668"><ele>423.0</ele><time>2026-04-12T13:17:40.001Z</time></trkpt><trkpt lat="43.5542257825679" lon="11.293351119199922"><ele>422.49999999999994</ele><time>2026-04-12T13:17:41.001Z</time></trkpt><trkpt lat="43.55429411833855" lon="11.293286110334135"><ele>422.0</ele><time>2026-04-12T13:17:42.001Z</time></trkpt><trkpt lat="43.554364140697594" lon="11.293217166928777"><ele>422.0</ele><time>2026-04-12T13:17:43.001Z</time></trkpt><trkpt lat="43.55442673202488" lon="11.293151802219535"><ele>422.0</ele><time>2026-04-12T13:17:44.001Z</time></trkpt><trkpt lat="43.55449052788278" lon="11.293106273160639"><ele>422.0</ele><time>2026-04-12T13:17:45.001Z</time></trkpt><trkpt lat="43.5575807446557" lon="11.295201411922879"><ele>429.3333333333333</ele><time>2026-04-12T13:18:46Z</time></trkpt><trkpt lat="43.55754741795509" lon="11.295275113981248"><ele>436.66666666666663</ele><time>2026-04-12T13:18:48Z</time></trkpt><trkpt lat="43.55746877217465" lon="11.29539599049869"><ele>444.0</ele><time>2026-04-12T13:18:50Z</time></trkpt><trkpt lat="43.557427207122934" lon="11.295464962129193"><ele>451.33333333333337</ele><time>2026-04-12T13:18:51Z</time></trkpt><trkpt lat="43.557378263630355" lon="11.295542331851632"><ele>458.6666666666667</ele><time>2026-04-12T13:18:52Z</time></trkpt><trkpt lat="43.55733688853782" lon="11.295635026199195"><ele>466.0</ele><time>2026-04-12T13:18:53Z</time></trkpt><trkpt lat="43.55729653738496" lon="11.29574360109482"><ele>468.50000000000006</ele><time>2026-04-12T13:18:54Z</time></trkpt><trkpt lat="43.557257328469206" lon="11.295845309588056"><ele>471.0</ele><time>2026-04-12T13:18:55Z</time></trkpt><trkpt lat="43.55722639955056" lon="11.295958429214897"><ele>473.5</ele><time>2026-04-12T13:18:56Z</time></trkpt><trkpt lat="43.55719947041172" lon="11.296052608946045"><ele>476.0</ele><time>2026-04-12T13:18:57Z</time></trkpt><trkpt lat="43.55715885340214" lon="11.29614200838314"><ele>478.50000000000006</ele><time>2026-04-12T13:18:58Z</time></trkpt><trkpt lat="43.55711037177879" lon="11.296230184199588"><ele>481.0</ele><time>2026-04-12T13:18:59Z</time></trkpt><trkpt lat="43.55704826218931" lon="11.296310293511437"><ele>481.83333333333337</ele><time>2026-04-12T13:19:00Z</time></trkpt><trkpt lat="43.55697838295472" lon="11.296381811190674"><ele>482.6666666666667</ele><time>2026-04-12T13:19:01Z</time></trkpt><trkpt lat="43.55690317890466" lon="11.29644008007039"><ele>483.5</ele><time>2026-04-12T13:19:02Z</time></trkpt><trkpt lat="43.556829248820094" lon="11.296489670799872"><ele>484.33333333333337</ele><time>2026-04-12T13:19:03Z</time></trkpt><trkpt lat="43.55676462499704" lon="11.296548193698971"><ele>485.1666666666667</ele><time>2026-04-12T13:19:04Z</time></trkpt><trkpt lat="43.55670265137784" lon="11.29660491901555"><ele>486.0</ele><time>2026-04-12T13:19:05Z</time></trkpt><trkpt lat="43.556651184900424" lon="11.296688620006073"><ele>486.0</ele><time>2026-04-12T13:19:06.001Z</time></trkpt><trkpt lat="43.55660903048989" lon="11.296785782129522"><ele>486.0</ele><time>2026-04-12T13:19:07.001Z</time></trkpt><trkpt lat="43.5565646018158" lon="11.296895425308438"><ele>486.0</ele><time>2026-04-12T13:19:08.001Z</time></trkpt><trkpt lat="43.55652735029662" lon="11.296998741284819"><ele>486.0</ele><time>2026-04-12T13:19:09.001Z</time></trkpt><trkpt lat="43.5564966370367" lon="11.297110009920942"><ele>486.0</ele><time>2026-04-12T13:19:10.001Z</time></trkpt><trkpt lat="43.556472971774056" lon="11.29723275090605"><ele>486.0</ele><time>2026-04-12T13:19:11.001Z</time></trkpt><trkpt lat="43.55646827376777" lon="11.297347375282094"><ele>487.0</ele><time>2026-04-12T13:19:12.001Z</time></trkpt><trkpt lat="43.55646881345095" lon="11.297491994700561"><ele>488.0</ele><time>2026-04-12T13:19:14.001Z</time></trkpt><trkpt lat="43.55643923286401" lon="11.29757430906571"><ele>489.0</ele><time>2026-04-12T13:19:16.001Z</time></trkpt><trkpt lat="43.55647232016365" lon="11.297668552606742"><ele>490.0</ele><time>2026-04-12T13:19:21.001Z</time></trkpt><trkpt lat="43.55654073350707" lon="11.297649843598967"><ele>491.0</ele><time>2026-04-12T13:19:23.001Z</time></trkpt><trkpt lat="43.5565995037307" lon="11.297610712181866"><ele>492.0</ele><time>2026-04-12T13:19:24.001Z</time></trkpt><trkpt lat="43.55666258979531" lon="11.29757919040585"><ele>493.0</ele><time>2026-04-12T13:19:25.001Z</time></trkpt><trkpt lat="43.55673788374549" lon="11.297544979170205"><ele>493.00000000000006</ele><time>2026-04-12T13:19:26.001Z</time></trkpt><trkpt lat="43.556814495355056" lon="11.297519668618882"><ele>493.0</ele><time>2026-04-12T13:19:27.001Z</time></trkpt><trkpt lat="43.55689581738056" lon="11.297490899735267"><ele>493.0</ele><time>2026-04-12T13:19:28.001Z</time></trkpt><trkpt lat="43.55698140089673" lon="11.297462779443553"><ele>493.0</ele><time>2026-04-12T13:19:29.001Z</time></trkpt><trkpt lat="43.55706870920077" lon="11.29743606079222"><ele>493.00000000000006</ele><time>2026-04-12T13:19:30.001Z</time></trkpt><trkpt lat="43.55716258165754" lon="11.297416233985526"><ele>493.0</ele><time>2026-04-12T13:19:31.001Z</time></trkpt><trkpt lat="43.55726219055856" lon="11.297407343744137"><ele>494.2</ele><time>2026-04-12T13:19:32.001Z</time></trkpt><trkpt lat="43.557362881720074" lon="11.297417588055614"><ele>495.4</ele><time>2026-04-12T13:19:33.001Z</time></trkpt><trkpt lat="43.55746492228409" lon="11.297436587931877"><ele>496.59999999999997</ele><time>2026-04-12T13:19:34.001Z</time></trkpt><trkpt lat="43.55757268568896" lon="11.297455701093984"><ele>497.79999999999995</ele><time>2026-04-12T13:19:35.001Z</time></trkpt><trkpt lat="43.55767103205836" lon="11.29745585655418"><ele>499.0</ele><time>2026-04-12T13:19:36.001Z</time></trkpt><trkpt lat="43.55776171010298" lon="11.29742189346338"><ele>499.0</ele><time>2026-04-12T13:19:37.001Z</time></trkpt><trkpt lat="43.55785560442444" lon="11.29736240599522"><ele>499.0</ele><time>2026-04-12T13:19:38.001Z</time></trkpt><trkpt lat="43.55795403958985" lon="11.297287205100154"><ele>499.0</ele><time>2026-04-12T13:19:39.001Z</time></trkpt><trkpt lat="43.558060540715395" lon="11.297217872844564"><ele>499.0</ele><time>2026-04-12T13:19:40.001Z</time></trkpt><trkpt lat="43.55817262871352" lon="11.297151446864708"><ele>499.75</ele><time>2026-04-12T13:19:41.001Z</time></trkpt><trkpt lat="43.558295561386224" lon="11.297088360531875"><ele>500.5</ele><time>2026-04-12T13:19:42.001Z</time></trkpt><trkpt lat="43.55842953577487" lon="11.297035442870035"><ele>501.25</ele><time>2026-04-12T13:19:43.001Z</time></trkpt><trkpt lat="43.55857472101037" lon="11.297002824548196"><ele>502.0</ele><time>2026-04-12T13:19:44.001Z</time></trkpt><trkpt lat="43.55872663431569" lon="11.296980102346172"><ele>454.0</ele><time>2026-04-12T13:19:45.001Z</time></trkpt><trkpt lat="43.56487776696502" lon="11.290634613681094"><ele>454.75</ele><time>2026-04-12T13:20:46Z</time></trkpt><trkpt lat="43.564991392595" lon="11.290517469143692"><ele>455.5</ele><time>2026-04-12T13:20:47Z</time></trkpt><trkpt lat="43.5650878152447" lon="11.290394079070484"><ele>456.25</ele><time>2026-04-12T13:20:48Z</time></trkpt><trkpt lat="43.56517373831701" lon="11.290288690957734"><ele>457.0</ele><time>2026-04-12T13:20:49Z</time></trkpt><trkpt lat="43.56524482072704" lon="11.290187616259269"><ele>457.00000000000006</ele><time>2026-04-12T13:20:50Z</time></trkpt><trkpt lat="43.565300085710284" lon="11.290106041678873"><ele>457.0</ele><time>2026-04-12T13:20:51Z</time></trkpt><trkpt lat="43.56536157200871" lon="11.290049669659043"><ele>457.0</ele><time>2026-04-12T13:20:52Z</time></trkpt><trkpt lat="43.56543520992566" lon="11.290016760988829"><ele>457.0</ele><time>2026-04-12T13:20:53Z</time></trkpt><trkpt lat="43.56553329669581" lon="11.290012218081786"><ele>457.00000000000006</ele><time>2026-04-12T13:20:54Z</time></trkpt><trkpt lat="43.56564107571771" lon="11.290022772423967"><ele>457.0</ele><time>2026-04-12T13:20:55Z</time></trkpt><trkpt lat="43.56573318591228" lon="11.290046874501437"><ele>457.20000000000005</ele><time>2026-04-12T13:20:56Z</time></trkpt><trkpt lat="43.56582625927025" lon="11.290104659518938"><ele>457.40000000000003</ele><time>2026-04-12T13:20:57Z</time></trkpt><trkpt lat="43.56592018915735" lon="11.290181659337922"><ele>457.59999999999997</ele><time>2026-04-12T13:20:58Z</time></trkpt><trkpt lat="43.566003602557785" lon="11.290257045138638"><ele>457.79999999999995</ele><time>2026-04-12T13:20:59Z</time></trkpt><trkpt lat="43.5660847696395" lon="11.29029394257421"><ele>458.0</ele><time>2026-04-12T13:21:00Z</time></trkpt><trkpt lat="43.56616232415083" lon="11.29027561734234"><ele>457.2</ele><time>2026-04-12T13:21:01Z</time></trkpt><trkpt lat="43.56623990072718" lon="11.290209310977461"><ele>456.4</ele><time>2026-04-12T13:21:02Z</time></trkpt><trkpt lat="43.56633389408737" lon="11.290185439405256"><ele>455.59999999999997</ele><time>2026-04-12T13:21:03Z</time></trkpt><trkpt lat="43.566440748716985" lon="11.290119585005849"><ele>454.79999999999995</ele><time>2026-04-12T13:21:04Z</time></trkpt><trkpt lat="43.56656040305228" lon="11.29008083924021"><ele>454.0</ele><time>2026-04-12T13:21:05Z</time></trkpt><trkpt lat="43.56668520004269" lon="11.290049078777175"><ele>454.0</ele><time>2026-04-12T13:21:06Z</time></trkpt><trkpt lat="43.566804195283716" lon="11.290035664037124"><ele>454.0</ele><time>2026-04-12T13:21:07Z</time></trkpt><trkpt lat="43.56692176794193" lon="11.290043939338448"><ele>454.0</ele><time>2026-04-12T13:21:08Z</time></trkpt><trkpt lat="43.56702947735761" lon="11.290042132153896"><ele>454.0</ele><time>2026-04-12T13:21:09Z</time></trkpt><trkpt lat="43.56713761522279" lon="11.29001476697291"><ele>453.5</ele><time>2026-04-12T13:21:10Z</time></trkpt><trkpt lat="43.56723874659322" lon="11.289947298128768"><ele>453.0</ele><time>2026-04-12T13:21:11Z</time></trkpt><trkpt lat="43.56731864602819" lon="11.289834292966257"><ele>452.5</ele><time>2026-04-12T13:21:12Z</time></trkpt><trkpt lat="43.567386923650595" lon="11.289684612639437"><ele>452.0</ele><time>2026-04-12T13:21:13Z</time></trkpt><trkpt lat="43.56745989694296" lon="11.289530535550922"><ele>452.0</ele><time>2026-04-12T13:21:14.001Z</time></trkpt><trkpt lat="43.567553177594995" lon="11.289387782126724"><ele>452.0</ele><time>2026-04-12T13:21:15.001Z</time></trkpt><trkpt lat="43.56765178766128" lon="11.289252339097601"><ele>452.0</ele><time>2026-04-12T13:21:16.001Z</time></trkpt><trkpt lat="43.56774994427721" lon="11.289110329393603"><ele>452.0</ele><time>2026-04-12T13:21:17.001Z</time></trkpt><trkpt lat="43.56783285329668" lon="11.288942354793514"><ele>452.0</ele><time>2026-04-12T13:21:18.001Z</time></trkpt><trkpt lat="43.56790250148066" lon="11.288753291731581"><ele>452.0</ele><time>2026-04-12T13:21:19.001Z</time></trkpt><trkpt lat="43.56796630872854" lon="11.288554423742141"><ele>452.0</ele><time>2026-04-12T13:21:20.001Z</time></trkpt><trkpt lat="43.5680278441401" lon="11.288360474614736"><ele>452.0</ele><time>2026-04-12T13:21:21.001Z</time></trkpt><trkpt lat="43.56810140413854" lon="11.288208733588407"><ele>452.0</ele><time>2026-04-12T13:21:22.001Z</time></trkpt><trkpt lat="43.5681837772977" lon="11.288051245515716"><ele>452.0</ele><time>2026-04-12T13:21:23.001Z</time></trkpt><trkpt lat="43.56828183108638" lon="11.28789335593662"><ele>452.0</ele><time>2026-04-12T13:21:24.001Z</time></trkpt><trkpt lat="43.56836921932116" lon="11.287704553137274"><ele>448.3333333333333</ele><time>2026-04-12T13:21:25.001Z</time></trkpt><trkpt lat="43.5684652034245" lon="11.287512613284465"><ele>444.66666666666663</ele><time>2026-04-12T13:21:26.001Z</time></trkpt><trkpt lat="43.56857567232811" lon="11.287343090279554"><ele>441.0</ele><time>2026-04-12T13:21:27.001Z</time></trkpt><trkpt lat="43.56865510940938" lon="11.28719046341673"><ele>438.25</ele><time>2026-04-12T13:21:28.001Z</time></trkpt><trkpt lat="43.56875969802052" lon="11.287083737938692"><ele>435.5</ele><time>2026-04-12T13:21:29.001Z</time></trkpt><trkpt lat="43.568891735189666" lon="11.287014357292279"><ele>432.75</ele><time>2026-04-12T13:21:30.001Z</time></trkpt><trkpt lat="43.56902016802402" lon="11.286912909692196"><ele>430.0</ele><time>2026-04-12T13:21:31.001Z</time></trkpt><trkpt lat="43.56914187064857" lon="11.286836229587887"><ele>430.0</ele><time>2026-04-12T13:21:32.001Z</time></trkpt><trkpt lat="43.56922535265028" lon="11.286760508951064"><ele>430.0</ele><time>2026-04-12T13:21:33.001Z</time></trkpt><trkpt lat="43.569288078396795" lon="11.286668756673953"><ele>430.0</ele><time>2026-04-12T13:21:34.001Z</time></trkpt><trkpt lat="43.56933418089693" lon="11.286543772149026"><ele>430.0</ele><time>2026-04-12T13:21:35.001Z</time></trkpt><trkpt lat="43.56935620012532" lon="11.286390244733706"><ele>430.0</ele><time>2026-04-12T13:21:36.001Z</time></trkpt><trkpt lat="43.5693518857551" lon="11.286221465159132"><ele>428.5</ele><time>2026-04-12T13:21:37.001Z</time></trkpt><trkpt lat="43.5693153534585" lon="11.286035170151587"><ele>427.0</ele><time>2026-04-12T13:21:38.001Z</time></trkpt><trkpt lat="43.56928210224769" lon="11.285845984051885"><ele>425.5</ele><time>2026-04-12T13:21:39.001Z</time></trkpt><trkpt lat="43.56928035686679" lon="11.28565440856325"><ele>424.0</ele><time>2026-04-12T13:21:40.001Z</time></trkpt><trkpt lat="43.56930806915005" lon="11.285458267505163"><ele>423.5</ele><time>2026-04-12T13:21:41.001Z</time></trkpt><trkpt lat="43.56935117317285" lon="11.285273777049868"><ele>423.0</ele><time>2026-04-12T13:21:42.001Z</time></trkpt><trkpt lat="43.56940255840455" lon="11.28512131990113"><ele>422.5</ele><time>2026-04-12T13:21:43.001Z</time></trkpt><trkpt lat="43.56947108928837" lon="11.284995318415115"><ele>422.0</ele><time>2026-04-12T13:21:44.001Z</time></trkpt><trkpt lat="43.56956465846183" lon="11.2848864222799"><ele>506.0</ele><time>2026-04-12T13:21:45.001Z</time></trkpt><trkpt lat="43.573167001128816" lon="11.278274291223209"><ele>506.0</ele><time>2026-04-12T13:22:46Z</time></trkpt><trkpt lat="43.57333258628199" lon="11.278163736608136"><ele>506.0</ele><time>2026-04-12T13:22:47Z</time></trkpt><trkpt lat="43.57348349060197" lon="11.278022308298768"><ele>506.0</ele><time>2026-04-12T13:22:48Z</time></trkpt><trkpt lat="43.57362808121272" lon="11.277832927345946"><ele>508.66666666666663</ele><time>2026-04-12T13:22:49Z</time></trkpt><trkpt lat="43.573767213395335" lon="11.27762286685639"><ele>511.33333333333337</ele><time>2026-04-12T13:22:50Z</time></trkpt><trkpt lat="43.57388511931008" lon="11.277445539194686"><ele>514.0</ele><time>2026-04-12T13:22:51Z</time></trkpt><trkpt lat="43.57399809266088" lon="11.277300647819903"><ele>514.0</ele><time>2026-04-12T13:22:52Z</time></trkpt><trkpt lat="43.574137853466546" lon="11.277196715672718"><ele>514.0</ele><time>2026-04-12T13:22:53Z</time></trkpt><trkpt lat="43.57427221108465" lon="11.277052417610232"><ele>514.0</ele><time>2026-04-12T13:22:54Z</time></trkpt><trkpt lat="43.57443514599217" lon="11.276931700385903"><ele>515.6666666666667</ele><time>2026-04-12T13:22:55Z</time></trkpt><trkpt lat="43.57460357599652" lon="11.27681751904854"><ele>517.3333333333334</ele><time>2026-04-12T13:22:56Z</time></trkpt><trkpt lat="43.57478430251792" lon="11.276711684189275"><ele>519.0</ele><time>2026-04-12T13:22:57Z</time></trkpt><trkpt lat="43.57496827745717" lon="11.27660200454975"><ele>519.0</ele><time>2026-04-12T13:22:58Z</time></trkpt><trkpt lat="43.575156490512455" lon="11.276494170807641"><ele>519.0</ele><time>2026-04-12T13:22:59Z</time></trkpt><trkpt lat="43.575346249377624" lon="11.276379706998789"><ele>519.0</ele><time>2026-04-12T13:23:00Z</time></trkpt><trkpt lat="43.57552697175646" lon="11.276275132870524"><ele>521.5</ele><time>2026-04-12T13:23:01Z</time></trkpt><trkpt lat="43.57568155806961" lon="11.276189417959355"><ele>524.0</ele><time>2026-04-12T13:23:02Z</time></trkpt><trkpt lat="43.57580296026285" lon="11.276114059496734"><ele>526.5</ele><time>2026-04-12T13:23:03Z</time></trkpt><trkpt lat="43.575907800595154" lon="11.276057157211929"><ele>529.0</ele><time>2026-04-12T13:23:04.001Z</time></trkpt><trkpt lat="43.57601015410137" lon="11.276000529706545"><ele>529.0</ele><time>2026-04-12T13:23:05.001Z</time></trkpt><trkpt lat="43.57611720392835" lon="11.275932916514076"><ele>529.0</ele><time>2026-04-12T13:23:06.001Z</time></trkpt><trkpt lat="43.576241246979535" lon="11.275845549317346"><ele>529.0</ele><time>2026-04-12T13:23:07.001Z</time></trkpt><trkpt lat="43.576375078107134" lon="11.275739731870052"><ele>529.0</ele><time>2026-04-12T13:23:08.001Z</time></trkpt><trkpt lat="43.576512055616746" lon="11.275624447918478"><ele>528.0</ele><time>2026-04-12T13:23:09.001Z</time></trkpt><trkpt lat="43.57665360989925" lon="11.275502137008436"><ele>527.0</ele><time>2026-04-12T13:23:10.001Z</time></trkpt><trkpt lat="43.57679855307858" lon="11.275366237623153"><ele>526.0</ele><time>2026-04-12T13:23:11.001Z</time></trkpt><trkpt lat="43.576940564139804" lon="11.275238605654387"><ele>521.0</ele><time>2026-04-12T13:23:12.001Z</time></trkpt><trkpt lat="43.5770766880747" lon="11.275120000199552"><ele>516.0</ele><time>2026-04-12T13:23:13.001Z</time></trkpt><trkpt lat="43.577208448153016" lon="11.274999140092628"><ele>511.0</ele><time>2026-04-12T13:23:14.001Z</time></trkpt><trkpt lat="43.577335587223125" lon="11.274876324222717"><ele>510.33333333333337</ele><time>2026-04-12T13:23:15.001Z</time></trkpt><trkpt lat="43.577464761530806" lon="11.274758175692018"><ele>509.66666666666663</ele><time>2026-04-12T13:23:16.001Z</time></trkpt><trkpt lat="43.5775846607136" lon="11.274632282221546"><ele>509.0</ele><time>2026-04-12T13:23:17.001Z</time></trkpt><trkpt lat="43.577704383170456" lon="11.274492776195677"><ele>509.0</ele><time>2026-04-12T13:23:18.001Z</time></trkpt><trkpt lat="43.57781468285651" lon="11.274355035181031"><ele>509.0</ele><time>2026-04-12T13:23:19.001Z</time></trkpt><trkpt lat="43.57792610774861" lon="11.274214872390612"><ele>509.0</ele><time>2026-04-12T13:23:20.001Z</time></trkpt><trkpt lat="43.57801082781194" lon="11.274084143849917"><ele>509.0</ele><time>2026-04-12T13:23:21.001Z</time></trkpt><trkpt lat="43.57808785296902" lon="11.273983322955909"><ele>505.4</ele><time>2026-04-12T13:23:22.001Z</time></trkpt><trkpt lat="43.578161754694136" lon="11.273908284709805"><ele>501.79999999999995</ele><time>2026-04-12T13:23:23.001Z</time></trkpt><trkpt lat="43.57825842742561" lon="11.273876193617212"><ele>498.20000000000005</ele><time>2026-04-12T13:23:24.001Z</time></trkpt><trkpt lat="43.57837363434504" lon="11.273873012750343"><ele>494.6</ele><time>2026-04-12T13:23:25.001Z</time></trkpt><trkpt lat="43.57848916649361" lon="11.273865664278096"><ele>491.0</ele><time>2026-04-12T13:23:26.001Z</time></trkpt><trkpt lat="43.578590208750114" lon="11.273842417072649"><ele>491.0</ele><time>2026-04-12T13:23:27.001Z</time></trkpt><trkpt lat="43.578675078559534" lon="11.273817299042012"><ele>490.99999999999994</ele><time>2026-04-12T13:23:28.001Z</time></trkpt><trkpt lat="43.57874367640678" lon="11.273788215643368"><ele>491.0</ele><time>2026-04-12T13:23:29.001Z</time></trkpt><trkpt lat="43.57880890000599" lon="11.273753342637654"><ele>491.0</ele><time>2026-04-12T13:23:30.001Z</time></trkpt><trkpt lat="43.57886418422627" lon="11.273698112145539"><ele>490.99999999999994</ele><time>2026-04-12T13:23:31.001Z</time></trkpt><trkpt lat="43.57889620855142" lon="11.273617561573934"><ele>491.0</ele><time>2026-04-12T13:23:32.001Z</time></trkpt><trkpt lat="43.5789017302999" lon="11.273516685229447"><ele>491.0</ele><time>2026-04-12T13:23:33.001Z</time></trkpt><trkpt lat="43.578909342620086" lon="11.273416168349609"><ele>491.0</ele><time>2026-04-12T13:23:34.001Z</time></trkpt><trkpt lat="43.57894947916551" lon="11.2733200643128"><ele>491.0</ele><time>2026-04-12T13:23:35.001Z</time></trkpt><trkpt lat="43.57901357337559" lon="11.273262095849589"><ele>491.0</ele><time>2026-04-12T13:23:36.001Z</time></trkpt><trkpt lat="43.57908797607862" lon="11.273207266845354"><ele>491.0</ele><time>2026-04-12T13:23:37.001Z</time></trkpt><trkpt lat="43.579171162471766" lon="11.273137817515828"><ele>491.0</ele><time>2026-04-12T13:23:38.001Z</time></trkpt><trkpt lat="43.57927388422222" lon="11.273056261323886"><ele>488.6</ele><time>2026-04-12T13:23:39.001Z</time></trkpt><trkpt lat="43.57937262752864" lon="11.272976740565472"><ele>486.20000000000005</ele><time>2026-04-12T13:23:40.001Z</time></trkpt><trkpt lat="43.579468007160756" lon="11.272901279235827"><ele>483.79999999999995</ele><time>2026-04-12T13:23:41.001Z</time></trkpt><trkpt lat="43.5795608991065" lon="11.272814951798898"><ele>481.4</ele><time>2026-04-12T13:23:42.001Z</time></trkpt><trkpt lat="43.579648044496345" lon="11.272728502621424"><ele>479.0</ele><time>2026-04-12T13:23:43.001Z</time></trkpt><trkpt lat="43.57973376577296" lon="11.272641272767133"><ele>479.0</ele><time>2026-04-12T13:23:44.001Z</time></trkpt><trkpt lat="43.57981979862585" lon="11.272572060511564"><ele>479.0</ele><time>2026-04-12T13:23:45.001Z</time></trkpt><trkpt lat="43.58346421142517" lon="11.264084413029387"><ele>465.0</ele><time>2026-04-12T13:24:46Z</time></trkpt><trkpt lat="43.58361061162544" lon="11.264066751518657"><ele>451.0</ele><time>2026-04-12T13:24:47Z</time></trkpt><trkpt lat="43.58373654186371" lon="11.264065283001862"><ele>437.0</ele><time>2026-04-12T13:24:48Z</time></trkpt><trkpt lat="43.583852210619" lon="11.264101604007466"><ele>423.0</ele><time>2026-04-12T13:24:49Z</time></trkpt><trkpt lat="43.58397034029134" lon="11.264119013147083"><ele>422.59999999999997</ele><time>2026-04-12T13:24:50Z</time></trkpt><trkpt lat="43.584076646306954" lon="11.264186027383616"><ele>422.2</ele><time>2026-04-12T13:24:51Z</time></trkpt><trkpt lat="43.584184990900624" lon="11.264232433485086"><ele>421.8</ele><time>2026-04-12T13:24:52Z</time></trkpt><trkpt lat="43.58427184187203" lon="11.264263496694532"><ele>421.4</ele><time>2026-04-12T13:24:53Z</time></trkpt><trkpt lat="43.58434352024186" lon="11.264279977902293"><ele>421.0</ele><time>2026-04-12T13:24:54Z</time></trkpt><trkpt lat="43.58444966009702" lon="11.264221723208802"><ele>421.0</ele><time>2026-04-12T13:24:56.001Z</time></trkpt><trkpt lat="43.584491488376976" lon="11.264129444819162"><ele>421.0</ele><time>2026-04-12T13:24:57.001Z</time></trkpt><trkpt lat="43.58450169731903" lon="11.264028075286152"><ele>421.0</ele><time>2026-04-12T13:24:58.001Z</time></trkpt><trkpt lat="43.58447123259359" lon="11.263918160025273"><ele>421.0</ele><time>2026-04-12T13:24:59.001Z</time></trkpt><trkpt lat="43.58441222303444" lon="11.263806094181264"><ele>421.0</ele><time>2026-04-12T13:25:00.001Z</time></trkpt><trkpt lat="43.58432415405226" lon="11.263693738752396"><ele>419.75</ele><time>2026-04-12T13:25:01.001Z</time></trkpt><trkpt lat="43.58422741370457" lon="11.26358112668415"><ele>418.5</ele><time>2026-04-12T13:25:02.001Z</time></trkpt><trkpt lat="43.58412790255886" lon="11.263476667715636"><ele>417.25</ele><time>2026-04-12T13:25:03.001Z</time></trkpt><trkpt lat="43.584035750384416" lon="11.263382524782365"><ele>416.0</ele><time>2026-04-12T13:25:04.001Z</time></trkpt><trkpt lat="43.5839427673481" lon="11.263287790686354"><ele>416.0</ele><time>2026-04-12T13:25:05.001Z</time></trkpt><trkpt lat="43.583846910182274" lon="11.26319021373224"><ele>416.0</ele><time>2026-04-12T13:25:06.001Z</time></trkpt><trkpt lat="43.5837507948212" lon="11.263092373967838"><ele>416.0</ele><time>2026-04-12T13:25:07.001Z</time></trkpt><trkpt lat="43.58364898680998" lon="11.262988797887505"><ele>416.0</ele><time>2026-04-12T13:25:08.001Z</time></trkpt><trkpt lat="43.5835497568212" lon="11.262891184743435"><ele>412.5</ele><time>2026-04-12T13:25:09.001Z</time></trkpt><trkpt lat="43.583468025924304" lon="11.262799564059705"><ele>409.0</ele><time>2026-04-12T13:25:10.001Z</time></trkpt><trkpt lat="43.58339432597816" lon="11.262695745481063"><ele>405.5</ele><time>2026-04-12T13:25:11.001Z</time></trkpt><trkpt lat="43.583315572229736" lon="11.262570589380372"><ele>402.0</ele><time>2026-04-12T13:25:12.001Z</time></trkpt><trkpt lat="43.58323316669514" lon="11.262437154789335"><ele>402.0</ele><time>2026-04-12T13:25:13.001Z</time></trkpt><trkpt lat="43.58316126936417" lon="11.262297684415213"><ele>402.0</ele><time>2026-04-12T13:25:14.001Z</time></trkpt><trkpt lat="43.58309753322306" lon="11.262157198729097"><ele>402.0</ele><time>2026-04-12T13:25:15.001Z</time></trkpt><trkpt lat="43.58303365531162" lon="11.262005529113559"><ele>402.0</ele><time>2026-04-12T13:25:16.001Z</time></trkpt><trkpt lat="43.58297564050834" lon="11.261839045013911"><ele>402.25</ele><time>2026-04-12T13:25:17.001Z</time></trkpt><trkpt lat="43.58292411943335" lon="11.261659898438655"><ele>402.5</ele><time>2026-04-12T13:25:18.001Z</time></trkpt><trkpt lat="43.58286520374849" lon="11.261487988142285"><ele>402.75</ele><time>2026-04-12T13:25:19.001Z</time></trkpt><trkpt lat="43.58281416751665" lon="11.261331182979744"><ele>403.0</ele><time>2026-04-12T13:25:20.001Z</time></trkpt><trkpt lat="43.58275985393721" lon="11.261200332719746"><ele>400.2</ele><time>2026-04-12T13:25:21.001Z</time></trkpt><trkpt lat="43.58269648514449" lon="11.261112011218344"><ele>397.4</ele><time>2026-04-12T13:25:22.001Z</time></trkpt><trkpt lat="43.58262973029141" lon="11.26106197310847"><ele>394.59999999999997</ele><time>2026-04-12T13:25:23.001Z</time></trkpt><trkpt lat="43.58253243780009" lon="11.261037110501437"><ele>391.79999999999995</ele><time>2026-04-12T13:25:24.001Z</time></trkpt><trkpt lat="43.58241293329735" lon="11.260982869444662"><ele>389.0</ele><time>2026-04-12T13:25:25.001Z</time></trkpt><trkpt lat="43.58227350840259" lon="11.260968796605846"><ele>389.0</ele><time>2026-04-12T13:25:26.001Z</time></trkpt><trkpt lat="43.58215604894959" lon="11.260967902525849"><ele>389.0</ele><time>2026-04-12T13:25:27.001Z</time></trkpt><trkpt lat="43.58206572203036" lon="11.260934398790614"><ele>389.0</ele><time>2026-04-12T13:25:28.001Z</time></trkpt><trkpt lat="43.58199717472631" lon="11.26084055954862"><ele>389.0</ele><time>2026-04-12T13:25:29.001Z</time></trkpt><trkpt lat="43.58191840539542" lon="11.260728036759222"><ele>389.0</ele><time>2026-04-12T13:25:30.001Z</time></trkpt><trkpt lat="43.581826517284746" lon="11.260614685776332"><ele>386.75</ele><time>2026-04-12T13:25:31.001Z</time></trkpt><trkpt lat="43.581694895842766" lon="11.260555014589478"><ele>384.5</ele><time>2026-04-12T13:25:32.001Z</time></trkpt><trkpt lat="43.581572872751074" lon="11.260476254285697"><ele>382.25</ele><time>2026-04-12T13:25:33.001Z</time></trkpt><trkpt lat="43.581464277016735" lon="11.260417895618692"><ele>380.0</ele><time>2026-04-12T13:25:34.001Z</time></trkpt><trkpt lat="43.5813783232654" lon="11.260367598355067"><ele>380.0</ele><time>2026-04-12T13:25:35.001Z</time></trkpt><trkpt lat="43.58128352183257" lon="11.26032599310498"><ele>380.0</ele><time>2026-04-12T13:25:36.001Z</time></trkpt><trkpt lat="43.58120589852976" lon="11.260258488247871"><ele>380.0</ele><time>2026-04-12T13:25:37.001Z</time></trkpt><trkpt lat="43.58113967896827" lon="11.260194034061383"><ele>380.0</ele><time>2026-04-12T13:25:38.001Z</time></trkpt><trkpt lat="43.581071420484214" lon="11.260105610335053"><ele>380.0</ele><time>2026-04-12T13:25:39.001Z</time></trkpt><trkpt lat="43.581012500512635" lon="11.259993384002126"><ele>377.75</ele><time>2026-04-12T13:25:40.001Z</time></trkpt><trkpt lat="43.580961304470414" lon="11.259855596559436"><ele>375.5</ele><time>2026-04-12T13:25:41.001Z</time></trkpt><trkpt lat="43.58091338906885" lon="11.259695131204442"><ele>373.25</ele><time>2026-04-12T13:25:42.001Z</time></trkpt><trkpt lat="43.580874188616505" lon="11.259519826656925"><ele>371.0</ele><time>2026-04-12T13:25:43.001Z</time></trkpt><trkpt lat="43.58083852936402" lon="11.259351001542477"><ele>371.0</ele><time>2026-04-12T13:25:44.001Z</time></trkpt><trkpt lat="43.58080871974077" lon="11.25920343435897"><ele>371.0</ele><time>2026-04-12T13:25:45.001Z</time></trkpt><trkpt lat="43.58041490512597" lon="11.251728689230033"><ele>367.20000000000005</ele><time>2026-04-12T13:26:46Z</time></trkpt><trkpt lat="43.580457372855285" lon="11.251587305341094"><ele>363.40000000000003</ele><time>2026-04-12T13:26:48Z</time></trkpt><trkpt lat="43.580524265121184" lon="11.251539239837994"><ele>359.6</ele><time>2026-04-12T13:26:50Z</time></trkpt><trkpt lat="43.58062779765939" lon="11.25147246629343"><ele>355.8</ele><time>2026-04-12T13:26:52Z</time></trkpt><trkpt lat="43.58069151152054" lon="11.251418676170601"><ele>352.0</ele><time>2026-04-12T13:26:53Z</time></trkpt><trkpt lat="43.58076051626744" lon="11.25136108129611"><ele>350.8</ele><time>2026-04-12T13:26:54Z</time></trkpt><trkpt lat="43.58083302375408" lon="11.251296371427589"><ele>349.6</ele><time>2026-04-12T13:26:55Z</time></trkpt><trkpt lat="43.580897693745705" lon="11.251212822811421"><ele>348.40000000000003</ele><time>2026-04-12T13:26:56Z</time></trkpt><trkpt lat="43.580960628754184" lon="11.251111171615328"><ele>347.20000000000005</ele><time>2026-04-12T13:26:57Z</time></trkpt><trkpt lat="43.58101832876134" lon="11.251003930369912"><ele>346.0</ele><time>2026-04-12T13:26:58.001Z</time></trkpt><trkpt lat="43.581071995820984" lon="11.250904811426558"><ele>346.0</ele><time>2026-04-12T13:26:59.001Z</time></trkpt><trkpt lat="43.581122475881024" lon="11.25081038655416"><ele>346.0</ele><time>2026-04-12T13:27:00.001Z</time></trkpt><trkpt lat="43.581168921020726" lon="11.250724877677936"><ele>346.0</ele><time>2026-04-12T13:27:01.001Z</time></trkpt><trkpt lat="43.58120840553195" lon="11.25065267955629"><ele>346.0</ele><time>2026-04-12T13:27:02.001Z</time></trkpt><trkpt lat="43.58128301614567" lon="11.250545711231617"><ele>346.0</ele><time>2026-04-12T13:27:04.001Z</time></trkpt><trkpt lat="43.581344415402086" lon="11.250462498593217"><ele>346.0</ele><time>2026-04-12T13:27:06.001Z</time></trkpt><trkpt lat="43.581396477827774" lon="11.250381192360846"><ele>346.16666666666663</ele><time>2026-04-12T13:27:09.001Z</time></trkpt><trkpt lat="43.58134950492579" lon="11.250228694556533"><ele>346.3333333333333</ele><time>2026-04-12T13:27:11.001Z</time></trkpt><trkpt lat="43.58129809630497" lon="11.250156019571923"><ele>346.5</ele><time>2026-04-12T13:27:12.001Z</time></trkpt><trkpt lat="43.58123319043851" lon="11.2500836045963"><ele>346.6666666666667</ele><time>2026-04-12T13:27:13.001Z</time></trkpt><trkpt lat="43.58115943193875" lon="11.250011455328247"><ele>346.83333333333337</ele><time>2026-04-12T13:27:14.001Z</time></trkpt><trkpt lat="43.581093329265514" lon="11.249952941240048"><ele>347.0</ele><time>2026-04-12T13:27:15.001Z</time></trkpt><trkpt lat="43.581028158754336" lon="11.2498894132631"><ele>347.0</ele><time>2026-04-12T13:27:16.001Z</time></trkpt><trkpt lat="43.580965985472744" lon="11.249828806858806"><ele>347.0</ele><time>2026-04-12T13:27:17.001Z</time></trkpt><trkpt lat="43.58090743210783" lon="11.24976905306802"><ele>347.0</ele><time>2026-04-12T13:27:18.001Z</time></trkpt><trkpt lat="43.58085193562779" lon="11.24971282285309"><ele>347.0</ele><time>2026-04-12T13:27:19.001Z</time></trkpt><trkpt lat="43.58074997615521" lon="11.249618167646975"><ele>347.0</ele><time>2026-04-12T13:27:21.001Z</time></trkpt><trkpt lat="43.58064711099432" lon="11.249521919911595"><ele>346.33333333333337</ele><time>2026-04-12T13:27:23.001Z</time></trkpt><trkpt lat="43.58058656328758" lon="11.24947239762882"><ele>345.6666666666667</ele><time>2026-04-12T13:27:24.001Z</time></trkpt><trkpt lat="43.58051526331724" lon="11.249429527434913"><ele>345.0</ele><time>2026-04-12T13:27:25.001Z</time></trkpt><trkpt lat="43.580440740780936" lon="11.249387655883655"><ele>344.3333333333333</ele><time>2026-04-12T13:27:26.001Z</time></trkpt><trkpt lat="43.58036923520471" lon="11.249353365824557"><ele>343.66666666666663</ele><time>2026-04-12T13:27:27.001Z</time></trkpt><trkpt lat="43.580298548279885" lon="11.249320665326088"><ele>343.0</ele><time>2026-04-12T13:27:28.001Z</time></trkpt><trkpt lat="43.58022813658922" lon="11.24928776281224"><ele>343.0</ele><time>2026-04-12T13:27:29.001Z</time></trkpt><trkpt lat="43.58015895270285" lon="11.249252781474988"><ele>343.0</ele><time>2026-04-12T13:27:30.001Z</time></trkpt><trkpt lat="43.58008870911795" lon="11.249212951627634"><ele>343.0</ele><time>2026-04-12T13:27:31.001Z</time></trkpt><trkpt lat="43.58001430215212" lon="11.249169280814309"><ele>343.0</ele><time>2026-04-12T13:27:32.001Z</time></trkpt><trkpt lat="43.579934318560326" lon="11.249124985800037"><ele>343.0</ele><time>2026-04-12T13:27:33.001Z</time></trkpt><trkpt lat="43.57985542468894" lon="11.249085544786558"><ele>343.0</ele><time>2026-04-12T13:27:34.001Z</time></trkpt><trkpt lat="43.57977185722307" lon="11.249042990107665"><ele>343.0</ele><time>2026-04-12T13:27:35.001Z</time></trkpt><trkpt lat="43.57968981479288" lon="11.249002069420065"><ele>343.0</ele><time>2026-04-12T13:27:36.001Z</time></trkpt><trkpt lat="43.57961081695265" lon="11.24896442666858"><ele>343.0</ele><time>2026-04-12T13:27:37.001Z</time></trkpt><trkpt lat="43.579538136894676" lon="11.248929846250798"><ele>343.0</ele><time>2026-04-12T13:27:38.001Z</time></trkpt><trkpt lat="43.579469147289" lon="11.248893275609289"><ele>343.0</ele><time>2026-04-12T13:27:39.001Z</time></trkpt><trkpt lat="43.57935665434328" lon="11.248841192607296"><ele>343.0</ele><time>2026-04-12T13:27:41.001Z</time></trkpt><trkpt lat="43.57925003076489" lon="11.24878470036334"><ele>342.5</ele><time>2026-04-12T13:27:43.001Z</time></trkpt><trkpt lat="43.57914902468286" lon="11.248731582732372"><ele>342.0</ele><time>2026-04-12T13:27:45.001Z</time></trkpt><trkpt lat="43.57685335391598" lon="11.245270218438744"><ele>337.6</ele><time>2026-04-12T13:28:46Z</time></trkpt><trkpt lat="43.57680906024896" lon="11.245148705512623"><ele>333.20000000000005</ele><time>2026-04-12T13:28:47Z</time></trkpt><trkpt lat="43.57676423342855" lon="11.24502367765127"><ele>328.8</ele><time>2026-04-12T13:28:48Z</time></trkpt><trkpt lat="43.576715235161466" lon="11.244887015041446"><ele>324.4</ele><time>2026-04-12T13:28:49Z</time></trkpt><trkpt lat="43.57666537861991" lon="11.244748364611882"><ele>320.0</ele><time>2026-04-12T13:28:50Z</time></trkpt><trkpt lat="43.57661471498188" lon="11.244608904124938"><ele>319.0</ele><time>2026-04-12T13:28:51Z</time></trkpt><trkpt lat="43.57656416020344" lon="11.244469743305403"><ele>318.0</ele><time>2026-04-12T13:28:52Z</time></trkpt><trkpt lat="43.57651458440386" lon="11.244334986316167"><ele>317.0</ele><time>2026-04-12T13:28:53Z</time></trkpt><trkpt lat="43.57645407987612" lon="11.244224127272318"><ele>316.0</ele><time>2026-04-12T13:28:54Z</time></trkpt><trkpt lat="43.57641323504733" lon="11.244111249179804"><ele>315.0</ele><time>2026-04-12T13:28:55Z</time></trkpt><trkpt lat="43.57637688582304" lon="11.244004143668665"><ele>314.6666666666667</ele><time>2026-04-12T13:28:56Z</time></trkpt><trkpt lat="43.576336141159395" lon="11.24390136670423"><ele>314.3333333333333</ele><time>2026-04-12T13:28:58Z</time></trkpt><trkpt lat="43.57630676675302" lon="11.243802866959784"><ele>314.0</ele><time>2026-04-12T13:29:02Z</time></trkpt><trkpt lat="43.57627317803135" lon="11.243719149474645"><ele>313.66666666666663</ele><time>2026-04-12T13:29:04Z</time></trkpt><trkpt lat="43.57622626533824" lon="11.243593290823753"><ele>313.3333333333333</ele><time>2026-04-12T13:29:06Z</time></trkpt><trkpt lat="43.57619814246665" lon="11.243513055223486"><ele>313.0</ele><time>2026-04-12T13:29:07Z</time></trkpt><trkpt lat="43.57616565862522" lon="11.24342277440957"><ele>313.0</ele><time>2026-04-12T13:29:08Z</time></trkpt><trkpt lat="43.576125813952004" lon="11.243317721187971"><ele>313.0</ele><time>2026-04-12T13:29:09Z</time></trkpt><trkpt lat="43.57607623758142" lon="11.243199177229007"><ele>313.0</ele><time>2026-04-12T13:29:10.001Z</time></trkpt><trkpt lat="43.5760287950205" lon="11.24306515991901"><ele>313.0</ele><time>2026-04-12T13:29:11.001Z</time></trkpt><trkpt lat="43.57599913161831" lon="11.242933299499033"><ele>313.0</ele><time>2026-04-12T13:29:12.001Z</time></trkpt><trkpt lat="43.57596015752497" lon="11.242821531817164"><ele>313.16666666666663</ele><time>2026-04-12T13:29:13.001Z</time></trkpt><trkpt lat="43.57592365589938" lon="11.242716854404877"><ele>313.3333333333333</ele><time>2026-04-12T13:29:14.001Z</time></trkpt><trkpt lat="43.575889123050956" lon="11.242620161917571"><ele>313.5</ele><time>2026-04-12T13:29:15.001Z</time></trkpt><trkpt lat="43.575843346499454" lon="11.242542418165183"><ele>313.6666666666667</ele><time>2026-04-12T13:29:16.001Z</time></trkpt><trkpt lat="43.575810851854676" lon="11.242450380851281"><ele>313.83333333333337</ele><time>2026-04-12T13:29:17.001Z</time></trkpt><trkpt lat="43.57578785683082" lon="11.2423370542409"><ele>314.0</ele><time>2026-04-12T13:29:18.001Z</time></trkpt><trkpt lat="43.57574831133869" lon="11.242226498650734"><ele>313.59999999999997</ele><time>2026-04-12T13:29:19.001Z</time></trkpt><trkpt lat="43.575708237201034" lon="11.242113322576884"><ele>313.2</ele><time>2026-04-12T13:29:20.001Z</time></trkpt><trkpt lat="43.57566662212886" lon="11.24199448400712"><ele>312.79999999999995</ele><time>2026-04-12T13:29:21.001Z</time></trkpt><trkpt lat="43.575613364583816" lon="11.241887542521502"><ele>312.4</ele><time>2026-04-12T13:29:22.001Z</time></trkpt><trkpt lat="43.57557671232843" lon="11.2417607582791"><ele>312.0</ele><time>2026-04-12T13:29:23.001Z</time></trkpt><trkpt lat="43.57553729072621" lon="11.241637858002505"><ele>312.0</ele><time>2026-04-12T13:29:24.001Z</time></trkpt><trkpt lat="43.57554094052212" lon="11.241501478569361"><ele>312.0</ele><time>2026-04-12T13:29:25.001Z</time></trkpt><trkpt lat="43.575549120942185" lon="11.241366897636928"><ele>312.0</ele><time>2026-04-12T13:29:26.001Z</time></trkpt><trkpt lat="43.57556819986579" lon="11.241235906581489"><ele>312.0</ele><time>2026-04-12T13:29:27.001Z</time></trkpt><trkpt lat="43.57556939434518" lon="11.241105053230532"><ele>312.0</ele><time>2026-04-12T13:29:28.001Z</time></trkpt><trkpt lat="43.57558341024203" lon="11.240980788044446"><ele>312.6</ele><time>2026-04-12T13:29:29.001Z</time></trkpt><trkpt lat="43.57559132711912" lon="11.240871036972948"><ele>313.2</ele><time>2026-04-12T13:29:30.001Z</time></trkpt><trkpt lat="43.575602817236096" lon="11.240750889790794"><ele>313.8</ele><time>2026-04-12T13:29:31.001Z</time></trkpt><trkpt lat="43.57561620957743" lon="11.240628462627638"><ele>314.4</ele><time>2026-04-12T13:29:32.001Z</time></trkpt><trkpt lat="43.57562876693255" lon="11.240490358070403"><ele>315.0</ele><time>2026-04-12T13:29:33.001Z</time></trkpt><trkpt lat="43.57564391742208" lon="11.240345273142989"><ele>315.0</ele><time>2026-04-12T13:29:34.001Z</time></trkpt><trkpt lat="43.57565861011223" lon="11.240197425010198"><ele>315.0</ele><time>2026-04-12T13:29:35.001Z</time></trkpt><trkpt lat="43.57567284692642" lon="11.240054433657711"><ele>315.0</ele><time>2026-04-12T13:29:36.001Z</time></trkpt><trkpt lat="43.57568823185559" lon="11.239922673460528"><ele>315.0</ele><time>2026-04-12T13:29:37.001Z</time></trkpt><trkpt lat="43.575701909151825" lon="11.239782281977421"><ele>315.0</ele><time>2026-04-12T13:29:38.001Z</time></trkpt><trkpt lat="43.57570172202201" lon="11.239640370254705"><ele>315.2</ele><time>2026-04-12T13:29:39.001Z</time></trkpt><trkpt lat="43.57567353618096" lon="11.239498323260172"><ele>315.4</ele><time>2026-04-12T13:29:40.001Z</time></trkpt><trkpt lat="43.5756116402952" lon="11.239370290117796"><ele>315.6</ele><time>2026-04-12T13:29:41.001Z</time></trkpt><trkpt lat="43.575536936429835" lon="11.239255295456596"><ele>315.8</ele><time>2026-04-12T13:29:42.001Z</time></trkpt><trkpt lat="43.57545665798409" lon="11.239140498499497"><ele>316.0</ele><time>2026-04-12T13:29:43.001Z</time></trkpt><trkpt lat="43.57537359931488" lon="11.239031565897427"><ele>320.0</ele><time>2026-04-12T13:29:44.001Z</time></trkpt><trkpt lat="43.575277614099875" lon="11.238933326517435"><ele>324.0</ele><time>2026-04-12T13:29:45.001Z</time></trkpt><trkpt lat="43.57281152724849" lon="11.230750102817822"><ele>314.5</ele><time>2026-04-12T13:30:46Z</time></trkpt><trkpt lat="43.57282032667389" lon="11.230597098215624"><ele>305.0</ele><time>2026-04-12T13:30:47Z</time></trkpt><trkpt lat="43.57283595130363" lon="11.230434981393056"><ele>295.5</ele><time>2026-04-12T13:30:48Z</time></trkpt><trkpt lat="43.57284821841942" lon="11.230269659229315"><ele>286.0</ele><time>2026-04-12T13:30:49Z</time></trkpt><trkpt lat="43.57286305354397" lon="11.230094249253833"><ele>281.5</ele><time>2026-04-12T13:30:50Z</time></trkpt><trkpt lat="43.57287547851738" lon="11.22993409160594"><ele>277.0</ele><time>2026-04-12T13:30:51Z</time></trkpt><trkpt lat="43.57288957470151" lon="11.22976843882349"><ele>272.5</ele><time>2026-04-12T13:30:52Z</time></trkpt><trkpt lat="43.57290312099804" lon="11.229596958529688"><ele>268.0</ele><time>2026-04-12T13:30:53Z</time></trkpt><trkpt lat="43.572920834064256" lon="11.22943729086899"><ele>266.6</ele><time>2026-04-12T13:30:54Z</time></trkpt><trkpt lat="43.57293378183772" lon="11.229275432229384"><ele>265.20000000000005</ele><time>2026-04-12T13:30:55Z</time></trkpt><trkpt lat="43.57295686142143" lon="11.229122957632422"><ele>263.8</ele><time>2026-04-12T13:30:56Z</time></trkpt><trkpt lat="43.572972140644715" lon="11.228976040738827"><ele>262.40000000000003</ele><time>2026-04-12T13:30:57Z</time></trkpt><trkpt lat="43.57298120797106" lon="11.228850244755543"><ele>261.0</ele><time>2026-04-12T13:30:58Z</time></trkpt><trkpt lat="43.572974345961306" lon="11.228738707060504"><ele>260.6</ele><time>2026-04-12T13:30:59Z</time></trkpt><trkpt lat="43.5730075600332" lon="11.228625006436085"><ele>260.20000000000005</ele><time>2026-04-12T13:31:00Z</time></trkpt><trkpt lat="43.5730352107495" lon="11.22850156176279"><ele>259.79999999999995</ele><time>2026-04-12T13:31:01Z</time></trkpt><trkpt lat="43.57304943505929" lon="11.22836409560766"><ele>259.4</ele><time>2026-04-12T13:31:02Z</time></trkpt><trkpt lat="43.573080571469546" lon="11.228224495465241"><ele>259.0</ele><time>2026-04-12T13:31:03Z</time></trkpt><trkpt lat="43.573097878174174" lon="11.228072428460855"><ele>257.5</ele><time>2026-04-12T13:31:04Z</time></trkpt><trkpt lat="43.57311791427723" lon="11.22791231714812"><ele>256.0</ele><time>2026-04-12T13:31:05Z</time></trkpt><trkpt lat="43.573126036576916" lon="11.227740844201945"><ele>254.5</ele><time>2026-04-12T13:31:06Z</time></trkpt><trkpt lat="43.57312930518314" lon="11.227564423694545"><ele>253.0</ele><time>2026-04-12T13:31:07Z</time></trkpt><trkpt lat="43.57315115058289" lon="11.227387844513615"><ele>252.25</ele><time>2026-04-12T13:31:08Z</time></trkpt><trkpt lat="43.57314300175208" lon="11.227206460270336"><ele>251.5</ele><time>2026-04-12T13:31:09Z</time></trkpt><trkpt lat="43.573159757180335" lon="11.227025836591277"><ele>250.75</ele><time>2026-04-12T13:31:10Z</time></trkpt><trkpt lat="43.5731689076088" lon="11.226847092906239"><ele>250.0</ele><time>2026-04-12T13:31:11Z</time></trkpt><trkpt lat="43.57318501151146" lon="11.226672588212711"><ele>250.0</ele><time>2026-04-12T13:31:12Z</time></trkpt><trkpt lat="43.573212394136235" lon="11.226503147288899"><ele>250.0</ele><time>2026-04-12T13:31:13Z</time></trkpt><trkpt lat="43.57324195351178" lon="11.226339179550166"><ele>250.0</ele><time>2026-04-12T13:31:14Z</time></trkpt><trkpt lat="43.573271177517626" lon="11.226175568151103"><ele>250.0</ele><time>2026-04-12T13:31:15Z</time></trkpt><trkpt lat="43.57330087872813" lon="11.226013387433124"><ele>249.5</ele><time>2026-04-12T13:31:16Z</time></trkpt><trkpt lat="43.57333429666058" lon="11.225847670978826"><ele>249.0</ele><time>2026-04-12T13:31:17Z</time></trkpt><trkpt lat="43.57337036396014" lon="11.225683258245077"><ele>248.5</ele><time>2026-04-12T13:31:18Z</time></trkpt><trkpt lat="43.57340259150341" lon="11.225521125352733"><ele>248.0</ele><time>2026-04-12T13:31:19.001Z</time></trkpt><trkpt lat="43.57343661705378" lon="11.225357292106331"><ele>248.0</ele><time>2026-04-12T13:31:20.001Z</time></trkpt><trkpt lat="43.57347439183323" lon="11.225191243643412"><ele>248.0</ele><time>2026-04-12T13:31:21.001Z</time></trkpt><trkpt lat="43.573522696430224" lon="11.22502414566035"><ele>248.0</ele><time>2026-04-12T13:31:22.001Z</time></trkpt><trkpt lat="43.57358106644069" lon="11.22486202099033"><ele>248.0</ele><time>2026-04-12T13:31:23.001Z</time></trkpt><trkpt lat="43.573651215147216" lon="11.224707078930678"><ele>246.0</ele><time>2026-04-12T13:31:24.001Z</time></trkpt><trkpt lat="43.57372689645695" lon="11.224550313154323"><ele>244.0</ele><time>2026-04-12T13:31:25.001Z</time></trkpt><trkpt lat="43.573803220072" lon="11.224397024939462"><ele>242.0</ele><time>2026-04-12T13:31:26.001Z</time></trkpt><trkpt lat="43.57387088851391" lon="11.224247062647175"><ele>240.0</ele><time>2026-04-12T13:31:27.001Z</time></trkpt><trkpt lat="43.57393904972612" lon="11.224100178030927"><ele>239.75</ele><time>2026-04-12T13:31:28.001Z</time></trkpt><trkpt lat="43.57401395801491" lon="11.22394858665756"><ele>239.5</ele><time>2026-04-12T13:31:29.001Z</time></trkpt><trkpt lat="43.57409936648459" lon="11.223810970425284"><ele>239.25</ele><time>2026-04-12T13:31:30.001Z</time></trkpt><trkpt lat="43.57415508413419" lon="11.223658264238162"><ele>239.0</ele><time>2026-04-12T13:31:31.001Z</time></trkpt><trkpt lat="43.57422208048119" lon="11.223520258719295"><ele>239.0</ele><time>2026-04-12T13:31:32.001Z</time></trkpt><trkpt lat="43.574287698859415" lon="11.223381814050343"><ele>239.0</ele><time>2026-04-12T13:31:33.001Z</time></trkpt><trkpt lat="43.57434674547805" lon="11.223247774983514"><ele>239.0</ele><time>2026-04-12T13:31:34.001Z</time></trkpt><trkpt lat="43.574398883289945" lon="11.223113638131725"><ele>239.0</ele><time>2026-04-12T13:31:35.001Z</time></trkpt><trkpt lat="43.5744449434467" lon="11.222964759127503"><ele>237.25</ele><time>2026-04-12T13:31:36.001Z</time></trkpt><trkpt lat="43.574463023482224" lon="11.222808457092436"><ele>235.5</ele><time>2026-04-12T13:31:37.001Z</time></trkpt><trkpt lat="43.574452371578225" lon="11.22263806280429"><ele>233.75</ele><time>2026-04-12T13:31:38.001Z</time></trkpt><trkpt lat="43.574434319361664" lon="11.2224796044346"><ele>232.0</ele><time>2026-04-12T13:31:39.001Z</time></trkpt><trkpt lat="43.574409766467554" lon="11.222332887617121"><ele>230.0</ele><time>2026-04-12T13:31:40.001Z</time></trkpt><trkpt lat="43.57437067016823" lon="11.222187987881892"><ele>228.0</ele><time>2026-04-12T13:31:41.001Z</time></trkpt><trkpt lat="43.574305823275594" lon="11.222047900033925"><ele>226.0</ele><time>2026-04-12T13:31:42.001Z</time></trkpt><trkpt lat="43.57422330002364" lon="11.22191105431217"><ele>224.0</ele><time>2026-04-12T13:31:43.001Z</time></trkpt><trkpt lat="43.57413822656372" lon="11.221779871668401"><ele>224.0</ele><time>2026-04-12T13:31:44.001Z</time></trkpt><trkpt lat="43.57407383785755" lon="11.22164827735595"><ele>224.0</ele><time>2026-04-12T13:31:45.001Z</time></trkpt><trkpt lat="43.57662848861383" lon="11.214856156066407"><ele>214.2</ele><time>2026-04-12T13:32:46Z</time></trkpt><trkpt lat="43.576724383284294" lon="11.214752708306895"><ele>204.39999999999998</ele><time>2026-04-12T13:32:48Z</time></trkpt><trkpt lat="43.57681376607251" lon="11.214698794166855"><ele>194.6</ele><time>2026-04-12T13:32:49Z</time></trkpt><trkpt lat="43.57691917504784" lon="11.214650305810686"><ele>184.8</ele><time>2026-04-12T13:32:50Z</time></trkpt><trkpt lat="43.57702802454441" lon="11.214597388344728"><ele>175.0</ele><time>2026-04-12T13:32:51Z</time></trkpt><trkpt lat="43.57714374115853" lon="11.214545173502124"><ele>175.0</ele><time>2026-04-12T13:32:52Z</time></trkpt><trkpt lat="43.57726478147339" lon="11.214486420501602"><ele>175.0</ele><time>2026-04-12T13:32:53Z</time></trkpt><trkpt lat="43.57739070141193" lon="11.214407980350993"><ele>175.0</ele><time>2026-04-12T13:32:54Z</time></trkpt><trkpt lat="43.57751699573661" lon="11.21429747417869"><ele>175.0</ele><time>2026-04-12T13:32:55Z</time></trkpt><trkpt lat="43.57763452761039" lon="11.214154175152304"><ele>175.0</ele><time>2026-04-12T13:32:56Z</time></trkpt><trkpt lat="43.577751088145284" lon="11.213995207091324"><ele>175.0</ele><time>2026-04-12T13:32:57Z</time></trkpt><trkpt lat="43.57786774932721" lon="11.213826544656538"><ele>175.0</ele><time>2026-04-12T13:32:58Z</time></trkpt><trkpt lat="43.57799133600303" lon="11.21365551854713"><ele>175.33333333333334</ele><time>2026-04-12T13:32:59Z</time></trkpt><trkpt lat="43.57811258798305" lon="11.21348416199376"><ele>175.66666666666666</ele><time>2026-04-12T13:33:00Z</time></trkpt><trkpt lat="43.578246238796744" lon="11.213336051669888"><ele>176.0</ele><time>2026-04-12T13:33:01Z</time></trkpt><trkpt lat="43.578356738045855" lon="11.213187468703927"><ele>175.66666666666666</ele><time>2026-04-12T13:33:02Z</time></trkpt><trkpt lat="43.578450886609794" lon="11.213027038917252"><ele>175.33333333333334</ele><time>2026-04-12T13:33:03Z</time></trkpt><trkpt lat="43.57856776501874" lon="11.212897647238709"><ele>175.0</ele><time>2026-04-12T13:33:04Z</time></trkpt><trkpt lat="43.578695472388866" lon="11.21277730299007"><ele>175.0</ele><time>2026-04-12T13:33:05Z</time></trkpt><trkpt lat="43.57883463305063" lon="11.212687373573305"><ele>175.0</ele><time>2026-04-12T13:33:06Z</time></trkpt><trkpt lat="43.578977592870146" lon="11.212618479684167"><ele>175.0</ele><time>2026-04-12T13:33:07Z</time></trkpt><trkpt lat="43.57912712951089" lon="11.21254841295118"><ele>175.0</ele><time>2026-04-12T13:33:08Z</time></trkpt><trkpt lat="43.5792803154723" lon="11.212472992944416"><ele>175.0</ele><time>2026-04-12T13:33:09Z</time></trkpt><trkpt lat="43.579434716826626" lon="11.212399677878492"><ele>175.0</ele><time>2026-04-12T13:33:10Z</time></trkpt><trkpt lat="43.579589397677104" lon="11.212321490322857"><ele>174.66666666666669</ele><time>2026-04-12T13:33:11Z</time></trkpt><trkpt lat="43.57974901603813" lon="11.212268177063379"><ele>174.33333333333334</ele><time>2026-04-12T13:33:12Z</time></trkpt><trkpt lat="43.57990471330639" lon="11.212213488571633"><ele>174.0</ele><time>2026-04-12T13:33:13Z</time></trkpt><trkpt lat="43.58006030188382" lon="11.212169300128595"><ele>174.0</ele><time>2026-04-12T13:33:14Z</time></trkpt><trkpt lat="43.580220732241635" lon="11.212114982251073"><ele>174.0</ele><time>2026-04-12T13:33:15Z</time></trkpt><trkpt lat="43.58038919238756" lon="11.212083107103789"><ele>174.0</ele><time>2026-04-12T13:33:16Z</time></trkpt><trkpt lat="43.580559550102194" lon="11.212053058875673"><ele>174.0</ele><time>2026-04-12T13:33:17Z</time></trkpt><trkpt lat="43.58073436258379" lon="11.212046658579053"><ele>174.0</ele><time>2026-04-12T13:33:18Z</time></trkpt><trkpt lat="43.58090243323022" lon="11.212001403780553"><ele>174.0</ele><time>2026-04-12T13:33:19Z</time></trkpt><trkpt lat="43.581074710684284" lon="11.212000134485798"><ele>174.66666666666666</ele><time>2026-04-12T13:33:20Z</time></trkpt><trkpt lat="43.581246477981466" lon="11.212035001273303"><ele>175.33333333333331</ele><time>2026-04-12T13:33:21Z</time></trkpt><trkpt lat="43.58141051418022" lon="11.212106120743297"><ele>176.0</ele><time>2026-04-12T13:33:22Z</time></trkpt><trkpt lat="43.58158380946031" lon="11.212085838377892"><ele>176.0</ele><time>2026-04-12T13:33:23Z</time></trkpt><trkpt lat="43.5817623404249" lon="11.21202481404607"><ele>176.0</ele><time>2026-04-12T13:33:24Z</time></trkpt><trkpt lat="43.5819428571794" lon="11.211944088535391"><ele>176.0</ele><time>2026-04-12T13:33:25Z</time></trkpt><trkpt lat="43.582124884431245" lon="11.21186436843338"><ele>176.66666666666666</ele><time>2026-04-12T13:33:26Z</time></trkpt><trkpt lat="43.582304433328105" lon="11.211784143955503"><ele>177.33333333333334</ele><time>2026-04-12T13:33:27.001Z</time></trkpt><trkpt lat="43.582480464786535" lon="11.211700971551755"><ele>178.0</ele><time>2026-04-12T13:33:28.001Z</time></trkpt><trkpt lat="43.582658521617624" lon="11.211616896698718"><ele>178.0</ele><time>2026-04-12T13:33:29.001Z</time></trkpt><trkpt lat="43.58284539052763" lon="11.211558462756049"><ele>178.0</ele><time>2026-04-12T13:33:30.001Z</time></trkpt><trkpt lat="43.58302955324851" lon="11.21148016040296"><ele>178.0</ele><time>2026-04-12T13:33:31.001Z</time></trkpt><trkpt lat="43.58321208452096" lon="11.211401289967895"><ele>176.66666666666669</ele><time>2026-04-12T13:33:32.001Z</time></trkpt><trkpt lat="43.58339930111587" lon="11.21132394751912"><ele>175.33333333333334</ele><time>2026-04-12T13:33:33.001Z</time></trkpt><trkpt lat="43.583568963803316" lon="11.211192563641784"><ele>174.0</ele><time>2026-04-12T13:33:34.001Z</time></trkpt><trkpt lat="43.58374248647137" lon="11.211050015408228"><ele>174.0</ele><time>2026-04-12T13:33:35.001Z</time></trkpt><trkpt lat="43.583921208372345" lon="11.210886261837825"><ele>174.0</ele><time>2026-04-12T13:33:36.001Z</time></trkpt><trkpt lat="43.584111385125354" lon="11.210732613066602"><ele>174.0</ele><time>2026-04-12T13:33:37.001Z</time></trkpt><trkpt lat="43.58432047410546" lon="11.210625293883176"><ele>173.66666666666666</ele><time>2026-04-12T13:33:38.001Z</time></trkpt><trkpt lat="43.584514113957674" lon="11.210484648823472"><ele>173.33333333333331</ele><time>2026-04-12T13:33:39.001Z</time></trkpt><trkpt lat="43.58471148531631" lon="11.210365924619234"><ele>173.0</ele><time>2026-04-12T13:33:40.001Z</time></trkpt><trkpt lat="43.58490697798163" lon="11.210245865681117"><ele>173.0</ele><time>2026-04-12T13:33:41.001Z</time></trkpt><trkpt lat="43.58510030592478" lon="11.210122233906317"><ele>173.0</ele><time>2026-04-12T13:33:42.001Z</time></trkpt><trkpt lat="43.585289885107144" lon="11.210000144399578"><ele>173.0</ele><time>2026-04-12T13:33:43.001Z</time></trkpt><trkpt lat="43.58547612477276" lon="11.20987960541596"><ele>174.0</ele><time>2026-04-12T13:33:44.001Z</time></trkpt><trkpt lat="43.5856649247117" lon="11.209759691030085"><ele>175.0</ele><time>2026-04-12T13:33:45.001Z</time></trkpt><trkpt lat="43.59438441089561" lon="11.201983889114778"><ele>170.66666666666669</ele><time>2026-04-12T13:34:46Z</time></trkpt><trkpt lat="43.59449513605127" lon="11.201953699452428"><ele>166.33333333333334</ele><time>2026-04-12T13:34:47Z</time></trkpt><trkpt lat="43.594648886568166" lon="11.202064533284684"><ele>162.0</ele><time>2026-04-12T13:34:48Z</time></trkpt><trkpt lat="43.594813839913165" lon="11.202133543567896"><ele>160.66666666666666</ele><time>2026-04-12T13:34:49Z</time></trkpt><trkpt lat="43.594993015105445" lon="11.202212020676928"><ele>159.33333333333331</ele><time>2026-04-12T13:34:50Z</time></trkpt><trkpt lat="43.595185281953235" lon="11.202294212961663"><ele>158.0</ele><time>2026-04-12T13:34:51Z</time></trkpt><trkpt lat="43.59538140898484" lon="11.202380069338915"><ele>160.66666666666666</ele><time>2026-04-12T13:34:52Z</time></trkpt><trkpt lat="43.59556556811228" lon="11.202453427191754"><ele>163.33333333333334</ele><time>2026-04-12T13:34:53Z</time></trkpt><trkpt lat="43.59575306694964" lon="11.202477464682739"><ele>166.0</ele><time>2026-04-12T13:34:54Z</time></trkpt><trkpt lat="43.59595349740181" lon="11.202453446592283"><ele>166.0</ele><time>2026-04-12T13:34:55Z</time></trkpt><trkpt lat="43.59614816346372" lon="11.202419964797333"><ele>166.0</ele><time>2026-04-12T13:34:56Z</time></trkpt><trkpt lat="43.59631189500113" lon="11.202387421861603"><ele>166.0</ele><time>2026-04-12T13:34:57Z</time></trkpt><trkpt lat="43.59645792714344" lon="11.202315463675466"><ele>164.66666666666669</ele><time>2026-04-12T13:34:58Z</time></trkpt><trkpt lat="43.596589702882476" lon="11.202176794778516"><ele>163.33333333333334</ele><time>2026-04-12T13:34:59Z</time></trkpt><trkpt lat="43.59671187169108" lon="11.20199121863491"><ele>162.0</ele><time>2026-04-12T13:35:00Z</time></trkpt><trkpt lat="43.596836360511524" lon="11.201775934995345"><ele>162.0</ele><time>2026-04-12T13:35:01Z</time></trkpt><trkpt lat="43.59696944747259" lon="11.20157267902369"><ele>162.0</ele><time>2026-04-12T13:35:02Z</time></trkpt><trkpt lat="43.59710687053035" lon="11.201365854130573"><ele>162.0</ele><time>2026-04-12T13:35:03Z</time></trkpt><trkpt lat="43.59723731552591" lon="11.201161021682648"><ele>161.33333333333334</ele><time>2026-04-12T13:35:04Z</time></trkpt><trkpt lat="43.5973508465937" lon="11.200963385733516"><ele>160.66666666666669</ele><time>2026-04-12T13:35:05Z</time></trkpt><trkpt lat="43.59746490698724" lon="11.200747404611866"><ele>160.0</ele><time>2026-04-12T13:35:06Z</time></trkpt><trkpt lat="43.59758775519242" lon="11.200524052288484"><ele>160.0</ele><time>2026-04-12T13:35:07Z</time></trkpt><trkpt lat="43.59771582418524" lon="11.200291299115475"><ele>160.0</ele><time>2026-04-12T13:35:08Z</time></trkpt><trkpt lat="43.59785162091944" lon="11.200059809507902"><ele>160.0</ele><time>2026-04-12T13:35:09Z</time></trkpt><trkpt lat="43.5979952948084" lon="11.199832659825745"><ele>160.33333333333334</ele><time>2026-04-12T13:35:10Z</time></trkpt><trkpt lat="43.59813741016827" lon="11.19961896531426"><ele>160.66666666666666</ele><time>2026-04-12T13:35:11Z</time></trkpt><trkpt lat="43.59826306851418" lon="11.19943655646255"><ele>161.0</ele><time>2026-04-12T13:35:12Z</time></trkpt><trkpt lat="43.59838630517153" lon="11.199280723852098"><ele>161.0</ele><time>2026-04-12T13:35:13Z</time></trkpt><trkpt lat="43.59853489249652" lon="11.199145381963856"><ele>161.0</ele><time>2026-04-12T13:35:14Z</time></trkpt><trkpt lat="43.59870646921801" lon="11.199034875912641"><ele>161.0</ele><time>2026-04-12T13:35:15Z</time></trkpt><trkpt lat="43.598887694565846" lon="11.198926696952595"><ele>160.33333333333331</ele><time>2026-04-12T13:35:16Z</time></trkpt><trkpt lat="43.59906886745915" lon="11.198799239599424"><ele>159.66666666666666</ele><time>2026-04-12T13:35:17Z</time></trkpt><trkpt lat="43.59924988825506" lon="11.198653814954351"><ele>159.0</ele><time>2026-04-12T13:35:18Z</time></trkpt><trkpt lat="43.59942917919554" lon="11.198499548850544"><ele>159.0</ele><time>2026-04-12T13:35:19Z</time></trkpt><trkpt lat="43.59959300616659" lon="11.198366578218977"><ele>159.0</ele><time>2026-04-12T13:35:20Z</time></trkpt><trkpt lat="43.599733444949266" lon="11.198252094911577"><ele>159.0</ele><time>2026-04-12T13:35:21Z</time></trkpt><trkpt lat="43.59985418019599" lon="11.19811622111361"><ele>159.0</ele><time>2026-04-12T13:35:22Z</time></trkpt><trkpt lat="43.59997853737466" lon="11.197961120716853"><ele>159.0</ele><time>2026-04-12T13:35:23Z</time></trkpt><trkpt lat="43.60010770141878" lon="11.197815800891641"><ele>159.0</ele><time>2026-04-12T13:35:24Z</time></trkpt><trkpt lat="43.60024825800945" lon="11.197697963010881"><ele>159.0</ele><time>2026-04-12T13:35:25Z</time></trkpt><trkpt lat="43.600415759548845" lon="11.197608967553148"><ele>159.0</ele><time>2026-04-12T13:35:26Z</time></trkpt><trkpt lat="43.600599316239915" lon="11.197528687587724"><ele>159.0</ele><time>2026-04-12T13:35:27Z</time></trkpt><trkpt lat="43.60079189163646" lon="11.197439147525987"><ele>159.0</ele><time>2026-04-12T13:35:28Z</time></trkpt><trkpt lat="43.60098941617582" lon="11.19733564761543"><ele>159.0</ele><time>2026-04-12T13:35:29Z</time></trkpt><trkpt lat="43.60117580277065" lon="11.197218352441302"><ele>159.0</ele><time>2026-04-12T13:35:30Z</time></trkpt><trkpt lat="43.601354996083806" lon="11.197073285178494"><ele>158.66666666666666</ele><time>2026-04-12T13:35:31Z</time></trkpt><trkpt lat="43.60151984716644" lon="11.196902651377211"><ele>158.33333333333331</ele><time>2026-04-12T13:35:32Z</time></trkpt><trkpt lat="43.60166015845938" lon="11.196729673615748"><ele>158.0</ele><time>2026-04-12T13:35:33.001Z</time></trkpt><trkpt lat="43.60180164187895" lon="11.196562343078703"><ele>156.66666666666666</ele><time>2026-04-12T13:35:34.001Z</time></trkpt><trkpt lat="43.60195773468215" lon="11.196418245797648"><ele>155.33333333333334</ele><time>2026-04-12T13:35:35.001Z</time></trkpt><trkpt lat="43.60214021161505" lon="11.196300007500032"><ele>154.0</ele><time>2026-04-12T13:35:36.001Z</time></trkpt><trkpt lat="43.602334613324935" lon="11.1961884347979"><ele>154.0</ele><time>2026-04-12T13:35:37.001Z</time></trkpt><trkpt lat="43.60253352291157" lon="11.196065286459296"><ele>154.0</ele><time>2026-04-12T13:35:38.001Z</time></trkpt><trkpt lat="43.60273470390266" lon="11.19591956396365"><ele>154.0</ele><time>2026-04-12T13:35:39.001Z</time></trkpt><trkpt lat="43.602938108945175" lon="11.195761850112874"><ele>151.5</ele><time>2026-04-12T13:35:40.001Z</time></trkpt><trkpt lat="43.60315095639018" lon="11.195615226886723"><ele>149.0</ele><time>2026-04-12T13:35:41.001Z</time></trkpt><trkpt lat="43.60337327044648" lon="11.19548161101958"><ele>149.0</ele><time>2026-04-12T13:35:42.001Z</time></trkpt><trkpt lat="43.603601927745125" lon="11.195365688212693"><ele>149.0</ele><time>2026-04-12T13:35:43.001Z</time></trkpt><trkpt lat="43.6038394791853" lon="11.195265378307354"><ele>149.5</ele><time>2026-04-12T13:35:44.001Z</time></trkpt><trkpt lat="43.60407985490255" lon="11.195181608458833"><ele>150.0</ele><time>2026-04-12T13:35:45.001Z</time></trkpt><trkpt lat="43.614262472971554" lon="11.190842126684574"><ele>150.0</ele><time>2026-04-12T13:36:46Z</time></trkpt><trkpt lat="43.614403629660394" lon="11.19078187931491"><ele>150.0</ele><time>2026-04-12T13:36:47Z</time></trkpt><trkpt lat="43.61454245331283" lon="11.190726168105643"><ele>150.0</ele><time>2026-04-12T13:36:48Z</time></trkpt><trkpt lat="43.61467990833524" lon="11.190670883944275"><ele>150.0</ele><time>2026-04-12T13:36:49Z</time></trkpt><trkpt lat="43.61481497424588" lon="11.19061897645488"><ele>150.0</ele><time>2026-04-12T13:36:50Z</time></trkpt><trkpt lat="43.61494867683456" lon="11.190567084173608"><ele>150.0</ele><time>2026-04-12T13:36:51Z</time></trkpt><trkpt lat="43.61508155905746" lon="11.190528114771746"><ele>150.0</ele><time>2026-04-12T13:36:52Z</time></trkpt><trkpt lat="43.61521146141163" lon="11.190504230841938"><ele>150.0</ele><time>2026-04-12T13:36:53Z</time></trkpt><trkpt lat="43.615336494256454" lon="11.19047604426643"><ele>150.0</ele><time>2026-04-12T13:36:54Z</time></trkpt><trkpt lat="43.61546101379869" lon="11.190446626531523"><ele>150.0</ele><time>2026-04-12T13:36:55Z</time></trkpt><trkpt lat="43.61558527405297" lon="11.1904108949641"><ele>150.0</ele><time>2026-04-12T13:36:56Z</time></trkpt><trkpt lat="43.61570720404947" lon="11.190368479312788"><ele>150.0</ele><time>2026-04-12T13:36:57Z</time></trkpt><trkpt lat="43.61582882227221" lon="11.190321983053702"><ele>150.0</ele><time>2026-04-12T13:36:58Z</time></trkpt><trkpt lat="43.61594966096383" lon="11.190268326435396"><ele>150.0</ele><time>2026-04-12T13:36:59Z</time></trkpt><trkpt lat="43.61605780008067" lon="11.190219980578432"><ele>150.0</ele><time>2026-04-12T13:37:00Z</time></trkpt><trkpt lat="43.61615680692203" lon="11.19017204968755"><ele>150.0</ele><time>2026-04-12T13:37:01Z</time></trkpt><trkpt lat="43.61624922717151" lon="11.190125929913046"><ele>150.0</ele><time>2026-04-12T13:37:02Z</time></trkpt><trkpt lat="43.61633064120101" lon="11.190075807938209"><ele>150.0</ele><time>2026-04-12T13:37:03Z</time></trkpt><trkpt lat="43.61641186284776" lon="11.190006558088022"><ele>150.0</ele><time>2026-04-12T13:37:04Z</time></trkpt><trkpt lat="43.61650196900397" lon="11.189925493207495"><ele>150.0</ele><time>2026-04-12T13:37:05Z</time></trkpt><trkpt lat="43.61659987850492" lon="11.189846746399605"><ele>150.0</ele><time>2026-04-12T13:37:06Z</time></trkpt><trkpt lat="43.61670854653432" lon="11.189785416204387"><ele>150.0</ele><time>2026-04-12T13:37:07Z</time></trkpt><trkpt lat="43.616808386583564" lon="11.189699568323642"><ele>150.0</ele><time>2026-04-12T13:37:08Z</time></trkpt><trkpt lat="43.61690083082589" lon="11.189582246386973"><ele>150.0</ele><time>2026-04-12T13:37:09Z</time></trkpt><trkpt lat="43.61700961577385" lon="11.18947872854687"><ele>150.0</ele><time>2026-04-12T13:37:10Z</time></trkpt><trkpt lat="43.61713165122822" lon="11.189381164469003"><ele>150.0</ele><time>2026-04-12T13:37:11Z</time></trkpt><trkpt lat="43.61726544416769" lon="11.189288229201235"><ele>149.33333333333334</ele><time>2026-04-12T13:37:12Z</time></trkpt><trkpt lat="43.61741255263804" lon="11.189202560689647"><ele>148.66666666666669</ele><time>2026-04-12T13:37:13Z</time></trkpt><trkpt lat="43.61757091634232" lon="11.18912994834385"><ele>148.0</ele><time>2026-04-12T13:37:14Z</time></trkpt><trkpt lat="43.61773205625777" lon="11.189066234020107"><ele>145.66666666666669</ele><time>2026-04-12T13:37:15Z</time></trkpt><trkpt lat="43.617908975513004" lon="11.189001866762528"><ele>143.33333333333334</ele><time>2026-04-12T13:37:16Z</time></trkpt><trkpt lat="43.61808907390348" lon="11.188929376154068"><ele>141.0</ele><time>2026-04-12T13:37:17Z</time></trkpt><trkpt lat="43.61827307524742" lon="11.188851385640506"><ele>141.0</ele><time>2026-04-12T13:37:18Z</time></trkpt><trkpt lat="43.61845818340817" lon="11.188777806810512"><ele>141.0</ele><time>2026-04-12T13:37:19Z</time></trkpt><trkpt lat="43.61863389100472" lon="11.188705917067109"><ele>141.0</ele><time>2026-04-12T13:37:20Z</time></trkpt><trkpt lat="43.61880030803297" lon="11.188630589256592"><ele>141.33333333333334</ele><time>2026-04-12T13:37:21Z</time></trkpt><trkpt lat="43.61896552606495" lon="11.188540311081141"><ele>141.66666666666669</ele><time>2026-04-12T13:37:22Z</time></trkpt><trkpt lat="43.61913683829308" lon="11.188446981581132"><ele>142.0</ele><time>2026-04-12T13:37:23Z</time></trkpt><trkpt lat="43.61929367967813" lon="11.188290580476947"><ele>142.0</ele><time>2026-04-12T13:37:24Z</time></trkpt><trkpt lat="43.619425934289836" lon="11.188095898610502"><ele>142.0</ele><time>2026-04-12T13:37:25Z</time></trkpt><trkpt lat="43.619559570740385" lon="11.187909416025256"><ele>142.0</ele><time>2026-04-12T13:37:26Z</time></trkpt><trkpt lat="43.61969519204465" lon="11.18773757355335"><ele>142.0</ele><time>2026-04-12T13:37:27Z</time></trkpt><trkpt lat="43.61984263181583" lon="11.187593346265169"><ele>142.0</ele><time>2026-04-12T13:37:28Z</time></trkpt><trkpt lat="43.62001659890447" lon="11.187505030767385"><ele>142.0</ele><time>2026-04-12T13:37:29Z</time></trkpt><trkpt lat="43.62020055902637" lon="11.187423795752396"><ele>143.33333333333334</ele><time>2026-04-12T13:37:30Z</time></trkpt><trkpt lat="43.620380289212015" lon="11.187370906321645"><ele>144.66666666666666</ele><time>2026-04-12T13:37:31Z</time></trkpt><trkpt lat="43.62056359111673" lon="11.187321392774804"><ele>146.0</ele><time>2026-04-12T13:37:32Z</time></trkpt><trkpt lat="43.62075159005768" lon="11.18727178519242"><ele>143.33333333333331</ele><time>2026-04-12T13:37:33Z</time></trkpt><trkpt lat="43.6209405183111" lon="11.187221443212941"><ele>140.66666666666666</ele><time>2026-04-12T13:37:34Z</time></trkpt><trkpt lat="43.62112643884921" lon="11.187168592676858"><ele>138.0</ele><time>2026-04-12T13:37:35Z</time></trkpt><trkpt lat="43.621313561714096" lon="11.18711563440777"><ele>138.0</ele><time>2026-04-12T13:37:36Z</time></trkpt><trkpt lat="43.621503244889105" lon="11.187058820823498"><ele>138.0</ele><time>2026-04-12T13:37:37Z</time></trkpt><trkpt lat="43.62169259484729" lon="11.186997739792723"><ele>138.0</ele><time>2026-04-12T13:37:38Z</time></trkpt><trkpt lat="43.62187097897351" lon="11.186935344021514"><ele>140.66666666666666</ele><time>2026-04-12T13:37:39Z</time></trkpt><trkpt lat="43.62203827808863" lon="11.186866276843213"><ele>143.33333333333331</ele><time>2026-04-12T13:37:40Z</time></trkpt><trkpt lat="43.62219830918368" lon="11.186795991636156"><ele>146.0</ele><time>2026-04-12T13:37:41Z</time></trkpt><trkpt lat="43.622344860919" lon="11.186719805490021"><ele>146.0</ele><time>2026-04-12T13:37:42.001Z</time></trkpt><trkpt lat="43.62249258920716" lon="11.186643683190304"><ele>146.0</ele><time>2026-04-12T13:37:43.001Z</time></trkpt><trkpt lat="43.62263802334191" lon="11.186569272941231"><ele>146.0</ele><time>2026-04-12T13:37:44.001Z</time></trkpt><trkpt lat="43.622786055479644" lon="11.186492763702775"><ele>137.0</ele><time>2026-04-12T13:37:45.001Z</time></trkpt><trkpt lat="43.631693524188584" lon="11.183045575803"><ele>137.0</ele><time>2026-04-12T13:38:46.001Z</time></trkpt><trkpt lat="43.631940072807986" lon="11.182968858488533"><ele>137.0</ele><time>2026-04-12T13:38:47.001Z</time></trkpt><trkpt lat="43.63218421864085" lon="11.182886407532532"><ele>141.0</ele><time>2026-04-12T13:38:48Z</time></trkpt><trkpt lat="43.63241917740355" lon="11.182789982344556"><ele>145.0</ele><time>2026-04-12T13:38:49Z</time></trkpt><trkpt lat="43.63266419833533" lon="11.182689963517957"><ele>146.0</ele><time>2026-04-12T13:38:50Z</time></trkpt><trkpt lat="43.63289004144864" lon="11.18256522214369"><ele>147.0</ele><time>2026-04-12T13:38:51Z</time></trkpt><trkpt lat="43.6331138217141" lon="11.18242414743688"><ele>144.0</ele><time>2026-04-12T13:38:52Z</time></trkpt><trkpt lat="43.63333479021414" lon="11.182275790468248"><ele>141.0</ele><time>2026-04-12T13:38:53Z</time></trkpt><trkpt lat="43.63355702916807" lon="11.182133247050421"><ele>138.5</ele><time>2026-04-12T13:38:54Z</time></trkpt><trkpt lat="43.63377962869074" lon="11.18199221438888"><ele>136.0</ele><time>2026-04-12T13:38:55Z</time></trkpt><trkpt lat="43.63400169171301" lon="11.18185022078714"><ele>136.0</ele><time>2026-04-12T13:38:56Z</time></trkpt><trkpt lat="43.63422330517132" lon="11.181708532727543"><ele>136.0</ele><time>2026-04-12T13:38:57Z</time></trkpt><trkpt lat="43.634443939841574" lon="11.181562125065604"><ele>138.0</ele><time>2026-04-12T13:38:58Z</time></trkpt><trkpt lat="43.634668207786575" lon="11.181415878767037"><ele>140.0</ele><time>2026-04-12T13:38:59Z</time></trkpt><trkpt lat="43.63489031397032" lon="11.181273665438917"><ele>140.0</ele><time>2026-04-12T13:39:00Z</time></trkpt><trkpt lat="43.63511663245708" lon="11.181133034055087"><ele>140.0</ele><time>2026-04-12T13:39:01Z</time></trkpt><trkpt lat="43.635343027771654" lon="11.180991967312789"><ele>143.5</ele><time>2026-04-12T13:39:02Z</time></trkpt><trkpt lat="43.635566389340674" lon="11.180845389717053"><ele>147.0</ele><time>2026-04-12T13:39:03Z</time></trkpt><trkpt lat="43.63578759781718" lon="11.18070169474605"><ele>144.5</ele><time>2026-04-12T13:39:04Z</time></trkpt><trkpt lat="43.636011979510805" lon="11.180562332817697"><ele>142.0</ele><time>2026-04-12T13:39:05Z</time></trkpt><trkpt lat="43.636238375377815" lon="11.180432023390779"><ele>150.0</ele><time>2026-04-12T13:39:06Z</time></trkpt><trkpt lat="43.63646583178801" lon="11.18031165442572"><ele>158.0</ele><time>2026-04-12T13:39:07Z</time></trkpt><trkpt lat="43.636692916520595" lon="11.180208790265544"><ele>158.0</ele><time>2026-04-12T13:39:08Z</time></trkpt><trkpt lat="43.63693045259612" lon="11.180098379401823"><ele>158.0</ele><time>2026-04-12T13:39:09Z</time></trkpt><trkpt lat="43.63716417634465" lon="11.179992223596473"><ele>158.5</ele><time>2026-04-12T13:39:10Z</time></trkpt><trkpt lat="43.63740135507427" lon="11.17989213047123"><ele>159.0</ele><time>2026-04-12T13:39:11Z</time></trkpt><trkpt lat="43.637635503165825" lon="11.179792005291052"><ele>163.0</ele><time>2026-04-12T13:39:12Z</time></trkpt><trkpt lat="43.63786999604191" lon="11.179681765452308"><ele>167.0</ele><time>2026-04-12T13:39:13Z</time></trkpt><trkpt lat="43.63810705447979" lon="11.179575279066512"><ele>167.0</ele><time>2026-04-12T13:39:14Z</time></trkpt><trkpt lat="43.6383451529958" lon="11.179480896650125"><ele>167.0</ele><time>2026-04-12T13:39:15Z</time></trkpt><trkpt lat="43.63858494730521" lon="11.179389869929787"><ele>171.5</ele><time>2026-04-12T13:39:16Z</time></trkpt><trkpt lat="43.63882394855205" lon="11.179303614193964"><ele>176.0</ele><time>2026-04-12T13:39:17Z</time></trkpt><trkpt lat="43.63906132484046" lon="11.179218634244638"><ele>176.0</ele><time>2026-04-12T13:39:18Z</time></trkpt><trkpt lat="43.63930142884993" lon="11.179137144552193"><ele>176.0</ele><time>2026-04-12T13:39:19Z</time></trkpt><trkpt lat="43.63954214075407" lon="11.17906149831008"><ele>179.5</ele><time>2026-04-12T13:39:20Z</time></trkpt><trkpt lat="43.639781971979914" lon="11.178984233708592"><ele>183.0</ele><time>2026-04-12T13:39:21Z</time></trkpt><trkpt lat="43.64002274650731" lon="11.178899086403975"><ele>183.0</ele><time>2026-04-12T13:39:22Z</time></trkpt><trkpt lat="43.64025851209799" lon="11.17880613165363"><ele>183.0</ele><time>2026-04-12T13:39:23Z</time></trkpt><trkpt lat="43.640494934181596" lon="11.178710205265526"><ele>178.5</ele><time>2026-04-12T13:39:24Z</time></trkpt><trkpt lat="43.64073173066929" lon="11.178615518408739"><ele>174.0</ele><time>2026-04-12T13:39:25Z</time></trkpt><trkpt lat="43.64097049561706" lon="11.178525323047756"><ele>180.0</ele><time>2026-04-12T13:39:26Z</time></trkpt><trkpt lat="43.64120994352624" lon="11.178438128594633"><ele>186.0</ele><time>2026-04-12T13:39:27Z</time></trkpt><trkpt lat="43.64144942930142" lon="11.178356789216071"><ele>186.0</ele><time>2026-04-12T13:39:28Z</time></trkpt><trkpt lat="43.641687839980854" lon="11.178279103792237"><ele>186.0</ele><time>2026-04-12T13:39:29Z</time></trkpt><trkpt lat="43.641931361971196" lon="11.17821538833021"><ele>186.0</ele><time>2026-04-12T13:39:30Z</time></trkpt><trkpt lat="43.64217697265075" lon="11.17817343692853"><ele>186.0</ele><time>2026-04-12T13:39:31Z</time></trkpt><trkpt lat="43.64242383542466" lon="11.178157276573575"><ele>186.0</ele><time>2026-04-12T13:39:32Z</time></trkpt><trkpt lat="43.64267286709465" lon="11.17816013029006"><ele>186.0</ele><time>2026-04-12T13:39:33Z</time></trkpt><trkpt lat="43.64291837123881" lon="11.178177908667692"><ele>190.5</ele><time>2026-04-12T13:39:34Z</time></trkpt><trkpt lat="43.6431644324024" lon="11.178211733739532"><ele>195.0</ele><time>2026-04-12T13:39:35Z</time></trkpt><trkpt lat="43.6434095854964" lon="11.178266389879147"><ele>190.5</ele><time>2026-04-12T13:39:36Z</time></trkpt><trkpt lat="43.64365082644224" lon="11.17834400439819"><ele>186.0</ele><time>2026-04-12T13:39:37Z</time></trkpt><trkpt lat="43.643884622594086" lon="11.178440232438367"><ele>186.0</ele><time>2026-04-12T13:39:38Z</time></trkpt><trkpt lat="43.64411780674787" lon="11.1785446277438"><ele>186.0</ele><time>2026-04-12T13:39:39Z</time></trkpt><trkpt lat="43.64434804363895" lon="11.17867497531877"><ele>182.0</ele><time>2026-04-12T13:39:40.001Z</time></trkpt><trkpt lat="43.64457228794699" lon="11.178820088765978"><ele>178.0</ele><time>2026-04-12T13:39:41.001Z</time></trkpt><trkpt lat="43.644787825477344" lon="11.178985055208242"><ele>185.5</ele><time>2026-04-12T13:39:42.001Z</time></trkpt><trkpt lat="43.64499910229012" lon="11.17916920969245"><ele>193.0</ele><time>2026-04-12T13:39:43.001Z</time></trkpt><trkpt lat="43.645203531115506" lon="11.179361532142618"><ele>190.5</ele><time>2026-04-12T13:39:44.001Z</time></trkpt><trkpt lat="43.64540229371946" lon="11.179570370577776"><ele>188.0</ele><time>2026-04-12T13:39:45.001Z</time></trkpt><trkpt lat="43.654282682765704" lon="11.19400833976715"><ele>237.0</ele><time>2026-04-12T13:40:46.064Z</time></trkpt><trkpt lat="43.65444984673517" lon="11.194238528060522"><ele>286.0</ele><time>2026-04-12T13:40:47.066Z</time></trkpt><trkpt lat="43.65460823684564" lon="11.19447273256681"><ele>283.0</ele><time>2026-04-12T13:40:48.061Z</time></trkpt><trkpt lat="43.65476517483774" lon="11.194706523226172"><ele>280.0</ele><time>2026-04-12T13:40:49.063Z</time></trkpt><trkpt lat="43.654918261486515" lon="11.194929643720942"><ele>246.0</ele><time>2026-04-12T13:40:50.035Z</time></trkpt><trkpt lat="43.6557756254175" lon="11.196173336779545"><ele>246.0</ele><time>2026-04-12T13:40:54.001Z</time></trkpt><trkpt lat="43.655977194874474" lon="11.196460949338125"><ele>246.0</ele><time>2026-04-12T13:40:55.001Z</time></trkpt><trkpt lat="43.65617163718724" lon="11.196746967940447"><ele>237.5</ele><time>2026-04-12T13:40:56.001Z</time></trkpt><trkpt lat="43.65634526697968" lon="11.197024487597925"><ele>229.0</ele><time>2026-04-12T13:40:57.001Z</time></trkpt><trkpt lat="43.65653018306226" lon="11.197313020934146"><ele>231.0</ele><time>2026-04-12T13:40:58.001Z</time></trkpt><trkpt lat="43.65670176568793" lon="11.197614495603549"><ele>233.0</ele><time>2026-04-12T13:40:59.001Z</time></trkpt><trkpt lat="43.65686834418322" lon="11.197902579864213"><ele>229.0</ele><time>2026-04-12T13:41:00Z</time></trkpt><trkpt lat="43.657034732377184" lon="11.198204597141995"><ele>225.0</ele><time>2026-04-12T13:41:01Z</time></trkpt><trkpt lat="43.657193993638835" lon="11.198522584582927"><ele>225.0</ele><time>2026-04-12T13:41:02Z</time></trkpt><trkpt lat="43.65734415179646" lon="11.198841029200489"><ele>225.0</ele><time>2026-04-12T13:41:03Z</time></trkpt><trkpt lat="43.65748194380915" lon="11.199174294364596"><ele>222.5</ele><time>2026-04-12T13:41:04Z</time></trkpt><trkpt lat="43.65761498275338" lon="11.199513103882605"><ele>220.0</ele><time>2026-04-12T13:41:05Z</time></trkpt><trkpt lat="43.65774624436279" lon="11.19985674761435"><ele>224.5</ele><time>2026-04-12T13:41:06Z</time></trkpt><trkpt lat="43.65786635679799" lon="11.200204607220838"><ele>229.0</ele><time>2026-04-12T13:41:07Z</time></trkpt><trkpt lat="43.65798712175193" lon="11.200554877905313"><ele>225.5</ele><time>2026-04-12T13:41:08Z</time></trkpt><trkpt lat="43.65810922879034" lon="11.200909513187373"><ele>222.0</ele><time>2026-04-12T13:41:09Z</time></trkpt><trkpt lat="43.6582304790082" lon="11.201278126321563"><ele>218.0</ele><time>2026-04-12T13:41:10Z</time></trkpt><trkpt lat="43.65835129937538" lon="11.201644968698666"><ele>214.0</ele><time>2026-04-12T13:41:11Z</time></trkpt><trkpt lat="43.658472336096885" lon="11.20199352389294"><ele>214.0</ele><time>2026-04-12T13:41:12Z</time></trkpt><trkpt lat="43.65860770104715" lon="11.202322144005537"><ele>214.0</ele><time>2026-04-12T13:41:13Z</time></trkpt><trkpt lat="43.658764815750125" lon="11.202639106591352"><ele>211.0</ele><time>2026-04-12T13:41:14Z</time></trkpt><trkpt lat="43.65894313442548" lon="11.202942931925335"><ele>208.0</ele><time>2026-04-12T13:41:15Z</time></trkpt><trkpt lat="43.65912778393631" lon="11.203236796378745"><ele>208.0</ele><time>2026-04-12T13:41:16Z</time></trkpt><trkpt lat="43.659325560940836" lon="11.203509963833442"><ele>208.0</ele><time>2026-04-12T13:41:17Z</time></trkpt><trkpt lat="43.659538137397135" lon="11.203767510492295"><ele>208.5</ele><time>2026-04-12T13:41:18Z</time></trkpt><trkpt lat="43.65975727994565" lon="11.204008937154848"><ele>209.0</ele><time>2026-04-12T13:41:19Z</time></trkpt><trkpt lat="43.659989052827854" lon="11.204233264175285"><ele>209.0</ele><time>2026-04-12T13:41:20Z</time></trkpt><trkpt lat="43.6602285382587" lon="11.20444105190429"><ele>209.0</ele><time>2026-04-12T13:41:21Z</time></trkpt><trkpt lat="43.66046556723396" lon="11.204650633281052"><ele>203.0</ele><time>2026-04-12T13:41:22Z</time></trkpt><trkpt lat="43.660702677022265" lon="11.204856693615568"><ele>197.0</ele><time>2026-04-12T13:41:23Z</time></trkpt><trkpt lat="43.66093837651198" lon="11.205063265739264"><ele>201.5</ele><time>2026-04-12T13:41:24Z</time></trkpt><trkpt lat="43.66117703142468" lon="11.205270208599222"><ele>206.0</ele><time>2026-04-12T13:41:25Z</time></trkpt><trkpt lat="43.661415725913265" lon="11.205472929939262"><ele>197.5</ele><time>2026-04-12T13:41:26Z</time></trkpt><trkpt lat="43.66165556670724" lon="11.205679120428957"><ele>189.0</ele><time>2026-04-12T13:41:27Z</time></trkpt><trkpt lat="43.661894657025364" lon="11.205885508315516"><ele>191.0</ele><time>2026-04-12T13:41:28Z</time></trkpt><trkpt lat="43.66213375570269" lon="11.206094507019753"><ele>193.0</ele><time>2026-04-12T13:41:29Z</time></trkpt><trkpt lat="43.662373899709195" lon="11.206305024596876"><ele>184.5</ele><time>2026-04-12T13:41:30Z</time></trkpt><trkpt lat="43.66261531348028" lon="11.20651450150971"><ele>176.0</ele><time>2026-04-12T13:41:31Z</time></trkpt><trkpt lat="43.66285653066055" lon="11.206725870690198"><ele>172.5</ele><time>2026-04-12T13:41:32Z</time></trkpt><trkpt lat="43.66309742636689" lon="11.206940957371593"><ele>169.0</ele><time>2026-04-12T13:41:33Z</time></trkpt><trkpt lat="43.6633389206348" lon="11.207151450891395"><ele>165.5</ele><time>2026-04-12T13:41:34Z</time></trkpt><trkpt lat="43.663581994822366" lon="11.207363650339452"><ele>162.0</ele><time>2026-04-12T13:41:35Z</time></trkpt><trkpt lat="43.66382631504972" lon="11.207571059137832"><ele>169.0</ele><time>2026-04-12T13:41:36Z</time></trkpt><trkpt lat="43.66406815657821" lon="11.207782257877154"><ele>176.0</ele><time>2026-04-12T13:41:37Z</time></trkpt><trkpt lat="43.66430893670776" lon="11.207994578492013"><ele>177.5</ele><time>2026-04-12T13:41:38Z</time></trkpt><trkpt lat="43.66455139293779" lon="11.208204487920659"><ele>179.0</ele><time>2026-04-12T13:41:39Z</time></trkpt><trkpt lat="43.66479457897338" lon="11.208411402585782"><ele>179.0</ele><time>2026-04-12T13:41:40Z</time></trkpt><trkpt lat="43.66503643633893" lon="11.208614103127658"><ele>179.0</ele><time>2026-04-12T13:41:41Z</time></trkpt><trkpt lat="43.665282627699824" lon="11.208812880527963"><ele>176.0</ele><time>2026-04-12T13:41:42Z</time></trkpt><trkpt lat="43.66553426714467" lon="11.208989101608895"><ele>173.0</ele><time>2026-04-12T13:41:43Z</time></trkpt><trkpt lat="43.665795403065914" lon="11.209141410201553"><ele>173.0</ele><time>2026-04-12T13:41:44Z</time></trkpt><trkpt lat="43.66606534823383" lon="11.20926578185729"><ele>173.0</ele><time>2026-04-12T13:41:45Z</time></trkpt><trkpt lat="43.678386920931445" lon="11.21116252803122"><ele>141.0</ele><time>2026-04-12T13:42:46.001Z</time></trkpt><trkpt lat="43.678590220184866" lon="11.211311391196599"><ele>109.0</ele><time>2026-04-12T13:42:47.001Z</time></trkpt><trkpt lat="43.67879707119533" lon="11.21145810991912"><ele>109.0</ele><time>2026-04-12T13:42:48.001Z</time></trkpt><trkpt lat="43.679007491039386" lon="11.211594833191375"><ele>109.0</ele><time>2026-04-12T13:42:49.001Z</time></trkpt><trkpt lat="43.67921307257277" lon="11.211725789263923"><ele>109.0</ele><time>2026-04-12T13:42:50.001Z</time></trkpt><trkpt lat="43.67942124163816" lon="11.211841532639008"><ele>109.0</ele><time>2026-04-12T13:42:51.001Z</time></trkpt><trkpt lat="43.6796357250824" lon="11.211945244461688"><ele>105.66666666666667</ele><time>2026-04-12T13:42:52.001Z</time></trkpt><trkpt lat="43.67985172072349" lon="11.212032805391875"><ele>102.33333333333334</ele><time>2026-04-12T13:42:53.001Z</time></trkpt><trkpt lat="43.68006701118856" lon="11.212103105363052"><ele>99.0</ele><time>2026-04-12T13:42:54.001Z</time></trkpt><trkpt lat="43.68028193333746" lon="11.212158260119844"><ele>98.0</ele><time>2026-04-12T13:42:55.001Z</time></trkpt><trkpt lat="43.6804875458594" lon="11.212198455023856"><ele>97.0</ele><time>2026-04-12T13:42:56.001Z</time></trkpt><trkpt lat="43.68069209964486" lon="11.212224861649444"><ele>96.0</ele><time>2026-04-12T13:42:57.001Z</time></trkpt><trkpt lat="43.68089581442897" lon="11.212234060757707"><ele>96.0</ele><time>2026-04-12T13:42:58.001Z</time></trkpt><trkpt lat="43.68110420541866" lon="11.212233636754775"><ele>96.0</ele><time>2026-04-12T13:42:59.001Z</time></trkpt><trkpt lat="43.681312384830036" lon="11.212222193649858"><ele>96.0</ele><time>2026-04-12T13:43:00.001Z</time></trkpt><trkpt lat="43.68151847478313" lon="11.21219865688936"><ele>96.0</ele><time>2026-04-12T13:43:01.001Z</time></trkpt><trkpt lat="43.681729124147296" lon="11.212162821126"><ele>96.0</ele><time>2026-04-12T13:43:02.001Z</time></trkpt><trkpt lat="43.68194010672799" lon="11.212121797122553"><ele>96.0</ele><time>2026-04-12T13:43:03.001Z</time></trkpt><trkpt lat="43.68215734679584" lon="11.212079353878043"><ele>96.0</ele><time>2026-04-12T13:43:04.001Z</time></trkpt><trkpt lat="43.68237241614525" lon="11.212034199245569"><ele>96.0</ele><time>2026-04-12T13:43:05Z</time></trkpt><trkpt lat="43.682588411493704" lon="11.21199386781617"><ele>96.0</ele><time>2026-04-12T13:43:06Z</time></trkpt><trkpt lat="43.6828064903379" lon="11.21195389779963"><ele>97.33333333333334</ele><time>2026-04-12T13:43:07Z</time></trkpt><trkpt lat="43.683027581619605" lon="11.211913674320277"><ele>98.66666666666667</ele><time>2026-04-12T13:43:08Z</time></trkpt><trkpt lat="43.68325107090977" lon="11.211868966350538"><ele>100.0</ele><time>2026-04-12T13:43:09Z</time></trkpt><trkpt lat="43.68347744238919" lon="11.211816839221331"><ele>106.0</ele><time>2026-04-12T13:43:10Z</time></trkpt><trkpt lat="43.683708757274836" lon="11.211765259969338"><ele>112.0</ele><time>2026-04-12T13:43:11Z</time></trkpt><trkpt lat="43.68393878422736" lon="11.211712550870145"><ele>112.0</ele><time>2026-04-12T13:43:12Z</time></trkpt><trkpt lat="43.684174578395385" lon="11.211660683520776"><ele>112.0</ele><time>2026-04-12T13:43:13Z</time></trkpt><trkpt lat="43.684409553902825" lon="11.211611485350812"><ele>112.0</ele><time>2026-04-12T13:43:14Z</time></trkpt><trkpt lat="43.684637739934075" lon="11.211567925556318"><ele>112.0</ele><time>2026-04-12T13:43:15Z</time></trkpt><trkpt lat="43.68487746730929" lon="11.211522775549643"><ele>112.0</ele><time>2026-04-12T13:43:16Z</time></trkpt><trkpt lat="43.685110536550354" lon="11.211490996803692"><ele>112.0</ele><time>2026-04-12T13:43:17Z</time></trkpt><trkpt lat="43.68535066363088" lon="11.211428266851492"><ele>121.0</ele><time>2026-04-12T13:43:18Z</time></trkpt><trkpt lat="43.685588713387894" lon="11.211383294543023"><ele>130.0</ele><time>2026-04-12T13:43:19Z</time></trkpt><trkpt lat="43.685824092525074" lon="11.211335866548346"><ele>130.0</ele><time>2026-04-12T13:43:20Z</time></trkpt><trkpt lat="43.68604342341913" lon="11.211294904069684"><ele>130.0</ele><time>2026-04-12T13:43:21Z</time></trkpt><trkpt lat="43.68625766195895" lon="11.211252419355143"><ele>130.0</ele><time>2026-04-12T13:43:22Z</time></trkpt><trkpt lat="43.68648029029076" lon="11.211209594780678"><ele>123.5</ele><time>2026-04-12T13:43:23Z</time></trkpt><trkpt lat="43.68671061398424" lon="11.21116487774849"><ele>117.0</ele><time>2026-04-12T13:43:24Z</time></trkpt><trkpt lat="43.686946631662906" lon="11.211123237822227"><ele>112.5</ele><time>2026-04-12T13:43:25Z</time></trkpt><trkpt lat="43.687189655956765" lon="11.211087213113402"><ele>108.0</ele><time>2026-04-12T13:43:26Z</time></trkpt><trkpt lat="43.6874421452046" lon="11.211077715609106"><ele>108.0</ele><time>2026-04-12T13:43:27Z</time></trkpt><trkpt lat="43.68770491546461" lon="11.211097942973504"><ele>108.0</ele><time>2026-04-12T13:43:28Z</time></trkpt><trkpt lat="43.68797961260521" lon="11.211144522203428"><ele>101.5</ele><time>2026-04-12T13:43:29Z</time></trkpt><trkpt lat="43.688254576953724" lon="11.211215212897496"><ele>95.0</ele><time>2026-04-12T13:43:30Z</time></trkpt><trkpt lat="43.688531649469454" lon="11.211320758712452"><ele>94.0</ele><time>2026-04-12T13:43:31Z</time></trkpt><trkpt lat="43.6888060574522" lon="11.21146274297006"><ele>93.0</ele><time>2026-04-12T13:43:32Z</time></trkpt><trkpt lat="43.68907516535665" lon="11.21163536651913"><ele>93.0</ele><time>2026-04-12T13:43:33Z</time></trkpt><trkpt lat="43.68933813759564" lon="11.211833661027459"><ele>93.0</ele><time>2026-04-12T13:43:34Z</time></trkpt><trkpt lat="43.68958801468964" lon="11.21204651102938"><ele>92.5</ele><time>2026-04-12T13:43:35Z</time></trkpt><trkpt lat="43.68983593658518" lon="11.212262920616133"><ele>92.0</ele><time>2026-04-12T13:43:36Z</time></trkpt><trkpt lat="43.69008367671456" lon="11.212463878806917"><ele>93.0</ele><time>2026-04-12T13:43:37Z</time></trkpt><trkpt lat="43.690336483580495" lon="11.212643086779625"><ele>94.0</ele><time>2026-04-12T13:43:38Z</time></trkpt><trkpt lat="43.69059935626796" lon="11.212788523264834"><ele>94.0</ele><time>2026-04-12T13:43:39Z</time></trkpt><trkpt lat="43.69086893120981" lon="11.21290047282793"><ele>94.0</ele><time>2026-04-12T13:43:40Z</time></trkpt><trkpt lat="43.691142733640085" lon="11.21299479561643"><ele>93.0</ele><time>2026-04-12T13:43:41Z</time></trkpt><trkpt lat="43.69141969398119" lon="11.213069295142896"><ele>92.0</ele><time>2026-04-12T13:43:42Z</time></trkpt><trkpt lat="43.69170060802866" lon="11.213115666916845"><ele>91.5</ele><time>2026-04-12T13:43:43Z</time></trkpt><trkpt lat="43.69198138959397" lon="11.213133239985776"><ele>91.0</ele><time>2026-04-12T13:43:44Z</time></trkpt><trkpt lat="43.692264073373245" lon="11.21311652237209"><ele>75.0</ele><time>2026-04-12T13:43:45Z</time></trkpt><trkpt lat="43.708323466524526" lon="11.213100448700793"><ele>74.5</ele><time>2026-04-12T13:44:46.001Z</time></trkpt><trkpt lat="43.708580256309396" lon="11.213113041153532"><ele>74.0</ele><time>2026-04-12T13:44:47.001Z</time></trkpt><trkpt lat="43.70882820095315" lon="11.213146791339733"><ele>73.5</ele><time>2026-04-12T13:44:48.001Z</time></trkpt><trkpt lat="43.709079237638214" lon="11.21318371535638"><ele>73.0</ele><time>2026-04-12T13:44:49.001Z</time></trkpt><trkpt lat="43.709335847161" lon="11.213242302432022"><ele>73.0</ele><time>2026-04-12T13:44:50.001Z</time></trkpt><trkpt lat="43.70959154637929" lon="11.213335748416071"><ele>73.0</ele><time>2026-04-12T13:44:51.001Z</time></trkpt><trkpt lat="43.70984008235517" lon="11.213449946242363"><ele>73.0</ele><time>2026-04-12T13:44:52.001Z</time></trkpt><trkpt lat="43.71008348079206" lon="11.213586102970307"><ele>73.0</ele><time>2026-04-12T13:44:53.001Z</time></trkpt><trkpt lat="43.71032814524478" lon="11.213726740019434"><ele>72.5</ele><time>2026-04-12T13:44:54.001Z</time></trkpt><trkpt lat="43.710566501566774" lon="11.213871256560742"><ele>72.0</ele><time>2026-04-12T13:44:55.001Z</time></trkpt><trkpt lat="43.710802735326524" lon="11.214023924826686"><ele>72.0</ele><time>2026-04-12T13:44:56.001Z</time></trkpt><trkpt lat="43.711038543620525" lon="11.214174124323192"><ele>72.0</ele><time>2026-04-12T13:44:57.001Z</time></trkpt><trkpt lat="43.71127524812918" lon="11.214323674788632"><ele>73.5</ele><time>2026-04-12T13:44:58.001Z</time></trkpt><trkpt lat="43.71151334429982" lon="11.214474236270012"><ele>75.0</ele><time>2026-04-12T13:44:59.001Z</time></trkpt><trkpt lat="43.71175099765959" lon="11.21463128981685"><ele>74.0</ele><time>2026-04-12T13:45:00.001Z</time></trkpt><trkpt lat="43.711985085196545" lon="11.214787707609384"><ele>73.0</ele><time>2026-04-12T13:45:01.001Z</time></trkpt><trkpt lat="43.712218246598816" lon="11.214942045331862"><ele>73.0</ele><time>2026-04-12T13:45:02.001Z</time></trkpt><trkpt lat="43.712449402647295" lon="11.215101099056543"><ele>73.0</ele><time>2026-04-12T13:45:03.001Z</time></trkpt><trkpt lat="43.712676536673705" lon="11.215273620960756"><ele>71.5</ele><time>2026-04-12T13:45:04.001Z</time></trkpt><trkpt lat="43.71289321532382" lon="11.215466553416045"><ele>70.0</ele><time>2026-04-12T13:45:05.001Z</time></trkpt><trkpt lat="43.713097120648285" lon="11.215684454676989"><ele>70.0</ele><time>2026-04-12T13:45:06.001Z</time></trkpt><trkpt lat="43.713289842505795" lon="11.215917513843292"><ele>70.0</ele><time>2026-04-12T13:45:07.001Z</time></trkpt><trkpt lat="43.7134700452342" lon="11.216166720701057"><ele>72.5</ele><time>2026-04-12T13:45:08.001Z</time></trkpt><trkpt lat="43.7136381812169" lon="11.216428560451991"><ele>75.0</ele><time>2026-04-12T13:45:09.001Z</time></trkpt><trkpt lat="43.71379189214884" lon="11.216709300738792"><ele>75.0</ele><time>2026-04-12T13:45:10.001Z</time></trkpt><trkpt lat="43.713931558822956" lon="11.217000593622222"><ele>75.0</ele><time>2026-04-12T13:45:11Z</time></trkpt><trkpt lat="43.71406256564576" lon="11.217301732856546"><ele>73.5</ele><time>2026-04-12T13:45:12Z</time></trkpt><trkpt lat="43.7141858375068" lon="11.217606805304564"><ele>72.0</ele><time>2026-04-12T13:45:13Z</time></trkpt><trkpt lat="43.714311223772164" lon="11.217908792239374"><ele>77.5</ele><time>2026-04-12T13:45:14Z</time></trkpt><trkpt lat="43.714446889905204" lon="11.218205590028846"><ele>83.0</ele><time>2026-04-12T13:45:15Z</time></trkpt><trkpt lat="43.71460399758346" lon="11.218496404773441"><ele>83.0</ele><time>2026-04-12T13:45:16Z</time></trkpt><trkpt lat="43.714784148872894" lon="11.218771416799434"><ele>83.0</ele><time>2026-04-12T13:45:17Z</time></trkpt><trkpt lat="43.71498023809167" lon="11.219024527068186"><ele>84.5</ele><time>2026-04-12T13:45:18Z</time></trkpt><trkpt lat="43.71518636895632" lon="11.2192624201023"><ele>86.0</ele><time>2026-04-12T13:45:19Z</time></trkpt><trkpt lat="43.71539959835913" lon="11.21948702907546"><ele>86.0</ele><time>2026-04-12T13:45:20Z</time></trkpt><trkpt lat="43.71562139196405" lon="11.21968761723804"><ele>86.0</ele><time>2026-04-12T13:45:21Z</time></trkpt><trkpt lat="43.71585042181768" lon="11.219867539632395"><ele>83.5</ele><time>2026-04-12T13:45:22Z</time></trkpt><trkpt lat="43.71608926158545" lon="11.220022699149695"><ele>81.0</ele><time>2026-04-12T13:45:23Z</time></trkpt><trkpt lat="43.71633060942481" lon="11.220155523050964"><ele>81.0</ele><time>2026-04-12T13:45:24Z</time></trkpt><trkpt lat="43.71657321218586" lon="11.220262334057232"><ele>81.0</ele><time>2026-04-12T13:45:25Z</time></trkpt><trkpt lat="43.71681479263941" lon="11.22034182389685"><ele>83.0</ele><time>2026-04-12T13:45:26Z</time></trkpt><trkpt lat="43.71704987124837" lon="11.220394384712044"><ele>85.0</ele><time>2026-04-12T13:45:27Z</time></trkpt><trkpt lat="43.71727906931429" lon="11.220427695433433"><ele>85.0</ele><time>2026-04-12T13:45:28Z</time></trkpt><trkpt lat="43.717507750234475" lon="11.220450008942041"><ele>85.0</ele><time>2026-04-12T13:45:29Z</time></trkpt><trkpt lat="43.71773264690303" lon="11.220454579255328"><ele>84.33333333333333</ele><time>2026-04-12T13:45:30Z</time></trkpt><trkpt lat="43.71795658233846" lon="11.220452167368096"><ele>83.66666666666667</ele><time>2026-04-12T13:45:31Z</time></trkpt><trkpt lat="43.71817760458867" lon="11.220449486259508"><ele>83.0</ele><time>2026-04-12T13:45:32Z</time></trkpt><trkpt lat="43.718398875790236" lon="11.220451700111262"><ele>81.66666666666667</ele><time>2026-04-12T13:45:33Z</time></trkpt><trkpt lat="43.718612118418655" lon="11.22044974643978"><ele>80.33333333333333</ele><time>2026-04-12T13:45:34Z</time></trkpt><trkpt lat="43.718807868802635" lon="11.220452441437986"><ele>79.0</ele><time>2026-04-12T13:45:35Z</time></trkpt><trkpt lat="43.71898246964387" lon="11.220458661346678"><ele>79.0</ele><time>2026-04-12T13:45:36Z</time></trkpt><trkpt lat="43.71913325038181" lon="11.22046185433111"><ele>79.0</ele><time>2026-04-12T13:45:37Z</time></trkpt><trkpt lat="43.71926437575699" lon="11.220467732577584"><ele>79.0</ele><time>2026-04-12T13:45:38Z</time></trkpt><trkpt lat="43.71938114479366" lon="11.220496265219971"><ele>79.0</ele><time>2026-04-12T13:45:39Z</time></trkpt><trkpt lat="43.719478717979484" lon="11.220553180895873"><ele>78.0</ele><time>2026-04-12T13:45:40Z</time></trkpt><trkpt lat="43.71955874108968" lon="11.22062365895328"><ele>77.0</ele><time>2026-04-12T13:45:41Z</time></trkpt><trkpt lat="43.71962536667531" lon="11.220701821784388"><ele>76.0</ele><time>2026-04-12T13:45:42Z</time></trkpt><trkpt lat="43.71968187642248" lon="11.22079227762291"><ele>75.0</ele><time>2026-04-12T13:45:43Z</time></trkpt><trkpt lat="43.71974443355103" lon="11.22089811056031"><ele>74.0</ele><time>2026-04-12T13:45:44Z</time></trkpt><trkpt lat="43.71978756573675" lon="11.220997616238503"><ele>75.0</ele><time>2026-04-12T13:45:45Z</time></trkpt><trkpt lat="43.722861115086076" lon="11.221973734777144"><ele>75.0</ele><time>2026-04-12T13:46:46.001Z</time></trkpt><trkpt lat="43.72300371256864" lon="11.221978405680634"><ele>75.0</ele><time>2026-04-12T13:46:47.001Z</time></trkpt><trkpt lat="43.72314847826585" lon="11.221993127539315"><ele>75.0</ele><time>2026-04-12T13:46:48.001Z</time></trkpt><trkpt lat="43.72328808714673" lon="11.222012216314718"><ele>75.0</ele><time>2026-04-12T13:46:49.001Z</time></trkpt><trkpt lat="43.7234200950429" lon="11.222032503201357"><ele>75.0</ele><time>2026-04-12T13:46:50.001Z</time></trkpt><trkpt lat="43.72354146408648" lon="11.222050390147157"><ele>75.0</ele><time>2026-04-12T13:46:51.001Z</time></trkpt><trkpt lat="43.72365713810596" lon="11.222063908590656"><ele>75.0</ele><time>2026-04-12T13:46:52.001Z</time></trkpt><trkpt lat="43.72375537466556" lon="11.22207538195953"><ele>75.0</ele><time>2026-04-12T13:46:53.001Z</time></trkpt><trkpt lat="43.723846149109775" lon="11.222083438538347"><ele>75.0</ele><time>2026-04-12T13:46:54.001Z</time></trkpt><trkpt lat="43.723947086599075" lon="11.222105399448981"><ele>75.16666666666667</ele><time>2026-04-12T13:46:55.001Z</time></trkpt><trkpt lat="43.724036719413704" lon="11.222146135744545"><ele>75.33333333333333</ele><time>2026-04-12T13:46:56.001Z</time></trkpt><trkpt lat="43.72411788451114" lon="11.222179689033673"><ele>75.5</ele><time>2026-04-12T13:46:57.001Z</time></trkpt><trkpt lat="43.72418722271242" lon="11.22223916590666"><ele>75.66666666666666</ele><time>2026-04-12T13:46:58.001Z</time></trkpt><trkpt lat="43.724243928110965" lon="11.222324753019295"><ele>75.83333333333333</ele><time>2026-04-12T13:46:59.001Z</time></trkpt><trkpt lat="43.724276313933146" lon="11.222424430259835"><ele>76.0</ele><time>2026-04-12T13:47:00.001Z</time></trkpt><trkpt lat="43.72428876856046" lon="11.222532117803004"><ele>75.0</ele><time>2026-04-12T13:47:01.001Z</time></trkpt><trkpt lat="43.72428010358225" lon="11.222633226186202"><ele>74.0</ele><time>2026-04-12T13:47:02.001Z</time></trkpt><trkpt lat="43.72425129119184" lon="11.222737955125927"><ele>73.0</ele><time>2026-04-12T13:47:03.001Z</time></trkpt><trkpt lat="43.72419637074339" lon="11.22282732930327"><ele>72.0</ele><time>2026-04-12T13:47:04.001Z</time></trkpt><trkpt lat="43.72412034306006" lon="11.22289887834937"><ele>71.0</ele><time>2026-04-12T13:47:05.001Z</time></trkpt><trkpt lat="43.72402958781626" lon="11.222937041988928"><ele>70.0</ele><time>2026-04-12T13:47:06.001Z</time></trkpt><trkpt lat="43.72393500502721" lon="11.222930925816401"><ele>70.0</ele><time>2026-04-12T13:47:07.001Z</time></trkpt><trkpt lat="43.72385528397661" lon="11.222880839064484"><ele>70.0</ele><time>2026-04-12T13:47:08.001Z</time></trkpt><trkpt lat="43.72378881787101" lon="11.222805473904476"><ele>70.0</ele><time>2026-04-12T13:47:09.001Z</time></trkpt><trkpt lat="43.723744541129186" lon="11.222714238919334"><ele>70.0</ele><time>2026-04-12T13:47:10.001Z</time></trkpt><trkpt lat="43.72372155718445" lon="11.222608299956452"><ele>70.0</ele><time>2026-04-12T13:47:11.001Z</time></trkpt><trkpt lat="43.723713953589495" lon="11.222499204136257"><ele>70.0</ele><time>2026-04-12T13:47:12.001Z</time></trkpt><trkpt lat="43.72371913483746" lon="11.222388635415074"><ele>71.2</ele><time>2026-04-12T13:47:13.001Z</time></trkpt><trkpt lat="43.72373330164492" lon="11.22229071546849"><ele>72.4</ele><time>2026-04-12T13:47:14.001Z</time></trkpt><trkpt lat="43.72375293895287" lon="11.222173156021245"><ele>73.6</ele><time>2026-04-12T13:47:15.001Z</time></trkpt><trkpt lat="43.72377137048493" lon="11.222028196854513"><ele>74.8</ele><time>2026-04-12T13:47:16.001Z</time></trkpt><trkpt lat="43.72384133725614" lon="11.221876244348723"><ele>76.0</ele><time>2026-04-12T13:47:17Z</time></trkpt><trkpt lat="43.72391239913975" lon="11.221695165940584"><ele>76.0</ele><time>2026-04-12T13:47:18Z</time></trkpt><trkpt lat="43.72399546692089" lon="11.221493699142043"><ele>76.0</ele><time>2026-04-12T13:47:19Z</time></trkpt><trkpt lat="43.72409048580807" lon="11.221279364763719"><ele>76.0</ele><time>2026-04-12T13:47:20Z</time></trkpt><trkpt lat="43.724195034085355" lon="11.221056757136045"><ele>75.33333333333333</ele><time>2026-04-12T13:47:21Z</time></trkpt><trkpt lat="43.72430750585364" lon="11.220832487126255"><ele>74.66666666666667</ele><time>2026-04-12T13:47:22Z</time></trkpt><trkpt lat="43.72442562858772" lon="11.220597388581655"><ele>74.0</ele><time>2026-04-12T13:47:23Z</time></trkpt><trkpt lat="43.724553857777096" lon="11.220354144868605"><ele>74.0</ele><time>2026-04-12T13:47:24Z</time></trkpt><trkpt lat="43.72469382787117" lon="11.220103625333065"><ele>74.0</ele><time>2026-04-12T13:47:25Z</time></trkpt><trkpt lat="43.724838241118555" lon="11.219837924189703"><ele>79.5</ele><time>2026-04-12T13:47:26Z</time></trkpt><trkpt lat="43.724991153441934" lon="11.219561604561637"><ele>85.0</ele><time>2026-04-12T13:47:27Z</time></trkpt><trkpt lat="43.72515152559546" lon="11.21928056906331"><ele>84.0</ele><time>2026-04-12T13:47:28Z</time></trkpt><trkpt lat="43.72531702421759" lon="11.21899539918959"><ele>83.0</ele><time>2026-04-12T13:47:29Z</time></trkpt><trkpt lat="43.725483527091725" lon="11.2187082477234"><ele>85.5</ele><time>2026-04-12T13:47:30Z</time></trkpt><trkpt lat="43.72564645361858" lon="11.21842090918007"><ele>88.0</ele><time>2026-04-12T13:47:31Z</time></trkpt><trkpt lat="43.725805737304086" lon="11.21813353887938"><ele>90.5</ele><time>2026-04-12T13:47:32Z</time></trkpt><trkpt lat="43.725960571537534" lon="11.217845691356386"><ele>93.0</ele><time>2026-04-12T13:47:33Z</time></trkpt><trkpt lat="43.72611224672708" lon="11.217554169377815"><ele>88.0</ele><time>2026-04-12T13:47:34Z</time></trkpt><trkpt lat="43.72625932436211" lon="11.217247813940274"><ele>83.0</ele><time>2026-04-12T13:47:35Z</time></trkpt><trkpt lat="43.726417671936396" lon="11.216939198876574"><ele>83.0</ele><time>2026-04-12T13:47:36Z</time></trkpt><trkpt lat="43.7264984126773" lon="11.21657292955446"><ele>83.0</ele><time>2026-04-12T13:47:37Z</time></trkpt><trkpt lat="43.726591597395036" lon="11.216204018234482"><ele>86.0</ele><time>2026-04-12T13:47:38Z</time></trkpt><trkpt lat="43.726669999171456" lon="11.215840096283419"><ele>89.0</ele><time>2026-04-12T13:47:39Z</time></trkpt><trkpt lat="43.726735855890794" lon="11.215470263555043"><ele>91.5</ele><time>2026-04-12T13:47:40Z</time></trkpt><trkpt lat="43.726787127064334" lon="11.21508346294836"><ele>94.0</ele><time>2026-04-12T13:47:41Z</time></trkpt><trkpt lat="43.726817326162" lon="11.214676817049217"><ele>94.5</ele><time>2026-04-12T13:47:42Z</time></trkpt><trkpt lat="43.72683910345983" lon="11.214251782432259"><ele>95.0</ele><time>2026-04-12T13:47:43Z</time></trkpt><trkpt lat="43.726859607481906" lon="11.213812983455519"><ele>95.5</ele><time>2026-04-12T13:47:44Z</time></trkpt><trkpt lat="43.72688534732943" lon="11.213373098563231"><ele>96.0</ele><time>2026-04-12T13:47:45Z</time></trkpt><trkpt lat="43.732814509655505" lon="11.188507879007124"><ele>91.0</ele><time>2026-04-12T13:48:46.001Z</time></trkpt><trkpt lat="43.73310221285053" lon="11.188261946239235"><ele>86.0</ele><time>2026-04-12T13:48:47.001Z</time></trkpt><trkpt lat="43.73340672403109" lon="11.188047507448761"><ele>81.5</ele><time>2026-04-12T13:48:48.001Z</time></trkpt><trkpt lat="43.733718696618006" lon="11.187861684658682"><ele>77.0</ele><time>2026-04-12T13:48:49.001Z</time></trkpt><trkpt lat="43.73403656350954" lon="11.187695120985133"><ele>77.0</ele><time>2026-04-12T13:48:50.001Z</time></trkpt><trkpt lat="43.73435468251052" lon="11.187532945319584"><ele>77.0</ele><time>2026-04-12T13:48:51.001Z</time></trkpt><trkpt lat="43.7346722890927" lon="11.187372567148572"><ele>79.0</ele><time>2026-04-12T13:48:52.001Z</time></trkpt><trkpt lat="43.734987508287695" lon="11.187210309542536"><ele>81.0</ele><time>2026-04-12T13:48:53.001Z</time></trkpt><trkpt lat="43.73530131890696" lon="11.187040328230172"><ele>81.0</ele><time>2026-04-12T13:48:54.001Z</time></trkpt><trkpt lat="43.73561531192439" lon="11.186865226390605"><ele>81.0</ele><time>2026-04-12T13:48:55.001Z</time></trkpt><trkpt lat="43.73592533036733" lon="11.186687439409338"><ele>83.5</ele><time>2026-04-12T13:48:56.001Z</time></trkpt><trkpt lat="43.73623238826165" lon="11.186503085155238"><ele>86.0</ele><time>2026-04-12T13:48:57.001Z</time></trkpt><trkpt lat="43.736537118504806" lon="11.186302465436553"><ele>86.0</ele><time>2026-04-12T13:48:58.001Z</time></trkpt><trkpt lat="43.73683829172863" lon="11.186089426741582"><ele>86.0</ele><time>2026-04-12T13:48:59.001Z</time></trkpt><trkpt lat="43.73713784963778" lon="11.185863378384969"><ele>82.0</ele><time>2026-04-12T13:49:00.001Z</time></trkpt><trkpt lat="43.737429729796844" lon="11.185627986372904"><ele>78.0</ele><time>2026-04-12T13:49:01.001Z</time></trkpt><trkpt lat="43.73772157704792" lon="11.185384132032432"><ele>72.5</ele><time>2026-04-12T13:49:02.001Z</time></trkpt><trkpt lat="43.73800951743339" lon="11.185136661673997"><ele>67.0</ele><time>2026-04-12T13:49:03.001Z</time></trkpt><trkpt lat="43.73829416172675" lon="11.184882857834939"><ele>66.0</ele><time>2026-04-12T13:49:04.001Z</time></trkpt><trkpt lat="43.738579704788094" lon="11.184627477759934"><ele>65.0</ele><time>2026-04-12T13:49:05.001Z</time></trkpt><trkpt lat="43.73886280822048" lon="11.184371714700081"><ele>65.0</ele><time>2026-04-12T13:49:06.001Z</time></trkpt><trkpt lat="43.73914725065574" lon="11.184113310310355"><ele>65.0</ele><time>2026-04-12T13:49:07.001Z</time></trkpt><trkpt lat="43.73943125265031" lon="11.18385781327296"><ele>64.0</ele><time>2026-04-12T13:49:08.001Z</time></trkpt><trkpt lat="43.739716863335204" lon="11.183597694343975"><ele>63.0</ele><time>2026-04-12T13:49:09.001Z</time></trkpt><trkpt lat="43.73999840595438" lon="11.18333662779017"><ele>63.0</ele><time>2026-04-12T13:49:10.001Z</time></trkpt><trkpt lat="43.74027964820926" lon="11.183073751626395"><ele>63.0</ele><time>2026-04-12T13:49:11.001Z</time></trkpt><trkpt lat="43.74056343061331" lon="11.182812428542455"><ele>63.0</ele><time>2026-04-12T13:49:12.001Z</time></trkpt><trkpt lat="43.74084359219853" lon="11.182547176396403"><ele>63.0</ele><time>2026-04-12T13:49:13.001Z</time></trkpt><trkpt lat="43.74112498220571" lon="11.182284295137318"><ele>61.0</ele><time>2026-04-12T13:49:14.001Z</time></trkpt><trkpt lat="43.74140662072274" lon="11.182018081821495"><ele>59.0</ele><time>2026-04-12T13:49:15.001Z</time></trkpt><trkpt lat="43.741687521358685" lon="11.18175485038824"><ele>58.0</ele><time>2026-04-12T13:49:16.001Z</time></trkpt><trkpt lat="43.74196799652232" lon="11.181490560022892"><ele>57.0</ele><time>2026-04-12T13:49:17.001Z</time></trkpt><trkpt lat="43.74224872429948" lon="11.181223917411415"><ele>57.0</ele><time>2026-04-12T13:49:18.001Z</time></trkpt><trkpt lat="43.74252698080566" lon="11.180953172470025"><ele>57.0</ele><time>2026-04-12T13:49:19.001Z</time></trkpt><trkpt lat="43.7428065449923" lon="11.180688419246943"><ele>57.5</ele><time>2026-04-12T13:49:20.001Z</time></trkpt><trkpt lat="43.74307811165398" lon="11.18041206661516"><ele>58.0</ele><time>2026-04-12T13:49:21.001Z</time></trkpt><trkpt lat="43.74333763222053" lon="11.180123006805939"><ele>57.5</ele><time>2026-04-12T13:49:22.001Z</time></trkpt><trkpt lat="43.74358020038419" lon="11.179809672314514"><ele>57.0</ele><time>2026-04-12T13:49:23Z</time></trkpt><trkpt lat="43.74379664708703" lon="11.179465762434704"><ele>57.0</ele><time>2026-04-12T13:49:24Z</time></trkpt><trkpt lat="43.74398586842472" lon="11.179094733914507"><ele>57.0</ele><time>2026-04-12T13:49:25Z</time></trkpt><trkpt lat="43.74414962552511" lon="11.178697989029637"><ele>57.5</ele><time>2026-04-12T13:49:26Z</time></trkpt><trkpt lat="43.744293666847895" lon="11.178281116576526"><ele>58.0</ele><time>2026-04-12T13:49:27Z</time></trkpt><trkpt lat="43.74442386643628" lon="11.17784728104346"><ele>58.0</ele><time>2026-04-12T13:49:28Z</time></trkpt><trkpt lat="43.744546078688224" lon="11.177411107263747"><ele>58.0</ele><time>2026-04-12T13:49:29Z</time></trkpt><trkpt lat="43.74466120599954" lon="11.176997475387232"><ele>58.5</ele><time>2026-04-12T13:49:30Z</time></trkpt><trkpt lat="43.74478301048872" lon="11.176604245260387"><ele>59.0</ele><time>2026-04-12T13:49:31Z</time></trkpt><trkpt lat="43.744917262625805" lon="11.176209082538843"><ele>56.5</ele><time>2026-04-12T13:49:32Z</time></trkpt><trkpt lat="43.74506053178441" lon="11.175809778579225"><ele>54.0</ele><time>2026-04-12T13:49:33Z</time></trkpt><trkpt lat="43.745204963651574" lon="11.175401611167064"><ele>54.0</ele><time>2026-04-12T13:49:34Z</time></trkpt><trkpt lat="43.74536225702537" lon="11.174998423119835"><ele>54.0</ele><time>2026-04-12T13:49:35Z</time></trkpt><trkpt lat="43.74554007681666" lon="11.174622539075957"><ele>54.0</ele><time>2026-04-12T13:49:36Z</time></trkpt><trkpt lat="43.74573957380095" lon="11.17427334842479"><ele>54.0</ele><time>2026-04-12T13:49:37Z</time></trkpt><trkpt lat="43.74595450731673" lon="11.173945382541541"><ele>53.0</ele><time>2026-04-12T13:49:38Z</time></trkpt><trkpt lat="43.74618544823932" lon="11.173650450228017"><ele>52.0</ele><time>2026-04-12T13:49:39Z</time></trkpt><trkpt lat="43.746429657242494" lon="11.173382598167299"><ele>52.0</ele><time>2026-04-12T13:49:40Z</time></trkpt><trkpt lat="43.746683121335856" lon="11.17314330858133"><ele>52.0</ele><time>2026-04-12T13:49:41Z</time></trkpt><trkpt lat="43.746945742621996" lon="11.172929827216828"><ele>50.5</ele><time>2026-04-12T13:49:42Z</time></trkpt><trkpt lat="43.74722201309027" lon="11.172742637202083"><ele>49.0</ele><time>2026-04-12T13:49:43Z</time></trkpt><trkpt lat="43.74749801961217" lon="11.172579163725837"><ele>49.0</ele><time>2026-04-12T13:49:44Z</time></trkpt><trkpt lat="43.74778166725008" lon="11.172442281703173"><ele>49.0</ele><time>2026-04-12T13:49:45Z</time></trkpt><trkpt lat="43.76726488572318" lon="11.166335963645063"><ele>43.0</ele><time>2026-04-12T13:50:53.001Z</time></trkpt><trkpt lat="43.767470963302166" lon="11.166180734192567"><ele>37.0</ele><time>2026-04-12T13:50:54.001Z</time></trkpt><trkpt lat="43.7676833925286" lon="11.166034777318028"><ele>37.5</ele><time>2026-04-12T13:50:55.001Z</time></trkpt><trkpt lat="43.76790191355996" lon="11.165871187893593"><ele>38.0</ele><time>2026-04-12T13:50:56.001Z</time></trkpt><trkpt lat="43.76812052288483" lon="11.165709504286067"><ele>38.0</ele><time>2026-04-12T13:50:57.001Z</time></trkpt><trkpt lat="43.76834659303545" lon="11.165544583600637"><ele>38.0</ele><time>2026-04-12T13:50:58.001Z</time></trkpt><trkpt lat="43.76857430279298" lon="11.16537823413052"><ele>39.0</ele><time>2026-04-12T13:50:59.001Z</time></trkpt><trkpt lat="43.76880515610419" lon="11.165210085013689"><ele>40.0</ele><time>2026-04-12T13:51:00.001Z</time></trkpt><trkpt lat="43.76903530315906" lon="11.165037947523041"><ele>40.0</ele><time>2026-04-12T13:51:01.001Z</time></trkpt><trkpt lat="43.76926975479697" lon="11.164867135316921"><ele>40.0</ele><time>2026-04-12T13:51:02.001Z</time></trkpt><trkpt lat="43.76950643999082" lon="11.164697482620506"><ele>38.5</ele><time>2026-04-12T13:51:03.001Z</time></trkpt><trkpt lat="43.76974673619731" lon="11.164529085987938"><ele>37.0</ele><time>2026-04-12T13:51:04.001Z</time></trkpt><trkpt lat="43.76998939432528" lon="11.164366350311933"><ele>37.0</ele><time>2026-04-12T13:51:05.001Z</time></trkpt><trkpt lat="43.770231921526914" lon="11.164206043853952"><ele>37.0</ele><time>2026-04-12T13:51:06.001Z</time></trkpt><trkpt lat="43.77047436622623" lon="11.164061216874904"><ele>36.5</ele><time>2026-04-12T13:51:07.001Z</time></trkpt><trkpt lat="43.77071936092905" lon="11.163905590067595"><ele>36.0</ele><time>2026-04-12T13:51:08.001Z</time></trkpt><trkpt lat="43.770963511380785" lon="11.16375516216884"><ele>37.0</ele><time>2026-04-12T13:51:09.001Z</time></trkpt><trkpt lat="43.771214015159394" lon="11.163615829978482"><ele>38.0</ele><time>2026-04-12T13:51:10.001Z</time></trkpt><trkpt lat="43.771465842971985" lon="11.163482090083825"><ele>38.0</ele><time>2026-04-12T13:51:11.001Z</time></trkpt><trkpt lat="43.77172018738075" lon="11.163351502325623"><ele>38.0</ele><time>2026-04-12T13:51:12.001Z</time></trkpt><trkpt lat="43.7719749052841" lon="11.163232162531425"><ele>36.5</ele><time>2026-04-12T13:51:13.001Z</time></trkpt><trkpt lat="43.77223355877608" lon="11.163119918391704"><ele>35.0</ele><time>2026-04-12T13:51:14.001Z</time></trkpt><trkpt lat="43.772491162294116" lon="11.163012982748036"><ele>35.0</ele><time>2026-04-12T13:51:15.001Z</time></trkpt><trkpt lat="43.77274937351826" lon="11.162910226559978"><ele>35.0</ele><time>2026-04-12T13:51:16.001Z</time></trkpt><trkpt lat="43.77300839153891" lon="11.162811738192527"><ele>35.0</ele><time>2026-04-12T13:51:17.001Z</time></trkpt><trkpt lat="43.77326608869564" lon="11.162717253336758"><ele>35.0</ele><time>2026-04-12T13:51:18.001Z</time></trkpt><trkpt lat="43.77352461367461" lon="11.162625202517487"><ele>34.0</ele><time>2026-04-12T13:51:19.001Z</time></trkpt><trkpt lat="43.77378794228508" lon="11.162534160623387"><ele>33.0</ele><time>2026-04-12T13:51:20.001Z</time></trkpt><trkpt lat="43.7740482586313" lon="11.162450403281472"><ele>33.0</ele><time>2026-04-12T13:51:21.001Z</time></trkpt><trkpt lat="43.77430762017624" lon="11.162371728403707"><ele>33.0</ele><time>2026-04-12T13:51:22.001Z</time></trkpt><trkpt lat="43.77456606370388" lon="11.162295096291883"><ele>34.0</ele><time>2026-04-12T13:51:23.001Z</time></trkpt><trkpt lat="43.774827801349936" lon="11.16221858126919"><ele>35.0</ele><time>2026-04-12T13:51:24.001Z</time></trkpt><trkpt lat="43.7750886001838" lon="11.16214295972564"><ele>34.5</ele><time>2026-04-12T13:51:25.001Z</time></trkpt><trkpt lat="43.775354345228486" lon="11.162069141307473"><ele>34.0</ele><time>2026-04-12T13:51:26.001Z</time></trkpt><trkpt lat="43.77561823035672" lon="11.16199388509412"><ele>34.0</ele><time>2026-04-12T13:51:27.001Z</time></trkpt><trkpt lat="43.775882849624956" lon="11.161913709019425"><ele>34.0</ele><time>2026-04-12T13:51:28.001Z</time></trkpt><trkpt lat="43.77614931400246" lon="11.161835585922734"><ele>35.5</ele><time>2026-04-12T13:51:28.999Z</time></trkpt><trkpt lat="43.77641798365218" lon="11.161755843907889"><ele>37.0</ele><time>2026-04-12T13:51:29.999Z</time></trkpt><trkpt lat="43.776687982233064" lon="11.161681000168214"><ele>35.5</ele><time>2026-04-12T13:51:30.999Z</time></trkpt><trkpt lat="43.77695923248481" lon="11.161608844476584"><ele>34.0</ele><time>2026-04-12T13:51:31.999Z</time></trkpt><trkpt lat="43.777228157889716" lon="11.161533781245275"><ele>34.0</ele><time>2026-04-12T13:51:32.999Z</time></trkpt><trkpt lat="43.77749799308774" lon="11.161458507435828"><ele>34.0</ele><time>2026-04-12T13:51:33.999Z</time></trkpt><trkpt lat="43.7777710505413" lon="11.161380514356408"><ele>34.5</ele><time>2026-04-12T13:51:34.999Z</time></trkpt><trkpt lat="43.778046709573196" lon="11.161296338535035"><ele>35.0</ele><time>2026-04-12T13:51:35.999Z</time></trkpt><trkpt lat="43.778320140370134" lon="11.16121290470135"><ele>36.0</ele><time>2026-04-12T13:51:36.999Z</time></trkpt><trkpt lat="43.77859637132837" lon="11.16113240668025"><ele>37.0</ele><time>2026-04-12T13:51:37.999Z</time></trkpt><trkpt lat="43.77887263858421" lon="11.161047805418654"><ele>37.0</ele><time>2026-04-12T13:51:38.999Z</time></trkpt><trkpt lat="43.779151316055334" lon="11.16097135927597"><ele>37.0</ele><time>2026-04-12T13:51:39.999Z</time></trkpt><trkpt lat="43.77943011856297" lon="11.160894113285492"><ele>36.5</ele><time>2026-04-12T13:51:40.999Z</time></trkpt><trkpt lat="43.77970862733907" lon="11.16081601723301"><ele>36.0</ele><time>2026-04-12T13:51:41.999Z</time></trkpt><trkpt lat="43.7799889373772" lon="11.160738699707709"><ele>36.0</ele><time>2026-04-12T13:51:42.999Z</time></trkpt><trkpt lat="43.78026805480178" lon="11.160659170397002"><ele>36.0</ele><time>2026-04-12T13:51:43.999Z</time></trkpt><trkpt lat="43.78054284866176" lon="11.160580467038665"><ele>36.0</ele><time>2026-04-12T13:51:44.999Z</time></trkpt><trkpt lat="43.797139647111564" lon="11.155940242293246"><ele>36.0</ele><time>2026-04-12T13:52:46Z</time></trkpt><trkpt lat="43.79742369319559" lon="11.155858688155336"><ele>36.0</ele><time>2026-04-12T13:52:47Z</time></trkpt><trkpt lat="43.797712251516344" lon="11.155775237014678"><ele>36.0</ele><time>2026-04-12T13:52:48Z</time></trkpt><trkpt lat="43.797999985875975" lon="11.155691887378525"><ele>36.0</ele><time>2026-04-12T13:52:49Z</time></trkpt><trkpt lat="43.798289739137765" lon="11.155611069012021"><ele>35.5</ele><time>2026-04-12T13:52:50Z</time></trkpt><trkpt lat="43.798579643271545" lon="11.155530837598786"><ele>35.0</ele><time>2026-04-12T13:52:51Z</time></trkpt><trkpt lat="43.7988731745574" lon="11.155450879002895"><ele>35.0</ele><time>2026-04-12T13:52:52Z</time></trkpt><trkpt lat="43.79916479076614" lon="11.15537061318166"><ele>35.0</ele><time>2026-04-12T13:52:53Z</time></trkpt><trkpt lat="43.79945811381484" lon="11.155290982487266"><ele>35.5</ele><time>2026-04-12T13:52:54Z</time></trkpt><trkpt lat="43.799750004546496" lon="11.155212681920727"><ele>36.0</ele><time>2026-04-12T13:52:55Z</time></trkpt><trkpt lat="43.800041864099775" lon="11.155135925824801"><ele>35.5</ele><time>2026-04-12T13:52:56.001Z</time></trkpt><trkpt lat="43.80033619796634" lon="11.155059295397178"><ele>35.0</ele><time>2026-04-12T13:52:57.001Z</time></trkpt><trkpt lat="43.800630579871616" lon="11.15498301503603"><ele>35.0</ele><time>2026-04-12T13:52:58.001Z</time></trkpt><trkpt lat="43.80092553950242" lon="11.154908605606018"><ele>35.0</ele><time>2026-04-12T13:52:59.001Z</time></trkpt><trkpt lat="43.80121998473929" lon="11.154830723920282"><ele>36.0</ele><time>2026-04-12T13:53:00.001Z</time></trkpt><trkpt lat="43.801514854542006" lon="11.15475259665966"><ele>37.0</ele><time>2026-04-12T13:53:01.001Z</time></trkpt><trkpt lat="43.801808430573985" lon="11.154674726902726"><ele>36.5</ele><time>2026-04-12T13:53:02.001Z</time></trkpt><trkpt lat="43.80210060012714" lon="11.15459198959537"><ele>36.0</ele><time>2026-04-12T13:53:03.001Z</time></trkpt><trkpt lat="43.8023924385796" lon="11.154505719356456"><ele>35.0</ele><time>2026-04-12T13:53:04.001Z</time></trkpt><trkpt lat="43.80268067493426" lon="11.154421680202397"><ele>34.0</ele><time>2026-04-12T13:53:05.001Z</time></trkpt><trkpt lat="43.802969029323265" lon="11.154337034389119"><ele>34.0</ele><time>2026-04-12T13:53:06.001Z</time></trkpt><trkpt lat="43.80325830254394" lon="11.154248879628707"><ele>34.0</ele><time>2026-04-12T13:53:07.001Z</time></trkpt><trkpt lat="43.8035510276411" lon="11.154168533154888"><ele>34.5</ele><time>2026-04-12T13:53:08.001Z</time></trkpt><trkpt lat="43.80384347153244" lon="11.154086555863305"><ele>35.0</ele><time>2026-04-12T13:53:09.001Z</time></trkpt><trkpt lat="43.80413880240766" lon="11.154005543777314"><ele>36.0</ele><time>2026-04-12T13:53:10.001Z</time></trkpt><trkpt lat="43.80443753828873" lon="11.153921155300752"><ele>37.0</ele><time>2026-04-12T13:53:11.001Z</time></trkpt><trkpt lat="43.804736698214526" lon="11.15382917541843"><ele>37.0</ele><time>2026-04-12T13:53:12.001Z</time></trkpt><trkpt lat="43.80503777796756" lon="11.15373519541304"><ele>37.0</ele><time>2026-04-12T13:53:13.001Z</time></trkpt><trkpt lat="43.80533857149815" lon="11.153641745015713"><ele>35.5</ele><time>2026-04-12T13:53:14.001Z</time></trkpt><trkpt lat="43.80564130982048" lon="11.153555181683101"><ele>34.0</ele><time>2026-04-12T13:53:15.001Z</time></trkpt><trkpt lat="43.80594244014794" lon="11.153471350352502"><ele>33.5</ele><time>2026-04-12T13:53:16.001Z</time></trkpt><trkpt lat="43.80624563352728" lon="11.153393041998392"><ele>33.0</ele><time>2026-04-12T13:53:17.001Z</time></trkpt><trkpt lat="43.80654880851348" lon="11.15331568709172"><ele>33.5</ele><time>2026-04-12T13:53:18.001Z</time></trkpt><trkpt lat="43.80685132588198" lon="11.153239704450547"><ele>34.0</ele><time>2026-04-12T13:53:19.001Z</time></trkpt><trkpt lat="43.80715503305847" lon="11.153159667224417"><ele>34.0</ele><time>2026-04-12T13:53:20.001Z</time></trkpt><trkpt lat="43.80746320820161" lon="11.153075569186482"><ele>34.0</ele><time>2026-04-12T13:53:21.001Z</time></trkpt><trkpt lat="43.80776722918589" lon="11.1529910718558"><ele>34.0</ele><time>2026-04-12T13:53:22.001Z</time></trkpt><trkpt lat="43.808067906703506" lon="11.152907420744457"><ele>34.0</ele><time>2026-04-12T13:53:23.001Z</time></trkpt><trkpt lat="43.808367013100444" lon="11.152822227506752"><ele>35.0</ele><time>2026-04-12T13:53:24.001Z</time></trkpt><trkpt lat="43.80866726807396" lon="11.15274036794111"><ele>36.0</ele><time>2026-04-12T13:53:25.001Z</time></trkpt><trkpt lat="43.808965900195844" lon="11.152657146703696"><ele>36.0</ele><time>2026-04-12T13:53:26.001Z</time></trkpt><trkpt lat="43.809264154271226" lon="11.152572782268782"><ele>36.0</ele><time>2026-04-12T13:53:27.001Z</time></trkpt><trkpt lat="43.80956590678231" lon="11.15249070761104"><ele>36.5</ele><time>2026-04-12T13:53:28.001Z</time></trkpt><trkpt lat="43.809867932829555" lon="11.152407116300898"><ele>37.0</ele><time>2026-04-12T13:53:29.001Z</time></trkpt><trkpt lat="43.810169276097646" lon="11.1523228469355"><ele>35.5</ele><time>2026-04-12T13:53:30.001Z</time></trkpt><trkpt lat="43.81047075124416" lon="11.152240142481185"><ele>34.0</ele><time>2026-04-12T13:53:31.001Z</time></trkpt><trkpt lat="43.810771940288596" lon="11.15215911584878"><ele>34.0</ele><time>2026-04-12T13:53:32.001Z</time></trkpt><trkpt lat="43.811071313307956" lon="11.152076614321023"><ele>34.0</ele><time>2026-04-12T13:53:33.001Z</time></trkpt><trkpt lat="43.811367630727894" lon="11.151994089248243"><ele>34.0</ele><time>2026-04-12T13:53:34.001Z</time></trkpt><trkpt lat="43.811661003745094" lon="11.151913294633678"><ele>34.0</ele><time>2026-04-12T13:53:34.999Z</time></trkpt><trkpt lat="43.811953316301114" lon="11.151834124920088"><ele>34.5</ele><time>2026-04-12T13:53:35.999Z</time></trkpt><trkpt lat="43.81224521513835" lon="11.151757259261194"><ele>35.0</ele><time>2026-04-12T13:53:36.999Z</time></trkpt><trkpt lat="43.81253756626854" lon="11.151690647010303"><ele>35.0</ele><time>2026-04-12T13:53:37.999Z</time></trkpt><trkpt lat="43.81282962258819" lon="11.151640485462515"><ele>35.0</ele><time>2026-04-12T13:53:38.999Z</time></trkpt><trkpt lat="43.81312498295999" lon="11.151603284735899"><ele>35.0</ele><time>2026-04-12T13:53:39.999Z</time></trkpt><trkpt lat="43.8134216303955" lon="11.151572991353998"><ele>35.0</ele><time>2026-04-12T13:53:40.999Z</time></trkpt><trkpt lat="43.81372283126453" lon="11.151554418694914"><ele>35.0</ele><time>2026-04-12T13:53:41.999Z</time></trkpt><trkpt lat="43.81402335827135" lon="11.151544049632482"><ele>35.0</ele><time>2026-04-12T13:53:42.999Z</time></trkpt><trkpt lat="43.81432551973935" lon="11.151542829471317"><ele>35.0</ele><time>2026-04-12T13:53:43.999Z</time></trkpt><trkpt lat="43.814627231420175" lon="11.151543469629516"><ele>35.0</ele><time>2026-04-12T13:53:44.999Z</time></trkpt><trkpt lat="43.829722175868326" lon="11.154477456404337"><ele>35.666666666666664</ele><time>2026-04-12T13:54:46Z</time></trkpt><trkpt lat="43.829874465848945" lon="11.154607195703976"><ele>36.333333333333336</ele><time>2026-04-12T13:54:47Z</time></trkpt><trkpt lat="43.83002397672278" lon="11.15474164725164"><ele>37.0</ele><time>2026-04-12T13:54:48Z</time></trkpt><trkpt lat="43.83016238728187" lon="11.154867228734824"><ele>37.66666666666667</ele><time>2026-04-12T13:54:49Z</time></trkpt><trkpt lat="43.83029208843788" lon="11.154990013353645"><ele>38.333333333333336</ele><time>2026-04-12T13:54:50Z</time></trkpt><trkpt lat="43.83042235591493" lon="11.155119606857717"><ele>39.0</ele><time>2026-04-12T13:54:51Z</time></trkpt><trkpt lat="43.83054441523753" lon="11.155239203641433"><ele>39.0</ele><time>2026-04-12T13:54:52Z</time></trkpt><trkpt lat="43.83067181661499" lon="11.155347928011908"><ele>39.0</ele><time>2026-04-12T13:54:53Z</time></trkpt><trkpt lat="43.83079831578132" lon="11.15545586903592"><ele>39.0</ele><time>2026-04-12T13:54:54Z</time></trkpt><trkpt lat="43.830929818064455" lon="11.155566821801232"><ele>38.333333333333336</ele><time>2026-04-12T13:54:55Z</time></trkpt><trkpt lat="43.83106630715239" lon="11.155686166432348"><ele>37.66666666666667</ele><time>2026-04-12T13:54:56Z</time></trkpt><trkpt lat="43.83120143874501" lon="11.155808151914941"><ele>37.0</ele><time>2026-04-12T13:54:57Z</time></trkpt><trkpt lat="43.83132803218777" lon="11.155916268692712"><ele>37.75</ele><time>2026-04-12T13:54:58Z</time></trkpt><trkpt lat="43.83145146044633" lon="11.15602126379494"><ele>38.5</ele><time>2026-04-12T13:54:59Z</time></trkpt><trkpt lat="43.8315755893821" lon="11.156129721121195"><ele>39.25</ele><time>2026-04-12T13:55:00Z</time></trkpt><trkpt lat="43.83169757801142" lon="11.156239122936814"><ele>40.0</ele><time>2026-04-12T13:55:01Z</time></trkpt><trkpt lat="43.83182064464848" lon="11.156348817827919"><ele>40.0</ele><time>2026-04-12T13:55:02Z</time></trkpt><trkpt lat="43.83194323080181" lon="11.156456333469361"><ele>40.0</ele><time>2026-04-12T13:55:03Z</time></trkpt><trkpt lat="43.83206565575461" lon="11.156554058629146"><ele>40.0</ele><time>2026-04-12T13:55:04Z</time></trkpt><trkpt lat="43.83218694936198" lon="11.156657260497616"><ele>40.0</ele><time>2026-04-12T13:55:05Z</time></trkpt><trkpt lat="43.832317581695406" lon="11.156766422607886"><ele>40.333333333333336</ele><time>2026-04-12T13:55:06Z</time></trkpt><trkpt lat="43.83244830526842" lon="11.156878675215818"><ele>40.666666666666664</ele><time>2026-04-12T13:55:07Z</time></trkpt><trkpt lat="43.832581445428126" lon="11.156988833769143"><ele>41.0</ele><time>2026-04-12T13:55:08Z</time></trkpt><trkpt lat="43.83271713487892" lon="11.157107700963403"><ele>40.33333333333333</ele><time>2026-04-12T13:55:09Z</time></trkpt><trkpt lat="43.8328563568452" lon="11.157231249469831"><ele>39.666666666666664</ele><time>2026-04-12T13:55:10.001Z</time></trkpt><trkpt lat="43.8329956192357" lon="11.157347753877923"><ele>39.0</ele><time>2026-04-12T13:55:11.001Z</time></trkpt><trkpt lat="43.833122010594735" lon="11.157460410020215"><ele>39.0</ele><time>2026-04-12T13:55:12.001Z</time></trkpt><trkpt lat="43.83325706016206" lon="11.157545432934617"><ele>39.0</ele><time>2026-04-12T13:55:13.001Z</time></trkpt><trkpt lat="43.833361863992735" lon="11.157703966717275"><ele>39.0</ele><time>2026-04-12T13:55:14.001Z</time></trkpt><trkpt lat="43.83348254086407" lon="11.157839620656494"><ele>39.0</ele><time>2026-04-12T13:55:15.001Z</time></trkpt><trkpt lat="43.83361172806845" lon="11.157987416174395"><ele>39.0</ele><time>2026-04-12T13:55:16.001Z</time></trkpt><trkpt lat="43.833745650993436" lon="11.15815593095149"><ele>39.0</ele><time>2026-04-12T13:55:17.001Z</time></trkpt><trkpt lat="43.83387861589652" lon="11.15833531846982"><ele>39.666666666666664</ele><time>2026-04-12T13:55:18.001Z</time></trkpt><trkpt lat="43.8340018859397" lon="11.158537520136377"><ele>40.33333333333333</ele><time>2026-04-12T13:55:19.001Z</time></trkpt><trkpt lat="43.8341098059622" lon="11.158741846286034"><ele>41.0</ele><time>2026-04-12T13:55:20.001Z</time></trkpt><trkpt lat="43.83419633641314" lon="11.158930340818445"><ele>40.33333333333333</ele><time>2026-04-12T13:55:21.001Z</time></trkpt><trkpt lat="43.83427718695687" lon="11.159109648785554"><ele>39.666666666666664</ele><time>2026-04-12T13:55:22.001Z</time></trkpt><trkpt lat="43.83435820244382" lon="11.159284473753978"><ele>39.0</ele><time>2026-04-12T13:55:23.001Z</time></trkpt><trkpt lat="43.83444919998719" lon="11.159470634985235"><ele>38.666666666666664</ele><time>2026-04-12T13:55:24.001Z</time></trkpt><trkpt lat="43.83454800722423" lon="11.159662678267418"><ele>38.33333333333333</ele><time>2026-04-12T13:55:25.001Z</time></trkpt><trkpt lat="43.83464660999004" lon="11.15985699075079"><ele>38.0</ele><time>2026-04-12T13:55:26.001Z</time></trkpt><trkpt lat="43.83473252772803" lon="11.16002496265522"><ele>38.666666666666664</ele><time>2026-04-12T13:55:27.001Z</time></trkpt><trkpt lat="43.834817400407516" lon="11.160189257916596"><ele>39.333333333333336</ele><time>2026-04-12T13:55:28.001Z</time></trkpt><trkpt lat="43.834915412537285" lon="11.160359808956548"><ele>40.0</ele><time>2026-04-12T13:55:29.001Z</time></trkpt><trkpt lat="43.83503967877645" lon="11.160550691882149"><ele>40.0</ele><time>2026-04-12T13:55:30.001Z</time></trkpt><trkpt lat="43.83518422529635" lon="11.160759818849444"><ele>40.0</ele><time>2026-04-12T13:55:31.001Z</time></trkpt><trkpt lat="43.835357732552666" lon="11.160966469855664"><ele>40.0</ele><time>2026-04-12T13:55:32.001Z</time></trkpt><trkpt lat="43.835569058370154" lon="11.161159488782694"><ele>40.0</ele><time>2026-04-12T13:55:33.001Z</time></trkpt><trkpt lat="43.8357910594236" lon="11.161314245856028"><ele>40.0</ele><time>2026-04-12T13:55:34.001Z</time></trkpt><trkpt lat="43.8359942499338" lon="11.161419582051423"><ele>40.66666666666667</ele><time>2026-04-12T13:55:35.001Z</time></trkpt><trkpt lat="43.83619315721013" lon="11.161477525845932"><ele>41.333333333333336</ele><time>2026-04-12T13:55:36.001Z</time></trkpt><trkpt lat="43.836392302272756" lon="11.161475226042098"><ele>42.0</ele><time>2026-04-12T13:55:37.001Z</time></trkpt><trkpt lat="43.83658887305637" lon="11.161424052865158"><ele>42.0</ele><time>2026-04-12T13:55:38.001Z</time></trkpt><trkpt lat="43.83676494929986" lon="11.161315983058417"><ele>42.0</ele><time>2026-04-12T13:55:39.001Z</time></trkpt><trkpt lat="43.83692592479499" lon="11.161156732397211"><ele>42.0</ele><time>2026-04-12T13:55:40.001Z</time></trkpt><trkpt lat="43.83706628134837" lon="11.160956954257964"><ele>42.0</ele><time>2026-04-12T13:55:40.999Z</time></trkpt><trkpt lat="43.83717614076012" lon="11.160726057204416"><ele>42.0</ele><time>2026-04-12T13:55:41.999Z</time></trkpt><trkpt lat="43.83725273530383" lon="11.16046739373522"><ele>42.0</ele><time>2026-04-12T13:55:42.999Z</time></trkpt><trkpt lat="43.83728346332514" lon="11.160187627768218"><ele>41.5</ele><time>2026-04-12T13:55:43.999Z</time></trkpt><trkpt lat="43.837274956261254" lon="11.159899562196752"><ele>41.0</ele><time>2026-04-12T13:55:44.999Z</time></trkpt><trkpt lat="43.837469168704196" lon="11.144471478025407"><ele>41.0</ele><time>2026-04-12T13:56:46Z</time></trkpt><trkpt lat="43.83766656957712" lon="11.144165361391938"><ele>41.0</ele><time>2026-04-12T13:56:47Z</time></trkpt><trkpt lat="43.837864719831295" lon="11.143859804874534"><ele>41.5</ele><time>2026-04-12T13:56:48Z</time></trkpt><trkpt lat="43.838061684063426" lon="11.143554468968313"><ele>42.0</ele><time>2026-04-12T13:56:49Z</time></trkpt><trkpt lat="43.8382597868455" lon="11.143247415792183"><ele>41.5</ele><time>2026-04-12T13:56:50Z</time></trkpt><trkpt lat="43.83845705964796" lon="11.142940055286873"><ele>41.0</ele><time>2026-04-12T13:56:51Z</time></trkpt><trkpt lat="43.83865345127713" lon="11.142636441405504"><ele>41.0</ele><time>2026-04-12T13:56:52Z</time></trkpt><trkpt lat="43.83884943323478" lon="11.142336278588196"><ele>41.0</ele><time>2026-04-12T13:56:53Z</time></trkpt><trkpt lat="43.83904302689653" lon="11.142036683606973"><ele>41.0</ele><time>2026-04-12T13:56:54Z</time></trkpt><trkpt lat="43.83923711428334" lon="11.141737608493148"><ele>41.0</ele><time>2026-04-12T13:56:55Z</time></trkpt><trkpt lat="43.83943028253364" lon="11.141436575075884"><ele>41.0</ele><time>2026-04-12T13:56:56Z</time></trkpt><trkpt lat="43.839622886788625" lon="11.141133277650047"><ele>41.0</ele><time>2026-04-12T13:56:57Z</time></trkpt><trkpt lat="43.839814376452715" lon="11.140829199719283"><ele>40.5</ele><time>2026-04-12T13:56:58Z</time></trkpt><trkpt lat="43.84000869530324" lon="11.140525959398865"><ele>40.0</ele><time>2026-04-12T13:56:59Z</time></trkpt><trkpt lat="43.84020518566805" lon="11.140226088814769"><ele>41.0</ele><time>2026-04-12T13:57:00Z</time></trkpt><trkpt lat="43.84040254401461" lon="11.139927513831342"><ele>42.0</ele><time>2026-04-12T13:57:01.001Z</time></trkpt><trkpt lat="43.84059900306547" lon="11.139627681284377"><ele>42.0</ele><time>2026-04-12T13:57:02.001Z</time></trkpt><trkpt lat="43.84078910784694" lon="11.13932602133753"><ele>42.0</ele><time>2026-04-12T13:57:03.001Z</time></trkpt><trkpt lat="43.84098385355348" lon="11.139024784109171"><ele>43.5</ele><time>2026-04-12T13:57:04.001Z</time></trkpt><trkpt lat="43.84117889862064" lon="11.138728466352198"><ele>45.0</ele><time>2026-04-12T13:57:05.001Z</time></trkpt><trkpt lat="43.84137368820432" lon="11.138425367099495"><ele>45.0</ele><time>2026-04-12T13:57:06.001Z</time></trkpt><trkpt lat="43.84156628274769" lon="11.138123961635007"><ele>45.0</ele><time>2026-04-12T13:57:07.001Z</time></trkpt><trkpt lat="43.84175916814052" lon="11.137823821525375"><ele>44.0</ele><time>2026-04-12T13:57:08.001Z</time></trkpt><trkpt lat="43.841954130093995" lon="11.137520773752325"><ele>43.0</ele><time>2026-04-12T13:57:09.001Z</time></trkpt><trkpt lat="43.84214620997601" lon="11.137218265732251"><ele>43.0</ele><time>2026-04-12T13:57:10.001Z</time></trkpt><trkpt lat="43.84234195583286" lon="11.136915896136184"><ele>43.0</ele><time>2026-04-12T13:57:11.001Z</time></trkpt><trkpt lat="43.842535054623184" lon="11.136609275074697"><ele>43.5</ele><time>2026-04-12T13:57:12.001Z</time></trkpt><trkpt lat="43.84273031980383" lon="11.136305127669363"><ele>44.0</ele><time>2026-04-12T13:57:13.001Z</time></trkpt><trkpt lat="43.84292532676044" lon="11.136002305593076"><ele>44.5</ele><time>2026-04-12T13:57:14.001Z</time></trkpt><trkpt lat="43.843118675832265" lon="11.135698976790547"><ele>45.0</ele><time>2026-04-12T13:57:15.001Z</time></trkpt><trkpt lat="43.84331158690465" lon="11.135396387446187"><ele>45.0</ele><time>2026-04-12T13:57:16.001Z</time></trkpt><trkpt lat="43.84350388477112" lon="11.135094047893014"><ele>45.0</ele><time>2026-04-12T13:57:17.001Z</time></trkpt><trkpt lat="43.84368468261392" lon="11.134812839761693"><ele>45.5</ele><time>2026-04-12T13:57:18.001Z</time></trkpt><trkpt lat="43.84385454838554" lon="11.134552237617358"><ele>46.0</ele><time>2026-04-12T13:57:19.001Z</time></trkpt><trkpt lat="43.84401307580321" lon="11.134305451538081"><ele>46.0</ele><time>2026-04-12T13:57:20.001Z</time></trkpt><trkpt lat="43.84416238151109" lon="11.134070788516782"><ele>46.0</ele><time>2026-04-12T13:57:21.001Z</time></trkpt><trkpt lat="43.84431010591556" lon="11.133839892952489"><ele>46.0</ele><time>2026-04-12T13:57:22.001Z</time></trkpt><trkpt lat="43.84446283648714" lon="11.133602914830547"><ele>46.0</ele><time>2026-04-12T13:57:23.001Z</time></trkpt><trkpt lat="43.844619597050425" lon="11.133363270519276"><ele>46.0</ele><time>2026-04-12T13:57:24.001Z</time></trkpt><trkpt lat="43.84478301954916" lon="11.133115627946113"><ele>45.5</ele><time>2026-04-12T13:57:25.001Z</time></trkpt><trkpt lat="43.844947497931685" lon="11.132862106687067"><ele>45.0</ele><time>2026-04-12T13:57:26.001Z</time></trkpt><trkpt lat="43.84511495181954" lon="11.132602279098576"><ele>46.0</ele><time>2026-04-12T13:57:27.001Z</time></trkpt><trkpt lat="43.84528388393821" lon="11.132340007724736"><ele>47.0</ele><time>2026-04-12T13:57:28.001Z</time></trkpt><trkpt lat="43.845459400969204" lon="11.132072941046472"><ele>47.0</ele><time>2026-04-12T13:57:29.001Z</time></trkpt><trkpt lat="43.84562716261334" lon="11.131804948808238"><ele>47.0</ele><time>2026-04-12T13:57:30.001Z</time></trkpt><trkpt lat="43.84580172610121" lon="11.131535486005335"><ele>46.5</ele><time>2026-04-12T13:57:31.001Z</time></trkpt><trkpt lat="43.845979328547855" lon="11.131261593777266"><ele>46.0</ele><time>2026-04-12T13:57:32.001Z</time></trkpt><trkpt lat="43.84616030669628" lon="11.130983884900882"><ele>44.5</ele><time>2026-04-12T13:57:33.001Z</time></trkpt><trkpt lat="43.84634207702476" lon="11.130700635007996"><ele>43.0</ele><time>2026-04-12T13:57:34.001Z</time></trkpt><trkpt lat="43.84652581002412" lon="11.130415422228738"><ele>43.0</ele><time>2026-04-12T13:57:35.001Z</time></trkpt><trkpt lat="43.84670912843875" lon="11.130128926614121"><ele>43.0</ele><time>2026-04-12T13:57:36.001Z</time></trkpt><trkpt lat="43.84689786808681" lon="11.129837037571505"><ele>44.5</ele><time>2026-04-12T13:57:37.001Z</time></trkpt><trkpt lat="43.847087409520384" lon="11.129545900425484"><ele>46.0</ele><time>2026-04-12T13:57:38.001Z</time></trkpt><trkpt lat="43.847281954591054" lon="11.129254831719331"><ele>46.5</ele><time>2026-04-12T13:57:39.001Z</time></trkpt><trkpt lat="43.84747425117579" lon="11.128961596302085"><ele>47.0</ele><time>2026-04-12T13:57:40.001Z</time></trkpt><trkpt lat="43.84766613256335" lon="11.12866505001005"><ele>47.0</ele><time>2026-04-12T13:57:41.001Z</time></trkpt><trkpt lat="43.8478583649821" lon="11.12836702752791"><ele>47.0</ele><time>2026-04-12T13:57:42.001Z</time></trkpt><trkpt lat="43.84805004806894" lon="11.128066253724196"><ele>47.0</ele><time>2026-04-12T13:57:43.001Z</time></trkpt><trkpt lat="43.84824416519765" lon="11.127764713532866"><ele>47.0</ele><time>2026-04-12T13:57:44.001Z</time></trkpt><trkpt lat="43.84843995264954" lon="11.127461634778786"><ele>44.0</ele><time>2026-04-12T13:57:45.001Z</time></trkpt><trkpt lat="43.85515071357512" lon="11.105562858833414"><ele>44.0</ele><time>2026-04-12T13:58:46Z</time></trkpt><trkpt lat="43.85515270038774" lon="11.10514995577581"><ele>44.0</ele><time>2026-04-12T13:58:47Z</time></trkpt><trkpt lat="43.855158756222345" lon="11.104734447391415"><ele>44.0</ele><time>2026-04-12T13:58:48Z</time></trkpt><trkpt lat="43.8551566973334" lon="11.104337727377098"><ele>44.0</ele><time>2026-04-12T13:58:49Z</time></trkpt><trkpt lat="43.855160758857366" lon="11.103935989257955"><ele>45.0</ele><time>2026-04-12T13:58:50Z</time></trkpt><trkpt lat="43.85516433821917" lon="11.103533287785352"><ele>46.0</ele><time>2026-04-12T13:58:51Z</time></trkpt><trkpt lat="43.85516921270592" lon="11.103130161667018"><ele>46.0</ele><time>2026-04-12T13:58:52Z</time></trkpt><trkpt lat="43.85517011355954" lon="11.10272654069333"><ele>46.0</ele><time>2026-04-12T13:58:53Z</time></trkpt><trkpt lat="43.85517140334513" lon="11.102323196641203"><ele>46.0</ele><time>2026-04-12T13:58:54Z</time></trkpt><trkpt lat="43.85516857510511" lon="11.101919067831787"><ele>46.0</ele><time>2026-04-12T13:58:55Z</time></trkpt><trkpt lat="43.855168336766425" lon="11.101513116848961"><ele>46.0</ele><time>2026-04-12T13:58:56Z</time></trkpt><trkpt lat="43.855160931045326" lon="11.101115217884061"><ele>46.0</ele><time>2026-04-12T13:58:57Z</time></trkpt><trkpt lat="43.855162388726136" lon="11.100714910527143"><ele>45.5</ele><time>2026-04-12T13:58:58Z</time></trkpt><trkpt lat="43.85516740317561" lon="11.100306069851994"><ele>45.0</ele><time>2026-04-12T13:58:59.001Z</time></trkpt><trkpt lat="43.8551745949076" lon="11.099902087418773"><ele>45.0</ele><time>2026-04-12T13:59:00.001Z</time></trkpt><trkpt lat="43.855175894427305" lon="11.099497287948111"><ele>45.0</ele><time>2026-04-12T13:59:01.001Z</time></trkpt><trkpt lat="43.85517780218995" lon="11.09909084037676"><ele>45.5</ele><time>2026-04-12T13:59:02.001Z</time></trkpt><trkpt lat="43.8551803070649" lon="11.098689042057778"><ele>46.0</ele><time>2026-04-12T13:59:03.001Z</time></trkpt><trkpt lat="43.85518182186104" lon="11.098282414288049"><ele>45.0</ele><time>2026-04-12T13:59:04.001Z</time></trkpt><trkpt lat="43.85518013318026" lon="11.097874041593917"><ele>44.0</ele><time>2026-04-12T13:59:05.001Z</time></trkpt><trkpt lat="43.85518157186574" lon="11.097468175891237"><ele>44.0</ele><time>2026-04-12T13:59:06.001Z</time></trkpt><trkpt lat="43.85518235996986" lon="11.097060135409961"><ele>44.0</ele><time>2026-04-12T13:59:07.001Z</time></trkpt><trkpt lat="43.85518544519172" lon="11.096654193946662"><ele>45.0</ele><time>2026-04-12T13:59:08.001Z</time></trkpt><trkpt lat="43.85518816620823" lon="11.096248971663893"><ele>46.0</ele><time>2026-04-12T13:59:09.001Z</time></trkpt><trkpt lat="43.855190405411605" lon="11.09584790430507"><ele>45.5</ele><time>2026-04-12T13:59:10.001Z</time></trkpt><trkpt lat="43.855194053450084" lon="11.095442048529803"><ele>45.0</ele><time>2026-04-12T13:59:11.001Z</time></trkpt><trkpt lat="43.8551965216303" lon="11.095037851806307"><ele>45.0</ele><time>2026-04-12T13:59:12.001Z</time></trkpt><trkpt lat="43.85519985818663" lon="11.094632753835555"><ele>45.0</ele><time>2026-04-12T13:59:13.001Z</time></trkpt><trkpt lat="43.85520441898028" lon="11.094227748578133"><ele>45.5</ele><time>2026-04-12T13:59:14.001Z</time></trkpt><trkpt lat="43.85520796526841" lon="11.093821929514434"><ele>46.0</ele><time>2026-04-12T13:59:15.001Z</time></trkpt><trkpt lat="43.85521080931525" lon="11.093418286514979"><ele>45.5</ele><time>2026-04-12T13:59:16.001Z</time></trkpt><trkpt lat="43.85521089443119" lon="11.093013654504583"><ele>45.0</ele><time>2026-04-12T13:59:17.001Z</time></trkpt><trkpt lat="43.855214190239224" lon="11.092609766881253"><ele>45.0</ele><time>2026-04-12T13:59:18.001Z</time></trkpt><trkpt lat="43.85521622866549" lon="11.092207759910131"><ele>45.0</ele><time>2026-04-12T13:59:19.001Z</time></trkpt><trkpt lat="43.85521811135232" lon="11.091806057049991"><ele>43.5</ele><time>2026-04-12T13:59:20.001Z</time></trkpt><trkpt lat="43.85522017649047" lon="11.091401161629573"><ele>42.0</ele><time>2026-04-12T13:59:21.001Z</time></trkpt><trkpt lat="43.85522110897252" lon="11.090996479723213"><ele>42.5</ele><time>2026-04-12T13:59:22.001Z</time></trkpt><trkpt lat="43.85522445695747" lon="11.090589646045984"><ele>43.0</ele><time>2026-04-12T13:59:23.001Z</time></trkpt><trkpt lat="43.855227622783204" lon="11.090188508220454"><ele>44.0</ele><time>2026-04-12T13:59:24.001Z</time></trkpt><trkpt lat="43.85523050474661" lon="11.0897842462844"><ele>45.0</ele><time>2026-04-12T13:59:25.001Z</time></trkpt><trkpt lat="43.85523165791525" lon="11.08938305524603"><ele>44.0</ele><time>2026-04-12T13:59:26.001Z</time></trkpt><trkpt lat="43.85523442558606" lon="11.088980680604339"><ele>43.0</ele><time>2026-04-12T13:59:27.001Z</time></trkpt><trkpt lat="43.85523597824114" lon="11.088580504998685"><ele>42.5</ele><time>2026-04-12T13:59:28.001Z</time></trkpt><trkpt lat="43.85523614996136" lon="11.088175466677491"><ele>42.0</ele><time>2026-04-12T13:59:29.001Z</time></trkpt><trkpt lat="43.855234456967196" lon="11.08777229552936"><ele>42.0</ele><time>2026-04-12T13:59:30.001Z</time></trkpt><trkpt lat="43.8552368159567" lon="11.08736789627506"><ele>42.0</ele><time>2026-04-12T13:59:31.001Z</time></trkpt><trkpt lat="43.855239292925276" lon="11.08696219325443"><ele>43.5</ele><time>2026-04-12T13:59:32.001Z</time></trkpt><trkpt lat="43.8552440467475" lon="11.086556547697596"><ele>45.0</ele><time>2026-04-12T13:59:33.001Z</time></trkpt><trkpt lat="43.85524774352317" lon="11.086149376498774"><ele>45.0</ele><time>2026-04-12T13:59:34.001Z</time></trkpt><trkpt lat="43.85525203700965" lon="11.085745261000081"><ele>45.0</ele><time>2026-04-12T13:59:35.001Z</time></trkpt><trkpt lat="43.85525812847457" lon="11.085337711128528"><ele>45.0</ele><time>2026-04-12T13:59:36.001Z</time></trkpt><trkpt lat="43.85527210406648" lon="11.08493391256056"><ele>45.0</ele><time>2026-04-12T13:59:37.001Z</time></trkpt><trkpt lat="43.855293947389946" lon="11.084528014630411"><ele>46.0</ele><time>2026-04-12T13:59:38.001Z</time></trkpt><trkpt lat="43.85532057777172" lon="11.08412216968655"><ele>47.0</ele><time>2026-04-12T13:59:39.001Z</time></trkpt><trkpt lat="43.855347303936156" lon="11.083715709003272"><ele>47.0</ele><time>2026-04-12T13:59:40.001Z</time></trkpt><trkpt lat="43.85537358619941" lon="11.083309569050328"><ele>47.0</ele><time>2026-04-12T13:59:41.001Z</time></trkpt><trkpt lat="43.85540672062869" lon="11.082905724195353"><ele>45.5</ele><time>2026-04-12T13:59:42.001Z</time></trkpt><trkpt lat="43.85544632503959" lon="11.082504216393216"><ele>44.0</ele><time>2026-04-12T13:59:43.001Z</time></trkpt><trkpt lat="43.85548741014061" lon="11.082105726219604"><ele>43.5</ele><time>2026-04-12T13:59:44.001Z</time></trkpt><trkpt lat="43.855534539797" lon="11.08170795253886"><ele>43.0</ele><time>2026-04-12T13:59:45.001Z</time></trkpt><trkpt lat="43.86334661270554" lon="11.059649203851517"><ele>43.5</ele><time>2026-04-12T14:00:46Z</time></trkpt><trkpt lat="43.863496957655705" lon="11.059303760600741"><ele>44.0</ele><time>2026-04-12T14:00:47Z</time></trkpt><trkpt lat="43.863649960538424" lon="11.058959030112694"><ele>44.0</ele><time>2026-04-12T14:00:48Z</time></trkpt><trkpt lat="43.863801548764286" lon="11.0586134084846"><ele>44.0</ele><time>2026-04-12T14:00:49Z</time></trkpt><trkpt lat="43.863955125762416" lon="11.0582679197006"><ele>43.0</ele><time>2026-04-12T14:00:50Z</time></trkpt><trkpt lat="43.8641100752083" lon="11.057921235222086"><ele>42.0</ele><time>2026-04-12T14:00:51Z</time></trkpt><trkpt lat="43.86426198846227" lon="11.057574155098028"><ele>42.0</ele><time>2026-04-12T14:00:52.001Z</time></trkpt><trkpt lat="43.86441266831074" lon="11.057226453740824"><ele>42.0</ele><time>2026-04-12T14:00:53.001Z</time></trkpt><trkpt lat="43.864564377600594" lon="11.05688398184961"><ele>43.0</ele><time>2026-04-12T14:00:54.001Z</time></trkpt><trkpt lat="43.864716828291435" lon="11.05654000893951"><ele>44.0</ele><time>2026-04-12T14:00:55.001Z</time></trkpt><trkpt lat="43.864868695594936" lon="11.056196259395193"><ele>44.0</ele><time>2026-04-12T14:00:56.001Z</time></trkpt><trkpt lat="43.86501885505174" lon="11.055851738052873"><ele>44.0</ele><time>2026-04-12T14:00:57.001Z</time></trkpt><trkpt lat="43.86517011991985" lon="11.055507263065472"><ele>44.0</ele><time>2026-04-12T14:00:58.001Z</time></trkpt><trkpt lat="43.86531955610367" lon="11.05516077263579"><ele>44.0</ele><time>2026-04-12T14:00:59.001Z</time></trkpt><trkpt lat="43.865468963838964" lon="11.054814873988178"><ele>44.5</ele><time>2026-04-12T14:01:00.001Z</time></trkpt><trkpt lat="43.86562122115501" lon="11.0544704853147"><ele>45.0</ele><time>2026-04-12T14:01:01.001Z</time></trkpt><trkpt lat="43.86577177352276" lon="11.054124900498726"><ele>44.0</ele><time>2026-04-12T14:01:02.003Z</time></trkpt><trkpt lat="43.865921579194655" lon="11.053781910208066"><ele>43.0</ele><time>2026-04-12T14:01:03.001Z</time></trkpt><trkpt lat="43.86607400597131" lon="11.05343615995336"><ele>43.0</ele><time>2026-04-12T14:01:04.001Z</time></trkpt><trkpt lat="43.86622470164695" lon="11.053090989642676"><ele>43.0</ele><time>2026-04-12T14:01:05.001Z</time></trkpt><trkpt lat="43.86637756362673" lon="11.052745797432522"><ele>43.0</ele><time>2026-04-12T14:01:06.001Z</time></trkpt><trkpt lat="43.86652873349033" lon="11.052401839450846"><ele>43.0</ele><time>2026-04-12T14:01:07.001Z</time></trkpt><trkpt lat="43.86668058013614" lon="11.052057026003572"><ele>43.0</ele><time>2026-04-12T14:01:08.001Z</time></trkpt><trkpt lat="43.86683174347533" lon="11.051710777418458"><ele>43.0</ele><time>2026-04-12T14:01:09.001Z</time></trkpt><trkpt lat="43.86698090223869" lon="11.051362969503625"><ele>43.0</ele><time>2026-04-12T14:01:10.001Z</time></trkpt><trkpt lat="43.86713426276864" lon="11.051013181889475"><ele>43.0</ele><time>2026-04-12T14:01:11.001Z</time></trkpt><trkpt lat="43.86728686531023" lon="11.050663962241368"><ele>43.0</ele><time>2026-04-12T14:01:12.001Z</time></trkpt><trkpt lat="43.86744199640555" lon="11.050313779642092"><ele>43.0</ele><time>2026-04-12T14:01:13.001Z</time></trkpt><trkpt lat="43.86759610943708" lon="11.049965195208534"><ele>42.5</ele><time>2026-04-12T14:01:14.001Z</time></trkpt><trkpt lat="43.86774854929767" lon="11.049613074781938"><ele>42.0</ele><time>2026-04-12T14:01:15.001Z</time></trkpt><trkpt lat="43.867901616429506" lon="11.049260572218328"><ele>41.5</ele><time>2026-04-12T14:01:16.001Z</time></trkpt><trkpt lat="43.86805406434697" lon="11.048909577424716"><ele>41.0</ele><time>2026-04-12T14:01:17.001Z</time></trkpt><trkpt lat="43.86820798262835" lon="11.048561449541097"><ele>41.0</ele><time>2026-04-12T14:01:18.001Z</time></trkpt><trkpt lat="43.86835883598142" lon="11.04821583665137"><ele>41.0</ele><time>2026-04-12T14:01:19.001Z</time></trkpt><trkpt lat="43.86851357791712" lon="11.047869905522186"><ele>41.0</ele><time>2026-04-12T14:01:20.001Z</time></trkpt><trkpt lat="43.86866618886279" lon="11.04753022345729"><ele>41.0</ele><time>2026-04-12T14:01:21.001Z</time></trkpt><trkpt lat="43.86881849507241" lon="11.047181100433525"><ele>41.5</ele><time>2026-04-12T14:01:22.001Z</time></trkpt><trkpt lat="43.868968647379255" lon="11.046836183139531"><ele>42.0</ele><time>2026-04-12T14:01:23.001Z</time></trkpt><trkpt lat="43.86911746547345" lon="11.046489124694238"><ele>42.5</ele><time>2026-04-12T14:01:24.001Z</time></trkpt><trkpt lat="43.86926468050224" lon="11.046142433160412"><ele>43.0</ele><time>2026-04-12T14:01:25.001Z</time></trkpt><trkpt lat="43.869411385612416" lon="11.045798751957715"><ele>42.5</ele><time>2026-04-12T14:01:26.001Z</time></trkpt><trkpt lat="43.869559413568595" lon="11.045454360512089"><ele>42.0</ele><time>2026-04-12T14:01:27.001Z</time></trkpt><trkpt lat="43.86970875374641" lon="11.045107185375054"><ele>41.5</ele><time>2026-04-12T14:01:28.001Z</time></trkpt><trkpt lat="43.8698584274627" lon="11.04476267074987"><ele>41.0</ele><time>2026-04-12T14:01:29.001Z</time></trkpt><trkpt lat="43.87001425421391" lon="11.044420089175306"><ele>40.5</ele><time>2026-04-12T14:01:30.001Z</time></trkpt><trkpt lat="43.87017086677409" lon="11.044080280287805"><ele>40.0</ele><time>2026-04-12T14:01:31.001Z</time></trkpt><trkpt lat="43.870326650864236" lon="11.043737161914054"><ele>40.0</ele><time>2026-04-12T14:01:32.001Z</time></trkpt><trkpt lat="43.87047725209061" lon="11.043392709487808"><ele>40.0</ele><time>2026-04-12T14:01:33.001Z</time></trkpt><trkpt lat="43.87062864514065" lon="11.04304888673813"><ele>40.5</ele><time>2026-04-12T14:01:34.001Z</time></trkpt><trkpt lat="43.87078261739121" lon="11.042703649799396"><ele>41.0</ele><time>2026-04-12T14:01:35.001Z</time></trkpt><trkpt lat="43.870936639360906" lon="11.042362077009614"><ele>42.5</ele><time>2026-04-12T14:01:36.001Z</time></trkpt><trkpt lat="43.87109676646592" lon="11.042024394645034"><ele>44.0</ele><time>2026-04-12T14:01:37.001Z</time></trkpt><trkpt lat="43.87126079817536" lon="11.041686010124085"><ele>44.0</ele><time>2026-04-12T14:01:38.001Z</time></trkpt><trkpt lat="43.87142982604479" lon="11.041348791372144"><ele>44.0</ele><time>2026-04-12T14:01:39.001Z</time></trkpt><trkpt lat="43.87160199943238" lon="11.041017061832546"><ele>41.5</ele><time>2026-04-12T14:01:40.001Z</time></trkpt><trkpt lat="43.87178312661002" lon="11.040688907725508"><ele>39.0</ele><time>2026-04-12T14:01:41.001Z</time></trkpt><trkpt lat="43.87196693300467" lon="11.040365822314874"><ele>39.0</ele><time>2026-04-12T14:01:42.001Z</time></trkpt><trkpt lat="43.87215376618777" lon="11.040046887101886"><ele>39.0</ele><time>2026-04-12T14:01:43.001Z</time></trkpt><trkpt lat="43.87234496645345" lon="11.03973386261774"><ele>39.0</ele><time>2026-04-12T14:01:44.002Z</time></trkpt><trkpt lat="43.87254037938324" lon="11.039426645408906"><ele>39.0</ele><time>2026-04-12T14:01:45.002Z</time></trkpt><trkpt lat="43.88235095967281" lon="11.03343227576727"><ele>39.333333333333336</ele><time>2026-04-12T14:02:46Z</time></trkpt><trkpt lat="43.882412391940726" lon="11.033492751339484"><ele>39.666666666666664</ele><time>2026-04-12T14:02:49.001Z</time></trkpt><trkpt lat="43.882505381784206" lon="11.033585203268212"><ele>40.0</ele><time>2026-04-12T14:02:51.001Z</time></trkpt><trkpt lat="43.88255845350851" lon="11.033638081721811"><ele>40.33333333333333</ele><time>2026-04-12T14:02:52.001Z</time></trkpt><trkpt lat="43.88262063720595" lon="11.033700839737751"><ele>40.666666666666664</ele><time>2026-04-12T14:02:53.001Z</time></trkpt><trkpt lat="43.88268036762865" lon="11.03376443610561"><ele>41.0</ele><time>2026-04-12T14:02:54.001Z</time></trkpt><trkpt lat="43.882743946876765" lon="11.033834561476784"><ele>41.0</ele><time>2026-04-12T14:02:55.001Z</time></trkpt><trkpt lat="43.88280521217467" lon="11.033902302518996"><ele>41.0</ele><time>2026-04-12T14:02:56.001Z</time></trkpt><trkpt lat="43.88288317496983" lon="11.033988505853946"><ele>41.0</ele><time>2026-04-12T14:02:57.001Z</time></trkpt><trkpt lat="43.88297081544632" lon="11.034088274753104"><ele>41.0</ele><time>2026-04-12T14:02:58.001Z</time></trkpt><trkpt lat="43.88306796137461" lon="11.034198983411711"><ele>41.0</ele><time>2026-04-12T14:02:59.001Z</time></trkpt><trkpt lat="43.88316961013065" lon="11.034321084351093"><ele>41.0</ele><time>2026-04-12T14:03:00.001Z</time></trkpt><trkpt lat="43.88327440936053" lon="11.034453563413619"><ele>41.0</ele><time>2026-04-12T14:03:01.001Z</time></trkpt><trkpt lat="43.88340238982392" lon="11.034563184428464"><ele>41.0</ele><time>2026-04-12T14:03:02.001Z</time></trkpt><trkpt lat="43.88353511382423" lon="11.034683617752666"><ele>40.33333333333333</ele><time>2026-04-12T14:03:03.001Z</time></trkpt><trkpt lat="43.883675329268776" lon="11.034811366263957"><ele>39.666666666666664</ele><time>2026-04-12T14:03:04.001Z</time></trkpt><trkpt lat="43.88381787156877" lon="11.034951827244406"><ele>39.0</ele><time>2026-04-12T14:03:05.001Z</time></trkpt><trkpt lat="43.88396037933419" lon="11.035104962235694"><ele>40.0</ele><time>2026-04-12T14:03:06.001Z</time></trkpt><trkpt lat="43.884105054635945" lon="11.035266865705887"><ele>41.0</ele><time>2026-04-12T14:03:07.001Z</time></trkpt><trkpt lat="43.884253606609626" lon="11.035426280566599"><ele>42.0</ele><time>2026-04-12T14:03:08.001Z</time></trkpt><trkpt lat="43.884405209900244" lon="11.035590797513272"><ele>42.0</ele><time>2026-04-12T14:03:09.001Z</time></trkpt><trkpt lat="43.88455551888701" lon="11.035763867752364"><ele>42.0</ele><time>2026-04-12T14:03:10.001Z</time></trkpt><trkpt lat="43.88470650576109" lon="11.035939905285355"><ele>42.0</ele><time>2026-04-12T14:03:11.001Z</time></trkpt><trkpt lat="43.884850467621874" lon="11.036127863785335"><ele>42.333333333333336</ele><time>2026-04-12T14:03:12.001Z</time></trkpt><trkpt lat="43.884974774595946" lon="11.036318719335421"><ele>42.66666666666667</ele><time>2026-04-12T14:03:13.001Z</time></trkpt><trkpt lat="43.88510585412296" lon="11.036519176386312"><ele>43.0</ele><time>2026-04-12T14:03:14.001Z</time></trkpt><trkpt lat="43.88518970762862" lon="11.036731751270068"><ele>43.0</ele><time>2026-04-12T14:03:15.001Z</time></trkpt><trkpt lat="43.88525791963923" lon="11.036954338110805"><ele>43.0</ele><time>2026-04-12T14:03:16.001Z</time></trkpt><trkpt lat="43.885299177794515" lon="11.037181755828493"><ele>43.0</ele><time>2026-04-12T14:03:17.001Z</time></trkpt><trkpt lat="43.88531862398907" lon="11.037397033003696"><ele>43.25</ele><time>2026-04-12T14:03:18.001Z</time></trkpt><trkpt lat="43.88530632783847" lon="11.037587727290772"><ele>43.5</ele><time>2026-04-12T14:03:19.001Z</time></trkpt><trkpt lat="43.8852708931795" lon="11.03776177197289"><ele>43.75</ele><time>2026-04-12T14:03:20.001Z</time></trkpt><trkpt lat="43.88520259829853" lon="11.037893330901172"><ele>44.0</ele><time>2026-04-12T14:03:21.001Z</time></trkpt><trkpt lat="43.885119456683576" lon="11.037994092344855"><ele>44.0</ele><time>2026-04-12T14:03:22.001Z</time></trkpt><trkpt lat="43.88502762266714" lon="11.038076783903922"><ele>44.0</ele><time>2026-04-12T14:03:23.001Z</time></trkpt><trkpt lat="43.88490617346756" lon="11.038041964396953"><ele>44.0</ele><time>2026-04-12T14:03:24.001Z</time></trkpt><trkpt lat="43.88478177032317" lon="11.037978231728813"><ele>44.0</ele><time>2026-04-12T14:03:25.001Z</time></trkpt><trkpt lat="43.88468979692133" lon="11.037828968751548"><ele>44.0</ele><time>2026-04-12T14:03:26.001Z</time></trkpt><trkpt lat="43.88466901347057" lon="11.037639485892804"><ele>44.0</ele><time>2026-04-12T14:03:27.001Z</time></trkpt><trkpt lat="43.88466628980232" lon="11.037435296526299"><ele>44.0</ele><time>2026-04-12T14:03:28.001Z</time></trkpt><trkpt lat="43.8847170968988" lon="11.037234410503038"><ele>44.0</ele><time>2026-04-12T14:03:29.001Z</time></trkpt><trkpt lat="43.884779460248964" lon="11.03699154259911"><ele>44.0</ele><time>2026-04-12T14:03:30.001Z</time></trkpt><trkpt lat="43.884837726578596" lon="11.03671921522621"><ele>44.0</ele><time>2026-04-12T14:03:31.001Z</time></trkpt><trkpt lat="43.88489647036963" lon="11.036405510802346"><ele>44.0</ele><time>2026-04-12T14:03:32.001Z</time></trkpt><trkpt lat="43.88495043094686" lon="11.036065655824709"><ele>43.0</ele><time>2026-04-12T14:03:33.001Z</time></trkpt><trkpt lat="43.8850007231732" lon="11.035700480678504"><ele>42.0</ele><time>2026-04-12T14:03:34.001Z</time></trkpt><trkpt lat="43.88507143178434" lon="11.035367299994997"><ele>41.5</ele><time>2026-04-12T14:03:35.001Z</time></trkpt><trkpt lat="43.885143516456814" lon="11.035040240438537"><ele>41.0</ele><time>2026-04-12T14:03:36.001Z</time></trkpt><trkpt lat="43.88522517059392" lon="11.034732905956272"><ele>41.0</ele><time>2026-04-12T14:03:37.001Z</time></trkpt><trkpt lat="43.88529607864211" lon="11.03443206930819"><ele>41.0</ele><time>2026-04-12T14:03:38.001Z</time></trkpt><trkpt lat="43.885363886639624" lon="11.034127521189193"><ele>41.0</ele><time>2026-04-12T14:03:39.001Z</time></trkpt><trkpt lat="43.885430435660375" lon="11.033820178844755"><ele>41.0</ele><time>2026-04-12T14:03:40.002Z</time></trkpt><trkpt lat="43.88549770612306" lon="11.033511626198125"><ele>41.0</ele><time>2026-04-12T14:03:41.002Z</time></trkpt><trkpt lat="43.8855637464775" lon="11.03319999560017"><ele>41.0</ele><time>2026-04-12T14:03:42.002Z</time></trkpt><trkpt lat="43.885629300001234" lon="11.032888152760117"><ele>41.0</ele><time>2026-04-12T14:03:43.002Z</time></trkpt><trkpt lat="43.88569487192497" lon="11.032579506535306"><ele>41.0</ele><time>2026-04-12T14:03:44.002Z</time></trkpt><trkpt lat="43.88576263857565" lon="11.032270029802442"><ele>41.0</ele><time>2026-04-12T14:03:45.002Z</time></trkpt><trkpt lat="43.8844199247773" lon="11.020796627993446"><ele>40.5</ele><time>2026-04-12T14:04:46Z</time></trkpt><trkpt lat="43.88420415719193" lon="11.020583809976435"><ele>40.0</ele><time>2026-04-12T14:04:47Z</time></trkpt><trkpt lat="43.883992914262976" lon="11.02036932558046"><ele>40.0</ele><time>2026-04-12T14:04:48.001Z</time></trkpt><trkpt lat="43.883780704289194" lon="11.020157593850415"><ele>40.0</ele><time>2026-04-12T14:04:49.001Z</time></trkpt><trkpt lat="43.88357132872499" lon="11.01995293349966"><ele>39.5</ele><time>2026-04-12T14:04:50.001Z</time></trkpt><trkpt lat="43.88335625192533" lon="11.01975817680699"><ele>39.0</ele><time>2026-04-12T14:04:51.001Z</time></trkpt><trkpt lat="43.88313694326749" lon="11.019576504347507"><ele>39.0</ele><time>2026-04-12T14:04:52.001Z</time></trkpt><trkpt lat="43.88291899092285" lon="11.019412318440954"><ele>39.0</ele><time>2026-04-12T14:04:53.001Z</time></trkpt><trkpt lat="43.88269304885939" lon="11.019275478263848"><ele>39.0</ele><time>2026-04-12T14:04:54.001Z</time></trkpt><trkpt lat="43.88244958517578" lon="11.01918198434217"><ele>39.0</ele><time>2026-04-12T14:04:55.001Z</time></trkpt><trkpt lat="43.88220053807645" lon="11.01909909761964"><ele>39.0</ele><time>2026-04-12T14:04:56.001Z</time></trkpt><trkpt lat="43.881948268093765" lon="11.019029995034249"><ele>39.0</ele><time>2026-04-12T14:04:57.001Z</time></trkpt><trkpt lat="43.881692450376626" lon="11.018956252058862"><ele>38.5</ele><time>2026-04-12T14:04:58.001Z</time></trkpt><trkpt lat="43.88143647243196" lon="11.018884381740362"><ele>38.0</ele><time>2026-04-12T14:04:59.001Z</time></trkpt><trkpt lat="43.881179120666715" lon="11.018809991491947"><ele>37.5</ele><time>2026-04-12T14:05:00.001Z</time></trkpt><trkpt lat="43.88092296663695" lon="11.018739688095376"><ele>37.0</ele><time>2026-04-12T14:05:01.001Z</time></trkpt><trkpt lat="43.88066721279677" lon="11.018664525371554"><ele>37.0</ele><time>2026-04-12T14:05:02.001Z</time></trkpt><trkpt lat="43.880410911928436" lon="11.018586788529174"><ele>37.0</ele><time>2026-04-12T14:05:03.001Z</time></trkpt><trkpt lat="43.88015389092793" lon="11.018510025269881"><ele>38.0</ele><time>2026-04-12T14:05:04.001Z</time></trkpt><trkpt lat="43.879898481172354" lon="11.018436025428228"><ele>39.0</ele><time>2026-04-12T14:05:05.001Z</time></trkpt><trkpt lat="43.87964057520314" lon="11.018367646973141"><ele>39.0</ele><time>2026-04-12T14:05:06.001Z</time></trkpt><trkpt lat="43.87938580746481" lon="11.018323255138808"><ele>39.0</ele><time>2026-04-12T14:05:07.001Z</time></trkpt><trkpt lat="43.87912837491118" lon="11.018296435730234"><ele>38.0</ele><time>2026-04-12T14:05:08.001Z</time></trkpt><trkpt lat="43.87887135061304" lon="11.018280624306477"><ele>37.0</ele><time>2026-04-12T14:05:09.001Z</time></trkpt><trkpt lat="43.87860874993697" lon="11.0182892713935"><ele>37.5</ele><time>2026-04-12T14:05:10.001Z</time></trkpt><trkpt lat="43.87834629239402" lon="11.01831413325538"><ele>38.0</ele><time>2026-04-12T14:05:11.001Z</time></trkpt><trkpt lat="43.878087690101786" lon="11.018346661275286"><ele>38.0</ele><time>2026-04-12T14:05:12.001Z</time></trkpt><trkpt lat="43.877831178623744" lon="11.018378083797849"><ele>38.0</ele><time>2026-04-12T14:05:13.001Z</time></trkpt><trkpt lat="43.877585681431185" lon="11.018411006134306"><ele>37.0</ele><time>2026-04-12T14:05:14.001Z</time></trkpt><trkpt lat="43.877351220326425" lon="11.018439108785012"><ele>36.0</ele><time>2026-04-12T14:05:15.001Z</time></trkpt><trkpt lat="43.87712006137183" lon="11.01847110267613"><ele>36.0</ele><time>2026-04-12T14:05:16.001Z</time></trkpt><trkpt lat="43.876901803263415" lon="11.018499621697611"><ele>36.0</ele><time>2026-04-12T14:05:17.001Z</time></trkpt><trkpt lat="43.87667838747232" lon="11.018527974134681"><ele>36.0</ele><time>2026-04-12T14:05:18.001Z</time></trkpt><trkpt lat="43.8764652232721" lon="11.01855583432324"><ele>36.333333333333336</ele><time>2026-04-12T14:05:19.001Z</time></trkpt><trkpt lat="43.87624470809331" lon="11.0185766701797"><ele>36.66666666666667</ele><time>2026-04-12T14:05:20.001Z</time></trkpt><trkpt lat="43.87602285366758" lon="11.018603128616867"><ele>37.0</ele><time>2026-04-12T14:05:21.001Z</time></trkpt><trkpt lat="43.87580204757715" lon="11.018627680781"><ele>37.0</ele><time>2026-04-12T14:05:22.001Z</time></trkpt><trkpt lat="43.87557555041481" lon="11.018651905063594"><ele>37.0</ele><time>2026-04-12T14:05:23.001Z</time></trkpt><trkpt lat="43.87535630127611" lon="11.01867164657731"><ele>37.0</ele><time>2026-04-12T14:05:24.001Z</time></trkpt><trkpt lat="43.875144948566636" lon="11.018688442462993"><ele>37.333333333333336</ele><time>2026-04-12T14:05:25.001Z</time></trkpt><trkpt lat="43.87493064033543" lon="11.018676404235789"><ele>37.666666666666664</ele><time>2026-04-12T14:05:26.001Z</time></trkpt><trkpt lat="43.87472335088143" lon="11.018638960404111"><ele>38.0</ele><time>2026-04-12T14:05:27.001Z</time></trkpt><trkpt lat="43.87451679669826" lon="11.018581472139683"><ele>38.0</ele><time>2026-04-12T14:05:28.001Z</time></trkpt><trkpt lat="43.87431419464853" lon="11.018503266698232"><ele>38.0</ele><time>2026-04-12T14:05:29.001Z</time></trkpt><trkpt lat="43.874120047161824" lon="11.018415173972452"><ele>38.0</ele><time>2026-04-12T14:05:30.001Z</time></trkpt><trkpt lat="43.87393091055639" lon="11.018328260153293"><ele>37.666666666666664</ele><time>2026-04-12T14:05:31.001Z</time></trkpt><trkpt lat="43.87374313828574" lon="11.018242039871632"><ele>37.333333333333336</ele><time>2026-04-12T14:05:32.001Z</time></trkpt><trkpt lat="43.87355049568388" lon="11.018158481220873"><ele>37.0</ele><time>2026-04-12T14:05:33.001Z</time></trkpt><trkpt lat="43.87335784262787" lon="11.018086361196252"><ele>37.0</ele><time>2026-04-12T14:05:34.001Z</time></trkpt><trkpt lat="43.873168249676716" lon="11.018033771549119"><ele>37.0</ele><time>2026-04-12T14:05:35.001Z</time></trkpt><trkpt lat="43.8729782793794" lon="11.018000312136163"><ele>37.0</ele><time>2026-04-12T14:05:36.001Z</time></trkpt><trkpt lat="43.87278403150234" lon="11.01799350356724"><ele>37.66666666666667</ele><time>2026-04-12T14:05:37.001Z</time></trkpt><trkpt lat="43.87259161809362" lon="11.017999635313197"><ele>38.333333333333336</ele><time>2026-04-12T14:05:38.001Z</time></trkpt><trkpt lat="43.87239521540542" lon="11.018012507088496"><ele>39.0</ele><time>2026-04-12T14:05:39.001Z</time></trkpt><trkpt lat="43.87220501340035" lon="11.018033593784473"><ele>39.0</ele><time>2026-04-12T14:05:40.001Z</time></trkpt><trkpt lat="43.87202388149681" lon="11.018050405983987"><ele>39.0</ele><time>2026-04-12T14:05:41.001Z</time></trkpt><trkpt lat="43.87184343572214" lon="11.01807559886558"><ele>39.0</ele><time>2026-04-12T14:05:42.002Z</time></trkpt><trkpt lat="43.871662298785495" lon="11.018098626435222"><ele>38.666666666666664</ele><time>2026-04-12T14:05:43.002Z</time></trkpt><trkpt lat="43.87148002402036" lon="11.01811196298211"><ele>38.33333333333333</ele><time>2026-04-12T14:05:44.002Z</time></trkpt><trkpt lat="43.871301400988074" lon="11.018128759312956"><ele>38.0</ele><time>2026-04-12T14:05:45.002Z</time></trkpt><trkpt lat="43.86834613093378" lon="11.010031806410407"><ele>36.5</ele><time>2026-04-12T14:06:46Z</time></trkpt><trkpt lat="43.86830667828513" lon="11.009713393041219"><ele>35.0</ele><time>2026-04-12T14:06:47Z</time></trkpt><trkpt lat="43.86822613456155" lon="11.009411094541138"><ele>35.5</ele><time>2026-04-12T14:06:48Z</time></trkpt><trkpt lat="43.86809030342901" lon="11.009127613821232"><ele>36.0</ele><time>2026-04-12T14:06:49Z</time></trkpt><trkpt lat="43.867928641871266" lon="11.008859269623924"><ele>36.0</ele><time>2026-04-12T14:06:50Z</time></trkpt><trkpt lat="43.867721849598645" lon="11.008635415047925"><ele>36.0</ele><time>2026-04-12T14:06:51Z</time></trkpt><trkpt lat="43.867498931074415" lon="11.008452731156213"><ele>36.333333333333336</ele><time>2026-04-12T14:06:52Z</time></trkpt><trkpt lat="43.867285048917296" lon="11.008331536759004"><ele>36.66666666666667</ele><time>2026-04-12T14:06:53Z</time></trkpt><trkpt lat="43.86711666333548" lon="11.008235784948894"><ele>37.0</ele><time>2026-04-12T14:06:54Z</time></trkpt><trkpt lat="43.86699413129755" lon="11.008143006317447"><ele>37.0</ele><time>2026-04-12T14:06:55Z</time></trkpt><trkpt lat="43.86689683910708" lon="11.00808115081672"><ele>37.0</ele><time>2026-04-12T14:06:56.001Z</time></trkpt><trkpt lat="43.86681267619087" lon="11.008050394839685"><ele>37.0</ele><time>2026-04-12T14:06:57.001Z</time></trkpt><trkpt lat="43.86672342703851" lon="11.007936672048764"><ele>37.0</ele><time>2026-04-12T14:06:59.001Z</time></trkpt><trkpt lat="43.866680653821454" lon="11.007858179861419"><ele>37.0</ele><time>2026-04-12T14:07:00.001Z</time></trkpt><trkpt lat="43.86660434965366" lon="11.007792356062799"><ele>37.0</ele><time>2026-04-12T14:07:01.001Z</time></trkpt><trkpt lat="43.86649465383809" lon="11.007762785534148"><ele>37.0</ele><time>2026-04-12T14:07:02.001Z</time></trkpt><trkpt lat="43.866352463486606" lon="11.007742081272303"><ele>37.0</ele><time>2026-04-12T14:07:03.001Z</time></trkpt><trkpt lat="43.866213917696825" lon="11.00763713429683"><ele>37.0</ele><time>2026-04-12T14:07:04.001Z</time></trkpt><trkpt lat="43.866055939901564" lon="11.007537584297461"><ele>36.66666666666667</ele><time>2026-04-12T14:07:05.001Z</time></trkpt><trkpt lat="43.86588438156689" lon="11.00742947648657"><ele>36.333333333333336</ele><time>2026-04-12T14:07:06.001Z</time></trkpt><trkpt lat="43.86570192105301" lon="11.007333328688755"><ele>36.0</ele><time>2026-04-12T14:07:07.001Z</time></trkpt><trkpt lat="43.8655264154366" lon="11.007222427665896"><ele>36.0</ele><time>2026-04-12T14:07:08.001Z</time></trkpt><trkpt lat="43.86538954904624" lon="11.007111070896975"><ele>36.0</ele><time>2026-04-12T14:07:09.001Z</time></trkpt><trkpt lat="43.865268691926836" lon="11.0070330116186"><ele>36.0</ele><time>2026-04-12T14:07:10.001Z</time></trkpt><trkpt lat="43.86514872206343" lon="11.006955525401514"><ele>36.0</ele><time>2026-04-12T14:07:11.001Z</time></trkpt><trkpt lat="43.86502031605606" lon="11.006896438174001"><ele>36.25</ele><time>2026-04-12T14:07:12.001Z</time></trkpt><trkpt lat="43.86489251416062" lon="11.006808662795908"><ele>36.5</ele><time>2026-04-12T14:07:13.001Z</time></trkpt><trkpt lat="43.864759318761514" lon="11.006719512042652"><ele>36.75</ele><time>2026-04-12T14:07:14.001Z</time></trkpt><trkpt lat="43.86462862606515" lon="11.00662694993206"><ele>37.0</ele><time>2026-04-12T14:07:15.001Z</time></trkpt><trkpt lat="43.86449447766395" lon="11.006534123707775"><ele>36.5</ele><time>2026-04-12T14:07:16.001Z</time></trkpt><trkpt lat="43.86436765141271" lon="11.00643038316309"><ele>36.0</ele><time>2026-04-12T14:07:17.001Z</time></trkpt><trkpt lat="43.864248193151795" lon="11.00632899816331"><ele>35.5</ele><time>2026-04-12T14:07:18.001Z</time></trkpt><trkpt lat="43.864126040591046" lon="11.006218507611651"><ele>35.0</ele><time>2026-04-12T14:07:19.001Z</time></trkpt><trkpt lat="43.864001719038605" lon="11.00609685159742"><ele>34.666666666666664</ele><time>2026-04-12T14:07:20.001Z</time></trkpt><trkpt lat="43.86387960716783" lon="11.005967479816233"><ele>34.333333333333336</ele><time>2026-04-12T14:07:21.001Z</time></trkpt><trkpt lat="43.863759063697685" lon="11.005836836231397"><ele>34.0</ele><time>2026-04-12T14:07:22.001Z</time></trkpt><trkpt lat="43.86364218886883" lon="11.005699453056506"><ele>34.66666666666667</ele><time>2026-04-12T14:07:23.001Z</time></trkpt><trkpt lat="43.86352763897055" lon="11.005551755500928"><ele>35.333333333333336</ele><time>2026-04-12T14:07:24.001Z</time></trkpt><trkpt lat="43.86341798724496" lon="11.005397351209748"><ele>36.0</ele><time>2026-04-12T14:07:25.001Z</time></trkpt><trkpt lat="43.863307371412624" lon="11.005232280121291"><ele>36.333333333333336</ele><time>2026-04-12T14:07:26.001Z</time></trkpt><trkpt lat="43.8632006616068" lon="11.005064722965056"><ele>36.66666666666667</ele><time>2026-04-12T14:07:27.001Z</time></trkpt><trkpt lat="43.86310618550677" lon="11.004899569107975"><ele>37.0</ele><time>2026-04-12T14:07:28.001Z</time></trkpt><trkpt lat="43.863014449181335" lon="11.004745401395335"><ele>37.0</ele><time>2026-04-12T14:07:29.001Z</time></trkpt><trkpt lat="43.86292717360779" lon="11.004597543797436"><ele>37.0</ele><time>2026-04-12T14:07:30.001Z</time></trkpt><trkpt lat="43.862851772944616" lon="11.004473910740042"><ele>37.0</ele><time>2026-04-12T14:07:31.001Z</time></trkpt><trkpt lat="43.86281674976805" lon="11.004380357255169"><ele>37.0</ele><time>2026-04-12T14:07:32.001Z</time></trkpt><trkpt lat="43.862726963656804" lon="11.004484208397955"><ele>37.0</ele><time>2026-04-12T14:07:34.001Z</time></trkpt><trkpt lat="43.862725936571785" lon="11.004595189599925"><ele>37.0</ele><time>2026-04-12T14:07:36.001Z</time></trkpt><trkpt lat="43.86271419475383" lon="11.004697033354782"><ele>37.0</ele><time>2026-04-12T14:07:38.001Z</time></trkpt><trkpt lat="43.862677518951934" lon="11.004804328737128"><ele>37.0</ele><time>2026-04-12T14:07:41.001Z</time></trkpt><trkpt lat="43.86255235751914" lon="11.004754748299344"><ele>37.0</ele><time>2026-04-12T14:07:42.001Z</time></trkpt><trkpt lat="43.862505883974436" lon="11.004853064541946"><ele>37.0</ele><time>2026-04-12T14:07:44.001Z</time></trkpt><trkpt lat="43.86234036998534" lon="11.00518667484978"><ele>38.0</ele><time>2026-04-12T14:10:00.002Z</time></trkpt><trkpt lat="43.86312872153201" lon="11.005075995304077"><ele>37.83333333333333</ele><time>2026-04-12T14:22:54Z</time></trkpt><trkpt lat="43.8631357406557" lon="11.00495256590541"><ele>37.666666666666664</ele><time>2026-04-12T14:22:57Z</time></trkpt><trkpt lat="43.86306521585468" lon="11.004829767631449"><ele>37.5</ele><time>2026-04-12T14:22:59Z</time></trkpt><trkpt lat="43.86302003845101" lon="11.004768395899603"><ele>37.333333333333336</ele><time>2026-04-12T14:23:00Z</time></trkpt><trkpt lat="43.862980234951365" lon="11.004677417810566"><ele>37.16666666666667</ele><time>2026-04-12T14:23:01Z</time></trkpt><trkpt lat="43.86292285030813" lon="11.004575114584782"><ele>37.0</ele><time>2026-04-12T14:23:02Z</time></trkpt><trkpt lat="43.86286037641574" lon="11.004457327618889"><ele>37.0</ele><time>2026-04-12T14:23:03Z</time></trkpt><trkpt lat="43.86279262254511" lon="11.004337484139388"><ele>37.0</ele><time>2026-04-12T14:23:04Z</time></trkpt><trkpt lat="43.862722314790524" lon="11.004211962181403"><ele>37.0</ele><time>2026-04-12T14:23:05Z</time></trkpt><trkpt lat="43.86264719533804" lon="11.004082311565021"><ele>37.0</ele><time>2026-04-12T14:23:06Z</time></trkpt><trkpt lat="43.86256924449449" lon="11.003943517641474"><ele>37.0</ele><time>2026-04-12T14:23:07Z</time></trkpt><trkpt lat="43.86249132871534" lon="11.003802100278188"><ele>37.0</ele><time>2026-04-12T14:23:08Z</time></trkpt><trkpt lat="43.86240545656564" lon="11.003658301799641"><ele>37.0</ele><time>2026-04-12T14:23:09Z</time></trkpt><trkpt lat="43.86232391244947" lon="11.003513145240074"><ele>37.0</ele><time>2026-04-12T14:23:10Z</time></trkpt><trkpt lat="43.86223795399429" lon="11.003364113922755"><ele>37.0</ele><time>2026-04-12T14:23:11Z</time></trkpt><trkpt lat="43.86214487827917" lon="11.003208339797537"><ele>37.0</ele><time>2026-04-12T14:23:12Z</time></trkpt><trkpt lat="43.86204383770722" lon="11.003047885604838"><ele>37.0</ele><time>2026-04-12T14:23:13Z</time></trkpt><trkpt lat="43.86194486171888" lon="11.002872559098591"><ele>37.0</ele><time>2026-04-12T14:23:14Z</time></trkpt><trkpt lat="43.8618403702484" lon="11.002687380506913"><ele>37.0</ele><time>2026-04-12T14:23:15Z</time></trkpt><trkpt lat="43.86173006418794" lon="11.00249987350106"><ele>37.0</ele><time>2026-04-12T14:23:16Z</time></trkpt><trkpt lat="43.86161528527892" lon="11.002310731123703"><ele>37.333333333333336</ele><time>2026-04-12T14:23:17Z</time></trkpt><trkpt lat="43.861499690206315" lon="11.002119792343063"><ele>37.666666666666664</ele><time>2026-04-12T14:23:18Z</time></trkpt><trkpt lat="43.86138447775" lon="11.001941228165338"><ele>38.0</ele><time>2026-04-12T14:23:19Z</time></trkpt><trkpt lat="43.86127523853425" lon="11.001779270483828"><ele>37.5</ele><time>2026-04-12T14:23:20Z</time></trkpt><trkpt lat="43.861171099387235" lon="11.001631158017743"><ele>37.0</ele><time>2026-04-12T14:23:21Z</time></trkpt><trkpt lat="43.861072812859994" lon="11.001495408139665"><ele>36.5</ele><time>2026-04-12T14:23:22Z</time></trkpt><trkpt lat="43.860980716518476" lon="11.001367612430503"><ele>36.0</ele><time>2026-04-12T14:23:23Z</time></trkpt><trkpt lat="43.860894028615014" lon="11.001248846125643"><ele>36.0</ele><time>2026-04-12T14:23:24Z</time></trkpt><trkpt lat="43.86081575528421" lon="11.001137742127353"><ele>36.0</ele><time>2026-04-12T14:23:25Z</time></trkpt><trkpt lat="43.86075104407434" lon="11.00103187543581"><ele>36.0</ele><time>2026-04-12T14:23:26Z</time></trkpt><trkpt lat="43.860707480122464" lon="11.00092582856798"><ele>36.0</ele><time>2026-04-12T14:23:27Z</time></trkpt><trkpt lat="43.86065340419945" lon="11.000833295443861"><ele>36.0</ele><time>2026-04-12T14:23:28Z</time></trkpt><trkpt lat="43.860566732904104" lon="11.00078013375531"><ele>36.25</ele><time>2026-04-12T14:23:29Z</time></trkpt><trkpt lat="43.860471280068595" lon="11.000729727421277"><ele>36.5</ele><time>2026-04-12T14:23:30Z</time></trkpt><trkpt lat="43.86037986219443" lon="11.000644873617217"><ele>36.75</ele><time>2026-04-12T14:23:31Z</time></trkpt><trkpt lat="43.860289956834166" lon="11.000527266834798"><ele>37.0</ele><time>2026-04-12T14:23:32Z</time></trkpt><trkpt lat="43.86019970851414" lon="11.000410806140126"><ele>37.0</ele><time>2026-04-12T14:23:33Z</time></trkpt><trkpt lat="43.86011482018784" lon="11.000303278166866"><ele>37.0</ele><time>2026-04-12T14:23:34Z</time></trkpt><trkpt lat="43.860034921308994" lon="11.000204261271293"><ele>37.0</ele><time>2026-04-12T14:23:35Z</time></trkpt><trkpt lat="43.859962458117344" lon="11.000106726174348"><ele>37.0</ele><time>2026-04-12T14:23:36Z</time></trkpt><trkpt lat="43.859900809733176" lon="11.000007558706972"><ele>37.0</ele><time>2026-04-12T14:23:37Z</time></trkpt><trkpt lat="43.859852933165804" lon="10.999903432040648"><ele>37.0</ele><time>2026-04-12T14:23:38Z</time></trkpt><trkpt lat="43.85982815630928" lon="10.999793172733193"><ele>37.0</ele><time>2026-04-12T14:23:39Z</time></trkpt><trkpt lat="43.85979903087219" lon="10.999699025734547"><ele>37.0</ele><time>2026-04-12T14:23:40Z</time></trkpt><trkpt lat="43.859750304468854" lon="10.999624672165382"><ele>37.0</ele><time>2026-04-12T14:23:41Z</time></trkpt><trkpt lat="43.859675312127486" lon="10.99958046609489"><ele>37.0</ele><time>2026-04-12T14:23:42Z</time></trkpt><trkpt lat="43.85959018352096" lon="10.99953944844879"><ele>37.0</ele><time>2026-04-12T14:23:43Z</time></trkpt><trkpt lat="43.85951124794903" lon="10.999457465749456"><ele>37.0</ele><time>2026-04-12T14:23:44Z</time></trkpt><trkpt lat="43.859439804457345" lon="10.99933915350182"><ele>37.0</ele><time>2026-04-12T14:23:45Z</time></trkpt><trkpt lat="43.856385758134124" lon="10.990927870549225"><ele>37.6</ele><time>2026-04-12T14:24:46Z</time></trkpt><trkpt lat="43.85633631112816" lon="10.990802942512614"><ele>38.2</ele><time>2026-04-12T14:24:47Z</time></trkpt><trkpt lat="43.85627896003094" lon="10.990676792326067"><ele>38.8</ele><time>2026-04-12T14:24:48Z</time></trkpt><trkpt lat="43.85622507392053" lon="10.990565750909663"><ele>39.4</ele><time>2026-04-12T14:24:49Z</time></trkpt><trkpt lat="43.85617350014498" lon="10.990464486209232"><ele>40.0</ele><time>2026-04-12T14:24:50Z</time></trkpt><trkpt lat="43.85612125697899" lon="10.990377148745237"><ele>40.0</ele><time>2026-04-12T14:24:51Z</time></trkpt><trkpt lat="43.8560715332494" lon="10.990301144701391"><ele>40.0</ele><time>2026-04-12T14:24:52Z</time></trkpt><trkpt lat="43.85602455283227" lon="10.99023806652338"><ele>40.0</ele><time>2026-04-12T14:24:53Z</time></trkpt><trkpt lat="43.855945955995296" lon="10.990144134662483"><ele>40.0</ele><time>2026-04-12T14:24:55Z</time></trkpt><trkpt lat="43.85589108811165" lon="10.99008245681082"><ele>40.0</ele><time>2026-04-12T14:24:57Z</time></trkpt><trkpt lat="43.8558367223766" lon="10.990020328180279"><ele>40.0</ele><time>2026-04-12T14:25:00Z</time></trkpt><trkpt lat="43.85577044790479" lon="10.989979493136572"><ele>39.0</ele><time>2026-04-12T14:25:05Z</time></trkpt><trkpt lat="43.855686346156496" lon="10.990194881385491"><ele>39.0</ele><time>2026-04-12T14:25:13Z</time></trkpt></trkseg></trk></gpx>